<?xml version="1.0" encoding="utf-8"?>
<gpx xmlns:xsi="http://www.w3.org/2001/XMLSchema-instance" xmlns:xsd="http://www.w3.org/2001/XMLSchema" version="1.1" creator="Shapelink.com" xmlns="http://www.topografix.com/GPX/1/1" xmlns:gpxtpx="http://www.garmin.com/xmlschemas/TrackPointExtension/v1">
  <metadata>
    <name>Sykling 48.61 km, 2013-05-03</name>
    <desc></desc>
    <author><name>Mikael Blom</name></author> 
    <time>2013-05-03T14:25:59Z</time>
  </metadata>
  <trk>
    <name>Sykling 48.61 km, 2013-05-03</name>
    <trkseg>
      <trkpt lat="59.9787857" lon="17.7393936">
        <ele>24.651</ele>
        <time>2013-05-03T14:25:59Z</time>
      </trkpt>
      <trkpt lat="59.9787646" lon="17.7393665">
        <ele>25.6123</ele>
        <time>2013-05-03T14:26:00Z</time>
      </trkpt>
      <trkpt lat="59.9787461" lon="17.7393489">
        <ele>26.0929</ele>
        <time>2013-05-03T14:26:01Z</time>
      </trkpt>
      <trkpt lat="59.9787289" lon="17.7393357">
        <ele>27.5349</ele>
        <time>2013-05-03T14:26:02Z</time>
      </trkpt>
      <trkpt lat="59.9787168" lon="17.7393181">
        <ele>29.9381</ele>
        <time>2013-05-03T14:26:03Z</time>
      </trkpt>
      <trkpt lat="59.9786981" lon="17.7392827">
        <ele>31.8607</ele>
        <time>2013-05-03T14:26:04Z</time>
      </trkpt>
      <trkpt lat="59.9786749" lon="17.739258">
        <ele>33.3029</ele>
        <time>2013-05-03T14:26:05Z</time>
      </trkpt>
      <trkpt lat="59.9786475" lon="17.7392284">
        <ele>35.2255</ele>
        <time>2013-05-03T14:26:06Z</time>
      </trkpt>
      <trkpt lat="59.9786306" lon="17.7392187">
        <ele>37.6287</ele>
        <time>2013-05-03T14:26:07Z</time>
      </trkpt>
      <trkpt lat="59.9786216" lon="17.7391813">
        <ele>40.9934</ele>
        <time>2013-05-03T14:26:08Z</time>
      </trkpt>
      <trkpt lat="59.9785998" lon="17.7391502">
        <ele>43.3966</ele>
        <time>2013-05-03T14:26:09Z</time>
      </trkpt>
      <trkpt lat="59.9785655" lon="17.7391446">
        <ele>43.3966</ele>
        <time>2013-05-03T14:26:10Z</time>
      </trkpt>
      <trkpt lat="59.9785356" lon="17.7391511">
        <ele>44.358</ele>
        <time>2013-05-03T14:26:11Z</time>
      </trkpt>
      <trkpt lat="59.9785112" lon="17.7391255">
        <ele>46.2806</ele>
        <time>2013-05-03T14:26:12Z</time>
      </trkpt>
      <trkpt lat="59.9784766" lon="17.7390927">
        <ele>48.2034</ele>
        <time>2013-05-03T14:26:13Z</time>
      </trkpt>
      <trkpt lat="59.978436" lon="17.7390761">
        <ele>49.1646</ele>
        <time>2013-05-03T14:26:14Z</time>
      </trkpt>
      <trkpt lat="59.9783734" lon="17.7390623">
        <ele>48.684</ele>
        <time>2013-05-03T14:26:15Z</time>
      </trkpt>
      <trkpt lat="59.9783313" lon="17.7390447">
        <ele>50.6066</ele>
        <time>2013-05-03T14:26:16Z</time>
      </trkpt>
      <trkpt lat="59.9782871" lon="17.7390744">
        <ele>48.684</ele>
        <time>2013-05-03T14:26:17Z</time>
      </trkpt>
      <trkpt lat="59.9782389" lon="17.739114">
        <ele>46.2806</ele>
        <time>2013-05-03T14:26:18Z</time>
      </trkpt>
      <trkpt lat="59.9781855" lon="17.7390869">
        <ele>46.7612</ele>
        <time>2013-05-03T14:26:19Z</time>
      </trkpt>
      <trkpt lat="59.9781395" lon="17.7390526">
        <ele>47.7225</ele>
        <time>2013-05-03T14:26:20Z</time>
      </trkpt>
      <trkpt lat="59.978103" lon="17.7390362">
        <ele>48.684</ele>
        <time>2013-05-03T14:26:21Z</time>
      </trkpt>
      <trkpt lat="59.9780589" lon="17.7390035">
        <ele>50.6066</ele>
        <time>2013-05-03T14:26:22Z</time>
      </trkpt>
      <trkpt lat="59.978012" lon="17.7389539">
        <ele>52.0486</ele>
        <time>2013-05-03T14:26:23Z</time>
      </trkpt>
      <trkpt lat="59.9779559" lon="17.7388969">
        <ele>53.0098</ele>
        <time>2013-05-03T14:26:24Z</time>
      </trkpt>
      <trkpt lat="59.9779017" lon="17.7388548">
        <ele>53.9712</ele>
        <time>2013-05-03T14:26:25Z</time>
      </trkpt>
      <trkpt lat="59.9778354" lon="17.7388249">
        <ele>54.9324</ele>
        <time>2013-05-03T14:26:26Z</time>
      </trkpt>
      <trkpt lat="59.977767" lon="17.7388063">
        <ele>54.9324</ele>
        <time>2013-05-03T14:26:27Z</time>
      </trkpt>
      <trkpt lat="59.9777011" lon="17.7388073">
        <ele>53.4905</ele>
        <time>2013-05-03T14:26:28Z</time>
      </trkpt>
      <trkpt lat="59.9776332" lon="17.7388174">
        <ele>52.0486</ele>
        <time>2013-05-03T14:26:29Z</time>
      </trkpt>
      <trkpt lat="59.97756" lon="17.738857">
        <ele>48.684</ele>
        <time>2013-05-03T14:26:30Z</time>
      </trkpt>
      <trkpt lat="59.9774902" lon="17.7389104">
        <ele>45.7999</ele>
        <time>2013-05-03T14:26:31Z</time>
      </trkpt>
      <trkpt lat="59.9774224" lon="17.7389723">
        <ele>43.8773</ele>
        <time>2013-05-03T14:26:32Z</time>
      </trkpt>
      <trkpt lat="59.9773659" lon="17.7390478">
        <ele>40.9934</ele>
        <time>2013-05-03T14:26:33Z</time>
      </trkpt>
      <trkpt lat="59.9773012" lon="17.7391336">
        <ele>37.6287</ele>
        <time>2013-05-03T14:26:34Z</time>
      </trkpt>
      <trkpt lat="59.9772329" lon="17.7392177">
        <ele>33.7834</ele>
        <time>2013-05-03T14:26:35Z</time>
      </trkpt>
      <trkpt lat="59.9771614" lon="17.7392895">
        <ele>29.9381</ele>
        <time>2013-05-03T14:26:36Z</time>
      </trkpt>
      <trkpt lat="59.9770873" lon="17.7393563">
        <ele>26.0929</ele>
        <time>2013-05-03T14:26:37Z</time>
      </trkpt>
      <trkpt lat="59.9770158" lon="17.7394435">
        <ele>21.767</ele>
        <time>2013-05-03T14:26:38Z</time>
      </trkpt>
      <trkpt lat="59.9769365" lon="17.7395408">
        <ele>15.5184</ele>
        <time>2013-05-03T14:26:39Z</time>
      </trkpt>
      <trkpt lat="59.9768556" lon="17.7395955">
        <ele>12.1538</ele>
        <time>2013-05-03T14:26:40Z</time>
      </trkpt>
      <trkpt lat="59.9767849" lon="17.7396335">
        <ele>10.2312</ele>
        <time>2013-05-03T14:26:41Z</time>
      </trkpt>
      <trkpt lat="59.9767173" lon="17.7396761">
        <ele>8.30859</ele>
        <time>2013-05-03T14:26:42Z</time>
      </trkpt>
      <trkpt lat="59.9766476" lon="17.7397142">
        <ele>6.86646</ele>
        <time>2013-05-03T14:26:43Z</time>
      </trkpt>
      <trkpt lat="59.9765719" lon="17.7397578">
        <ele>5.90527</ele>
        <time>2013-05-03T14:26:44Z</time>
      </trkpt>
      <trkpt lat="59.9764931" lon="17.7398186">
        <ele>4.46326</ele>
        <time>2013-05-03T14:26:45Z</time>
      </trkpt>
      <trkpt lat="59.976424" lon="17.7398935">
        <ele>3.50195</ele>
        <time>2013-05-03T14:26:46Z</time>
      </trkpt>
      <trkpt lat="59.9763673" lon="17.7399758">
        <ele>3.02124</ele>
        <time>2013-05-03T14:26:47Z</time>
      </trkpt>
      <trkpt lat="59.9763066" lon="17.7400459">
        <ele>1.57935</ele>
        <time>2013-05-03T14:26:48Z</time>
      </trkpt>
      <trkpt lat="59.9762527" lon="17.7400617">
        <ele>1.09863</ele>
        <time>2013-05-03T14:26:49Z</time>
      </trkpt>
      <trkpt lat="59.9761852" lon="17.7400537">
        <ele>1.09863</ele>
        <time>2013-05-03T14:26:50Z</time>
      </trkpt>
      <trkpt lat="59.9761143" lon="17.7399957">
        <ele>1.57935</ele>
        <time>2013-05-03T14:26:51Z</time>
      </trkpt>
      <trkpt lat="59.9760398" lon="17.7399474">
        <ele>0.618042</ele>
        <time>2013-05-03T14:26:52Z</time>
      </trkpt>
      <trkpt lat="59.9759849" lon="17.7397417">
        <ele>2.54065</ele>
        <time>2013-05-03T14:26:53Z</time>
      </trkpt>
      <trkpt lat="59.9759233" lon="17.7395501">
        <ele>3.02124</ele>
        <time>2013-05-03T14:26:54Z</time>
      </trkpt>
      <trkpt lat="59.9758549" lon="17.7393818">
        <ele>3.50195</ele>
        <time>2013-05-03T14:26:55Z</time>
      </trkpt>
      <trkpt lat="59.9757907" lon="17.7392269">
        <ele>3.98267</ele>
        <time>2013-05-03T14:26:56Z</time>
      </trkpt>
      <trkpt lat="59.975723" lon="17.739083">
        <ele>4.46326</ele>
        <time>2013-05-03T14:26:57Z</time>
      </trkpt>
      <trkpt lat="59.9756479" lon="17.7389464">
        <ele>4.94385</ele>
        <time>2013-05-03T14:26:58Z</time>
      </trkpt>
      <trkpt lat="59.9755736" lon="17.7388166">
        <ele>5.42456</ele>
        <time>2013-05-03T14:26:59Z</time>
      </trkpt>
      <trkpt lat="59.9755004" lon="17.738694">
        <ele>5.42456</ele>
        <time>2013-05-03T14:27:00Z</time>
      </trkpt>
      <trkpt lat="59.9754292" lon="17.7385742">
        <ele>5.90527</ele>
        <time>2013-05-03T14:27:01Z</time>
      </trkpt>
      <trkpt lat="59.9753603" lon="17.7384546">
        <ele>5.90527</ele>
        <time>2013-05-03T14:27:02Z</time>
      </trkpt>
      <trkpt lat="59.975294" lon="17.7383343">
        <ele>6.38586</ele>
        <time>2013-05-03T14:27:03Z</time>
      </trkpt>
      <trkpt lat="59.9752307" lon="17.7382121">
        <ele>6.38586</ele>
        <time>2013-05-03T14:27:04Z</time>
      </trkpt>
      <trkpt lat="59.9751067" lon="17.7379781">
        <ele>6.86646</ele>
        <time>2013-05-03T14:27:06Z</time>
      </trkpt>
      <trkpt lat="59.9750448" lon="17.7378669">
        <ele>7.34717</ele>
        <time>2013-05-03T14:27:07Z</time>
      </trkpt>
      <trkpt lat="59.9749837" lon="17.7377583">
        <ele>7.34717</ele>
        <time>2013-05-03T14:27:08Z</time>
      </trkpt>
      <trkpt lat="59.9749239" lon="17.7376489">
        <ele>7.82788</ele>
        <time>2013-05-03T14:27:09Z</time>
      </trkpt>
      <trkpt lat="59.9748686" lon="17.7375398">
        <ele>7.82788</ele>
        <time>2013-05-03T14:27:10Z</time>
      </trkpt>
      <trkpt lat="59.9748167" lon="17.7374313">
        <ele>8.30859</ele>
        <time>2013-05-03T14:27:11Z</time>
      </trkpt>
      <trkpt lat="59.9747681" lon="17.7373217">
        <ele>8.30859</ele>
        <time>2013-05-03T14:27:12Z</time>
      </trkpt>
      <trkpt lat="59.9747221" lon="17.737209">
        <ele>8.78918</ele>
        <time>2013-05-03T14:27:13Z</time>
      </trkpt>
      <trkpt lat="59.9746775" lon="17.7370947">
        <ele>8.78918</ele>
        <time>2013-05-03T14:27:14Z</time>
      </trkpt>
      <trkpt lat="59.9746355" lon="17.7369772">
        <ele>9.2699</ele>
        <time>2013-05-03T14:27:15Z</time>
      </trkpt>
      <trkpt lat="59.9745968" lon="17.736857">
        <ele>9.2699</ele>
        <time>2013-05-03T14:27:16Z</time>
      </trkpt>
      <trkpt lat="59.974561" lon="17.7367369">
        <ele>9.75061</ele>
        <time>2013-05-03T14:27:17Z</time>
      </trkpt>
      <trkpt lat="59.9745278" lon="17.736617">
        <ele>10.2312</ele>
        <time>2013-05-03T14:27:18Z</time>
      </trkpt>
      <trkpt lat="59.9744977" lon="17.7364954">
        <ele>10.2312</ele>
        <time>2013-05-03T14:27:19Z</time>
      </trkpt>
      <trkpt lat="59.974477" lon="17.7363256">
        <ele>14.0764</ele>
        <time>2013-05-03T14:27:20Z</time>
      </trkpt>
      <trkpt lat="59.9744533" lon="17.7361842">
        <ele>15.5184</ele>
        <time>2013-05-03T14:27:21Z</time>
      </trkpt>
      <trkpt lat="59.9744288" lon="17.7360515">
        <ele>16.4797</ele>
        <time>2013-05-03T14:27:22Z</time>
      </trkpt>
      <trkpt lat="59.9744044" lon="17.7359225">
        <ele>16.9604</ele>
        <time>2013-05-03T14:27:23Z</time>
      </trkpt>
      <trkpt lat="59.9743815" lon="17.7357947">
        <ele>17.4412</ele>
        <time>2013-05-03T14:27:24Z</time>
      </trkpt>
      <trkpt lat="59.9743614" lon="17.7356666">
        <ele>17.9218</ele>
        <time>2013-05-03T14:27:25Z</time>
      </trkpt>
      <trkpt lat="59.9743437" lon="17.7355376">
        <ele>17.9218</ele>
        <time>2013-05-03T14:27:26Z</time>
      </trkpt>
      <trkpt lat="59.9743284" lon="17.7354076">
        <ele>18.4023</ele>
        <time>2013-05-03T14:27:27Z</time>
      </trkpt>
      <trkpt lat="59.9743154" lon="17.735276">
        <ele>18.4023</ele>
        <time>2013-05-03T14:27:28Z</time>
      </trkpt>
      <trkpt lat="59.9743035" lon="17.7351422">
        <ele>18.4023</ele>
        <time>2013-05-03T14:27:29Z</time>
      </trkpt>
      <trkpt lat="59.9742935" lon="17.7350067">
        <ele>18.4023</ele>
        <time>2013-05-03T14:27:30Z</time>
      </trkpt>
      <trkpt lat="59.9742843" lon="17.7348719">
        <ele>18.4023</ele>
        <time>2013-05-03T14:27:31Z</time>
      </trkpt>
      <trkpt lat="59.9742762" lon="17.7347383">
        <ele>18.4023</ele>
        <time>2013-05-03T14:27:32Z</time>
      </trkpt>
      <trkpt lat="59.9742709" lon="17.7346061">
        <ele>18.4023</ele>
        <time>2013-05-03T14:27:33Z</time>
      </trkpt>
      <trkpt lat="59.9742678" lon="17.7344741">
        <ele>18.4023</ele>
        <time>2013-05-03T14:27:34Z</time>
      </trkpt>
      <trkpt lat="59.9742687" lon="17.7343414">
        <ele>18.4023</ele>
        <time>2013-05-03T14:27:35Z</time>
      </trkpt>
      <trkpt lat="59.974274" lon="17.7342103">
        <ele>18.4023</ele>
        <time>2013-05-03T14:27:36Z</time>
      </trkpt>
      <trkpt lat="59.9742812" lon="17.7340804">
        <ele>18.4023</ele>
        <time>2013-05-03T14:27:37Z</time>
      </trkpt>
      <trkpt lat="59.9742879" lon="17.7339519">
        <ele>18.4023</ele>
        <time>2013-05-03T14:27:38Z</time>
      </trkpt>
      <trkpt lat="59.9742942" lon="17.7338234">
        <ele>18.4023</ele>
        <time>2013-05-03T14:27:39Z</time>
      </trkpt>
      <trkpt lat="59.9743014" lon="17.733695">
        <ele>18.4023</ele>
        <time>2013-05-03T14:27:40Z</time>
      </trkpt>
      <trkpt lat="59.9743081" lon="17.7335676">
        <ele>18.4023</ele>
        <time>2013-05-03T14:27:41Z</time>
      </trkpt>
      <trkpt lat="59.974314" lon="17.7334417">
        <ele>18.4023</ele>
        <time>2013-05-03T14:27:42Z</time>
      </trkpt>
      <trkpt lat="59.9743185" lon="17.7333169">
        <ele>18.4023</ele>
        <time>2013-05-03T14:27:43Z</time>
      </trkpt>
      <trkpt lat="59.9743207" lon="17.7331936">
        <ele>18.4023</ele>
        <time>2013-05-03T14:27:44Z</time>
      </trkpt>
      <trkpt lat="59.9743243" lon="17.7330704">
        <ele>18.4023</ele>
        <time>2013-05-03T14:27:45Z</time>
      </trkpt>
      <trkpt lat="59.9743297" lon="17.7329482">
        <ele>18.4023</ele>
        <time>2013-05-03T14:27:46Z</time>
      </trkpt>
      <trkpt lat="59.9743341" lon="17.7328299">
        <ele>18.4023</ele>
        <time>2013-05-03T14:27:47Z</time>
      </trkpt>
      <trkpt lat="59.9743357" lon="17.7327156">
        <ele>18.4023</ele>
        <time>2013-05-03T14:27:48Z</time>
      </trkpt>
      <trkpt lat="59.974335" lon="17.7326044">
        <ele>18.4023</ele>
        <time>2013-05-03T14:27:49Z</time>
      </trkpt>
      <trkpt lat="59.9743326" lon="17.7324948">
        <ele>18.4023</ele>
        <time>2013-05-03T14:27:50Z</time>
      </trkpt>
      <trkpt lat="59.9743299" lon="17.732386">
        <ele>18.4023</ele>
        <time>2013-05-03T14:27:51Z</time>
      </trkpt>
      <trkpt lat="59.9743277" lon="17.7322788">
        <ele>17.9218</ele>
        <time>2013-05-03T14:27:52Z</time>
      </trkpt>
      <trkpt lat="59.9743263" lon="17.7321741">
        <ele>17.9218</ele>
        <time>2013-05-03T14:27:53Z</time>
      </trkpt>
      <trkpt lat="59.9743247" lon="17.7320698">
        <ele>17.9218</ele>
        <time>2013-05-03T14:27:54Z</time>
      </trkpt>
      <trkpt lat="59.9743214" lon="17.731964">
        <ele>17.9218</ele>
        <time>2013-05-03T14:27:55Z</time>
      </trkpt>
      <trkpt lat="59.9743185" lon="17.7318561">
        <ele>17.9218</ele>
        <time>2013-05-03T14:27:56Z</time>
      </trkpt>
      <trkpt lat="59.974318" lon="17.7317449">
        <ele>17.9218</ele>
        <time>2013-05-03T14:27:57Z</time>
      </trkpt>
      <trkpt lat="59.9743181" lon="17.7316306">
        <ele>17.9218</ele>
        <time>2013-05-03T14:27:58Z</time>
      </trkpt>
      <trkpt lat="59.9743195" lon="17.7315147">
        <ele>17.9218</ele>
        <time>2013-05-03T14:27:59Z</time>
      </trkpt>
      <trkpt lat="59.9743236" lon="17.7313985">
        <ele>17.9218</ele>
        <time>2013-05-03T14:28:00Z</time>
      </trkpt>
      <trkpt lat="59.9743287" lon="17.7312822">
        <ele>17.9218</ele>
        <time>2013-05-03T14:28:01Z</time>
      </trkpt>
      <trkpt lat="59.9743341" lon="17.7311659">
        <ele>17.9218</ele>
        <time>2013-05-03T14:28:02Z</time>
      </trkpt>
      <trkpt lat="59.9743403" lon="17.7310491">
        <ele>17.9218</ele>
        <time>2013-05-03T14:28:03Z</time>
      </trkpt>
      <trkpt lat="59.9743471" lon="17.7309314">
        <ele>17.9218</ele>
        <time>2013-05-03T14:28:04Z</time>
      </trkpt>
      <trkpt lat="59.9743552" lon="17.7308123">
        <ele>17.9218</ele>
        <time>2013-05-03T14:28:05Z</time>
      </trkpt>
      <trkpt lat="59.9743639" lon="17.7306927">
        <ele>17.9218</ele>
        <time>2013-05-03T14:28:06Z</time>
      </trkpt>
      <trkpt lat="59.974373" lon="17.7305738">
        <ele>17.9218</ele>
        <time>2013-05-03T14:28:07Z</time>
      </trkpt>
      <trkpt lat="59.9743833" lon="17.7304557">
        <ele>17.9218</ele>
        <time>2013-05-03T14:28:08Z</time>
      </trkpt>
      <trkpt lat="59.974395" lon="17.7303387">
        <ele>17.9218</ele>
        <time>2013-05-03T14:28:09Z</time>
      </trkpt>
      <trkpt lat="59.9744066" lon="17.7302214">
        <ele>17.9218</ele>
        <time>2013-05-03T14:28:10Z</time>
      </trkpt>
      <trkpt lat="59.974416" lon="17.7301036">
        <ele>17.9218</ele>
        <time>2013-05-03T14:28:11Z</time>
      </trkpt>
      <trkpt lat="59.9744252" lon="17.7299849">
        <ele>17.9218</ele>
        <time>2013-05-03T14:28:12Z</time>
      </trkpt>
      <trkpt lat="59.9744351" lon="17.7298652">
        <ele>17.4412</ele>
        <time>2013-05-03T14:28:13Z</time>
      </trkpt>
      <trkpt lat="59.974445" lon="17.7297447">
        <ele>17.4412</ele>
        <time>2013-05-03T14:28:14Z</time>
      </trkpt>
      <trkpt lat="59.9744527" lon="17.7296234">
        <ele>17.4412</ele>
        <time>2013-05-03T14:28:15Z</time>
      </trkpt>
      <trkpt lat="59.9744563" lon="17.7295005">
        <ele>17.4412</ele>
        <time>2013-05-03T14:28:16Z</time>
      </trkpt>
      <trkpt lat="59.9744574" lon="17.7293774">
        <ele>17.9218</ele>
        <time>2013-05-03T14:28:17Z</time>
      </trkpt>
      <trkpt lat="59.9744574" lon="17.7292537">
        <ele>17.4412</ele>
        <time>2013-05-03T14:28:18Z</time>
      </trkpt>
      <trkpt lat="59.9744561" lon="17.7291298">
        <ele>17.4412</ele>
        <time>2013-05-03T14:28:19Z</time>
      </trkpt>
      <trkpt lat="59.9744525" lon="17.7290071">
        <ele>17.4412</ele>
        <time>2013-05-03T14:28:20Z</time>
      </trkpt>
      <trkpt lat="59.974448" lon="17.7288848">
        <ele>17.4412</ele>
        <time>2013-05-03T14:28:21Z</time>
      </trkpt>
      <trkpt lat="59.9744439" lon="17.7287615">
        <ele>16.9604</ele>
        <time>2013-05-03T14:28:22Z</time>
      </trkpt>
      <trkpt lat="59.9744413" lon="17.7286366">
        <ele>16.9604</ele>
        <time>2013-05-03T14:28:23Z</time>
      </trkpt>
      <trkpt lat="59.9744395" lon="17.7285102">
        <ele>16.9604</ele>
        <time>2013-05-03T14:28:24Z</time>
      </trkpt>
      <trkpt lat="59.9744361" lon="17.7283829">
        <ele>16.9604</ele>
        <time>2013-05-03T14:28:25Z</time>
      </trkpt>
      <trkpt lat="59.974433" lon="17.7282552">
        <ele>16.9604</ele>
        <time>2013-05-03T14:28:26Z</time>
      </trkpt>
      <trkpt lat="59.974431" lon="17.728128">
        <ele>16.9604</ele>
        <time>2013-05-03T14:28:27Z</time>
      </trkpt>
      <trkpt lat="59.9744294" lon="17.7280026">
        <ele>16.9604</ele>
        <time>2013-05-03T14:28:28Z</time>
      </trkpt>
      <trkpt lat="59.9744266" lon="17.7278794">
        <ele>16.9604</ele>
        <time>2013-05-03T14:28:29Z</time>
      </trkpt>
      <trkpt lat="59.9744256" lon="17.72776">
        <ele>16.9604</ele>
        <time>2013-05-03T14:28:30Z</time>
      </trkpt>
      <trkpt lat="59.9744254" lon="17.7276442">
        <ele>17.4412</ele>
        <time>2013-05-03T14:28:31Z</time>
      </trkpt>
      <trkpt lat="59.9744246" lon="17.7275319">
        <ele>17.4412</ele>
        <time>2013-05-03T14:28:32Z</time>
      </trkpt>
      <trkpt lat="59.9744225" lon="17.7274224">
        <ele>17.4412</ele>
        <time>2013-05-03T14:28:33Z</time>
      </trkpt>
      <trkpt lat="59.97442" lon="17.7273158">
        <ele>17.9218</ele>
        <time>2013-05-03T14:28:34Z</time>
      </trkpt>
      <trkpt lat="59.974418" lon="17.7272102">
        <ele>18.4023</ele>
        <time>2013-05-03T14:28:35Z</time>
      </trkpt>
      <trkpt lat="59.9744169" lon="17.7271073">
        <ele>18.4023</ele>
        <time>2013-05-03T14:28:36Z</time>
      </trkpt>
      <trkpt lat="59.9744147" lon="17.7270071">
        <ele>18.4023</ele>
        <time>2013-05-03T14:28:37Z</time>
      </trkpt>
      <trkpt lat="59.9744108" lon="17.7269076">
        <ele>18.4023</ele>
        <time>2013-05-03T14:28:38Z</time>
      </trkpt>
      <trkpt lat="59.9744086" lon="17.7268082">
        <ele>18.4023</ele>
        <time>2013-05-03T14:28:39Z</time>
      </trkpt>
      <trkpt lat="59.9744071" lon="17.7267097">
        <ele>18.4023</ele>
        <time>2013-05-03T14:28:40Z</time>
      </trkpt>
      <trkpt lat="59.9744044" lon="17.7266118">
        <ele>18.4023</ele>
        <time>2013-05-03T14:28:41Z</time>
      </trkpt>
      <trkpt lat="59.9744019" lon="17.7265149">
        <ele>17.9218</ele>
        <time>2013-05-03T14:28:42Z</time>
      </trkpt>
      <trkpt lat="59.9743976" lon="17.7264178">
        <ele>17.9218</ele>
        <time>2013-05-03T14:28:43Z</time>
      </trkpt>
      <trkpt lat="59.9743927" lon="17.7263205">
        <ele>17.9218</ele>
        <time>2013-05-03T14:28:44Z</time>
      </trkpt>
      <trkpt lat="59.9743885" lon="17.7262198">
        <ele>17.9218</ele>
        <time>2013-05-03T14:28:45Z</time>
      </trkpt>
      <trkpt lat="59.9743839" lon="17.7261181">
        <ele>17.4412</ele>
        <time>2013-05-03T14:28:46Z</time>
      </trkpt>
      <trkpt lat="59.9743774" lon="17.7260141">
        <ele>17.4412</ele>
        <time>2013-05-03T14:28:47Z</time>
      </trkpt>
      <trkpt lat="59.9743699" lon="17.7259072">
        <ele>17.4412</ele>
        <time>2013-05-03T14:28:48Z</time>
      </trkpt>
      <trkpt lat="59.9743632" lon="17.7257985">
        <ele>17.4412</ele>
        <time>2013-05-03T14:28:49Z</time>
      </trkpt>
      <trkpt lat="59.9743546" lon="17.7256907">
        <ele>17.4412</ele>
        <time>2013-05-03T14:28:50Z</time>
      </trkpt>
      <trkpt lat="59.9743448" lon="17.7255819">
        <ele>17.4412</ele>
        <time>2013-05-03T14:28:51Z</time>
      </trkpt>
      <trkpt lat="59.9743352" lon="17.7254721">
        <ele>17.4412</ele>
        <time>2013-05-03T14:28:52Z</time>
      </trkpt>
      <trkpt lat="59.9743236" lon="17.725364">
        <ele>17.4412</ele>
        <time>2013-05-03T14:28:53Z</time>
      </trkpt>
      <trkpt lat="59.9743103" lon="17.7252572">
        <ele>16.9604</ele>
        <time>2013-05-03T14:28:54Z</time>
      </trkpt>
      <trkpt lat="59.9742973" lon="17.7251504">
        <ele>16.9604</ele>
        <time>2013-05-03T14:28:55Z</time>
      </trkpt>
      <trkpt lat="59.9742838" lon="17.7250433">
        <ele>16.9604</ele>
        <time>2013-05-03T14:28:56Z</time>
      </trkpt>
      <trkpt lat="59.9742696" lon="17.7249356">
        <ele>16.9604</ele>
        <time>2013-05-03T14:28:57Z</time>
      </trkpt>
      <trkpt lat="59.9742546" lon="17.7248274">
        <ele>16.4797</ele>
        <time>2013-05-03T14:28:58Z</time>
      </trkpt>
      <trkpt lat="59.9742387" lon="17.7247185">
        <ele>16.4797</ele>
        <time>2013-05-03T14:28:59Z</time>
      </trkpt>
      <trkpt lat="59.9742227" lon="17.7246098">
        <ele>16.4797</ele>
        <time>2013-05-03T14:29:00Z</time>
      </trkpt>
      <trkpt lat="59.9742072" lon="17.7245018">
        <ele>16.4797</ele>
        <time>2013-05-03T14:29:01Z</time>
      </trkpt>
      <trkpt lat="59.9741919" lon="17.724395">
        <ele>16.4797</ele>
        <time>2013-05-03T14:29:02Z</time>
      </trkpt>
      <trkpt lat="59.9741764" lon="17.7242894">
        <ele>16.4797</ele>
        <time>2013-05-03T14:29:03Z</time>
      </trkpt>
      <trkpt lat="59.9741611" lon="17.724184">
        <ele>15.999</ele>
        <time>2013-05-03T14:29:04Z</time>
      </trkpt>
      <trkpt lat="59.974146" lon="17.7240787">
        <ele>15.999</ele>
        <time>2013-05-03T14:29:05Z</time>
      </trkpt>
      <trkpt lat="59.9741305" lon="17.7239736">
        <ele>15.999</ele>
        <time>2013-05-03T14:29:06Z</time>
      </trkpt>
      <trkpt lat="59.974115" lon="17.7238694">
        <ele>15.999</ele>
        <time>2013-05-03T14:29:07Z</time>
      </trkpt>
      <trkpt lat="59.9741005" lon="17.7237651">
        <ele>15.999</ele>
        <time>2013-05-03T14:29:08Z</time>
      </trkpt>
      <trkpt lat="59.9740871" lon="17.72366">
        <ele>15.999</ele>
        <time>2013-05-03T14:29:09Z</time>
      </trkpt>
      <trkpt lat="59.9740729" lon="17.7235549">
        <ele>15.999</ele>
        <time>2013-05-03T14:29:10Z</time>
      </trkpt>
      <trkpt lat="59.9740569" lon="17.7234513">
        <ele>15.999</ele>
        <time>2013-05-03T14:29:11Z</time>
      </trkpt>
      <trkpt lat="59.9740407" lon="17.7233498">
        <ele>15.5184</ele>
        <time>2013-05-03T14:29:12Z</time>
      </trkpt>
      <trkpt lat="59.9740227" lon="17.7232488">
        <ele>15.5184</ele>
        <time>2013-05-03T14:29:13Z</time>
      </trkpt>
      <trkpt lat="59.9740023" lon="17.7231467">
        <ele>15.5184</ele>
        <time>2013-05-03T14:29:14Z</time>
      </trkpt>
      <trkpt lat="59.9739812" lon="17.7230433">
        <ele>15.5184</ele>
        <time>2013-05-03T14:29:15Z</time>
      </trkpt>
      <trkpt lat="59.9739585" lon="17.7229406">
        <ele>15.999</ele>
        <time>2013-05-03T14:29:16Z</time>
      </trkpt>
      <trkpt lat="59.9739341" lon="17.7228415">
        <ele>15.999</ele>
        <time>2013-05-03T14:29:17Z</time>
      </trkpt>
      <trkpt lat="59.9739092" lon="17.7227431">
        <ele>15.999</ele>
        <time>2013-05-03T14:29:18Z</time>
      </trkpt>
      <trkpt lat="59.9738802" lon="17.7226351">
        <ele>16.4797</ele>
        <time>2013-05-03T14:29:19Z</time>
      </trkpt>
      <trkpt lat="59.9738529" lon="17.7225402">
        <ele>16.4797</ele>
        <time>2013-05-03T14:29:20Z</time>
      </trkpt>
      <trkpt lat="59.9738249" lon="17.7224454">
        <ele>16.4797</ele>
        <time>2013-05-03T14:29:21Z</time>
      </trkpt>
      <trkpt lat="59.973796" lon="17.7223507">
        <ele>16.4797</ele>
        <time>2013-05-03T14:29:22Z</time>
      </trkpt>
      <trkpt lat="59.9737662" lon="17.7222583">
        <ele>16.9604</ele>
        <time>2013-05-03T14:29:23Z</time>
      </trkpt>
      <trkpt lat="59.9737345" lon="17.7221667">
        <ele>16.9604</ele>
        <time>2013-05-03T14:29:24Z</time>
      </trkpt>
      <trkpt lat="59.9737016" lon="17.7220774">
        <ele>16.9604</ele>
        <time>2013-05-03T14:29:25Z</time>
      </trkpt>
      <trkpt lat="59.9736698" lon="17.72199">
        <ele>16.9604</ele>
        <time>2013-05-03T14:29:26Z</time>
      </trkpt>
      <trkpt lat="59.9736374" lon="17.7219023">
        <ele>17.4412</ele>
        <time>2013-05-03T14:29:27Z</time>
      </trkpt>
      <trkpt lat="59.9736032" lon="17.7218159">
        <ele>17.4412</ele>
        <time>2013-05-03T14:29:28Z</time>
      </trkpt>
      <trkpt lat="59.9735672" lon="17.7217314">
        <ele>17.4412</ele>
        <time>2013-05-03T14:29:29Z</time>
      </trkpt>
      <trkpt lat="59.9735302" lon="17.7216467">
        <ele>17.4412</ele>
        <time>2013-05-03T14:29:30Z</time>
      </trkpt>
      <trkpt lat="59.9734921" lon="17.7215633">
        <ele>17.4412</ele>
        <time>2013-05-03T14:29:31Z</time>
      </trkpt>
      <trkpt lat="59.9734534" lon="17.7214835">
        <ele>17.4412</ele>
        <time>2013-05-03T14:29:32Z</time>
      </trkpt>
      <trkpt lat="59.9734145" lon="17.7214038">
        <ele>17.9218</ele>
        <time>2013-05-03T14:29:33Z</time>
      </trkpt>
      <trkpt lat="59.9733747" lon="17.7213271">
        <ele>17.9218</ele>
        <time>2013-05-03T14:29:34Z</time>
      </trkpt>
      <trkpt lat="59.9733338" lon="17.7212525">
        <ele>17.9218</ele>
        <time>2013-05-03T14:29:35Z</time>
      </trkpt>
      <trkpt lat="59.9732924" lon="17.7211774">
        <ele>17.9218</ele>
        <time>2013-05-03T14:29:36Z</time>
      </trkpt>
      <trkpt lat="59.9732503" lon="17.7211017">
        <ele>18.4023</ele>
        <time>2013-05-03T14:29:37Z</time>
      </trkpt>
      <trkpt lat="59.9732065" lon="17.7210285">
        <ele>18.4023</ele>
        <time>2013-05-03T14:29:38Z</time>
      </trkpt>
      <trkpt lat="59.9731621" lon="17.7209582">
        <ele>18.4023</ele>
        <time>2013-05-03T14:29:39Z</time>
      </trkpt>
      <trkpt lat="59.9731167" lon="17.7208886">
        <ele>18.4023</ele>
        <time>2013-05-03T14:29:40Z</time>
      </trkpt>
      <trkpt lat="59.9730712" lon="17.7208211">
        <ele>18.8831</ele>
        <time>2013-05-03T14:29:41Z</time>
      </trkpt>
      <trkpt lat="59.973021" lon="17.7207469">
        <ele>19.3638</ele>
        <time>2013-05-03T14:29:42Z</time>
      </trkpt>
      <trkpt lat="59.9729706" lon="17.7206774">
        <ele>19.8444</ele>
        <time>2013-05-03T14:29:43Z</time>
      </trkpt>
      <trkpt lat="59.9729198" lon="17.7206089">
        <ele>20.325</ele>
        <time>2013-05-03T14:29:44Z</time>
      </trkpt>
      <trkpt lat="59.9728689" lon="17.7205429">
        <ele>20.325</ele>
        <time>2013-05-03T14:29:45Z</time>
      </trkpt>
      <trkpt lat="59.9728174" lon="17.7204802">
        <ele>20.8057</ele>
        <time>2013-05-03T14:29:46Z</time>
      </trkpt>
      <trkpt lat="59.9727655" lon="17.7204205">
        <ele>20.8057</ele>
        <time>2013-05-03T14:29:47Z</time>
      </trkpt>
      <trkpt lat="59.9727125" lon="17.7203659">
        <ele>21.2864</ele>
        <time>2013-05-03T14:29:48Z</time>
      </trkpt>
      <trkpt lat="59.9726588" lon="17.7203153">
        <ele>21.2864</ele>
        <time>2013-05-03T14:29:49Z</time>
      </trkpt>
      <trkpt lat="59.9726063" lon="17.7202641">
        <ele>21.2864</ele>
        <time>2013-05-03T14:29:50Z</time>
      </trkpt>
      <trkpt lat="59.972555" lon="17.7202116">
        <ele>21.767</ele>
        <time>2013-05-03T14:29:51Z</time>
      </trkpt>
      <trkpt lat="59.9725034" lon="17.7201611">
        <ele>21.767</ele>
        <time>2013-05-03T14:29:52Z</time>
      </trkpt>
      <trkpt lat="59.9724509" lon="17.7201133">
        <ele>21.767</ele>
        <time>2013-05-03T14:29:53Z</time>
      </trkpt>
      <trkpt lat="59.9723972" lon="17.7200629">
        <ele>21.767</ele>
        <time>2013-05-03T14:29:54Z</time>
      </trkpt>
      <trkpt lat="59.9723423" lon="17.7200106">
        <ele>21.767</ele>
        <time>2013-05-03T14:29:55Z</time>
      </trkpt>
      <trkpt lat="59.9722865" lon="17.7199584">
        <ele>22.2476</ele>
        <time>2013-05-03T14:29:56Z</time>
      </trkpt>
      <trkpt lat="59.9722302" lon="17.7199067">
        <ele>22.2476</ele>
        <time>2013-05-03T14:29:57Z</time>
      </trkpt>
      <trkpt lat="59.9721733" lon="17.7198547">
        <ele>22.2476</ele>
        <time>2013-05-03T14:29:58Z</time>
      </trkpt>
      <trkpt lat="59.9721161" lon="17.7198011">
        <ele>22.2476</ele>
        <time>2013-05-03T14:29:59Z</time>
      </trkpt>
      <trkpt lat="59.9720588" lon="17.719749">
        <ele>22.2476</ele>
        <time>2013-05-03T14:30:00Z</time>
      </trkpt>
      <trkpt lat="59.9720014" lon="17.719697">
        <ele>22.2476</ele>
        <time>2013-05-03T14:30:01Z</time>
      </trkpt>
      <trkpt lat="59.9719434" lon="17.7196443">
        <ele>22.2476</ele>
        <time>2013-05-03T14:30:02Z</time>
      </trkpt>
      <trkpt lat="59.9718859" lon="17.7195917">
        <ele>22.2476</ele>
        <time>2013-05-03T14:30:03Z</time>
      </trkpt>
      <trkpt lat="59.97183" lon="17.7195397">
        <ele>22.7283</ele>
        <time>2013-05-03T14:30:04Z</time>
      </trkpt>
      <trkpt lat="59.9717751" lon="17.719491">
        <ele>22.7283</ele>
        <time>2013-05-03T14:30:05Z</time>
      </trkpt>
      <trkpt lat="59.9717207" lon="17.7194442">
        <ele>22.7283</ele>
        <time>2013-05-03T14:30:06Z</time>
      </trkpt>
      <trkpt lat="59.9716674" lon="17.7193957">
        <ele>22.7283</ele>
        <time>2013-05-03T14:30:07Z</time>
      </trkpt>
      <trkpt lat="59.9716155" lon="17.7193456">
        <ele>22.7283</ele>
        <time>2013-05-03T14:30:08Z</time>
      </trkpt>
      <trkpt lat="59.9715632" lon="17.719297">
        <ele>22.7283</ele>
        <time>2013-05-03T14:30:09Z</time>
      </trkpt>
      <trkpt lat="59.9715104" lon="17.7192518">
        <ele>22.7283</ele>
        <time>2013-05-03T14:30:10Z</time>
      </trkpt>
      <trkpt lat="59.9714581" lon="17.7192057">
        <ele>22.7283</ele>
        <time>2013-05-03T14:30:11Z</time>
      </trkpt>
      <trkpt lat="59.9714071" lon="17.7191581">
        <ele>22.7283</ele>
        <time>2013-05-03T14:30:12Z</time>
      </trkpt>
      <trkpt lat="59.971356" lon="17.7191108">
        <ele>22.7283</ele>
        <time>2013-05-03T14:30:13Z</time>
      </trkpt>
      <trkpt lat="59.9713052" lon="17.719064">
        <ele>23.209</ele>
        <time>2013-05-03T14:30:14Z</time>
      </trkpt>
      <trkpt lat="59.9712546" lon="17.7190167">
        <ele>23.209</ele>
        <time>2013-05-03T14:30:15Z</time>
      </trkpt>
      <trkpt lat="59.9712044" lon="17.7189712">
        <ele>23.209</ele>
        <time>2013-05-03T14:30:16Z</time>
      </trkpt>
      <trkpt lat="59.9711541" lon="17.7189271">
        <ele>23.209</ele>
        <time>2013-05-03T14:30:17Z</time>
      </trkpt>
      <trkpt lat="59.9711048" lon="17.7188814">
        <ele>23.209</ele>
        <time>2013-05-03T14:30:18Z</time>
      </trkpt>
      <trkpt lat="59.9710559" lon="17.7188365">
        <ele>23.209</ele>
        <time>2013-05-03T14:30:19Z</time>
      </trkpt>
      <trkpt lat="59.9710064" lon="17.718793">
        <ele>23.209</ele>
        <time>2013-05-03T14:30:20Z</time>
      </trkpt>
      <trkpt lat="59.9709568" lon="17.7187505">
        <ele>23.209</ele>
        <time>2013-05-03T14:30:21Z</time>
      </trkpt>
      <trkpt lat="59.9709075" lon="17.7187067">
        <ele>23.209</ele>
        <time>2013-05-03T14:30:22Z</time>
      </trkpt>
      <trkpt lat="59.9708585" lon="17.7186613">
        <ele>23.209</ele>
        <time>2013-05-03T14:30:23Z</time>
      </trkpt>
      <trkpt lat="59.9708091" lon="17.7186161">
        <ele>23.209</ele>
        <time>2013-05-03T14:30:24Z</time>
      </trkpt>
      <trkpt lat="59.9707598" lon="17.7185703">
        <ele>23.209</ele>
        <time>2013-05-03T14:30:25Z</time>
      </trkpt>
      <trkpt lat="59.9707106" lon="17.7185229">
        <ele>23.6896</ele>
        <time>2013-05-03T14:30:26Z</time>
      </trkpt>
      <trkpt lat="59.9706612" lon="17.7184763">
        <ele>23.6896</ele>
        <time>2013-05-03T14:30:27Z</time>
      </trkpt>
      <trkpt lat="59.9706106" lon="17.7184314">
        <ele>23.6896</ele>
        <time>2013-05-03T14:30:28Z</time>
      </trkpt>
      <trkpt lat="59.97056" lon="17.7183858">
        <ele>23.6896</ele>
        <time>2013-05-03T14:30:29Z</time>
      </trkpt>
      <trkpt lat="59.9705096" lon="17.7183386">
        <ele>23.6896</ele>
        <time>2013-05-03T14:30:30Z</time>
      </trkpt>
      <trkpt lat="59.9704598" lon="17.7182927">
        <ele>24.1703</ele>
        <time>2013-05-03T14:30:31Z</time>
      </trkpt>
      <trkpt lat="59.9704094" lon="17.718249">
        <ele>24.1703</ele>
        <time>2013-05-03T14:30:32Z</time>
      </trkpt>
      <trkpt lat="59.9703589" lon="17.7182035">
        <ele>24.1703</ele>
        <time>2013-05-03T14:30:33Z</time>
      </trkpt>
      <trkpt lat="59.9703087" lon="17.7181566">
        <ele>24.1703</ele>
        <time>2013-05-03T14:30:34Z</time>
      </trkpt>
      <trkpt lat="59.9702584" lon="17.7181102">
        <ele>24.1703</ele>
        <time>2013-05-03T14:30:35Z</time>
      </trkpt>
      <trkpt lat="59.9702077" lon="17.7180657">
        <ele>24.1703</ele>
        <time>2013-05-03T14:30:36Z</time>
      </trkpt>
      <trkpt lat="59.9701575" lon="17.7180215">
        <ele>24.1703</ele>
        <time>2013-05-03T14:30:37Z</time>
      </trkpt>
      <trkpt lat="59.9701076" lon="17.717976">
        <ele>24.1703</ele>
        <time>2013-05-03T14:30:38Z</time>
      </trkpt>
      <trkpt lat="59.9700572" lon="17.7179299">
        <ele>24.1703</ele>
        <time>2013-05-03T14:30:39Z</time>
      </trkpt>
      <trkpt lat="59.9700065" lon="17.7178841">
        <ele>24.1703</ele>
        <time>2013-05-03T14:30:40Z</time>
      </trkpt>
      <trkpt lat="59.9699559" lon="17.7178391">
        <ele>24.1703</ele>
        <time>2013-05-03T14:30:41Z</time>
      </trkpt>
      <trkpt lat="59.9699054" lon="17.7177958">
        <ele>24.1703</ele>
        <time>2013-05-03T14:30:42Z</time>
      </trkpt>
      <trkpt lat="59.9698551" lon="17.7177527">
        <ele>24.1703</ele>
        <time>2013-05-03T14:30:43Z</time>
      </trkpt>
      <trkpt lat="59.9698046" lon="17.7177093">
        <ele>24.1703</ele>
        <time>2013-05-03T14:30:44Z</time>
      </trkpt>
      <trkpt lat="59.9697543" lon="17.7176662">
        <ele>24.651</ele>
        <time>2013-05-03T14:30:45Z</time>
      </trkpt>
      <trkpt lat="59.9697036" lon="17.7176244">
        <ele>24.651</ele>
        <time>2013-05-03T14:30:46Z</time>
      </trkpt>
      <trkpt lat="59.9696528" lon="17.7175854">
        <ele>24.651</ele>
        <time>2013-05-03T14:30:47Z</time>
      </trkpt>
      <trkpt lat="59.9696021" lon="17.7175493">
        <ele>24.651</ele>
        <time>2013-05-03T14:30:48Z</time>
      </trkpt>
      <trkpt lat="59.9695511" lon="17.717517">
        <ele>24.651</ele>
        <time>2013-05-03T14:30:49Z</time>
      </trkpt>
      <trkpt lat="59.9695001" lon="17.717485">
        <ele>24.651</ele>
        <time>2013-05-03T14:30:50Z</time>
      </trkpt>
      <trkpt lat="59.9694487" lon="17.7174537">
        <ele>24.651</ele>
        <time>2013-05-03T14:30:51Z</time>
      </trkpt>
      <trkpt lat="59.9693959" lon="17.7174244">
        <ele>25.1317</ele>
        <time>2013-05-03T14:30:52Z</time>
      </trkpt>
      <trkpt lat="59.9693425" lon="17.7173943">
        <ele>25.1317</ele>
        <time>2013-05-03T14:30:53Z</time>
      </trkpt>
      <trkpt lat="59.9692891" lon="17.7173639">
        <ele>25.1317</ele>
        <time>2013-05-03T14:30:54Z</time>
      </trkpt>
      <trkpt lat="59.9692357" lon="17.7173384">
        <ele>25.1317</ele>
        <time>2013-05-03T14:30:55Z</time>
      </trkpt>
      <trkpt lat="59.9691826" lon="17.7173175">
        <ele>25.1317</ele>
        <time>2013-05-03T14:30:56Z</time>
      </trkpt>
      <trkpt lat="59.9691296" lon="17.7172973">
        <ele>25.1317</ele>
        <time>2013-05-03T14:30:57Z</time>
      </trkpt>
      <trkpt lat="59.9690767" lon="17.7172762">
        <ele>25.1317</ele>
        <time>2013-05-03T14:30:58Z</time>
      </trkpt>
      <trkpt lat="59.9690235" lon="17.7172558">
        <ele>25.1317</ele>
        <time>2013-05-03T14:30:59Z</time>
      </trkpt>
      <trkpt lat="59.9689697" lon="17.7172351">
        <ele>25.1317</ele>
        <time>2013-05-03T14:31:00Z</time>
      </trkpt>
      <trkpt lat="59.9689152" lon="17.717213">
        <ele>25.1317</ele>
        <time>2013-05-03T14:31:01Z</time>
      </trkpt>
      <trkpt lat="59.9688607" lon="17.71719">
        <ele>25.1317</ele>
        <time>2013-05-03T14:31:02Z</time>
      </trkpt>
      <trkpt lat="59.9688059" lon="17.7171672">
        <ele>25.1317</ele>
        <time>2013-05-03T14:31:03Z</time>
      </trkpt>
      <trkpt lat="59.968751" lon="17.7171463">
        <ele>25.1317</ele>
        <time>2013-05-03T14:31:04Z</time>
      </trkpt>
      <trkpt lat="59.9686959" lon="17.7171258">
        <ele>25.1317</ele>
        <time>2013-05-03T14:31:05Z</time>
      </trkpt>
      <trkpt lat="59.9686399" lon="17.7171028">
        <ele>25.1317</ele>
        <time>2013-05-03T14:31:06Z</time>
      </trkpt>
      <trkpt lat="59.9685826" lon="17.7170772">
        <ele>24.651</ele>
        <time>2013-05-03T14:31:07Z</time>
      </trkpt>
      <trkpt lat="59.9685241" lon="17.7170501">
        <ele>24.651</ele>
        <time>2013-05-03T14:31:08Z</time>
      </trkpt>
      <trkpt lat="59.9684645" lon="17.7170219">
        <ele>24.651</ele>
        <time>2013-05-03T14:31:09Z</time>
      </trkpt>
      <trkpt lat="59.9684043" lon="17.7169892">
        <ele>24.1703</ele>
        <time>2013-05-03T14:31:10Z</time>
      </trkpt>
      <trkpt lat="59.9683434" lon="17.7169499">
        <ele>24.1703</ele>
        <time>2013-05-03T14:31:11Z</time>
      </trkpt>
      <trkpt lat="59.968282" lon="17.716902">
        <ele>23.6896</ele>
        <time>2013-05-03T14:31:12Z</time>
      </trkpt>
      <trkpt lat="59.9682205" lon="17.7168463">
        <ele>23.6896</ele>
        <time>2013-05-03T14:31:13Z</time>
      </trkpt>
      <trkpt lat="59.9681578" lon="17.7167834">
        <ele>23.209</ele>
        <time>2013-05-03T14:31:14Z</time>
      </trkpt>
      <trkpt lat="59.9680958" lon="17.7167105">
        <ele>22.7283</ele>
        <time>2013-05-03T14:31:15Z</time>
      </trkpt>
      <trkpt lat="59.9680351" lon="17.7166292">
        <ele>22.2476</ele>
        <time>2013-05-03T14:31:16Z</time>
      </trkpt>
      <trkpt lat="59.9679724" lon="17.7165417">
        <ele>21.767</ele>
        <time>2013-05-03T14:31:17Z</time>
      </trkpt>
      <trkpt lat="59.9679082" lon="17.7164479">
        <ele>21.767</ele>
        <time>2013-05-03T14:31:18Z</time>
      </trkpt>
      <trkpt lat="59.9678495" lon="17.7163463">
        <ele>20.8057</ele>
        <time>2013-05-03T14:31:19Z</time>
      </trkpt>
      <trkpt lat="59.9677932" lon="17.7162336">
        <ele>20.325</ele>
        <time>2013-05-03T14:31:20Z</time>
      </trkpt>
      <trkpt lat="59.9677386" lon="17.7161059">
        <ele>19.8444</ele>
        <time>2013-05-03T14:31:21Z</time>
      </trkpt>
      <trkpt lat="59.967689" lon="17.7159733">
        <ele>19.3638</ele>
        <time>2013-05-03T14:31:22Z</time>
      </trkpt>
      <trkpt lat="59.9676449" lon="17.7158318">
        <ele>18.4023</ele>
        <time>2013-05-03T14:31:23Z</time>
      </trkpt>
      <trkpt lat="59.9676036" lon="17.7156812">
        <ele>17.9218</ele>
        <time>2013-05-03T14:31:24Z</time>
      </trkpt>
      <trkpt lat="59.9675588" lon="17.7155277">
        <ele>17.4412</ele>
        <time>2013-05-03T14:31:25Z</time>
      </trkpt>
      <trkpt lat="59.9675092" lon="17.7153742">
        <ele>16.9604</ele>
        <time>2013-05-03T14:31:26Z</time>
      </trkpt>
      <trkpt lat="59.9674911" lon="17.7151822">
        <ele>15.999</ele>
        <time>2013-05-03T14:31:27Z</time>
      </trkpt>
      <trkpt lat="59.9674564" lon="17.7150076">
        <ele>15.5184</ele>
        <time>2013-05-03T14:31:28Z</time>
      </trkpt>
      <trkpt lat="59.9674378" lon="17.7148574">
        <ele>14.557</ele>
        <time>2013-05-03T14:31:29Z</time>
      </trkpt>
      <trkpt lat="59.9674249" lon="17.7147347">
        <ele>14.0764</ele>
        <time>2013-05-03T14:31:30Z</time>
      </trkpt>
      <trkpt lat="59.9674129" lon="17.7146062">
        <ele>13.5958</ele>
        <time>2013-05-03T14:31:31Z</time>
      </trkpt>
      <trkpt lat="59.9673977" lon="17.7144809">
        <ele>13.5958</ele>
        <time>2013-05-03T14:31:32Z</time>
      </trkpt>
      <trkpt lat="59.9673832" lon="17.7143584">
        <ele>13.5958</ele>
        <time>2013-05-03T14:31:33Z</time>
      </trkpt>
      <trkpt lat="59.9673679" lon="17.7142387">
        <ele>14.0764</ele>
        <time>2013-05-03T14:31:34Z</time>
      </trkpt>
      <trkpt lat="59.9673481" lon="17.7141288">
        <ele>14.557</ele>
        <time>2013-05-03T14:31:35Z</time>
      </trkpt>
      <trkpt lat="59.9673368" lon="17.7140276">
        <ele>14.557</ele>
        <time>2013-05-03T14:31:36Z</time>
      </trkpt>
      <trkpt lat="59.9673288" lon="17.7139241">
        <ele>15.0377</ele>
        <time>2013-05-03T14:31:37Z</time>
      </trkpt>
      <trkpt lat="59.9673177" lon="17.7138247">
        <ele>15.5184</ele>
        <time>2013-05-03T14:31:38Z</time>
      </trkpt>
      <trkpt lat="59.9673056" lon="17.7137223">
        <ele>16.9604</ele>
        <time>2013-05-03T14:31:39Z</time>
      </trkpt>
      <trkpt lat="59.9672934" lon="17.7136228">
        <ele>17.4412</ele>
        <time>2013-05-03T14:31:40Z</time>
      </trkpt>
      <trkpt lat="59.9672807" lon="17.7135336">
        <ele>17.4412</ele>
        <time>2013-05-03T14:31:41Z</time>
      </trkpt>
      <trkpt lat="59.9672678" lon="17.7134425">
        <ele>17.4412</ele>
        <time>2013-05-03T14:31:42Z</time>
      </trkpt>
      <trkpt lat="59.9672547" lon="17.7133503">
        <ele>17.4412</ele>
        <time>2013-05-03T14:31:43Z</time>
      </trkpt>
      <trkpt lat="59.9672394" lon="17.7132601">
        <ele>17.4412</ele>
        <time>2013-05-03T14:31:44Z</time>
      </trkpt>
      <trkpt lat="59.9672247" lon="17.71317">
        <ele>17.4412</ele>
        <time>2013-05-03T14:31:45Z</time>
      </trkpt>
      <trkpt lat="59.9672037" lon="17.7130777">
        <ele>18.4023</ele>
        <time>2013-05-03T14:31:46Z</time>
      </trkpt>
      <trkpt lat="59.9671818" lon="17.7129861">
        <ele>18.4023</ele>
        <time>2013-05-03T14:31:47Z</time>
      </trkpt>
      <trkpt lat="59.9671575" lon="17.7128898">
        <ele>18.8831</ele>
        <time>2013-05-03T14:31:48Z</time>
      </trkpt>
      <trkpt lat="59.9671342" lon="17.7127959">
        <ele>19.8444</ele>
        <time>2013-05-03T14:31:49Z</time>
      </trkpt>
      <trkpt lat="59.9671092" lon="17.712701">
        <ele>19.8444</ele>
        <time>2013-05-03T14:31:50Z</time>
      </trkpt>
      <trkpt lat="59.9670808" lon="17.7126023">
        <ele>19.8444</ele>
        <time>2013-05-03T14:31:51Z</time>
      </trkpt>
      <trkpt lat="59.9670496" lon="17.7125029">
        <ele>20.325</ele>
        <time>2013-05-03T14:31:52Z</time>
      </trkpt>
      <trkpt lat="59.9670177" lon="17.7124047">
        <ele>20.325</ele>
        <time>2013-05-03T14:31:53Z</time>
      </trkpt>
      <trkpt lat="59.9669874" lon="17.7123115">
        <ele>20.325</ele>
        <time>2013-05-03T14:31:54Z</time>
      </trkpt>
      <trkpt lat="59.9669567" lon="17.7122235">
        <ele>20.325</ele>
        <time>2013-05-03T14:31:55Z</time>
      </trkpt>
      <trkpt lat="59.9669234" lon="17.7121365">
        <ele>20.325</ele>
        <time>2013-05-03T14:31:56Z</time>
      </trkpt>
      <trkpt lat="59.9668885" lon="17.7120506">
        <ele>20.8057</ele>
        <time>2013-05-03T14:31:57Z</time>
      </trkpt>
      <trkpt lat="59.9668545" lon="17.7119645">
        <ele>20.8057</ele>
        <time>2013-05-03T14:31:58Z</time>
      </trkpt>
      <trkpt lat="59.9668214" lon="17.7118796">
        <ele>20.8057</ele>
        <time>2013-05-03T14:31:59Z</time>
      </trkpt>
      <trkpt lat="59.9667899" lon="17.7117946">
        <ele>20.8057</ele>
        <time>2013-05-03T14:32:00Z</time>
      </trkpt>
      <trkpt lat="59.9667596" lon="17.7117074">
        <ele>20.8057</ele>
        <time>2013-05-03T14:32:01Z</time>
      </trkpt>
      <trkpt lat="59.9667285" lon="17.711618">
        <ele>20.8057</ele>
        <time>2013-05-03T14:32:02Z</time>
      </trkpt>
      <trkpt lat="59.9666964" lon="17.7115279">
        <ele>20.8057</ele>
        <time>2013-05-03T14:32:03Z</time>
      </trkpt>
      <trkpt lat="59.9666645" lon="17.7114362">
        <ele>20.8057</ele>
        <time>2013-05-03T14:32:04Z</time>
      </trkpt>
      <trkpt lat="59.9666336" lon="17.7113419">
        <ele>20.8057</ele>
        <time>2013-05-03T14:32:05Z</time>
      </trkpt>
      <trkpt lat="59.9666039" lon="17.7112445">
        <ele>20.8057</ele>
        <time>2013-05-03T14:32:06Z</time>
      </trkpt>
      <trkpt lat="59.9665761" lon="17.7111429">
        <ele>20.8057</ele>
        <time>2013-05-03T14:32:07Z</time>
      </trkpt>
      <trkpt lat="59.9665474" lon="17.7110389">
        <ele>20.8057</ele>
        <time>2013-05-03T14:32:08Z</time>
      </trkpt>
      <trkpt lat="59.9665174" lon="17.7109343">
        <ele>20.8057</ele>
        <time>2013-05-03T14:32:09Z</time>
      </trkpt>
      <trkpt lat="59.9664888" lon="17.7108268">
        <ele>20.8057</ele>
        <time>2013-05-03T14:32:10Z</time>
      </trkpt>
      <trkpt lat="59.9664607" lon="17.7107172">
        <ele>20.8057</ele>
        <time>2013-05-03T14:32:11Z</time>
      </trkpt>
      <trkpt lat="59.9664307" lon="17.7106071">
        <ele>20.8057</ele>
        <time>2013-05-03T14:32:12Z</time>
      </trkpt>
      <trkpt lat="59.9664002" lon="17.7104965">
        <ele>20.8057</ele>
        <time>2013-05-03T14:32:13Z</time>
      </trkpt>
      <trkpt lat="59.9663693" lon="17.7103852">
        <ele>20.8057</ele>
        <time>2013-05-03T14:32:14Z</time>
      </trkpt>
      <trkpt lat="59.9663369" lon="17.7102722">
        <ele>20.8057</ele>
        <time>2013-05-03T14:32:15Z</time>
      </trkpt>
      <trkpt lat="59.9663043" lon="17.7101577">
        <ele>20.325</ele>
        <time>2013-05-03T14:32:16Z</time>
      </trkpt>
      <trkpt lat="59.9662716" lon="17.71004">
        <ele>20.8057</ele>
        <time>2013-05-03T14:32:17Z</time>
      </trkpt>
      <trkpt lat="59.9662386" lon="17.709922">
        <ele>20.8057</ele>
        <time>2013-05-03T14:32:18Z</time>
      </trkpt>
      <trkpt lat="59.9662061" lon="17.7098039">
        <ele>20.8057</ele>
        <time>2013-05-03T14:32:19Z</time>
      </trkpt>
      <trkpt lat="59.9661719" lon="17.7096805">
        <ele>20.8057</ele>
        <time>2013-05-03T14:32:20Z</time>
      </trkpt>
      <trkpt lat="59.966139" lon="17.709563">
        <ele>20.8057</ele>
        <time>2013-05-03T14:32:21Z</time>
      </trkpt>
      <trkpt lat="59.9661055" lon="17.7094465">
        <ele>20.8057</ele>
        <time>2013-05-03T14:32:22Z</time>
      </trkpt>
      <trkpt lat="59.9660717" lon="17.7093297">
        <ele>20.8057</ele>
        <time>2013-05-03T14:32:23Z</time>
      </trkpt>
      <trkpt lat="59.9660377" lon="17.7092114">
        <ele>20.8057</ele>
        <time>2013-05-03T14:32:24Z</time>
      </trkpt>
      <trkpt lat="59.9660027" lon="17.7090937">
        <ele>20.8057</ele>
        <time>2013-05-03T14:32:25Z</time>
      </trkpt>
      <trkpt lat="59.965966" lon="17.7089782">
        <ele>20.8057</ele>
        <time>2013-05-03T14:32:26Z</time>
      </trkpt>
      <trkpt lat="59.9659284" lon="17.7088643">
        <ele>20.8057</ele>
        <time>2013-05-03T14:32:27Z</time>
      </trkpt>
      <trkpt lat="59.9658909" lon="17.7087528">
        <ele>20.8057</ele>
        <time>2013-05-03T14:32:28Z</time>
      </trkpt>
      <trkpt lat="59.9658506" lon="17.7086447">
        <ele>20.8057</ele>
        <time>2013-05-03T14:32:29Z</time>
      </trkpt>
      <trkpt lat="59.9658107" lon="17.708542">
        <ele>21.2864</ele>
        <time>2013-05-03T14:32:30Z</time>
      </trkpt>
      <trkpt lat="59.9657681" lon="17.7084421">
        <ele>21.2864</ele>
        <time>2013-05-03T14:32:31Z</time>
      </trkpt>
      <trkpt lat="59.9657216" lon="17.7083473">
        <ele>21.2864</ele>
        <time>2013-05-03T14:32:32Z</time>
      </trkpt>
      <trkpt lat="59.9656724" lon="17.7082582">
        <ele>21.2864</ele>
        <time>2013-05-03T14:32:33Z</time>
      </trkpt>
      <trkpt lat="59.9656222" lon="17.7081759">
        <ele>21.2864</ele>
        <time>2013-05-03T14:32:34Z</time>
      </trkpt>
      <trkpt lat="59.9655705" lon="17.7081018">
        <ele>21.2864</ele>
        <time>2013-05-03T14:32:35Z</time>
      </trkpt>
      <trkpt lat="59.9655171" lon="17.7080365">
        <ele>21.767</ele>
        <time>2013-05-03T14:32:36Z</time>
      </trkpt>
      <trkpt lat="59.9654627" lon="17.7079814">
        <ele>21.767</ele>
        <time>2013-05-03T14:32:37Z</time>
      </trkpt>
      <trkpt lat="59.9654078" lon="17.7079313">
        <ele>21.767</ele>
        <time>2013-05-03T14:32:38Z</time>
      </trkpt>
      <trkpt lat="59.9653528" lon="17.7078837">
        <ele>21.767</ele>
        <time>2013-05-03T14:32:39Z</time>
      </trkpt>
      <trkpt lat="59.9652974" lon="17.7078382">
        <ele>21.767</ele>
        <time>2013-05-03T14:32:40Z</time>
      </trkpt>
      <trkpt lat="59.9652428" lon="17.707792">
        <ele>21.767</ele>
        <time>2013-05-03T14:32:41Z</time>
      </trkpt>
      <trkpt lat="59.9651865" lon="17.7077451">
        <ele>22.2476</ele>
        <time>2013-05-03T14:32:42Z</time>
      </trkpt>
      <trkpt lat="59.9651306" lon="17.7077012">
        <ele>22.2476</ele>
        <time>2013-05-03T14:32:43Z</time>
      </trkpt>
      <trkpt lat="59.965074" lon="17.7076597">
        <ele>22.2476</ele>
        <time>2013-05-03T14:32:44Z</time>
      </trkpt>
      <trkpt lat="59.9650171" lon="17.70762">
        <ele>22.2476</ele>
        <time>2013-05-03T14:32:45Z</time>
      </trkpt>
      <trkpt lat="59.9649605" lon="17.7075807">
        <ele>22.7283</ele>
        <time>2013-05-03T14:32:46Z</time>
      </trkpt>
      <trkpt lat="59.9649047" lon="17.707541">
        <ele>22.7283</ele>
        <time>2013-05-03T14:32:47Z</time>
      </trkpt>
      <trkpt lat="59.9648493" lon="17.7074992">
        <ele>22.7283</ele>
        <time>2013-05-03T14:32:48Z</time>
      </trkpt>
      <trkpt lat="59.9647944" lon="17.7074569">
        <ele>23.209</ele>
        <time>2013-05-03T14:32:49Z</time>
      </trkpt>
      <trkpt lat="59.9647389" lon="17.707418">
        <ele>23.209</ele>
        <time>2013-05-03T14:32:50Z</time>
      </trkpt>
      <trkpt lat="59.964683" lon="17.7073818">
        <ele>23.209</ele>
        <time>2013-05-03T14:32:51Z</time>
      </trkpt>
      <trkpt lat="59.9646274" lon="17.7073473">
        <ele>23.6896</ele>
        <time>2013-05-03T14:32:52Z</time>
      </trkpt>
      <trkpt lat="59.9645701" lon="17.7073124">
        <ele>23.6896</ele>
        <time>2013-05-03T14:32:53Z</time>
      </trkpt>
      <trkpt lat="59.9645131" lon="17.7072805">
        <ele>23.6896</ele>
        <time>2013-05-03T14:32:54Z</time>
      </trkpt>
      <trkpt lat="59.9644559" lon="17.7072515">
        <ele>23.6896</ele>
        <time>2013-05-03T14:32:55Z</time>
      </trkpt>
      <trkpt lat="59.964397" lon="17.7072263">
        <ele>23.6896</ele>
        <time>2013-05-03T14:32:56Z</time>
      </trkpt>
      <trkpt lat="59.9643361" lon="17.7072055">
        <ele>23.6896</ele>
        <time>2013-05-03T14:32:57Z</time>
      </trkpt>
      <trkpt lat="59.9642748" lon="17.7071867">
        <ele>23.209</ele>
        <time>2013-05-03T14:32:58Z</time>
      </trkpt>
      <trkpt lat="59.9642122" lon="17.7071687">
        <ele>23.209</ele>
        <time>2013-05-03T14:32:59Z</time>
      </trkpt>
      <trkpt lat="59.9641495" lon="17.7071522">
        <ele>23.209</ele>
        <time>2013-05-03T14:33:00Z</time>
      </trkpt>
      <trkpt lat="59.9640868" lon="17.707138">
        <ele>23.209</ele>
        <time>2013-05-03T14:33:01Z</time>
      </trkpt>
      <trkpt lat="59.9640244" lon="17.7071253">
        <ele>23.209</ele>
        <time>2013-05-03T14:33:02Z</time>
      </trkpt>
      <trkpt lat="59.9639625" lon="17.707113">
        <ele>23.209</ele>
        <time>2013-05-03T14:33:03Z</time>
      </trkpt>
      <trkpt lat="59.9639008" lon="17.7071019">
        <ele>23.209</ele>
        <time>2013-05-03T14:33:04Z</time>
      </trkpt>
      <trkpt lat="59.9638386" lon="17.7070938">
        <ele>23.209</ele>
        <time>2013-05-03T14:33:05Z</time>
      </trkpt>
      <trkpt lat="59.9637768" lon="17.7070886">
        <ele>23.209</ele>
        <time>2013-05-03T14:33:06Z</time>
      </trkpt>
      <trkpt lat="59.9637139" lon="17.7070854">
        <ele>23.209</ele>
        <time>2013-05-03T14:33:07Z</time>
      </trkpt>
      <trkpt lat="59.9636515" lon="17.7070828">
        <ele>22.7283</ele>
        <time>2013-05-03T14:33:08Z</time>
      </trkpt>
      <trkpt lat="59.9635899" lon="17.7070792">
        <ele>22.7283</ele>
        <time>2013-05-03T14:33:09Z</time>
      </trkpt>
      <trkpt lat="59.9635273" lon="17.7070748">
        <ele>22.7283</ele>
        <time>2013-05-03T14:33:10Z</time>
      </trkpt>
      <trkpt lat="59.9634652" lon="17.7070704">
        <ele>22.7283</ele>
        <time>2013-05-03T14:33:11Z</time>
      </trkpt>
      <trkpt lat="59.9634041" lon="17.7070695">
        <ele>22.7283</ele>
        <time>2013-05-03T14:33:12Z</time>
      </trkpt>
      <trkpt lat="59.9633439" lon="17.7070702">
        <ele>22.7283</ele>
        <time>2013-05-03T14:33:13Z</time>
      </trkpt>
      <trkpt lat="59.9632817" lon="17.7070693">
        <ele>22.7283</ele>
        <time>2013-05-03T14:33:14Z</time>
      </trkpt>
      <trkpt lat="59.9632198" lon="17.7070703">
        <ele>22.2476</ele>
        <time>2013-05-03T14:33:15Z</time>
      </trkpt>
      <trkpt lat="59.9631575" lon="17.7070718">
        <ele>22.2476</ele>
        <time>2013-05-03T14:33:16Z</time>
      </trkpt>
      <trkpt lat="59.9630942" lon="17.7070757">
        <ele>22.2476</ele>
        <time>2013-05-03T14:33:17Z</time>
      </trkpt>
      <trkpt lat="59.9630326" lon="17.7070792">
        <ele>22.2476</ele>
        <time>2013-05-03T14:33:18Z</time>
      </trkpt>
      <trkpt lat="59.9629705" lon="17.707079">
        <ele>22.2476</ele>
        <time>2013-05-03T14:33:19Z</time>
      </trkpt>
      <trkpt lat="59.9629079" lon="17.7070774">
        <ele>22.2476</ele>
        <time>2013-05-03T14:33:20Z</time>
      </trkpt>
      <trkpt lat="59.9628462" lon="17.7070735">
        <ele>22.2476</ele>
        <time>2013-05-03T14:33:21Z</time>
      </trkpt>
      <trkpt lat="59.9627879" lon="17.7070708">
        <ele>22.2476</ele>
        <time>2013-05-03T14:33:22Z</time>
      </trkpt>
      <trkpt lat="59.9627294" lon="17.7070609">
        <ele>22.2476</ele>
        <time>2013-05-03T14:33:23Z</time>
      </trkpt>
      <trkpt lat="59.9626688" lon="17.7070467">
        <ele>22.2476</ele>
        <time>2013-05-03T14:33:24Z</time>
      </trkpt>
      <trkpt lat="59.9626074" lon="17.707031">
        <ele>22.2476</ele>
        <time>2013-05-03T14:33:25Z</time>
      </trkpt>
      <trkpt lat="59.9625487" lon="17.707016">
        <ele>22.2476</ele>
        <time>2013-05-03T14:33:26Z</time>
      </trkpt>
      <trkpt lat="59.9624907" lon="17.7069999">
        <ele>22.2476</ele>
        <time>2013-05-03T14:33:27Z</time>
      </trkpt>
      <trkpt lat="59.9624315" lon="17.7069792">
        <ele>22.2476</ele>
        <time>2013-05-03T14:33:28Z</time>
      </trkpt>
      <trkpt lat="59.9623725" lon="17.7069536">
        <ele>22.7283</ele>
        <time>2013-05-03T14:33:29Z</time>
      </trkpt>
      <trkpt lat="59.9623146" lon="17.7069248">
        <ele>22.2476</ele>
        <time>2013-05-03T14:33:30Z</time>
      </trkpt>
      <trkpt lat="59.9622559" lon="17.7068942">
        <ele>22.7283</ele>
        <time>2013-05-03T14:33:31Z</time>
      </trkpt>
      <trkpt lat="59.9621981" lon="17.706862">
        <ele>22.7283</ele>
        <time>2013-05-03T14:33:32Z</time>
      </trkpt>
      <trkpt lat="59.9621406" lon="17.7068293">
        <ele>22.7283</ele>
        <time>2013-05-03T14:33:33Z</time>
      </trkpt>
      <trkpt lat="59.9620831" lon="17.7067977">
        <ele>22.7283</ele>
        <time>2013-05-03T14:33:34Z</time>
      </trkpt>
      <trkpt lat="59.9620255" lon="17.7067621">
        <ele>22.7283</ele>
        <time>2013-05-03T14:33:35Z</time>
      </trkpt>
      <trkpt lat="59.9619679" lon="17.7067198">
        <ele>22.7283</ele>
        <time>2013-05-03T14:33:36Z</time>
      </trkpt>
      <trkpt lat="59.9619101" lon="17.7066762">
        <ele>23.209</ele>
        <time>2013-05-03T14:33:37Z</time>
      </trkpt>
      <trkpt lat="59.9618519" lon="17.7066312">
        <ele>23.209</ele>
        <time>2013-05-03T14:33:38Z</time>
      </trkpt>
      <trkpt lat="59.9617931" lon="17.7065824">
        <ele>23.209</ele>
        <time>2013-05-03T14:33:39Z</time>
      </trkpt>
      <trkpt lat="59.961736" lon="17.7065259">
        <ele>23.209</ele>
        <time>2013-05-03T14:33:40Z</time>
      </trkpt>
      <trkpt lat="59.9616782" lon="17.7064629">
        <ele>23.209</ele>
        <time>2013-05-03T14:33:41Z</time>
      </trkpt>
      <trkpt lat="59.9616212" lon="17.7063949">
        <ele>23.209</ele>
        <time>2013-05-03T14:33:42Z</time>
      </trkpt>
      <trkpt lat="59.9615658" lon="17.7063187">
        <ele>23.209</ele>
        <time>2013-05-03T14:33:43Z</time>
      </trkpt>
      <trkpt lat="59.9615111" lon="17.7062336">
        <ele>23.6896</ele>
        <time>2013-05-03T14:33:44Z</time>
      </trkpt>
      <trkpt lat="59.9614578" lon="17.7061451">
        <ele>23.6896</ele>
        <time>2013-05-03T14:33:45Z</time>
      </trkpt>
      <trkpt lat="59.9614059" lon="17.7060545">
        <ele>23.6896</ele>
        <time>2013-05-03T14:33:46Z</time>
      </trkpt>
      <trkpt lat="59.9613549" lon="17.7059623">
        <ele>24.1703</ele>
        <time>2013-05-03T14:33:47Z</time>
      </trkpt>
      <trkpt lat="59.9613055" lon="17.7058707">
        <ele>23.6896</ele>
        <time>2013-05-03T14:33:48Z</time>
      </trkpt>
      <trkpt lat="59.9612538" lon="17.7057767">
        <ele>24.1703</ele>
        <time>2013-05-03T14:33:49Z</time>
      </trkpt>
      <trkpt lat="59.961202" lon="17.7056843">
        <ele>24.1703</ele>
        <time>2013-05-03T14:33:50Z</time>
      </trkpt>
      <trkpt lat="59.9611513" lon="17.7055931">
        <ele>24.1703</ele>
        <time>2013-05-03T14:33:51Z</time>
      </trkpt>
      <trkpt lat="59.9611005" lon="17.7055027">
        <ele>24.1703</ele>
        <time>2013-05-03T14:33:52Z</time>
      </trkpt>
      <trkpt lat="59.9610488" lon="17.7054148">
        <ele>24.651</ele>
        <time>2013-05-03T14:33:53Z</time>
      </trkpt>
      <trkpt lat="59.9609948" lon="17.7053326">
        <ele>24.651</ele>
        <time>2013-05-03T14:33:54Z</time>
      </trkpt>
      <trkpt lat="59.9609388" lon="17.7052521">
        <ele>24.651</ele>
        <time>2013-05-03T14:33:55Z</time>
      </trkpt>
      <trkpt lat="59.960887" lon="17.7051729">
        <ele>24.651</ele>
        <time>2013-05-03T14:33:56Z</time>
      </trkpt>
      <trkpt lat="59.9608353" lon="17.7050962">
        <ele>25.1317</ele>
        <time>2013-05-03T14:33:57Z</time>
      </trkpt>
      <trkpt lat="59.9607788" lon="17.7050212">
        <ele>25.1317</ele>
        <time>2013-05-03T14:33:58Z</time>
      </trkpt>
      <trkpt lat="59.9607213" lon="17.7049466">
        <ele>25.6123</ele>
        <time>2013-05-03T14:33:59Z</time>
      </trkpt>
      <trkpt lat="59.9606654" lon="17.7048741">
        <ele>25.6123</ele>
        <time>2013-05-03T14:34:00Z</time>
      </trkpt>
      <trkpt lat="59.9606074" lon="17.7048021">
        <ele>25.6123</ele>
        <time>2013-05-03T14:34:01Z</time>
      </trkpt>
      <trkpt lat="59.9605491" lon="17.7047311">
        <ele>25.6123</ele>
        <time>2013-05-03T14:34:02Z</time>
      </trkpt>
      <trkpt lat="59.9604913" lon="17.704662">
        <ele>25.6123</ele>
        <time>2013-05-03T14:34:03Z</time>
      </trkpt>
      <trkpt lat="59.9604354" lon="17.7045954">
        <ele>25.6123</ele>
        <time>2013-05-03T14:34:04Z</time>
      </trkpt>
      <trkpt lat="59.960382" lon="17.7045322">
        <ele>25.6123</ele>
        <time>2013-05-03T14:34:05Z</time>
      </trkpt>
      <trkpt lat="59.9603308" lon="17.704472">
        <ele>25.6123</ele>
        <time>2013-05-03T14:34:06Z</time>
      </trkpt>
      <trkpt lat="59.9602826" lon="17.7044133">
        <ele>25.6123</ele>
        <time>2013-05-03T14:34:07Z</time>
      </trkpt>
      <trkpt lat="59.9602364" lon="17.7043561">
        <ele>25.6123</ele>
        <time>2013-05-03T14:34:08Z</time>
      </trkpt>
      <trkpt lat="59.9601914" lon="17.7042967">
        <ele>25.6123</ele>
        <time>2013-05-03T14:34:09Z</time>
      </trkpt>
      <trkpt lat="59.960149" lon="17.7042311">
        <ele>26.0929</ele>
        <time>2013-05-03T14:34:10Z</time>
      </trkpt>
      <trkpt lat="59.9601095" lon="17.7041602">
        <ele>26.0929</ele>
        <time>2013-05-03T14:34:11Z</time>
      </trkpt>
      <trkpt lat="59.9600716" lon="17.7040867">
        <ele>26.0929</ele>
        <time>2013-05-03T14:34:12Z</time>
      </trkpt>
      <trkpt lat="59.9600329" lon="17.7040079">
        <ele>26.0929</ele>
        <time>2013-05-03T14:34:13Z</time>
      </trkpt>
      <trkpt lat="59.9599899" lon="17.7039203">
        <ele>25.6123</ele>
        <time>2013-05-03T14:34:14Z</time>
      </trkpt>
      <trkpt lat="59.959949" lon="17.7038077">
        <ele>25.6123</ele>
        <time>2013-05-03T14:34:15Z</time>
      </trkpt>
      <trkpt lat="59.9599168" lon="17.7036903">
        <ele>25.1317</ele>
        <time>2013-05-03T14:34:16Z</time>
      </trkpt>
      <trkpt lat="59.9598826" lon="17.703569">
        <ele>25.6123</ele>
        <time>2013-05-03T14:34:17Z</time>
      </trkpt>
      <trkpt lat="59.9598453" lon="17.7034499">
        <ele>25.6123</ele>
        <time>2013-05-03T14:34:18Z</time>
      </trkpt>
      <trkpt lat="59.9598111" lon="17.7033219">
        <ele>26.0929</ele>
        <time>2013-05-03T14:34:19Z</time>
      </trkpt>
      <trkpt lat="59.9597785" lon="17.7032038">
        <ele>26.0929</ele>
        <time>2013-05-03T14:34:20Z</time>
      </trkpt>
      <trkpt lat="59.9597421" lon="17.7030828">
        <ele>26.0929</ele>
        <time>2013-05-03T14:34:21Z</time>
      </trkpt>
      <trkpt lat="59.9597065" lon="17.7029677">
        <ele>26.0929</ele>
        <time>2013-05-03T14:34:22Z</time>
      </trkpt>
      <trkpt lat="59.9596711" lon="17.7028553">
        <ele>26.5736</ele>
        <time>2013-05-03T14:34:23Z</time>
      </trkpt>
      <trkpt lat="59.959636" lon="17.7027437">
        <ele>26.5736</ele>
        <time>2013-05-03T14:34:24Z</time>
      </trkpt>
      <trkpt lat="59.9595998" lon="17.7026325">
        <ele>26.5736</ele>
        <time>2013-05-03T14:34:25Z</time>
      </trkpt>
      <trkpt lat="59.9595656" lon="17.7025212">
        <ele>26.5736</ele>
        <time>2013-05-03T14:34:26Z</time>
      </trkpt>
      <trkpt lat="59.9595303" lon="17.7024109">
        <ele>26.5736</ele>
        <time>2013-05-03T14:34:27Z</time>
      </trkpt>
      <trkpt lat="59.9594833" lon="17.7023161">
        <ele>26.0929</ele>
        <time>2013-05-03T14:34:28Z</time>
      </trkpt>
      <trkpt lat="59.9594483" lon="17.7021612">
        <ele>26.0929</ele>
        <time>2013-05-03T14:34:29Z</time>
      </trkpt>
      <trkpt lat="59.9594282" lon="17.7020379">
        <ele>26.5736</ele>
        <time>2013-05-03T14:34:30Z</time>
      </trkpt>
      <trkpt lat="59.9594024" lon="17.7019126">
        <ele>26.5736</ele>
        <time>2013-05-03T14:34:31Z</time>
      </trkpt>
      <trkpt lat="59.959378" lon="17.7017922">
        <ele>26.5736</ele>
        <time>2013-05-03T14:34:32Z</time>
      </trkpt>
      <trkpt lat="59.9593484" lon="17.7016649">
        <ele>26.5736</ele>
        <time>2013-05-03T14:34:33Z</time>
      </trkpt>
      <trkpt lat="59.959323" lon="17.7015422">
        <ele>26.0929</ele>
        <time>2013-05-03T14:34:34Z</time>
      </trkpt>
      <trkpt lat="59.9592976" lon="17.7014081">
        <ele>26.0929</ele>
        <time>2013-05-03T14:34:35Z</time>
      </trkpt>
      <trkpt lat="59.959276" lon="17.7012728">
        <ele>25.6123</ele>
        <time>2013-05-03T14:34:36Z</time>
      </trkpt>
      <trkpt lat="59.9592553" lon="17.7011364">
        <ele>25.6123</ele>
        <time>2013-05-03T14:34:37Z</time>
      </trkpt>
      <trkpt lat="59.9592366" lon="17.7009984">
        <ele>25.1317</ele>
        <time>2013-05-03T14:34:38Z</time>
      </trkpt>
      <trkpt lat="59.9592216" lon="17.7008592">
        <ele>24.651</ele>
        <time>2013-05-03T14:34:39Z</time>
      </trkpt>
      <trkpt lat="59.959209" lon="17.7007189">
        <ele>24.651</ele>
        <time>2013-05-03T14:34:40Z</time>
      </trkpt>
      <trkpt lat="59.9591956" lon="17.7005761">
        <ele>24.1703</ele>
        <time>2013-05-03T14:34:41Z</time>
      </trkpt>
      <trkpt lat="59.9591806" lon="17.7004309">
        <ele>24.1703</ele>
        <time>2013-05-03T14:34:42Z</time>
      </trkpt>
      <trkpt lat="59.9591648" lon="17.700286">
        <ele>24.1703</ele>
        <time>2013-05-03T14:34:43Z</time>
      </trkpt>
      <trkpt lat="59.9591481" lon="17.7001402">
        <ele>24.1703</ele>
        <time>2013-05-03T14:34:44Z</time>
      </trkpt>
      <trkpt lat="59.9591324" lon="17.6999942">
        <ele>23.6896</ele>
        <time>2013-05-03T14:34:45Z</time>
      </trkpt>
      <trkpt lat="59.9591186" lon="17.6998488">
        <ele>23.6896</ele>
        <time>2013-05-03T14:34:46Z</time>
      </trkpt>
      <trkpt lat="59.9591056" lon="17.6997053">
        <ele>23.6896</ele>
        <time>2013-05-03T14:34:47Z</time>
      </trkpt>
      <trkpt lat="59.9590943" lon="17.6995624">
        <ele>23.6896</ele>
        <time>2013-05-03T14:34:48Z</time>
      </trkpt>
      <trkpt lat="59.9590859" lon="17.69942">
        <ele>23.6896</ele>
        <time>2013-05-03T14:34:49Z</time>
      </trkpt>
      <trkpt lat="59.9590795" lon="17.69928">
        <ele>23.6896</ele>
        <time>2013-05-03T14:34:50Z</time>
      </trkpt>
      <trkpt lat="59.9590743" lon="17.6991415">
        <ele>24.1703</ele>
        <time>2013-05-03T14:34:51Z</time>
      </trkpt>
      <trkpt lat="59.9590703" lon="17.6990032">
        <ele>24.1703</ele>
        <time>2013-05-03T14:34:52Z</time>
      </trkpt>
      <trkpt lat="59.9590674" lon="17.698865">
        <ele>24.1703</ele>
        <time>2013-05-03T14:34:53Z</time>
      </trkpt>
      <trkpt lat="59.9590647" lon="17.6987277">
        <ele>24.1703</ele>
        <time>2013-05-03T14:34:54Z</time>
      </trkpt>
      <trkpt lat="59.9590626" lon="17.6985925">
        <ele>24.1703</ele>
        <time>2013-05-03T14:34:55Z</time>
      </trkpt>
      <trkpt lat="59.9590599" lon="17.6984548">
        <ele>24.1703</ele>
        <time>2013-05-03T14:34:56Z</time>
      </trkpt>
      <trkpt lat="59.9590553" lon="17.6983137">
        <ele>24.1703</ele>
        <time>2013-05-03T14:34:57Z</time>
      </trkpt>
      <trkpt lat="59.9590502" lon="17.6981737">
        <ele>24.1703</ele>
        <time>2013-05-03T14:34:58Z</time>
      </trkpt>
      <trkpt lat="59.959047" lon="17.6980174">
        <ele>23.6896</ele>
        <time>2013-05-03T14:34:59Z</time>
      </trkpt>
      <trkpt lat="59.9590324" lon="17.6978835">
        <ele>23.6896</ele>
        <time>2013-05-03T14:35:00Z</time>
      </trkpt>
      <trkpt lat="59.9590144" lon="17.6977429">
        <ele>23.209</ele>
        <time>2013-05-03T14:35:01Z</time>
      </trkpt>
      <trkpt lat="59.9589957" lon="17.6975982">
        <ele>23.209</ele>
        <time>2013-05-03T14:35:02Z</time>
      </trkpt>
      <trkpt lat="59.9589744" lon="17.6974512">
        <ele>22.7283</ele>
        <time>2013-05-03T14:35:03Z</time>
      </trkpt>
      <trkpt lat="59.9589488" lon="17.6973054">
        <ele>22.7283</ele>
        <time>2013-05-03T14:35:04Z</time>
      </trkpt>
      <trkpt lat="59.95892" lon="17.6971632">
        <ele>22.2476</ele>
        <time>2013-05-03T14:35:05Z</time>
      </trkpt>
      <trkpt lat="59.95889" lon="17.697021">
        <ele>22.2476</ele>
        <time>2013-05-03T14:35:06Z</time>
      </trkpt>
      <trkpt lat="59.9588596" lon="17.6968801">
        <ele>21.767</ele>
        <time>2013-05-03T14:35:07Z</time>
      </trkpt>
      <trkpt lat="59.9588213" lon="17.6967458">
        <ele>21.767</ele>
        <time>2013-05-03T14:35:08Z</time>
      </trkpt>
      <trkpt lat="59.9587839" lon="17.6966131">
        <ele>21.767</ele>
        <time>2013-05-03T14:35:09Z</time>
      </trkpt>
      <trkpt lat="59.9587476" lon="17.6964844">
        <ele>21.767</ele>
        <time>2013-05-03T14:35:10Z</time>
      </trkpt>
      <trkpt lat="59.9587074" lon="17.6963598">
        <ele>21.767</ele>
        <time>2013-05-03T14:35:11Z</time>
      </trkpt>
      <trkpt lat="59.9586604" lon="17.6962418">
        <ele>21.767</ele>
        <time>2013-05-03T14:35:12Z</time>
      </trkpt>
      <trkpt lat="59.9586146" lon="17.6961263">
        <ele>21.767</ele>
        <time>2013-05-03T14:35:13Z</time>
      </trkpt>
      <trkpt lat="59.9585677" lon="17.6960125">
        <ele>21.767</ele>
        <time>2013-05-03T14:35:14Z</time>
      </trkpt>
      <trkpt lat="59.9585201" lon="17.6958986">
        <ele>21.767</ele>
        <time>2013-05-03T14:35:15Z</time>
      </trkpt>
      <trkpt lat="59.9584732" lon="17.6957834">
        <ele>21.767</ele>
        <time>2013-05-03T14:35:16Z</time>
      </trkpt>
      <trkpt lat="59.9584256" lon="17.6956712">
        <ele>21.767</ele>
        <time>2013-05-03T14:35:17Z</time>
      </trkpt>
      <trkpt lat="59.9583784" lon="17.6955588">
        <ele>21.767</ele>
        <time>2013-05-03T14:35:18Z</time>
      </trkpt>
      <trkpt lat="59.9583332" lon="17.6954451">
        <ele>21.767</ele>
        <time>2013-05-03T14:35:19Z</time>
      </trkpt>
      <trkpt lat="59.9582916" lon="17.6953323">
        <ele>21.767</ele>
        <time>2013-05-03T14:35:20Z</time>
      </trkpt>
      <trkpt lat="59.9582495" lon="17.6952193">
        <ele>21.767</ele>
        <time>2013-05-03T14:35:21Z</time>
      </trkpt>
      <trkpt lat="59.9582072" lon="17.6951081">
        <ele>21.767</ele>
        <time>2013-05-03T14:35:22Z</time>
      </trkpt>
      <trkpt lat="59.9581659" lon="17.6949983">
        <ele>21.2864</ele>
        <time>2013-05-03T14:35:23Z</time>
      </trkpt>
      <trkpt lat="59.9581264" lon="17.6948883">
        <ele>21.2864</ele>
        <time>2013-05-03T14:35:24Z</time>
      </trkpt>
      <trkpt lat="59.9580851" lon="17.6947801">
        <ele>21.767</ele>
        <time>2013-05-03T14:35:25Z</time>
      </trkpt>
      <trkpt lat="59.9580452" lon="17.6946723">
        <ele>21.767</ele>
        <time>2013-05-03T14:35:26Z</time>
      </trkpt>
      <trkpt lat="59.9580077" lon="17.694562">
        <ele>21.767</ele>
        <time>2013-05-03T14:35:27Z</time>
      </trkpt>
      <trkpt lat="59.9579711" lon="17.694452">
        <ele>21.767</ele>
        <time>2013-05-03T14:35:28Z</time>
      </trkpt>
      <trkpt lat="59.9579334" lon="17.6943423">
        <ele>21.767</ele>
        <time>2013-05-03T14:35:29Z</time>
      </trkpt>
      <trkpt lat="59.9578949" lon="17.6942342">
        <ele>21.2864</ele>
        <time>2013-05-03T14:35:30Z</time>
      </trkpt>
      <trkpt lat="59.957858" lon="17.6941272">
        <ele>21.2864</ele>
        <time>2013-05-03T14:35:31Z</time>
      </trkpt>
      <trkpt lat="59.9578215" lon="17.6940199">
        <ele>21.2864</ele>
        <time>2013-05-03T14:35:32Z</time>
      </trkpt>
      <trkpt lat="59.9577847" lon="17.6939114">
        <ele>21.2864</ele>
        <time>2013-05-03T14:35:33Z</time>
      </trkpt>
      <trkpt lat="59.9577467" lon="17.6938005">
        <ele>21.2864</ele>
        <time>2013-05-03T14:35:34Z</time>
      </trkpt>
      <trkpt lat="59.957708" lon="17.6936912">
        <ele>21.2864</ele>
        <time>2013-05-03T14:35:35Z</time>
      </trkpt>
      <trkpt lat="59.957671" lon="17.6935838">
        <ele>21.2864</ele>
        <time>2013-05-03T14:35:36Z</time>
      </trkpt>
      <trkpt lat="59.9576349" lon="17.693475">
        <ele>21.2864</ele>
        <time>2013-05-03T14:35:37Z</time>
      </trkpt>
      <trkpt lat="59.957598" lon="17.6933659">
        <ele>21.2864</ele>
        <time>2013-05-03T14:35:38Z</time>
      </trkpt>
      <trkpt lat="59.9575614" lon="17.6932597">
        <ele>21.2864</ele>
        <time>2013-05-03T14:35:39Z</time>
      </trkpt>
      <trkpt lat="59.957525" lon="17.6931533">
        <ele>21.2864</ele>
        <time>2013-05-03T14:35:40Z</time>
      </trkpt>
      <trkpt lat="59.9574882" lon="17.693045">
        <ele>21.767</ele>
        <time>2013-05-03T14:35:41Z</time>
      </trkpt>
      <trkpt lat="59.9574512" lon="17.6929357">
        <ele>21.767</ele>
        <time>2013-05-03T14:35:42Z</time>
      </trkpt>
      <trkpt lat="59.9574143" lon="17.6928264">
        <ele>21.767</ele>
        <time>2013-05-03T14:35:43Z</time>
      </trkpt>
      <trkpt lat="59.9573765" lon="17.6927205">
        <ele>21.767</ele>
        <time>2013-05-03T14:35:44Z</time>
      </trkpt>
      <trkpt lat="59.9573409" lon="17.6926169">
        <ele>21.767</ele>
        <time>2013-05-03T14:35:45Z</time>
      </trkpt>
      <trkpt lat="59.9573087" lon="17.6925148">
        <ele>21.2864</ele>
        <time>2013-05-03T14:35:46Z</time>
      </trkpt>
      <trkpt lat="59.9572789" lon="17.6924129">
        <ele>20.8057</ele>
        <time>2013-05-03T14:35:47Z</time>
      </trkpt>
      <trkpt lat="59.9572483" lon="17.6923111">
        <ele>20.8057</ele>
        <time>2013-05-03T14:35:48Z</time>
      </trkpt>
      <trkpt lat="59.9572122" lon="17.6922012">
        <ele>20.8057</ele>
        <time>2013-05-03T14:35:49Z</time>
      </trkpt>
      <trkpt lat="59.9571688" lon="17.6920989">
        <ele>20.325</ele>
        <time>2013-05-03T14:35:50Z</time>
      </trkpt>
      <trkpt lat="59.957129" lon="17.6920009">
        <ele>20.325</ele>
        <time>2013-05-03T14:35:51Z</time>
      </trkpt>
      <trkpt lat="59.9570952" lon="17.6919023">
        <ele>19.8444</ele>
        <time>2013-05-03T14:35:52Z</time>
      </trkpt>
      <trkpt lat="59.9570619" lon="17.6918037">
        <ele>19.8444</ele>
        <time>2013-05-03T14:35:53Z</time>
      </trkpt>
      <trkpt lat="59.9570261" lon="17.6917052">
        <ele>19.8444</ele>
        <time>2013-05-03T14:35:54Z</time>
      </trkpt>
      <trkpt lat="59.9569905" lon="17.6916057">
        <ele>19.8444</ele>
        <time>2013-05-03T14:35:55Z</time>
      </trkpt>
      <trkpt lat="59.9569551" lon="17.6915071">
        <ele>20.325</ele>
        <time>2013-05-03T14:35:56Z</time>
      </trkpt>
      <trkpt lat="59.95692" lon="17.69141">
        <ele>20.325</ele>
        <time>2013-05-03T14:35:57Z</time>
      </trkpt>
      <trkpt lat="59.956886" lon="17.6913125">
        <ele>20.325</ele>
        <time>2013-05-03T14:35:58Z</time>
      </trkpt>
      <trkpt lat="59.9568536" lon="17.6912192">
        <ele>20.8057</ele>
        <time>2013-05-03T14:35:59Z</time>
      </trkpt>
      <trkpt lat="59.9568239" lon="17.6911297">
        <ele>20.8057</ele>
        <time>2013-05-03T14:36:00Z</time>
      </trkpt>
      <trkpt lat="59.9567958" lon="17.6910421">
        <ele>21.2864</ele>
        <time>2013-05-03T14:36:01Z</time>
      </trkpt>
      <trkpt lat="59.9567647" lon="17.6909552">
        <ele>21.2864</ele>
        <time>2013-05-03T14:36:02Z</time>
      </trkpt>
      <trkpt lat="59.956734" lon="17.6908697">
        <ele>21.767</ele>
        <time>2013-05-03T14:36:03Z</time>
      </trkpt>
      <trkpt lat="59.956701" lon="17.6907759">
        <ele>22.2476</ele>
        <time>2013-05-03T14:36:04Z</time>
      </trkpt>
      <trkpt lat="59.9566714" lon="17.6906852">
        <ele>22.7283</ele>
        <time>2013-05-03T14:36:05Z</time>
      </trkpt>
      <trkpt lat="59.9566399" lon="17.6905873">
        <ele>23.209</ele>
        <time>2013-05-03T14:36:06Z</time>
      </trkpt>
      <trkpt lat="59.9566082" lon="17.6904879">
        <ele>23.6896</ele>
        <time>2013-05-03T14:36:07Z</time>
      </trkpt>
      <trkpt lat="59.9565765" lon="17.6903894">
        <ele>24.1703</ele>
        <time>2013-05-03T14:36:08Z</time>
      </trkpt>
      <trkpt lat="59.9565482" lon="17.6902958">
        <ele>24.1703</ele>
        <time>2013-05-03T14:36:09Z</time>
      </trkpt>
      <trkpt lat="59.9565186" lon="17.690209">
        <ele>24.1703</ele>
        <time>2013-05-03T14:36:10Z</time>
      </trkpt>
      <trkpt lat="59.9564907" lon="17.6901277">
        <ele>24.1703</ele>
        <time>2013-05-03T14:36:11Z</time>
      </trkpt>
      <trkpt lat="59.9564581" lon="17.6900474">
        <ele>24.651</ele>
        <time>2013-05-03T14:36:12Z</time>
      </trkpt>
      <trkpt lat="59.9564192" lon="17.6899829">
        <ele>24.651</ele>
        <time>2013-05-03T14:36:13Z</time>
      </trkpt>
      <trkpt lat="59.9563787" lon="17.6899209">
        <ele>25.1317</ele>
        <time>2013-05-03T14:36:14Z</time>
      </trkpt>
      <trkpt lat="59.956343" lon="17.689851">
        <ele>24.651</ele>
        <time>2013-05-03T14:36:15Z</time>
      </trkpt>
      <trkpt lat="59.9563125" lon="17.6897637">
        <ele>24.651</ele>
        <time>2013-05-03T14:36:16Z</time>
      </trkpt>
      <trkpt lat="59.9562857" lon="17.6896663">
        <ele>24.651</ele>
        <time>2013-05-03T14:36:17Z</time>
      </trkpt>
      <trkpt lat="59.9562606" lon="17.6895599">
        <ele>24.651</ele>
        <time>2013-05-03T14:36:18Z</time>
      </trkpt>
      <trkpt lat="59.9562328" lon="17.6894589">
        <ele>24.1703</ele>
        <time>2013-05-03T14:36:19Z</time>
      </trkpt>
      <trkpt lat="59.956196" lon="17.6893641">
        <ele>24.1703</ele>
        <time>2013-05-03T14:36:20Z</time>
      </trkpt>
      <trkpt lat="59.9561575" lon="17.6892648">
        <ele>24.1703</ele>
        <time>2013-05-03T14:36:21Z</time>
      </trkpt>
      <trkpt lat="59.9561237" lon="17.6891528">
        <ele>24.1703</ele>
        <time>2013-05-03T14:36:22Z</time>
      </trkpt>
      <trkpt lat="59.9560995" lon="17.6890377">
        <ele>24.1703</ele>
        <time>2013-05-03T14:36:23Z</time>
      </trkpt>
      <trkpt lat="59.9560841" lon="17.6889249">
        <ele>23.6896</ele>
        <time>2013-05-03T14:36:24Z</time>
      </trkpt>
      <trkpt lat="59.956072" lon="17.6888142">
        <ele>23.209</ele>
        <time>2013-05-03T14:36:25Z</time>
      </trkpt>
      <trkpt lat="59.9560621" lon="17.6887015">
        <ele>22.7283</ele>
        <time>2013-05-03T14:36:26Z</time>
      </trkpt>
      <trkpt lat="59.9560488" lon="17.6885843">
        <ele>22.7283</ele>
        <time>2013-05-03T14:36:27Z</time>
      </trkpt>
      <trkpt lat="59.9560321" lon="17.688466">
        <ele>22.2476</ele>
        <time>2013-05-03T14:36:28Z</time>
      </trkpt>
      <trkpt lat="59.9560117" lon="17.6883496">
        <ele>22.2476</ele>
        <time>2013-05-03T14:36:29Z</time>
      </trkpt>
      <trkpt lat="59.9559909" lon="17.6882345">
        <ele>22.2476</ele>
        <time>2013-05-03T14:36:30Z</time>
      </trkpt>
      <trkpt lat="59.9559707" lon="17.6881198">
        <ele>22.2476</ele>
        <time>2013-05-03T14:36:31Z</time>
      </trkpt>
      <trkpt lat="59.9559507" lon="17.6880051">
        <ele>22.2476</ele>
        <time>2013-05-03T14:36:32Z</time>
      </trkpt>
      <trkpt lat="59.9559303" lon="17.6878905">
        <ele>21.767</ele>
        <time>2013-05-03T14:36:33Z</time>
      </trkpt>
      <trkpt lat="59.9559095" lon="17.6877745">
        <ele>21.767</ele>
        <time>2013-05-03T14:36:34Z</time>
      </trkpt>
      <trkpt lat="59.9558902" lon="17.6876564">
        <ele>22.2476</ele>
        <time>2013-05-03T14:36:35Z</time>
      </trkpt>
      <trkpt lat="59.9558739" lon="17.6875365">
        <ele>22.2476</ele>
        <time>2013-05-03T14:36:36Z</time>
      </trkpt>
      <trkpt lat="59.9558606" lon="17.687416">
        <ele>22.2476</ele>
        <time>2013-05-03T14:36:37Z</time>
      </trkpt>
      <trkpt lat="59.9558458" lon="17.6872962">
        <ele>22.2476</ele>
        <time>2013-05-03T14:36:38Z</time>
      </trkpt>
      <trkpt lat="59.9558283" lon="17.6871786">
        <ele>22.2476</ele>
        <time>2013-05-03T14:36:39Z</time>
      </trkpt>
      <trkpt lat="59.9558105" lon="17.6870617">
        <ele>22.2476</ele>
        <time>2013-05-03T14:36:40Z</time>
      </trkpt>
      <trkpt lat="59.9557929" lon="17.6869442">
        <ele>22.2476</ele>
        <time>2013-05-03T14:36:41Z</time>
      </trkpt>
      <trkpt lat="59.9557758" lon="17.6868272">
        <ele>21.767</ele>
        <time>2013-05-03T14:36:42Z</time>
      </trkpt>
      <trkpt lat="59.9557577" lon="17.6867093">
        <ele>21.767</ele>
        <time>2013-05-03T14:36:43Z</time>
      </trkpt>
      <trkpt lat="59.9557411" lon="17.6865892">
        <ele>21.767</ele>
        <time>2013-05-03T14:36:44Z</time>
      </trkpt>
      <trkpt lat="59.9557264" lon="17.686467">
        <ele>21.767</ele>
        <time>2013-05-03T14:36:45Z</time>
      </trkpt>
      <trkpt lat="59.9557112" lon="17.6863444">
        <ele>21.767</ele>
        <time>2013-05-03T14:36:46Z</time>
      </trkpt>
      <trkpt lat="59.9556945" lon="17.6862214">
        <ele>21.767</ele>
        <time>2013-05-03T14:36:47Z</time>
      </trkpt>
      <trkpt lat="59.9556763" lon="17.6860977">
        <ele>21.767</ele>
        <time>2013-05-03T14:36:48Z</time>
      </trkpt>
      <trkpt lat="59.9556588" lon="17.6859717">
        <ele>21.767</ele>
        <time>2013-05-03T14:36:49Z</time>
      </trkpt>
      <trkpt lat="59.955641" lon="17.6858447">
        <ele>21.2864</ele>
        <time>2013-05-03T14:36:50Z</time>
      </trkpt>
      <trkpt lat="59.9556228" lon="17.6857175">
        <ele>21.2864</ele>
        <time>2013-05-03T14:36:51Z</time>
      </trkpt>
      <trkpt lat="59.9556048" lon="17.6855885">
        <ele>21.2864</ele>
        <time>2013-05-03T14:36:52Z</time>
      </trkpt>
      <trkpt lat="59.9555863" lon="17.6854573">
        <ele>21.2864</ele>
        <time>2013-05-03T14:36:53Z</time>
      </trkpt>
      <trkpt lat="59.9555688" lon="17.6853247">
        <ele>21.2864</ele>
        <time>2013-05-03T14:36:54Z</time>
      </trkpt>
      <trkpt lat="59.9555505" lon="17.6851917">
        <ele>20.8057</ele>
        <time>2013-05-03T14:36:55Z</time>
      </trkpt>
      <trkpt lat="59.9555307" lon="17.6850579">
        <ele>20.8057</ele>
        <time>2013-05-03T14:36:56Z</time>
      </trkpt>
      <trkpt lat="59.9555106" lon="17.6849229">
        <ele>20.8057</ele>
        <time>2013-05-03T14:36:57Z</time>
      </trkpt>
      <trkpt lat="59.9554909" lon="17.6847875">
        <ele>20.8057</ele>
        <time>2013-05-03T14:36:58Z</time>
      </trkpt>
      <trkpt lat="59.9554703" lon="17.6846526">
        <ele>20.8057</ele>
        <time>2013-05-03T14:36:59Z</time>
      </trkpt>
      <trkpt lat="59.9554478" lon="17.6845181">
        <ele>20.325</ele>
        <time>2013-05-03T14:37:00Z</time>
      </trkpt>
      <trkpt lat="59.9554241" lon="17.684384">
        <ele>20.325</ele>
        <time>2013-05-03T14:37:01Z</time>
      </trkpt>
      <trkpt lat="59.9553998" lon="17.68425">
        <ele>20.325</ele>
        <time>2013-05-03T14:37:02Z</time>
      </trkpt>
      <trkpt lat="59.9553739" lon="17.6841154">
        <ele>20.325</ele>
        <time>2013-05-03T14:37:03Z</time>
      </trkpt>
      <trkpt lat="59.9553468" lon="17.6839812">
        <ele>19.8444</ele>
        <time>2013-05-03T14:37:04Z</time>
      </trkpt>
      <trkpt lat="59.9553154" lon="17.6838392">
        <ele>20.325</ele>
        <time>2013-05-03T14:37:05Z</time>
      </trkpt>
      <trkpt lat="59.9552801" lon="17.6836898">
        <ele>20.8057</ele>
        <time>2013-05-03T14:37:06Z</time>
      </trkpt>
      <trkpt lat="59.955248" lon="17.6835527">
        <ele>21.2864</ele>
        <time>2013-05-03T14:37:07Z</time>
      </trkpt>
      <trkpt lat="59.9552183" lon="17.6834228">
        <ele>20.8057</ele>
        <time>2013-05-03T14:37:08Z</time>
      </trkpt>
      <trkpt lat="59.9551858" lon="17.68329">
        <ele>21.2864</ele>
        <time>2013-05-03T14:37:09Z</time>
      </trkpt>
      <trkpt lat="59.9551535" lon="17.6831628">
        <ele>21.2864</ele>
        <time>2013-05-03T14:37:10Z</time>
      </trkpt>
      <trkpt lat="59.9551216" lon="17.6830418">
        <ele>21.2864</ele>
        <time>2013-05-03T14:37:11Z</time>
      </trkpt>
      <trkpt lat="59.9550914" lon="17.6829202">
        <ele>21.2864</ele>
        <time>2013-05-03T14:37:12Z</time>
      </trkpt>
      <trkpt lat="59.9550605" lon="17.6828">
        <ele>20.8057</ele>
        <time>2013-05-03T14:37:13Z</time>
      </trkpt>
      <trkpt lat="59.9550272" lon="17.682681">
        <ele>20.8057</ele>
        <time>2013-05-03T14:37:14Z</time>
      </trkpt>
      <trkpt lat="59.9549921" lon="17.6825665">
        <ele>20.8057</ele>
        <time>2013-05-03T14:37:15Z</time>
      </trkpt>
      <trkpt lat="59.9549557" lon="17.6824515">
        <ele>20.8057</ele>
        <time>2013-05-03T14:37:16Z</time>
      </trkpt>
      <trkpt lat="59.9549192" lon="17.6823334">
        <ele>20.8057</ele>
        <time>2013-05-03T14:37:17Z</time>
      </trkpt>
      <trkpt lat="59.9548814" lon="17.6822167">
        <ele>20.8057</ele>
        <time>2013-05-03T14:37:18Z</time>
      </trkpt>
      <trkpt lat="59.9548417" lon="17.6821026">
        <ele>20.325</ele>
        <time>2013-05-03T14:37:19Z</time>
      </trkpt>
      <trkpt lat="59.9547962" lon="17.6820018">
        <ele>20.325</ele>
        <time>2013-05-03T14:37:20Z</time>
      </trkpt>
      <trkpt lat="59.9547398" lon="17.6819178">
        <ele>20.8057</ele>
        <time>2013-05-03T14:37:21Z</time>
      </trkpt>
      <trkpt lat="59.9546834" lon="17.6818355">
        <ele>20.8057</ele>
        <time>2013-05-03T14:37:22Z</time>
      </trkpt>
      <trkpt lat="59.9546362" lon="17.6817398">
        <ele>20.8057</ele>
        <time>2013-05-03T14:37:23Z</time>
      </trkpt>
      <trkpt lat="59.9545932" lon="17.6816216">
        <ele>21.2864</ele>
        <time>2013-05-03T14:37:24Z</time>
      </trkpt>
      <trkpt lat="59.9545545" lon="17.6815108">
        <ele>21.767</ele>
        <time>2013-05-03T14:37:25Z</time>
      </trkpt>
      <trkpt lat="59.9545164" lon="17.6813977">
        <ele>21.767</ele>
        <time>2013-05-03T14:37:26Z</time>
      </trkpt>
      <trkpt lat="59.9544788" lon="17.6812822">
        <ele>21.767</ele>
        <time>2013-05-03T14:37:27Z</time>
      </trkpt>
      <trkpt lat="59.9544415" lon="17.6811631">
        <ele>21.2864</ele>
        <time>2013-05-03T14:37:28Z</time>
      </trkpt>
      <trkpt lat="59.9544052" lon="17.6810404">
        <ele>21.2864</ele>
        <time>2013-05-03T14:37:29Z</time>
      </trkpt>
      <trkpt lat="59.9543687" lon="17.6809164">
        <ele>21.2864</ele>
        <time>2013-05-03T14:37:30Z</time>
      </trkpt>
      <trkpt lat="59.9543319" lon="17.6807952">
        <ele>21.2864</ele>
        <time>2013-05-03T14:37:31Z</time>
      </trkpt>
      <trkpt lat="59.9542938" lon="17.6806772">
        <ele>21.2864</ele>
        <time>2013-05-03T14:37:32Z</time>
      </trkpt>
      <trkpt lat="59.9542553" lon="17.6805653">
        <ele>21.2864</ele>
        <time>2013-05-03T14:37:33Z</time>
      </trkpt>
      <trkpt lat="59.9542173" lon="17.6804536">
        <ele>21.2864</ele>
        <time>2013-05-03T14:37:34Z</time>
      </trkpt>
      <trkpt lat="59.9541781" lon="17.6803385">
        <ele>22.2476</ele>
        <time>2013-05-03T14:37:35Z</time>
      </trkpt>
      <trkpt lat="59.9541377" lon="17.6802274">
        <ele>22.7283</ele>
        <time>2013-05-03T14:37:36Z</time>
      </trkpt>
      <trkpt lat="59.9540958" lon="17.6801152">
        <ele>23.209</ele>
        <time>2013-05-03T14:37:37Z</time>
      </trkpt>
      <trkpt lat="59.9540559" lon="17.6800007">
        <ele>23.6896</ele>
        <time>2013-05-03T14:37:38Z</time>
      </trkpt>
      <trkpt lat="59.9540151" lon="17.6798806">
        <ele>24.1703</ele>
        <time>2013-05-03T14:37:39Z</time>
      </trkpt>
      <trkpt lat="59.9539754" lon="17.6797665">
        <ele>25.1317</ele>
        <time>2013-05-03T14:37:40Z</time>
      </trkpt>
      <trkpt lat="59.9539341" lon="17.679647">
        <ele>26.0929</ele>
        <time>2013-05-03T14:37:41Z</time>
      </trkpt>
      <trkpt lat="59.9538944" lon="17.6795276">
        <ele>26.5736</ele>
        <time>2013-05-03T14:37:42Z</time>
      </trkpt>
      <trkpt lat="59.9538577" lon="17.6794096">
        <ele>26.5736</ele>
        <time>2013-05-03T14:37:43Z</time>
      </trkpt>
      <trkpt lat="59.9538184" lon="17.6792945">
        <ele>26.5736</ele>
        <time>2013-05-03T14:37:44Z</time>
      </trkpt>
      <trkpt lat="59.9537761" lon="17.679176">
        <ele>26.5736</ele>
        <time>2013-05-03T14:37:45Z</time>
      </trkpt>
      <trkpt lat="59.9537375" lon="17.679062">
        <ele>26.5736</ele>
        <time>2013-05-03T14:37:46Z</time>
      </trkpt>
      <trkpt lat="59.9536997" lon="17.6789456">
        <ele>26.0929</ele>
        <time>2013-05-03T14:37:47Z</time>
      </trkpt>
      <trkpt lat="59.9536603" lon="17.6788233">
        <ele>26.0929</ele>
        <time>2013-05-03T14:37:48Z</time>
      </trkpt>
      <trkpt lat="59.9536198" lon="17.6787022">
        <ele>25.6123</ele>
        <time>2013-05-03T14:37:49Z</time>
      </trkpt>
      <trkpt lat="59.9535786" lon="17.6785886">
        <ele>25.1317</ele>
        <time>2013-05-03T14:37:50Z</time>
      </trkpt>
      <trkpt lat="59.9535387" lon="17.6784747">
        <ele>24.651</ele>
        <time>2013-05-03T14:37:51Z</time>
      </trkpt>
      <trkpt lat="59.9534988" lon="17.6783527">
        <ele>24.1703</ele>
        <time>2013-05-03T14:37:52Z</time>
      </trkpt>
      <trkpt lat="59.9534577" lon="17.6782337">
        <ele>24.1703</ele>
        <time>2013-05-03T14:37:53Z</time>
      </trkpt>
      <trkpt lat="59.9534137" lon="17.6781193">
        <ele>24.1703</ele>
        <time>2013-05-03T14:37:54Z</time>
      </trkpt>
      <trkpt lat="59.9533703" lon="17.678008">
        <ele>24.1703</ele>
        <time>2013-05-03T14:37:55Z</time>
      </trkpt>
      <trkpt lat="59.9533282" lon="17.6778958">
        <ele>23.6896</ele>
        <time>2013-05-03T14:37:56Z</time>
      </trkpt>
      <trkpt lat="59.9532884" lon="17.6777824">
        <ele>23.6896</ele>
        <time>2013-05-03T14:37:57Z</time>
      </trkpt>
      <trkpt lat="59.9532495" lon="17.6776698">
        <ele>23.6896</ele>
        <time>2013-05-03T14:37:58Z</time>
      </trkpt>
      <trkpt lat="59.9532101" lon="17.6775641">
        <ele>23.209</ele>
        <time>2013-05-03T14:37:59Z</time>
      </trkpt>
      <trkpt lat="59.9531714" lon="17.6774545">
        <ele>23.6896</ele>
        <time>2013-05-03T14:38:00Z</time>
      </trkpt>
      <trkpt lat="59.9531333" lon="17.6773434">
        <ele>23.6896</ele>
        <time>2013-05-03T14:38:01Z</time>
      </trkpt>
      <trkpt lat="59.9530968" lon="17.6772383">
        <ele>23.6896</ele>
        <time>2013-05-03T14:38:02Z</time>
      </trkpt>
      <trkpt lat="59.9530563" lon="17.6771319">
        <ele>23.6896</ele>
        <time>2013-05-03T14:38:03Z</time>
      </trkpt>
      <trkpt lat="59.9530157" lon="17.6770259">
        <ele>23.209</ele>
        <time>2013-05-03T14:38:04Z</time>
      </trkpt>
      <trkpt lat="59.9529743" lon="17.6769181">
        <ele>23.209</ele>
        <time>2013-05-03T14:38:05Z</time>
      </trkpt>
      <trkpt lat="59.952933" lon="17.6768092">
        <ele>23.209</ele>
        <time>2013-05-03T14:38:06Z</time>
      </trkpt>
      <trkpt lat="59.952893" lon="17.6766992">
        <ele>23.209</ele>
        <time>2013-05-03T14:38:07Z</time>
      </trkpt>
      <trkpt lat="59.9528502" lon="17.676596">
        <ele>23.209</ele>
        <time>2013-05-03T14:38:08Z</time>
      </trkpt>
      <trkpt lat="59.9528085" lon="17.676499">
        <ele>23.209</ele>
        <time>2013-05-03T14:38:09Z</time>
      </trkpt>
      <trkpt lat="59.9527701" lon="17.6764011">
        <ele>23.209</ele>
        <time>2013-05-03T14:38:10Z</time>
      </trkpt>
      <trkpt lat="59.9527361" lon="17.6762997">
        <ele>23.209</ele>
        <time>2013-05-03T14:38:11Z</time>
      </trkpt>
      <trkpt lat="59.9527036" lon="17.6761959">
        <ele>23.209</ele>
        <time>2013-05-03T14:38:12Z</time>
      </trkpt>
      <trkpt lat="59.9526704" lon="17.6760923">
        <ele>23.209</ele>
        <time>2013-05-03T14:38:13Z</time>
      </trkpt>
      <trkpt lat="59.9526367" lon="17.6759916">
        <ele>23.209</ele>
        <time>2013-05-03T14:38:14Z</time>
      </trkpt>
      <trkpt lat="59.9526023" lon="17.675895">
        <ele>23.209</ele>
        <time>2013-05-03T14:38:15Z</time>
      </trkpt>
      <trkpt lat="59.9525679" lon="17.6757993">
        <ele>23.6896</ele>
        <time>2013-05-03T14:38:16Z</time>
      </trkpt>
      <trkpt lat="59.9525335" lon="17.675709">
        <ele>24.1703</ele>
        <time>2013-05-03T14:38:17Z</time>
      </trkpt>
      <trkpt lat="59.9524994" lon="17.6756246">
        <ele>24.651</ele>
        <time>2013-05-03T14:38:18Z</time>
      </trkpt>
      <trkpt lat="59.9524673" lon="17.6755454">
        <ele>24.651</ele>
        <time>2013-05-03T14:38:19Z</time>
      </trkpt>
      <trkpt lat="59.9524378" lon="17.6754697">
        <ele>25.1317</ele>
        <time>2013-05-03T14:38:20Z</time>
      </trkpt>
      <trkpt lat="59.9524083" lon="17.6753956">
        <ele>25.1317</ele>
        <time>2013-05-03T14:38:21Z</time>
      </trkpt>
      <trkpt lat="59.9523807" lon="17.6753205">
        <ele>25.1317</ele>
        <time>2013-05-03T14:38:22Z</time>
      </trkpt>
      <trkpt lat="59.9523571" lon="17.6752438">
        <ele>25.1317</ele>
        <time>2013-05-03T14:38:23Z</time>
      </trkpt>
      <trkpt lat="59.9523361" lon="17.6751655">
        <ele>25.6123</ele>
        <time>2013-05-03T14:38:24Z</time>
      </trkpt>
      <trkpt lat="59.9523158" lon="17.6750846">
        <ele>25.6123</ele>
        <time>2013-05-03T14:38:25Z</time>
      </trkpt>
      <trkpt lat="59.9522988" lon="17.6749988">
        <ele>25.6123</ele>
        <time>2013-05-03T14:38:26Z</time>
      </trkpt>
      <trkpt lat="59.9522856" lon="17.674887">
        <ele>25.1317</ele>
        <time>2013-05-03T14:38:27Z</time>
      </trkpt>
      <trkpt lat="59.9522679" lon="17.6747788">
        <ele>24.651</ele>
        <time>2013-05-03T14:38:28Z</time>
      </trkpt>
      <trkpt lat="59.9522492" lon="17.6746626">
        <ele>24.1703</ele>
        <time>2013-05-03T14:38:29Z</time>
      </trkpt>
      <trkpt lat="59.9522295" lon="17.6745398">
        <ele>23.6896</ele>
        <time>2013-05-03T14:38:30Z</time>
      </trkpt>
      <trkpt lat="59.9522069" lon="17.6744198">
        <ele>23.209</ele>
        <time>2013-05-03T14:38:31Z</time>
      </trkpt>
      <trkpt lat="59.952183" lon="17.6742996">
        <ele>23.209</ele>
        <time>2013-05-03T14:38:32Z</time>
      </trkpt>
      <trkpt lat="59.9521577" lon="17.6741804">
        <ele>22.7283</ele>
        <time>2013-05-03T14:38:33Z</time>
      </trkpt>
      <trkpt lat="59.9521331" lon="17.6740617">
        <ele>22.2476</ele>
        <time>2013-05-03T14:38:34Z</time>
      </trkpt>
      <trkpt lat="59.9521089" lon="17.6739437">
        <ele>22.2476</ele>
        <time>2013-05-03T14:38:35Z</time>
      </trkpt>
      <trkpt lat="59.9520861" lon="17.6738209">
        <ele>21.767</ele>
        <time>2013-05-03T14:38:36Z</time>
      </trkpt>
      <trkpt lat="59.9520636" lon="17.6736943">
        <ele>21.767</ele>
        <time>2013-05-03T14:38:37Z</time>
      </trkpt>
      <trkpt lat="59.9520418" lon="17.6735665">
        <ele>21.767</ele>
        <time>2013-05-03T14:38:38Z</time>
      </trkpt>
      <trkpt lat="59.9520213" lon="17.6734387">
        <ele>21.2864</ele>
        <time>2013-05-03T14:38:39Z</time>
      </trkpt>
      <trkpt lat="59.9520011" lon="17.6733109">
        <ele>21.2864</ele>
        <time>2013-05-03T14:38:40Z</time>
      </trkpt>
      <trkpt lat="59.9519798" lon="17.6731827">
        <ele>21.2864</ele>
        <time>2013-05-03T14:38:41Z</time>
      </trkpt>
      <trkpt lat="59.9519591" lon="17.6730543">
        <ele>21.2864</ele>
        <time>2013-05-03T14:38:42Z</time>
      </trkpt>
      <trkpt lat="59.951941" lon="17.6729255">
        <ele>20.8057</ele>
        <time>2013-05-03T14:38:43Z</time>
      </trkpt>
      <trkpt lat="59.951925" lon="17.6727953">
        <ele>20.8057</ele>
        <time>2013-05-03T14:38:44Z</time>
      </trkpt>
      <trkpt lat="59.9519099" lon="17.6726637">
        <ele>20.8057</ele>
        <time>2013-05-03T14:38:45Z</time>
      </trkpt>
      <trkpt lat="59.9518943" lon="17.6725299">
        <ele>20.325</ele>
        <time>2013-05-03T14:38:46Z</time>
      </trkpt>
      <trkpt lat="59.9518783" lon="17.6723938">
        <ele>20.325</ele>
        <time>2013-05-03T14:38:47Z</time>
      </trkpt>
      <trkpt lat="59.9518632" lon="17.6722565">
        <ele>20.325</ele>
        <time>2013-05-03T14:38:48Z</time>
      </trkpt>
      <trkpt lat="59.9518488" lon="17.6721192">
        <ele>19.8444</ele>
        <time>2013-05-03T14:38:49Z</time>
      </trkpt>
      <trkpt lat="59.9518377" lon="17.6719808">
        <ele>19.8444</ele>
        <time>2013-05-03T14:38:50Z</time>
      </trkpt>
      <trkpt lat="59.9518317" lon="17.6718434">
        <ele>19.8444</ele>
        <time>2013-05-03T14:38:51Z</time>
      </trkpt>
      <trkpt lat="59.9518284" lon="17.6717069">
        <ele>19.3638</ele>
        <time>2013-05-03T14:38:52Z</time>
      </trkpt>
      <trkpt lat="59.9518251" lon="17.671567">
        <ele>19.3638</ele>
        <time>2013-05-03T14:38:53Z</time>
      </trkpt>
      <trkpt lat="59.9518203" lon="17.6714256">
        <ele>19.3638</ele>
        <time>2013-05-03T14:38:54Z</time>
      </trkpt>
      <trkpt lat="59.9518069" lon="17.6712817">
        <ele>18.8831</ele>
        <time>2013-05-03T14:38:55Z</time>
      </trkpt>
      <trkpt lat="59.9517798" lon="17.6711312">
        <ele>19.3638</ele>
        <time>2013-05-03T14:38:56Z</time>
      </trkpt>
      <trkpt lat="59.9517524" lon="17.6709796">
        <ele>19.3638</ele>
        <time>2013-05-03T14:38:57Z</time>
      </trkpt>
      <trkpt lat="59.9517358" lon="17.6708103">
        <ele>18.8831</ele>
        <time>2013-05-03T14:38:58Z</time>
      </trkpt>
      <trkpt lat="59.9517396" lon="17.6706562">
        <ele>18.4023</ele>
        <time>2013-05-03T14:38:59Z</time>
      </trkpt>
      <trkpt lat="59.9517519" lon="17.6704943">
        <ele>18.4023</ele>
        <time>2013-05-03T14:39:00Z</time>
      </trkpt>
      <trkpt lat="59.9517652" lon="17.6703392">
        <ele>18.4023</ele>
        <time>2013-05-03T14:39:01Z</time>
      </trkpt>
      <trkpt lat="59.9517768" lon="17.670187">
        <ele>18.4023</ele>
        <time>2013-05-03T14:39:02Z</time>
      </trkpt>
      <trkpt lat="59.9517861" lon="17.6700369">
        <ele>18.4023</ele>
        <time>2013-05-03T14:39:03Z</time>
      </trkpt>
      <trkpt lat="59.9517938" lon="17.6698881">
        <ele>17.9218</ele>
        <time>2013-05-03T14:39:04Z</time>
      </trkpt>
      <trkpt lat="59.9518007" lon="17.669741">
        <ele>17.9218</ele>
        <time>2013-05-03T14:39:05Z</time>
      </trkpt>
      <trkpt lat="59.9518075" lon="17.6695955">
        <ele>17.9218</ele>
        <time>2013-05-03T14:39:06Z</time>
      </trkpt>
      <trkpt lat="59.9518142" lon="17.6694514">
        <ele>17.9218</ele>
        <time>2013-05-03T14:39:07Z</time>
      </trkpt>
      <trkpt lat="59.9518198" lon="17.669314">
        <ele>17.9218</ele>
        <time>2013-05-03T14:39:08Z</time>
      </trkpt>
      <trkpt lat="59.9518245" lon="17.6691778">
        <ele>17.4412</ele>
        <time>2013-05-03T14:39:09Z</time>
      </trkpt>
      <trkpt lat="59.9518307" lon="17.6690397">
        <ele>17.4412</ele>
        <time>2013-05-03T14:39:10Z</time>
      </trkpt>
      <trkpt lat="59.9518331" lon="17.6689018">
        <ele>17.4412</ele>
        <time>2013-05-03T14:39:11Z</time>
      </trkpt>
      <trkpt lat="59.9518286" lon="17.6687625">
        <ele>16.9604</ele>
        <time>2013-05-03T14:39:12Z</time>
      </trkpt>
      <trkpt lat="59.9518145" lon="17.6686235">
        <ele>16.9604</ele>
        <time>2013-05-03T14:39:13Z</time>
      </trkpt>
      <trkpt lat="59.9517904" lon="17.6684865">
        <ele>16.9604</ele>
        <time>2013-05-03T14:39:14Z</time>
      </trkpt>
      <trkpt lat="59.9517601" lon="17.6683517">
        <ele>16.9604</ele>
        <time>2013-05-03T14:39:15Z</time>
      </trkpt>
      <trkpt lat="59.9517251" lon="17.6682211">
        <ele>16.9604</ele>
        <time>2013-05-03T14:39:16Z</time>
      </trkpt>
      <trkpt lat="59.9516816" lon="17.6681041">
        <ele>16.9604</ele>
        <time>2013-05-03T14:39:17Z</time>
      </trkpt>
      <trkpt lat="59.9516172" lon="17.6680374">
        <ele>17.4412</ele>
        <time>2013-05-03T14:39:18Z</time>
      </trkpt>
      <trkpt lat="59.9515407" lon="17.6680223">
        <ele>17.4412</ele>
        <time>2013-05-03T14:39:19Z</time>
      </trkpt>
      <trkpt lat="59.9514703" lon="17.6680242">
        <ele>17.9218</ele>
        <time>2013-05-03T14:39:20Z</time>
      </trkpt>
      <trkpt lat="59.9514016" lon="17.6680357">
        <ele>17.9218</ele>
        <time>2013-05-03T14:39:21Z</time>
      </trkpt>
      <trkpt lat="59.9513344" lon="17.6680533">
        <ele>17.9218</ele>
        <time>2013-05-03T14:39:22Z</time>
      </trkpt>
      <trkpt lat="59.9512662" lon="17.6680706">
        <ele>17.9218</ele>
        <time>2013-05-03T14:39:23Z</time>
      </trkpt>
      <trkpt lat="59.9511996" lon="17.6680908">
        <ele>18.4023</ele>
        <time>2013-05-03T14:39:24Z</time>
      </trkpt>
      <trkpt lat="59.9511345" lon="17.6681125">
        <ele>18.4023</ele>
        <time>2013-05-03T14:39:25Z</time>
      </trkpt>
      <trkpt lat="59.9510704" lon="17.6681332">
        <ele>18.4023</ele>
        <time>2013-05-03T14:39:26Z</time>
      </trkpt>
      <trkpt lat="59.951007" lon="17.6681529">
        <ele>18.8831</ele>
        <time>2013-05-03T14:39:27Z</time>
      </trkpt>
      <trkpt lat="59.9509449" lon="17.6681731">
        <ele>18.8831</ele>
        <time>2013-05-03T14:39:28Z</time>
      </trkpt>
      <trkpt lat="59.9508832" lon="17.6681938">
        <ele>18.8831</ele>
        <time>2013-05-03T14:39:29Z</time>
      </trkpt>
      <trkpt lat="59.9508214" lon="17.6682119">
        <ele>18.8831</ele>
        <time>2013-05-03T14:39:30Z</time>
      </trkpt>
      <trkpt lat="59.9507592" lon="17.6682253">
        <ele>19.3638</ele>
        <time>2013-05-03T14:39:31Z</time>
      </trkpt>
      <trkpt lat="59.9506962" lon="17.668237">
        <ele>19.3638</ele>
        <time>2013-05-03T14:39:32Z</time>
      </trkpt>
      <trkpt lat="59.9506336" lon="17.6682455">
        <ele>19.3638</ele>
        <time>2013-05-03T14:39:33Z</time>
      </trkpt>
      <trkpt lat="59.9505712" lon="17.6682505">
        <ele>19.3638</ele>
        <time>2013-05-03T14:39:34Z</time>
      </trkpt>
      <trkpt lat="59.9505092" lon="17.6682531">
        <ele>19.8444</ele>
        <time>2013-05-03T14:39:35Z</time>
      </trkpt>
      <trkpt lat="59.9504472" lon="17.6682532">
        <ele>19.8444</ele>
        <time>2013-05-03T14:39:36Z</time>
      </trkpt>
      <trkpt lat="59.9503854" lon="17.6682506">
        <ele>19.8444</ele>
        <time>2013-05-03T14:39:37Z</time>
      </trkpt>
      <trkpt lat="59.9503238" lon="17.6682462">
        <ele>19.8444</ele>
        <time>2013-05-03T14:39:38Z</time>
      </trkpt>
      <trkpt lat="59.9502636" lon="17.6682392">
        <ele>19.8444</ele>
        <time>2013-05-03T14:39:39Z</time>
      </trkpt>
      <trkpt lat="59.9502037" lon="17.6682278">
        <ele>19.8444</ele>
        <time>2013-05-03T14:39:40Z</time>
      </trkpt>
      <trkpt lat="59.950144" lon="17.6682113">
        <ele>19.8444</ele>
        <time>2013-05-03T14:39:41Z</time>
      </trkpt>
      <trkpt lat="59.9500848" lon="17.6681937">
        <ele>20.325</ele>
        <time>2013-05-03T14:39:42Z</time>
      </trkpt>
      <trkpt lat="59.9500259" lon="17.668176">
        <ele>20.325</ele>
        <time>2013-05-03T14:39:43Z</time>
      </trkpt>
      <trkpt lat="59.9499673" lon="17.6681575">
        <ele>20.325</ele>
        <time>2013-05-03T14:39:44Z</time>
      </trkpt>
      <trkpt lat="59.9499087" lon="17.6681379">
        <ele>20.325</ele>
        <time>2013-05-03T14:39:45Z</time>
      </trkpt>
      <trkpt lat="59.9498496" lon="17.6681161">
        <ele>20.325</ele>
        <time>2013-05-03T14:39:46Z</time>
      </trkpt>
      <trkpt lat="59.9497892" lon="17.6680937">
        <ele>20.325</ele>
        <time>2013-05-03T14:39:47Z</time>
      </trkpt>
      <trkpt lat="59.9497291" lon="17.6680666">
        <ele>20.325</ele>
        <time>2013-05-03T14:39:48Z</time>
      </trkpt>
      <trkpt lat="59.9496693" lon="17.6680357">
        <ele>20.325</ele>
        <time>2013-05-03T14:39:49Z</time>
      </trkpt>
      <trkpt lat="59.9496098" lon="17.6680048">
        <ele>20.325</ele>
        <time>2013-05-03T14:39:50Z</time>
      </trkpt>
      <trkpt lat="59.9495507" lon="17.6679719">
        <ele>20.8057</ele>
        <time>2013-05-03T14:39:51Z</time>
      </trkpt>
      <trkpt lat="59.9494918" lon="17.6679358">
        <ele>20.8057</ele>
        <time>2013-05-03T14:39:52Z</time>
      </trkpt>
      <trkpt lat="59.9494337" lon="17.667902">
        <ele>20.8057</ele>
        <time>2013-05-03T14:39:53Z</time>
      </trkpt>
      <trkpt lat="59.9493762" lon="17.667871">
        <ele>20.8057</ele>
        <time>2013-05-03T14:39:54Z</time>
      </trkpt>
      <trkpt lat="59.9493197" lon="17.6678413">
        <ele>20.8057</ele>
        <time>2013-05-03T14:39:55Z</time>
      </trkpt>
      <trkpt lat="59.9492637" lon="17.667811">
        <ele>20.8057</ele>
        <time>2013-05-03T14:39:56Z</time>
      </trkpt>
      <trkpt lat="59.9492081" lon="17.6677789">
        <ele>20.8057</ele>
        <time>2013-05-03T14:39:57Z</time>
      </trkpt>
      <trkpt lat="59.9491527" lon="17.667747">
        <ele>20.8057</ele>
        <time>2013-05-03T14:39:58Z</time>
      </trkpt>
      <trkpt lat="59.9490982" lon="17.6677161">
        <ele>20.8057</ele>
        <time>2013-05-03T14:39:59Z</time>
      </trkpt>
      <trkpt lat="59.9490441" lon="17.6676861">
        <ele>20.8057</ele>
        <time>2013-05-03T14:40:00Z</time>
      </trkpt>
      <trkpt lat="59.9489897" lon="17.6676575">
        <ele>20.8057</ele>
        <time>2013-05-03T14:40:01Z</time>
      </trkpt>
      <trkpt lat="59.9489348" lon="17.6676279">
        <ele>20.8057</ele>
        <time>2013-05-03T14:40:02Z</time>
      </trkpt>
      <trkpt lat="59.9488797" lon="17.6675955">
        <ele>20.8057</ele>
        <time>2013-05-03T14:40:03Z</time>
      </trkpt>
      <trkpt lat="59.9488245" lon="17.6675628">
        <ele>20.8057</ele>
        <time>2013-05-03T14:40:04Z</time>
      </trkpt>
      <trkpt lat="59.9487688" lon="17.6675317">
        <ele>20.8057</ele>
        <time>2013-05-03T14:40:05Z</time>
      </trkpt>
      <trkpt lat="59.9487133" lon="17.6674999">
        <ele>20.8057</ele>
        <time>2013-05-03T14:40:06Z</time>
      </trkpt>
      <trkpt lat="59.9486574" lon="17.6674674">
        <ele>20.8057</ele>
        <time>2013-05-03T14:40:07Z</time>
      </trkpt>
      <trkpt lat="59.948601" lon="17.667436">
        <ele>20.8057</ele>
        <time>2013-05-03T14:40:08Z</time>
      </trkpt>
      <trkpt lat="59.9485442" lon="17.6674058">
        <ele>20.8057</ele>
        <time>2013-05-03T14:40:09Z</time>
      </trkpt>
      <trkpt lat="59.9484867" lon="17.6673754">
        <ele>20.8057</ele>
        <time>2013-05-03T14:40:10Z</time>
      </trkpt>
      <trkpt lat="59.9484293" lon="17.6673432">
        <ele>20.8057</ele>
        <time>2013-05-03T14:40:11Z</time>
      </trkpt>
      <trkpt lat="59.9483719" lon="17.6673098">
        <ele>20.8057</ele>
        <time>2013-05-03T14:40:12Z</time>
      </trkpt>
      <trkpt lat="59.9483148" lon="17.6672774">
        <ele>20.8057</ele>
        <time>2013-05-03T14:40:13Z</time>
      </trkpt>
      <trkpt lat="59.9482569" lon="17.6672445">
        <ele>21.2864</ele>
        <time>2013-05-03T14:40:14Z</time>
      </trkpt>
      <trkpt lat="59.9481994" lon="17.667211">
        <ele>21.2864</ele>
        <time>2013-05-03T14:40:15Z</time>
      </trkpt>
      <trkpt lat="59.9481419" lon="17.6671796">
        <ele>21.2864</ele>
        <time>2013-05-03T14:40:16Z</time>
      </trkpt>
      <trkpt lat="59.9480848" lon="17.6671484">
        <ele>21.2864</ele>
        <time>2013-05-03T14:40:17Z</time>
      </trkpt>
      <trkpt lat="59.9480275" lon="17.6671157">
        <ele>21.767</ele>
        <time>2013-05-03T14:40:18Z</time>
      </trkpt>
      <trkpt lat="59.94797" lon="17.6670825">
        <ele>21.767</ele>
        <time>2013-05-03T14:40:19Z</time>
      </trkpt>
      <trkpt lat="59.9479123" lon="17.6670504">
        <ele>21.767</ele>
        <time>2013-05-03T14:40:20Z</time>
      </trkpt>
      <trkpt lat="59.9478547" lon="17.6670205">
        <ele>21.767</ele>
        <time>2013-05-03T14:40:21Z</time>
      </trkpt>
      <trkpt lat="59.9477972" lon="17.6669923">
        <ele>21.767</ele>
        <time>2013-05-03T14:40:22Z</time>
      </trkpt>
      <trkpt lat="59.9477401" lon="17.666964">
        <ele>21.767</ele>
        <time>2013-05-03T14:40:23Z</time>
      </trkpt>
      <trkpt lat="59.9476843" lon="17.6669359">
        <ele>21.767</ele>
        <time>2013-05-03T14:40:24Z</time>
      </trkpt>
      <trkpt lat="59.9476286" lon="17.6669081">
        <ele>22.2476</ele>
        <time>2013-05-03T14:40:25Z</time>
      </trkpt>
      <trkpt lat="59.947573" lon="17.6668816">
        <ele>22.2476</ele>
        <time>2013-05-03T14:40:26Z</time>
      </trkpt>
      <trkpt lat="59.9475177" lon="17.6668548">
        <ele>22.2476</ele>
        <time>2013-05-03T14:40:27Z</time>
      </trkpt>
      <trkpt lat="59.9474624" lon="17.6668275">
        <ele>22.2476</ele>
        <time>2013-05-03T14:40:28Z</time>
      </trkpt>
      <trkpt lat="59.947407" lon="17.6667994">
        <ele>22.2476</ele>
        <time>2013-05-03T14:40:29Z</time>
      </trkpt>
      <trkpt lat="59.947352" lon="17.6667713">
        <ele>22.7283</ele>
        <time>2013-05-03T14:40:30Z</time>
      </trkpt>
      <trkpt lat="59.9472965" lon="17.6667458">
        <ele>22.7283</ele>
        <time>2013-05-03T14:40:31Z</time>
      </trkpt>
      <trkpt lat="59.9472412" lon="17.6667205">
        <ele>22.7283</ele>
        <time>2013-05-03T14:40:32Z</time>
      </trkpt>
      <trkpt lat="59.9471862" lon="17.6666945">
        <ele>22.7283</ele>
        <time>2013-05-03T14:40:33Z</time>
      </trkpt>
      <trkpt lat="59.9471309" lon="17.6666682">
        <ele>22.7283</ele>
        <time>2013-05-03T14:40:34Z</time>
      </trkpt>
      <trkpt lat="59.9470755" lon="17.6666419">
        <ele>22.7283</ele>
        <time>2013-05-03T14:40:35Z</time>
      </trkpt>
      <trkpt lat="59.9470204" lon="17.6666168">
        <ele>23.209</ele>
        <time>2013-05-03T14:40:36Z</time>
      </trkpt>
      <trkpt lat="59.9469661" lon="17.6665924">
        <ele>23.209</ele>
        <time>2013-05-03T14:40:37Z</time>
      </trkpt>
      <trkpt lat="59.9469126" lon="17.6665686">
        <ele>23.209</ele>
        <time>2013-05-03T14:40:38Z</time>
      </trkpt>
      <trkpt lat="59.9468598" lon="17.6665457">
        <ele>23.209</ele>
        <time>2013-05-03T14:40:39Z</time>
      </trkpt>
      <trkpt lat="59.9468074" lon="17.6665247">
        <ele>23.209</ele>
        <time>2013-05-03T14:40:40Z</time>
      </trkpt>
      <trkpt lat="59.9467551" lon="17.6665096">
        <ele>23.6896</ele>
        <time>2013-05-03T14:40:41Z</time>
      </trkpt>
      <trkpt lat="59.9467028" lon="17.6665003">
        <ele>23.6896</ele>
        <time>2013-05-03T14:40:42Z</time>
      </trkpt>
      <trkpt lat="59.9466497" lon="17.6664945">
        <ele>23.6896</ele>
        <time>2013-05-03T14:40:43Z</time>
      </trkpt>
      <trkpt lat="59.9465963" lon="17.6664914">
        <ele>23.6896</ele>
        <time>2013-05-03T14:40:44Z</time>
      </trkpt>
      <trkpt lat="59.9465426" lon="17.6664863">
        <ele>23.6896</ele>
        <time>2013-05-03T14:40:45Z</time>
      </trkpt>
      <trkpt lat="59.946489" lon="17.6664739">
        <ele>23.6896</ele>
        <time>2013-05-03T14:40:46Z</time>
      </trkpt>
      <trkpt lat="59.9464361" lon="17.6664537">
        <ele>23.6896</ele>
        <time>2013-05-03T14:40:47Z</time>
      </trkpt>
      <trkpt lat="59.9463839" lon="17.6664283">
        <ele>23.6896</ele>
        <time>2013-05-03T14:40:48Z</time>
      </trkpt>
      <trkpt lat="59.9463323" lon="17.6663968">
        <ele>23.6896</ele>
        <time>2013-05-03T14:40:49Z</time>
      </trkpt>
      <trkpt lat="59.9462812" lon="17.6663562">
        <ele>24.1703</ele>
        <time>2013-05-03T14:40:50Z</time>
      </trkpt>
      <trkpt lat="59.946231" lon="17.6663124">
        <ele>24.1703</ele>
        <time>2013-05-03T14:40:51Z</time>
      </trkpt>
      <trkpt lat="59.9461788" lon="17.6662764">
        <ele>24.1703</ele>
        <time>2013-05-03T14:40:52Z</time>
      </trkpt>
      <trkpt lat="59.9461244" lon="17.6662522">
        <ele>24.1703</ele>
        <time>2013-05-03T14:40:53Z</time>
      </trkpt>
      <trkpt lat="59.9460692" lon="17.666234">
        <ele>24.1703</ele>
        <time>2013-05-03T14:40:54Z</time>
      </trkpt>
      <trkpt lat="59.9460141" lon="17.6662142">
        <ele>24.1703</ele>
        <time>2013-05-03T14:40:55Z</time>
      </trkpt>
      <trkpt lat="59.9459605" lon="17.6661927">
        <ele>24.1703</ele>
        <time>2013-05-03T14:40:56Z</time>
      </trkpt>
      <trkpt lat="59.9459076" lon="17.6661713">
        <ele>24.1703</ele>
        <time>2013-05-03T14:40:57Z</time>
      </trkpt>
      <trkpt lat="59.9458539" lon="17.6661505">
        <ele>24.651</ele>
        <time>2013-05-03T14:40:58Z</time>
      </trkpt>
      <trkpt lat="59.9458009" lon="17.66613">
        <ele>24.651</ele>
        <time>2013-05-03T14:40:59Z</time>
      </trkpt>
      <trkpt lat="59.945747" lon="17.6661088">
        <ele>24.651</ele>
        <time>2013-05-03T14:41:00Z</time>
      </trkpt>
      <trkpt lat="59.9456932" lon="17.666088">
        <ele>24.651</ele>
        <time>2013-05-03T14:41:01Z</time>
      </trkpt>
      <trkpt lat="59.9456397" lon="17.6660679">
        <ele>24.651</ele>
        <time>2013-05-03T14:41:02Z</time>
      </trkpt>
      <trkpt lat="59.9455871" lon="17.6660492">
        <ele>24.651</ele>
        <time>2013-05-03T14:41:03Z</time>
      </trkpt>
      <trkpt lat="59.9455344" lon="17.6660295">
        <ele>24.651</ele>
        <time>2013-05-03T14:41:04Z</time>
      </trkpt>
      <trkpt lat="59.945482" lon="17.6660103">
        <ele>24.651</ele>
        <time>2013-05-03T14:41:05Z</time>
      </trkpt>
      <trkpt lat="59.945429" lon="17.6659886">
        <ele>24.651</ele>
        <time>2013-05-03T14:41:06Z</time>
      </trkpt>
      <trkpt lat="59.9453752" lon="17.6659667">
        <ele>24.651</ele>
        <time>2013-05-03T14:41:07Z</time>
      </trkpt>
      <trkpt lat="59.945321" lon="17.6659461">
        <ele>24.651</ele>
        <time>2013-05-03T14:41:08Z</time>
      </trkpt>
      <trkpt lat="59.9452676" lon="17.6659254">
        <ele>24.651</ele>
        <time>2013-05-03T14:41:09Z</time>
      </trkpt>
      <trkpt lat="59.9452145" lon="17.6659047">
        <ele>24.651</ele>
        <time>2013-05-03T14:41:10Z</time>
      </trkpt>
      <trkpt lat="59.9451611" lon="17.665885">
        <ele>25.1317</ele>
        <time>2013-05-03T14:41:11Z</time>
      </trkpt>
      <trkpt lat="59.9451078" lon="17.6658647">
        <ele>25.1317</ele>
        <time>2013-05-03T14:41:12Z</time>
      </trkpt>
      <trkpt lat="59.9450541" lon="17.6658449">
        <ele>25.1317</ele>
        <time>2013-05-03T14:41:13Z</time>
      </trkpt>
      <trkpt lat="59.945001" lon="17.6658255">
        <ele>25.1317</ele>
        <time>2013-05-03T14:41:14Z</time>
      </trkpt>
      <trkpt lat="59.9449484" lon="17.6658046">
        <ele>25.1317</ele>
        <time>2013-05-03T14:41:15Z</time>
      </trkpt>
      <trkpt lat="59.9448964" lon="17.6657819">
        <ele>25.1317</ele>
        <time>2013-05-03T14:41:16Z</time>
      </trkpt>
      <trkpt lat="59.9448442" lon="17.6657586">
        <ele>25.1317</ele>
        <time>2013-05-03T14:41:17Z</time>
      </trkpt>
      <trkpt lat="59.9447915" lon="17.6657376">
        <ele>25.1317</ele>
        <time>2013-05-03T14:41:18Z</time>
      </trkpt>
      <trkpt lat="59.9447376" lon="17.6657182">
        <ele>25.1317</ele>
        <time>2013-05-03T14:41:19Z</time>
      </trkpt>
      <trkpt lat="59.9446833" lon="17.6656994">
        <ele>25.1317</ele>
        <time>2013-05-03T14:41:20Z</time>
      </trkpt>
      <trkpt lat="59.9446284" lon="17.6656801">
        <ele>25.1317</ele>
        <time>2013-05-03T14:41:21Z</time>
      </trkpt>
      <trkpt lat="59.9445724" lon="17.6656604">
        <ele>25.1317</ele>
        <time>2013-05-03T14:41:22Z</time>
      </trkpt>
      <trkpt lat="59.9445159" lon="17.6656399">
        <ele>25.6123</ele>
        <time>2013-05-03T14:41:23Z</time>
      </trkpt>
      <trkpt lat="59.9444602" lon="17.6656192">
        <ele>25.6123</ele>
        <time>2013-05-03T14:41:24Z</time>
      </trkpt>
      <trkpt lat="59.944405" lon="17.6655976">
        <ele>25.6123</ele>
        <time>2013-05-03T14:41:25Z</time>
      </trkpt>
      <trkpt lat="59.9443497" lon="17.6655752">
        <ele>25.6123</ele>
        <time>2013-05-03T14:41:26Z</time>
      </trkpt>
      <trkpt lat="59.9442946" lon="17.6655528">
        <ele>25.6123</ele>
        <time>2013-05-03T14:41:27Z</time>
      </trkpt>
      <trkpt lat="59.9442392" lon="17.6655304">
        <ele>25.6123</ele>
        <time>2013-05-03T14:41:28Z</time>
      </trkpt>
      <trkpt lat="59.9441834" lon="17.6655073">
        <ele>26.0929</ele>
        <time>2013-05-03T14:41:29Z</time>
      </trkpt>
      <trkpt lat="59.9441268" lon="17.665483">
        <ele>26.0929</ele>
        <time>2013-05-03T14:41:30Z</time>
      </trkpt>
      <trkpt lat="59.9440697" lon="17.6654576">
        <ele>26.0929</ele>
        <time>2013-05-03T14:41:31Z</time>
      </trkpt>
      <trkpt lat="59.9440125" lon="17.665428">
        <ele>26.0929</ele>
        <time>2013-05-03T14:41:32Z</time>
      </trkpt>
      <trkpt lat="59.9439559" lon="17.6653958">
        <ele>26.0929</ele>
        <time>2013-05-03T14:41:33Z</time>
      </trkpt>
      <trkpt lat="59.9438992" lon="17.6653638">
        <ele>26.0929</ele>
        <time>2013-05-03T14:41:34Z</time>
      </trkpt>
      <trkpt lat="59.943843" lon="17.665332">
        <ele>26.0929</ele>
        <time>2013-05-03T14:41:35Z</time>
      </trkpt>
      <trkpt lat="59.9437874" lon="17.6652986">
        <ele>26.0929</ele>
        <time>2013-05-03T14:41:36Z</time>
      </trkpt>
      <trkpt lat="59.9437322" lon="17.6652642">
        <ele>26.5736</ele>
        <time>2013-05-03T14:41:37Z</time>
      </trkpt>
      <trkpt lat="59.9436777" lon="17.6652298">
        <ele>26.5736</ele>
        <time>2013-05-03T14:41:38Z</time>
      </trkpt>
      <trkpt lat="59.9436239" lon="17.6651948">
        <ele>26.5736</ele>
        <time>2013-05-03T14:41:39Z</time>
      </trkpt>
      <trkpt lat="59.943571" lon="17.6651565">
        <ele>26.5736</ele>
        <time>2013-05-03T14:41:40Z</time>
      </trkpt>
      <trkpt lat="59.9435181" lon="17.6651173">
        <ele>26.5736</ele>
        <time>2013-05-03T14:41:41Z</time>
      </trkpt>
      <trkpt lat="59.9434651" lon="17.6650784">
        <ele>27.0543</ele>
        <time>2013-05-03T14:41:42Z</time>
      </trkpt>
      <trkpt lat="59.943412" lon="17.665039">
        <ele>27.0543</ele>
        <time>2013-05-03T14:41:43Z</time>
      </trkpt>
      <trkpt lat="59.9433597" lon="17.6649981">
        <ele>27.0543</ele>
        <time>2013-05-03T14:41:44Z</time>
      </trkpt>
      <trkpt lat="59.9433078" lon="17.6649572">
        <ele>27.0543</ele>
        <time>2013-05-03T14:41:45Z</time>
      </trkpt>
      <trkpt lat="59.9432557" lon="17.6649169">
        <ele>27.0543</ele>
        <time>2013-05-03T14:41:46Z</time>
      </trkpt>
      <trkpt lat="59.9432048" lon="17.6648747">
        <ele>27.0543</ele>
        <time>2013-05-03T14:41:47Z</time>
      </trkpt>
      <trkpt lat="59.9431548" lon="17.6648288">
        <ele>27.0543</ele>
        <time>2013-05-03T14:41:48Z</time>
      </trkpt>
      <trkpt lat="59.9431053" lon="17.6647816">
        <ele>27.0543</ele>
        <time>2013-05-03T14:41:49Z</time>
      </trkpt>
      <trkpt lat="59.9430551" lon="17.6647361">
        <ele>27.5349</ele>
        <time>2013-05-03T14:41:50Z</time>
      </trkpt>
      <trkpt lat="59.9430053" lon="17.6646902">
        <ele>27.5349</ele>
        <time>2013-05-03T14:41:51Z</time>
      </trkpt>
      <trkpt lat="59.9429568" lon="17.6646416">
        <ele>27.5349</ele>
        <time>2013-05-03T14:41:52Z</time>
      </trkpt>
      <trkpt lat="59.9429095" lon="17.6645924">
        <ele>27.5349</ele>
        <time>2013-05-03T14:41:53Z</time>
      </trkpt>
      <trkpt lat="59.9428618" lon="17.6645432">
        <ele>27.5349</ele>
        <time>2013-05-03T14:41:54Z</time>
      </trkpt>
      <trkpt lat="59.9428142" lon="17.6644936">
        <ele>27.5349</ele>
        <time>2013-05-03T14:41:55Z</time>
      </trkpt>
      <trkpt lat="59.942767" lon="17.6644442">
        <ele>27.5349</ele>
        <time>2013-05-03T14:41:56Z</time>
      </trkpt>
      <trkpt lat="59.94272" lon="17.6643948">
        <ele>27.5349</ele>
        <time>2013-05-03T14:41:57Z</time>
      </trkpt>
      <trkpt lat="59.9426723" lon="17.6643408">
        <ele>27.5349</ele>
        <time>2013-05-03T14:41:58Z</time>
      </trkpt>
      <trkpt lat="59.942626" lon="17.6642862">
        <ele>27.5349</ele>
        <time>2013-05-03T14:41:59Z</time>
      </trkpt>
      <trkpt lat="59.9425812" lon="17.6642323">
        <ele>28.0155</ele>
        <time>2013-05-03T14:42:00Z</time>
      </trkpt>
      <trkpt lat="59.9425371" lon="17.6641802">
        <ele>28.0155</ele>
        <time>2013-05-03T14:42:01Z</time>
      </trkpt>
      <trkpt lat="59.9424941" lon="17.6641266">
        <ele>28.0155</ele>
        <time>2013-05-03T14:42:02Z</time>
      </trkpt>
      <trkpt lat="59.9424538" lon="17.6640767">
        <ele>28.0155</ele>
        <time>2013-05-03T14:42:03Z</time>
      </trkpt>
      <trkpt lat="59.9424126" lon="17.6640242">
        <ele>28.0155</ele>
        <time>2013-05-03T14:42:04Z</time>
      </trkpt>
      <trkpt lat="59.9423706" lon="17.6639691">
        <ele>27.5349</ele>
        <time>2013-05-03T14:42:05Z</time>
      </trkpt>
      <trkpt lat="59.9423292" lon="17.6639107">
        <ele>27.5349</ele>
        <time>2013-05-03T14:42:06Z</time>
      </trkpt>
      <trkpt lat="59.9422884" lon="17.6638533">
        <ele>27.5349</ele>
        <time>2013-05-03T14:42:07Z</time>
      </trkpt>
      <trkpt lat="59.9422468" lon="17.6637962">
        <ele>27.5349</ele>
        <time>2013-05-03T14:42:08Z</time>
      </trkpt>
      <trkpt lat="59.9422064" lon="17.6637367">
        <ele>27.5349</ele>
        <time>2013-05-03T14:42:09Z</time>
      </trkpt>
      <trkpt lat="59.9421662" lon="17.6636793">
        <ele>27.5349</ele>
        <time>2013-05-03T14:42:10Z</time>
      </trkpt>
      <trkpt lat="59.9421273" lon="17.6636207">
        <ele>27.0543</ele>
        <time>2013-05-03T14:42:11Z</time>
      </trkpt>
      <trkpt lat="59.9420901" lon="17.6635601">
        <ele>26.5736</ele>
        <time>2013-05-03T14:42:12Z</time>
      </trkpt>
      <trkpt lat="59.9420528" lon="17.6635006">
        <ele>26.5736</ele>
        <time>2013-05-03T14:42:13Z</time>
      </trkpt>
      <trkpt lat="59.9420127" lon="17.6634394">
        <ele>26.0929</ele>
        <time>2013-05-03T14:42:14Z</time>
      </trkpt>
      <trkpt lat="59.9419712" lon="17.6633747">
        <ele>26.0929</ele>
        <time>2013-05-03T14:42:15Z</time>
      </trkpt>
      <trkpt lat="59.9419292" lon="17.6633053">
        <ele>26.0929</ele>
        <time>2013-05-03T14:42:16Z</time>
      </trkpt>
      <trkpt lat="59.941887" lon="17.6632348">
        <ele>25.6123</ele>
        <time>2013-05-03T14:42:17Z</time>
      </trkpt>
      <trkpt lat="59.9418458" lon="17.6631627">
        <ele>25.6123</ele>
        <time>2013-05-03T14:42:18Z</time>
      </trkpt>
      <trkpt lat="59.9418054" lon="17.6630918">
        <ele>25.6123</ele>
        <time>2013-05-03T14:42:19Z</time>
      </trkpt>
      <trkpt lat="59.9417656" lon="17.6630217">
        <ele>25.1317</ele>
        <time>2013-05-03T14:42:20Z</time>
      </trkpt>
      <trkpt lat="59.9417247" lon="17.6629462">
        <ele>25.1317</ele>
        <time>2013-05-03T14:42:21Z</time>
      </trkpt>
      <trkpt lat="59.9416837" lon="17.6628687">
        <ele>25.1317</ele>
        <time>2013-05-03T14:42:22Z</time>
      </trkpt>
      <trkpt lat="59.941642" lon="17.6627909">
        <ele>25.1317</ele>
        <time>2013-05-03T14:42:23Z</time>
      </trkpt>
      <trkpt lat="59.9415993" lon="17.6627153">
        <ele>25.1317</ele>
        <time>2013-05-03T14:42:24Z</time>
      </trkpt>
      <trkpt lat="59.9415547" lon="17.6626428">
        <ele>25.1317</ele>
        <time>2013-05-03T14:42:25Z</time>
      </trkpt>
      <trkpt lat="59.9415098" lon="17.6625739">
        <ele>25.1317</ele>
        <time>2013-05-03T14:42:26Z</time>
      </trkpt>
      <trkpt lat="59.9414641" lon="17.6625086">
        <ele>25.1317</ele>
        <time>2013-05-03T14:42:27Z</time>
      </trkpt>
      <trkpt lat="59.9414167" lon="17.6624467">
        <ele>25.1317</ele>
        <time>2013-05-03T14:42:28Z</time>
      </trkpt>
      <trkpt lat="59.9413667" lon="17.6623879">
        <ele>25.6123</ele>
        <time>2013-05-03T14:42:29Z</time>
      </trkpt>
      <trkpt lat="59.9413134" lon="17.6623338">
        <ele>25.6123</ele>
        <time>2013-05-03T14:42:30Z</time>
      </trkpt>
      <trkpt lat="59.941259" lon="17.6622839">
        <ele>25.6123</ele>
        <time>2013-05-03T14:42:31Z</time>
      </trkpt>
      <trkpt lat="59.9412037" lon="17.6622396">
        <ele>25.6123</ele>
        <time>2013-05-03T14:42:32Z</time>
      </trkpt>
      <trkpt lat="59.9411478" lon="17.6622017">
        <ele>25.6123</ele>
        <time>2013-05-03T14:42:33Z</time>
      </trkpt>
      <trkpt lat="59.9410913" lon="17.6621682">
        <ele>25.6123</ele>
        <time>2013-05-03T14:42:34Z</time>
      </trkpt>
      <trkpt lat="59.9410338" lon="17.6621383">
        <ele>25.1317</ele>
        <time>2013-05-03T14:42:35Z</time>
      </trkpt>
      <trkpt lat="59.9409759" lon="17.6621129">
        <ele>25.1317</ele>
        <time>2013-05-03T14:42:36Z</time>
      </trkpt>
      <trkpt lat="59.9409168" lon="17.662094">
        <ele>25.1317</ele>
        <time>2013-05-03T14:42:37Z</time>
      </trkpt>
      <trkpt lat="59.9408572" lon="17.6620801">
        <ele>25.1317</ele>
        <time>2013-05-03T14:42:38Z</time>
      </trkpt>
      <trkpt lat="59.9407974" lon="17.6620707">
        <ele>25.1317</ele>
        <time>2013-05-03T14:42:39Z</time>
      </trkpt>
      <trkpt lat="59.9407379" lon="17.6620615">
        <ele>25.1317</ele>
        <time>2013-05-03T14:42:40Z</time>
      </trkpt>
      <trkpt lat="59.9406779" lon="17.6620417">
        <ele>24.651</ele>
        <time>2013-05-03T14:42:41Z</time>
      </trkpt>
      <trkpt lat="59.9406184" lon="17.6620034">
        <ele>24.651</ele>
        <time>2013-05-03T14:42:42Z</time>
      </trkpt>
      <trkpt lat="59.9405622" lon="17.6619448">
        <ele>24.651</ele>
        <time>2013-05-03T14:42:43Z</time>
      </trkpt>
      <trkpt lat="59.9405116" lon="17.6618642">
        <ele>24.1703</ele>
        <time>2013-05-03T14:42:44Z</time>
      </trkpt>
      <trkpt lat="59.940469" lon="17.6617635">
        <ele>24.1703</ele>
        <time>2013-05-03T14:42:45Z</time>
      </trkpt>
      <trkpt lat="59.9404355" lon="17.6616431">
        <ele>23.6896</ele>
        <time>2013-05-03T14:42:46Z</time>
      </trkpt>
      <trkpt lat="59.9404138" lon="17.6615083">
        <ele>23.6896</ele>
        <time>2013-05-03T14:42:47Z</time>
      </trkpt>
      <trkpt lat="59.9404055" lon="17.6613408">
        <ele>23.209</ele>
        <time>2013-05-03T14:42:48Z</time>
      </trkpt>
      <trkpt lat="59.9403853" lon="17.6611812">
        <ele>22.7283</ele>
        <time>2013-05-03T14:42:49Z</time>
      </trkpt>
      <trkpt lat="59.9403726" lon="17.6610125">
        <ele>23.209</ele>
        <time>2013-05-03T14:42:50Z</time>
      </trkpt>
      <trkpt lat="59.9403935" lon="17.6608571">
        <ele>23.6896</ele>
        <time>2013-05-03T14:42:51Z</time>
      </trkpt>
      <trkpt lat="59.940426" lon="17.6607296">
        <ele>23.6896</ele>
        <time>2013-05-03T14:42:52Z</time>
      </trkpt>
      <trkpt lat="59.9404665" lon="17.6606086">
        <ele>23.6896</ele>
        <time>2013-05-03T14:42:53Z</time>
      </trkpt>
      <trkpt lat="59.9404981" lon="17.6604952">
        <ele>23.209</ele>
        <time>2013-05-03T14:42:54Z</time>
      </trkpt>
      <trkpt lat="59.9405225" lon="17.6603742">
        <ele>23.209</ele>
        <time>2013-05-03T14:42:55Z</time>
      </trkpt>
      <trkpt lat="59.9405299" lon="17.6602594">
        <ele>22.7283</ele>
        <time>2013-05-03T14:42:56Z</time>
      </trkpt>
      <trkpt lat="59.9405225" lon="17.6601365">
        <ele>22.7283</ele>
        <time>2013-05-03T14:42:57Z</time>
      </trkpt>
      <trkpt lat="59.9405091" lon="17.6599951">
        <ele>22.2476</ele>
        <time>2013-05-03T14:42:58Z</time>
      </trkpt>
      <trkpt lat="59.9404733" lon="17.6599164">
        <ele>23.209</ele>
        <time>2013-05-03T14:42:59Z</time>
      </trkpt>
      <trkpt lat="59.9404477" lon="17.6598698">
        <ele>22.7283</ele>
        <time>2013-05-03T14:43:00Z</time>
      </trkpt>
      <trkpt lat="59.9404225" lon="17.6597812">
        <ele>21.767</ele>
        <time>2013-05-03T14:43:01Z</time>
      </trkpt>
      <trkpt lat="59.9403975" lon="17.6596818">
        <ele>21.767</ele>
        <time>2013-05-03T14:43:02Z</time>
      </trkpt>
      <trkpt lat="59.9403656" lon="17.6595702">
        <ele>20.8057</ele>
        <time>2013-05-03T14:43:03Z</time>
      </trkpt>
      <trkpt lat="59.9403505" lon="17.6594304">
        <ele>20.8057</ele>
        <time>2013-05-03T14:43:04Z</time>
      </trkpt>
      <trkpt lat="59.9403278" lon="17.6592829">
        <ele>21.2864</ele>
        <time>2013-05-03T14:43:05Z</time>
      </trkpt>
      <trkpt lat="59.9403035" lon="17.6591357">
        <ele>21.2864</ele>
        <time>2013-05-03T14:43:06Z</time>
      </trkpt>
      <trkpt lat="59.940277" lon="17.6589871">
        <ele>22.2476</ele>
        <time>2013-05-03T14:43:07Z</time>
      </trkpt>
      <trkpt lat="59.9402485" lon="17.6588495">
        <ele>22.2476</ele>
        <time>2013-05-03T14:43:08Z</time>
      </trkpt>
      <trkpt lat="59.9402189" lon="17.6587163">
        <ele>22.7283</ele>
        <time>2013-05-03T14:43:09Z</time>
      </trkpt>
      <trkpt lat="59.9401894" lon="17.6585867">
        <ele>22.7283</ele>
        <time>2013-05-03T14:43:10Z</time>
      </trkpt>
      <trkpt lat="59.9401608" lon="17.6584606">
        <ele>22.7283</ele>
        <time>2013-05-03T14:43:11Z</time>
      </trkpt>
      <trkpt lat="59.9401331" lon="17.6583376">
        <ele>23.209</ele>
        <time>2013-05-03T14:43:12Z</time>
      </trkpt>
      <trkpt lat="59.940106" lon="17.6582189">
        <ele>23.209</ele>
        <time>2013-05-03T14:43:13Z</time>
      </trkpt>
      <trkpt lat="59.9400807" lon="17.6581044">
        <ele>23.6896</ele>
        <time>2013-05-03T14:43:14Z</time>
      </trkpt>
      <trkpt lat="59.9400574" lon="17.6579932">
        <ele>23.6896</ele>
        <time>2013-05-03T14:43:15Z</time>
      </trkpt>
      <trkpt lat="59.9400351" lon="17.6578864">
        <ele>24.1703</ele>
        <time>2013-05-03T14:43:16Z</time>
      </trkpt>
      <trkpt lat="59.9400127" lon="17.6577827">
        <ele>24.1703</ele>
        <time>2013-05-03T14:43:17Z</time>
      </trkpt>
      <trkpt lat="59.9399909" lon="17.6576802">
        <ele>24.651</ele>
        <time>2013-05-03T14:43:18Z</time>
      </trkpt>
      <trkpt lat="59.9399702" lon="17.6575796">
        <ele>24.651</ele>
        <time>2013-05-03T14:43:19Z</time>
      </trkpt>
      <trkpt lat="59.93995" lon="17.6574802">
        <ele>25.1317</ele>
        <time>2013-05-03T14:43:20Z</time>
      </trkpt>
      <trkpt lat="59.9399304" lon="17.6573811">
        <ele>25.1317</ele>
        <time>2013-05-03T14:43:21Z</time>
      </trkpt>
      <trkpt lat="59.9399113" lon="17.6572827">
        <ele>25.1317</ele>
        <time>2013-05-03T14:43:22Z</time>
      </trkpt>
      <trkpt lat="59.9398906" lon="17.6571871">
        <ele>25.6123</ele>
        <time>2013-05-03T14:43:23Z</time>
      </trkpt>
      <trkpt lat="59.9398686" lon="17.6570929">
        <ele>25.6123</ele>
        <time>2013-05-03T14:43:24Z</time>
      </trkpt>
      <trkpt lat="59.9398465" lon="17.6569985">
        <ele>25.6123</ele>
        <time>2013-05-03T14:43:25Z</time>
      </trkpt>
      <trkpt lat="59.9398242" lon="17.656903">
        <ele>26.0929</ele>
        <time>2013-05-03T14:43:26Z</time>
      </trkpt>
      <trkpt lat="59.939803" lon="17.6568052">
        <ele>26.0929</ele>
        <time>2013-05-03T14:43:27Z</time>
      </trkpt>
      <trkpt lat="59.9397844" lon="17.6567039">
        <ele>26.0929</ele>
        <time>2013-05-03T14:43:28Z</time>
      </trkpt>
      <trkpt lat="59.9397673" lon="17.6566006">
        <ele>26.5736</ele>
        <time>2013-05-03T14:43:29Z</time>
      </trkpt>
      <trkpt lat="59.9397502" lon="17.6564971">
        <ele>26.5736</ele>
        <time>2013-05-03T14:43:30Z</time>
      </trkpt>
      <trkpt lat="59.9397325" lon="17.6563944">
        <ele>26.5736</ele>
        <time>2013-05-03T14:43:31Z</time>
      </trkpt>
      <trkpt lat="59.9397144" lon="17.6562926">
        <ele>27.0543</ele>
        <time>2013-05-03T14:43:32Z</time>
      </trkpt>
      <trkpt lat="59.9396953" lon="17.6561904">
        <ele>27.0543</ele>
        <time>2013-05-03T14:43:33Z</time>
      </trkpt>
      <trkpt lat="59.9396752" lon="17.6560866">
        <ele>27.0543</ele>
        <time>2013-05-03T14:43:34Z</time>
      </trkpt>
      <trkpt lat="59.9396548" lon="17.6559817">
        <ele>27.5349</ele>
        <time>2013-05-03T14:43:35Z</time>
      </trkpt>
      <trkpt lat="59.9396341" lon="17.6558764">
        <ele>27.5349</ele>
        <time>2013-05-03T14:43:36Z</time>
      </trkpt>
      <trkpt lat="59.9396128" lon="17.6557711">
        <ele>27.5349</ele>
        <time>2013-05-03T14:43:37Z</time>
      </trkpt>
      <trkpt lat="59.9395906" lon="17.6556662">
        <ele>27.5349</ele>
        <time>2013-05-03T14:43:38Z</time>
      </trkpt>
      <trkpt lat="59.9395684" lon="17.6555614">
        <ele>28.0155</ele>
        <time>2013-05-03T14:43:39Z</time>
      </trkpt>
      <trkpt lat="59.9395466" lon="17.6554564">
        <ele>28.0155</ele>
        <time>2013-05-03T14:43:40Z</time>
      </trkpt>
      <trkpt lat="59.9395248" lon="17.6553517">
        <ele>28.0155</ele>
        <time>2013-05-03T14:43:41Z</time>
      </trkpt>
      <trkpt lat="59.9395036" lon="17.6552472">
        <ele>28.0155</ele>
        <time>2013-05-03T14:43:42Z</time>
      </trkpt>
      <trkpt lat="59.9394829" lon="17.655143">
        <ele>28.0155</ele>
        <time>2013-05-03T14:43:43Z</time>
      </trkpt>
      <trkpt lat="59.9394626" lon="17.6550383">
        <ele>28.4962</ele>
        <time>2013-05-03T14:43:44Z</time>
      </trkpt>
      <trkpt lat="59.9394429" lon="17.6549342">
        <ele>28.4962</ele>
        <time>2013-05-03T14:43:45Z</time>
      </trkpt>
      <trkpt lat="59.9394232" lon="17.6548297">
        <ele>28.4962</ele>
        <time>2013-05-03T14:43:46Z</time>
      </trkpt>
      <trkpt lat="59.9394024" lon="17.654727">
        <ele>28.9769</ele>
        <time>2013-05-03T14:43:47Z</time>
      </trkpt>
      <trkpt lat="59.9393812" lon="17.6546237">
        <ele>28.9769</ele>
        <time>2013-05-03T14:43:48Z</time>
      </trkpt>
      <trkpt lat="59.9393607" lon="17.6545191">
        <ele>28.9769</ele>
        <time>2013-05-03T14:43:49Z</time>
      </trkpt>
      <trkpt lat="59.9393405" lon="17.6544151">
        <ele>28.9769</ele>
        <time>2013-05-03T14:43:50Z</time>
      </trkpt>
      <trkpt lat="59.9393195" lon="17.6543124">
        <ele>28.9769</ele>
        <time>2013-05-03T14:43:51Z</time>
      </trkpt>
      <trkpt lat="59.939295" lon="17.6542069">
        <ele>29.4575</ele>
        <time>2013-05-03T14:43:52Z</time>
      </trkpt>
      <trkpt lat="59.9392713" lon="17.6541052">
        <ele>29.4575</ele>
        <time>2013-05-03T14:43:53Z</time>
      </trkpt>
      <trkpt lat="59.9392473" lon="17.6540035">
        <ele>28.9769</ele>
        <time>2013-05-03T14:43:54Z</time>
      </trkpt>
      <trkpt lat="59.9392223" lon="17.6539016">
        <ele>28.9769</ele>
        <time>2013-05-03T14:43:55Z</time>
      </trkpt>
      <trkpt lat="59.9391983" lon="17.6537975">
        <ele>28.9769</ele>
        <time>2013-05-03T14:43:56Z</time>
      </trkpt>
      <trkpt lat="59.939176" lon="17.6536911">
        <ele>29.4575</ele>
        <time>2013-05-03T14:43:57Z</time>
      </trkpt>
      <trkpt lat="59.939154" lon="17.6535836">
        <ele>29.4575</ele>
        <time>2013-05-03T14:43:58Z</time>
      </trkpt>
      <trkpt lat="59.9391322" lon="17.6534755">
        <ele>29.4575</ele>
        <time>2013-05-03T14:43:59Z</time>
      </trkpt>
      <trkpt lat="59.9391094" lon="17.6533673">
        <ele>29.4575</ele>
        <time>2013-05-03T14:44:00Z</time>
      </trkpt>
      <trkpt lat="59.9390861" lon="17.6532581">
        <ele>29.4575</ele>
        <time>2013-05-03T14:44:01Z</time>
      </trkpt>
      <trkpt lat="59.9390629" lon="17.6531486">
        <ele>28.9769</ele>
        <time>2013-05-03T14:44:02Z</time>
      </trkpt>
      <trkpt lat="59.9390389" lon="17.6530397">
        <ele>28.9769</ele>
        <time>2013-05-03T14:44:03Z</time>
      </trkpt>
      <trkpt lat="59.9390129" lon="17.6529319">
        <ele>28.9769</ele>
        <time>2013-05-03T14:44:04Z</time>
      </trkpt>
      <trkpt lat="59.9389862" lon="17.6528248">
        <ele>28.9769</ele>
        <time>2013-05-03T14:44:05Z</time>
      </trkpt>
      <trkpt lat="59.9389596" lon="17.6527166">
        <ele>28.9769</ele>
        <time>2013-05-03T14:44:06Z</time>
      </trkpt>
      <trkpt lat="59.9389318" lon="17.652608">
        <ele>28.9769</ele>
        <time>2013-05-03T14:44:07Z</time>
      </trkpt>
      <trkpt lat="59.9389031" lon="17.6524987">
        <ele>28.9769</ele>
        <time>2013-05-03T14:44:08Z</time>
      </trkpt>
      <trkpt lat="59.9388736" lon="17.6523899">
        <ele>28.9769</ele>
        <time>2013-05-03T14:44:09Z</time>
      </trkpt>
      <trkpt lat="59.9388442" lon="17.6522818">
        <ele>28.4962</ele>
        <time>2013-05-03T14:44:10Z</time>
      </trkpt>
      <trkpt lat="59.9388145" lon="17.6521742">
        <ele>28.4962</ele>
        <time>2013-05-03T14:44:11Z</time>
      </trkpt>
      <trkpt lat="59.9387837" lon="17.6520681">
        <ele>28.4962</ele>
        <time>2013-05-03T14:44:12Z</time>
      </trkpt>
      <trkpt lat="59.9387524" lon="17.6519639">
        <ele>28.4962</ele>
        <time>2013-05-03T14:44:13Z</time>
      </trkpt>
      <trkpt lat="59.9387207" lon="17.6518604">
        <ele>28.4962</ele>
        <time>2013-05-03T14:44:14Z</time>
      </trkpt>
      <trkpt lat="59.9386897" lon="17.6517568">
        <ele>28.4962</ele>
        <time>2013-05-03T14:44:15Z</time>
      </trkpt>
      <trkpt lat="59.9386598" lon="17.6516547">
        <ele>28.9769</ele>
        <time>2013-05-03T14:44:16Z</time>
      </trkpt>
      <trkpt lat="59.9386287" lon="17.6515556">
        <ele>28.9769</ele>
        <time>2013-05-03T14:44:17Z</time>
      </trkpt>
      <trkpt lat="59.9385961" lon="17.6514568">
        <ele>28.9769</ele>
        <time>2013-05-03T14:44:18Z</time>
      </trkpt>
      <trkpt lat="59.9385644" lon="17.6513563">
        <ele>28.9769</ele>
        <time>2013-05-03T14:44:19Z</time>
      </trkpt>
      <trkpt lat="59.9385334" lon="17.6512542">
        <ele>29.4575</ele>
        <time>2013-05-03T14:44:20Z</time>
      </trkpt>
      <trkpt lat="59.9385017" lon="17.6511522">
        <ele>29.4575</ele>
        <time>2013-05-03T14:44:21Z</time>
      </trkpt>
      <trkpt lat="59.9384666" lon="17.6510532">
        <ele>29.4575</ele>
        <time>2013-05-03T14:44:22Z</time>
      </trkpt>
      <trkpt lat="59.9384271" lon="17.6509601">
        <ele>29.4575</ele>
        <time>2013-05-03T14:44:23Z</time>
      </trkpt>
      <trkpt lat="59.9383845" lon="17.6508735">
        <ele>28.9769</ele>
        <time>2013-05-03T14:44:24Z</time>
      </trkpt>
      <trkpt lat="59.9383415" lon="17.6507876">
        <ele>28.9769</ele>
        <time>2013-05-03T14:44:25Z</time>
      </trkpt>
      <trkpt lat="59.9383008" lon="17.6506989">
        <ele>28.9769</ele>
        <time>2013-05-03T14:44:26Z</time>
      </trkpt>
      <trkpt lat="59.9382625" lon="17.6506052">
        <ele>28.9769</ele>
        <time>2013-05-03T14:44:27Z</time>
      </trkpt>
      <trkpt lat="59.9382266" lon="17.6505094">
        <ele>28.9769</ele>
        <time>2013-05-03T14:44:28Z</time>
      </trkpt>
      <trkpt lat="59.9381921" lon="17.6504105">
        <ele>28.9769</ele>
        <time>2013-05-03T14:44:29Z</time>
      </trkpt>
      <trkpt lat="59.9381589" lon="17.6503104">
        <ele>28.9769</ele>
        <time>2013-05-03T14:44:30Z</time>
      </trkpt>
      <trkpt lat="59.9381244" lon="17.650212">
        <ele>28.9769</ele>
        <time>2013-05-03T14:44:31Z</time>
      </trkpt>
      <trkpt lat="59.9380877" lon="17.6501168">
        <ele>28.9769</ele>
        <time>2013-05-03T14:44:32Z</time>
      </trkpt>
      <trkpt lat="59.9380502" lon="17.650024">
        <ele>28.9769</ele>
        <time>2013-05-03T14:44:33Z</time>
      </trkpt>
      <trkpt lat="59.9380122" lon="17.6499338">
        <ele>28.9769</ele>
        <time>2013-05-03T14:44:34Z</time>
      </trkpt>
      <trkpt lat="59.9379738" lon="17.6498463">
        <ele>28.9769</ele>
        <time>2013-05-03T14:44:35Z</time>
      </trkpt>
      <trkpt lat="59.9379371" lon="17.6497597">
        <ele>28.9769</ele>
        <time>2013-05-03T14:44:36Z</time>
      </trkpt>
      <trkpt lat="59.9379022" lon="17.6496729">
        <ele>28.9769</ele>
        <time>2013-05-03T14:44:37Z</time>
      </trkpt>
      <trkpt lat="59.9378683" lon="17.6495866">
        <ele>28.9769</ele>
        <time>2013-05-03T14:44:38Z</time>
      </trkpt>
      <trkpt lat="59.9378364" lon="17.649498">
        <ele>28.9769</ele>
        <time>2013-05-03T14:44:39Z</time>
      </trkpt>
      <trkpt lat="59.9378082" lon="17.6494037">
        <ele>28.9769</ele>
        <time>2013-05-03T14:44:40Z</time>
      </trkpt>
      <trkpt lat="59.9377785" lon="17.6493117">
        <ele>28.9769</ele>
        <time>2013-05-03T14:44:41Z</time>
      </trkpt>
      <trkpt lat="59.9377427" lon="17.6492251">
        <ele>29.4575</ele>
        <time>2013-05-03T14:44:42Z</time>
      </trkpt>
      <trkpt lat="59.9377043" lon="17.6491444">
        <ele>29.9381</ele>
        <time>2013-05-03T14:44:43Z</time>
      </trkpt>
      <trkpt lat="59.937666" lon="17.6490667">
        <ele>29.9381</ele>
        <time>2013-05-03T14:44:44Z</time>
      </trkpt>
      <trkpt lat="59.9376308" lon="17.6489867">
        <ele>30.4188</ele>
        <time>2013-05-03T14:44:45Z</time>
      </trkpt>
      <trkpt lat="59.9376014" lon="17.6489039">
        <ele>30.4188</ele>
        <time>2013-05-03T14:44:46Z</time>
      </trkpt>
      <trkpt lat="59.9375766" lon="17.648816">
        <ele>30.4188</ele>
        <time>2013-05-03T14:44:47Z</time>
      </trkpt>
      <trkpt lat="59.9375534" lon="17.648729">
        <ele>30.4188</ele>
        <time>2013-05-03T14:44:48Z</time>
      </trkpt>
      <trkpt lat="59.9375268" lon="17.6486497">
        <ele>30.4188</ele>
        <time>2013-05-03T14:44:49Z</time>
      </trkpt>
      <trkpt lat="59.9374956" lon="17.6485783">
        <ele>30.4188</ele>
        <time>2013-05-03T14:44:50Z</time>
      </trkpt>
      <trkpt lat="59.9374624" lon="17.6485088">
        <ele>29.9381</ele>
        <time>2013-05-03T14:44:51Z</time>
      </trkpt>
      <trkpt lat="59.9374299" lon="17.6484328">
        <ele>29.9381</ele>
        <time>2013-05-03T14:44:52Z</time>
      </trkpt>
      <trkpt lat="59.9373941" lon="17.6483517">
        <ele>29.4575</ele>
        <time>2013-05-03T14:44:53Z</time>
      </trkpt>
      <trkpt lat="59.9373456" lon="17.6482556">
        <ele>29.4575</ele>
        <time>2013-05-03T14:44:54Z</time>
      </trkpt>
      <trkpt lat="59.9373015" lon="17.6481701">
        <ele>29.9381</ele>
        <time>2013-05-03T14:44:55Z</time>
      </trkpt>
      <trkpt lat="59.9372617" lon="17.648097">
        <ele>29.9381</ele>
        <time>2013-05-03T14:44:56Z</time>
      </trkpt>
      <trkpt lat="59.937218" lon="17.648028">
        <ele>30.4188</ele>
        <time>2013-05-03T14:44:57Z</time>
      </trkpt>
      <trkpt lat="59.9371729" lon="17.6479617">
        <ele>30.4188</ele>
        <time>2013-05-03T14:44:58Z</time>
      </trkpt>
      <trkpt lat="59.9371265" lon="17.6478979">
        <ele>30.8995</ele>
        <time>2013-05-03T14:44:59Z</time>
      </trkpt>
      <trkpt lat="59.9370772" lon="17.6478368">
        <ele>30.8995</ele>
        <time>2013-05-03T14:45:00Z</time>
      </trkpt>
      <trkpt lat="59.9370295" lon="17.6477772">
        <ele>31.3801</ele>
        <time>2013-05-03T14:45:01Z</time>
      </trkpt>
      <trkpt lat="59.9369803" lon="17.6477173">
        <ele>31.8607</ele>
        <time>2013-05-03T14:45:02Z</time>
      </trkpt>
      <trkpt lat="59.9369263" lon="17.6476582">
        <ele>31.8607</ele>
        <time>2013-05-03T14:45:03Z</time>
      </trkpt>
      <trkpt lat="59.9368716" lon="17.6475992">
        <ele>31.8607</ele>
        <time>2013-05-03T14:45:04Z</time>
      </trkpt>
      <trkpt lat="59.9368198" lon="17.647539">
        <ele>31.8607</ele>
        <time>2013-05-03T14:45:05Z</time>
      </trkpt>
      <trkpt lat="59.9367671" lon="17.6474764">
        <ele>31.8607</ele>
        <time>2013-05-03T14:45:06Z</time>
      </trkpt>
      <trkpt lat="59.9367165" lon="17.6474112">
        <ele>31.8607</ele>
        <time>2013-05-03T14:45:07Z</time>
      </trkpt>
      <trkpt lat="59.9366671" lon="17.6473452">
        <ele>31.8607</ele>
        <time>2013-05-03T14:45:08Z</time>
      </trkpt>
      <trkpt lat="59.936616" lon="17.6472753">
        <ele>31.3801</ele>
        <time>2013-05-03T14:45:09Z</time>
      </trkpt>
      <trkpt lat="59.9365644" lon="17.6472022">
        <ele>31.3801</ele>
        <time>2013-05-03T14:45:10Z</time>
      </trkpt>
      <trkpt lat="59.9365124" lon="17.6471294">
        <ele>31.3801</ele>
        <time>2013-05-03T14:45:11Z</time>
      </trkpt>
      <trkpt lat="59.9364591" lon="17.647061">
        <ele>31.3801</ele>
        <time>2013-05-03T14:45:12Z</time>
      </trkpt>
      <trkpt lat="59.9363979" lon="17.6469962">
        <ele>31.3801</ele>
        <time>2013-05-03T14:45:13Z</time>
      </trkpt>
      <trkpt lat="59.9363448" lon="17.6469228">
        <ele>31.3801</ele>
        <time>2013-05-03T14:45:14Z</time>
      </trkpt>
      <trkpt lat="59.9362908" lon="17.6468639">
        <ele>31.3801</ele>
        <time>2013-05-03T14:45:15Z</time>
      </trkpt>
      <trkpt lat="59.9362396" lon="17.6468034">
        <ele>31.3801</ele>
        <time>2013-05-03T14:45:16Z</time>
      </trkpt>
      <trkpt lat="59.9361889" lon="17.6467424">
        <ele>30.8995</ele>
        <time>2013-05-03T14:45:17Z</time>
      </trkpt>
      <trkpt lat="59.9361377" lon="17.646676">
        <ele>30.8995</ele>
        <time>2013-05-03T14:45:18Z</time>
      </trkpt>
      <trkpt lat="59.9360889" lon="17.6466212">
        <ele>31.3801</ele>
        <time>2013-05-03T14:45:19Z</time>
      </trkpt>
      <trkpt lat="59.9360434" lon="17.6465658">
        <ele>30.8995</ele>
        <time>2013-05-03T14:45:20Z</time>
      </trkpt>
      <trkpt lat="59.9360014" lon="17.6465066">
        <ele>30.8995</ele>
        <time>2013-05-03T14:45:21Z</time>
      </trkpt>
      <trkpt lat="59.9359583" lon="17.6464457">
        <ele>30.8995</ele>
        <time>2013-05-03T14:45:22Z</time>
      </trkpt>
      <trkpt lat="59.9359102" lon="17.6463887">
        <ele>30.8995</ele>
        <time>2013-05-03T14:45:23Z</time>
      </trkpt>
      <trkpt lat="59.935865" lon="17.6463319">
        <ele>30.8995</ele>
        <time>2013-05-03T14:45:24Z</time>
      </trkpt>
      <trkpt lat="59.9358204" lon="17.6462721">
        <ele>30.8995</ele>
        <time>2013-05-03T14:45:25Z</time>
      </trkpt>
      <trkpt lat="59.9357719" lon="17.6462102">
        <ele>30.8995</ele>
        <time>2013-05-03T14:45:26Z</time>
      </trkpt>
      <trkpt lat="59.9357237" lon="17.6461523">
        <ele>30.4188</ele>
        <time>2013-05-03T14:45:27Z</time>
      </trkpt>
      <trkpt lat="59.9356743" lon="17.6460908">
        <ele>30.4188</ele>
        <time>2013-05-03T14:45:28Z</time>
      </trkpt>
      <trkpt lat="59.9356227" lon="17.6460285">
        <ele>29.9381</ele>
        <time>2013-05-03T14:45:29Z</time>
      </trkpt>
      <trkpt lat="59.9355694" lon="17.6459658">
        <ele>29.4575</ele>
        <time>2013-05-03T14:45:30Z</time>
      </trkpt>
      <trkpt lat="59.9355144" lon="17.6459032">
        <ele>29.4575</ele>
        <time>2013-05-03T14:45:31Z</time>
      </trkpt>
      <trkpt lat="59.9354573" lon="17.6458441">
        <ele>29.4575</ele>
        <time>2013-05-03T14:45:32Z</time>
      </trkpt>
      <trkpt lat="59.9353993" lon="17.6457884">
        <ele>29.4575</ele>
        <time>2013-05-03T14:45:33Z</time>
      </trkpt>
      <trkpt lat="59.9353414" lon="17.6457323">
        <ele>28.9769</ele>
        <time>2013-05-03T14:45:34Z</time>
      </trkpt>
      <trkpt lat="59.935286" lon="17.6456695">
        <ele>28.9769</ele>
        <time>2013-05-03T14:45:35Z</time>
      </trkpt>
      <trkpt lat="59.9352331" lon="17.645601">
        <ele>28.9769</ele>
        <time>2013-05-03T14:45:36Z</time>
      </trkpt>
      <trkpt lat="59.9351794" lon="17.6455335">
        <ele>28.9769</ele>
        <time>2013-05-03T14:45:37Z</time>
      </trkpt>
      <trkpt lat="59.9351233" lon="17.6454696">
        <ele>28.9769</ele>
        <time>2013-05-03T14:45:38Z</time>
      </trkpt>
      <trkpt lat="59.9350689" lon="17.6454037">
        <ele>28.9769</ele>
        <time>2013-05-03T14:45:39Z</time>
      </trkpt>
      <trkpt lat="59.9350156" lon="17.6453425">
        <ele>28.9769</ele>
        <time>2013-05-03T14:45:40Z</time>
      </trkpt>
      <trkpt lat="59.9349543" lon="17.6452676">
        <ele>28.9769</ele>
        <time>2013-05-03T14:45:41Z</time>
      </trkpt>
      <trkpt lat="59.9349016" lon="17.6452091">
        <ele>28.9769</ele>
        <time>2013-05-03T14:45:42Z</time>
      </trkpt>
      <trkpt lat="59.9348457" lon="17.6451432">
        <ele>28.9769</ele>
        <time>2013-05-03T14:45:43Z</time>
      </trkpt>
      <trkpt lat="59.9347883" lon="17.6450625">
        <ele>29.4575</ele>
        <time>2013-05-03T14:45:44Z</time>
      </trkpt>
      <trkpt lat="59.9347358" lon="17.6450009">
        <ele>28.9769</ele>
        <time>2013-05-03T14:45:45Z</time>
      </trkpt>
      <trkpt lat="59.9346783" lon="17.6449396">
        <ele>28.4962</ele>
        <time>2013-05-03T14:45:46Z</time>
      </trkpt>
      <trkpt lat="59.9346258" lon="17.6448688">
        <ele>28.4962</ele>
        <time>2013-05-03T14:45:47Z</time>
      </trkpt>
      <trkpt lat="59.9345714" lon="17.6447952">
        <ele>28.4962</ele>
        <time>2013-05-03T14:45:48Z</time>
      </trkpt>
      <trkpt lat="59.9345156" lon="17.6447217">
        <ele>28.0155</ele>
        <time>2013-05-03T14:45:49Z</time>
      </trkpt>
      <trkpt lat="59.934463" lon="17.644645">
        <ele>28.0155</ele>
        <time>2013-05-03T14:45:50Z</time>
      </trkpt>
      <trkpt lat="59.9344142" lon="17.6445601">
        <ele>27.5349</ele>
        <time>2013-05-03T14:45:51Z</time>
      </trkpt>
      <trkpt lat="59.9343624" lon="17.6444741">
        <ele>27.0543</ele>
        <time>2013-05-03T14:45:52Z</time>
      </trkpt>
      <trkpt lat="59.9342965" lon="17.6443881">
        <ele>26.0929</ele>
        <time>2013-05-03T14:45:53Z</time>
      </trkpt>
      <trkpt lat="59.9342348" lon="17.6443015">
        <ele>25.6123</ele>
        <time>2013-05-03T14:45:54Z</time>
      </trkpt>
      <trkpt lat="59.9341722" lon="17.6442172">
        <ele>25.6123</ele>
        <time>2013-05-03T14:45:55Z</time>
      </trkpt>
      <trkpt lat="59.9341106" lon="17.6441346">
        <ele>25.1317</ele>
        <time>2013-05-03T14:45:56Z</time>
      </trkpt>
      <trkpt lat="59.9340493" lon="17.6440537">
        <ele>25.1317</ele>
        <time>2013-05-03T14:45:57Z</time>
      </trkpt>
      <trkpt lat="59.9339904" lon="17.6439716">
        <ele>24.651</ele>
        <time>2013-05-03T14:45:58Z</time>
      </trkpt>
      <trkpt lat="59.9339296" lon="17.6438949">
        <ele>24.651</ele>
        <time>2013-05-03T14:45:59Z</time>
      </trkpt>
      <trkpt lat="59.933865" lon="17.6438282">
        <ele>24.1703</ele>
        <time>2013-05-03T14:46:00Z</time>
      </trkpt>
      <trkpt lat="59.9337989" lon="17.6437684">
        <ele>24.1703</ele>
        <time>2013-05-03T14:46:01Z</time>
      </trkpt>
      <trkpt lat="59.9337323" lon="17.6437103">
        <ele>23.6896</ele>
        <time>2013-05-03T14:46:02Z</time>
      </trkpt>
      <trkpt lat="59.9336668" lon="17.6436499">
        <ele>23.6896</ele>
        <time>2013-05-03T14:46:03Z</time>
      </trkpt>
      <trkpt lat="59.9336014" lon="17.6435818">
        <ele>23.6896</ele>
        <time>2013-05-03T14:46:04Z</time>
      </trkpt>
      <trkpt lat="59.933538" lon="17.643509">
        <ele>24.1703</ele>
        <time>2013-05-03T14:46:05Z</time>
      </trkpt>
      <trkpt lat="59.9334739" lon="17.6434288">
        <ele>23.6896</ele>
        <time>2013-05-03T14:46:06Z</time>
      </trkpt>
      <trkpt lat="59.9334036" lon="17.6433226">
        <ele>23.6896</ele>
        <time>2013-05-03T14:46:07Z</time>
      </trkpt>
      <trkpt lat="59.9333383" lon="17.6432172">
        <ele>23.209</ele>
        <time>2013-05-03T14:46:08Z</time>
      </trkpt>
      <trkpt lat="59.9332672" lon="17.6431135">
        <ele>22.2476</ele>
        <time>2013-05-03T14:46:09Z</time>
      </trkpt>
      <trkpt lat="59.9331971" lon="17.643005">
        <ele>21.767</ele>
        <time>2013-05-03T14:46:10Z</time>
      </trkpt>
      <trkpt lat="59.9331259" lon="17.6428946">
        <ele>21.2864</ele>
        <time>2013-05-03T14:46:11Z</time>
      </trkpt>
      <trkpt lat="59.9330538" lon="17.6427939">
        <ele>20.8057</ele>
        <time>2013-05-03T14:46:12Z</time>
      </trkpt>
      <trkpt lat="59.9329812" lon="17.6427002">
        <ele>20.325</ele>
        <time>2013-05-03T14:46:13Z</time>
      </trkpt>
      <trkpt lat="59.9329082" lon="17.6426091">
        <ele>19.8444</ele>
        <time>2013-05-03T14:46:14Z</time>
      </trkpt>
      <trkpt lat="59.9328395" lon="17.6425091">
        <ele>19.3638</ele>
        <time>2013-05-03T14:46:15Z</time>
      </trkpt>
      <trkpt lat="59.9327798" lon="17.6424028">
        <ele>18.8831</ele>
        <time>2013-05-03T14:46:16Z</time>
      </trkpt>
      <trkpt lat="59.9327202" lon="17.6422946">
        <ele>18.8831</ele>
        <time>2013-05-03T14:46:17Z</time>
      </trkpt>
      <trkpt lat="59.9326543" lon="17.6421948">
        <ele>18.8831</ele>
        <time>2013-05-03T14:46:18Z</time>
      </trkpt>
      <trkpt lat="59.932587" lon="17.6421081">
        <ele>18.8831</ele>
        <time>2013-05-03T14:46:19Z</time>
      </trkpt>
      <trkpt lat="59.9325158" lon="17.6420342">
        <ele>18.4023</ele>
        <time>2013-05-03T14:46:20Z</time>
      </trkpt>
      <trkpt lat="59.9324452" lon="17.6419665">
        <ele>17.9218</ele>
        <time>2013-05-03T14:46:21Z</time>
      </trkpt>
      <trkpt lat="59.9323763" lon="17.6419015">
        <ele>17.9218</ele>
        <time>2013-05-03T14:46:22Z</time>
      </trkpt>
      <trkpt lat="59.9323087" lon="17.6418384">
        <ele>17.9218</ele>
        <time>2013-05-03T14:46:23Z</time>
      </trkpt>
      <trkpt lat="59.9322421" lon="17.6417807">
        <ele>17.9218</ele>
        <time>2013-05-03T14:46:24Z</time>
      </trkpt>
      <trkpt lat="59.9321779" lon="17.6417234">
        <ele>17.9218</ele>
        <time>2013-05-03T14:46:25Z</time>
      </trkpt>
      <trkpt lat="59.9321161" lon="17.641664">
        <ele>17.9218</ele>
        <time>2013-05-03T14:46:26Z</time>
      </trkpt>
      <trkpt lat="59.9320566" lon="17.6416088">
        <ele>18.4023</ele>
        <time>2013-05-03T14:46:27Z</time>
      </trkpt>
      <trkpt lat="59.9319983" lon="17.6415601">
        <ele>18.4023</ele>
        <time>2013-05-03T14:46:28Z</time>
      </trkpt>
      <trkpt lat="59.9319396" lon="17.641515">
        <ele>17.9218</ele>
        <time>2013-05-03T14:46:29Z</time>
      </trkpt>
      <trkpt lat="59.9318774" lon="17.641472">
        <ele>17.9218</ele>
        <time>2013-05-03T14:46:30Z</time>
      </trkpt>
      <trkpt lat="59.9318118" lon="17.6414306">
        <ele>17.9218</ele>
        <time>2013-05-03T14:46:31Z</time>
      </trkpt>
      <trkpt lat="59.9317454" lon="17.6413875">
        <ele>17.4412</ele>
        <time>2013-05-03T14:46:32Z</time>
      </trkpt>
      <trkpt lat="59.9316794" lon="17.6413401">
        <ele>17.4412</ele>
        <time>2013-05-03T14:46:33Z</time>
      </trkpt>
      <trkpt lat="59.9316138" lon="17.6412924">
        <ele>17.4412</ele>
        <time>2013-05-03T14:46:34Z</time>
      </trkpt>
      <trkpt lat="59.9315493" lon="17.6412463">
        <ele>17.4412</ele>
        <time>2013-05-03T14:46:35Z</time>
      </trkpt>
      <trkpt lat="59.9314858" lon="17.6412008">
        <ele>17.4412</ele>
        <time>2013-05-03T14:46:36Z</time>
      </trkpt>
      <trkpt lat="59.9314248" lon="17.6411555">
        <ele>17.4412</ele>
        <time>2013-05-03T14:46:37Z</time>
      </trkpt>
      <trkpt lat="59.931365" lon="17.6411095">
        <ele>17.4412</ele>
        <time>2013-05-03T14:46:38Z</time>
      </trkpt>
      <trkpt lat="59.9313035" lon="17.6410628">
        <ele>16.9604</ele>
        <time>2013-05-03T14:46:39Z</time>
      </trkpt>
      <trkpt lat="59.9312387" lon="17.6410153">
        <ele>16.9604</ele>
        <time>2013-05-03T14:46:40Z</time>
      </trkpt>
      <trkpt lat="59.9311697" lon="17.6409666">
        <ele>16.4797</ele>
        <time>2013-05-03T14:46:41Z</time>
      </trkpt>
      <trkpt lat="59.9310979" lon="17.6409158">
        <ele>15.999</ele>
        <time>2013-05-03T14:46:42Z</time>
      </trkpt>
      <trkpt lat="59.9310242" lon="17.640865">
        <ele>15.5184</ele>
        <time>2013-05-03T14:46:43Z</time>
      </trkpt>
      <trkpt lat="59.9309493" lon="17.640821">
        <ele>15.0377</ele>
        <time>2013-05-03T14:46:44Z</time>
      </trkpt>
      <trkpt lat="59.9308757" lon="17.6407898">
        <ele>15.0377</ele>
        <time>2013-05-03T14:46:45Z</time>
      </trkpt>
      <trkpt lat="59.9308034" lon="17.6407725">
        <ele>15.0377</ele>
        <time>2013-05-03T14:46:46Z</time>
      </trkpt>
      <trkpt lat="59.9307335" lon="17.6407682">
        <ele>15.0377</ele>
        <time>2013-05-03T14:46:47Z</time>
      </trkpt>
      <trkpt lat="59.9306662" lon="17.6407744">
        <ele>15.0377</ele>
        <time>2013-05-03T14:46:48Z</time>
      </trkpt>
      <trkpt lat="59.930599" lon="17.640787">
        <ele>14.557</ele>
        <time>2013-05-03T14:46:49Z</time>
      </trkpt>
      <trkpt lat="59.9305296" lon="17.6407997">
        <ele>14.557</ele>
        <time>2013-05-03T14:46:50Z</time>
      </trkpt>
      <trkpt lat="59.9304591" lon="17.6408085">
        <ele>14.0764</ele>
        <time>2013-05-03T14:46:51Z</time>
      </trkpt>
      <trkpt lat="59.9303877" lon="17.6408108">
        <ele>14.0764</ele>
        <time>2013-05-03T14:46:52Z</time>
      </trkpt>
      <trkpt lat="59.9303157" lon="17.6408081">
        <ele>13.5958</ele>
        <time>2013-05-03T14:46:53Z</time>
      </trkpt>
      <trkpt lat="59.9302431" lon="17.6408032">
        <ele>13.5958</ele>
        <time>2013-05-03T14:46:54Z</time>
      </trkpt>
      <trkpt lat="59.9301706" lon="17.6408002">
        <ele>13.5958</ele>
        <time>2013-05-03T14:46:55Z</time>
      </trkpt>
      <trkpt lat="59.9300994" lon="17.6407992">
        <ele>13.5958</ele>
        <time>2013-05-03T14:46:56Z</time>
      </trkpt>
      <trkpt lat="59.9300292" lon="17.6407992">
        <ele>13.5958</ele>
        <time>2013-05-03T14:46:57Z</time>
      </trkpt>
      <trkpt lat="59.9299608" lon="17.6407991">
        <ele>13.5958</ele>
        <time>2013-05-03T14:46:58Z</time>
      </trkpt>
      <trkpt lat="59.9298944" lon="17.6407987">
        <ele>13.5958</ele>
        <time>2013-05-03T14:46:59Z</time>
      </trkpt>
      <trkpt lat="59.9298293" lon="17.6408001">
        <ele>13.5958</ele>
        <time>2013-05-03T14:47:00Z</time>
      </trkpt>
      <trkpt lat="59.9297691" lon="17.6408063">
        <ele>13.5958</ele>
        <time>2013-05-03T14:47:01Z</time>
      </trkpt>
      <trkpt lat="59.9297096" lon="17.6408175">
        <ele>13.5958</ele>
        <time>2013-05-03T14:47:02Z</time>
      </trkpt>
      <trkpt lat="59.9296488" lon="17.6408314">
        <ele>13.5958</ele>
        <time>2013-05-03T14:47:03Z</time>
      </trkpt>
      <trkpt lat="59.9295883" lon="17.6408475">
        <ele>13.5958</ele>
        <time>2013-05-03T14:47:04Z</time>
      </trkpt>
      <trkpt lat="59.9295267" lon="17.6408616">
        <ele>13.1151</ele>
        <time>2013-05-03T14:47:05Z</time>
      </trkpt>
      <trkpt lat="59.9294646" lon="17.6408765">
        <ele>13.1151</ele>
        <time>2013-05-03T14:47:06Z</time>
      </trkpt>
      <trkpt lat="59.9294008" lon="17.6408884">
        <ele>13.1151</ele>
        <time>2013-05-03T14:47:07Z</time>
      </trkpt>
      <trkpt lat="59.9293371" lon="17.6408959">
        <ele>13.1151</ele>
        <time>2013-05-03T14:47:08Z</time>
      </trkpt>
      <trkpt lat="59.9292729" lon="17.6408996">
        <ele>13.1151</ele>
        <time>2013-05-03T14:47:09Z</time>
      </trkpt>
      <trkpt lat="59.9292071" lon="17.6409019">
        <ele>13.5958</ele>
        <time>2013-05-03T14:47:10Z</time>
      </trkpt>
      <trkpt lat="59.9291432" lon="17.6409017">
        <ele>13.5958</ele>
        <time>2013-05-03T14:47:11Z</time>
      </trkpt>
      <trkpt lat="59.9290792" lon="17.6409013">
        <ele>13.5958</ele>
        <time>2013-05-03T14:47:12Z</time>
      </trkpt>
      <trkpt lat="59.9290164" lon="17.6409044">
        <ele>13.5958</ele>
        <time>2013-05-03T14:47:13Z</time>
      </trkpt>
      <trkpt lat="59.9289537" lon="17.6409115">
        <ele>13.5958</ele>
        <time>2013-05-03T14:47:14Z</time>
      </trkpt>
      <trkpt lat="59.9288915" lon="17.640921">
        <ele>13.5958</ele>
        <time>2013-05-03T14:47:15Z</time>
      </trkpt>
      <trkpt lat="59.9288279" lon="17.6409328">
        <ele>14.0764</ele>
        <time>2013-05-03T14:47:16Z</time>
      </trkpt>
      <trkpt lat="59.9287647" lon="17.6409469">
        <ele>14.0764</ele>
        <time>2013-05-03T14:47:17Z</time>
      </trkpt>
      <trkpt lat="59.9287021" lon="17.6409617">
        <ele>14.0764</ele>
        <time>2013-05-03T14:47:18Z</time>
      </trkpt>
      <trkpt lat="59.9286405" lon="17.6409753">
        <ele>14.0764</ele>
        <time>2013-05-03T14:47:19Z</time>
      </trkpt>
      <trkpt lat="59.9285788" lon="17.6409866">
        <ele>14.557</ele>
        <time>2013-05-03T14:47:20Z</time>
      </trkpt>
      <trkpt lat="59.928517" lon="17.6409972">
        <ele>14.557</ele>
        <time>2013-05-03T14:47:21Z</time>
      </trkpt>
      <trkpt lat="59.9284544" lon="17.6410061">
        <ele>14.557</ele>
        <time>2013-05-03T14:47:22Z</time>
      </trkpt>
      <trkpt lat="59.9283912" lon="17.6410143">
        <ele>14.557</ele>
        <time>2013-05-03T14:47:23Z</time>
      </trkpt>
      <trkpt lat="59.928327" lon="17.6410226">
        <ele>14.557</ele>
        <time>2013-05-03T14:47:24Z</time>
      </trkpt>
      <trkpt lat="59.9282619" lon="17.6410314">
        <ele>14.557</ele>
        <time>2013-05-03T14:47:25Z</time>
      </trkpt>
      <trkpt lat="59.9281969" lon="17.6410407">
        <ele>14.557</ele>
        <time>2013-05-03T14:47:26Z</time>
      </trkpt>
      <trkpt lat="59.9281322" lon="17.6410501">
        <ele>14.557</ele>
        <time>2013-05-03T14:47:27Z</time>
      </trkpt>
      <trkpt lat="59.9280674" lon="17.6410593">
        <ele>14.557</ele>
        <time>2013-05-03T14:47:28Z</time>
      </trkpt>
      <trkpt lat="59.9280026" lon="17.6410682">
        <ele>14.557</ele>
        <time>2013-05-03T14:47:29Z</time>
      </trkpt>
      <trkpt lat="59.927938" lon="17.6410762">
        <ele>14.557</ele>
        <time>2013-05-03T14:47:30Z</time>
      </trkpt>
      <trkpt lat="59.9278739" lon="17.6410824">
        <ele>14.557</ele>
        <time>2013-05-03T14:47:31Z</time>
      </trkpt>
      <trkpt lat="59.9278107" lon="17.6410883">
        <ele>14.557</ele>
        <time>2013-05-03T14:47:32Z</time>
      </trkpt>
      <trkpt lat="59.9277484" lon="17.6410944">
        <ele>14.557</ele>
        <time>2013-05-03T14:47:33Z</time>
      </trkpt>
      <trkpt lat="59.9276867" lon="17.6410993">
        <ele>14.557</ele>
        <time>2013-05-03T14:47:34Z</time>
      </trkpt>
      <trkpt lat="59.9276252" lon="17.6411029">
        <ele>14.557</ele>
        <time>2013-05-03T14:47:35Z</time>
      </trkpt>
      <trkpt lat="59.9275639" lon="17.6411078">
        <ele>14.557</ele>
        <time>2013-05-03T14:47:36Z</time>
      </trkpt>
      <trkpt lat="59.9275024" lon="17.6411142">
        <ele>15.0377</ele>
        <time>2013-05-03T14:47:37Z</time>
      </trkpt>
      <trkpt lat="59.9274415" lon="17.6411203">
        <ele>15.0377</ele>
        <time>2013-05-03T14:47:38Z</time>
      </trkpt>
      <trkpt lat="59.9273805" lon="17.6411246">
        <ele>15.0377</ele>
        <time>2013-05-03T14:47:39Z</time>
      </trkpt>
      <trkpt lat="59.9273195" lon="17.6411296">
        <ele>15.0377</ele>
        <time>2013-05-03T14:47:40Z</time>
      </trkpt>
      <trkpt lat="59.9272585" lon="17.6411356">
        <ele>15.0377</ele>
        <time>2013-05-03T14:47:41Z</time>
      </trkpt>
      <trkpt lat="59.9271973" lon="17.6411402">
        <ele>15.0377</ele>
        <time>2013-05-03T14:47:42Z</time>
      </trkpt>
      <trkpt lat="59.9271356" lon="17.6411425">
        <ele>15.0377</ele>
        <time>2013-05-03T14:47:43Z</time>
      </trkpt>
      <trkpt lat="59.9270738" lon="17.6411458">
        <ele>15.0377</ele>
        <time>2013-05-03T14:47:44Z</time>
      </trkpt>
      <trkpt lat="59.9270121" lon="17.6411504">
        <ele>15.0377</ele>
        <time>2013-05-03T14:47:45Z</time>
      </trkpt>
      <trkpt lat="59.926951" lon="17.6411566">
        <ele>15.0377</ele>
        <time>2013-05-03T14:47:46Z</time>
      </trkpt>
      <trkpt lat="59.9268909" lon="17.6411638">
        <ele>15.0377</ele>
        <time>2013-05-03T14:47:47Z</time>
      </trkpt>
      <trkpt lat="59.9268318" lon="17.6411706">
        <ele>15.0377</ele>
        <time>2013-05-03T14:47:48Z</time>
      </trkpt>
      <trkpt lat="59.9267733" lon="17.6411774">
        <ele>15.0377</ele>
        <time>2013-05-03T14:47:49Z</time>
      </trkpt>
      <trkpt lat="59.9267151" lon="17.6411831">
        <ele>15.0377</ele>
        <time>2013-05-03T14:47:50Z</time>
      </trkpt>
      <trkpt lat="59.926657" lon="17.6411883">
        <ele>15.0377</ele>
        <time>2013-05-03T14:47:51Z</time>
      </trkpt>
      <trkpt lat="59.9265988" lon="17.6411954">
        <ele>15.0377</ele>
        <time>2013-05-03T14:47:52Z</time>
      </trkpt>
      <trkpt lat="59.9265402" lon="17.6412032">
        <ele>15.0377</ele>
        <time>2013-05-03T14:47:53Z</time>
      </trkpt>
      <trkpt lat="59.9264813" lon="17.6412107">
        <ele>15.0377</ele>
        <time>2013-05-03T14:47:54Z</time>
      </trkpt>
      <trkpt lat="59.9264228" lon="17.6412179">
        <ele>15.0377</ele>
        <time>2013-05-03T14:47:55Z</time>
      </trkpt>
      <trkpt lat="59.9263648" lon="17.6412252">
        <ele>15.0377</ele>
        <time>2013-05-03T14:47:56Z</time>
      </trkpt>
      <trkpt lat="59.9263069" lon="17.6412314">
        <ele>15.0377</ele>
        <time>2013-05-03T14:47:57Z</time>
      </trkpt>
      <trkpt lat="59.9262494" lon="17.6412375">
        <ele>15.0377</ele>
        <time>2013-05-03T14:47:58Z</time>
      </trkpt>
      <trkpt lat="59.9261921" lon="17.6412451">
        <ele>15.0377</ele>
        <time>2013-05-03T14:47:59Z</time>
      </trkpt>
      <trkpt lat="59.9261346" lon="17.641253">
        <ele>15.5184</ele>
        <time>2013-05-03T14:48:00Z</time>
      </trkpt>
      <trkpt lat="59.9260769" lon="17.6412602">
        <ele>15.5184</ele>
        <time>2013-05-03T14:48:01Z</time>
      </trkpt>
      <trkpt lat="59.9260198" lon="17.6412676">
        <ele>15.5184</ele>
        <time>2013-05-03T14:48:02Z</time>
      </trkpt>
      <trkpt lat="59.9259631" lon="17.6412754">
        <ele>15.5184</ele>
        <time>2013-05-03T14:48:03Z</time>
      </trkpt>
      <trkpt lat="59.9259072" lon="17.6412836">
        <ele>15.5184</ele>
        <time>2013-05-03T14:48:04Z</time>
      </trkpt>
      <trkpt lat="59.9258518" lon="17.6412918">
        <ele>15.5184</ele>
        <time>2013-05-03T14:48:05Z</time>
      </trkpt>
      <trkpt lat="59.9257969" lon="17.6412991">
        <ele>15.999</ele>
        <time>2013-05-03T14:48:06Z</time>
      </trkpt>
      <trkpt lat="59.9257428" lon="17.6413049">
        <ele>15.999</ele>
        <time>2013-05-03T14:48:07Z</time>
      </trkpt>
      <trkpt lat="59.9256898" lon="17.6413093">
        <ele>15.999</ele>
        <time>2013-05-03T14:48:08Z</time>
      </trkpt>
      <trkpt lat="59.9256374" lon="17.6413153">
        <ele>15.999</ele>
        <time>2013-05-03T14:48:09Z</time>
      </trkpt>
      <trkpt lat="59.9255853" lon="17.6413245">
        <ele>15.999</ele>
        <time>2013-05-03T14:48:10Z</time>
      </trkpt>
      <trkpt lat="59.9255332" lon="17.6413312">
        <ele>15.999</ele>
        <time>2013-05-03T14:48:11Z</time>
      </trkpt>
      <trkpt lat="59.9254811" lon="17.6413368">
        <ele>15.999</ele>
        <time>2013-05-03T14:48:12Z</time>
      </trkpt>
      <trkpt lat="59.9254292" lon="17.6413435">
        <ele>16.4797</ele>
        <time>2013-05-03T14:48:13Z</time>
      </trkpt>
      <trkpt lat="59.9253776" lon="17.6413494">
        <ele>16.4797</ele>
        <time>2013-05-03T14:48:14Z</time>
      </trkpt>
      <trkpt lat="59.9253265" lon="17.641353">
        <ele>16.4797</ele>
        <time>2013-05-03T14:48:15Z</time>
      </trkpt>
      <trkpt lat="59.9252755" lon="17.6413546">
        <ele>16.4797</ele>
        <time>2013-05-03T14:48:16Z</time>
      </trkpt>
      <trkpt lat="59.9252242" lon="17.6413556">
        <ele>16.4797</ele>
        <time>2013-05-03T14:48:17Z</time>
      </trkpt>
      <trkpt lat="59.9251723" lon="17.6413561">
        <ele>16.4797</ele>
        <time>2013-05-03T14:48:18Z</time>
      </trkpt>
      <trkpt lat="59.9251206" lon="17.6413556">
        <ele>16.4797</ele>
        <time>2013-05-03T14:48:19Z</time>
      </trkpt>
      <trkpt lat="59.9250693" lon="17.6413552">
        <ele>16.4797</ele>
        <time>2013-05-03T14:48:20Z</time>
      </trkpt>
      <trkpt lat="59.9250185" lon="17.6413562">
        <ele>16.9604</ele>
        <time>2013-05-03T14:48:21Z</time>
      </trkpt>
      <trkpt lat="59.9249687" lon="17.6413586">
        <ele>16.9604</ele>
        <time>2013-05-03T14:48:22Z</time>
      </trkpt>
      <trkpt lat="59.9249189" lon="17.6413624">
        <ele>16.9604</ele>
        <time>2013-05-03T14:48:23Z</time>
      </trkpt>
      <trkpt lat="59.9248686" lon="17.641367">
        <ele>16.9604</ele>
        <time>2013-05-03T14:48:24Z</time>
      </trkpt>
      <trkpt lat="59.9248185" lon="17.6413727">
        <ele>16.9604</ele>
        <time>2013-05-03T14:48:25Z</time>
      </trkpt>
      <trkpt lat="59.9247691" lon="17.6413821">
        <ele>16.9604</ele>
        <time>2013-05-03T14:48:26Z</time>
      </trkpt>
      <trkpt lat="59.9247197" lon="17.6413935">
        <ele>16.9604</ele>
        <time>2013-05-03T14:48:27Z</time>
      </trkpt>
      <trkpt lat="59.9246704" lon="17.641406">
        <ele>16.9604</ele>
        <time>2013-05-03T14:48:28Z</time>
      </trkpt>
      <trkpt lat="59.9246211" lon="17.6414193">
        <ele>16.9604</ele>
        <time>2013-05-03T14:48:29Z</time>
      </trkpt>
      <trkpt lat="59.9245714" lon="17.6414318">
        <ele>16.9604</ele>
        <time>2013-05-03T14:48:30Z</time>
      </trkpt>
      <trkpt lat="59.9245216" lon="17.6414417">
        <ele>16.9604</ele>
        <time>2013-05-03T14:48:31Z</time>
      </trkpt>
      <trkpt lat="59.9244713" lon="17.6414495">
        <ele>16.9604</ele>
        <time>2013-05-03T14:48:32Z</time>
      </trkpt>
      <trkpt lat="59.9244202" lon="17.6414568">
        <ele>16.9604</ele>
        <time>2013-05-03T14:48:33Z</time>
      </trkpt>
      <trkpt lat="59.9243687" lon="17.6414624">
        <ele>16.9604</ele>
        <time>2013-05-03T14:48:34Z</time>
      </trkpt>
      <trkpt lat="59.9243161" lon="17.6414681">
        <ele>16.9604</ele>
        <time>2013-05-03T14:48:35Z</time>
      </trkpt>
      <trkpt lat="59.924263" lon="17.6414701">
        <ele>16.9604</ele>
        <time>2013-05-03T14:48:36Z</time>
      </trkpt>
      <trkpt lat="59.9242092" lon="17.641471">
        <ele>16.9604</ele>
        <time>2013-05-03T14:48:37Z</time>
      </trkpt>
      <trkpt lat="59.9241539" lon="17.6414727">
        <ele>16.9604</ele>
        <time>2013-05-03T14:48:38Z</time>
      </trkpt>
      <trkpt lat="59.9240975" lon="17.6414758">
        <ele>16.9604</ele>
        <time>2013-05-03T14:48:39Z</time>
      </trkpt>
      <trkpt lat="59.92404" lon="17.6414803">
        <ele>17.4412</ele>
        <time>2013-05-03T14:48:40Z</time>
      </trkpt>
      <trkpt lat="59.9239825" lon="17.6414872">
        <ele>17.4412</ele>
        <time>2013-05-03T14:48:41Z</time>
      </trkpt>
      <trkpt lat="59.9239244" lon="17.6414965">
        <ele>17.4412</ele>
        <time>2013-05-03T14:48:42Z</time>
      </trkpt>
      <trkpt lat="59.9238663" lon="17.6415042">
        <ele>17.4412</ele>
        <time>2013-05-03T14:48:43Z</time>
      </trkpt>
      <trkpt lat="59.9238089" lon="17.6415095">
        <ele>17.4412</ele>
        <time>2013-05-03T14:48:44Z</time>
      </trkpt>
      <trkpt lat="59.9237525" lon="17.6415239">
        <ele>17.9218</ele>
        <time>2013-05-03T14:48:45Z</time>
      </trkpt>
      <trkpt lat="59.923698" lon="17.6415359">
        <ele>18.4023</ele>
        <time>2013-05-03T14:48:46Z</time>
      </trkpt>
      <trkpt lat="59.9236447" lon="17.6415481">
        <ele>18.4023</ele>
        <time>2013-05-03T14:48:47Z</time>
      </trkpt>
      <trkpt lat="59.9235899" lon="17.6415566">
        <ele>18.8831</ele>
        <time>2013-05-03T14:48:48Z</time>
      </trkpt>
      <trkpt lat="59.9235344" lon="17.6415628">
        <ele>18.8831</ele>
        <time>2013-05-03T14:48:49Z</time>
      </trkpt>
      <trkpt lat="59.9234788" lon="17.6415675">
        <ele>18.8831</ele>
        <time>2013-05-03T14:48:50Z</time>
      </trkpt>
      <trkpt lat="59.9234245" lon="17.6415753">
        <ele>18.8831</ele>
        <time>2013-05-03T14:48:51Z</time>
      </trkpt>
      <trkpt lat="59.9233706" lon="17.6415852">
        <ele>18.8831</ele>
        <time>2013-05-03T14:48:52Z</time>
      </trkpt>
      <trkpt lat="59.9233166" lon="17.6415944">
        <ele>18.8831</ele>
        <time>2013-05-03T14:48:53Z</time>
      </trkpt>
      <trkpt lat="59.9232624" lon="17.6416022">
        <ele>18.8831</ele>
        <time>2013-05-03T14:48:54Z</time>
      </trkpt>
      <trkpt lat="59.9232087" lon="17.6416096">
        <ele>18.8831</ele>
        <time>2013-05-03T14:48:55Z</time>
      </trkpt>
      <trkpt lat="59.9231532" lon="17.6416163">
        <ele>18.8831</ele>
        <time>2013-05-03T14:48:56Z</time>
      </trkpt>
      <trkpt lat="59.9230967" lon="17.6416235">
        <ele>18.8831</ele>
        <time>2013-05-03T14:48:57Z</time>
      </trkpt>
      <trkpt lat="59.9230407" lon="17.6416307">
        <ele>18.8831</ele>
        <time>2013-05-03T14:48:58Z</time>
      </trkpt>
      <trkpt lat="59.9229838" lon="17.6416346">
        <ele>18.8831</ele>
        <time>2013-05-03T14:48:59Z</time>
      </trkpt>
      <trkpt lat="59.922926" lon="17.6416365">
        <ele>18.8831</ele>
        <time>2013-05-03T14:49:00Z</time>
      </trkpt>
      <trkpt lat="59.9228699" lon="17.6416403">
        <ele>19.3638</ele>
        <time>2013-05-03T14:49:01Z</time>
      </trkpt>
      <trkpt lat="59.9228136" lon="17.6416436">
        <ele>19.3638</ele>
        <time>2013-05-03T14:49:02Z</time>
      </trkpt>
      <trkpt lat="59.9227575" lon="17.6416465">
        <ele>19.3638</ele>
        <time>2013-05-03T14:49:03Z</time>
      </trkpt>
      <trkpt lat="59.9227019" lon="17.6416505">
        <ele>19.3638</ele>
        <time>2013-05-03T14:49:04Z</time>
      </trkpt>
      <trkpt lat="59.9226465" lon="17.6416526">
        <ele>19.8444</ele>
        <time>2013-05-03T14:49:05Z</time>
      </trkpt>
      <trkpt lat="59.9225911" lon="17.6416597">
        <ele>19.8444</ele>
        <time>2013-05-03T14:49:06Z</time>
      </trkpt>
      <trkpt lat="59.9225357" lon="17.6416695">
        <ele>19.8444</ele>
        <time>2013-05-03T14:49:07Z</time>
      </trkpt>
      <trkpt lat="59.9224802" lon="17.6416777">
        <ele>20.325</ele>
        <time>2013-05-03T14:49:08Z</time>
      </trkpt>
      <trkpt lat="59.9224247" lon="17.6416829">
        <ele>20.325</ele>
        <time>2013-05-03T14:49:09Z</time>
      </trkpt>
      <trkpt lat="59.9223695" lon="17.6416862">
        <ele>20.8057</ele>
        <time>2013-05-03T14:49:10Z</time>
      </trkpt>
      <trkpt lat="59.9223151" lon="17.6416939">
        <ele>21.2864</ele>
        <time>2013-05-03T14:49:11Z</time>
      </trkpt>
      <trkpt lat="59.92226" lon="17.6417016">
        <ele>21.2864</ele>
        <time>2013-05-03T14:49:12Z</time>
      </trkpt>
      <trkpt lat="59.9222062" lon="17.6417032">
        <ele>21.767</ele>
        <time>2013-05-03T14:49:13Z</time>
      </trkpt>
      <trkpt lat="59.9221523" lon="17.6417084">
        <ele>21.767</ele>
        <time>2013-05-03T14:49:14Z</time>
      </trkpt>
      <trkpt lat="59.9220981" lon="17.6417152">
        <ele>22.2476</ele>
        <time>2013-05-03T14:49:15Z</time>
      </trkpt>
      <trkpt lat="59.9220441" lon="17.6417255">
        <ele>22.7283</ele>
        <time>2013-05-03T14:49:16Z</time>
      </trkpt>
      <trkpt lat="59.921988" lon="17.6417351">
        <ele>22.7283</ele>
        <time>2013-05-03T14:49:17Z</time>
      </trkpt>
      <trkpt lat="59.9219323" lon="17.6417451">
        <ele>22.7283</ele>
        <time>2013-05-03T14:49:18Z</time>
      </trkpt>
      <trkpt lat="59.921875" lon="17.6417505">
        <ele>23.209</ele>
        <time>2013-05-03T14:49:19Z</time>
      </trkpt>
      <trkpt lat="59.9218175" lon="17.6417628">
        <ele>23.209</ele>
        <time>2013-05-03T14:49:20Z</time>
      </trkpt>
      <trkpt lat="59.9217593" lon="17.6417778">
        <ele>22.7283</ele>
        <time>2013-05-03T14:49:21Z</time>
      </trkpt>
      <trkpt lat="59.9216959" lon="17.6418011">
        <ele>22.2476</ele>
        <time>2013-05-03T14:49:22Z</time>
      </trkpt>
      <trkpt lat="59.921635" lon="17.6418155">
        <ele>21.2864</ele>
        <time>2013-05-03T14:49:23Z</time>
      </trkpt>
      <trkpt lat="59.9215727" lon="17.6418317">
        <ele>20.8057</ele>
        <time>2013-05-03T14:49:24Z</time>
      </trkpt>
      <trkpt lat="59.9215121" lon="17.6418451">
        <ele>20.325</ele>
        <time>2013-05-03T14:49:25Z</time>
      </trkpt>
      <trkpt lat="59.9214508" lon="17.6418567">
        <ele>20.325</ele>
        <time>2013-05-03T14:49:26Z</time>
      </trkpt>
      <trkpt lat="59.921395" lon="17.6418736">
        <ele>20.325</ele>
        <time>2013-05-03T14:49:27Z</time>
      </trkpt>
      <trkpt lat="59.9213357" lon="17.6418794">
        <ele>20.325</ele>
        <time>2013-05-03T14:49:28Z</time>
      </trkpt>
      <trkpt lat="59.9212722" lon="17.6418825">
        <ele>19.3638</ele>
        <time>2013-05-03T14:49:29Z</time>
      </trkpt>
      <trkpt lat="59.921206" lon="17.6418871">
        <ele>18.8831</ele>
        <time>2013-05-03T14:49:30Z</time>
      </trkpt>
      <trkpt lat="59.921138" lon="17.6418913">
        <ele>18.4023</ele>
        <time>2013-05-03T14:49:31Z</time>
      </trkpt>
      <trkpt lat="59.9210686" lon="17.6418969">
        <ele>17.9218</ele>
        <time>2013-05-03T14:49:32Z</time>
      </trkpt>
      <trkpt lat="59.9209988" lon="17.6419002">
        <ele>17.4412</ele>
        <time>2013-05-03T14:49:33Z</time>
      </trkpt>
      <trkpt lat="59.9209294" lon="17.6419006">
        <ele>17.4412</ele>
        <time>2013-05-03T14:49:34Z</time>
      </trkpt>
      <trkpt lat="59.9208599" lon="17.6418939">
        <ele>17.4412</ele>
        <time>2013-05-03T14:49:35Z</time>
      </trkpt>
      <trkpt lat="59.9207895" lon="17.6418808">
        <ele>16.9604</ele>
        <time>2013-05-03T14:49:36Z</time>
      </trkpt>
      <trkpt lat="59.9207189" lon="17.6418716">
        <ele>16.4797</ele>
        <time>2013-05-03T14:49:37Z</time>
      </trkpt>
      <trkpt lat="59.9206468" lon="17.6418651">
        <ele>15.999</ele>
        <time>2013-05-03T14:49:38Z</time>
      </trkpt>
      <trkpt lat="59.9205727" lon="17.6418623">
        <ele>15.999</ele>
        <time>2013-05-03T14:49:39Z</time>
      </trkpt>
      <trkpt lat="59.9204979" lon="17.6418612">
        <ele>15.5184</ele>
        <time>2013-05-03T14:49:40Z</time>
      </trkpt>
      <trkpt lat="59.9204237" lon="17.6418618">
        <ele>15.999</ele>
        <time>2013-05-03T14:49:41Z</time>
      </trkpt>
      <trkpt lat="59.9203507" lon="17.6418629">
        <ele>15.999</ele>
        <time>2013-05-03T14:49:42Z</time>
      </trkpt>
      <trkpt lat="59.920278" lon="17.6418665">
        <ele>15.999</ele>
        <time>2013-05-03T14:49:43Z</time>
      </trkpt>
      <trkpt lat="59.9202062" lon="17.6418719">
        <ele>15.999</ele>
        <time>2013-05-03T14:49:44Z</time>
      </trkpt>
      <trkpt lat="59.9201355" lon="17.6418763">
        <ele>15.999</ele>
        <time>2013-05-03T14:49:45Z</time>
      </trkpt>
      <trkpt lat="59.9200645" lon="17.6418822">
        <ele>15.999</ele>
        <time>2013-05-03T14:49:46Z</time>
      </trkpt>
      <trkpt lat="59.9199921" lon="17.6418895">
        <ele>15.999</ele>
        <time>2013-05-03T14:49:47Z</time>
      </trkpt>
      <trkpt lat="59.9199195" lon="17.6419006">
        <ele>15.999</ele>
        <time>2013-05-03T14:49:48Z</time>
      </trkpt>
      <trkpt lat="59.9198482" lon="17.6419172">
        <ele>15.5184</ele>
        <time>2013-05-03T14:49:49Z</time>
      </trkpt>
      <trkpt lat="59.9197787" lon="17.6419392">
        <ele>15.999</ele>
        <time>2013-05-03T14:49:50Z</time>
      </trkpt>
      <trkpt lat="59.9197099" lon="17.6419608">
        <ele>15.999</ele>
        <time>2013-05-03T14:49:51Z</time>
      </trkpt>
      <trkpt lat="59.9196425" lon="17.6419782">
        <ele>15.999</ele>
        <time>2013-05-03T14:49:52Z</time>
      </trkpt>
      <trkpt lat="59.9195763" lon="17.6419898">
        <ele>15.999</ele>
        <time>2013-05-03T14:49:53Z</time>
      </trkpt>
      <trkpt lat="59.9195108" lon="17.6419984">
        <ele>15.999</ele>
        <time>2013-05-03T14:49:54Z</time>
      </trkpt>
      <trkpt lat="59.9194457" lon="17.6420053">
        <ele>15.999</ele>
        <time>2013-05-03T14:49:55Z</time>
      </trkpt>
      <trkpt lat="59.919381" lon="17.6420109">
        <ele>15.999</ele>
        <time>2013-05-03T14:49:56Z</time>
      </trkpt>
      <trkpt lat="59.9193171" lon="17.6420162">
        <ele>15.999</ele>
        <time>2013-05-03T14:49:57Z</time>
      </trkpt>
      <trkpt lat="59.9192536" lon="17.6420234">
        <ele>15.999</ele>
        <time>2013-05-03T14:49:58Z</time>
      </trkpt>
      <trkpt lat="59.9191909" lon="17.6420317">
        <ele>15.999</ele>
        <time>2013-05-03T14:49:59Z</time>
      </trkpt>
      <trkpt lat="59.9191292" lon="17.6420402">
        <ele>15.999</ele>
        <time>2013-05-03T14:50:00Z</time>
      </trkpt>
      <trkpt lat="59.9190681" lon="17.6420485">
        <ele>15.999</ele>
        <time>2013-05-03T14:50:01Z</time>
      </trkpt>
      <trkpt lat="59.919007" lon="17.6420585">
        <ele>15.999</ele>
        <time>2013-05-03T14:50:02Z</time>
      </trkpt>
      <trkpt lat="59.9189459" lon="17.6420674">
        <ele>15.999</ele>
        <time>2013-05-03T14:50:03Z</time>
      </trkpt>
      <trkpt lat="59.9188842" lon="17.6420763">
        <ele>15.999</ele>
        <time>2013-05-03T14:50:04Z</time>
      </trkpt>
      <trkpt lat="59.9188226" lon="17.642085">
        <ele>15.999</ele>
        <time>2013-05-03T14:50:05Z</time>
      </trkpt>
      <trkpt lat="59.9187604" lon="17.6420922">
        <ele>15.999</ele>
        <time>2013-05-03T14:50:06Z</time>
      </trkpt>
      <trkpt lat="59.9186977" lon="17.6420985">
        <ele>15.999</ele>
        <time>2013-05-03T14:50:07Z</time>
      </trkpt>
      <trkpt lat="59.9186362" lon="17.6421112">
        <ele>15.999</ele>
        <time>2013-05-03T14:50:08Z</time>
      </trkpt>
      <trkpt lat="59.918575" lon="17.6421238">
        <ele>15.999</ele>
        <time>2013-05-03T14:50:09Z</time>
      </trkpt>
      <trkpt lat="59.9185123" lon="17.6421347">
        <ele>15.999</ele>
        <time>2013-05-03T14:50:10Z</time>
      </trkpt>
      <trkpt lat="59.9184486" lon="17.6421446">
        <ele>15.999</ele>
        <time>2013-05-03T14:50:11Z</time>
      </trkpt>
      <trkpt lat="59.9183842" lon="17.6421533">
        <ele>15.999</ele>
        <time>2013-05-03T14:50:12Z</time>
      </trkpt>
      <trkpt lat="59.918318" lon="17.6421605">
        <ele>15.5184</ele>
        <time>2013-05-03T14:50:13Z</time>
      </trkpt>
      <trkpt lat="59.9182492" lon="17.6421704">
        <ele>15.0377</ele>
        <time>2013-05-03T14:50:14Z</time>
      </trkpt>
      <trkpt lat="59.9181787" lon="17.6421782">
        <ele>15.0377</ele>
        <time>2013-05-03T14:50:15Z</time>
      </trkpt>
      <trkpt lat="59.9181063" lon="17.6421829">
        <ele>14.557</ele>
        <time>2013-05-03T14:50:16Z</time>
      </trkpt>
      <trkpt lat="59.9180315" lon="17.6421876">
        <ele>14.0764</ele>
        <time>2013-05-03T14:50:17Z</time>
      </trkpt>
      <trkpt lat="59.9179545" lon="17.6421953">
        <ele>14.0764</ele>
        <time>2013-05-03T14:50:18Z</time>
      </trkpt>
      <trkpt lat="59.9178783" lon="17.6422005">
        <ele>13.5958</ele>
        <time>2013-05-03T14:50:19Z</time>
      </trkpt>
      <trkpt lat="59.9178031" lon="17.6422031">
        <ele>13.5958</ele>
        <time>2013-05-03T14:50:20Z</time>
      </trkpt>
      <trkpt lat="59.9177278" lon="17.6422057">
        <ele>13.1151</ele>
        <time>2013-05-03T14:50:21Z</time>
      </trkpt>
      <trkpt lat="59.9176524" lon="17.6422073">
        <ele>13.1151</ele>
        <time>2013-05-03T14:50:22Z</time>
      </trkpt>
      <trkpt lat="59.9175769" lon="17.6422067">
        <ele>13.1151</ele>
        <time>2013-05-03T14:50:23Z</time>
      </trkpt>
      <trkpt lat="59.9175022" lon="17.6422053">
        <ele>13.1151</ele>
        <time>2013-05-03T14:50:24Z</time>
      </trkpt>
      <trkpt lat="59.917428" lon="17.6422072">
        <ele>12.6344</ele>
        <time>2013-05-03T14:50:25Z</time>
      </trkpt>
      <trkpt lat="59.9173541" lon="17.6422109">
        <ele>12.6344</ele>
        <time>2013-05-03T14:50:26Z</time>
      </trkpt>
      <trkpt lat="59.9172805" lon="17.6422108">
        <ele>12.6344</ele>
        <time>2013-05-03T14:50:27Z</time>
      </trkpt>
      <trkpt lat="59.9172074" lon="17.6422067">
        <ele>12.6344</ele>
        <time>2013-05-03T14:50:28Z</time>
      </trkpt>
      <trkpt lat="59.9171349" lon="17.6422093">
        <ele>12.6344</ele>
        <time>2013-05-03T14:50:29Z</time>
      </trkpt>
      <trkpt lat="59.9170644" lon="17.6422293">
        <ele>12.6344</ele>
        <time>2013-05-03T14:50:30Z</time>
      </trkpt>
      <trkpt lat="59.9169956" lon="17.6422581">
        <ele>12.6344</ele>
        <time>2013-05-03T14:50:31Z</time>
      </trkpt>
      <trkpt lat="59.9169275" lon="17.6422787">
        <ele>12.6344</ele>
        <time>2013-05-03T14:50:32Z</time>
      </trkpt>
      <trkpt lat="59.9168598" lon="17.6422906">
        <ele>12.6344</ele>
        <time>2013-05-03T14:50:33Z</time>
      </trkpt>
      <trkpt lat="59.9167933" lon="17.6422996">
        <ele>13.1151</ele>
        <time>2013-05-03T14:50:34Z</time>
      </trkpt>
      <trkpt lat="59.9167276" lon="17.6423091">
        <ele>13.1151</ele>
        <time>2013-05-03T14:50:35Z</time>
      </trkpt>
      <trkpt lat="59.916663" lon="17.6423185">
        <ele>13.1151</ele>
        <time>2013-05-03T14:50:36Z</time>
      </trkpt>
      <trkpt lat="59.9165997" lon="17.6423262">
        <ele>13.5958</ele>
        <time>2013-05-03T14:50:37Z</time>
      </trkpt>
      <trkpt lat="59.9165381" lon="17.6423327">
        <ele>13.5958</ele>
        <time>2013-05-03T14:50:38Z</time>
      </trkpt>
      <trkpt lat="59.9164775" lon="17.6423414">
        <ele>13.5958</ele>
        <time>2013-05-03T14:50:39Z</time>
      </trkpt>
      <trkpt lat="59.9164173" lon="17.6423512">
        <ele>13.5958</ele>
        <time>2013-05-03T14:50:40Z</time>
      </trkpt>
      <trkpt lat="59.9163573" lon="17.6423602">
        <ele>13.5958</ele>
        <time>2013-05-03T14:50:41Z</time>
      </trkpt>
      <trkpt lat="59.9162972" lon="17.6423693">
        <ele>13.5958</ele>
        <time>2013-05-03T14:50:42Z</time>
      </trkpt>
      <trkpt lat="59.9162367" lon="17.6423751">
        <ele>14.0764</ele>
        <time>2013-05-03T14:50:43Z</time>
      </trkpt>
      <trkpt lat="59.9161758" lon="17.6423777">
        <ele>13.5958</ele>
        <time>2013-05-03T14:50:44Z</time>
      </trkpt>
      <trkpt lat="59.9161134" lon="17.6423791">
        <ele>13.5958</ele>
        <time>2013-05-03T14:50:45Z</time>
      </trkpt>
      <trkpt lat="59.9160498" lon="17.6423781">
        <ele>13.5958</ele>
        <time>2013-05-03T14:50:46Z</time>
      </trkpt>
      <trkpt lat="59.915985" lon="17.6423783">
        <ele>13.5958</ele>
        <time>2013-05-03T14:50:47Z</time>
      </trkpt>
      <trkpt lat="59.9159195" lon="17.6423806">
        <ele>13.5958</ele>
        <time>2013-05-03T14:50:48Z</time>
      </trkpt>
      <trkpt lat="59.9158532" lon="17.6423807">
        <ele>13.1151</ele>
        <time>2013-05-03T14:50:49Z</time>
      </trkpt>
      <trkpt lat="59.915786" lon="17.6423793">
        <ele>13.1151</ele>
        <time>2013-05-03T14:50:50Z</time>
      </trkpt>
      <trkpt lat="59.9157185" lon="17.6423816">
        <ele>13.1151</ele>
        <time>2013-05-03T14:50:51Z</time>
      </trkpt>
      <trkpt lat="59.9156507" lon="17.6423874">
        <ele>13.1151</ele>
        <time>2013-05-03T14:50:52Z</time>
      </trkpt>
      <trkpt lat="59.9155824" lon="17.6423963">
        <ele>13.1151</ele>
        <time>2013-05-03T14:50:53Z</time>
      </trkpt>
      <trkpt lat="59.9155139" lon="17.6424082">
        <ele>12.6344</ele>
        <time>2013-05-03T14:50:54Z</time>
      </trkpt>
      <trkpt lat="59.9154456" lon="17.6424228">
        <ele>12.6344</ele>
        <time>2013-05-03T14:50:55Z</time>
      </trkpt>
      <trkpt lat="59.9153799" lon="17.6424393">
        <ele>12.6344</ele>
        <time>2013-05-03T14:50:56Z</time>
      </trkpt>
      <trkpt lat="59.9153156" lon="17.6424643">
        <ele>13.1151</ele>
        <time>2013-05-03T14:50:57Z</time>
      </trkpt>
      <trkpt lat="59.9152545" lon="17.6424959">
        <ele>13.1151</ele>
        <time>2013-05-03T14:50:58Z</time>
      </trkpt>
      <trkpt lat="59.9151971" lon="17.642518">
        <ele>13.5958</ele>
        <time>2013-05-03T14:50:59Z</time>
      </trkpt>
      <trkpt lat="59.9151393" lon="17.6425419">
        <ele>13.5958</ele>
        <time>2013-05-03T14:51:00Z</time>
      </trkpt>
      <trkpt lat="59.91508" lon="17.6425683">
        <ele>13.1151</ele>
        <time>2013-05-03T14:51:01Z</time>
      </trkpt>
      <trkpt lat="59.9150183" lon="17.6425829">
        <ele>13.1151</ele>
        <time>2013-05-03T14:51:02Z</time>
      </trkpt>
      <trkpt lat="59.9149539" lon="17.6425952">
        <ele>13.1151</ele>
        <time>2013-05-03T14:51:03Z</time>
      </trkpt>
      <trkpt lat="59.9148878" lon="17.6426097">
        <ele>13.5958</ele>
        <time>2013-05-03T14:51:04Z</time>
      </trkpt>
      <trkpt lat="59.9148203" lon="17.6426236">
        <ele>13.5958</ele>
        <time>2013-05-03T14:51:05Z</time>
      </trkpt>
      <trkpt lat="59.9147515" lon="17.6426402">
        <ele>14.0764</ele>
        <time>2013-05-03T14:51:06Z</time>
      </trkpt>
      <trkpt lat="59.9146824" lon="17.6426564">
        <ele>14.557</ele>
        <time>2013-05-03T14:51:07Z</time>
      </trkpt>
      <trkpt lat="59.9146127" lon="17.6426753">
        <ele>14.557</ele>
        <time>2013-05-03T14:51:08Z</time>
      </trkpt>
      <trkpt lat="59.9145448" lon="17.642695">
        <ele>15.0377</ele>
        <time>2013-05-03T14:51:09Z</time>
      </trkpt>
      <trkpt lat="59.9144801" lon="17.6427059">
        <ele>15.0377</ele>
        <time>2013-05-03T14:51:10Z</time>
      </trkpt>
      <trkpt lat="59.9144127" lon="17.6427015">
        <ele>15.0377</ele>
        <time>2013-05-03T14:51:11Z</time>
      </trkpt>
      <trkpt lat="59.9143458" lon="17.6427029">
        <ele>14.557</ele>
        <time>2013-05-03T14:51:12Z</time>
      </trkpt>
      <trkpt lat="59.9142813" lon="17.6427081">
        <ele>14.557</ele>
        <time>2013-05-03T14:51:13Z</time>
      </trkpt>
      <trkpt lat="59.914218" lon="17.6427137">
        <ele>14.0764</ele>
        <time>2013-05-03T14:51:14Z</time>
      </trkpt>
      <trkpt lat="59.9141608" lon="17.6427263">
        <ele>14.0764</ele>
        <time>2013-05-03T14:51:15Z</time>
      </trkpt>
      <trkpt lat="59.9141038" lon="17.6427366">
        <ele>13.5958</ele>
        <time>2013-05-03T14:51:16Z</time>
      </trkpt>
      <trkpt lat="59.9140442" lon="17.6427447">
        <ele>13.5958</ele>
        <time>2013-05-03T14:51:17Z</time>
      </trkpt>
      <trkpt lat="59.9139878" lon="17.6427495">
        <ele>13.1151</ele>
        <time>2013-05-03T14:51:18Z</time>
      </trkpt>
      <trkpt lat="59.9139303" lon="17.6427496">
        <ele>13.1151</ele>
        <time>2013-05-03T14:51:19Z</time>
      </trkpt>
      <trkpt lat="59.9138734" lon="17.642751">
        <ele>12.6344</ele>
        <time>2013-05-03T14:51:20Z</time>
      </trkpt>
      <trkpt lat="59.913818" lon="17.6427575">
        <ele>12.1538</ele>
        <time>2013-05-03T14:51:21Z</time>
      </trkpt>
      <trkpt lat="59.9137627" lon="17.6427693">
        <ele>12.1538</ele>
        <time>2013-05-03T14:51:22Z</time>
      </trkpt>
      <trkpt lat="59.9137078" lon="17.6427862">
        <ele>13.1151</ele>
        <time>2013-05-03T14:51:23Z</time>
      </trkpt>
      <trkpt lat="59.9136547" lon="17.6428019">
        <ele>13.1151</ele>
        <time>2013-05-03T14:51:24Z</time>
      </trkpt>
      <trkpt lat="59.913602" lon="17.6428185">
        <ele>13.5958</ele>
        <time>2013-05-03T14:51:25Z</time>
      </trkpt>
      <trkpt lat="59.9135492" lon="17.6428325">
        <ele>13.5958</ele>
        <time>2013-05-03T14:51:26Z</time>
      </trkpt>
      <trkpt lat="59.9134964" lon="17.6428392">
        <ele>13.5958</ele>
        <time>2013-05-03T14:51:27Z</time>
      </trkpt>
      <trkpt lat="59.9134426" lon="17.6428442">
        <ele>13.1151</ele>
        <time>2013-05-03T14:51:28Z</time>
      </trkpt>
      <trkpt lat="59.9133892" lon="17.6428523">
        <ele>13.1151</ele>
        <time>2013-05-03T14:51:29Z</time>
      </trkpt>
      <trkpt lat="59.9133366" lon="17.6428615">
        <ele>13.1151</ele>
        <time>2013-05-03T14:51:30Z</time>
      </trkpt>
      <trkpt lat="59.9132808" lon="17.6428785">
        <ele>13.1151</ele>
        <time>2013-05-03T14:51:31Z</time>
      </trkpt>
      <trkpt lat="59.9132258" lon="17.6429002">
        <ele>13.1151</ele>
        <time>2013-05-03T14:51:32Z</time>
      </trkpt>
      <trkpt lat="59.9131668" lon="17.6429155">
        <ele>12.6344</ele>
        <time>2013-05-03T14:51:33Z</time>
      </trkpt>
      <trkpt lat="59.9131101" lon="17.6429341">
        <ele>13.1151</ele>
        <time>2013-05-03T14:51:34Z</time>
      </trkpt>
      <trkpt lat="59.9130544" lon="17.6429475">
        <ele>13.5958</ele>
        <time>2013-05-03T14:51:35Z</time>
      </trkpt>
      <trkpt lat="59.9129934" lon="17.6429562">
        <ele>13.5958</ele>
        <time>2013-05-03T14:51:36Z</time>
      </trkpt>
      <trkpt lat="59.9129341" lon="17.64296">
        <ele>13.1151</ele>
        <time>2013-05-03T14:51:37Z</time>
      </trkpt>
      <trkpt lat="59.9128768" lon="17.6429696">
        <ele>12.6344</ele>
        <time>2013-05-03T14:51:38Z</time>
      </trkpt>
      <trkpt lat="59.9128226" lon="17.6429806">
        <ele>13.1151</ele>
        <time>2013-05-03T14:51:39Z</time>
      </trkpt>
      <trkpt lat="59.9127685" lon="17.642992">
        <ele>13.1151</ele>
        <time>2013-05-03T14:51:40Z</time>
      </trkpt>
      <trkpt lat="59.9127145" lon="17.6429976">
        <ele>13.1151</ele>
        <time>2013-05-03T14:51:41Z</time>
      </trkpt>
      <trkpt lat="59.9126577" lon="17.6429906">
        <ele>13.1151</ele>
        <time>2013-05-03T14:51:42Z</time>
      </trkpt>
      <trkpt lat="59.9125998" lon="17.6429698">
        <ele>12.6344</ele>
        <time>2013-05-03T14:51:43Z</time>
      </trkpt>
      <trkpt lat="59.912538" lon="17.6429442">
        <ele>13.1151</ele>
        <time>2013-05-03T14:51:44Z</time>
      </trkpt>
      <trkpt lat="59.9124686" lon="17.6429273">
        <ele>13.1151</ele>
        <time>2013-05-03T14:51:45Z</time>
      </trkpt>
      <trkpt lat="59.9123998" lon="17.6429256">
        <ele>13.1151</ele>
        <time>2013-05-03T14:51:46Z</time>
      </trkpt>
      <trkpt lat="59.9122646" lon="17.6429457">
        <ele>12.1538</ele>
        <time>2013-05-03T14:51:48Z</time>
      </trkpt>
      <trkpt lat="59.9121997" lon="17.6429625">
        <ele>12.1538</ele>
        <time>2013-05-03T14:51:49Z</time>
      </trkpt>
      <trkpt lat="59.9121361" lon="17.6429825">
        <ele>11.6732</ele>
        <time>2013-05-03T14:51:50Z</time>
      </trkpt>
      <trkpt lat="59.9120765" lon="17.643006">
        <ele>12.6344</ele>
        <time>2013-05-03T14:51:51Z</time>
      </trkpt>
      <trkpt lat="59.9120157" lon="17.6430282">
        <ele>13.1151</ele>
        <time>2013-05-03T14:51:52Z</time>
      </trkpt>
      <trkpt lat="59.9119598" lon="17.6430488">
        <ele>13.1151</ele>
        <time>2013-05-03T14:51:53Z</time>
      </trkpt>
      <trkpt lat="59.911907" lon="17.6430721">
        <ele>13.1151</ele>
        <time>2013-05-03T14:51:54Z</time>
      </trkpt>
      <trkpt lat="59.9118528" lon="17.6430888">
        <ele>13.5958</ele>
        <time>2013-05-03T14:51:55Z</time>
      </trkpt>
      <trkpt lat="59.9117979" lon="17.6430944">
        <ele>13.1151</ele>
        <time>2013-05-03T14:51:56Z</time>
      </trkpt>
      <trkpt lat="59.9117425" lon="17.6430994">
        <ele>12.6344</ele>
        <time>2013-05-03T14:51:57Z</time>
      </trkpt>
      <trkpt lat="59.9116854" lon="17.6431101">
        <ele>12.1538</ele>
        <time>2013-05-03T14:51:58Z</time>
      </trkpt>
      <trkpt lat="59.9116269" lon="17.6431209">
        <ele>12.1538</ele>
        <time>2013-05-03T14:51:59Z</time>
      </trkpt>
      <trkpt lat="59.9115674" lon="17.6431334">
        <ele>11.6732</ele>
        <time>2013-05-03T14:52:00Z</time>
      </trkpt>
      <trkpt lat="59.9115053" lon="17.6431395">
        <ele>11.1925</ele>
        <time>2013-05-03T14:52:01Z</time>
      </trkpt>
      <trkpt lat="59.9114423" lon="17.6431483">
        <ele>11.1925</ele>
        <time>2013-05-03T14:52:02Z</time>
      </trkpt>
      <trkpt lat="59.9113798" lon="17.6431578">
        <ele>11.6732</ele>
        <time>2013-05-03T14:52:03Z</time>
      </trkpt>
      <trkpt lat="59.9113171" lon="17.6431674">
        <ele>11.1925</ele>
        <time>2013-05-03T14:52:04Z</time>
      </trkpt>
      <trkpt lat="59.9112553" lon="17.6431848">
        <ele>10.7118</ele>
        <time>2013-05-03T14:52:05Z</time>
      </trkpt>
      <trkpt lat="59.9111919" lon="17.6432011">
        <ele>10.2312</ele>
        <time>2013-05-03T14:52:06Z</time>
      </trkpt>
      <trkpt lat="59.9111278" lon="17.6432152">
        <ele>9.75061</ele>
        <time>2013-05-03T14:52:07Z</time>
      </trkpt>
      <trkpt lat="59.9110623" lon="17.6432246">
        <ele>9.2699</ele>
        <time>2013-05-03T14:52:08Z</time>
      </trkpt>
      <trkpt lat="59.910996" lon="17.6432369">
        <ele>9.2699</ele>
        <time>2013-05-03T14:52:09Z</time>
      </trkpt>
      <trkpt lat="59.9109291" lon="17.64325">
        <ele>9.2699</ele>
        <time>2013-05-03T14:52:10Z</time>
      </trkpt>
      <trkpt lat="59.9108613" lon="17.6432625">
        <ele>9.2699</ele>
        <time>2013-05-03T14:52:11Z</time>
      </trkpt>
      <trkpt lat="59.9107928" lon="17.6432749">
        <ele>9.2699</ele>
        <time>2013-05-03T14:52:12Z</time>
      </trkpt>
      <trkpt lat="59.9107246" lon="17.6432904">
        <ele>9.2699</ele>
        <time>2013-05-03T14:52:13Z</time>
      </trkpt>
      <trkpt lat="59.9106559" lon="17.6433081">
        <ele>9.2699</ele>
        <time>2013-05-03T14:52:14Z</time>
      </trkpt>
      <trkpt lat="59.9105882" lon="17.6433287">
        <ele>9.2699</ele>
        <time>2013-05-03T14:52:15Z</time>
      </trkpt>
      <trkpt lat="59.9105223" lon="17.6433582">
        <ele>9.2699</ele>
        <time>2013-05-03T14:52:16Z</time>
      </trkpt>
      <trkpt lat="59.9104588" lon="17.6433996">
        <ele>9.75061</ele>
        <time>2013-05-03T14:52:17Z</time>
      </trkpt>
      <trkpt lat="59.9104028" lon="17.6434594">
        <ele>10.7118</ele>
        <time>2013-05-03T14:52:18Z</time>
      </trkpt>
      <trkpt lat="59.9103493" lon="17.6435194">
        <ele>11.1925</ele>
        <time>2013-05-03T14:52:19Z</time>
      </trkpt>
      <trkpt lat="59.9102908" lon="17.643556">
        <ele>11.1925</ele>
        <time>2013-05-03T14:52:20Z</time>
      </trkpt>
      <trkpt lat="59.9102286" lon="17.6435746">
        <ele>11.6732</ele>
        <time>2013-05-03T14:52:21Z</time>
      </trkpt>
      <trkpt lat="59.9101651" lon="17.6435873">
        <ele>12.1538</ele>
        <time>2013-05-03T14:52:22Z</time>
      </trkpt>
      <trkpt lat="59.9100996" lon="17.6436001">
        <ele>12.1538</ele>
        <time>2013-05-03T14:52:23Z</time>
      </trkpt>
      <trkpt lat="59.910034" lon="17.6436121">
        <ele>12.6344</ele>
        <time>2013-05-03T14:52:24Z</time>
      </trkpt>
      <trkpt lat="59.9099667" lon="17.6436215">
        <ele>12.6344</ele>
        <time>2013-05-03T14:52:25Z</time>
      </trkpt>
      <trkpt lat="59.9098993" lon="17.643631">
        <ele>12.1538</ele>
        <time>2013-05-03T14:52:26Z</time>
      </trkpt>
      <trkpt lat="59.9098323" lon="17.643643">
        <ele>12.1538</ele>
        <time>2013-05-03T14:52:27Z</time>
      </trkpt>
      <trkpt lat="59.9097656" lon="17.6436525">
        <ele>11.6732</ele>
        <time>2013-05-03T14:52:28Z</time>
      </trkpt>
      <trkpt lat="59.9097002" lon="17.6436607">
        <ele>11.6732</ele>
        <time>2013-05-03T14:52:29Z</time>
      </trkpt>
      <trkpt lat="59.9096362" lon="17.6436742">
        <ele>11.6732</ele>
        <time>2013-05-03T14:52:30Z</time>
      </trkpt>
      <trkpt lat="59.9095714" lon="17.6436855">
        <ele>12.1538</ele>
        <time>2013-05-03T14:52:31Z</time>
      </trkpt>
      <trkpt lat="59.9095076" lon="17.6436973">
        <ele>12.1538</ele>
        <time>2013-05-03T14:52:32Z</time>
      </trkpt>
      <trkpt lat="59.9094448" lon="17.6437104">
        <ele>12.1538</ele>
        <time>2013-05-03T14:52:33Z</time>
      </trkpt>
      <trkpt lat="59.9093828" lon="17.6437204">
        <ele>12.1538</ele>
        <time>2013-05-03T14:52:34Z</time>
      </trkpt>
      <trkpt lat="59.9093212" lon="17.6437281">
        <ele>12.1538</ele>
        <time>2013-05-03T14:52:35Z</time>
      </trkpt>
      <trkpt lat="59.9092605" lon="17.6437328">
        <ele>12.1538</ele>
        <time>2013-05-03T14:52:36Z</time>
      </trkpt>
      <trkpt lat="59.9091998" lon="17.6437343">
        <ele>12.1538</ele>
        <time>2013-05-03T14:52:37Z</time>
      </trkpt>
      <trkpt lat="59.9091392" lon="17.6437404">
        <ele>12.1538</ele>
        <time>2013-05-03T14:52:38Z</time>
      </trkpt>
      <trkpt lat="59.9090788" lon="17.6437462">
        <ele>12.1538</ele>
        <time>2013-05-03T14:52:39Z</time>
      </trkpt>
      <trkpt lat="59.9090191" lon="17.6437488">
        <ele>12.1538</ele>
        <time>2013-05-03T14:52:40Z</time>
      </trkpt>
      <trkpt lat="59.9089591" lon="17.6437505">
        <ele>11.6732</ele>
        <time>2013-05-03T14:52:41Z</time>
      </trkpt>
      <trkpt lat="59.9088988" lon="17.6437515">
        <ele>11.6732</ele>
        <time>2013-05-03T14:52:42Z</time>
      </trkpt>
      <trkpt lat="59.9088386" lon="17.643751">
        <ele>11.6732</ele>
        <time>2013-05-03T14:52:43Z</time>
      </trkpt>
      <trkpt lat="59.9087782" lon="17.643752">
        <ele>11.1925</ele>
        <time>2013-05-03T14:52:44Z</time>
      </trkpt>
      <trkpt lat="59.9087167" lon="17.6437514">
        <ele>11.1925</ele>
        <time>2013-05-03T14:52:45Z</time>
      </trkpt>
      <trkpt lat="59.9086555" lon="17.6437505">
        <ele>10.7118</ele>
        <time>2013-05-03T14:52:46Z</time>
      </trkpt>
      <trkpt lat="59.9085937" lon="17.6437498">
        <ele>10.7118</ele>
        <time>2013-05-03T14:52:47Z</time>
      </trkpt>
      <trkpt lat="59.9085312" lon="17.6437469">
        <ele>10.2312</ele>
        <time>2013-05-03T14:52:48Z</time>
      </trkpt>
      <trkpt lat="59.9084677" lon="17.6437432">
        <ele>10.2312</ele>
        <time>2013-05-03T14:52:49Z</time>
      </trkpt>
      <trkpt lat="59.9084033" lon="17.643742">
        <ele>10.2312</ele>
        <time>2013-05-03T14:52:50Z</time>
      </trkpt>
      <trkpt lat="59.9083375" lon="17.6437409">
        <ele>10.2312</ele>
        <time>2013-05-03T14:52:51Z</time>
      </trkpt>
      <trkpt lat="59.9082706" lon="17.6437374">
        <ele>10.2312</ele>
        <time>2013-05-03T14:52:52Z</time>
      </trkpt>
      <trkpt lat="59.9082034" lon="17.6437322">
        <ele>9.75061</ele>
        <time>2013-05-03T14:52:53Z</time>
      </trkpt>
      <trkpt lat="59.9081365" lon="17.6437329">
        <ele>10.2312</ele>
        <time>2013-05-03T14:52:54Z</time>
      </trkpt>
      <trkpt lat="59.9080698" lon="17.6437341">
        <ele>10.7118</ele>
        <time>2013-05-03T14:52:55Z</time>
      </trkpt>
      <trkpt lat="59.9080023" lon="17.643731">
        <ele>11.1925</ele>
        <time>2013-05-03T14:52:56Z</time>
      </trkpt>
      <trkpt lat="59.9079343" lon="17.6437245">
        <ele>11.1925</ele>
        <time>2013-05-03T14:52:57Z</time>
      </trkpt>
      <trkpt lat="59.9078661" lon="17.6437168">
        <ele>11.1925</ele>
        <time>2013-05-03T14:52:58Z</time>
      </trkpt>
      <trkpt lat="59.9077972" lon="17.6437079">
        <ele>11.1925</ele>
        <time>2013-05-03T14:52:59Z</time>
      </trkpt>
      <trkpt lat="59.9077277" lon="17.643698">
        <ele>10.7118</ele>
        <time>2013-05-03T14:53:00Z</time>
      </trkpt>
      <trkpt lat="59.907658" lon="17.6436868">
        <ele>10.7118</ele>
        <time>2013-05-03T14:53:01Z</time>
      </trkpt>
      <trkpt lat="59.9075884" lon="17.6436749">
        <ele>10.7118</ele>
        <time>2013-05-03T14:53:02Z</time>
      </trkpt>
      <trkpt lat="59.9075181" lon="17.6436618">
        <ele>10.2312</ele>
        <time>2013-05-03T14:53:03Z</time>
      </trkpt>
      <trkpt lat="59.9074477" lon="17.6436483">
        <ele>10.2312</ele>
        <time>2013-05-03T14:53:04Z</time>
      </trkpt>
      <trkpt lat="59.9073775" lon="17.6436355">
        <ele>9.75061</ele>
        <time>2013-05-03T14:53:05Z</time>
      </trkpt>
      <trkpt lat="59.907307" lon="17.6436233">
        <ele>9.75061</ele>
        <time>2013-05-03T14:53:06Z</time>
      </trkpt>
      <trkpt lat="59.9072365" lon="17.6436094">
        <ele>9.75061</ele>
        <time>2013-05-03T14:53:07Z</time>
      </trkpt>
      <trkpt lat="59.9071661" lon="17.6435918">
        <ele>9.2699</ele>
        <time>2013-05-03T14:53:08Z</time>
      </trkpt>
      <trkpt lat="59.907096" lon="17.6435733">
        <ele>9.2699</ele>
        <time>2013-05-03T14:53:09Z</time>
      </trkpt>
      <trkpt lat="59.9070254" lon="17.6435549">
        <ele>9.2699</ele>
        <time>2013-05-03T14:53:10Z</time>
      </trkpt>
      <trkpt lat="59.906954" lon="17.6435366">
        <ele>8.78918</ele>
        <time>2013-05-03T14:53:11Z</time>
      </trkpt>
      <trkpt lat="59.9068819" lon="17.6435184">
        <ele>8.78918</ele>
        <time>2013-05-03T14:53:12Z</time>
      </trkpt>
      <trkpt lat="59.9068092" lon="17.6434986">
        <ele>8.30859</ele>
        <time>2013-05-03T14:53:13Z</time>
      </trkpt>
      <trkpt lat="59.9067362" lon="17.6434782">
        <ele>8.30859</ele>
        <time>2013-05-03T14:53:14Z</time>
      </trkpt>
      <trkpt lat="59.9066626" lon="17.6434561">
        <ele>7.82788</ele>
        <time>2013-05-03T14:53:15Z</time>
      </trkpt>
      <trkpt lat="59.906515" lon="17.6434137">
        <ele>7.82788</ele>
        <time>2013-05-03T14:53:17Z</time>
      </trkpt>
      <trkpt lat="59.9064409" lon="17.643393">
        <ele>7.82788</ele>
        <time>2013-05-03T14:53:18Z</time>
      </trkpt>
      <trkpt lat="59.906366" lon="17.6433713">
        <ele>7.82788</ele>
        <time>2013-05-03T14:53:19Z</time>
      </trkpt>
      <trkpt lat="59.9062907" lon="17.6433504">
        <ele>7.82788</ele>
        <time>2013-05-03T14:53:20Z</time>
      </trkpt>
      <trkpt lat="59.9062158" lon="17.6433267">
        <ele>7.82788</ele>
        <time>2013-05-03T14:53:21Z</time>
      </trkpt>
      <trkpt lat="59.9061412" lon="17.6433009">
        <ele>7.82788</ele>
        <time>2013-05-03T14:53:22Z</time>
      </trkpt>
      <trkpt lat="59.9060676" lon="17.6432717">
        <ele>7.82788</ele>
        <time>2013-05-03T14:53:23Z</time>
      </trkpt>
      <trkpt lat="59.9059916" lon="17.6432417">
        <ele>7.82788</ele>
        <time>2013-05-03T14:53:24Z</time>
      </trkpt>
      <trkpt lat="59.9059143" lon="17.6432094">
        <ele>7.82788</ele>
        <time>2013-05-03T14:53:25Z</time>
      </trkpt>
      <trkpt lat="59.9058369" lon="17.6431732">
        <ele>7.82788</ele>
        <time>2013-05-03T14:53:26Z</time>
      </trkpt>
      <trkpt lat="59.9057597" lon="17.6431356">
        <ele>7.82788</ele>
        <time>2013-05-03T14:53:27Z</time>
      </trkpt>
      <trkpt lat="59.9056821" lon="17.6431001">
        <ele>7.34717</ele>
        <time>2013-05-03T14:53:28Z</time>
      </trkpt>
      <trkpt lat="59.9056039" lon="17.6430677">
        <ele>7.34717</ele>
        <time>2013-05-03T14:53:29Z</time>
      </trkpt>
      <trkpt lat="59.9055261" lon="17.6430371">
        <ele>7.34717</ele>
        <time>2013-05-03T14:53:30Z</time>
      </trkpt>
      <trkpt lat="59.9054476" lon="17.6430058">
        <ele>7.34717</ele>
        <time>2013-05-03T14:53:31Z</time>
      </trkpt>
      <trkpt lat="59.9053674" lon="17.6429719">
        <ele>6.86646</ele>
        <time>2013-05-03T14:53:32Z</time>
      </trkpt>
      <trkpt lat="59.9052901" lon="17.6429367">
        <ele>6.86646</ele>
        <time>2013-05-03T14:53:33Z</time>
      </trkpt>
      <trkpt lat="59.9052138" lon="17.6428988">
        <ele>6.86646</ele>
        <time>2013-05-03T14:53:34Z</time>
      </trkpt>
      <trkpt lat="59.9051369" lon="17.6428611">
        <ele>6.38586</ele>
        <time>2013-05-03T14:53:35Z</time>
      </trkpt>
      <trkpt lat="59.9050579" lon="17.6428252">
        <ele>6.86646</ele>
        <time>2013-05-03T14:53:36Z</time>
      </trkpt>
      <trkpt lat="59.9049802" lon="17.6427926">
        <ele>6.86646</ele>
        <time>2013-05-03T14:53:37Z</time>
      </trkpt>
      <trkpt lat="59.9049" lon="17.6427585">
        <ele>6.86646</ele>
        <time>2013-05-03T14:53:38Z</time>
      </trkpt>
      <trkpt lat="59.9048223" lon="17.642721">
        <ele>7.34717</ele>
        <time>2013-05-03T14:53:39Z</time>
      </trkpt>
      <trkpt lat="59.9047447" lon="17.6426812">
        <ele>7.34717</ele>
        <time>2013-05-03T14:53:40Z</time>
      </trkpt>
      <trkpt lat="59.9046665" lon="17.6426404">
        <ele>7.34717</ele>
        <time>2013-05-03T14:53:41Z</time>
      </trkpt>
      <trkpt lat="59.9045904" lon="17.6426045">
        <ele>7.82788</ele>
        <time>2013-05-03T14:53:42Z</time>
      </trkpt>
      <trkpt lat="59.9045136" lon="17.6425698">
        <ele>7.82788</ele>
        <time>2013-05-03T14:53:43Z</time>
      </trkpt>
      <trkpt lat="59.9044377" lon="17.6425371">
        <ele>8.30859</ele>
        <time>2013-05-03T14:53:44Z</time>
      </trkpt>
      <trkpt lat="59.9043635" lon="17.6425061">
        <ele>8.30859</ele>
        <time>2013-05-03T14:53:45Z</time>
      </trkpt>
      <trkpt lat="59.9042892" lon="17.642473">
        <ele>8.30859</ele>
        <time>2013-05-03T14:53:46Z</time>
      </trkpt>
      <trkpt lat="59.9042156" lon="17.6424357">
        <ele>8.78918</ele>
        <time>2013-05-03T14:53:47Z</time>
      </trkpt>
      <trkpt lat="59.9041401" lon="17.6423974">
        <ele>8.78918</ele>
        <time>2013-05-03T14:53:48Z</time>
      </trkpt>
      <trkpt lat="59.9040645" lon="17.6423606">
        <ele>8.78918</ele>
        <time>2013-05-03T14:53:49Z</time>
      </trkpt>
      <trkpt lat="59.9039894" lon="17.6423251">
        <ele>8.78918</ele>
        <time>2013-05-03T14:53:50Z</time>
      </trkpt>
      <trkpt lat="59.9039153" lon="17.642291">
        <ele>9.2699</ele>
        <time>2013-05-03T14:53:51Z</time>
      </trkpt>
      <trkpt lat="59.9038428" lon="17.6422563">
        <ele>9.2699</ele>
        <time>2013-05-03T14:53:52Z</time>
      </trkpt>
      <trkpt lat="59.9037708" lon="17.6422202">
        <ele>9.2699</ele>
        <time>2013-05-03T14:53:53Z</time>
      </trkpt>
      <trkpt lat="59.9036998" lon="17.642185">
        <ele>9.2699</ele>
        <time>2013-05-03T14:53:54Z</time>
      </trkpt>
      <trkpt lat="59.9036304" lon="17.6421513">
        <ele>9.75061</ele>
        <time>2013-05-03T14:53:55Z</time>
      </trkpt>
      <trkpt lat="59.9035646" lon="17.642121">
        <ele>9.75061</ele>
        <time>2013-05-03T14:53:56Z</time>
      </trkpt>
      <trkpt lat="59.9034971" lon="17.6420937">
        <ele>10.2312</ele>
        <time>2013-05-03T14:53:57Z</time>
      </trkpt>
      <trkpt lat="59.9034304" lon="17.6420653">
        <ele>10.2312</ele>
        <time>2013-05-03T14:53:58Z</time>
      </trkpt>
      <trkpt lat="59.9033639" lon="17.6420376">
        <ele>10.7118</ele>
        <time>2013-05-03T14:53:59Z</time>
      </trkpt>
      <trkpt lat="59.9032973" lon="17.6420056">
        <ele>10.7118</ele>
        <time>2013-05-03T14:54:00Z</time>
      </trkpt>
      <trkpt lat="59.9032319" lon="17.6419751">
        <ele>11.1925</ele>
        <time>2013-05-03T14:54:01Z</time>
      </trkpt>
      <trkpt lat="59.9031666" lon="17.6419454">
        <ele>11.1925</ele>
        <time>2013-05-03T14:54:02Z</time>
      </trkpt>
      <trkpt lat="59.9031018" lon="17.6419165">
        <ele>11.6732</ele>
        <time>2013-05-03T14:54:03Z</time>
      </trkpt>
      <trkpt lat="59.9030384" lon="17.6418877">
        <ele>11.6732</ele>
        <time>2013-05-03T14:54:04Z</time>
      </trkpt>
      <trkpt lat="59.9029755" lon="17.6418595">
        <ele>11.6732</ele>
        <time>2013-05-03T14:54:05Z</time>
      </trkpt>
      <trkpt lat="59.9029123" lon="17.6418306">
        <ele>11.6732</ele>
        <time>2013-05-03T14:54:06Z</time>
      </trkpt>
      <trkpt lat="59.9028495" lon="17.641799">
        <ele>11.6732</ele>
        <time>2013-05-03T14:54:07Z</time>
      </trkpt>
      <trkpt lat="59.9027881" lon="17.6417655">
        <ele>11.6732</ele>
        <time>2013-05-03T14:54:08Z</time>
      </trkpt>
      <trkpt lat="59.902727" lon="17.6417302">
        <ele>12.1538</ele>
        <time>2013-05-03T14:54:09Z</time>
      </trkpt>
      <trkpt lat="59.9026665" lon="17.6416938">
        <ele>12.1538</ele>
        <time>2013-05-03T14:54:10Z</time>
      </trkpt>
      <trkpt lat="59.9026072" lon="17.641657">
        <ele>12.1538</ele>
        <time>2013-05-03T14:54:11Z</time>
      </trkpt>
      <trkpt lat="59.9025508" lon="17.6416193">
        <ele>12.6344</ele>
        <time>2013-05-03T14:54:12Z</time>
      </trkpt>
      <trkpt lat="59.9024947" lon="17.6415829">
        <ele>12.6344</ele>
        <time>2013-05-03T14:54:13Z</time>
      </trkpt>
      <trkpt lat="59.9024385" lon="17.6415463">
        <ele>13.1151</ele>
        <time>2013-05-03T14:54:14Z</time>
      </trkpt>
      <trkpt lat="59.9023825" lon="17.6415104">
        <ele>13.1151</ele>
        <time>2013-05-03T14:54:15Z</time>
      </trkpt>
      <trkpt lat="59.902326" lon="17.6414799">
        <ele>13.1151</ele>
        <time>2013-05-03T14:54:16Z</time>
      </trkpt>
      <trkpt lat="59.9022694" lon="17.6414495">
        <ele>13.5958</ele>
        <time>2013-05-03T14:54:17Z</time>
      </trkpt>
      <trkpt lat="59.9022147" lon="17.6414121">
        <ele>13.5958</ele>
        <time>2013-05-03T14:54:18Z</time>
      </trkpt>
      <trkpt lat="59.9021608" lon="17.6413701">
        <ele>14.0764</ele>
        <time>2013-05-03T14:54:19Z</time>
      </trkpt>
      <trkpt lat="59.9021064" lon="17.6413283">
        <ele>14.0764</ele>
        <time>2013-05-03T14:54:20Z</time>
      </trkpt>
      <trkpt lat="59.9020515" lon="17.6412865">
        <ele>14.0764</ele>
        <time>2013-05-03T14:54:21Z</time>
      </trkpt>
      <trkpt lat="59.9020005" lon="17.6412437">
        <ele>14.557</ele>
        <time>2013-05-03T14:54:22Z</time>
      </trkpt>
      <trkpt lat="59.9019484" lon="17.6412033">
        <ele>14.557</ele>
        <time>2013-05-03T14:54:23Z</time>
      </trkpt>
      <trkpt lat="59.901897" lon="17.6411624">
        <ele>14.557</ele>
        <time>2013-05-03T14:54:24Z</time>
      </trkpt>
      <trkpt lat="59.9018459" lon="17.641118">
        <ele>14.557</ele>
        <time>2013-05-03T14:54:25Z</time>
      </trkpt>
      <trkpt lat="59.9017955" lon="17.6410729">
        <ele>15.0377</ele>
        <time>2013-05-03T14:54:26Z</time>
      </trkpt>
      <trkpt lat="59.9017447" lon="17.6410303">
        <ele>15.5184</ele>
        <time>2013-05-03T14:54:27Z</time>
      </trkpt>
      <trkpt lat="59.9016931" lon="17.6409877">
        <ele>15.999</ele>
        <time>2013-05-03T14:54:28Z</time>
      </trkpt>
      <trkpt lat="59.9016438" lon="17.6409431">
        <ele>15.999</ele>
        <time>2013-05-03T14:54:29Z</time>
      </trkpt>
      <trkpt lat="59.901594" lon="17.6408968">
        <ele>15.999</ele>
        <time>2013-05-03T14:54:30Z</time>
      </trkpt>
      <trkpt lat="59.9015449" lon="17.640852">
        <ele>15.999</ele>
        <time>2013-05-03T14:54:31Z</time>
      </trkpt>
      <trkpt lat="59.9014945" lon="17.6408048">
        <ele>15.999</ele>
        <time>2013-05-03T14:54:32Z</time>
      </trkpt>
      <trkpt lat="59.9014426" lon="17.6407577">
        <ele>16.4797</ele>
        <time>2013-05-03T14:54:33Z</time>
      </trkpt>
      <trkpt lat="59.901392" lon="17.6407129">
        <ele>16.4797</ele>
        <time>2013-05-03T14:54:34Z</time>
      </trkpt>
      <trkpt lat="59.9013412" lon="17.6406625">
        <ele>15.999</ele>
        <time>2013-05-03T14:54:35Z</time>
      </trkpt>
      <trkpt lat="59.9012909" lon="17.640609">
        <ele>15.999</ele>
        <time>2013-05-03T14:54:36Z</time>
      </trkpt>
      <trkpt lat="59.9012417" lon="17.6405543">
        <ele>15.999</ele>
        <time>2013-05-03T14:54:37Z</time>
      </trkpt>
      <trkpt lat="59.9011921" lon="17.6405015">
        <ele>15.999</ele>
        <time>2013-05-03T14:54:38Z</time>
      </trkpt>
      <trkpt lat="59.9011422" lon="17.6404508">
        <ele>15.999</ele>
        <time>2013-05-03T14:54:39Z</time>
      </trkpt>
      <trkpt lat="59.9010925" lon="17.6404009">
        <ele>15.999</ele>
        <time>2013-05-03T14:54:40Z</time>
      </trkpt>
      <trkpt lat="59.9010429" lon="17.6403507">
        <ele>15.999</ele>
        <time>2013-05-03T14:54:41Z</time>
      </trkpt>
      <trkpt lat="59.9009915" lon="17.6402972">
        <ele>15.5184</ele>
        <time>2013-05-03T14:54:42Z</time>
      </trkpt>
      <trkpt lat="59.9009396" lon="17.6402448">
        <ele>15.0377</ele>
        <time>2013-05-03T14:54:43Z</time>
      </trkpt>
      <trkpt lat="59.9008875" lon="17.640192">
        <ele>14.557</ele>
        <time>2013-05-03T14:54:44Z</time>
      </trkpt>
      <trkpt lat="59.9008363" lon="17.6401378">
        <ele>14.0764</ele>
        <time>2013-05-03T14:54:45Z</time>
      </trkpt>
      <trkpt lat="59.9007849" lon="17.6400838">
        <ele>13.5958</ele>
        <time>2013-05-03T14:54:46Z</time>
      </trkpt>
      <trkpt lat="59.9007336" lon="17.6400315">
        <ele>13.5958</ele>
        <time>2013-05-03T14:54:47Z</time>
      </trkpt>
      <trkpt lat="59.9006823" lon="17.6399809">
        <ele>13.1151</ele>
        <time>2013-05-03T14:54:48Z</time>
      </trkpt>
      <trkpt lat="59.9006326" lon="17.639931">
        <ele>12.6344</ele>
        <time>2013-05-03T14:54:49Z</time>
      </trkpt>
      <trkpt lat="59.9005839" lon="17.6398802">
        <ele>12.1538</ele>
        <time>2013-05-03T14:54:50Z</time>
      </trkpt>
      <trkpt lat="59.900534" lon="17.6398289">
        <ele>12.1538</ele>
        <time>2013-05-03T14:54:51Z</time>
      </trkpt>
      <trkpt lat="59.9004849" lon="17.6397782">
        <ele>12.1538</ele>
        <time>2013-05-03T14:54:52Z</time>
      </trkpt>
      <trkpt lat="59.9004354" lon="17.639728">
        <ele>11.6732</ele>
        <time>2013-05-03T14:54:53Z</time>
      </trkpt>
      <trkpt lat="59.9003857" lon="17.6396802">
        <ele>11.6732</ele>
        <time>2013-05-03T14:54:54Z</time>
      </trkpt>
      <trkpt lat="59.9003356" lon="17.6396323">
        <ele>11.1925</ele>
        <time>2013-05-03T14:54:55Z</time>
      </trkpt>
      <trkpt lat="59.9002865" lon="17.6395831">
        <ele>11.1925</ele>
        <time>2013-05-03T14:54:56Z</time>
      </trkpt>
      <trkpt lat="59.9002384" lon="17.6395348">
        <ele>11.1925</ele>
        <time>2013-05-03T14:54:57Z</time>
      </trkpt>
      <trkpt lat="59.9001927" lon="17.6394876">
        <ele>10.7118</ele>
        <time>2013-05-03T14:54:58Z</time>
      </trkpt>
      <trkpt lat="59.900144" lon="17.6394389">
        <ele>10.7118</ele>
        <time>2013-05-03T14:54:59Z</time>
      </trkpt>
      <trkpt lat="59.9000929" lon="17.6393943">
        <ele>10.7118</ele>
        <time>2013-05-03T14:55:00Z</time>
      </trkpt>
      <trkpt lat="59.9000421" lon="17.6393484">
        <ele>11.1925</ele>
        <time>2013-05-03T14:55:01Z</time>
      </trkpt>
      <trkpt lat="59.8999909" lon="17.6392986">
        <ele>11.1925</ele>
        <time>2013-05-03T14:55:02Z</time>
      </trkpt>
      <trkpt lat="59.8999399" lon="17.6392476">
        <ele>11.6732</ele>
        <time>2013-05-03T14:55:03Z</time>
      </trkpt>
      <trkpt lat="59.8998891" lon="17.6391928">
        <ele>12.1538</ele>
        <time>2013-05-03T14:55:04Z</time>
      </trkpt>
      <trkpt lat="59.8998376" lon="17.6391373">
        <ele>12.1538</ele>
        <time>2013-05-03T14:55:05Z</time>
      </trkpt>
      <trkpt lat="59.8997852" lon="17.6390842">
        <ele>12.1538</ele>
        <time>2013-05-03T14:55:06Z</time>
      </trkpt>
      <trkpt lat="59.8997332" lon="17.6390308">
        <ele>12.6344</ele>
        <time>2013-05-03T14:55:07Z</time>
      </trkpt>
      <trkpt lat="59.8996767" lon="17.6389757">
        <ele>13.1151</ele>
        <time>2013-05-03T14:55:08Z</time>
      </trkpt>
      <trkpt lat="59.8996179" lon="17.6389163">
        <ele>13.5958</ele>
        <time>2013-05-03T14:55:09Z</time>
      </trkpt>
      <trkpt lat="59.8995597" lon="17.6388567">
        <ele>13.5958</ele>
        <time>2013-05-03T14:55:10Z</time>
      </trkpt>
      <trkpt lat="59.8995037" lon="17.6388019">
        <ele>13.5958</ele>
        <time>2013-05-03T14:55:11Z</time>
      </trkpt>
      <trkpt lat="59.8994494" lon="17.6387505">
        <ele>13.5958</ele>
        <time>2013-05-03T14:55:12Z</time>
      </trkpt>
      <trkpt lat="59.8993932" lon="17.6386977">
        <ele>13.1151</ele>
        <time>2013-05-03T14:55:13Z</time>
      </trkpt>
      <trkpt lat="59.899341" lon="17.6386479">
        <ele>13.1151</ele>
        <time>2013-05-03T14:55:14Z</time>
      </trkpt>
      <trkpt lat="59.8992878" lon="17.6385967">
        <ele>12.6344</ele>
        <time>2013-05-03T14:55:15Z</time>
      </trkpt>
      <trkpt lat="59.8992328" lon="17.6385438">
        <ele>11.6732</ele>
        <time>2013-05-03T14:55:16Z</time>
      </trkpt>
      <trkpt lat="59.8991791" lon="17.6384906">
        <ele>11.1925</ele>
        <time>2013-05-03T14:55:17Z</time>
      </trkpt>
      <trkpt lat="59.8991329" lon="17.6384422">
        <ele>11.6732</ele>
        <time>2013-05-03T14:55:18Z</time>
      </trkpt>
      <trkpt lat="59.8990851" lon="17.6383972">
        <ele>11.6732</ele>
        <time>2013-05-03T14:55:19Z</time>
      </trkpt>
      <trkpt lat="59.8990377" lon="17.638352">
        <ele>12.1538</ele>
        <time>2013-05-03T14:55:20Z</time>
      </trkpt>
      <trkpt lat="59.8989936" lon="17.6383069">
        <ele>12.6344</ele>
        <time>2013-05-03T14:55:21Z</time>
      </trkpt>
      <trkpt lat="59.8989388" lon="17.6382585">
        <ele>12.1538</ele>
        <time>2013-05-03T14:55:22Z</time>
      </trkpt>
      <trkpt lat="59.8988807" lon="17.6382117">
        <ele>11.6732</ele>
        <time>2013-05-03T14:55:23Z</time>
      </trkpt>
      <trkpt lat="59.8988241" lon="17.638171">
        <ele>11.1925</ele>
        <time>2013-05-03T14:55:24Z</time>
      </trkpt>
      <trkpt lat="59.8987734" lon="17.6381412">
        <ele>11.6732</ele>
        <time>2013-05-03T14:55:25Z</time>
      </trkpt>
      <trkpt lat="59.8987202" lon="17.6381258">
        <ele>11.6732</ele>
        <time>2013-05-03T14:55:26Z</time>
      </trkpt>
      <trkpt lat="59.898665" lon="17.6381212">
        <ele>11.6732</ele>
        <time>2013-05-03T14:55:27Z</time>
      </trkpt>
      <trkpt lat="59.898603" lon="17.6381262">
        <ele>11.1925</ele>
        <time>2013-05-03T14:55:28Z</time>
      </trkpt>
      <trkpt lat="59.8985441" lon="17.6381335">
        <ele>11.1925</ele>
        <time>2013-05-03T14:55:29Z</time>
      </trkpt>
      <trkpt lat="59.8984899" lon="17.638129">
        <ele>11.6732</ele>
        <time>2013-05-03T14:55:30Z</time>
      </trkpt>
      <trkpt lat="59.8984382" lon="17.6381041">
        <ele>12.1538</ele>
        <time>2013-05-03T14:55:31Z</time>
      </trkpt>
      <trkpt lat="59.8983902" lon="17.6380645">
        <ele>12.6344</ele>
        <time>2013-05-03T14:55:32Z</time>
      </trkpt>
      <trkpt lat="59.8983446" lon="17.6380232">
        <ele>13.5958</ele>
        <time>2013-05-03T14:55:33Z</time>
      </trkpt>
      <trkpt lat="59.8982993" lon="17.6379801">
        <ele>14.557</ele>
        <time>2013-05-03T14:55:34Z</time>
      </trkpt>
      <trkpt lat="59.8982534" lon="17.6379383">
        <ele>15.0377</ele>
        <time>2013-05-03T14:55:35Z</time>
      </trkpt>
      <trkpt lat="59.8982079" lon="17.6378987">
        <ele>15.999</ele>
        <time>2013-05-03T14:55:36Z</time>
      </trkpt>
      <trkpt lat="59.8981623" lon="17.6378576">
        <ele>16.4797</ele>
        <time>2013-05-03T14:55:37Z</time>
      </trkpt>
      <trkpt lat="59.8981146" lon="17.637815">
        <ele>16.9604</ele>
        <time>2013-05-03T14:55:38Z</time>
      </trkpt>
      <trkpt lat="59.8980675" lon="17.6377741">
        <ele>17.4412</ele>
        <time>2013-05-03T14:55:39Z</time>
      </trkpt>
      <trkpt lat="59.8980198" lon="17.6377332">
        <ele>17.9218</ele>
        <time>2013-05-03T14:55:40Z</time>
      </trkpt>
      <trkpt lat="59.8979717" lon="17.6376874">
        <ele>18.4023</ele>
        <time>2013-05-03T14:55:41Z</time>
      </trkpt>
      <trkpt lat="59.8979244" lon="17.6376342">
        <ele>18.8831</ele>
        <time>2013-05-03T14:55:42Z</time>
      </trkpt>
      <trkpt lat="59.8978801" lon="17.6375724">
        <ele>19.3638</ele>
        <time>2013-05-03T14:55:43Z</time>
      </trkpt>
      <trkpt lat="59.8978405" lon="17.6375017">
        <ele>20.325</ele>
        <time>2013-05-03T14:55:44Z</time>
      </trkpt>
      <trkpt lat="59.8978052" lon="17.6374222">
        <ele>20.8057</ele>
        <time>2013-05-03T14:55:45Z</time>
      </trkpt>
      <trkpt lat="59.8977704" lon="17.6373385">
        <ele>20.8057</ele>
        <time>2013-05-03T14:55:46Z</time>
      </trkpt>
      <trkpt lat="59.8977342" lon="17.6372608">
        <ele>21.2864</ele>
        <time>2013-05-03T14:55:47Z</time>
      </trkpt>
      <trkpt lat="59.8976935" lon="17.6371968">
        <ele>21.2864</ele>
        <time>2013-05-03T14:55:48Z</time>
      </trkpt>
      <trkpt lat="59.8976467" lon="17.6371436">
        <ele>21.2864</ele>
        <time>2013-05-03T14:55:49Z</time>
      </trkpt>
      <trkpt lat="59.8975992" lon="17.6371006">
        <ele>21.2864</ele>
        <time>2013-05-03T14:55:50Z</time>
      </trkpt>
      <trkpt lat="59.8975521" lon="17.637065">
        <ele>21.2864</ele>
        <time>2013-05-03T14:55:51Z</time>
      </trkpt>
      <trkpt lat="59.8975064" lon="17.6370337">
        <ele>20.8057</ele>
        <time>2013-05-03T14:55:52Z</time>
      </trkpt>
      <trkpt lat="59.8974609" lon="17.6370062">
        <ele>20.8057</ele>
        <time>2013-05-03T14:55:53Z</time>
      </trkpt>
      <trkpt lat="59.8974153" lon="17.6369808">
        <ele>20.8057</ele>
        <time>2013-05-03T14:55:54Z</time>
      </trkpt>
      <trkpt lat="59.8973702" lon="17.6369576">
        <ele>20.8057</ele>
        <time>2013-05-03T14:55:55Z</time>
      </trkpt>
      <trkpt lat="59.8973256" lon="17.6369355">
        <ele>20.325</ele>
        <time>2013-05-03T14:55:56Z</time>
      </trkpt>
      <trkpt lat="59.8972799" lon="17.6369107">
        <ele>20.325</ele>
        <time>2013-05-03T14:55:57Z</time>
      </trkpt>
      <trkpt lat="59.8972355" lon="17.6368848">
        <ele>19.8444</ele>
        <time>2013-05-03T14:55:58Z</time>
      </trkpt>
      <trkpt lat="59.8971918" lon="17.6368588">
        <ele>19.8444</ele>
        <time>2013-05-03T14:55:59Z</time>
      </trkpt>
      <trkpt lat="59.8971474" lon="17.6368313">
        <ele>19.3638</ele>
        <time>2013-05-03T14:56:00Z</time>
      </trkpt>
      <trkpt lat="59.897106" lon="17.6368115">
        <ele>19.3638</ele>
        <time>2013-05-03T14:56:01Z</time>
      </trkpt>
      <trkpt lat="59.897064" lon="17.6367938">
        <ele>19.8444</ele>
        <time>2013-05-03T14:56:02Z</time>
      </trkpt>
      <trkpt lat="59.89702" lon="17.6367734">
        <ele>19.8444</ele>
        <time>2013-05-03T14:56:03Z</time>
      </trkpt>
      <trkpt lat="59.8969741" lon="17.6367491">
        <ele>19.8444</ele>
        <time>2013-05-03T14:56:04Z</time>
      </trkpt>
      <trkpt lat="59.8969263" lon="17.6367239">
        <ele>19.8444</ele>
        <time>2013-05-03T14:56:05Z</time>
      </trkpt>
      <trkpt lat="59.8968791" lon="17.6367033">
        <ele>20.325</ele>
        <time>2013-05-03T14:56:06Z</time>
      </trkpt>
      <trkpt lat="59.8968297" lon="17.6366817">
        <ele>20.325</ele>
        <time>2013-05-03T14:56:07Z</time>
      </trkpt>
      <trkpt lat="59.8967784" lon="17.6366604">
        <ele>20.8057</ele>
        <time>2013-05-03T14:56:08Z</time>
      </trkpt>
      <trkpt lat="59.8967283" lon="17.6366418">
        <ele>21.2864</ele>
        <time>2013-05-03T14:56:09Z</time>
      </trkpt>
      <trkpt lat="59.8966766" lon="17.6366219">
        <ele>21.2864</ele>
        <time>2013-05-03T14:56:10Z</time>
      </trkpt>
      <trkpt lat="59.8966247" lon="17.6366008">
        <ele>21.767</ele>
        <time>2013-05-03T14:56:11Z</time>
      </trkpt>
      <trkpt lat="59.8965723" lon="17.6365784">
        <ele>21.767</ele>
        <time>2013-05-03T14:56:12Z</time>
      </trkpt>
      <trkpt lat="59.8965191" lon="17.6365572">
        <ele>22.2476</ele>
        <time>2013-05-03T14:56:13Z</time>
      </trkpt>
      <trkpt lat="59.896465" lon="17.6365362">
        <ele>22.2476</ele>
        <time>2013-05-03T14:56:14Z</time>
      </trkpt>
      <trkpt lat="59.8964103" lon="17.6365147">
        <ele>22.2476</ele>
        <time>2013-05-03T14:56:15Z</time>
      </trkpt>
      <trkpt lat="59.8963544" lon="17.636493">
        <ele>22.2476</ele>
        <time>2013-05-03T14:56:16Z</time>
      </trkpt>
      <trkpt lat="59.8962985" lon="17.6364694">
        <ele>22.2476</ele>
        <time>2013-05-03T14:56:17Z</time>
      </trkpt>
      <trkpt lat="59.8962428" lon="17.6364445">
        <ele>22.2476</ele>
        <time>2013-05-03T14:56:18Z</time>
      </trkpt>
      <trkpt lat="59.8961854" lon="17.6364205">
        <ele>22.7283</ele>
        <time>2013-05-03T14:56:19Z</time>
      </trkpt>
      <trkpt lat="59.8961237" lon="17.6363947">
        <ele>21.767</ele>
        <time>2013-05-03T14:56:20Z</time>
      </trkpt>
      <trkpt lat="59.896062" lon="17.6363713">
        <ele>21.2864</ele>
        <time>2013-05-03T14:56:21Z</time>
      </trkpt>
      <trkpt lat="59.895999" lon="17.6363453">
        <ele>20.325</ele>
        <time>2013-05-03T14:56:22Z</time>
      </trkpt>
      <trkpt lat="59.8959364" lon="17.6363266">
        <ele>19.8444</ele>
        <time>2013-05-03T14:56:23Z</time>
      </trkpt>
      <trkpt lat="59.8958732" lon="17.6363164">
        <ele>18.8831</ele>
        <time>2013-05-03T14:56:24Z</time>
      </trkpt>
      <trkpt lat="59.8958098" lon="17.6363117">
        <ele>18.4023</ele>
        <time>2013-05-03T14:56:25Z</time>
      </trkpt>
      <trkpt lat="59.8957472" lon="17.6363127">
        <ele>17.9218</ele>
        <time>2013-05-03T14:56:26Z</time>
      </trkpt>
      <trkpt lat="59.895684" lon="17.6363202">
        <ele>17.4412</ele>
        <time>2013-05-03T14:56:27Z</time>
      </trkpt>
      <trkpt lat="59.8956191" lon="17.6363326">
        <ele>16.9604</ele>
        <time>2013-05-03T14:56:28Z</time>
      </trkpt>
      <trkpt lat="59.8955531" lon="17.6363492">
        <ele>16.4797</ele>
        <time>2013-05-03T14:56:29Z</time>
      </trkpt>
      <trkpt lat="59.8954904" lon="17.6363817">
        <ele>16.9604</ele>
        <time>2013-05-03T14:56:30Z</time>
      </trkpt>
      <trkpt lat="59.8954257" lon="17.6364124">
        <ele>16.4797</ele>
        <time>2013-05-03T14:56:31Z</time>
      </trkpt>
      <trkpt lat="59.8953671" lon="17.636454">
        <ele>16.4797</ele>
        <time>2013-05-03T14:56:32Z</time>
      </trkpt>
      <trkpt lat="59.8953084" lon="17.6364967">
        <ele>16.9604</ele>
        <time>2013-05-03T14:56:33Z</time>
      </trkpt>
      <trkpt lat="59.8952479" lon="17.636538">
        <ele>17.4412</ele>
        <time>2013-05-03T14:56:34Z</time>
      </trkpt>
      <trkpt lat="59.8951854" lon="17.6365801">
        <ele>17.4412</ele>
        <time>2013-05-03T14:56:35Z</time>
      </trkpt>
      <trkpt lat="59.8951236" lon="17.6366241">
        <ele>17.4412</ele>
        <time>2013-05-03T14:56:36Z</time>
      </trkpt>
      <trkpt lat="59.8950609" lon="17.6366665">
        <ele>17.4412</ele>
        <time>2013-05-03T14:56:37Z</time>
      </trkpt>
      <trkpt lat="59.8950008" lon="17.6367064">
        <ele>18.4023</ele>
        <time>2013-05-03T14:56:38Z</time>
      </trkpt>
      <trkpt lat="59.8949403" lon="17.6367474">
        <ele>18.8831</ele>
        <time>2013-05-03T14:56:39Z</time>
      </trkpt>
      <trkpt lat="59.894879" lon="17.6367914">
        <ele>18.8831</ele>
        <time>2013-05-03T14:56:40Z</time>
      </trkpt>
      <trkpt lat="59.8948169" lon="17.636835">
        <ele>19.3638</ele>
        <time>2013-05-03T14:56:41Z</time>
      </trkpt>
      <trkpt lat="59.8947542" lon="17.6368775">
        <ele>19.8444</ele>
        <time>2013-05-03T14:56:42Z</time>
      </trkpt>
      <trkpt lat="59.8946911" lon="17.6369225">
        <ele>20.325</ele>
        <time>2013-05-03T14:56:43Z</time>
      </trkpt>
      <trkpt lat="59.8946279" lon="17.6369686">
        <ele>20.325</ele>
        <time>2013-05-03T14:56:44Z</time>
      </trkpt>
      <trkpt lat="59.8945626" lon="17.6370084">
        <ele>20.325</ele>
        <time>2013-05-03T14:56:45Z</time>
      </trkpt>
      <trkpt lat="59.8944963" lon="17.6370472">
        <ele>19.8444</ele>
        <time>2013-05-03T14:56:46Z</time>
      </trkpt>
      <trkpt lat="59.8944293" lon="17.6370914">
        <ele>19.8444</ele>
        <time>2013-05-03T14:56:47Z</time>
      </trkpt>
      <trkpt lat="59.8943616" lon="17.6371354">
        <ele>19.8444</ele>
        <time>2013-05-03T14:56:48Z</time>
      </trkpt>
      <trkpt lat="59.8942967" lon="17.6371814">
        <ele>19.8444</ele>
        <time>2013-05-03T14:56:49Z</time>
      </trkpt>
      <trkpt lat="59.8942335" lon="17.6372254">
        <ele>20.325</ele>
        <time>2013-05-03T14:56:50Z</time>
      </trkpt>
      <trkpt lat="59.8941699" lon="17.6372711">
        <ele>20.8057</ele>
        <time>2013-05-03T14:56:51Z</time>
      </trkpt>
      <trkpt lat="59.8941058" lon="17.6373266">
        <ele>21.767</ele>
        <time>2013-05-03T14:56:52Z</time>
      </trkpt>
      <trkpt lat="59.8940447" lon="17.6373823">
        <ele>22.7283</ele>
        <time>2013-05-03T14:56:53Z</time>
      </trkpt>
      <trkpt lat="59.893984" lon="17.6374307">
        <ele>22.7283</ele>
        <time>2013-05-03T14:56:54Z</time>
      </trkpt>
      <trkpt lat="59.8939228" lon="17.6374804">
        <ele>23.209</ele>
        <time>2013-05-03T14:56:55Z</time>
      </trkpt>
      <trkpt lat="59.8938597" lon="17.6375318">
        <ele>23.6896</ele>
        <time>2013-05-03T14:56:56Z</time>
      </trkpt>
      <trkpt lat="59.8937975" lon="17.637585">
        <ele>24.1703</ele>
        <time>2013-05-03T14:56:57Z</time>
      </trkpt>
      <trkpt lat="59.8937343" lon="17.6376369">
        <ele>24.651</ele>
        <time>2013-05-03T14:56:58Z</time>
      </trkpt>
      <trkpt lat="59.8936704" lon="17.6376886">
        <ele>25.1317</ele>
        <time>2013-05-03T14:56:59Z</time>
      </trkpt>
      <trkpt lat="59.8936064" lon="17.6377407">
        <ele>25.6123</ele>
        <time>2013-05-03T14:57:00Z</time>
      </trkpt>
      <trkpt lat="59.8935432" lon="17.6377916">
        <ele>26.0929</ele>
        <time>2013-05-03T14:57:01Z</time>
      </trkpt>
      <trkpt lat="59.8934782" lon="17.63784">
        <ele>26.5736</ele>
        <time>2013-05-03T14:57:02Z</time>
      </trkpt>
      <trkpt lat="59.8934101" lon="17.6378875">
        <ele>26.0929</ele>
        <time>2013-05-03T14:57:03Z</time>
      </trkpt>
      <trkpt lat="59.8933409" lon="17.6379345">
        <ele>26.0929</ele>
        <time>2013-05-03T14:57:04Z</time>
      </trkpt>
      <trkpt lat="59.8932718" lon="17.6379823">
        <ele>25.6123</ele>
        <time>2013-05-03T14:57:05Z</time>
      </trkpt>
      <trkpt lat="59.893197" lon="17.6380215">
        <ele>24.1703</ele>
        <time>2013-05-03T14:57:06Z</time>
      </trkpt>
      <trkpt lat="59.8931232" lon="17.6380575">
        <ele>23.6896</ele>
        <time>2013-05-03T14:57:07Z</time>
      </trkpt>
      <trkpt lat="59.8930516" lon="17.6380946">
        <ele>22.7283</ele>
        <time>2013-05-03T14:57:08Z</time>
      </trkpt>
      <trkpt lat="59.8929775" lon="17.6381283">
        <ele>21.2864</ele>
        <time>2013-05-03T14:57:09Z</time>
      </trkpt>
      <trkpt lat="59.8929014" lon="17.6381517">
        <ele>19.8444</ele>
        <time>2013-05-03T14:57:10Z</time>
      </trkpt>
      <trkpt lat="59.8928265" lon="17.6381707">
        <ele>18.8831</ele>
        <time>2013-05-03T14:57:11Z</time>
      </trkpt>
      <trkpt lat="59.8927479" lon="17.6381802">
        <ele>18.4023</ele>
        <time>2013-05-03T14:57:12Z</time>
      </trkpt>
      <trkpt lat="59.8926554" lon="17.6382088">
        <ele>17.9218</ele>
        <time>2013-05-03T14:57:13Z</time>
      </trkpt>
      <trkpt lat="59.8925652" lon="17.6382399">
        <ele>18.4023</ele>
        <time>2013-05-03T14:57:14Z</time>
      </trkpt>
      <trkpt lat="59.8924683" lon="17.6382719">
        <ele>16.9604</ele>
        <time>2013-05-03T14:57:15Z</time>
      </trkpt>
      <trkpt lat="59.8923761" lon="17.6383152">
        <ele>16.4797</ele>
        <time>2013-05-03T14:57:16Z</time>
      </trkpt>
      <trkpt lat="59.8922791" lon="17.6383325">
        <ele>15.5184</ele>
        <time>2013-05-03T14:57:17Z</time>
      </trkpt>
      <trkpt lat="59.8921895" lon="17.6383758">
        <ele>15.5184</ele>
        <time>2013-05-03T14:57:18Z</time>
      </trkpt>
      <trkpt lat="59.8920942" lon="17.6383904">
        <ele>15.0377</ele>
        <time>2013-05-03T14:57:19Z</time>
      </trkpt>
      <trkpt lat="59.8920115" lon="17.638403">
        <ele>15.0377</ele>
        <time>2013-05-03T14:57:20Z</time>
      </trkpt>
      <trkpt lat="59.8919253" lon="17.6384176">
        <ele>15.0377</ele>
        <time>2013-05-03T14:57:21Z</time>
      </trkpt>
      <trkpt lat="59.8918382" lon="17.6384387">
        <ele>15.0377</ele>
        <time>2013-05-03T14:57:22Z</time>
      </trkpt>
      <trkpt lat="59.8917503" lon="17.6384549">
        <ele>15.0377</ele>
        <time>2013-05-03T14:57:23Z</time>
      </trkpt>
      <trkpt lat="59.8916538" lon="17.6384516">
        <ele>14.0764</ele>
        <time>2013-05-03T14:57:24Z</time>
      </trkpt>
      <trkpt lat="59.8915611" lon="17.6384561">
        <ele>13.1151</ele>
        <time>2013-05-03T14:57:25Z</time>
      </trkpt>
      <trkpt lat="59.8914699" lon="17.6384567">
        <ele>12.6344</ele>
        <time>2013-05-03T14:57:26Z</time>
      </trkpt>
      <trkpt lat="59.8913821" lon="17.6384587">
        <ele>13.1151</ele>
        <time>2013-05-03T14:57:27Z</time>
      </trkpt>
      <trkpt lat="59.891295" lon="17.6384584">
        <ele>13.1151</ele>
        <time>2013-05-03T14:57:28Z</time>
      </trkpt>
      <trkpt lat="59.8912086" lon="17.6384484">
        <ele>12.6344</ele>
        <time>2013-05-03T14:57:29Z</time>
      </trkpt>
      <trkpt lat="59.8911218" lon="17.6384387">
        <ele>12.1538</ele>
        <time>2013-05-03T14:57:30Z</time>
      </trkpt>
      <trkpt lat="59.891035" lon="17.6384272">
        <ele>11.6732</ele>
        <time>2013-05-03T14:57:31Z</time>
      </trkpt>
      <trkpt lat="59.8909516" lon="17.6384147">
        <ele>11.6732</ele>
        <time>2013-05-03T14:57:32Z</time>
      </trkpt>
      <trkpt lat="59.8908678" lon="17.6383978">
        <ele>11.1925</ele>
        <time>2013-05-03T14:57:33Z</time>
      </trkpt>
      <trkpt lat="59.8907842" lon="17.6383833">
        <ele>11.1925</ele>
        <time>2013-05-03T14:57:34Z</time>
      </trkpt>
      <trkpt lat="59.8906927" lon="17.6383549">
        <ele>9.75061</ele>
        <time>2013-05-03T14:57:35Z</time>
      </trkpt>
      <trkpt lat="59.8906033" lon="17.6383284">
        <ele>8.30859</ele>
        <time>2013-05-03T14:57:36Z</time>
      </trkpt>
      <trkpt lat="59.8905144" lon="17.638304">
        <ele>7.34717</ele>
        <time>2013-05-03T14:57:37Z</time>
      </trkpt>
      <trkpt lat="59.890424" lon="17.6382748">
        <ele>5.90527</ele>
        <time>2013-05-03T14:57:38Z</time>
      </trkpt>
      <trkpt lat="59.8903344" lon="17.638245">
        <ele>4.46326</ele>
        <time>2013-05-03T14:57:39Z</time>
      </trkpt>
      <trkpt lat="59.8902494" lon="17.6382179">
        <ele>4.46326</ele>
        <time>2013-05-03T14:57:40Z</time>
      </trkpt>
      <trkpt lat="59.8901673" lon="17.6381982">
        <ele>4.94385</ele>
        <time>2013-05-03T14:57:41Z</time>
      </trkpt>
      <trkpt lat="59.8900868" lon="17.6381761">
        <ele>4.94385</ele>
        <time>2013-05-03T14:57:42Z</time>
      </trkpt>
      <trkpt lat="59.8900099" lon="17.6381637">
        <ele>5.90527</ele>
        <time>2013-05-03T14:57:43Z</time>
      </trkpt>
      <trkpt lat="59.8899286" lon="17.6381443">
        <ele>6.38586</ele>
        <time>2013-05-03T14:57:44Z</time>
      </trkpt>
      <trkpt lat="59.8898491" lon="17.6381175">
        <ele>6.86646</ele>
        <time>2013-05-03T14:57:45Z</time>
      </trkpt>
      <trkpt lat="59.8897729" lon="17.6380855">
        <ele>7.34717</ele>
        <time>2013-05-03T14:57:46Z</time>
      </trkpt>
      <trkpt lat="59.8896933" lon="17.6380469">
        <ele>7.34717</ele>
        <time>2013-05-03T14:57:47Z</time>
      </trkpt>
      <trkpt lat="59.889614" lon="17.6380077">
        <ele>7.82788</ele>
        <time>2013-05-03T14:57:48Z</time>
      </trkpt>
      <trkpt lat="59.8895389" lon="17.6379798">
        <ele>8.30859</ele>
        <time>2013-05-03T14:57:49Z</time>
      </trkpt>
      <trkpt lat="59.8894643" lon="17.6379461">
        <ele>9.2699</ele>
        <time>2013-05-03T14:57:50Z</time>
      </trkpt>
      <trkpt lat="59.8893875" lon="17.6379104">
        <ele>9.75061</ele>
        <time>2013-05-03T14:57:51Z</time>
      </trkpt>
      <trkpt lat="59.8893118" lon="17.6378796">
        <ele>9.75061</ele>
        <time>2013-05-03T14:57:52Z</time>
      </trkpt>
      <trkpt lat="59.8892342" lon="17.6378511">
        <ele>9.75061</ele>
        <time>2013-05-03T14:57:53Z</time>
      </trkpt>
      <trkpt lat="59.8891524" lon="17.6378175">
        <ele>8.78918</ele>
        <time>2013-05-03T14:57:54Z</time>
      </trkpt>
      <trkpt lat="59.8890759" lon="17.6377907">
        <ele>8.78918</ele>
        <time>2013-05-03T14:57:55Z</time>
      </trkpt>
      <trkpt lat="59.8889988" lon="17.637771">
        <ele>8.78918</ele>
        <time>2013-05-03T14:57:56Z</time>
      </trkpt>
      <trkpt lat="59.8889209" lon="17.6377594">
        <ele>8.78918</ele>
        <time>2013-05-03T14:57:57Z</time>
      </trkpt>
      <trkpt lat="59.8888447" lon="17.6377565">
        <ele>8.78918</ele>
        <time>2013-05-03T14:57:58Z</time>
      </trkpt>
      <trkpt lat="59.8887693" lon="17.6377621">
        <ele>8.30859</ele>
        <time>2013-05-03T14:57:59Z</time>
      </trkpt>
      <trkpt lat="59.8886918" lon="17.6377669">
        <ele>7.82788</ele>
        <time>2013-05-03T14:58:00Z</time>
      </trkpt>
      <trkpt lat="59.8886174" lon="17.6377777">
        <ele>7.82788</ele>
        <time>2013-05-03T14:58:01Z</time>
      </trkpt>
      <trkpt lat="59.8885437" lon="17.6377881">
        <ele>8.30859</ele>
        <time>2013-05-03T14:58:02Z</time>
      </trkpt>
      <trkpt lat="59.8884704" lon="17.6378062">
        <ele>8.78918</ele>
        <time>2013-05-03T14:58:03Z</time>
      </trkpt>
      <trkpt lat="59.8883966" lon="17.6378259">
        <ele>9.75061</ele>
        <time>2013-05-03T14:58:04Z</time>
      </trkpt>
      <trkpt lat="59.8883205" lon="17.6378355">
        <ele>9.75061</ele>
        <time>2013-05-03T14:58:05Z</time>
      </trkpt>
      <trkpt lat="59.8882447" lon="17.6378415">
        <ele>10.2312</ele>
        <time>2013-05-03T14:58:06Z</time>
      </trkpt>
      <trkpt lat="59.8881679" lon="17.6378446">
        <ele>10.2312</ele>
        <time>2013-05-03T14:58:07Z</time>
      </trkpt>
      <trkpt lat="59.8880914" lon="17.6378461">
        <ele>10.7118</ele>
        <time>2013-05-03T14:58:08Z</time>
      </trkpt>
      <trkpt lat="59.8880153" lon="17.6378431">
        <ele>10.7118</ele>
        <time>2013-05-03T14:58:09Z</time>
      </trkpt>
      <trkpt lat="59.8879393" lon="17.6378316">
        <ele>11.1925</ele>
        <time>2013-05-03T14:58:10Z</time>
      </trkpt>
      <trkpt lat="59.8878635" lon="17.6378187">
        <ele>11.1925</ele>
        <time>2013-05-03T14:58:11Z</time>
      </trkpt>
      <trkpt lat="59.8877861" lon="17.6377988">
        <ele>11.1925</ele>
        <time>2013-05-03T14:58:12Z</time>
      </trkpt>
      <trkpt lat="59.8877088" lon="17.6377736">
        <ele>10.7118</ele>
        <time>2013-05-03T14:58:13Z</time>
      </trkpt>
      <trkpt lat="59.8876323" lon="17.6377496">
        <ele>11.1925</ele>
        <time>2013-05-03T14:58:14Z</time>
      </trkpt>
      <trkpt lat="59.8875577" lon="17.6377271">
        <ele>11.1925</ele>
        <time>2013-05-03T14:58:15Z</time>
      </trkpt>
      <trkpt lat="59.8874829" lon="17.637703">
        <ele>11.1925</ele>
        <time>2013-05-03T14:58:16Z</time>
      </trkpt>
      <trkpt lat="59.8874063" lon="17.6376731">
        <ele>11.1925</ele>
        <time>2013-05-03T14:58:17Z</time>
      </trkpt>
      <trkpt lat="59.8873295" lon="17.637641">
        <ele>11.1925</ele>
        <time>2013-05-03T14:58:18Z</time>
      </trkpt>
      <trkpt lat="59.8872525" lon="17.6376057">
        <ele>11.1925</ele>
        <time>2013-05-03T14:58:19Z</time>
      </trkpt>
      <trkpt lat="59.8871754" lon="17.6375712">
        <ele>11.6732</ele>
        <time>2013-05-03T14:58:20Z</time>
      </trkpt>
      <trkpt lat="59.887097" lon="17.6375377">
        <ele>11.6732</ele>
        <time>2013-05-03T14:58:21Z</time>
      </trkpt>
      <trkpt lat="59.8870182" lon="17.6375043">
        <ele>11.1925</ele>
        <time>2013-05-03T14:58:22Z</time>
      </trkpt>
      <trkpt lat="59.8869391" lon="17.6374731">
        <ele>11.6732</ele>
        <time>2013-05-03T14:58:23Z</time>
      </trkpt>
      <trkpt lat="59.8868601" lon="17.6374427">
        <ele>11.6732</ele>
        <time>2013-05-03T14:58:24Z</time>
      </trkpt>
      <trkpt lat="59.8867817" lon="17.6374109">
        <ele>11.6732</ele>
        <time>2013-05-03T14:58:25Z</time>
      </trkpt>
      <trkpt lat="59.8867034" lon="17.6373751">
        <ele>12.1538</ele>
        <time>2013-05-03T14:58:26Z</time>
      </trkpt>
      <trkpt lat="59.886625" lon="17.6373381">
        <ele>12.1538</ele>
        <time>2013-05-03T14:58:27Z</time>
      </trkpt>
      <trkpt lat="59.886549" lon="17.6373021">
        <ele>12.1538</ele>
        <time>2013-05-03T14:58:28Z</time>
      </trkpt>
      <trkpt lat="59.8864713" lon="17.6372634">
        <ele>12.1538</ele>
        <time>2013-05-03T14:58:29Z</time>
      </trkpt>
      <trkpt lat="59.8863941" lon="17.6372224">
        <ele>12.1538</ele>
        <time>2013-05-03T14:58:30Z</time>
      </trkpt>
      <trkpt lat="59.8863152" lon="17.6371842">
        <ele>12.1538</ele>
        <time>2013-05-03T14:58:31Z</time>
      </trkpt>
      <trkpt lat="59.8862372" lon="17.6371317">
        <ele>12.1538</ele>
        <time>2013-05-03T14:58:32Z</time>
      </trkpt>
      <trkpt lat="59.8861627" lon="17.6370955">
        <ele>12.6344</ele>
        <time>2013-05-03T14:58:33Z</time>
      </trkpt>
      <trkpt lat="59.8860875" lon="17.637037">
        <ele>13.1151</ele>
        <time>2013-05-03T14:58:34Z</time>
      </trkpt>
      <trkpt lat="59.8860129" lon="17.6369794">
        <ele>13.5958</ele>
        <time>2013-05-03T14:58:35Z</time>
      </trkpt>
      <trkpt lat="59.8859296" lon="17.6368744">
        <ele>13.1151</ele>
        <time>2013-05-03T14:58:36Z</time>
      </trkpt>
      <trkpt lat="59.8858557" lon="17.6368208">
        <ele>13.5958</ele>
        <time>2013-05-03T14:58:37Z</time>
      </trkpt>
      <trkpt lat="59.8857813" lon="17.6367617">
        <ele>14.0764</ele>
        <time>2013-05-03T14:58:38Z</time>
      </trkpt>
      <trkpt lat="59.8857078" lon="17.6366965">
        <ele>14.557</ele>
        <time>2013-05-03T14:58:39Z</time>
      </trkpt>
      <trkpt lat="59.8856387" lon="17.636642">
        <ele>15.5184</ele>
        <time>2013-05-03T14:58:40Z</time>
      </trkpt>
      <trkpt lat="59.8855663" lon="17.636574">
        <ele>15.999</ele>
        <time>2013-05-03T14:58:41Z</time>
      </trkpt>
      <trkpt lat="59.8854933" lon="17.6365082">
        <ele>16.9604</ele>
        <time>2013-05-03T14:58:42Z</time>
      </trkpt>
      <trkpt lat="59.8854156" lon="17.6364599">
        <ele>16.9604</ele>
        <time>2013-05-03T14:58:43Z</time>
      </trkpt>
      <trkpt lat="59.8853312" lon="17.6363883">
        <ele>16.9604</ele>
        <time>2013-05-03T14:58:44Z</time>
      </trkpt>
      <trkpt lat="59.8852478" lon="17.636329">
        <ele>16.4797</ele>
        <time>2013-05-03T14:58:45Z</time>
      </trkpt>
      <trkpt lat="59.8851631" lon="17.6363028">
        <ele>15.5184</ele>
        <time>2013-05-03T14:58:46Z</time>
      </trkpt>
      <trkpt lat="59.8850736" lon="17.6362496">
        <ele>14.557</ele>
        <time>2013-05-03T14:58:47Z</time>
      </trkpt>
      <trkpt lat="59.8849953" lon="17.6361991">
        <ele>14.557</ele>
        <time>2013-05-03T14:58:48Z</time>
      </trkpt>
      <trkpt lat="59.8849167" lon="17.6361403">
        <ele>14.0764</ele>
        <time>2013-05-03T14:58:49Z</time>
      </trkpt>
      <trkpt lat="59.8848395" lon="17.6360823">
        <ele>14.0764</ele>
        <time>2013-05-03T14:58:50Z</time>
      </trkpt>
      <trkpt lat="59.8847691" lon="17.6360315">
        <ele>13.5958</ele>
        <time>2013-05-03T14:58:51Z</time>
      </trkpt>
      <trkpt lat="59.8847038" lon="17.6359762">
        <ele>14.0764</ele>
        <time>2013-05-03T14:58:52Z</time>
      </trkpt>
      <trkpt lat="59.8846407" lon="17.6359171">
        <ele>14.557</ele>
        <time>2013-05-03T14:58:53Z</time>
      </trkpt>
      <trkpt lat="59.8845749" lon="17.6358742">
        <ele>14.557</ele>
        <time>2013-05-03T14:58:54Z</time>
      </trkpt>
      <trkpt lat="59.8845019" lon="17.6358547">
        <ele>14.0764</ele>
        <time>2013-05-03T14:58:55Z</time>
      </trkpt>
      <trkpt lat="59.8844288" lon="17.6358394">
        <ele>14.557</ele>
        <time>2013-05-03T14:58:56Z</time>
      </trkpt>
      <trkpt lat="59.8843561" lon="17.6358066">
        <ele>14.557</ele>
        <time>2013-05-03T14:58:57Z</time>
      </trkpt>
      <trkpt lat="59.8842874" lon="17.635769">
        <ele>14.557</ele>
        <time>2013-05-03T14:58:58Z</time>
      </trkpt>
      <trkpt lat="59.8842211" lon="17.6357414">
        <ele>15.0377</ele>
        <time>2013-05-03T14:58:59Z</time>
      </trkpt>
      <trkpt lat="59.8841521" lon="17.6356989">
        <ele>15.0377</ele>
        <time>2013-05-03T14:59:00Z</time>
      </trkpt>
      <trkpt lat="59.8840796" lon="17.6356547">
        <ele>15.0377</ele>
        <time>2013-05-03T14:59:01Z</time>
      </trkpt>
      <trkpt lat="59.8840065" lon="17.6356223">
        <ele>15.5184</ele>
        <time>2013-05-03T14:59:02Z</time>
      </trkpt>
      <trkpt lat="59.8839169" lon="17.6355897">
        <ele>15.5184</ele>
        <time>2013-05-03T14:59:03Z</time>
      </trkpt>
      <trkpt lat="59.8838321" lon="17.6355833">
        <ele>16.4797</ele>
        <time>2013-05-03T14:59:04Z</time>
      </trkpt>
      <trkpt lat="59.8837703" lon="17.6356062">
        <ele>17.9218</ele>
        <time>2013-05-03T14:59:05Z</time>
      </trkpt>
      <trkpt lat="59.8837094" lon="17.6355891">
        <ele>18.8831</ele>
        <time>2013-05-03T14:59:06Z</time>
      </trkpt>
      <trkpt lat="59.8836428" lon="17.6355503">
        <ele>19.3638</ele>
        <time>2013-05-03T14:59:07Z</time>
      </trkpt>
      <trkpt lat="59.8835673" lon="17.6354908">
        <ele>20.325</ele>
        <time>2013-05-03T14:59:08Z</time>
      </trkpt>
      <trkpt lat="59.8834951" lon="17.6354778">
        <ele>19.3638</ele>
        <time>2013-05-03T14:59:09Z</time>
      </trkpt>
      <trkpt lat="59.8834157" lon="17.6354636">
        <ele>17.4412</ele>
        <time>2013-05-03T14:59:10Z</time>
      </trkpt>
      <trkpt lat="59.883341" lon="17.635457">
        <ele>16.4797</ele>
        <time>2013-05-03T14:59:11Z</time>
      </trkpt>
      <trkpt lat="59.8832639" lon="17.6354502">
        <ele>15.999</ele>
        <time>2013-05-03T14:59:12Z</time>
      </trkpt>
      <trkpt lat="59.8831897" lon="17.6354429">
        <ele>15.5184</ele>
        <time>2013-05-03T14:59:13Z</time>
      </trkpt>
      <trkpt lat="59.8831124" lon="17.6354317">
        <ele>14.557</ele>
        <time>2013-05-03T14:59:14Z</time>
      </trkpt>
      <trkpt lat="59.8830332" lon="17.635428">
        <ele>13.5958</ele>
        <time>2013-05-03T14:59:15Z</time>
      </trkpt>
      <trkpt lat="59.8829545" lon="17.6354346">
        <ele>12.6344</ele>
        <time>2013-05-03T14:59:16Z</time>
      </trkpt>
      <trkpt lat="59.8828758" lon="17.6354445">
        <ele>12.1538</ele>
        <time>2013-05-03T14:59:17Z</time>
      </trkpt>
      <trkpt lat="59.8827961" lon="17.635455">
        <ele>11.6732</ele>
        <time>2013-05-03T14:59:18Z</time>
      </trkpt>
      <trkpt lat="59.8827155" lon="17.6354694">
        <ele>11.1925</ele>
        <time>2013-05-03T14:59:19Z</time>
      </trkpt>
      <trkpt lat="59.8826348" lon="17.6354901">
        <ele>10.7118</ele>
        <time>2013-05-03T14:59:20Z</time>
      </trkpt>
      <trkpt lat="59.8825571" lon="17.635516">
        <ele>10.7118</ele>
        <time>2013-05-03T14:59:21Z</time>
      </trkpt>
      <trkpt lat="59.8824799" lon="17.6355441">
        <ele>10.2312</ele>
        <time>2013-05-03T14:59:22Z</time>
      </trkpt>
      <trkpt lat="59.8824023" lon="17.6355744">
        <ele>9.75061</ele>
        <time>2013-05-03T14:59:23Z</time>
      </trkpt>
      <trkpt lat="59.8823247" lon="17.6356043">
        <ele>9.75061</ele>
        <time>2013-05-03T14:59:24Z</time>
      </trkpt>
      <trkpt lat="59.8822464" lon="17.6356319">
        <ele>9.2699</ele>
        <time>2013-05-03T14:59:25Z</time>
      </trkpt>
      <trkpt lat="59.8821709" lon="17.6356585">
        <ele>8.78918</ele>
        <time>2013-05-03T14:59:26Z</time>
      </trkpt>
      <trkpt lat="59.8820994" lon="17.6356864">
        <ele>8.78918</ele>
        <time>2013-05-03T14:59:27Z</time>
      </trkpt>
      <trkpt lat="59.8820273" lon="17.6357124">
        <ele>8.78918</ele>
        <time>2013-05-03T14:59:28Z</time>
      </trkpt>
      <trkpt lat="59.8819537" lon="17.6357369">
        <ele>8.30859</ele>
        <time>2013-05-03T14:59:29Z</time>
      </trkpt>
      <trkpt lat="59.8818797" lon="17.6357631">
        <ele>8.30859</ele>
        <time>2013-05-03T14:59:30Z</time>
      </trkpt>
      <trkpt lat="59.8818045" lon="17.6357865">
        <ele>8.30859</ele>
        <time>2013-05-03T14:59:31Z</time>
      </trkpt>
      <trkpt lat="59.8817294" lon="17.6358063">
        <ele>7.82788</ele>
        <time>2013-05-03T14:59:32Z</time>
      </trkpt>
      <trkpt lat="59.8816548" lon="17.6358205">
        <ele>7.82788</ele>
        <time>2013-05-03T14:59:33Z</time>
      </trkpt>
      <trkpt lat="59.8815796" lon="17.6358167">
        <ele>7.82788</ele>
        <time>2013-05-03T14:59:34Z</time>
      </trkpt>
      <trkpt lat="59.8815057" lon="17.6357824">
        <ele>7.82788</ele>
        <time>2013-05-03T14:59:35Z</time>
      </trkpt>
      <trkpt lat="59.8814355" lon="17.6357222">
        <ele>7.34717</ele>
        <time>2013-05-03T14:59:36Z</time>
      </trkpt>
      <trkpt lat="59.8813692" lon="17.6356564">
        <ele>7.34717</ele>
        <time>2013-05-03T14:59:37Z</time>
      </trkpt>
      <trkpt lat="59.8813005" lon="17.6356038">
        <ele>7.34717</ele>
        <time>2013-05-03T14:59:38Z</time>
      </trkpt>
      <trkpt lat="59.8812275" lon="17.6355783">
        <ele>7.82788</ele>
        <time>2013-05-03T14:59:39Z</time>
      </trkpt>
      <trkpt lat="59.8811544" lon="17.6355746">
        <ele>8.30859</ele>
        <time>2013-05-03T14:59:40Z</time>
      </trkpt>
      <trkpt lat="59.8810798" lon="17.6355815">
        <ele>8.78918</ele>
        <time>2013-05-03T14:59:41Z</time>
      </trkpt>
      <trkpt lat="59.8810033" lon="17.6355928">
        <ele>8.78918</ele>
        <time>2013-05-03T14:59:42Z</time>
      </trkpt>
      <trkpt lat="59.8809247" lon="17.6356016">
        <ele>8.78918</ele>
        <time>2013-05-03T14:59:43Z</time>
      </trkpt>
      <trkpt lat="59.8808463" lon="17.635612">
        <ele>9.2699</ele>
        <time>2013-05-03T14:59:44Z</time>
      </trkpt>
      <trkpt lat="59.8807684" lon="17.6356212">
        <ele>9.2699</ele>
        <time>2013-05-03T14:59:45Z</time>
      </trkpt>
      <trkpt lat="59.8806907" lon="17.635627">
        <ele>9.2699</ele>
        <time>2013-05-03T14:59:46Z</time>
      </trkpt>
      <trkpt lat="59.8806129" lon="17.6356325">
        <ele>9.2699</ele>
        <time>2013-05-03T14:59:47Z</time>
      </trkpt>
      <trkpt lat="59.8805348" lon="17.6356379">
        <ele>9.2699</ele>
        <time>2013-05-03T14:59:48Z</time>
      </trkpt>
      <trkpt lat="59.8804561" lon="17.6356424">
        <ele>9.2699</ele>
        <time>2013-05-03T14:59:49Z</time>
      </trkpt>
      <trkpt lat="59.8803767" lon="17.6356456">
        <ele>8.78918</ele>
        <time>2013-05-03T14:59:50Z</time>
      </trkpt>
      <trkpt lat="59.8802967" lon="17.6356485">
        <ele>8.30859</ele>
        <time>2013-05-03T14:59:51Z</time>
      </trkpt>
      <trkpt lat="59.8802168" lon="17.6356522">
        <ele>8.30859</ele>
        <time>2013-05-03T14:59:52Z</time>
      </trkpt>
      <trkpt lat="59.8801363" lon="17.6356554">
        <ele>8.30859</ele>
        <time>2013-05-03T14:59:53Z</time>
      </trkpt>
      <trkpt lat="59.880056" lon="17.6356597">
        <ele>8.30859</ele>
        <time>2013-05-03T14:59:54Z</time>
      </trkpt>
      <trkpt lat="59.8799748" lon="17.6356637">
        <ele>8.30859</ele>
        <time>2013-05-03T14:59:55Z</time>
      </trkpt>
      <trkpt lat="59.8798929" lon="17.6356682">
        <ele>8.30859</ele>
        <time>2013-05-03T14:59:56Z</time>
      </trkpt>
      <trkpt lat="59.8798101" lon="17.6356727">
        <ele>8.30859</ele>
        <time>2013-05-03T14:59:57Z</time>
      </trkpt>
      <trkpt lat="59.8797264" lon="17.6356776">
        <ele>8.30859</ele>
        <time>2013-05-03T14:59:58Z</time>
      </trkpt>
      <trkpt lat="59.8796425" lon="17.6356848">
        <ele>7.82788</ele>
        <time>2013-05-03T14:59:59Z</time>
      </trkpt>
      <trkpt lat="59.8795574" lon="17.6356896">
        <ele>7.34717</ele>
        <time>2013-05-03T15:00:00Z</time>
      </trkpt>
      <trkpt lat="59.8794724" lon="17.6356932">
        <ele>6.86646</ele>
        <time>2013-05-03T15:00:01Z</time>
      </trkpt>
      <trkpt lat="59.879387" lon="17.6356969">
        <ele>6.38586</ele>
        <time>2013-05-03T15:00:02Z</time>
      </trkpt>
      <trkpt lat="59.8793001" lon="17.6356892">
        <ele>5.90527</ele>
        <time>2013-05-03T15:00:03Z</time>
      </trkpt>
      <trkpt lat="59.8792098" lon="17.6356948">
        <ele>5.42456</ele>
        <time>2013-05-03T15:00:04Z</time>
      </trkpt>
      <trkpt lat="59.8791207" lon="17.6357009">
        <ele>4.94385</ele>
        <time>2013-05-03T15:00:05Z</time>
      </trkpt>
      <trkpt lat="59.8790327" lon="17.6357067">
        <ele>4.94385</ele>
        <time>2013-05-03T15:00:06Z</time>
      </trkpt>
      <trkpt lat="59.878945" lon="17.6357104">
        <ele>4.46326</ele>
        <time>2013-05-03T15:00:07Z</time>
      </trkpt>
      <trkpt lat="59.8788582" lon="17.6357151">
        <ele>4.46326</ele>
        <time>2013-05-03T15:00:08Z</time>
      </trkpt>
      <trkpt lat="59.8787716" lon="17.6357179">
        <ele>3.98267</ele>
        <time>2013-05-03T15:00:09Z</time>
      </trkpt>
      <trkpt lat="59.8786854" lon="17.6357206">
        <ele>3.50195</ele>
        <time>2013-05-03T15:00:10Z</time>
      </trkpt>
      <trkpt lat="59.8785981" lon="17.6357232">
        <ele>3.02124</ele>
        <time>2013-05-03T15:00:11Z</time>
      </trkpt>
      <trkpt lat="59.8785108" lon="17.6357346">
        <ele>3.02124</ele>
        <time>2013-05-03T15:00:12Z</time>
      </trkpt>
      <trkpt lat="59.8784239" lon="17.6357421">
        <ele>3.50195</ele>
        <time>2013-05-03T15:00:13Z</time>
      </trkpt>
      <trkpt lat="59.8783365" lon="17.6357503">
        <ele>3.50195</ele>
        <time>2013-05-03T15:00:14Z</time>
      </trkpt>
      <trkpt lat="59.8782497" lon="17.6357586">
        <ele>3.50195</ele>
        <time>2013-05-03T15:00:15Z</time>
      </trkpt>
      <trkpt lat="59.8781629" lon="17.6357656">
        <ele>3.50195</ele>
        <time>2013-05-03T15:00:16Z</time>
      </trkpt>
      <trkpt lat="59.8780747" lon="17.6357706">
        <ele>3.50195</ele>
        <time>2013-05-03T15:00:17Z</time>
      </trkpt>
      <trkpt lat="59.8779862" lon="17.6357762">
        <ele>3.50195</ele>
        <time>2013-05-03T15:00:18Z</time>
      </trkpt>
      <trkpt lat="59.877897" lon="17.6357818">
        <ele>3.50195</ele>
        <time>2013-05-03T15:00:19Z</time>
      </trkpt>
      <trkpt lat="59.8778081" lon="17.6357864">
        <ele>3.50195</ele>
        <time>2013-05-03T15:00:20Z</time>
      </trkpt>
      <trkpt lat="59.8777195" lon="17.635792">
        <ele>3.50195</ele>
        <time>2013-05-03T15:00:21Z</time>
      </trkpt>
      <trkpt lat="59.8776319" lon="17.6357974">
        <ele>3.50195</ele>
        <time>2013-05-03T15:00:22Z</time>
      </trkpt>
      <trkpt lat="59.8775447" lon="17.6358015">
        <ele>3.98267</ele>
        <time>2013-05-03T15:00:23Z</time>
      </trkpt>
      <trkpt lat="59.8774569" lon="17.6358057">
        <ele>3.98267</ele>
        <time>2013-05-03T15:00:24Z</time>
      </trkpt>
      <trkpt lat="59.8773707" lon="17.6358138">
        <ele>3.98267</ele>
        <time>2013-05-03T15:00:25Z</time>
      </trkpt>
      <trkpt lat="59.8772855" lon="17.6358207">
        <ele>3.98267</ele>
        <time>2013-05-03T15:00:26Z</time>
      </trkpt>
      <trkpt lat="59.8772011" lon="17.6358259">
        <ele>3.98267</ele>
        <time>2013-05-03T15:00:27Z</time>
      </trkpt>
      <trkpt lat="59.8771169" lon="17.6358291">
        <ele>3.98267</ele>
        <time>2013-05-03T15:00:28Z</time>
      </trkpt>
      <trkpt lat="59.8770335" lon="17.6358324">
        <ele>3.98267</ele>
        <time>2013-05-03T15:00:29Z</time>
      </trkpt>
      <trkpt lat="59.8769499" lon="17.6358362">
        <ele>3.98267</ele>
        <time>2013-05-03T15:00:30Z</time>
      </trkpt>
      <trkpt lat="59.8768679" lon="17.6358414">
        <ele>3.98267</ele>
        <time>2013-05-03T15:00:31Z</time>
      </trkpt>
      <trkpt lat="59.8767874" lon="17.6358466">
        <ele>3.98267</ele>
        <time>2013-05-03T15:00:32Z</time>
      </trkpt>
      <trkpt lat="59.8767073" lon="17.6358528">
        <ele>3.98267</ele>
        <time>2013-05-03T15:00:33Z</time>
      </trkpt>
      <trkpt lat="59.8766275" lon="17.6358602">
        <ele>3.98267</ele>
        <time>2013-05-03T15:00:34Z</time>
      </trkpt>
      <trkpt lat="59.8765479" lon="17.6358684">
        <ele>3.98267</ele>
        <time>2013-05-03T15:00:35Z</time>
      </trkpt>
      <trkpt lat="59.876468" lon="17.6358781">
        <ele>3.98267</ele>
        <time>2013-05-03T15:00:36Z</time>
      </trkpt>
      <trkpt lat="59.8763877" lon="17.6358892">
        <ele>3.98267</ele>
        <time>2013-05-03T15:00:37Z</time>
      </trkpt>
      <trkpt lat="59.8763073" lon="17.6359005">
        <ele>3.98267</ele>
        <time>2013-05-03T15:00:38Z</time>
      </trkpt>
      <trkpt lat="59.8762265" lon="17.6359118">
        <ele>3.98267</ele>
        <time>2013-05-03T15:00:39Z</time>
      </trkpt>
      <trkpt lat="59.8761459" lon="17.6359232">
        <ele>4.46326</ele>
        <time>2013-05-03T15:00:40Z</time>
      </trkpt>
      <trkpt lat="59.8760658" lon="17.6359361">
        <ele>4.46326</ele>
        <time>2013-05-03T15:00:41Z</time>
      </trkpt>
      <trkpt lat="59.875986" lon="17.6359511">
        <ele>4.46326</ele>
        <time>2013-05-03T15:00:42Z</time>
      </trkpt>
      <trkpt lat="59.875907" lon="17.635969">
        <ele>3.98267</ele>
        <time>2013-05-03T15:00:43Z</time>
      </trkpt>
      <trkpt lat="59.8758286" lon="17.6359911">
        <ele>4.46326</ele>
        <time>2013-05-03T15:00:44Z</time>
      </trkpt>
      <trkpt lat="59.8757511" lon="17.6360159">
        <ele>4.46326</ele>
        <time>2013-05-03T15:00:45Z</time>
      </trkpt>
      <trkpt lat="59.8756749" lon="17.6360439">
        <ele>4.46326</ele>
        <time>2013-05-03T15:00:46Z</time>
      </trkpt>
      <trkpt lat="59.8755996" lon="17.6360748">
        <ele>4.46326</ele>
        <time>2013-05-03T15:00:47Z</time>
      </trkpt>
      <trkpt lat="59.8755242" lon="17.6361083">
        <ele>4.46326</ele>
        <time>2013-05-03T15:00:48Z</time>
      </trkpt>
      <trkpt lat="59.8754486" lon="17.6361444">
        <ele>4.46326</ele>
        <time>2013-05-03T15:00:49Z</time>
      </trkpt>
      <trkpt lat="59.8753734" lon="17.6361822">
        <ele>4.46326</ele>
        <time>2013-05-03T15:00:50Z</time>
      </trkpt>
      <trkpt lat="59.8752989" lon="17.6362232">
        <ele>4.46326</ele>
        <time>2013-05-03T15:00:51Z</time>
      </trkpt>
      <trkpt lat="59.8752248" lon="17.636267">
        <ele>4.46326</ele>
        <time>2013-05-03T15:00:52Z</time>
      </trkpt>
      <trkpt lat="59.8751512" lon="17.6363142">
        <ele>4.46326</ele>
        <time>2013-05-03T15:00:53Z</time>
      </trkpt>
      <trkpt lat="59.8750773" lon="17.6363635">
        <ele>4.46326</ele>
        <time>2013-05-03T15:00:54Z</time>
      </trkpt>
      <trkpt lat="59.8750036" lon="17.6364143">
        <ele>4.94385</ele>
        <time>2013-05-03T15:00:55Z</time>
      </trkpt>
      <trkpt lat="59.8749316" lon="17.6364668">
        <ele>4.94385</ele>
        <time>2013-05-03T15:00:56Z</time>
      </trkpt>
      <trkpt lat="59.8748614" lon="17.6365204">
        <ele>4.94385</ele>
        <time>2013-05-03T15:00:57Z</time>
      </trkpt>
      <trkpt lat="59.8747921" lon="17.6365744">
        <ele>4.94385</ele>
        <time>2013-05-03T15:00:58Z</time>
      </trkpt>
      <trkpt lat="59.874724" lon="17.6366293">
        <ele>4.94385</ele>
        <time>2013-05-03T15:00:59Z</time>
      </trkpt>
      <trkpt lat="59.8746579" lon="17.6366857">
        <ele>4.94385</ele>
        <time>2013-05-03T15:01:00Z</time>
      </trkpt>
      <trkpt lat="59.8745939" lon="17.6367438">
        <ele>5.42456</ele>
        <time>2013-05-03T15:01:01Z</time>
      </trkpt>
      <trkpt lat="59.8745318" lon="17.6368029">
        <ele>5.42456</ele>
        <time>2013-05-03T15:01:02Z</time>
      </trkpt>
      <trkpt lat="59.8744724" lon="17.6368634">
        <ele>5.42456</ele>
        <time>2013-05-03T15:01:03Z</time>
      </trkpt>
      <trkpt lat="59.8744168" lon="17.6369287">
        <ele>5.42456</ele>
        <time>2013-05-03T15:01:04Z</time>
      </trkpt>
      <trkpt lat="59.8743655" lon="17.6369887">
        <ele>5.42456</ele>
        <time>2013-05-03T15:01:05Z</time>
      </trkpt>
      <trkpt lat="59.874315" lon="17.6370311">
        <ele>4.46326</ele>
        <time>2013-05-03T15:01:06Z</time>
      </trkpt>
      <trkpt lat="59.8742679" lon="17.6370643">
        <ele>4.46326</ele>
        <time>2013-05-03T15:01:07Z</time>
      </trkpt>
      <trkpt lat="59.8742275" lon="17.637098">
        <ele>4.46326</ele>
        <time>2013-05-03T15:01:08Z</time>
      </trkpt>
      <trkpt lat="59.8741968" lon="17.6371344">
        <ele>3.98267</ele>
        <time>2013-05-03T15:01:09Z</time>
      </trkpt>
      <trkpt lat="59.8741748" lon="17.6371654">
        <ele>3.98267</ele>
        <time>2013-05-03T15:01:10Z</time>
      </trkpt>
      <trkpt lat="59.8741644" lon="17.6371824">
        <ele>3.98267</ele>
        <time>2013-05-03T15:01:11Z</time>
      </trkpt>
      <trkpt lat="59.8741623" lon="17.6371846">
        <ele>3.50195</ele>
        <time>2013-05-03T15:01:12Z</time>
      </trkpt>
      <trkpt lat="59.8741634" lon="17.6371845">
        <ele>3.50195</ele>
        <time>2013-05-03T15:01:13Z</time>
      </trkpt>
      <trkpt lat="59.8741184" lon="17.637224">
        <ele>5.90527</ele>
        <time>2013-05-03T15:01:22Z</time>
      </trkpt>
      <trkpt lat="59.8740969" lon="17.6372161">
        <ele>6.38586</ele>
        <time>2013-05-03T15:01:23Z</time>
      </trkpt>
      <trkpt lat="59.8740725" lon="17.6372025">
        <ele>5.90527</ele>
        <time>2013-05-03T15:01:24Z</time>
      </trkpt>
      <trkpt lat="59.8740468" lon="17.6372059">
        <ele>6.86646</ele>
        <time>2013-05-03T15:01:25Z</time>
      </trkpt>
      <trkpt lat="59.8740187" lon="17.6372286">
        <ele>7.34717</ele>
        <time>2013-05-03T15:01:26Z</time>
      </trkpt>
      <trkpt lat="59.8739874" lon="17.6372618">
        <ele>7.34717</ele>
        <time>2013-05-03T15:01:27Z</time>
      </trkpt>
      <trkpt lat="59.8739546" lon="17.6372955">
        <ele>7.82788</ele>
        <time>2013-05-03T15:01:28Z</time>
      </trkpt>
      <trkpt lat="59.8739213" lon="17.6373259">
        <ele>8.30859</ele>
        <time>2013-05-03T15:01:29Z</time>
      </trkpt>
      <trkpt lat="59.873876" lon="17.6373406">
        <ele>7.82788</ele>
        <time>2013-05-03T15:01:30Z</time>
      </trkpt>
      <trkpt lat="59.8738265" lon="17.6373939">
        <ele>7.82788</ele>
        <time>2013-05-03T15:01:31Z</time>
      </trkpt>
      <trkpt lat="59.8737836" lon="17.6374461">
        <ele>7.82788</ele>
        <time>2013-05-03T15:01:32Z</time>
      </trkpt>
      <trkpt lat="59.8737387" lon="17.637501">
        <ele>7.82788</ele>
        <time>2013-05-03T15:01:33Z</time>
      </trkpt>
      <trkpt lat="59.873694" lon="17.6375537">
        <ele>7.82788</ele>
        <time>2013-05-03T15:01:34Z</time>
      </trkpt>
      <trkpt lat="59.8736478" lon="17.6376062">
        <ele>8.30859</ele>
        <time>2013-05-03T15:01:35Z</time>
      </trkpt>
      <trkpt lat="59.8736058" lon="17.6376617">
        <ele>8.30859</ele>
        <time>2013-05-03T15:01:36Z</time>
      </trkpt>
      <trkpt lat="59.8735593" lon="17.6377062">
        <ele>8.30859</ele>
        <time>2013-05-03T15:01:37Z</time>
      </trkpt>
      <trkpt lat="59.8735153" lon="17.6377456">
        <ele>8.78918</ele>
        <time>2013-05-03T15:01:38Z</time>
      </trkpt>
      <trkpt lat="59.8734719" lon="17.6377855">
        <ele>8.30859</ele>
        <time>2013-05-03T15:01:39Z</time>
      </trkpt>
      <trkpt lat="59.8734282" lon="17.6378219">
        <ele>8.78918</ele>
        <time>2013-05-03T15:01:40Z</time>
      </trkpt>
      <trkpt lat="59.8733843" lon="17.6378482">
        <ele>8.30859</ele>
        <time>2013-05-03T15:01:41Z</time>
      </trkpt>
      <trkpt lat="59.8733383" lon="17.6378558">
        <ele>8.30859</ele>
        <time>2013-05-03T15:01:42Z</time>
      </trkpt>
      <trkpt lat="59.8732926" lon="17.6378335">
        <ele>7.82788</ele>
        <time>2013-05-03T15:01:43Z</time>
      </trkpt>
      <trkpt lat="59.8732468" lon="17.6377793">
        <ele>7.82788</ele>
        <time>2013-05-03T15:01:44Z</time>
      </trkpt>
      <trkpt lat="59.8732103" lon="17.6377003">
        <ele>7.34717</ele>
        <time>2013-05-03T15:01:45Z</time>
      </trkpt>
      <trkpt lat="59.8731833" lon="17.637605">
        <ele>7.34717</ele>
        <time>2013-05-03T15:01:46Z</time>
      </trkpt>
      <trkpt lat="59.8731595" lon="17.6375038">
        <ele>7.34717</ele>
        <time>2013-05-03T15:01:47Z</time>
      </trkpt>
      <trkpt lat="59.8731412" lon="17.6373975">
        <ele>6.86646</ele>
        <time>2013-05-03T15:01:48Z</time>
      </trkpt>
      <trkpt lat="59.8731221" lon="17.6372882">
        <ele>6.86646</ele>
        <time>2013-05-03T15:01:49Z</time>
      </trkpt>
      <trkpt lat="59.8730959" lon="17.6371827">
        <ele>6.86646</ele>
        <time>2013-05-03T15:01:50Z</time>
      </trkpt>
      <trkpt lat="59.873059" lon="17.6370836">
        <ele>6.86646</ele>
        <time>2013-05-03T15:01:51Z</time>
      </trkpt>
      <trkpt lat="59.873017" lon="17.6369837">
        <ele>6.38586</ele>
        <time>2013-05-03T15:01:52Z</time>
      </trkpt>
      <trkpt lat="59.8729786" lon="17.6368698">
        <ele>5.90527</ele>
        <time>2013-05-03T15:01:53Z</time>
      </trkpt>
      <trkpt lat="59.8729456" lon="17.6367433">
        <ele>4.94385</ele>
        <time>2013-05-03T15:01:54Z</time>
      </trkpt>
      <trkpt lat="59.8729161" lon="17.6366058">
        <ele>4.46326</ele>
        <time>2013-05-03T15:01:55Z</time>
      </trkpt>
      <trkpt lat="59.872886" lon="17.6364616">
        <ele>3.98267</ele>
        <time>2013-05-03T15:01:56Z</time>
      </trkpt>
      <trkpt lat="59.8728529" lon="17.6363164">
        <ele>3.02124</ele>
        <time>2013-05-03T15:01:57Z</time>
      </trkpt>
      <trkpt lat="59.8728175" lon="17.6361705">
        <ele>2.54065</ele>
        <time>2013-05-03T15:01:58Z</time>
      </trkpt>
      <trkpt lat="59.8727793" lon="17.6360216">
        <ele>2.06006</ele>
        <time>2013-05-03T15:01:59Z</time>
      </trkpt>
      <trkpt lat="59.8727409" lon="17.6358693">
        <ele>1.57935</ele>
        <time>2013-05-03T15:02:00Z</time>
      </trkpt>
      <trkpt lat="59.8727046" lon="17.6357125">
        <ele>1.57935</ele>
        <time>2013-05-03T15:02:01Z</time>
      </trkpt>
      <trkpt lat="59.8726714" lon="17.63556">
        <ele>0.618042</ele>
        <time>2013-05-03T15:02:02Z</time>
      </trkpt>
      <trkpt lat="59.8726259" lon="17.6354209">
        <ele>0</ele>
        <time>2013-05-03T15:02:03Z</time>
      </trkpt>
      <trkpt lat="59.8725844" lon="17.635254">
        <ele>0</ele>
        <time>2013-05-03T15:02:04Z</time>
      </trkpt>
      <trkpt lat="59.8725378" lon="17.6350965">
        <ele>0</ele>
        <time>2013-05-03T15:02:05Z</time>
      </trkpt>
      <trkpt lat="59.8724927" lon="17.6349556">
        <ele>0</ele>
        <time>2013-05-03T15:02:06Z</time>
      </trkpt>
      <trkpt lat="59.8724517" lon="17.6348209">
        <ele>0</ele>
        <time>2013-05-03T15:02:07Z</time>
      </trkpt>
      <trkpt lat="59.8724099" lon="17.6346941">
        <ele>0.618042</ele>
        <time>2013-05-03T15:02:08Z</time>
      </trkpt>
      <trkpt lat="59.8723709" lon="17.6345667">
        <ele>1.09863</ele>
        <time>2013-05-03T15:02:09Z</time>
      </trkpt>
      <trkpt lat="59.8723348" lon="17.6344454">
        <ele>1.57935</ele>
        <time>2013-05-03T15:02:10Z</time>
      </trkpt>
      <trkpt lat="59.872295" lon="17.6343262">
        <ele>2.06006</ele>
        <time>2013-05-03T15:02:11Z</time>
      </trkpt>
      <trkpt lat="59.8722564" lon="17.6342084">
        <ele>2.54065</ele>
        <time>2013-05-03T15:02:12Z</time>
      </trkpt>
      <trkpt lat="59.8722204" lon="17.6340921">
        <ele>3.02124</ele>
        <time>2013-05-03T15:02:13Z</time>
      </trkpt>
      <trkpt lat="59.8721871" lon="17.6339743">
        <ele>3.02124</ele>
        <time>2013-05-03T15:02:14Z</time>
      </trkpt>
      <trkpt lat="59.8721519" lon="17.6338321">
        <ele>2.54065</ele>
        <time>2013-05-03T15:02:15Z</time>
      </trkpt>
      <trkpt lat="59.8721144" lon="17.6337182">
        <ele>2.54065</ele>
        <time>2013-05-03T15:02:16Z</time>
      </trkpt>
      <trkpt lat="59.8720716" lon="17.6335947">
        <ele>2.54065</ele>
        <time>2013-05-03T15:02:17Z</time>
      </trkpt>
      <trkpt lat="59.8720276" lon="17.6334611">
        <ele>3.50195</ele>
        <time>2013-05-03T15:02:18Z</time>
      </trkpt>
      <trkpt lat="59.8719798" lon="17.6333147">
        <ele>3.50195</ele>
        <time>2013-05-03T15:02:19Z</time>
      </trkpt>
      <trkpt lat="59.8719525" lon="17.6331788">
        <ele>4.94385</ele>
        <time>2013-05-03T15:02:20Z</time>
      </trkpt>
      <trkpt lat="59.871916" lon="17.6330512">
        <ele>5.42456</ele>
        <time>2013-05-03T15:02:21Z</time>
      </trkpt>
      <trkpt lat="59.8718645" lon="17.6329313">
        <ele>6.38586</ele>
        <time>2013-05-03T15:02:22Z</time>
      </trkpt>
      <trkpt lat="59.8718343" lon="17.6328057">
        <ele>6.86646</ele>
        <time>2013-05-03T15:02:23Z</time>
      </trkpt>
      <trkpt lat="59.8718032" lon="17.6326857">
        <ele>7.34717</ele>
        <time>2013-05-03T15:02:24Z</time>
      </trkpt>
      <trkpt lat="59.8717738" lon="17.6325661">
        <ele>7.82788</ele>
        <time>2013-05-03T15:02:25Z</time>
      </trkpt>
      <trkpt lat="59.8717474" lon="17.632463">
        <ele>8.30859</ele>
        <time>2013-05-03T15:02:26Z</time>
      </trkpt>
      <trkpt lat="59.8717096" lon="17.6323569">
        <ele>8.78918</ele>
        <time>2013-05-03T15:02:27Z</time>
      </trkpt>
      <trkpt lat="59.8716748" lon="17.6322458">
        <ele>8.78918</ele>
        <time>2013-05-03T15:02:28Z</time>
      </trkpt>
      <trkpt lat="59.871641" lon="17.6321278">
        <ele>9.75061</ele>
        <time>2013-05-03T15:02:29Z</time>
      </trkpt>
      <trkpt lat="59.8716127" lon="17.6320008">
        <ele>9.75061</ele>
        <time>2013-05-03T15:02:30Z</time>
      </trkpt>
      <trkpt lat="59.8715801" lon="17.631872">
        <ele>9.75061</ele>
        <time>2013-05-03T15:02:31Z</time>
      </trkpt>
      <trkpt lat="59.8715498" lon="17.6317528">
        <ele>10.2312</ele>
        <time>2013-05-03T15:02:32Z</time>
      </trkpt>
      <trkpt lat="59.8715091" lon="17.6316372">
        <ele>10.7118</ele>
        <time>2013-05-03T15:02:33Z</time>
      </trkpt>
      <trkpt lat="59.8714733" lon="17.6315236">
        <ele>11.1925</ele>
        <time>2013-05-03T15:02:34Z</time>
      </trkpt>
      <trkpt lat="59.8714398" lon="17.6314104">
        <ele>11.6732</ele>
        <time>2013-05-03T15:02:35Z</time>
      </trkpt>
      <trkpt lat="59.8714055" lon="17.6312977">
        <ele>12.1538</ele>
        <time>2013-05-03T15:02:36Z</time>
      </trkpt>
      <trkpt lat="59.8713784" lon="17.6311941">
        <ele>13.5958</ele>
        <time>2013-05-03T15:02:37Z</time>
      </trkpt>
      <trkpt lat="59.8713486" lon="17.631094">
        <ele>14.0764</ele>
        <time>2013-05-03T15:02:38Z</time>
      </trkpt>
      <trkpt lat="59.8713177" lon="17.6309901">
        <ele>14.0764</ele>
        <time>2013-05-03T15:02:39Z</time>
      </trkpt>
      <trkpt lat="59.8712864" lon="17.6308804">
        <ele>14.557</ele>
        <time>2013-05-03T15:02:40Z</time>
      </trkpt>
      <trkpt lat="59.8712473" lon="17.6307621">
        <ele>15.0377</ele>
        <time>2013-05-03T15:02:41Z</time>
      </trkpt>
      <trkpt lat="59.8712019" lon="17.6306412">
        <ele>15.0377</ele>
        <time>2013-05-03T15:02:42Z</time>
      </trkpt>
      <trkpt lat="59.8711641" lon="17.6305251">
        <ele>14.557</ele>
        <time>2013-05-03T15:02:43Z</time>
      </trkpt>
      <trkpt lat="59.8711292" lon="17.6304101">
        <ele>14.557</ele>
        <time>2013-05-03T15:02:44Z</time>
      </trkpt>
      <trkpt lat="59.8710984" lon="17.6302996">
        <ele>14.557</ele>
        <time>2013-05-03T15:02:45Z</time>
      </trkpt>
      <trkpt lat="59.8710686" lon="17.6301909">
        <ele>15.5184</ele>
        <time>2013-05-03T15:02:46Z</time>
      </trkpt>
      <trkpt lat="59.871033" lon="17.6300811">
        <ele>15.0377</ele>
        <time>2013-05-03T15:02:47Z</time>
      </trkpt>
      <trkpt lat="59.8710002" lon="17.6299744">
        <ele>15.999</ele>
        <time>2013-05-03T15:02:48Z</time>
      </trkpt>
      <trkpt lat="59.8709779" lon="17.6298844">
        <ele>16.4797</ele>
        <time>2013-05-03T15:02:49Z</time>
      </trkpt>
      <trkpt lat="59.8709523" lon="17.6297906">
        <ele>15.999</ele>
        <time>2013-05-03T15:02:50Z</time>
      </trkpt>
      <trkpt lat="59.8709209" lon="17.6296912">
        <ele>15.999</ele>
        <time>2013-05-03T15:02:51Z</time>
      </trkpt>
      <trkpt lat="59.8708802" lon="17.6295771">
        <ele>16.9604</ele>
        <time>2013-05-03T15:02:52Z</time>
      </trkpt>
      <trkpt lat="59.8708497" lon="17.6294726">
        <ele>17.4412</ele>
        <time>2013-05-03T15:02:53Z</time>
      </trkpt>
      <trkpt lat="59.8707935" lon="17.6293207">
        <ele>16.4797</ele>
        <time>2013-05-03T15:02:54Z</time>
      </trkpt>
      <trkpt lat="59.8707552" lon="17.6292238">
        <ele>16.4797</ele>
        <time>2013-05-03T15:02:55Z</time>
      </trkpt>
      <trkpt lat="59.8707177" lon="17.6291835">
        <ele>16.9604</ele>
        <time>2013-05-03T15:02:56Z</time>
      </trkpt>
      <trkpt lat="59.8706977" lon="17.6290727">
        <ele>15.999</ele>
        <time>2013-05-03T15:02:57Z</time>
      </trkpt>
      <trkpt lat="59.8706742" lon="17.6289518">
        <ele>17.4412</ele>
        <time>2013-05-03T15:02:58Z</time>
      </trkpt>
      <trkpt lat="59.8706408" lon="17.6288517">
        <ele>18.8831</ele>
        <time>2013-05-03T15:02:59Z</time>
      </trkpt>
      <trkpt lat="59.8706269" lon="17.6287702">
        <ele>19.3638</ele>
        <time>2013-05-03T15:03:00Z</time>
      </trkpt>
      <trkpt lat="59.870586" lon="17.6286995">
        <ele>19.8444</ele>
        <time>2013-05-03T15:03:01Z</time>
      </trkpt>
      <trkpt lat="59.8705569" lon="17.6286063">
        <ele>20.325</ele>
        <time>2013-05-03T15:03:02Z</time>
      </trkpt>
      <trkpt lat="59.8705311" lon="17.6285214">
        <ele>20.8057</ele>
        <time>2013-05-03T15:03:03Z</time>
      </trkpt>
      <trkpt lat="59.8704906" lon="17.6284199">
        <ele>20.325</ele>
        <time>2013-05-03T15:03:04Z</time>
      </trkpt>
      <trkpt lat="59.8704684" lon="17.6283145">
        <ele>20.325</ele>
        <time>2013-05-03T15:03:05Z</time>
      </trkpt>
      <trkpt lat="59.8704361" lon="17.6282104">
        <ele>17.4412</ele>
        <time>2013-05-03T15:03:06Z</time>
      </trkpt>
      <trkpt lat="59.870414" lon="17.6281216">
        <ele>15.0377</ele>
        <time>2013-05-03T15:03:07Z</time>
      </trkpt>
      <trkpt lat="59.8703959" lon="17.6280332">
        <ele>15.0377</ele>
        <time>2013-05-03T15:03:08Z</time>
      </trkpt>
      <trkpt lat="59.8703789" lon="17.62795">
        <ele>14.557</ele>
        <time>2013-05-03T15:03:09Z</time>
      </trkpt>
      <trkpt lat="59.8703746" lon="17.6278765">
        <ele>13.5958</ele>
        <time>2013-05-03T15:03:10Z</time>
      </trkpt>
      <trkpt lat="59.8703653" lon="17.6278034">
        <ele>13.5958</ele>
        <time>2013-05-03T15:03:11Z</time>
      </trkpt>
      <trkpt lat="59.8703668" lon="17.6277336">
        <ele>14.557</ele>
        <time>2013-05-03T15:03:12Z</time>
      </trkpt>
      <trkpt lat="59.8703779" lon="17.6276722">
        <ele>13.1151</ele>
        <time>2013-05-03T15:03:13Z</time>
      </trkpt>
      <trkpt lat="59.8704067" lon="17.6276328">
        <ele>12.6344</ele>
        <time>2013-05-03T15:03:14Z</time>
      </trkpt>
      <trkpt lat="59.8704384" lon="17.6276046">
        <ele>11.6732</ele>
        <time>2013-05-03T15:03:15Z</time>
      </trkpt>
      <trkpt lat="59.8704699" lon="17.6275821">
        <ele>9.75061</ele>
        <time>2013-05-03T15:03:16Z</time>
      </trkpt>
      <trkpt lat="59.870513" lon="17.6275729">
        <ele>8.78918</ele>
        <time>2013-05-03T15:03:17Z</time>
      </trkpt>
      <trkpt lat="59.8705554" lon="17.6275585">
        <ele>6.38586</ele>
        <time>2013-05-03T15:03:18Z</time>
      </trkpt>
      <trkpt lat="59.8705972" lon="17.6275434">
        <ele>4.46326</ele>
        <time>2013-05-03T15:03:19Z</time>
      </trkpt>
      <trkpt lat="59.8706439" lon="17.6275349">
        <ele>4.46326</ele>
        <time>2013-05-03T15:03:20Z</time>
      </trkpt>
      <trkpt lat="59.8706853" lon="17.6275191">
        <ele>2.54065</ele>
        <time>2013-05-03T15:03:21Z</time>
      </trkpt>
      <trkpt lat="59.8707321" lon="17.6274858">
        <ele>0.618042</ele>
        <time>2013-05-03T15:03:22Z</time>
      </trkpt>
      <trkpt lat="59.8707876" lon="17.6274573">
        <ele>0</ele>
        <time>2013-05-03T15:03:23Z</time>
      </trkpt>
      <trkpt lat="59.8708458" lon="17.6274246">
        <ele>0</ele>
        <time>2013-05-03T15:03:24Z</time>
      </trkpt>
      <trkpt lat="59.8709301" lon="17.6273539">
        <ele>0</ele>
        <time>2013-05-03T15:03:25Z</time>
      </trkpt>
      <trkpt lat="59.8710158" lon="17.6273161">
        <ele>0</ele>
        <time>2013-05-03T15:03:26Z</time>
      </trkpt>
      <trkpt lat="59.8711003" lon="17.6272645">
        <ele>0</ele>
        <time>2013-05-03T15:03:27Z</time>
      </trkpt>
      <trkpt lat="59.8711899" lon="17.6272221">
        <ele>0</ele>
        <time>2013-05-03T15:03:28Z</time>
      </trkpt>
      <trkpt lat="59.8712773" lon="17.6271363">
        <ele>0</ele>
        <time>2013-05-03T15:03:29Z</time>
      </trkpt>
      <trkpt lat="59.8713457" lon="17.6270889">
        <ele>0</ele>
        <time>2013-05-03T15:03:30Z</time>
      </trkpt>
      <trkpt lat="59.8714173" lon="17.6270472">
        <ele>0</ele>
        <time>2013-05-03T15:03:31Z</time>
      </trkpt>
      <trkpt lat="59.8714955" lon="17.6270144">
        <ele>0</ele>
        <time>2013-05-03T15:03:32Z</time>
      </trkpt>
      <trkpt lat="59.8715867" lon="17.6269607">
        <ele>0</ele>
        <time>2013-05-03T15:03:33Z</time>
      </trkpt>
      <trkpt lat="59.8716598" lon="17.6269245">
        <ele>0</ele>
        <time>2013-05-03T15:03:34Z</time>
      </trkpt>
      <trkpt lat="59.8717412" lon="17.6268928">
        <ele>0</ele>
        <time>2013-05-03T15:03:35Z</time>
      </trkpt>
      <trkpt lat="59.8718152" lon="17.6268341">
        <ele>0</ele>
        <time>2013-05-03T15:03:36Z</time>
      </trkpt>
      <trkpt lat="59.8718867" lon="17.6267757">
        <ele>0</ele>
        <time>2013-05-03T15:03:37Z</time>
      </trkpt>
      <trkpt lat="59.8719627" lon="17.6267424">
        <ele>0</ele>
        <time>2013-05-03T15:03:38Z</time>
      </trkpt>
      <trkpt lat="59.8720288" lon="17.6266976">
        <ele>0</ele>
        <time>2013-05-03T15:03:39Z</time>
      </trkpt>
      <trkpt lat="59.8721031" lon="17.6266636">
        <ele>0</ele>
        <time>2013-05-03T15:03:40Z</time>
      </trkpt>
      <trkpt lat="59.872182" lon="17.6266227">
        <ele>0</ele>
        <time>2013-05-03T15:03:41Z</time>
      </trkpt>
      <trkpt lat="59.8722494" lon="17.626579">
        <ele>0</ele>
        <time>2013-05-03T15:03:42Z</time>
      </trkpt>
      <trkpt lat="59.8723225" lon="17.6265442">
        <ele>0</ele>
        <time>2013-05-03T15:03:43Z</time>
      </trkpt>
      <trkpt lat="59.872388" lon="17.6265197">
        <ele>0</ele>
        <time>2013-05-03T15:03:44Z</time>
      </trkpt>
      <trkpt lat="59.8724518" lon="17.6265184">
        <ele>0</ele>
        <time>2013-05-03T15:03:45Z</time>
      </trkpt>
      <trkpt lat="59.8725082" lon="17.6265452">
        <ele>0</ele>
        <time>2013-05-03T15:03:46Z</time>
      </trkpt>
      <trkpt lat="59.8725663" lon="17.6265674">
        <ele>0</ele>
        <time>2013-05-03T15:03:47Z</time>
      </trkpt>
      <trkpt lat="59.8726351" lon="17.6265834">
        <ele>0</ele>
        <time>2013-05-03T15:03:48Z</time>
      </trkpt>
      <trkpt lat="59.8726933" lon="17.6265705">
        <ele>0</ele>
        <time>2013-05-03T15:03:49Z</time>
      </trkpt>
      <trkpt lat="59.872748" lon="17.6265323">
        <ele>0</ele>
        <time>2013-05-03T15:03:50Z</time>
      </trkpt>
      <trkpt lat="59.8727956" lon="17.6264653">
        <ele>0</ele>
        <time>2013-05-03T15:03:51Z</time>
      </trkpt>
      <trkpt lat="59.8728544" lon="17.6263653">
        <ele>0</ele>
        <time>2013-05-03T15:03:52Z</time>
      </trkpt>
      <trkpt lat="59.8729036" lon="17.6262767">
        <ele>0</ele>
        <time>2013-05-03T15:03:53Z</time>
      </trkpt>
      <trkpt lat="59.8729594" lon="17.6262111">
        <ele>0.618042</ele>
        <time>2013-05-03T15:03:54Z</time>
      </trkpt>
      <trkpt lat="59.8730165" lon="17.6261702">
        <ele>0.618042</ele>
        <time>2013-05-03T15:03:55Z</time>
      </trkpt>
      <trkpt lat="59.8730719" lon="17.6261355">
        <ele>0.137451</ele>
        <time>2013-05-03T15:03:56Z</time>
      </trkpt>
      <trkpt lat="59.8731299" lon="17.6261008">
        <ele>0.137451</ele>
        <time>2013-05-03T15:03:57Z</time>
      </trkpt>
      <trkpt lat="59.873187" lon="17.6260738">
        <ele>0.137451</ele>
        <time>2013-05-03T15:03:58Z</time>
      </trkpt>
      <trkpt lat="59.8732616" lon="17.6260294">
        <ele>3.02124</ele>
        <time>2013-05-03T15:03:59Z</time>
      </trkpt>
      <trkpt lat="59.8733351" lon="17.6259812">
        <ele>5.90527</ele>
        <time>2013-05-03T15:04:00Z</time>
      </trkpt>
      <trkpt lat="59.8733972" lon="17.6259397">
        <ele>6.38586</ele>
        <time>2013-05-03T15:04:01Z</time>
      </trkpt>
      <trkpt lat="59.8734595" lon="17.6258966">
        <ele>6.38586</ele>
        <time>2013-05-03T15:04:02Z</time>
      </trkpt>
      <trkpt lat="59.8735199" lon="17.6258568">
        <ele>5.90527</ele>
        <time>2013-05-03T15:04:03Z</time>
      </trkpt>
      <trkpt lat="59.8735885" lon="17.625813">
        <ele>7.34717</ele>
        <time>2013-05-03T15:04:04Z</time>
      </trkpt>
      <trkpt lat="59.8736542" lon="17.6257823">
        <ele>7.34717</ele>
        <time>2013-05-03T15:04:05Z</time>
      </trkpt>
      <trkpt lat="59.8737226" lon="17.6257424">
        <ele>8.78918</ele>
        <time>2013-05-03T15:04:06Z</time>
      </trkpt>
      <trkpt lat="59.8737909" lon="17.6257086">
        <ele>8.78918</ele>
        <time>2013-05-03T15:04:07Z</time>
      </trkpt>
      <trkpt lat="59.8738552" lon="17.6256661">
        <ele>9.75061</ele>
        <time>2013-05-03T15:04:08Z</time>
      </trkpt>
      <trkpt lat="59.8739161" lon="17.6256304">
        <ele>9.2699</ele>
        <time>2013-05-03T15:04:09Z</time>
      </trkpt>
      <trkpt lat="59.8739853" lon="17.6255827">
        <ele>11.6732</ele>
        <time>2013-05-03T15:04:10Z</time>
      </trkpt>
      <trkpt lat="59.8740542" lon="17.6255416">
        <ele>13.5958</ele>
        <time>2013-05-03T15:04:11Z</time>
      </trkpt>
      <trkpt lat="59.8741137" lon="17.6255044">
        <ele>14.0764</ele>
        <time>2013-05-03T15:04:12Z</time>
      </trkpt>
      <trkpt lat="59.8741722" lon="17.6254693">
        <ele>14.0764</ele>
        <time>2013-05-03T15:04:13Z</time>
      </trkpt>
      <trkpt lat="59.8742317" lon="17.6254394">
        <ele>14.0764</ele>
        <time>2013-05-03T15:04:14Z</time>
      </trkpt>
      <trkpt lat="59.874289" lon="17.6254082">
        <ele>14.0764</ele>
        <time>2013-05-03T15:04:15Z</time>
      </trkpt>
      <trkpt lat="59.8743415" lon="17.6253766">
        <ele>14.0764</ele>
        <time>2013-05-03T15:04:16Z</time>
      </trkpt>
      <trkpt lat="59.8743921" lon="17.6253458">
        <ele>14.0764</ele>
        <time>2013-05-03T15:04:17Z</time>
      </trkpt>
      <trkpt lat="59.874457" lon="17.6253072">
        <ele>16.4797</ele>
        <time>2013-05-03T15:04:18Z</time>
      </trkpt>
      <trkpt lat="59.8745089" lon="17.6252738">
        <ele>16.9604</ele>
        <time>2013-05-03T15:04:19Z</time>
      </trkpt>
      <trkpt lat="59.8745564" lon="17.6252393">
        <ele>17.4412</ele>
        <time>2013-05-03T15:04:20Z</time>
      </trkpt>
      <trkpt lat="59.8746036" lon="17.6252164">
        <ele>16.9604</ele>
        <time>2013-05-03T15:04:21Z</time>
      </trkpt>
      <trkpt lat="59.8746509" lon="17.6251896">
        <ele>17.4412</ele>
        <time>2013-05-03T15:04:22Z</time>
      </trkpt>
      <trkpt lat="59.8746911" lon="17.6251693">
        <ele>15.999</ele>
        <time>2013-05-03T15:04:23Z</time>
      </trkpt>
      <trkpt lat="59.8747281" lon="17.625144">
        <ele>15.5184</ele>
        <time>2013-05-03T15:04:24Z</time>
      </trkpt>
      <trkpt lat="59.8747498" lon="17.6250959">
        <ele>14.557</ele>
        <time>2013-05-03T15:04:25Z</time>
      </trkpt>
      <trkpt lat="59.8747627" lon="17.6250394">
        <ele>14.557</ele>
        <time>2013-05-03T15:04:26Z</time>
      </trkpt>
      <trkpt lat="59.8747561" lon="17.6249879">
        <ele>14.0764</ele>
        <time>2013-05-03T15:04:27Z</time>
      </trkpt>
      <trkpt lat="59.8747387" lon="17.6249451">
        <ele>11.6732</ele>
        <time>2013-05-03T15:04:28Z</time>
      </trkpt>
      <trkpt lat="59.8747309" lon="17.6248932">
        <ele>12.1538</ele>
        <time>2013-05-03T15:04:29Z</time>
      </trkpt>
      <trkpt lat="59.8747341" lon="17.6248411">
        <ele>12.6344</ele>
        <time>2013-05-03T15:04:30Z</time>
      </trkpt>
      <trkpt lat="59.8747388" lon="17.6247934">
        <ele>13.1151</ele>
        <time>2013-05-03T15:04:31Z</time>
      </trkpt>
      <trkpt lat="59.8747387" lon="17.6247499">
        <ele>13.1151</ele>
        <time>2013-05-03T15:04:32Z</time>
      </trkpt>
      <trkpt lat="59.8747402" lon="17.6247043">
        <ele>12.6344</ele>
        <time>2013-05-03T15:04:33Z</time>
      </trkpt>
      <trkpt lat="59.8747471" lon="17.6246571">
        <ele>12.1538</ele>
        <time>2013-05-03T15:04:34Z</time>
      </trkpt>
      <trkpt lat="59.8747591" lon="17.6246079">
        <ele>13.5958</ele>
        <time>2013-05-03T15:04:35Z</time>
      </trkpt>
      <trkpt lat="59.8747716" lon="17.6245565">
        <ele>15.0377</ele>
        <time>2013-05-03T15:04:36Z</time>
      </trkpt>
      <trkpt lat="59.8747829" lon="17.624498">
        <ele>16.9604</ele>
        <time>2013-05-03T15:04:37Z</time>
      </trkpt>
      <trkpt lat="59.874786" lon="17.6244347">
        <ele>15.999</ele>
        <time>2013-05-03T15:04:38Z</time>
      </trkpt>
      <trkpt lat="59.8747953" lon="17.6243851">
        <ele>15.5184</ele>
        <time>2013-05-03T15:04:39Z</time>
      </trkpt>
      <trkpt lat="59.8748005" lon="17.6243438">
        <ele>15.0377</ele>
        <time>2013-05-03T15:04:40Z</time>
      </trkpt>
      <trkpt lat="59.8747979" lon="17.6243017">
        <ele>15.5184</ele>
        <time>2013-05-03T15:04:41Z</time>
      </trkpt>
      <trkpt lat="59.874787" lon="17.6242438">
        <ele>14.557</ele>
        <time>2013-05-03T15:04:42Z</time>
      </trkpt>
      <trkpt lat="59.8747756" lon="17.6241806">
        <ele>15.0377</ele>
        <time>2013-05-03T15:04:43Z</time>
      </trkpt>
      <trkpt lat="59.8747644" lon="17.6241068">
        <ele>14.0764</ele>
        <time>2013-05-03T15:04:44Z</time>
      </trkpt>
      <trkpt lat="59.8747566" lon="17.6240451">
        <ele>14.557</ele>
        <time>2013-05-03T15:04:45Z</time>
      </trkpt>
      <trkpt lat="59.8747487" lon="17.6239819">
        <ele>14.557</ele>
        <time>2013-05-03T15:04:46Z</time>
      </trkpt>
      <trkpt lat="59.8742865" lon="17.6226159">
        <ele>17.4412</ele>
        <time>2013-05-03T15:10:11Z</time>
      </trkpt>
      <trkpt lat="59.8742991" lon="17.6226499">
        <ele>17.4412</ele>
        <time>2013-05-03T15:10:12Z</time>
      </trkpt>
      <trkpt lat="59.8743146" lon="17.622687">
        <ele>17.4412</ele>
        <time>2013-05-03T15:10:13Z</time>
      </trkpt>
      <trkpt lat="59.8743302" lon="17.622725">
        <ele>16.9604</ele>
        <time>2013-05-03T15:10:14Z</time>
      </trkpt>
      <trkpt lat="59.8743447" lon="17.6227633">
        <ele>16.4797</ele>
        <time>2013-05-03T15:10:15Z</time>
      </trkpt>
      <trkpt lat="59.8743592" lon="17.6227984">
        <ele>16.9604</ele>
        <time>2013-05-03T15:10:16Z</time>
      </trkpt>
      <trkpt lat="59.874374" lon="17.6228285">
        <ele>16.4797</ele>
        <time>2013-05-03T15:10:17Z</time>
      </trkpt>
      <trkpt lat="59.874388" lon="17.6228559">
        <ele>16.4797</ele>
        <time>2013-05-03T15:10:18Z</time>
      </trkpt>
      <trkpt lat="59.8743996" lon="17.6228792">
        <ele>16.4797</ele>
        <time>2013-05-03T15:10:19Z</time>
      </trkpt>
      <trkpt lat="59.8744104" lon="17.6229063">
        <ele>16.9604</ele>
        <time>2013-05-03T15:10:20Z</time>
      </trkpt>
      <trkpt lat="59.8744202" lon="17.6229335">
        <ele>16.9604</ele>
        <time>2013-05-03T15:10:21Z</time>
      </trkpt>
      <trkpt lat="59.8744327" lon="17.6229612">
        <ele>17.9218</ele>
        <time>2013-05-03T15:10:22Z</time>
      </trkpt>
      <trkpt lat="59.8744462" lon="17.6229933">
        <ele>16.9604</ele>
        <time>2013-05-03T15:10:23Z</time>
      </trkpt>
      <trkpt lat="59.8744581" lon="17.6230199">
        <ele>16.9604</ele>
        <time>2013-05-03T15:10:24Z</time>
      </trkpt>
      <trkpt lat="59.87447" lon="17.6230464">
        <ele>15.5184</ele>
        <time>2013-05-03T15:10:25Z</time>
      </trkpt>
      <trkpt lat="59.8744814" lon="17.6230698">
        <ele>15.0377</ele>
        <time>2013-05-03T15:10:26Z</time>
      </trkpt>
      <trkpt lat="59.8744962" lon="17.6230938">
        <ele>15.0377</ele>
        <time>2013-05-03T15:10:27Z</time>
      </trkpt>
      <trkpt lat="59.8745063" lon="17.6231202">
        <ele>14.0764</ele>
        <time>2013-05-03T15:10:28Z</time>
      </trkpt>
      <trkpt lat="59.8745156" lon="17.6231529">
        <ele>14.0764</ele>
        <time>2013-05-03T15:10:29Z</time>
      </trkpt>
      <trkpt lat="59.8745337" lon="17.6231756">
        <ele>16.9604</ele>
        <time>2013-05-03T15:10:30Z</time>
      </trkpt>
      <trkpt lat="59.8745449" lon="17.6231955">
        <ele>17.9218</ele>
        <time>2013-05-03T15:10:31Z</time>
      </trkpt>
      <trkpt lat="59.8745558" lon="17.6232132">
        <ele>17.9218</ele>
        <time>2013-05-03T15:10:32Z</time>
      </trkpt>
      <trkpt lat="59.8745688" lon="17.6232359">
        <ele>17.9218</ele>
        <time>2013-05-03T15:10:33Z</time>
      </trkpt>
      <trkpt lat="59.8745819" lon="17.6232604">
        <ele>18.8831</ele>
        <time>2013-05-03T15:10:34Z</time>
      </trkpt>
      <trkpt lat="59.8745958" lon="17.6232852">
        <ele>19.8444</ele>
        <time>2013-05-03T15:10:35Z</time>
      </trkpt>
      <trkpt lat="59.874609" lon="17.6233116">
        <ele>20.325</ele>
        <time>2013-05-03T15:10:36Z</time>
      </trkpt>
      <trkpt lat="59.8746239" lon="17.6233424">
        <ele>20.8057</ele>
        <time>2013-05-03T15:10:37Z</time>
      </trkpt>
      <trkpt lat="59.8746374" lon="17.6233751">
        <ele>20.8057</ele>
        <time>2013-05-03T15:10:38Z</time>
      </trkpt>
      <trkpt lat="59.8746482" lon="17.6234057">
        <ele>21.2864</ele>
        <time>2013-05-03T15:10:39Z</time>
      </trkpt>
      <trkpt lat="59.8746573" lon="17.6234375">
        <ele>20.8057</ele>
        <time>2013-05-03T15:10:40Z</time>
      </trkpt>
      <trkpt lat="59.8746651" lon="17.6234676">
        <ele>19.8444</ele>
        <time>2013-05-03T15:10:41Z</time>
      </trkpt>
      <trkpt lat="59.8751117" lon="17.6245881">
        <ele>17.4412</ele>
        <time>2013-05-03T15:12:21Z</time>
      </trkpt>
      <trkpt lat="59.8751361" lon="17.6245787">
        <ele>17.4412</ele>
        <time>2013-05-03T15:12:22Z</time>
      </trkpt>
      <trkpt lat="59.8751642" lon="17.6245736">
        <ele>17.9218</ele>
        <time>2013-05-03T15:12:23Z</time>
      </trkpt>
      <trkpt lat="59.8751933" lon="17.6245684">
        <ele>18.4023</ele>
        <time>2013-05-03T15:12:24Z</time>
      </trkpt>
      <trkpt lat="59.8752168" lon="17.6245601">
        <ele>18.8831</ele>
        <time>2013-05-03T15:12:25Z</time>
      </trkpt>
      <trkpt lat="59.8752489" lon="17.6245461">
        <ele>18.4023</ele>
        <time>2013-05-03T15:12:26Z</time>
      </trkpt>
      <trkpt lat="59.8752793" lon="17.6245287">
        <ele>18.8831</ele>
        <time>2013-05-03T15:12:27Z</time>
      </trkpt>
      <trkpt lat="59.875308" lon="17.6245101">
        <ele>18.8831</ele>
        <time>2013-05-03T15:12:28Z</time>
      </trkpt>
      <trkpt lat="59.8753387" lon="17.624494">
        <ele>19.3638</ele>
        <time>2013-05-03T15:12:29Z</time>
      </trkpt>
      <trkpt lat="59.8753743" lon="17.6244792">
        <ele>20.325</ele>
        <time>2013-05-03T15:12:30Z</time>
      </trkpt>
      <trkpt lat="59.8754102" lon="17.6244668">
        <ele>20.8057</ele>
        <time>2013-05-03T15:12:31Z</time>
      </trkpt>
      <trkpt lat="59.8754414" lon="17.6244515">
        <ele>20.325</ele>
        <time>2013-05-03T15:12:32Z</time>
      </trkpt>
      <trkpt lat="59.8754766" lon="17.6244329">
        <ele>20.325</ele>
        <time>2013-05-03T15:12:33Z</time>
      </trkpt>
      <trkpt lat="59.8755179" lon="17.6244132">
        <ele>20.325</ele>
        <time>2013-05-03T15:12:34Z</time>
      </trkpt>
      <trkpt lat="59.875561" lon="17.624386">
        <ele>19.8444</ele>
        <time>2013-05-03T15:12:35Z</time>
      </trkpt>
      <trkpt lat="59.8756098" lon="17.6243492">
        <ele>19.8444</ele>
        <time>2013-05-03T15:12:36Z</time>
      </trkpt>
      <trkpt lat="59.8756628" lon="17.6242992">
        <ele>19.3638</ele>
        <time>2013-05-03T15:12:37Z</time>
      </trkpt>
      <trkpt lat="59.8757257" lon="17.6242556">
        <ele>18.8831</ele>
        <time>2013-05-03T15:12:38Z</time>
      </trkpt>
      <trkpt lat="59.8758008" lon="17.6242179">
        <ele>19.3638</ele>
        <time>2013-05-03T15:12:39Z</time>
      </trkpt>
      <trkpt lat="59.8758759" lon="17.6241744">
        <ele>19.8444</ele>
        <time>2013-05-03T15:12:40Z</time>
      </trkpt>
      <trkpt lat="59.8759508" lon="17.6241316">
        <ele>19.3638</ele>
        <time>2013-05-03T15:12:41Z</time>
      </trkpt>
      <trkpt lat="59.876026" lon="17.6240872">
        <ele>18.8831</ele>
        <time>2013-05-03T15:12:42Z</time>
      </trkpt>
      <trkpt lat="59.8761033" lon="17.6240361">
        <ele>18.8831</ele>
        <time>2013-05-03T15:12:43Z</time>
      </trkpt>
      <trkpt lat="59.8761804" lon="17.6239879">
        <ele>17.9218</ele>
        <time>2013-05-03T15:12:44Z</time>
      </trkpt>
      <trkpt lat="59.8762587" lon="17.6239436">
        <ele>17.4412</ele>
        <time>2013-05-03T15:12:45Z</time>
      </trkpt>
      <trkpt lat="59.8763433" lon="17.623908">
        <ele>16.9604</ele>
        <time>2013-05-03T15:12:46Z</time>
      </trkpt>
      <trkpt lat="59.876429" lon="17.6238682">
        <ele>17.9218</ele>
        <time>2013-05-03T15:12:47Z</time>
      </trkpt>
      <trkpt lat="59.8765154" lon="17.6238254">
        <ele>18.4023</ele>
        <time>2013-05-03T15:12:48Z</time>
      </trkpt>
      <trkpt lat="59.8765986" lon="17.623779">
        <ele>19.3638</ele>
        <time>2013-05-03T15:12:49Z</time>
      </trkpt>
      <trkpt lat="59.876675" lon="17.6237278">
        <ele>18.8831</ele>
        <time>2013-05-03T15:12:50Z</time>
      </trkpt>
      <trkpt lat="59.8767506" lon="17.6236726">
        <ele>18.8831</ele>
        <time>2013-05-03T15:12:51Z</time>
      </trkpt>
      <trkpt lat="59.8768234" lon="17.6236205">
        <ele>18.8831</ele>
        <time>2013-05-03T15:12:52Z</time>
      </trkpt>
      <trkpt lat="59.8769" lon="17.6235796">
        <ele>19.3638</ele>
        <time>2013-05-03T15:12:53Z</time>
      </trkpt>
      <trkpt lat="59.8769718" lon="17.62355">
        <ele>20.325</ele>
        <time>2013-05-03T15:12:54Z</time>
      </trkpt>
      <trkpt lat="59.8770322" lon="17.6235193">
        <ele>20.325</ele>
        <time>2013-05-03T15:12:55Z</time>
      </trkpt>
      <trkpt lat="59.8770881" lon="17.6234903">
        <ele>20.8057</ele>
        <time>2013-05-03T15:12:56Z</time>
      </trkpt>
      <trkpt lat="59.8771412" lon="17.6234737">
        <ele>21.2864</ele>
        <time>2013-05-03T15:12:57Z</time>
      </trkpt>
      <trkpt lat="59.8772015" lon="17.6234396">
        <ele>22.2476</ele>
        <time>2013-05-03T15:12:58Z</time>
      </trkpt>
      <trkpt lat="59.8772555" lon="17.6234174">
        <ele>23.209</ele>
        <time>2013-05-03T15:12:59Z</time>
      </trkpt>
      <trkpt lat="59.8773054" lon="17.6233936">
        <ele>23.209</ele>
        <time>2013-05-03T15:13:00Z</time>
      </trkpt>
      <trkpt lat="59.8773555" lon="17.6233771">
        <ele>22.7283</ele>
        <time>2013-05-03T15:13:01Z</time>
      </trkpt>
      <trkpt lat="59.8774035" lon="17.6233594">
        <ele>22.7283</ele>
        <time>2013-05-03T15:13:02Z</time>
      </trkpt>
      <trkpt lat="59.8774517" lon="17.6233349">
        <ele>22.2476</ele>
        <time>2013-05-03T15:13:03Z</time>
      </trkpt>
      <trkpt lat="59.8775046" lon="17.62331">
        <ele>22.7283</ele>
        <time>2013-05-03T15:13:04Z</time>
      </trkpt>
      <trkpt lat="59.8775491" lon="17.623281">
        <ele>22.7283</ele>
        <time>2013-05-03T15:13:05Z</time>
      </trkpt>
      <trkpt lat="59.8775882" lon="17.6232512">
        <ele>22.7283</ele>
        <time>2013-05-03T15:13:06Z</time>
      </trkpt>
      <trkpt lat="59.877634" lon="17.6232309">
        <ele>23.6896</ele>
        <time>2013-05-03T15:13:07Z</time>
      </trkpt>
      <trkpt lat="59.8776816" lon="17.6232047">
        <ele>24.1703</ele>
        <time>2013-05-03T15:13:08Z</time>
      </trkpt>
      <trkpt lat="59.8777318" lon="17.6231783">
        <ele>24.651</ele>
        <time>2013-05-03T15:13:09Z</time>
      </trkpt>
      <trkpt lat="59.8777786" lon="17.6231517">
        <ele>25.6123</ele>
        <time>2013-05-03T15:13:10Z</time>
      </trkpt>
      <trkpt lat="59.8778229" lon="17.6231362">
        <ele>25.6123</ele>
        <time>2013-05-03T15:13:11Z</time>
      </trkpt>
      <trkpt lat="59.8778646" lon="17.62312">
        <ele>26.0929</ele>
        <time>2013-05-03T15:13:12Z</time>
      </trkpt>
      <trkpt lat="59.8779101" lon="17.6230989">
        <ele>25.6123</ele>
        <time>2013-05-03T15:13:13Z</time>
      </trkpt>
      <trkpt lat="59.8779602" lon="17.6230771">
        <ele>25.1317</ele>
        <time>2013-05-03T15:13:14Z</time>
      </trkpt>
      <trkpt lat="59.8780122" lon="17.6230541">
        <ele>25.1317</ele>
        <time>2013-05-03T15:13:15Z</time>
      </trkpt>
      <trkpt lat="59.8780607" lon="17.6230316">
        <ele>24.1703</ele>
        <time>2013-05-03T15:13:16Z</time>
      </trkpt>
      <trkpt lat="59.8781101" lon="17.6230046">
        <ele>23.6896</ele>
        <time>2013-05-03T15:13:17Z</time>
      </trkpt>
      <trkpt lat="59.8781651" lon="17.6229724">
        <ele>24.1703</ele>
        <time>2013-05-03T15:13:18Z</time>
      </trkpt>
      <trkpt lat="59.8782178" lon="17.6229424">
        <ele>23.6896</ele>
        <time>2013-05-03T15:13:19Z</time>
      </trkpt>
      <trkpt lat="59.8782691" lon="17.6229172">
        <ele>23.209</ele>
        <time>2013-05-03T15:13:20Z</time>
      </trkpt>
      <trkpt lat="59.8783249" lon="17.6228922">
        <ele>23.209</ele>
        <time>2013-05-03T15:13:21Z</time>
      </trkpt>
      <trkpt lat="59.8783723" lon="17.6228673">
        <ele>22.2476</ele>
        <time>2013-05-03T15:13:22Z</time>
      </trkpt>
      <trkpt lat="59.8784245" lon="17.6228379">
        <ele>22.2476</ele>
        <time>2013-05-03T15:13:23Z</time>
      </trkpt>
      <trkpt lat="59.8784779" lon="17.6228067">
        <ele>21.767</ele>
        <time>2013-05-03T15:13:24Z</time>
      </trkpt>
      <trkpt lat="59.8785318" lon="17.6227771">
        <ele>21.2864</ele>
        <time>2013-05-03T15:13:25Z</time>
      </trkpt>
      <trkpt lat="59.8785859" lon="17.6227451">
        <ele>21.2864</ele>
        <time>2013-05-03T15:13:26Z</time>
      </trkpt>
      <trkpt lat="59.87864" lon="17.6227128">
        <ele>20.8057</ele>
        <time>2013-05-03T15:13:27Z</time>
      </trkpt>
      <trkpt lat="59.8786919" lon="17.6226762">
        <ele>19.8444</ele>
        <time>2013-05-03T15:13:28Z</time>
      </trkpt>
      <trkpt lat="59.878739" lon="17.6226447">
        <ele>19.3638</ele>
        <time>2013-05-03T15:13:29Z</time>
      </trkpt>
      <trkpt lat="59.8787913" lon="17.6226176">
        <ele>20.325</ele>
        <time>2013-05-03T15:13:30Z</time>
      </trkpt>
      <trkpt lat="59.8788328" lon="17.6225985">
        <ele>19.8444</ele>
        <time>2013-05-03T15:13:31Z</time>
      </trkpt>
      <trkpt lat="59.8788679" lon="17.6225781">
        <ele>19.3638</ele>
        <time>2013-05-03T15:13:32Z</time>
      </trkpt>
      <trkpt lat="59.8788955" lon="17.6225537">
        <ele>19.3638</ele>
        <time>2013-05-03T15:13:33Z</time>
      </trkpt>
      <trkpt lat="59.8789161" lon="17.6225305">
        <ele>18.8831</ele>
        <time>2013-05-03T15:13:34Z</time>
      </trkpt>
      <trkpt lat="59.8789326" lon="17.6225147">
        <ele>18.8831</ele>
        <time>2013-05-03T15:13:35Z</time>
      </trkpt>
      <trkpt lat="59.8789489" lon="17.6225084">
        <ele>18.8831</ele>
        <time>2013-05-03T15:13:36Z</time>
      </trkpt>
      <trkpt lat="59.8789618" lon="17.6225087">
        <ele>18.8831</ele>
        <time>2013-05-03T15:13:37Z</time>
      </trkpt>
      <trkpt lat="59.8789714" lon="17.6225103">
        <ele>19.3638</ele>
        <time>2013-05-03T15:13:38Z</time>
      </trkpt>
      <trkpt lat="59.8789771" lon="17.6225126">
        <ele>19.3638</ele>
        <time>2013-05-03T15:13:39Z</time>
      </trkpt>
      <trkpt lat="59.8789761" lon="17.6225171">
        <ele>19.3638</ele>
        <time>2013-05-03T15:13:40Z</time>
      </trkpt>
      <trkpt lat="59.8789709" lon="17.6225253">
        <ele>19.3638</ele>
        <time>2013-05-03T15:13:41Z</time>
      </trkpt>
      <trkpt lat="59.8789683" lon="17.6225289">
        <ele>19.3638</ele>
        <time>2013-05-03T15:13:42Z</time>
      </trkpt>
      <trkpt lat="59.8789668" lon="17.6225385">
        <ele>19.3638</ele>
        <time>2013-05-03T15:13:43Z</time>
      </trkpt>
      <trkpt lat="59.8789654" lon="17.6225452">
        <ele>19.8444</ele>
        <time>2013-05-03T15:13:44Z</time>
      </trkpt>
      <trkpt lat="59.8789648" lon="17.6225488">
        <ele>19.8444</ele>
        <time>2013-05-03T15:13:45Z</time>
      </trkpt>
      <trkpt lat="59.8789687" lon="17.6225708">
        <ele>19.8444</ele>
        <time>2013-05-03T15:13:46Z</time>
      </trkpt>
      <trkpt lat="59.8789742" lon="17.6226026">
        <ele>19.8444</ele>
        <time>2013-05-03T15:13:47Z</time>
      </trkpt>
      <trkpt lat="59.8789776" lon="17.6226311">
        <ele>19.8444</ele>
        <time>2013-05-03T15:13:48Z</time>
      </trkpt>
      <trkpt lat="59.8789801" lon="17.6226559">
        <ele>19.8444</ele>
        <time>2013-05-03T15:13:49Z</time>
      </trkpt>
      <trkpt lat="59.8789824" lon="17.6226818">
        <ele>19.8444</ele>
        <time>2013-05-03T15:13:50Z</time>
      </trkpt>
      <trkpt lat="59.8789867" lon="17.6227078">
        <ele>19.8444</ele>
        <time>2013-05-03T15:13:51Z</time>
      </trkpt>
      <trkpt lat="59.8789943" lon="17.6227383">
        <ele>19.3638</ele>
        <time>2013-05-03T15:13:52Z</time>
      </trkpt>
      <trkpt lat="59.8790082" lon="17.6227626">
        <ele>19.3638</ele>
        <time>2013-05-03T15:13:53Z</time>
      </trkpt>
      <trkpt lat="59.8790285" lon="17.6227698">
        <ele>19.3638</ele>
        <time>2013-05-03T15:13:54Z</time>
      </trkpt>
      <trkpt lat="59.8790493" lon="17.622769">
        <ele>18.8831</ele>
        <time>2013-05-03T15:13:55Z</time>
      </trkpt>
      <trkpt lat="59.8790719" lon="17.6227736">
        <ele>18.4023</ele>
        <time>2013-05-03T15:13:56Z</time>
      </trkpt>
      <trkpt lat="59.8790955" lon="17.6227761">
        <ele>18.4023</ele>
        <time>2013-05-03T15:13:57Z</time>
      </trkpt>
      <trkpt lat="59.8791202" lon="17.6227741">
        <ele>17.9218</ele>
        <time>2013-05-03T15:13:58Z</time>
      </trkpt>
      <trkpt lat="59.8791431" lon="17.6227701">
        <ele>17.9218</ele>
        <time>2013-05-03T15:13:59Z</time>
      </trkpt>
      <trkpt lat="59.8791592" lon="17.6227617">
        <ele>17.9218</ele>
        <time>2013-05-03T15:14:00Z</time>
      </trkpt>
      <trkpt lat="59.8791641" lon="17.6227487">
        <ele>17.4412</ele>
        <time>2013-05-03T15:14:01Z</time>
      </trkpt>
      <trkpt lat="59.8791649" lon="17.6227475">
        <ele>17.4412</ele>
        <time>2013-05-03T15:14:02Z</time>
      </trkpt>
      <trkpt lat="59.8791638" lon="17.6227409">
        <ele>17.4412</ele>
        <time>2013-05-03T15:14:03Z</time>
      </trkpt>
      <trkpt lat="59.879162" lon="17.6227342">
        <ele>16.9604</ele>
        <time>2013-05-03T15:14:04Z</time>
      </trkpt>
      <trkpt lat="59.87916" lon="17.6227283">
        <ele>16.4797</ele>
        <time>2013-05-03T15:14:05Z</time>
      </trkpt>
      <trkpt lat="59.8791585" lon="17.6227222">
        <ele>15.999</ele>
        <time>2013-05-03T15:14:06Z</time>
      </trkpt>
      <trkpt lat="59.8791596" lon="17.6227159">
        <ele>15.5184</ele>
        <time>2013-05-03T15:14:07Z</time>
      </trkpt>
      <trkpt lat="59.8791706" lon="17.6227012">
        <ele>15.5184</ele>
        <time>2013-05-03T15:14:08Z</time>
      </trkpt>
      <trkpt lat="59.8791896" lon="17.6226757">
        <ele>15.5184</ele>
        <time>2013-05-03T15:14:09Z</time>
      </trkpt>
      <trkpt lat="59.8792176" lon="17.6226529">
        <ele>15.5184</ele>
        <time>2013-05-03T15:14:10Z</time>
      </trkpt>
      <trkpt lat="59.8792552" lon="17.6226333">
        <ele>15.0377</ele>
        <time>2013-05-03T15:14:11Z</time>
      </trkpt>
      <trkpt lat="59.8793015" lon="17.6226152">
        <ele>14.557</ele>
        <time>2013-05-03T15:14:12Z</time>
      </trkpt>
      <trkpt lat="59.8793548" lon="17.622599">
        <ele>14.0764</ele>
        <time>2013-05-03T15:14:13Z</time>
      </trkpt>
      <trkpt lat="59.8794122" lon="17.6225869">
        <ele>14.0764</ele>
        <time>2013-05-03T15:14:14Z</time>
      </trkpt>
      <trkpt lat="59.8794765" lon="17.6225737">
        <ele>14.557</ele>
        <time>2013-05-03T15:14:15Z</time>
      </trkpt>
      <trkpt lat="59.8795419" lon="17.6225622">
        <ele>15.0377</ele>
        <time>2013-05-03T15:14:16Z</time>
      </trkpt>
      <trkpt lat="59.8796109" lon="17.6225596">
        <ele>15.0377</ele>
        <time>2013-05-03T15:14:17Z</time>
      </trkpt>
      <trkpt lat="59.8796827" lon="17.6225677">
        <ele>15.5184</ele>
        <time>2013-05-03T15:14:18Z</time>
      </trkpt>
      <trkpt lat="59.8797543" lon="17.6225888">
        <ele>15.5184</ele>
        <time>2013-05-03T15:14:19Z</time>
      </trkpt>
      <trkpt lat="59.8798232" lon="17.6226245">
        <ele>15.0377</ele>
        <time>2013-05-03T15:14:20Z</time>
      </trkpt>
      <trkpt lat="59.8798867" lon="17.6226652">
        <ele>15.0377</ele>
        <time>2013-05-03T15:14:21Z</time>
      </trkpt>
      <trkpt lat="59.8799475" lon="17.6227197">
        <ele>15.0377</ele>
        <time>2013-05-03T15:14:22Z</time>
      </trkpt>
      <trkpt lat="59.8800055" lon="17.622791">
        <ele>15.0377</ele>
        <time>2013-05-03T15:14:23Z</time>
      </trkpt>
      <trkpt lat="59.8800604" lon="17.6228777">
        <ele>15.0377</ele>
        <time>2013-05-03T15:14:24Z</time>
      </trkpt>
      <trkpt lat="59.8801125" lon="17.622978">
        <ele>15.0377</ele>
        <time>2013-05-03T15:14:25Z</time>
      </trkpt>
      <trkpt lat="59.8801641" lon="17.6230916">
        <ele>15.0377</ele>
        <time>2013-05-03T15:14:26Z</time>
      </trkpt>
      <trkpt lat="59.88022" lon="17.6232018">
        <ele>15.5184</ele>
        <time>2013-05-03T15:14:27Z</time>
      </trkpt>
      <trkpt lat="59.8802833" lon="17.6232987">
        <ele>15.999</ele>
        <time>2013-05-03T15:14:28Z</time>
      </trkpt>
      <trkpt lat="59.8803536" lon="17.6233712">
        <ele>15.999</ele>
        <time>2013-05-03T15:14:29Z</time>
      </trkpt>
      <trkpt lat="59.8804266" lon="17.6234185">
        <ele>16.4797</ele>
        <time>2013-05-03T15:14:30Z</time>
      </trkpt>
      <trkpt lat="59.880501" lon="17.6234418">
        <ele>16.4797</ele>
        <time>2013-05-03T15:14:31Z</time>
      </trkpt>
      <trkpt lat="59.8805752" lon="17.6234413">
        <ele>16.4797</ele>
        <time>2013-05-03T15:14:32Z</time>
      </trkpt>
      <trkpt lat="59.8806473" lon="17.6234211">
        <ele>16.9604</ele>
        <time>2013-05-03T15:14:33Z</time>
      </trkpt>
      <trkpt lat="59.8807152" lon="17.6233837">
        <ele>16.9604</ele>
        <time>2013-05-03T15:14:34Z</time>
      </trkpt>
      <trkpt lat="59.8807784" lon="17.6233273">
        <ele>17.4412</ele>
        <time>2013-05-03T15:14:35Z</time>
      </trkpt>
      <trkpt lat="59.8808367" lon="17.623256">
        <ele>17.4412</ele>
        <time>2013-05-03T15:14:36Z</time>
      </trkpt>
      <trkpt lat="59.8808892" lon="17.6231722">
        <ele>17.4412</ele>
        <time>2013-05-03T15:14:37Z</time>
      </trkpt>
      <trkpt lat="59.8809385" lon="17.6230748">
        <ele>17.9218</ele>
        <time>2013-05-03T15:14:38Z</time>
      </trkpt>
      <trkpt lat="59.8809825" lon="17.6229683">
        <ele>17.9218</ele>
        <time>2013-05-03T15:14:39Z</time>
      </trkpt>
      <trkpt lat="59.8810244" lon="17.622857">
        <ele>18.4023</ele>
        <time>2013-05-03T15:14:40Z</time>
      </trkpt>
      <trkpt lat="59.8810674" lon="17.6227483">
        <ele>18.4023</ele>
        <time>2013-05-03T15:14:41Z</time>
      </trkpt>
      <trkpt lat="59.8811169" lon="17.6226517">
        <ele>18.8831</ele>
        <time>2013-05-03T15:14:42Z</time>
      </trkpt>
      <trkpt lat="59.8811709" lon="17.6225637">
        <ele>18.8831</ele>
        <time>2013-05-03T15:14:43Z</time>
      </trkpt>
      <trkpt lat="59.8812285" lon="17.6224819">
        <ele>19.3638</ele>
        <time>2013-05-03T15:14:44Z</time>
      </trkpt>
      <trkpt lat="59.8812874" lon="17.622402">
        <ele>19.8444</ele>
        <time>2013-05-03T15:14:45Z</time>
      </trkpt>
      <trkpt lat="59.881347" lon="17.6223269">
        <ele>19.8444</ele>
        <time>2013-05-03T15:14:46Z</time>
      </trkpt>
      <trkpt lat="59.8814093" lon="17.6222637">
        <ele>19.8444</ele>
        <time>2013-05-03T15:14:47Z</time>
      </trkpt>
      <trkpt lat="59.8814715" lon="17.6222058">
        <ele>19.8444</ele>
        <time>2013-05-03T15:14:48Z</time>
      </trkpt>
      <trkpt lat="59.881532" lon="17.6221438">
        <ele>19.8444</ele>
        <time>2013-05-03T15:14:49Z</time>
      </trkpt>
      <trkpt lat="59.8815915" lon="17.622079">
        <ele>19.8444</ele>
        <time>2013-05-03T15:14:50Z</time>
      </trkpt>
      <trkpt lat="59.8816512" lon="17.6220138">
        <ele>19.3638</ele>
        <time>2013-05-03T15:14:51Z</time>
      </trkpt>
      <trkpt lat="59.8817111" lon="17.6219479">
        <ele>19.3638</ele>
        <time>2013-05-03T15:14:52Z</time>
      </trkpt>
      <trkpt lat="59.8817704" lon="17.6218835">
        <ele>19.3638</ele>
        <time>2013-05-03T15:14:53Z</time>
      </trkpt>
      <trkpt lat="59.8818313" lon="17.6218213">
        <ele>19.3638</ele>
        <time>2013-05-03T15:14:54Z</time>
      </trkpt>
      <trkpt lat="59.8818893" lon="17.6217592">
        <ele>19.3638</ele>
        <time>2013-05-03T15:14:55Z</time>
      </trkpt>
      <trkpt lat="59.8819454" lon="17.6216977">
        <ele>18.8831</ele>
        <time>2013-05-03T15:14:56Z</time>
      </trkpt>
      <trkpt lat="59.8820007" lon="17.6216389">
        <ele>18.8831</ele>
        <time>2013-05-03T15:14:57Z</time>
      </trkpt>
      <trkpt lat="59.8820605" lon="17.6215856">
        <ele>18.8831</ele>
        <time>2013-05-03T15:14:58Z</time>
      </trkpt>
      <trkpt lat="59.882116" lon="17.6215365">
        <ele>18.4023</ele>
        <time>2013-05-03T15:14:59Z</time>
      </trkpt>
      <trkpt lat="59.8821716" lon="17.6214879">
        <ele>18.4023</ele>
        <time>2013-05-03T15:15:00Z</time>
      </trkpt>
      <trkpt lat="59.8822262" lon="17.621441">
        <ele>17.9218</ele>
        <time>2013-05-03T15:15:01Z</time>
      </trkpt>
      <trkpt lat="59.8822815" lon="17.6213957">
        <ele>17.4412</ele>
        <time>2013-05-03T15:15:02Z</time>
      </trkpt>
      <trkpt lat="59.8823387" lon="17.6213506">
        <ele>17.4412</ele>
        <time>2013-05-03T15:15:03Z</time>
      </trkpt>
      <trkpt lat="59.8823956" lon="17.6213066">
        <ele>17.4412</ele>
        <time>2013-05-03T15:15:04Z</time>
      </trkpt>
      <trkpt lat="59.8824518" lon="17.6212629">
        <ele>16.9604</ele>
        <time>2013-05-03T15:15:05Z</time>
      </trkpt>
      <trkpt lat="59.8825045" lon="17.6212164">
        <ele>16.4797</ele>
        <time>2013-05-03T15:15:06Z</time>
      </trkpt>
      <trkpt lat="59.8825566" lon="17.6211751">
        <ele>15.5184</ele>
        <time>2013-05-03T15:15:07Z</time>
      </trkpt>
      <trkpt lat="59.8826099" lon="17.6211383">
        <ele>15.5184</ele>
        <time>2013-05-03T15:15:08Z</time>
      </trkpt>
      <trkpt lat="59.8826623" lon="17.6211031">
        <ele>15.0377</ele>
        <time>2013-05-03T15:15:09Z</time>
      </trkpt>
      <trkpt lat="59.882713" lon="17.6210692">
        <ele>14.557</ele>
        <time>2013-05-03T15:15:10Z</time>
      </trkpt>
      <trkpt lat="59.8827632" lon="17.6210329">
        <ele>14.0764</ele>
        <time>2013-05-03T15:15:11Z</time>
      </trkpt>
      <trkpt lat="59.8828147" lon="17.6209947">
        <ele>13.5958</ele>
        <time>2013-05-03T15:15:12Z</time>
      </trkpt>
      <trkpt lat="59.882867" lon="17.6209574">
        <ele>13.5958</ele>
        <time>2013-05-03T15:15:13Z</time>
      </trkpt>
      <trkpt lat="59.8829232" lon="17.6209216">
        <ele>13.1151</ele>
        <time>2013-05-03T15:15:14Z</time>
      </trkpt>
      <trkpt lat="59.8829789" lon="17.6208873">
        <ele>12.6344</ele>
        <time>2013-05-03T15:15:15Z</time>
      </trkpt>
      <trkpt lat="59.8830363" lon="17.6208512">
        <ele>12.6344</ele>
        <time>2013-05-03T15:15:16Z</time>
      </trkpt>
      <trkpt lat="59.8830913" lon="17.6208153">
        <ele>11.6732</ele>
        <time>2013-05-03T15:15:17Z</time>
      </trkpt>
      <trkpt lat="59.8831483" lon="17.6207822">
        <ele>11.1925</ele>
        <time>2013-05-03T15:15:18Z</time>
      </trkpt>
      <trkpt lat="59.8832059" lon="17.6207517">
        <ele>10.7118</ele>
        <time>2013-05-03T15:15:19Z</time>
      </trkpt>
      <trkpt lat="59.8832667" lon="17.6207202">
        <ele>11.1925</ele>
        <time>2013-05-03T15:15:20Z</time>
      </trkpt>
      <trkpt lat="59.8833253" lon="17.6206896">
        <ele>11.1925</ele>
        <time>2013-05-03T15:15:21Z</time>
      </trkpt>
      <trkpt lat="59.8833808" lon="17.6206607">
        <ele>10.2312</ele>
        <time>2013-05-03T15:15:22Z</time>
      </trkpt>
      <trkpt lat="59.8834385" lon="17.6206316">
        <ele>10.2312</ele>
        <time>2013-05-03T15:15:23Z</time>
      </trkpt>
      <trkpt lat="59.8834974" lon="17.6206005">
        <ele>10.2312</ele>
        <time>2013-05-03T15:15:24Z</time>
      </trkpt>
      <trkpt lat="59.8835586" lon="17.6205683">
        <ele>9.75061</ele>
        <time>2013-05-03T15:15:25Z</time>
      </trkpt>
      <trkpt lat="59.8836231" lon="17.6205347">
        <ele>9.75061</ele>
        <time>2013-05-03T15:15:26Z</time>
      </trkpt>
      <trkpt lat="59.8836915" lon="17.6204988">
        <ele>9.75061</ele>
        <time>2013-05-03T15:15:27Z</time>
      </trkpt>
      <trkpt lat="59.8837607" lon="17.6204637">
        <ele>9.75061</ele>
        <time>2013-05-03T15:15:28Z</time>
      </trkpt>
      <trkpt lat="59.8838325" lon="17.6204301">
        <ele>9.2699</ele>
        <time>2013-05-03T15:15:29Z</time>
      </trkpt>
      <trkpt lat="59.8839081" lon="17.6203944">
        <ele>9.2699</ele>
        <time>2013-05-03T15:15:30Z</time>
      </trkpt>
      <trkpt lat="59.8839844" lon="17.6203572">
        <ele>9.2699</ele>
        <time>2013-05-03T15:15:31Z</time>
      </trkpt>
      <trkpt lat="59.8840693" lon="17.6203194">
        <ele>10.7118</ele>
        <time>2013-05-03T15:15:32Z</time>
      </trkpt>
      <trkpt lat="59.8841484" lon="17.6202833">
        <ele>11.1925</ele>
        <time>2013-05-03T15:15:33Z</time>
      </trkpt>
      <trkpt lat="59.8842274" lon="17.6202451">
        <ele>11.1925</ele>
        <time>2013-05-03T15:15:34Z</time>
      </trkpt>
      <trkpt lat="59.8843071" lon="17.6202058">
        <ele>11.1925</ele>
        <time>2013-05-03T15:15:35Z</time>
      </trkpt>
      <trkpt lat="59.8843868" lon="17.6201664">
        <ele>11.1925</ele>
        <time>2013-05-03T15:15:36Z</time>
      </trkpt>
      <trkpt lat="59.8844674" lon="17.620127">
        <ele>11.1925</ele>
        <time>2013-05-03T15:15:37Z</time>
      </trkpt>
      <trkpt lat="59.884549" lon="17.6200875">
        <ele>11.1925</ele>
        <time>2013-05-03T15:15:38Z</time>
      </trkpt>
      <trkpt lat="59.8846318" lon="17.6200463">
        <ele>11.6732</ele>
        <time>2013-05-03T15:15:39Z</time>
      </trkpt>
      <trkpt lat="59.8847153" lon="17.6200043">
        <ele>11.6732</ele>
        <time>2013-05-03T15:15:40Z</time>
      </trkpt>
      <trkpt lat="59.8847985" lon="17.6199632">
        <ele>11.6732</ele>
        <time>2013-05-03T15:15:41Z</time>
      </trkpt>
      <trkpt lat="59.8848823" lon="17.6199231">
        <ele>12.1538</ele>
        <time>2013-05-03T15:15:42Z</time>
      </trkpt>
      <trkpt lat="59.8849655" lon="17.6198834">
        <ele>12.1538</ele>
        <time>2013-05-03T15:15:43Z</time>
      </trkpt>
      <trkpt lat="59.8850493" lon="17.6198428">
        <ele>12.1538</ele>
        <time>2013-05-03T15:15:44Z</time>
      </trkpt>
      <trkpt lat="59.8851344" lon="17.6198026">
        <ele>12.1538</ele>
        <time>2013-05-03T15:15:45Z</time>
      </trkpt>
      <trkpt lat="59.8852208" lon="17.6197624">
        <ele>12.1538</ele>
        <time>2013-05-03T15:15:46Z</time>
      </trkpt>
      <trkpt lat="59.8853077" lon="17.6197244">
        <ele>12.6344</ele>
        <time>2013-05-03T15:15:47Z</time>
      </trkpt>
      <trkpt lat="59.8853948" lon="17.6196857">
        <ele>12.6344</ele>
        <time>2013-05-03T15:15:48Z</time>
      </trkpt>
      <trkpt lat="59.885482" lon="17.6196462">
        <ele>12.6344</ele>
        <time>2013-05-03T15:15:49Z</time>
      </trkpt>
      <trkpt lat="59.8855705" lon="17.619605">
        <ele>13.1151</ele>
        <time>2013-05-03T15:15:50Z</time>
      </trkpt>
      <trkpt lat="59.88566" lon="17.6195643">
        <ele>13.1151</ele>
        <time>2013-05-03T15:15:51Z</time>
      </trkpt>
      <trkpt lat="59.8857485" lon="17.6195245">
        <ele>13.5958</ele>
        <time>2013-05-03T15:15:52Z</time>
      </trkpt>
      <trkpt lat="59.8858383" lon="17.6194842">
        <ele>14.0764</ele>
        <time>2013-05-03T15:15:53Z</time>
      </trkpt>
      <trkpt lat="59.885927" lon="17.6194428">
        <ele>14.557</ele>
        <time>2013-05-03T15:15:54Z</time>
      </trkpt>
      <trkpt lat="59.8860145" lon="17.6194013">
        <ele>15.5184</ele>
        <time>2013-05-03T15:15:55Z</time>
      </trkpt>
      <trkpt lat="59.8861007" lon="17.6193612">
        <ele>15.999</ele>
        <time>2013-05-03T15:15:56Z</time>
      </trkpt>
      <trkpt lat="59.8861869" lon="17.6193231">
        <ele>16.4797</ele>
        <time>2013-05-03T15:15:57Z</time>
      </trkpt>
      <trkpt lat="59.8862713" lon="17.6192879">
        <ele>15.999</ele>
        <time>2013-05-03T15:15:58Z</time>
      </trkpt>
      <trkpt lat="59.886358" lon="17.6192535">
        <ele>15.999</ele>
        <time>2013-05-03T15:15:59Z</time>
      </trkpt>
      <trkpt lat="59.8864442" lon="17.6192159">
        <ele>15.999</ele>
        <time>2013-05-03T15:16:00Z</time>
      </trkpt>
      <trkpt lat="59.8865297" lon="17.6191756">
        <ele>15.999</ele>
        <time>2013-05-03T15:16:01Z</time>
      </trkpt>
      <trkpt lat="59.8866177" lon="17.619133">
        <ele>16.4797</ele>
        <time>2013-05-03T15:16:02Z</time>
      </trkpt>
      <trkpt lat="59.886707" lon="17.6190915">
        <ele>15.999</ele>
        <time>2013-05-03T15:16:03Z</time>
      </trkpt>
      <trkpt lat="59.8867982" lon="17.6190506">
        <ele>15.5184</ele>
        <time>2013-05-03T15:16:04Z</time>
      </trkpt>
      <trkpt lat="59.886891" lon="17.6190069">
        <ele>15.0377</ele>
        <time>2013-05-03T15:16:05Z</time>
      </trkpt>
      <trkpt lat="59.8869852" lon="17.6189613">
        <ele>14.557</ele>
        <time>2013-05-03T15:16:06Z</time>
      </trkpt>
      <trkpt lat="59.8870806" lon="17.6189118">
        <ele>13.5958</ele>
        <time>2013-05-03T15:16:07Z</time>
      </trkpt>
      <trkpt lat="59.8871802" lon="17.6188673">
        <ele>13.5958</ele>
        <time>2013-05-03T15:16:08Z</time>
      </trkpt>
      <trkpt lat="59.8872976" lon="17.6188133">
        <ele>12.6344</ele>
        <time>2013-05-03T15:16:09Z</time>
      </trkpt>
      <trkpt lat="59.8873907" lon="17.618759">
        <ele>12.1538</ele>
        <time>2013-05-03T15:16:10Z</time>
      </trkpt>
      <trkpt lat="59.8875027" lon="17.618707">
        <ele>11.1925</ele>
        <time>2013-05-03T15:16:11Z</time>
      </trkpt>
      <trkpt lat="59.8876135" lon="17.6186564">
        <ele>10.7118</ele>
        <time>2013-05-03T15:16:12Z</time>
      </trkpt>
      <trkpt lat="59.8877197" lon="17.6186001">
        <ele>10.2312</ele>
        <time>2013-05-03T15:16:13Z</time>
      </trkpt>
      <trkpt lat="59.8878314" lon="17.6185456">
        <ele>10.2312</ele>
        <time>2013-05-03T15:16:14Z</time>
      </trkpt>
      <trkpt lat="59.8879423" lon="17.6184889">
        <ele>10.2312</ele>
        <time>2013-05-03T15:16:15Z</time>
      </trkpt>
      <trkpt lat="59.888052" lon="17.6184321">
        <ele>10.2312</ele>
        <time>2013-05-03T15:16:16Z</time>
      </trkpt>
      <trkpt lat="59.8881624" lon="17.6183745">
        <ele>10.2312</ele>
        <time>2013-05-03T15:16:17Z</time>
      </trkpt>
      <trkpt lat="59.8882725" lon="17.6183125">
        <ele>10.7118</ele>
        <time>2013-05-03T15:16:18Z</time>
      </trkpt>
      <trkpt lat="59.8883833" lon="17.6182546">
        <ele>10.7118</ele>
        <time>2013-05-03T15:16:19Z</time>
      </trkpt>
      <trkpt lat="59.8884944" lon="17.6181989">
        <ele>10.7118</ele>
        <time>2013-05-03T15:16:20Z</time>
      </trkpt>
      <trkpt lat="59.8886054" lon="17.6181434">
        <ele>10.7118</ele>
        <time>2013-05-03T15:16:21Z</time>
      </trkpt>
      <trkpt lat="59.8887169" lon="17.6180875">
        <ele>10.7118</ele>
        <time>2013-05-03T15:16:22Z</time>
      </trkpt>
      <trkpt lat="59.8888277" lon="17.618031">
        <ele>10.7118</ele>
        <time>2013-05-03T15:16:23Z</time>
      </trkpt>
      <trkpt lat="59.8889375" lon="17.6179763">
        <ele>10.7118</ele>
        <time>2013-05-03T15:16:24Z</time>
      </trkpt>
      <trkpt lat="59.8890472" lon="17.617925">
        <ele>10.7118</ele>
        <time>2013-05-03T15:16:25Z</time>
      </trkpt>
      <trkpt lat="59.8891567" lon="17.6178741">
        <ele>10.7118</ele>
        <time>2013-05-03T15:16:26Z</time>
      </trkpt>
      <trkpt lat="59.8892663" lon="17.6178243">
        <ele>10.7118</ele>
        <time>2013-05-03T15:16:27Z</time>
      </trkpt>
      <trkpt lat="59.8893748" lon="17.6177712">
        <ele>11.1925</ele>
        <time>2013-05-03T15:16:28Z</time>
      </trkpt>
      <trkpt lat="59.8894808" lon="17.6177166">
        <ele>11.6732</ele>
        <time>2013-05-03T15:16:29Z</time>
      </trkpt>
      <trkpt lat="59.8895852" lon="17.6176644">
        <ele>12.1538</ele>
        <time>2013-05-03T15:16:30Z</time>
      </trkpt>
      <trkpt lat="59.8896884" lon="17.6176136">
        <ele>12.6344</ele>
        <time>2013-05-03T15:16:31Z</time>
      </trkpt>
      <trkpt lat="59.8897892" lon="17.6175615">
        <ele>13.1151</ele>
        <time>2013-05-03T15:16:32Z</time>
      </trkpt>
      <trkpt lat="59.8898906" lon="17.617509">
        <ele>14.0764</ele>
        <time>2013-05-03T15:16:33Z</time>
      </trkpt>
      <trkpt lat="59.8899912" lon="17.6174591">
        <ele>15.0377</ele>
        <time>2013-05-03T15:16:34Z</time>
      </trkpt>
      <trkpt lat="59.8900904" lon="17.6174101">
        <ele>15.999</ele>
        <time>2013-05-03T15:16:35Z</time>
      </trkpt>
      <trkpt lat="59.8901879" lon="17.6173618">
        <ele>16.9604</ele>
        <time>2013-05-03T15:16:36Z</time>
      </trkpt>
      <trkpt lat="59.8902833" lon="17.6173144">
        <ele>17.4412</ele>
        <time>2013-05-03T15:16:37Z</time>
      </trkpt>
      <trkpt lat="59.8903745" lon="17.6172691">
        <ele>17.9218</ele>
        <time>2013-05-03T15:16:38Z</time>
      </trkpt>
      <trkpt lat="59.8904678" lon="17.6172247">
        <ele>18.4023</ele>
        <time>2013-05-03T15:16:39Z</time>
      </trkpt>
      <trkpt lat="59.8905629" lon="17.6171823">
        <ele>19.3638</ele>
        <time>2013-05-03T15:16:40Z</time>
      </trkpt>
      <trkpt lat="59.8906501" lon="17.6171408">
        <ele>18.8831</ele>
        <time>2013-05-03T15:16:41Z</time>
      </trkpt>
      <trkpt lat="59.8907372" lon="17.6170976">
        <ele>18.8831</ele>
        <time>2013-05-03T15:16:42Z</time>
      </trkpt>
      <trkpt lat="59.8908241" lon="17.6170558">
        <ele>18.8831</ele>
        <time>2013-05-03T15:16:43Z</time>
      </trkpt>
      <trkpt lat="59.89091" lon="17.617016">
        <ele>18.8831</ele>
        <time>2013-05-03T15:16:44Z</time>
      </trkpt>
      <trkpt lat="59.8909959" lon="17.6169764">
        <ele>19.3638</ele>
        <time>2013-05-03T15:16:45Z</time>
      </trkpt>
      <trkpt lat="59.8910805" lon="17.6169351">
        <ele>19.8444</ele>
        <time>2013-05-03T15:16:46Z</time>
      </trkpt>
      <trkpt lat="59.8911632" lon="17.6168953">
        <ele>19.8444</ele>
        <time>2013-05-03T15:16:47Z</time>
      </trkpt>
      <trkpt lat="59.8912457" lon="17.6168588">
        <ele>19.3638</ele>
        <time>2013-05-03T15:16:48Z</time>
      </trkpt>
      <trkpt lat="59.8913285" lon="17.6168189">
        <ele>18.8831</ele>
        <time>2013-05-03T15:16:49Z</time>
      </trkpt>
      <trkpt lat="59.8914089" lon="17.6167748">
        <ele>18.8831</ele>
        <time>2013-05-03T15:16:50Z</time>
      </trkpt>
      <trkpt lat="59.8914872" lon="17.6167301">
        <ele>18.4023</ele>
        <time>2013-05-03T15:16:51Z</time>
      </trkpt>
      <trkpt lat="59.8915632" lon="17.6166909">
        <ele>18.4023</ele>
        <time>2013-05-03T15:16:52Z</time>
      </trkpt>
      <trkpt lat="59.8916406" lon="17.6166578">
        <ele>17.9218</ele>
        <time>2013-05-03T15:16:53Z</time>
      </trkpt>
      <trkpt lat="59.8917173" lon="17.6166248">
        <ele>17.9218</ele>
        <time>2013-05-03T15:16:54Z</time>
      </trkpt>
      <trkpt lat="59.8917922" lon="17.6165912">
        <ele>17.4412</ele>
        <time>2013-05-03T15:16:55Z</time>
      </trkpt>
      <trkpt lat="59.8918653" lon="17.6165575">
        <ele>17.4412</ele>
        <time>2013-05-03T15:16:56Z</time>
      </trkpt>
      <trkpt lat="59.8919363" lon="17.6165226">
        <ele>17.4412</ele>
        <time>2013-05-03T15:16:57Z</time>
      </trkpt>
      <trkpt lat="59.8920056" lon="17.6164865">
        <ele>16.9604</ele>
        <time>2013-05-03T15:16:58Z</time>
      </trkpt>
      <trkpt lat="59.8920757" lon="17.6164497">
        <ele>17.4412</ele>
        <time>2013-05-03T15:16:59Z</time>
      </trkpt>
      <trkpt lat="59.8921455" lon="17.6164161">
        <ele>17.9218</ele>
        <time>2013-05-03T15:17:00Z</time>
      </trkpt>
      <trkpt lat="59.8922145" lon="17.6163839">
        <ele>18.4023</ele>
        <time>2013-05-03T15:17:01Z</time>
      </trkpt>
      <trkpt lat="59.8922838" lon="17.6163535">
        <ele>18.8831</ele>
        <time>2013-05-03T15:17:02Z</time>
      </trkpt>
      <trkpt lat="59.8923517" lon="17.6163254">
        <ele>19.3638</ele>
        <time>2013-05-03T15:17:03Z</time>
      </trkpt>
      <trkpt lat="59.8924187" lon="17.6162969">
        <ele>19.3638</ele>
        <time>2013-05-03T15:17:04Z</time>
      </trkpt>
      <trkpt lat="59.8924855" lon="17.6162658">
        <ele>19.3638</ele>
        <time>2013-05-03T15:17:05Z</time>
      </trkpt>
      <trkpt lat="59.8925512" lon="17.6162337">
        <ele>19.3638</ele>
        <time>2013-05-03T15:17:06Z</time>
      </trkpt>
      <trkpt lat="59.892616" lon="17.6162017">
        <ele>19.3638</ele>
        <time>2013-05-03T15:17:07Z</time>
      </trkpt>
      <trkpt lat="59.892681" lon="17.6161698">
        <ele>19.3638</ele>
        <time>2013-05-03T15:17:08Z</time>
      </trkpt>
      <trkpt lat="59.8927458" lon="17.6161383">
        <ele>19.3638</ele>
        <time>2013-05-03T15:17:09Z</time>
      </trkpt>
      <trkpt lat="59.89281" lon="17.6161067">
        <ele>19.3638</ele>
        <time>2013-05-03T15:17:10Z</time>
      </trkpt>
      <trkpt lat="59.8928765" lon="17.6160755">
        <ele>19.8444</ele>
        <time>2013-05-03T15:17:11Z</time>
      </trkpt>
      <trkpt lat="59.8929433" lon="17.6160449">
        <ele>19.8444</ele>
        <time>2013-05-03T15:17:12Z</time>
      </trkpt>
      <trkpt lat="59.8930106" lon="17.6160126">
        <ele>19.8444</ele>
        <time>2013-05-03T15:17:13Z</time>
      </trkpt>
      <trkpt lat="59.8930776" lon="17.6159799">
        <ele>19.3638</ele>
        <time>2013-05-03T15:17:14Z</time>
      </trkpt>
      <trkpt lat="59.8931433" lon="17.6159466">
        <ele>19.3638</ele>
        <time>2013-05-03T15:17:15Z</time>
      </trkpt>
      <trkpt lat="59.8932094" lon="17.6159175">
        <ele>19.3638</ele>
        <time>2013-05-03T15:17:16Z</time>
      </trkpt>
      <trkpt lat="59.8932768" lon="17.6158804">
        <ele>18.8831</ele>
        <time>2013-05-03T15:17:17Z</time>
      </trkpt>
      <trkpt lat="59.8933515" lon="17.6158483">
        <ele>18.4023</ele>
        <time>2013-05-03T15:17:18Z</time>
      </trkpt>
      <trkpt lat="59.8934261" lon="17.6158131">
        <ele>18.4023</ele>
        <time>2013-05-03T15:17:19Z</time>
      </trkpt>
      <trkpt lat="59.8934992" lon="17.6157764">
        <ele>18.4023</ele>
        <time>2013-05-03T15:17:20Z</time>
      </trkpt>
      <trkpt lat="59.8935744" lon="17.6157376">
        <ele>18.4023</ele>
        <time>2013-05-03T15:17:21Z</time>
      </trkpt>
      <trkpt lat="59.8936525" lon="17.615701">
        <ele>18.4023</ele>
        <time>2013-05-03T15:17:22Z</time>
      </trkpt>
      <trkpt lat="59.8937332" lon="17.6156656">
        <ele>18.8831</ele>
        <time>2013-05-03T15:17:23Z</time>
      </trkpt>
      <trkpt lat="59.8938147" lon="17.6156281">
        <ele>19.3638</ele>
        <time>2013-05-03T15:17:24Z</time>
      </trkpt>
      <trkpt lat="59.8938975" lon="17.6155888">
        <ele>19.3638</ele>
        <time>2013-05-03T15:17:25Z</time>
      </trkpt>
      <trkpt lat="59.8939807" lon="17.6155484">
        <ele>19.8444</ele>
        <time>2013-05-03T15:17:26Z</time>
      </trkpt>
      <trkpt lat="59.8940638" lon="17.6155057">
        <ele>20.325</ele>
        <time>2013-05-03T15:17:27Z</time>
      </trkpt>
      <trkpt lat="59.8941456" lon="17.6154671">
        <ele>19.8444</ele>
        <time>2013-05-03T15:17:28Z</time>
      </trkpt>
      <trkpt lat="59.8942264" lon="17.6154301">
        <ele>19.8444</ele>
        <time>2013-05-03T15:17:29Z</time>
      </trkpt>
      <trkpt lat="59.8943057" lon="17.6153931">
        <ele>19.8444</ele>
        <time>2013-05-03T15:17:30Z</time>
      </trkpt>
      <trkpt lat="59.8943833" lon="17.6153566">
        <ele>19.8444</ele>
        <time>2013-05-03T15:17:31Z</time>
      </trkpt>
      <trkpt lat="59.8944593" lon="17.615323">
        <ele>19.8444</ele>
        <time>2013-05-03T15:17:32Z</time>
      </trkpt>
      <trkpt lat="59.8945355" lon="17.6152908">
        <ele>19.8444</ele>
        <time>2013-05-03T15:17:33Z</time>
      </trkpt>
      <trkpt lat="59.8946097" lon="17.6152573">
        <ele>20.325</ele>
        <time>2013-05-03T15:17:34Z</time>
      </trkpt>
      <trkpt lat="59.8946813" lon="17.6152226">
        <ele>20.325</ele>
        <time>2013-05-03T15:17:35Z</time>
      </trkpt>
      <trkpt lat="59.894751" lon="17.6151889">
        <ele>20.325</ele>
        <time>2013-05-03T15:17:36Z</time>
      </trkpt>
      <trkpt lat="59.8948191" lon="17.6151577">
        <ele>20.325</ele>
        <time>2013-05-03T15:17:37Z</time>
      </trkpt>
      <trkpt lat="59.8948872" lon="17.6151278">
        <ele>20.8057</ele>
        <time>2013-05-03T15:17:38Z</time>
      </trkpt>
      <trkpt lat="59.8949532" lon="17.615098">
        <ele>20.8057</ele>
        <time>2013-05-03T15:17:39Z</time>
      </trkpt>
      <trkpt lat="59.8950184" lon="17.6150664">
        <ele>20.325</ele>
        <time>2013-05-03T15:17:40Z</time>
      </trkpt>
      <trkpt lat="59.8950831" lon="17.6150328">
        <ele>20.325</ele>
        <time>2013-05-03T15:17:41Z</time>
      </trkpt>
      <trkpt lat="59.8951474" lon="17.6149999">
        <ele>20.325</ele>
        <time>2013-05-03T15:17:42Z</time>
      </trkpt>
      <trkpt lat="59.895212" lon="17.6149711">
        <ele>20.325</ele>
        <time>2013-05-03T15:17:43Z</time>
      </trkpt>
      <trkpt lat="59.8952773" lon="17.6149421">
        <ele>20.325</ele>
        <time>2013-05-03T15:17:44Z</time>
      </trkpt>
      <trkpt lat="59.8953436" lon="17.6149115">
        <ele>20.325</ele>
        <time>2013-05-03T15:17:45Z</time>
      </trkpt>
      <trkpt lat="59.8954078" lon="17.6148818">
        <ele>20.325</ele>
        <time>2013-05-03T15:17:46Z</time>
      </trkpt>
      <trkpt lat="59.8954702" lon="17.6148533">
        <ele>20.325</ele>
        <time>2013-05-03T15:17:47Z</time>
      </trkpt>
      <trkpt lat="59.8955313" lon="17.6148257">
        <ele>20.325</ele>
        <time>2013-05-03T15:17:48Z</time>
      </trkpt>
      <trkpt lat="59.8955912" lon="17.6147973">
        <ele>20.8057</ele>
        <time>2013-05-03T15:17:49Z</time>
      </trkpt>
      <trkpt lat="59.8956483" lon="17.614768">
        <ele>20.8057</ele>
        <time>2013-05-03T15:17:50Z</time>
      </trkpt>
      <trkpt lat="59.8957034" lon="17.6147418">
        <ele>20.8057</ele>
        <time>2013-05-03T15:17:51Z</time>
      </trkpt>
      <trkpt lat="59.8957569" lon="17.6147152">
        <ele>20.8057</ele>
        <time>2013-05-03T15:17:52Z</time>
      </trkpt>
      <trkpt lat="59.8958103" lon="17.614688">
        <ele>21.2864</ele>
        <time>2013-05-03T15:17:53Z</time>
      </trkpt>
      <trkpt lat="59.8958611" lon="17.6146651">
        <ele>20.8057</ele>
        <time>2013-05-03T15:17:54Z</time>
      </trkpt>
      <trkpt lat="59.895913" lon="17.6146403">
        <ele>20.325</ele>
        <time>2013-05-03T15:17:55Z</time>
      </trkpt>
      <trkpt lat="59.8959678" lon="17.6146159">
        <ele>20.325</ele>
        <time>2013-05-03T15:17:56Z</time>
      </trkpt>
      <trkpt lat="59.8960214" lon="17.6145936">
        <ele>20.325</ele>
        <time>2013-05-03T15:17:57Z</time>
      </trkpt>
      <trkpt lat="59.8960776" lon="17.6145674">
        <ele>20.325</ele>
        <time>2013-05-03T15:17:58Z</time>
      </trkpt>
      <trkpt lat="59.8961342" lon="17.6145404">
        <ele>20.325</ele>
        <time>2013-05-03T15:17:59Z</time>
      </trkpt>
      <trkpt lat="59.8961923" lon="17.6145118">
        <ele>20.325</ele>
        <time>2013-05-03T15:18:00Z</time>
      </trkpt>
      <trkpt lat="59.8962496" lon="17.6144823">
        <ele>20.325</ele>
        <time>2013-05-03T15:18:01Z</time>
      </trkpt>
      <trkpt lat="59.8963088" lon="17.6144533">
        <ele>20.325</ele>
        <time>2013-05-03T15:18:02Z</time>
      </trkpt>
      <trkpt lat="59.8963688" lon="17.6144243">
        <ele>20.8057</ele>
        <time>2013-05-03T15:18:03Z</time>
      </trkpt>
      <trkpt lat="59.8964295" lon="17.6143969">
        <ele>20.8057</ele>
        <time>2013-05-03T15:18:04Z</time>
      </trkpt>
      <trkpt lat="59.8964902" lon="17.6143699">
        <ele>20.8057</ele>
        <time>2013-05-03T15:18:05Z</time>
      </trkpt>
      <trkpt lat="59.8965491" lon="17.6143397">
        <ele>20.8057</ele>
        <time>2013-05-03T15:18:06Z</time>
      </trkpt>
      <trkpt lat="59.8966087" lon="17.6143092">
        <ele>20.8057</ele>
        <time>2013-05-03T15:18:07Z</time>
      </trkpt>
      <trkpt lat="59.8966687" lon="17.6142803">
        <ele>20.8057</ele>
        <time>2013-05-03T15:18:08Z</time>
      </trkpt>
      <trkpt lat="59.8967279" lon="17.6142514">
        <ele>21.2864</ele>
        <time>2013-05-03T15:18:09Z</time>
      </trkpt>
      <trkpt lat="59.8967863" lon="17.6142234">
        <ele>21.2864</ele>
        <time>2013-05-03T15:18:10Z</time>
      </trkpt>
      <trkpt lat="59.8968433" lon="17.6141979">
        <ele>20.8057</ele>
        <time>2013-05-03T15:18:11Z</time>
      </trkpt>
      <trkpt lat="59.8969009" lon="17.6141711">
        <ele>20.8057</ele>
        <time>2013-05-03T15:18:12Z</time>
      </trkpt>
      <trkpt lat="59.8969582" lon="17.6141435">
        <ele>20.8057</ele>
        <time>2013-05-03T15:18:13Z</time>
      </trkpt>
      <trkpt lat="59.8970142" lon="17.6141169">
        <ele>20.8057</ele>
        <time>2013-05-03T15:18:14Z</time>
      </trkpt>
      <trkpt lat="59.8970707" lon="17.6140907">
        <ele>21.2864</ele>
        <time>2013-05-03T15:18:15Z</time>
      </trkpt>
      <trkpt lat="59.8971283" lon="17.6140635">
        <ele>21.2864</ele>
        <time>2013-05-03T15:18:16Z</time>
      </trkpt>
      <trkpt lat="59.8971864" lon="17.6140363">
        <ele>21.2864</ele>
        <time>2013-05-03T15:18:17Z</time>
      </trkpt>
      <trkpt lat="59.8972462" lon="17.6140087">
        <ele>21.2864</ele>
        <time>2013-05-03T15:18:18Z</time>
      </trkpt>
      <trkpt lat="59.8973055" lon="17.6139801">
        <ele>21.2864</ele>
        <time>2013-05-03T15:18:19Z</time>
      </trkpt>
      <trkpt lat="59.897365" lon="17.6139493">
        <ele>21.2864</ele>
        <time>2013-05-03T15:18:20Z</time>
      </trkpt>
      <trkpt lat="59.8974246" lon="17.6139186">
        <ele>21.767</ele>
        <time>2013-05-03T15:18:21Z</time>
      </trkpt>
      <trkpt lat="59.8974846" lon="17.6138887">
        <ele>21.767</ele>
        <time>2013-05-03T15:18:22Z</time>
      </trkpt>
      <trkpt lat="59.8975449" lon="17.6138589">
        <ele>21.767</ele>
        <time>2013-05-03T15:18:23Z</time>
      </trkpt>
      <trkpt lat="59.8976058" lon="17.6138285">
        <ele>21.767</ele>
        <time>2013-05-03T15:18:24Z</time>
      </trkpt>
      <trkpt lat="59.8976665" lon="17.6137997">
        <ele>21.767</ele>
        <time>2013-05-03T15:18:25Z</time>
      </trkpt>
      <trkpt lat="59.8977276" lon="17.6137726">
        <ele>21.767</ele>
        <time>2013-05-03T15:18:26Z</time>
      </trkpt>
      <trkpt lat="59.8977883" lon="17.6137435">
        <ele>22.2476</ele>
        <time>2013-05-03T15:18:27Z</time>
      </trkpt>
      <trkpt lat="59.8978494" lon="17.6137144">
        <ele>22.2476</ele>
        <time>2013-05-03T15:18:28Z</time>
      </trkpt>
      <trkpt lat="59.8979103" lon="17.6136851">
        <ele>22.2476</ele>
        <time>2013-05-03T15:18:29Z</time>
      </trkpt>
      <trkpt lat="59.8979707" lon="17.6136556">
        <ele>22.2476</ele>
        <time>2013-05-03T15:18:30Z</time>
      </trkpt>
      <trkpt lat="59.8980318" lon="17.6136259">
        <ele>22.2476</ele>
        <time>2013-05-03T15:18:31Z</time>
      </trkpt>
      <trkpt lat="59.8980927" lon="17.6135961">
        <ele>22.2476</ele>
        <time>2013-05-03T15:18:32Z</time>
      </trkpt>
      <trkpt lat="59.8981538" lon="17.613568">
        <ele>22.2476</ele>
        <time>2013-05-03T15:18:33Z</time>
      </trkpt>
      <trkpt lat="59.898214" lon="17.6135395">
        <ele>22.2476</ele>
        <time>2013-05-03T15:18:34Z</time>
      </trkpt>
      <trkpt lat="59.8982729" lon="17.6135079">
        <ele>22.2476</ele>
        <time>2013-05-03T15:18:35Z</time>
      </trkpt>
      <trkpt lat="59.8983321" lon="17.6134778">
        <ele>22.2476</ele>
        <time>2013-05-03T15:18:36Z</time>
      </trkpt>
      <trkpt lat="59.8983929" lon="17.6134519">
        <ele>22.7283</ele>
        <time>2013-05-03T15:18:37Z</time>
      </trkpt>
      <trkpt lat="59.8984529" lon="17.6134252">
        <ele>22.7283</ele>
        <time>2013-05-03T15:18:38Z</time>
      </trkpt>
      <trkpt lat="59.8985115" lon="17.6133961">
        <ele>22.2476</ele>
        <time>2013-05-03T15:18:39Z</time>
      </trkpt>
      <trkpt lat="59.8985708" lon="17.6133681">
        <ele>22.2476</ele>
        <time>2013-05-03T15:18:40Z</time>
      </trkpt>
      <trkpt lat="59.8986305" lon="17.6133416">
        <ele>22.7283</ele>
        <time>2013-05-03T15:18:41Z</time>
      </trkpt>
      <trkpt lat="59.8986894" lon="17.6133131">
        <ele>22.7283</ele>
        <time>2013-05-03T15:18:42Z</time>
      </trkpt>
      <trkpt lat="59.8987475" lon="17.6132839">
        <ele>22.7283</ele>
        <time>2013-05-03T15:18:43Z</time>
      </trkpt>
      <trkpt lat="59.8988051" lon="17.6132541">
        <ele>22.7283</ele>
        <time>2013-05-03T15:18:44Z</time>
      </trkpt>
      <trkpt lat="59.8988634" lon="17.6132264">
        <ele>22.7283</ele>
        <time>2013-05-03T15:18:45Z</time>
      </trkpt>
      <trkpt lat="59.8989222" lon="17.6132013">
        <ele>22.7283</ele>
        <time>2013-05-03T15:18:46Z</time>
      </trkpt>
      <trkpt lat="59.89898" lon="17.6131741">
        <ele>22.7283</ele>
        <time>2013-05-03T15:18:47Z</time>
      </trkpt>
      <trkpt lat="59.8990372" lon="17.6131447">
        <ele>23.209</ele>
        <time>2013-05-03T15:18:48Z</time>
      </trkpt>
      <trkpt lat="59.8990948" lon="17.6131158">
        <ele>23.209</ele>
        <time>2013-05-03T15:18:49Z</time>
      </trkpt>
      <trkpt lat="59.8991525" lon="17.6130894">
        <ele>23.209</ele>
        <time>2013-05-03T15:18:50Z</time>
      </trkpt>
      <trkpt lat="59.8992101" lon="17.6130641">
        <ele>23.209</ele>
        <time>2013-05-03T15:18:51Z</time>
      </trkpt>
      <trkpt lat="59.8992661" lon="17.6130369">
        <ele>23.209</ele>
        <time>2013-05-03T15:18:52Z</time>
      </trkpt>
      <trkpt lat="59.8993222" lon="17.6130096">
        <ele>23.209</ele>
        <time>2013-05-03T15:18:53Z</time>
      </trkpt>
      <trkpt lat="59.8993791" lon="17.6129823">
        <ele>23.209</ele>
        <time>2013-05-03T15:18:54Z</time>
      </trkpt>
      <trkpt lat="59.8994359" lon="17.6129542">
        <ele>23.209</ele>
        <time>2013-05-03T15:18:55Z</time>
      </trkpt>
      <trkpt lat="59.8994931" lon="17.6129257">
        <ele>23.209</ele>
        <time>2013-05-03T15:18:56Z</time>
      </trkpt>
      <trkpt lat="59.8995508" lon="17.6128977">
        <ele>23.209</ele>
        <time>2013-05-03T15:18:57Z</time>
      </trkpt>
      <trkpt lat="59.8996085" lon="17.6128702">
        <ele>23.6896</ele>
        <time>2013-05-03T15:18:58Z</time>
      </trkpt>
      <trkpt lat="59.8996661" lon="17.6128422">
        <ele>23.6896</ele>
        <time>2013-05-03T15:18:59Z</time>
      </trkpt>
      <trkpt lat="59.8997235" lon="17.6128149">
        <ele>23.6896</ele>
        <time>2013-05-03T15:19:00Z</time>
      </trkpt>
      <trkpt lat="59.8997791" lon="17.6127879">
        <ele>23.6896</ele>
        <time>2013-05-03T15:19:01Z</time>
      </trkpt>
      <trkpt lat="59.8998352" lon="17.6127609">
        <ele>23.6896</ele>
        <time>2013-05-03T15:19:02Z</time>
      </trkpt>
      <trkpt lat="59.8998914" lon="17.612735">
        <ele>23.6896</ele>
        <time>2013-05-03T15:19:03Z</time>
      </trkpt>
      <trkpt lat="59.8999474" lon="17.6127084">
        <ele>23.6896</ele>
        <time>2013-05-03T15:19:04Z</time>
      </trkpt>
      <trkpt lat="59.9000043" lon="17.612681">
        <ele>24.1703</ele>
        <time>2013-05-03T15:19:05Z</time>
      </trkpt>
      <trkpt lat="59.9000596" lon="17.6126544">
        <ele>24.1703</ele>
        <time>2013-05-03T15:19:06Z</time>
      </trkpt>
      <trkpt lat="59.9001149" lon="17.6126282">
        <ele>24.1703</ele>
        <time>2013-05-03T15:19:07Z</time>
      </trkpt>
      <trkpt lat="59.9001702" lon="17.6126013">
        <ele>24.1703</ele>
        <time>2013-05-03T15:19:08Z</time>
      </trkpt>
      <trkpt lat="59.900226" lon="17.6125739">
        <ele>24.1703</ele>
        <time>2013-05-03T15:19:09Z</time>
      </trkpt>
      <trkpt lat="59.9002814" lon="17.6125474">
        <ele>24.1703</ele>
        <time>2013-05-03T15:19:10Z</time>
      </trkpt>
      <trkpt lat="59.9003375" lon="17.6125231">
        <ele>24.1703</ele>
        <time>2013-05-03T15:19:11Z</time>
      </trkpt>
      <trkpt lat="59.9003942" lon="17.6124982">
        <ele>24.1703</ele>
        <time>2013-05-03T15:19:12Z</time>
      </trkpt>
      <trkpt lat="59.9004507" lon="17.6124713">
        <ele>24.1703</ele>
        <time>2013-05-03T15:19:13Z</time>
      </trkpt>
      <trkpt lat="59.9005063" lon="17.6124437">
        <ele>24.1703</ele>
        <time>2013-05-03T15:19:14Z</time>
      </trkpt>
      <trkpt lat="59.9005626" lon="17.6124165">
        <ele>24.1703</ele>
        <time>2013-05-03T15:19:15Z</time>
      </trkpt>
      <trkpt lat="59.9006197" lon="17.6123895">
        <ele>24.1703</ele>
        <time>2013-05-03T15:19:16Z</time>
      </trkpt>
      <trkpt lat="59.9006776" lon="17.612364">
        <ele>24.1703</ele>
        <time>2013-05-03T15:19:17Z</time>
      </trkpt>
      <trkpt lat="59.9007352" lon="17.6123379">
        <ele>24.1703</ele>
        <time>2013-05-03T15:19:18Z</time>
      </trkpt>
      <trkpt lat="59.9007917" lon="17.6123093">
        <ele>24.1703</ele>
        <time>2013-05-03T15:19:19Z</time>
      </trkpt>
      <trkpt lat="59.9008486" lon="17.6122813">
        <ele>24.651</ele>
        <time>2013-05-03T15:19:20Z</time>
      </trkpt>
      <trkpt lat="59.9009056" lon="17.6122547">
        <ele>24.651</ele>
        <time>2013-05-03T15:19:21Z</time>
      </trkpt>
      <trkpt lat="59.9009615" lon="17.6122282">
        <ele>24.651</ele>
        <time>2013-05-03T15:19:22Z</time>
      </trkpt>
      <trkpt lat="59.9010155" lon="17.6122013">
        <ele>24.651</ele>
        <time>2013-05-03T15:19:23Z</time>
      </trkpt>
      <trkpt lat="59.9010689" lon="17.612177">
        <ele>24.651</ele>
        <time>2013-05-03T15:19:24Z</time>
      </trkpt>
      <trkpt lat="59.9011204" lon="17.6121513">
        <ele>24.651</ele>
        <time>2013-05-03T15:19:25Z</time>
      </trkpt>
      <trkpt lat="59.9011714" lon="17.6121217">
        <ele>24.651</ele>
        <time>2013-05-03T15:19:26Z</time>
      </trkpt>
      <trkpt lat="59.9012233" lon="17.6120917">
        <ele>24.651</ele>
        <time>2013-05-03T15:19:27Z</time>
      </trkpt>
      <trkpt lat="59.901276" lon="17.6120622">
        <ele>24.651</ele>
        <time>2013-05-03T15:19:28Z</time>
      </trkpt>
      <trkpt lat="59.9013286" lon="17.6120368">
        <ele>24.651</ele>
        <time>2013-05-03T15:19:29Z</time>
      </trkpt>
      <trkpt lat="59.9013822" lon="17.6120135">
        <ele>24.651</ele>
        <time>2013-05-03T15:19:30Z</time>
      </trkpt>
      <trkpt lat="59.901435" lon="17.6119879">
        <ele>24.651</ele>
        <time>2013-05-03T15:19:31Z</time>
      </trkpt>
      <trkpt lat="59.9014874" lon="17.6119602">
        <ele>24.1703</ele>
        <time>2013-05-03T15:19:32Z</time>
      </trkpt>
      <trkpt lat="59.9015403" lon="17.6119338">
        <ele>24.1703</ele>
        <time>2013-05-03T15:19:33Z</time>
      </trkpt>
      <trkpt lat="59.9015933" lon="17.6119095">
        <ele>24.1703</ele>
        <time>2013-05-03T15:19:34Z</time>
      </trkpt>
      <trkpt lat="59.9016452" lon="17.6118828">
        <ele>24.1703</ele>
        <time>2013-05-03T15:19:35Z</time>
      </trkpt>
      <trkpt lat="59.901697" lon="17.6118565">
        <ele>24.1703</ele>
        <time>2013-05-03T15:19:36Z</time>
      </trkpt>
      <trkpt lat="59.901749" lon="17.6118328">
        <ele>24.1703</ele>
        <time>2013-05-03T15:19:37Z</time>
      </trkpt>
      <trkpt lat="59.9018008" lon="17.6118073">
        <ele>24.1703</ele>
        <time>2013-05-03T15:19:38Z</time>
      </trkpt>
      <trkpt lat="59.9018525" lon="17.6117809">
        <ele>24.1703</ele>
        <time>2013-05-03T15:19:39Z</time>
      </trkpt>
      <trkpt lat="59.9019052" lon="17.6117564">
        <ele>24.1703</ele>
        <time>2013-05-03T15:19:40Z</time>
      </trkpt>
      <trkpt lat="59.9019577" lon="17.611732">
        <ele>24.1703</ele>
        <time>2013-05-03T15:19:41Z</time>
      </trkpt>
      <trkpt lat="59.90201" lon="17.6117058">
        <ele>24.1703</ele>
        <time>2013-05-03T15:19:42Z</time>
      </trkpt>
      <trkpt lat="59.9020621" lon="17.6116805">
        <ele>24.1703</ele>
        <time>2013-05-03T15:19:43Z</time>
      </trkpt>
      <trkpt lat="59.9021139" lon="17.6116572">
        <ele>24.1703</ele>
        <time>2013-05-03T15:19:44Z</time>
      </trkpt>
      <trkpt lat="59.9021664" lon="17.6116328">
        <ele>24.1703</ele>
        <time>2013-05-03T15:19:45Z</time>
      </trkpt>
      <trkpt lat="59.9022188" lon="17.6116066">
        <ele>24.1703</ele>
        <time>2013-05-03T15:19:46Z</time>
      </trkpt>
      <trkpt lat="59.9022725" lon="17.6115815">
        <ele>24.1703</ele>
        <time>2013-05-03T15:19:47Z</time>
      </trkpt>
      <trkpt lat="59.902326" lon="17.6115545">
        <ele>24.1703</ele>
        <time>2013-05-03T15:19:48Z</time>
      </trkpt>
      <trkpt lat="59.9023797" lon="17.6115275">
        <ele>24.1703</ele>
        <time>2013-05-03T15:19:49Z</time>
      </trkpt>
      <trkpt lat="59.9024328" lon="17.6115023">
        <ele>24.1703</ele>
        <time>2013-05-03T15:19:50Z</time>
      </trkpt>
      <trkpt lat="59.9024861" lon="17.6114783">
        <ele>24.1703</ele>
        <time>2013-05-03T15:19:51Z</time>
      </trkpt>
      <trkpt lat="59.9025394" lon="17.6114551">
        <ele>24.1703</ele>
        <time>2013-05-03T15:19:52Z</time>
      </trkpt>
      <trkpt lat="59.9025918" lon="17.6114298">
        <ele>24.1703</ele>
        <time>2013-05-03T15:19:53Z</time>
      </trkpt>
      <trkpt lat="59.9026445" lon="17.6114036">
        <ele>24.1703</ele>
        <time>2013-05-03T15:19:54Z</time>
      </trkpt>
      <trkpt lat="59.9026981" lon="17.6113782">
        <ele>24.1703</ele>
        <time>2013-05-03T15:19:55Z</time>
      </trkpt>
      <trkpt lat="59.9027518" lon="17.6113536">
        <ele>24.1703</ele>
        <time>2013-05-03T15:19:56Z</time>
      </trkpt>
      <trkpt lat="59.9028051" lon="17.6113297">
        <ele>24.1703</ele>
        <time>2013-05-03T15:19:57Z</time>
      </trkpt>
      <trkpt lat="59.9028588" lon="17.6113048">
        <ele>24.651</ele>
        <time>2013-05-03T15:19:58Z</time>
      </trkpt>
      <trkpt lat="59.9029124" lon="17.6112798">
        <ele>24.651</ele>
        <time>2013-05-03T15:19:59Z</time>
      </trkpt>
      <trkpt lat="59.9029653" lon="17.6112555">
        <ele>24.651</ele>
        <time>2013-05-03T15:20:00Z</time>
      </trkpt>
      <trkpt lat="59.9030169" lon="17.6112313">
        <ele>24.651</ele>
        <time>2013-05-03T15:20:01Z</time>
      </trkpt>
      <trkpt lat="59.9030686" lon="17.6112078">
        <ele>24.651</ele>
        <time>2013-05-03T15:20:02Z</time>
      </trkpt>
      <trkpt lat="59.9031206" lon="17.6111851">
        <ele>24.651</ele>
        <time>2013-05-03T15:20:03Z</time>
      </trkpt>
      <trkpt lat="59.9031734" lon="17.6111613">
        <ele>25.1317</ele>
        <time>2013-05-03T15:20:04Z</time>
      </trkpt>
      <trkpt lat="59.9032258" lon="17.6111354">
        <ele>25.1317</ele>
        <time>2013-05-03T15:20:05Z</time>
      </trkpt>
      <trkpt lat="59.9032786" lon="17.6111106">
        <ele>25.1317</ele>
        <time>2013-05-03T15:20:06Z</time>
      </trkpt>
      <trkpt lat="59.9033311" lon="17.6110866">
        <ele>25.1317</ele>
        <time>2013-05-03T15:20:07Z</time>
      </trkpt>
      <trkpt lat="59.90338" lon="17.611062">
        <ele>24.651</ele>
        <time>2013-05-03T15:20:08Z</time>
      </trkpt>
      <trkpt lat="59.9034295" lon="17.6110379">
        <ele>24.651</ele>
        <time>2013-05-03T15:20:09Z</time>
      </trkpt>
      <trkpt lat="59.9034841" lon="17.6110169">
        <ele>24.651</ele>
        <time>2013-05-03T15:20:10Z</time>
      </trkpt>
      <trkpt lat="59.9035392" lon="17.6109964">
        <ele>24.651</ele>
        <time>2013-05-03T15:20:11Z</time>
      </trkpt>
      <trkpt lat="59.9035932" lon="17.6109736">
        <ele>25.1317</ele>
        <time>2013-05-03T15:20:12Z</time>
      </trkpt>
      <trkpt lat="59.9036485" lon="17.6109547">
        <ele>25.1317</ele>
        <time>2013-05-03T15:20:13Z</time>
      </trkpt>
      <trkpt lat="59.9037044" lon="17.610935">
        <ele>25.1317</ele>
        <time>2013-05-03T15:20:14Z</time>
      </trkpt>
      <trkpt lat="59.9037594" lon="17.6109111">
        <ele>25.1317</ele>
        <time>2013-05-03T15:20:15Z</time>
      </trkpt>
      <trkpt lat="59.9038126" lon="17.6108864">
        <ele>25.1317</ele>
        <time>2013-05-03T15:20:16Z</time>
      </trkpt>
      <trkpt lat="59.9038656" lon="17.6108628">
        <ele>25.1317</ele>
        <time>2013-05-03T15:20:17Z</time>
      </trkpt>
      <trkpt lat="59.9039189" lon="17.6108377">
        <ele>25.1317</ele>
        <time>2013-05-03T15:20:18Z</time>
      </trkpt>
      <trkpt lat="59.9039712" lon="17.6108118">
        <ele>25.6123</ele>
        <time>2013-05-03T15:20:19Z</time>
      </trkpt>
      <trkpt lat="59.9040237" lon="17.6107868">
        <ele>25.6123</ele>
        <time>2013-05-03T15:20:20Z</time>
      </trkpt>
      <trkpt lat="59.9040758" lon="17.610763">
        <ele>25.6123</ele>
        <time>2013-05-03T15:20:21Z</time>
      </trkpt>
      <trkpt lat="59.9041292" lon="17.6107384">
        <ele>25.6123</ele>
        <time>2013-05-03T15:20:22Z</time>
      </trkpt>
      <trkpt lat="59.9041883" lon="17.6107081">
        <ele>25.6123</ele>
        <time>2013-05-03T15:20:23Z</time>
      </trkpt>
      <trkpt lat="59.9042447" lon="17.6106796">
        <ele>25.6123</ele>
        <time>2013-05-03T15:20:24Z</time>
      </trkpt>
      <trkpt lat="59.9043031" lon="17.6106535">
        <ele>25.6123</ele>
        <time>2013-05-03T15:20:25Z</time>
      </trkpt>
      <trkpt lat="59.9043565" lon="17.6106267">
        <ele>25.6123</ele>
        <time>2013-05-03T15:20:26Z</time>
      </trkpt>
      <trkpt lat="59.9044089" lon="17.6106009">
        <ele>26.0929</ele>
        <time>2013-05-03T15:20:27Z</time>
      </trkpt>
      <trkpt lat="59.9044605" lon="17.6105791">
        <ele>26.0929</ele>
        <time>2013-05-03T15:20:28Z</time>
      </trkpt>
      <trkpt lat="59.9045113" lon="17.6105696">
        <ele>26.0929</ele>
        <time>2013-05-03T15:20:29Z</time>
      </trkpt>
      <trkpt lat="59.9045602" lon="17.6105883">
        <ele>26.0929</ele>
        <time>2013-05-03T15:20:30Z</time>
      </trkpt>
      <trkpt lat="59.9045959" lon="17.6106471">
        <ele>25.1317</ele>
        <time>2013-05-03T15:20:31Z</time>
      </trkpt>
      <trkpt lat="59.9046125" lon="17.6107357">
        <ele>24.1703</ele>
        <time>2013-05-03T15:20:32Z</time>
      </trkpt>
      <trkpt lat="59.9046129" lon="17.6108397">
        <ele>23.209</ele>
        <time>2013-05-03T15:20:33Z</time>
      </trkpt>
      <trkpt lat="59.9045991" lon="17.6109438">
        <ele>22.7283</ele>
        <time>2013-05-03T15:20:34Z</time>
      </trkpt>
      <trkpt lat="59.9045725" lon="17.6110394">
        <ele>22.2476</ele>
        <time>2013-05-03T15:20:35Z</time>
      </trkpt>
      <trkpt lat="59.9045365" lon="17.6111213">
        <ele>21.767</ele>
        <time>2013-05-03T15:20:36Z</time>
      </trkpt>
      <trkpt lat="59.904496" lon="17.6111899">
        <ele>21.767</ele>
        <time>2013-05-03T15:20:37Z</time>
      </trkpt>
      <trkpt lat="59.9044536" lon="17.6112509">
        <ele>21.2864</ele>
        <time>2013-05-03T15:20:38Z</time>
      </trkpt>
      <trkpt lat="59.9044108" lon="17.6113065">
        <ele>20.8057</ele>
        <time>2013-05-03T15:20:39Z</time>
      </trkpt>
      <trkpt lat="59.9043673" lon="17.611358">
        <ele>20.8057</ele>
        <time>2013-05-03T15:20:40Z</time>
      </trkpt>
      <trkpt lat="59.9043214" lon="17.6114106">
        <ele>20.8057</ele>
        <time>2013-05-03T15:20:41Z</time>
      </trkpt>
      <trkpt lat="59.9042746" lon="17.6114637">
        <ele>20.325</ele>
        <time>2013-05-03T15:20:42Z</time>
      </trkpt>
      <trkpt lat="59.9042286" lon="17.6115208">
        <ele>20.325</ele>
        <time>2013-05-03T15:20:43Z</time>
      </trkpt>
      <trkpt lat="59.9041846" lon="17.6115819">
        <ele>19.8444</ele>
        <time>2013-05-03T15:20:44Z</time>
      </trkpt>
      <trkpt lat="59.9041422" lon="17.6116437">
        <ele>19.8444</ele>
        <time>2013-05-03T15:20:45Z</time>
      </trkpt>
      <trkpt lat="59.9041012" lon="17.6117053">
        <ele>19.3638</ele>
        <time>2013-05-03T15:20:46Z</time>
      </trkpt>
      <trkpt lat="59.9040619" lon="17.6117675">
        <ele>19.3638</ele>
        <time>2013-05-03T15:20:47Z</time>
      </trkpt>
      <trkpt lat="59.9040262" lon="17.6118337">
        <ele>19.3638</ele>
        <time>2013-05-03T15:20:48Z</time>
      </trkpt>
      <trkpt lat="59.9039934" lon="17.6119063">
        <ele>18.8831</ele>
        <time>2013-05-03T15:20:49Z</time>
      </trkpt>
      <trkpt lat="59.903961" lon="17.6119814">
        <ele>18.8831</ele>
        <time>2013-05-03T15:20:50Z</time>
      </trkpt>
      <trkpt lat="59.9039323" lon="17.6120632">
        <ele>19.3638</ele>
        <time>2013-05-03T15:20:51Z</time>
      </trkpt>
      <trkpt lat="59.9039075" lon="17.6121524">
        <ele>19.3638</ele>
        <time>2013-05-03T15:20:52Z</time>
      </trkpt>
      <trkpt lat="59.9038856" lon="17.612245">
        <ele>19.3638</ele>
        <time>2013-05-03T15:20:53Z</time>
      </trkpt>
      <trkpt lat="59.9038655" lon="17.6123382">
        <ele>19.3638</ele>
        <time>2013-05-03T15:20:54Z</time>
      </trkpt>
      <trkpt lat="59.9038467" lon="17.6124309">
        <ele>19.3638</ele>
        <time>2013-05-03T15:20:55Z</time>
      </trkpt>
      <trkpt lat="59.9038278" lon="17.6125233">
        <ele>19.3638</ele>
        <time>2013-05-03T15:20:56Z</time>
      </trkpt>
      <trkpt lat="59.9038086" lon="17.6126149">
        <ele>19.3638</ele>
        <time>2013-05-03T15:20:57Z</time>
      </trkpt>
      <trkpt lat="59.9037894" lon="17.6127061">
        <ele>19.3638</ele>
        <time>2013-05-03T15:20:58Z</time>
      </trkpt>
      <trkpt lat="59.9037702" lon="17.6127993">
        <ele>19.3638</ele>
        <time>2013-05-03T15:20:59Z</time>
      </trkpt>
      <trkpt lat="59.9037511" lon="17.6128941">
        <ele>19.3638</ele>
        <time>2013-05-03T15:21:00Z</time>
      </trkpt>
      <trkpt lat="59.9037323" lon="17.6129904">
        <ele>19.3638</ele>
        <time>2013-05-03T15:21:01Z</time>
      </trkpt>
      <trkpt lat="59.9037141" lon="17.6130871">
        <ele>19.3638</ele>
        <time>2013-05-03T15:21:02Z</time>
      </trkpt>
      <trkpt lat="59.9036962" lon="17.6131819">
        <ele>19.3638</ele>
        <time>2013-05-03T15:21:03Z</time>
      </trkpt>
      <trkpt lat="59.903677" lon="17.6132739">
        <ele>19.3638</ele>
        <time>2013-05-03T15:21:04Z</time>
      </trkpt>
      <trkpt lat="59.9036576" lon="17.613365">
        <ele>19.3638</ele>
        <time>2013-05-03T15:21:05Z</time>
      </trkpt>
      <trkpt lat="59.9036412" lon="17.6134575">
        <ele>19.3638</ele>
        <time>2013-05-03T15:21:06Z</time>
      </trkpt>
      <trkpt lat="59.9036283" lon="17.6135504">
        <ele>19.3638</ele>
        <time>2013-05-03T15:21:07Z</time>
      </trkpt>
      <trkpt lat="59.9036151" lon="17.613641">
        <ele>19.3638</ele>
        <time>2013-05-03T15:21:08Z</time>
      </trkpt>
      <trkpt lat="59.9036004" lon="17.6137285">
        <ele>19.3638</ele>
        <time>2013-05-03T15:21:09Z</time>
      </trkpt>
      <trkpt lat="59.9035878" lon="17.6138146">
        <ele>19.3638</ele>
        <time>2013-05-03T15:21:10Z</time>
      </trkpt>
      <trkpt lat="59.9035773" lon="17.6139011">
        <ele>19.3638</ele>
        <time>2013-05-03T15:21:11Z</time>
      </trkpt>
      <trkpt lat="59.9035677" lon="17.6139877">
        <ele>19.3638</ele>
        <time>2013-05-03T15:21:12Z</time>
      </trkpt>
      <trkpt lat="59.9035582" lon="17.614074">
        <ele>19.8444</ele>
        <time>2013-05-03T15:21:13Z</time>
      </trkpt>
      <trkpt lat="59.9035505" lon="17.6141605">
        <ele>19.3638</ele>
        <time>2013-05-03T15:21:14Z</time>
      </trkpt>
      <trkpt lat="59.9035475" lon="17.6142481">
        <ele>19.3638</ele>
        <time>2013-05-03T15:21:15Z</time>
      </trkpt>
      <trkpt lat="59.9035494" lon="17.6143378">
        <ele>19.3638</ele>
        <time>2013-05-03T15:21:16Z</time>
      </trkpt>
      <trkpt lat="59.9035504" lon="17.614429">
        <ele>19.3638</ele>
        <time>2013-05-03T15:21:17Z</time>
      </trkpt>
      <trkpt lat="59.9035474" lon="17.614521">
        <ele>19.8444</ele>
        <time>2013-05-03T15:21:18Z</time>
      </trkpt>
      <trkpt lat="59.9035413" lon="17.6146142">
        <ele>19.8444</ele>
        <time>2013-05-03T15:21:19Z</time>
      </trkpt>
      <trkpt lat="59.9035351" lon="17.6147117">
        <ele>19.3638</ele>
        <time>2013-05-03T15:21:20Z</time>
      </trkpt>
      <trkpt lat="59.9035302" lon="17.6148138">
        <ele>19.3638</ele>
        <time>2013-05-03T15:21:21Z</time>
      </trkpt>
      <trkpt lat="59.9035264" lon="17.6149199">
        <ele>19.3638</ele>
        <time>2013-05-03T15:21:22Z</time>
      </trkpt>
      <trkpt lat="59.9035227" lon="17.6150262">
        <ele>19.3638</ele>
        <time>2013-05-03T15:21:23Z</time>
      </trkpt>
      <trkpt lat="59.9035175" lon="17.6151309">
        <ele>19.8444</ele>
        <time>2013-05-03T15:21:24Z</time>
      </trkpt>
      <trkpt lat="59.9035077" lon="17.6152355">
        <ele>19.8444</ele>
        <time>2013-05-03T15:21:25Z</time>
      </trkpt>
      <trkpt lat="59.9034947" lon="17.61534">
        <ele>19.8444</ele>
        <time>2013-05-03T15:21:26Z</time>
      </trkpt>
      <trkpt lat="59.9034807" lon="17.6154427">
        <ele>19.8444</ele>
        <time>2013-05-03T15:21:27Z</time>
      </trkpt>
      <trkpt lat="59.903465" lon="17.6155402">
        <ele>19.8444</ele>
        <time>2013-05-03T15:21:28Z</time>
      </trkpt>
      <trkpt lat="59.9034469" lon="17.6156323">
        <ele>19.8444</ele>
        <time>2013-05-03T15:21:29Z</time>
      </trkpt>
      <trkpt lat="59.9034264" lon="17.6157202">
        <ele>19.8444</ele>
        <time>2013-05-03T15:21:30Z</time>
      </trkpt>
      <trkpt lat="59.9034045" lon="17.6158052">
        <ele>19.8444</ele>
        <time>2013-05-03T15:21:31Z</time>
      </trkpt>
      <trkpt lat="59.9033818" lon="17.6158887">
        <ele>19.8444</ele>
        <time>2013-05-03T15:21:32Z</time>
      </trkpt>
      <trkpt lat="59.9033589" lon="17.6159704">
        <ele>20.325</ele>
        <time>2013-05-03T15:21:33Z</time>
      </trkpt>
      <trkpt lat="59.9033372" lon="17.6160497">
        <ele>20.325</ele>
        <time>2013-05-03T15:21:34Z</time>
      </trkpt>
      <trkpt lat="59.9033158" lon="17.616128">
        <ele>20.325</ele>
        <time>2013-05-03T15:21:35Z</time>
      </trkpt>
      <trkpt lat="59.9032932" lon="17.6162067">
        <ele>20.325</ele>
        <time>2013-05-03T15:21:36Z</time>
      </trkpt>
      <trkpt lat="59.9032712" lon="17.616286">
        <ele>20.325</ele>
        <time>2013-05-03T15:21:37Z</time>
      </trkpt>
      <trkpt lat="59.9032499" lon="17.6163658">
        <ele>20.325</ele>
        <time>2013-05-03T15:21:38Z</time>
      </trkpt>
      <trkpt lat="59.9032293" lon="17.6164444">
        <ele>20.325</ele>
        <time>2013-05-03T15:21:39Z</time>
      </trkpt>
      <trkpt lat="59.9032095" lon="17.616521">
        <ele>20.325</ele>
        <time>2013-05-03T15:21:40Z</time>
      </trkpt>
      <trkpt lat="59.9031885" lon="17.6165971">
        <ele>20.325</ele>
        <time>2013-05-03T15:21:41Z</time>
      </trkpt>
      <trkpt lat="59.9031655" lon="17.6166744">
        <ele>20.325</ele>
        <time>2013-05-03T15:21:42Z</time>
      </trkpt>
      <trkpt lat="59.9031415" lon="17.6167526">
        <ele>20.325</ele>
        <time>2013-05-03T15:21:43Z</time>
      </trkpt>
      <trkpt lat="59.9031168" lon="17.6168325">
        <ele>20.325</ele>
        <time>2013-05-03T15:21:44Z</time>
      </trkpt>
      <trkpt lat="59.9030925" lon="17.6169155">
        <ele>20.325</ele>
        <time>2013-05-03T15:21:45Z</time>
      </trkpt>
      <trkpt lat="59.9030694" lon="17.617001">
        <ele>20.325</ele>
        <time>2013-05-03T15:21:46Z</time>
      </trkpt>
      <trkpt lat="59.9030459" lon="17.6170869">
        <ele>20.325</ele>
        <time>2013-05-03T15:21:47Z</time>
      </trkpt>
      <trkpt lat="59.90302" lon="17.6171711">
        <ele>20.325</ele>
        <time>2013-05-03T15:21:48Z</time>
      </trkpt>
      <trkpt lat="59.902993" lon="17.6172572">
        <ele>20.325</ele>
        <time>2013-05-03T15:21:49Z</time>
      </trkpt>
      <trkpt lat="59.9029653" lon="17.6173488">
        <ele>19.8444</ele>
        <time>2013-05-03T15:21:50Z</time>
      </trkpt>
      <trkpt lat="59.9029362" lon="17.6174436">
        <ele>19.8444</ele>
        <time>2013-05-03T15:21:51Z</time>
      </trkpt>
      <trkpt lat="59.9029073" lon="17.6175416">
        <ele>19.8444</ele>
        <time>2013-05-03T15:21:52Z</time>
      </trkpt>
      <trkpt lat="59.9028781" lon="17.6176411">
        <ele>19.8444</ele>
        <time>2013-05-03T15:21:53Z</time>
      </trkpt>
      <trkpt lat="59.9028477" lon="17.6177407">
        <ele>19.8444</ele>
        <time>2013-05-03T15:21:54Z</time>
      </trkpt>
      <trkpt lat="59.9028161" lon="17.6178404">
        <ele>19.3638</ele>
        <time>2013-05-03T15:21:55Z</time>
      </trkpt>
      <trkpt lat="59.9027832" lon="17.617939">
        <ele>19.3638</ele>
        <time>2013-05-03T15:21:56Z</time>
      </trkpt>
      <trkpt lat="59.9027497" lon="17.6180363">
        <ele>19.3638</ele>
        <time>2013-05-03T15:21:57Z</time>
      </trkpt>
      <trkpt lat="59.9027162" lon="17.6181327">
        <ele>19.3638</ele>
        <time>2013-05-03T15:21:58Z</time>
      </trkpt>
      <trkpt lat="59.9026835" lon="17.618229">
        <ele>19.3638</ele>
        <time>2013-05-03T15:21:59Z</time>
      </trkpt>
      <trkpt lat="59.9026508" lon="17.6183248">
        <ele>19.3638</ele>
        <time>2013-05-03T15:22:00Z</time>
      </trkpt>
      <trkpt lat="59.9026175" lon="17.6184181">
        <ele>19.3638</ele>
        <time>2013-05-03T15:22:01Z</time>
      </trkpt>
      <trkpt lat="59.9025829" lon="17.6185074">
        <ele>19.3638</ele>
        <time>2013-05-03T15:22:02Z</time>
      </trkpt>
      <trkpt lat="59.9025483" lon="17.6185953">
        <ele>19.3638</ele>
        <time>2013-05-03T15:22:03Z</time>
      </trkpt>
      <trkpt lat="59.9025149" lon="17.618683">
        <ele>19.3638</ele>
        <time>2013-05-03T15:22:04Z</time>
      </trkpt>
      <trkpt lat="59.9024825" lon="17.6187703">
        <ele>19.3638</ele>
        <time>2013-05-03T15:22:05Z</time>
      </trkpt>
      <trkpt lat="59.902451" lon="17.618856">
        <ele>19.3638</ele>
        <time>2013-05-03T15:22:06Z</time>
      </trkpt>
      <trkpt lat="59.9024188" lon="17.6189391">
        <ele>19.3638</ele>
        <time>2013-05-03T15:22:07Z</time>
      </trkpt>
      <trkpt lat="59.9023856" lon="17.6190206">
        <ele>19.3638</ele>
        <time>2013-05-03T15:22:08Z</time>
      </trkpt>
      <trkpt lat="59.9023524" lon="17.6191022">
        <ele>19.3638</ele>
        <time>2013-05-03T15:22:09Z</time>
      </trkpt>
      <trkpt lat="59.9023191" lon="17.6191853">
        <ele>19.3638</ele>
        <time>2013-05-03T15:22:10Z</time>
      </trkpt>
      <trkpt lat="59.9022857" lon="17.6192698">
        <ele>19.3638</ele>
        <time>2013-05-03T15:22:11Z</time>
      </trkpt>
      <trkpt lat="59.9022531" lon="17.6193551">
        <ele>19.3638</ele>
        <time>2013-05-03T15:22:12Z</time>
      </trkpt>
      <trkpt lat="59.9022203" lon="17.6194397">
        <ele>19.3638</ele>
        <time>2013-05-03T15:22:13Z</time>
      </trkpt>
      <trkpt lat="59.9021866" lon="17.6195232">
        <ele>19.3638</ele>
        <time>2013-05-03T15:22:14Z</time>
      </trkpt>
      <trkpt lat="59.902154" lon="17.6196075">
        <ele>19.3638</ele>
        <time>2013-05-03T15:22:15Z</time>
      </trkpt>
      <trkpt lat="59.9021212" lon="17.6196919">
        <ele>19.3638</ele>
        <time>2013-05-03T15:22:16Z</time>
      </trkpt>
      <trkpt lat="59.902087" lon="17.6197748">
        <ele>18.8831</ele>
        <time>2013-05-03T15:22:17Z</time>
      </trkpt>
      <trkpt lat="59.9020537" lon="17.619859">
        <ele>18.8831</ele>
        <time>2013-05-03T15:22:18Z</time>
      </trkpt>
      <trkpt lat="59.90202" lon="17.6199364">
        <ele>18.8831</ele>
        <time>2013-05-03T15:22:19Z</time>
      </trkpt>
      <trkpt lat="59.9019848" lon="17.6200116">
        <ele>18.8831</ele>
        <time>2013-05-03T15:22:20Z</time>
      </trkpt>
      <trkpt lat="59.9019489" lon="17.6200847">
        <ele>18.8831</ele>
        <time>2013-05-03T15:22:21Z</time>
      </trkpt>
      <trkpt lat="59.9019148" lon="17.6201575">
        <ele>19.3638</ele>
        <time>2013-05-03T15:22:22Z</time>
      </trkpt>
      <trkpt lat="59.9018804" lon="17.6202333">
        <ele>19.3638</ele>
        <time>2013-05-03T15:22:23Z</time>
      </trkpt>
      <trkpt lat="59.9018447" lon="17.6203146">
        <ele>19.3638</ele>
        <time>2013-05-03T15:22:24Z</time>
      </trkpt>
      <trkpt lat="59.901809" lon="17.6204045">
        <ele>19.3638</ele>
        <time>2013-05-03T15:22:25Z</time>
      </trkpt>
      <trkpt lat="59.9017737" lon="17.6205032">
        <ele>19.3638</ele>
        <time>2013-05-03T15:22:26Z</time>
      </trkpt>
      <trkpt lat="59.9017376" lon="17.620607">
        <ele>19.3638</ele>
        <time>2013-05-03T15:22:27Z</time>
      </trkpt>
      <trkpt lat="59.9017017" lon="17.6207141">
        <ele>19.3638</ele>
        <time>2013-05-03T15:22:28Z</time>
      </trkpt>
      <trkpt lat="59.9016656" lon="17.6208207">
        <ele>19.3638</ele>
        <time>2013-05-03T15:22:29Z</time>
      </trkpt>
      <trkpt lat="59.9016296" lon="17.6209258">
        <ele>19.3638</ele>
        <time>2013-05-03T15:22:30Z</time>
      </trkpt>
      <trkpt lat="59.9015944" lon="17.6210279">
        <ele>18.8831</ele>
        <time>2013-05-03T15:22:31Z</time>
      </trkpt>
      <trkpt lat="59.9015608" lon="17.6211289">
        <ele>18.8831</ele>
        <time>2013-05-03T15:22:32Z</time>
      </trkpt>
      <trkpt lat="59.9015298" lon="17.6212305">
        <ele>18.8831</ele>
        <time>2013-05-03T15:22:33Z</time>
      </trkpt>
      <trkpt lat="59.9015011" lon="17.6213325">
        <ele>18.8831</ele>
        <time>2013-05-03T15:22:34Z</time>
      </trkpt>
      <trkpt lat="59.9014739" lon="17.6214341">
        <ele>18.8831</ele>
        <time>2013-05-03T15:22:35Z</time>
      </trkpt>
      <trkpt lat="59.9014448" lon="17.6215298">
        <ele>17.9218</ele>
        <time>2013-05-03T15:22:36Z</time>
      </trkpt>
      <trkpt lat="59.9014178" lon="17.6216253">
        <ele>17.9218</ele>
        <time>2013-05-03T15:22:37Z</time>
      </trkpt>
      <trkpt lat="59.9013911" lon="17.6217229">
        <ele>17.9218</ele>
        <time>2013-05-03T15:22:38Z</time>
      </trkpt>
      <trkpt lat="59.9013662" lon="17.6218234">
        <ele>17.9218</ele>
        <time>2013-05-03T15:22:39Z</time>
      </trkpt>
      <trkpt lat="59.9013424" lon="17.621923">
        <ele>17.9218</ele>
        <time>2013-05-03T15:22:40Z</time>
      </trkpt>
      <trkpt lat="59.9013195" lon="17.6220207">
        <ele>17.4412</ele>
        <time>2013-05-03T15:22:41Z</time>
      </trkpt>
      <trkpt lat="59.9012983" lon="17.622116">
        <ele>17.4412</ele>
        <time>2013-05-03T15:22:42Z</time>
      </trkpt>
      <trkpt lat="59.901278" lon="17.6222109">
        <ele>17.4412</ele>
        <time>2013-05-03T15:22:43Z</time>
      </trkpt>
      <trkpt lat="59.9012554" lon="17.6223056">
        <ele>17.4412</ele>
        <time>2013-05-03T15:22:44Z</time>
      </trkpt>
      <trkpt lat="59.9012326" lon="17.6224026">
        <ele>17.9218</ele>
        <time>2013-05-03T15:22:45Z</time>
      </trkpt>
      <trkpt lat="59.9012107" lon="17.6225032">
        <ele>17.9218</ele>
        <time>2013-05-03T15:22:46Z</time>
      </trkpt>
      <trkpt lat="59.9011884" lon="17.6226043">
        <ele>17.9218</ele>
        <time>2013-05-03T15:22:47Z</time>
      </trkpt>
      <trkpt lat="59.9011658" lon="17.6227057">
        <ele>17.9218</ele>
        <time>2013-05-03T15:22:48Z</time>
      </trkpt>
      <trkpt lat="59.9011442" lon="17.6228055">
        <ele>17.9218</ele>
        <time>2013-05-03T15:22:49Z</time>
      </trkpt>
      <trkpt lat="59.9011242" lon="17.6229052">
        <ele>17.9218</ele>
        <time>2013-05-03T15:22:50Z</time>
      </trkpt>
      <trkpt lat="59.9011052" lon="17.6230036">
        <ele>18.4023</ele>
        <time>2013-05-03T15:22:51Z</time>
      </trkpt>
      <trkpt lat="59.9010859" lon="17.6231019">
        <ele>18.4023</ele>
        <time>2013-05-03T15:22:52Z</time>
      </trkpt>
      <trkpt lat="59.9010665" lon="17.6232012">
        <ele>18.4023</ele>
        <time>2013-05-03T15:22:53Z</time>
      </trkpt>
      <trkpt lat="59.9010465" lon="17.6232983">
        <ele>18.4023</ele>
        <time>2013-05-03T15:22:54Z</time>
      </trkpt>
      <trkpt lat="59.9010266" lon="17.6233947">
        <ele>18.8831</ele>
        <time>2013-05-03T15:22:55Z</time>
      </trkpt>
      <trkpt lat="59.9010077" lon="17.6234921">
        <ele>19.3638</ele>
        <time>2013-05-03T15:22:56Z</time>
      </trkpt>
      <trkpt lat="59.9009916" lon="17.62359">
        <ele>19.3638</ele>
        <time>2013-05-03T15:22:57Z</time>
      </trkpt>
      <trkpt lat="59.9009777" lon="17.6236853">
        <ele>19.3638</ele>
        <time>2013-05-03T15:22:58Z</time>
      </trkpt>
      <trkpt lat="59.9009638" lon="17.6237744">
        <ele>19.3638</ele>
        <time>2013-05-03T15:22:59Z</time>
      </trkpt>
      <trkpt lat="59.9009489" lon="17.6238609">
        <ele>19.8444</ele>
        <time>2013-05-03T15:23:00Z</time>
      </trkpt>
      <trkpt lat="59.9009325" lon="17.6239504">
        <ele>19.8444</ele>
        <time>2013-05-03T15:23:01Z</time>
      </trkpt>
      <trkpt lat="59.9009165" lon="17.624044">
        <ele>20.325</ele>
        <time>2013-05-03T15:23:02Z</time>
      </trkpt>
      <trkpt lat="59.9009015" lon="17.6241381">
        <ele>20.325</ele>
        <time>2013-05-03T15:23:03Z</time>
      </trkpt>
      <trkpt lat="59.9008896" lon="17.6242301">
        <ele>20.8057</ele>
        <time>2013-05-03T15:23:04Z</time>
      </trkpt>
      <trkpt lat="59.9008795" lon="17.6243208">
        <ele>21.2864</ele>
        <time>2013-05-03T15:23:05Z</time>
      </trkpt>
      <trkpt lat="59.9008678" lon="17.6244108">
        <ele>21.767</ele>
        <time>2013-05-03T15:23:06Z</time>
      </trkpt>
      <trkpt lat="59.9008564" lon="17.6244985">
        <ele>22.2476</ele>
        <time>2013-05-03T15:23:07Z</time>
      </trkpt>
      <trkpt lat="59.9008465" lon="17.6245841">
        <ele>22.7283</ele>
        <time>2013-05-03T15:23:08Z</time>
      </trkpt>
      <trkpt lat="59.9008378" lon="17.6246644">
        <ele>23.209</ele>
        <time>2013-05-03T15:23:09Z</time>
      </trkpt>
      <trkpt lat="59.9008316" lon="17.6247394">
        <ele>23.209</ele>
        <time>2013-05-03T15:23:10Z</time>
      </trkpt>
      <trkpt lat="59.9008253" lon="17.6248128">
        <ele>23.6896</ele>
        <time>2013-05-03T15:23:11Z</time>
      </trkpt>
      <trkpt lat="59.9008182" lon="17.624886">
        <ele>23.6896</ele>
        <time>2013-05-03T15:23:12Z</time>
      </trkpt>
      <trkpt lat="59.900812" lon="17.6249605">
        <ele>24.1703</ele>
        <time>2013-05-03T15:23:13Z</time>
      </trkpt>
      <trkpt lat="59.9008072" lon="17.6250366">
        <ele>24.1703</ele>
        <time>2013-05-03T15:23:14Z</time>
      </trkpt>
      <trkpt lat="59.9008029" lon="17.6251153">
        <ele>24.1703</ele>
        <time>2013-05-03T15:23:15Z</time>
      </trkpt>
      <trkpt lat="59.9007977" lon="17.625192">
        <ele>24.1703</ele>
        <time>2013-05-03T15:23:16Z</time>
      </trkpt>
      <trkpt lat="59.9007984" lon="17.6252736">
        <ele>24.651</ele>
        <time>2013-05-03T15:23:17Z</time>
      </trkpt>
      <trkpt lat="59.9007969" lon="17.6253639">
        <ele>24.651</ele>
        <time>2013-05-03T15:23:18Z</time>
      </trkpt>
      <trkpt lat="59.9007953" lon="17.6254585">
        <ele>24.1703</ele>
        <time>2013-05-03T15:23:19Z</time>
      </trkpt>
      <trkpt lat="59.900793" lon="17.6255568">
        <ele>24.1703</ele>
        <time>2013-05-03T15:23:20Z</time>
      </trkpt>
      <trkpt lat="59.900789" lon="17.6256567">
        <ele>24.1703</ele>
        <time>2013-05-03T15:23:21Z</time>
      </trkpt>
      <trkpt lat="59.900787" lon="17.6257583">
        <ele>24.1703</ele>
        <time>2013-05-03T15:23:22Z</time>
      </trkpt>
      <trkpt lat="59.900787" lon="17.6258589">
        <ele>24.1703</ele>
        <time>2013-05-03T15:23:23Z</time>
      </trkpt>
      <trkpt lat="59.9007873" lon="17.6259603">
        <ele>24.651</ele>
        <time>2013-05-03T15:23:24Z</time>
      </trkpt>
      <trkpt lat="59.9007865" lon="17.6260633">
        <ele>24.651</ele>
        <time>2013-05-03T15:23:25Z</time>
      </trkpt>
      <trkpt lat="59.900786" lon="17.6261645">
        <ele>24.1703</ele>
        <time>2013-05-03T15:23:26Z</time>
      </trkpt>
      <trkpt lat="59.900786" lon="17.6262637">
        <ele>24.1703</ele>
        <time>2013-05-03T15:23:27Z</time>
      </trkpt>
      <trkpt lat="59.900787" lon="17.6263634">
        <ele>24.1703</ele>
        <time>2013-05-03T15:23:28Z</time>
      </trkpt>
      <trkpt lat="59.9007927" lon="17.6264634">
        <ele>24.1703</ele>
        <time>2013-05-03T15:23:29Z</time>
      </trkpt>
      <trkpt lat="59.9008036" lon="17.6265618">
        <ele>23.6896</ele>
        <time>2013-05-03T15:23:30Z</time>
      </trkpt>
      <trkpt lat="59.900817" lon="17.6266603">
        <ele>23.6896</ele>
        <time>2013-05-03T15:23:31Z</time>
      </trkpt>
      <trkpt lat="59.9008325" lon="17.626761">
        <ele>23.209</ele>
        <time>2013-05-03T15:23:32Z</time>
      </trkpt>
      <trkpt lat="59.9008506" lon="17.6268622">
        <ele>23.209</ele>
        <time>2013-05-03T15:23:33Z</time>
      </trkpt>
      <trkpt lat="59.9008708" lon="17.6269633">
        <ele>23.209</ele>
        <time>2013-05-03T15:23:34Z</time>
      </trkpt>
      <trkpt lat="59.9008937" lon="17.6270644">
        <ele>22.7283</ele>
        <time>2013-05-03T15:23:35Z</time>
      </trkpt>
      <trkpt lat="59.9009186" lon="17.6271684">
        <ele>22.7283</ele>
        <time>2013-05-03T15:23:36Z</time>
      </trkpt>
      <trkpt lat="59.900945" lon="17.627277">
        <ele>22.7283</ele>
        <time>2013-05-03T15:23:37Z</time>
      </trkpt>
      <trkpt lat="59.9009746" lon="17.6273883">
        <ele>22.2476</ele>
        <time>2013-05-03T15:23:38Z</time>
      </trkpt>
      <trkpt lat="59.9010056" lon="17.627502">
        <ele>22.2476</ele>
        <time>2013-05-03T15:23:39Z</time>
      </trkpt>
      <trkpt lat="59.9010358" lon="17.6276183">
        <ele>21.767</ele>
        <time>2013-05-03T15:23:40Z</time>
      </trkpt>
      <trkpt lat="59.9010662" lon="17.6277351">
        <ele>21.767</ele>
        <time>2013-05-03T15:23:41Z</time>
      </trkpt>
      <trkpt lat="59.9010968" lon="17.6278516">
        <ele>21.767</ele>
        <time>2013-05-03T15:23:42Z</time>
      </trkpt>
      <trkpt lat="59.9011261" lon="17.6279682">
        <ele>21.2864</ele>
        <time>2013-05-03T15:23:43Z</time>
      </trkpt>
      <trkpt lat="59.9011542" lon="17.6280842">
        <ele>21.2864</ele>
        <time>2013-05-03T15:23:44Z</time>
      </trkpt>
      <trkpt lat="59.9011816" lon="17.6281983">
        <ele>21.2864</ele>
        <time>2013-05-03T15:23:45Z</time>
      </trkpt>
      <trkpt lat="59.9012067" lon="17.6283114">
        <ele>21.2864</ele>
        <time>2013-05-03T15:23:46Z</time>
      </trkpt>
      <trkpt lat="59.9012299" lon="17.6284235">
        <ele>21.2864</ele>
        <time>2013-05-03T15:23:47Z</time>
      </trkpt>
      <trkpt lat="59.9012491" lon="17.6285368">
        <ele>21.2864</ele>
        <time>2013-05-03T15:23:48Z</time>
      </trkpt>
      <trkpt lat="59.901264" lon="17.6286524">
        <ele>21.2864</ele>
        <time>2013-05-03T15:23:49Z</time>
      </trkpt>
      <trkpt lat="59.9012776" lon="17.6287675">
        <ele>21.2864</ele>
        <time>2013-05-03T15:23:50Z</time>
      </trkpt>
      <trkpt lat="59.9012873" lon="17.6288851">
        <ele>20.8057</ele>
        <time>2013-05-03T15:23:51Z</time>
      </trkpt>
      <trkpt lat="59.9012939" lon="17.6290042">
        <ele>20.8057</ele>
        <time>2013-05-03T15:23:52Z</time>
      </trkpt>
      <trkpt lat="59.9013013" lon="17.6291221">
        <ele>20.8057</ele>
        <time>2013-05-03T15:23:53Z</time>
      </trkpt>
      <trkpt lat="59.9013093" lon="17.6292386">
        <ele>20.8057</ele>
        <time>2013-05-03T15:23:54Z</time>
      </trkpt>
      <trkpt lat="59.9013159" lon="17.6293548">
        <ele>20.325</ele>
        <time>2013-05-03T15:23:55Z</time>
      </trkpt>
      <trkpt lat="59.9013214" lon="17.6294716">
        <ele>20.325</ele>
        <time>2013-05-03T15:23:56Z</time>
      </trkpt>
      <trkpt lat="59.9013284" lon="17.6295866">
        <ele>20.325</ele>
        <time>2013-05-03T15:23:57Z</time>
      </trkpt>
      <trkpt lat="59.9013364" lon="17.6296998">
        <ele>19.8444</ele>
        <time>2013-05-03T15:23:58Z</time>
      </trkpt>
      <trkpt lat="59.9013434" lon="17.6298136">
        <ele>19.8444</ele>
        <time>2013-05-03T15:23:59Z</time>
      </trkpt>
      <trkpt lat="59.90135" lon="17.6299299">
        <ele>19.8444</ele>
        <time>2013-05-03T15:24:00Z</time>
      </trkpt>
      <trkpt lat="59.9013559" lon="17.6300469">
        <ele>19.8444</ele>
        <time>2013-05-03T15:24:01Z</time>
      </trkpt>
      <trkpt lat="59.9013608" lon="17.6301657">
        <ele>19.8444</ele>
        <time>2013-05-03T15:24:02Z</time>
      </trkpt>
      <trkpt lat="59.9013657" lon="17.630284">
        <ele>19.8444</ele>
        <time>2013-05-03T15:24:03Z</time>
      </trkpt>
      <trkpt lat="59.9013739" lon="17.6304008">
        <ele>19.8444</ele>
        <time>2013-05-03T15:24:04Z</time>
      </trkpt>
      <trkpt lat="59.9013804" lon="17.6305195">
        <ele>19.8444</ele>
        <time>2013-05-03T15:24:05Z</time>
      </trkpt>
      <trkpt lat="59.9013812" lon="17.6306393">
        <ele>19.3638</ele>
        <time>2013-05-03T15:24:06Z</time>
      </trkpt>
      <trkpt lat="59.9013782" lon="17.6307587">
        <ele>19.3638</ele>
        <time>2013-05-03T15:24:07Z</time>
      </trkpt>
      <trkpt lat="59.901373" lon="17.630879">
        <ele>19.3638</ele>
        <time>2013-05-03T15:24:08Z</time>
      </trkpt>
      <trkpt lat="59.9013657" lon="17.6309986">
        <ele>19.3638</ele>
        <time>2013-05-03T15:24:09Z</time>
      </trkpt>
      <trkpt lat="59.9013559" lon="17.6311149">
        <ele>19.3638</ele>
        <time>2013-05-03T15:24:10Z</time>
      </trkpt>
      <trkpt lat="59.9013447" lon="17.6312284">
        <ele>18.8831</ele>
        <time>2013-05-03T15:24:11Z</time>
      </trkpt>
      <trkpt lat="59.9013325" lon="17.6313404">
        <ele>18.8831</ele>
        <time>2013-05-03T15:24:12Z</time>
      </trkpt>
      <trkpt lat="59.901318" lon="17.6314482">
        <ele>18.8831</ele>
        <time>2013-05-03T15:24:13Z</time>
      </trkpt>
      <trkpt lat="59.9012999" lon="17.6315496">
        <ele>18.8831</ele>
        <time>2013-05-03T15:24:14Z</time>
      </trkpt>
      <trkpt lat="59.9012796" lon="17.6316466">
        <ele>18.4023</ele>
        <time>2013-05-03T15:24:15Z</time>
      </trkpt>
      <trkpt lat="59.9012594" lon="17.631742">
        <ele>18.4023</ele>
        <time>2013-05-03T15:24:16Z</time>
      </trkpt>
      <trkpt lat="59.9012388" lon="17.6318357">
        <ele>17.9218</ele>
        <time>2013-05-03T15:24:17Z</time>
      </trkpt>
      <trkpt lat="59.9012169" lon="17.6319262">
        <ele>17.9218</ele>
        <time>2013-05-03T15:24:18Z</time>
      </trkpt>
      <trkpt lat="59.9011926" lon="17.6320145">
        <ele>17.9218</ele>
        <time>2013-05-03T15:24:19Z</time>
      </trkpt>
      <trkpt lat="59.901165" lon="17.6321014">
        <ele>17.4412</ele>
        <time>2013-05-03T15:24:20Z</time>
      </trkpt>
      <trkpt lat="59.9011351" lon="17.6321885">
        <ele>16.9604</ele>
        <time>2013-05-03T15:24:21Z</time>
      </trkpt>
      <trkpt lat="59.9011036" lon="17.6322732">
        <ele>16.9604</ele>
        <time>2013-05-03T15:24:22Z</time>
      </trkpt>
      <trkpt lat="59.9010708" lon="17.6323548">
        <ele>16.9604</ele>
        <time>2013-05-03T15:24:23Z</time>
      </trkpt>
      <trkpt lat="59.901037" lon="17.6324348">
        <ele>16.9604</ele>
        <time>2013-05-03T15:24:24Z</time>
      </trkpt>
      <trkpt lat="59.901002" lon="17.6325145">
        <ele>16.9604</ele>
        <time>2013-05-03T15:24:25Z</time>
      </trkpt>
      <trkpt lat="59.9009655" lon="17.6325917">
        <ele>16.9604</ele>
        <time>2013-05-03T15:24:26Z</time>
      </trkpt>
      <trkpt lat="59.9009278" lon="17.6326638">
        <ele>16.4797</ele>
        <time>2013-05-03T15:24:27Z</time>
      </trkpt>
      <trkpt lat="59.900888" lon="17.6327335">
        <ele>16.4797</ele>
        <time>2013-05-03T15:24:28Z</time>
      </trkpt>
      <trkpt lat="59.9008469" lon="17.6328069">
        <ele>16.4797</ele>
        <time>2013-05-03T15:24:29Z</time>
      </trkpt>
      <trkpt lat="59.900806" lon="17.6328814">
        <ele>16.9604</ele>
        <time>2013-05-03T15:24:30Z</time>
      </trkpt>
      <trkpt lat="59.9007647" lon="17.6329468">
        <ele>16.4797</ele>
        <time>2013-05-03T15:24:31Z</time>
      </trkpt>
      <trkpt lat="59.9007234" lon="17.63301">
        <ele>16.4797</ele>
        <time>2013-05-03T15:24:32Z</time>
      </trkpt>
      <trkpt lat="59.9006813" lon="17.6330764">
        <ele>16.4797</ele>
        <time>2013-05-03T15:24:33Z</time>
      </trkpt>
      <trkpt lat="59.9006377" lon="17.633141">
        <ele>16.4797</ele>
        <time>2013-05-03T15:24:34Z</time>
      </trkpt>
      <trkpt lat="59.9005936" lon="17.6332049">
        <ele>16.4797</ele>
        <time>2013-05-03T15:24:35Z</time>
      </trkpt>
      <trkpt lat="59.9005488" lon="17.6332669">
        <ele>16.4797</ele>
        <time>2013-05-03T15:24:36Z</time>
      </trkpt>
      <trkpt lat="59.9005035" lon="17.6333254">
        <ele>16.4797</ele>
        <time>2013-05-03T15:24:37Z</time>
      </trkpt>
      <trkpt lat="59.900458" lon="17.6333824">
        <ele>16.4797</ele>
        <time>2013-05-03T15:24:38Z</time>
      </trkpt>
      <trkpt lat="59.9004131" lon="17.6334397">
        <ele>16.4797</ele>
        <time>2013-05-03T15:24:39Z</time>
      </trkpt>
      <trkpt lat="59.90037" lon="17.6334964">
        <ele>16.4797</ele>
        <time>2013-05-03T15:24:40Z</time>
      </trkpt>
      <trkpt lat="59.9003279" lon="17.6335497">
        <ele>16.4797</ele>
        <time>2013-05-03T15:24:41Z</time>
      </trkpt>
      <trkpt lat="59.9002856" lon="17.6335985">
        <ele>16.4797</ele>
        <time>2013-05-03T15:24:42Z</time>
      </trkpt>
      <trkpt lat="59.9002415" lon="17.6336393">
        <ele>15.999</ele>
        <time>2013-05-03T15:24:43Z</time>
      </trkpt>
      <trkpt lat="59.900198" lon="17.6336773">
        <ele>15.5184</ele>
        <time>2013-05-03T15:24:44Z</time>
      </trkpt>
      <trkpt lat="59.900157" lon="17.6337179">
        <ele>15.5184</ele>
        <time>2013-05-03T15:24:45Z</time>
      </trkpt>
      <trkpt lat="59.9001162" lon="17.6337579">
        <ele>15.5184</ele>
        <time>2013-05-03T15:24:46Z</time>
      </trkpt>
      <trkpt lat="59.900074" lon="17.6337892">
        <ele>14.557</ele>
        <time>2013-05-03T15:24:47Z</time>
      </trkpt>
      <trkpt lat="59.9000322" lon="17.6338179">
        <ele>13.5958</ele>
        <time>2013-05-03T15:24:48Z</time>
      </trkpt>
      <trkpt lat="59.8999917" lon="17.6338503">
        <ele>13.5958</ele>
        <time>2013-05-03T15:24:49Z</time>
      </trkpt>
      <trkpt lat="59.8999507" lon="17.6338823">
        <ele>13.1151</ele>
        <time>2013-05-03T15:24:50Z</time>
      </trkpt>
      <trkpt lat="59.8999095" lon="17.6339122">
        <ele>13.1151</ele>
        <time>2013-05-03T15:24:51Z</time>
      </trkpt>
      <trkpt lat="59.8998685" lon="17.6339398">
        <ele>13.5958</ele>
        <time>2013-05-03T15:24:52Z</time>
      </trkpt>
      <trkpt lat="59.8998287" lon="17.6339651">
        <ele>13.5958</ele>
        <time>2013-05-03T15:24:53Z</time>
      </trkpt>
      <trkpt lat="59.8997908" lon="17.6339869">
        <ele>13.5958</ele>
        <time>2013-05-03T15:24:54Z</time>
      </trkpt>
      <trkpt lat="59.8997531" lon="17.6340077">
        <ele>13.1151</ele>
        <time>2013-05-03T15:24:55Z</time>
      </trkpt>
      <trkpt lat="59.8997137" lon="17.6340287">
        <ele>13.5958</ele>
        <time>2013-05-03T15:24:56Z</time>
      </trkpt>
      <trkpt lat="59.8996732" lon="17.634046">
        <ele>13.5958</ele>
        <time>2013-05-03T15:24:57Z</time>
      </trkpt>
      <trkpt lat="59.8996333" lon="17.6340609">
        <ele>13.5958</ele>
        <time>2013-05-03T15:24:58Z</time>
      </trkpt>
      <trkpt lat="59.8995946" lon="17.6340805">
        <ele>14.0764</ele>
        <time>2013-05-03T15:24:59Z</time>
      </trkpt>
      <trkpt lat="59.8995577" lon="17.6341019">
        <ele>14.0764</ele>
        <time>2013-05-03T15:25:00Z</time>
      </trkpt>
      <trkpt lat="59.8995208" lon="17.63412">
        <ele>14.557</ele>
        <time>2013-05-03T15:25:01Z</time>
      </trkpt>
      <trkpt lat="59.8994837" lon="17.6341359">
        <ele>14.557</ele>
        <time>2013-05-03T15:25:02Z</time>
      </trkpt>
      <trkpt lat="59.8994469" lon="17.634154">
        <ele>15.0377</ele>
        <time>2013-05-03T15:25:03Z</time>
      </trkpt>
      <trkpt lat="59.89941" lon="17.6341708">
        <ele>14.557</ele>
        <time>2013-05-03T15:25:04Z</time>
      </trkpt>
      <trkpt lat="59.899373" lon="17.6341884">
        <ele>15.0377</ele>
        <time>2013-05-03T15:25:05Z</time>
      </trkpt>
      <trkpt lat="59.899335" lon="17.6342092">
        <ele>15.0377</ele>
        <time>2013-05-03T15:25:06Z</time>
      </trkpt>
      <trkpt lat="59.8992961" lon="17.6342305">
        <ele>15.0377</ele>
        <time>2013-05-03T15:25:07Z</time>
      </trkpt>
      <trkpt lat="59.8992564" lon="17.6342516">
        <ele>15.0377</ele>
        <time>2013-05-03T15:25:08Z</time>
      </trkpt>
      <trkpt lat="59.8992159" lon="17.6342719">
        <ele>15.0377</ele>
        <time>2013-05-03T15:25:09Z</time>
      </trkpt>
      <trkpt lat="59.8991758" lon="17.6342911">
        <ele>15.0377</ele>
        <time>2013-05-03T15:25:10Z</time>
      </trkpt>
      <trkpt lat="59.899134" lon="17.6343092">
        <ele>14.557</ele>
        <time>2013-05-03T15:25:11Z</time>
      </trkpt>
      <trkpt lat="59.899094" lon="17.6343354">
        <ele>14.557</ele>
        <time>2013-05-03T15:25:12Z</time>
      </trkpt>
      <trkpt lat="59.8990549" lon="17.6343624">
        <ele>15.5184</ele>
        <time>2013-05-03T15:25:13Z</time>
      </trkpt>
      <trkpt lat="59.8990164" lon="17.6343806">
        <ele>15.5184</ele>
        <time>2013-05-03T15:25:14Z</time>
      </trkpt>
      <trkpt lat="59.898977" lon="17.6343932">
        <ele>15.0377</ele>
        <time>2013-05-03T15:25:15Z</time>
      </trkpt>
      <trkpt lat="59.8989381" lon="17.6344037">
        <ele>15.0377</ele>
        <time>2013-05-03T15:25:16Z</time>
      </trkpt>
      <trkpt lat="59.8988994" lon="17.6344103">
        <ele>15.0377</ele>
        <time>2013-05-03T15:25:17Z</time>
      </trkpt>
      <trkpt lat="59.898861" lon="17.6344134">
        <ele>14.557</ele>
        <time>2013-05-03T15:25:18Z</time>
      </trkpt>
      <trkpt lat="59.8988237" lon="17.6344175">
        <ele>15.0377</ele>
        <time>2013-05-03T15:25:19Z</time>
      </trkpt>
      <trkpt lat="59.8987885" lon="17.6344236">
        <ele>15.5184</ele>
        <time>2013-05-03T15:25:20Z</time>
      </trkpt>
      <trkpt lat="59.8987528" lon="17.6344231">
        <ele>15.5184</ele>
        <time>2013-05-03T15:25:21Z</time>
      </trkpt>
      <trkpt lat="59.898717" lon="17.6344194">
        <ele>15.5184</ele>
        <time>2013-05-03T15:25:22Z</time>
      </trkpt>
      <trkpt lat="59.8986811" lon="17.6344179">
        <ele>15.5184</ele>
        <time>2013-05-03T15:25:23Z</time>
      </trkpt>
      <trkpt lat="59.898644" lon="17.6344157">
        <ele>15.0377</ele>
        <time>2013-05-03T15:25:24Z</time>
      </trkpt>
      <trkpt lat="59.8986081" lon="17.6344129">
        <ele>15.5184</ele>
        <time>2013-05-03T15:25:25Z</time>
      </trkpt>
      <trkpt lat="59.8985756" lon="17.6344105">
        <ele>15.999</ele>
        <time>2013-05-03T15:25:26Z</time>
      </trkpt>
      <trkpt lat="59.898544" lon="17.6344079">
        <ele>16.4797</ele>
        <time>2013-05-03T15:25:27Z</time>
      </trkpt>
      <trkpt lat="59.8985135" lon="17.6344068">
        <ele>16.9604</ele>
        <time>2013-05-03T15:25:28Z</time>
      </trkpt>
      <trkpt lat="59.898484" lon="17.6344054">
        <ele>16.9604</ele>
        <time>2013-05-03T15:25:29Z</time>
      </trkpt>
      <trkpt lat="59.8984537" lon="17.6344011">
        <ele>16.9604</ele>
        <time>2013-05-03T15:25:30Z</time>
      </trkpt>
      <trkpt lat="59.8984252" lon="17.634397">
        <ele>17.9218</ele>
        <time>2013-05-03T15:25:31Z</time>
      </trkpt>
      <trkpt lat="59.8983917" lon="17.634391">
        <ele>17.4412</ele>
        <time>2013-05-03T15:25:32Z</time>
      </trkpt>
      <trkpt lat="59.8983602" lon="17.6343888">
        <ele>17.4412</ele>
        <time>2013-05-03T15:25:33Z</time>
      </trkpt>
      <trkpt lat="59.8983297" lon="17.634388">
        <ele>16.9604</ele>
        <time>2013-05-03T15:25:34Z</time>
      </trkpt>
      <trkpt lat="59.8983009" lon="17.6343903">
        <ele>16.9604</ele>
        <time>2013-05-03T15:25:35Z</time>
      </trkpt>
      <trkpt lat="59.8982752" lon="17.6343958">
        <ele>17.9218</ele>
        <time>2013-05-03T15:25:36Z</time>
      </trkpt>
      <trkpt lat="59.8982468" lon="17.6343994">
        <ele>17.9218</ele>
        <time>2013-05-03T15:25:37Z</time>
      </trkpt>
      <trkpt lat="59.8982167" lon="17.6344023">
        <ele>17.4412</ele>
        <time>2013-05-03T15:25:38Z</time>
      </trkpt>
      <trkpt lat="59.8981887" lon="17.6344108">
        <ele>17.9218</ele>
        <time>2013-05-03T15:25:39Z</time>
      </trkpt>
      <trkpt lat="59.8981615" lon="17.6344252">
        <ele>17.9218</ele>
        <time>2013-05-03T15:25:40Z</time>
      </trkpt>
      <trkpt lat="59.8981353" lon="17.6344442">
        <ele>17.9218</ele>
        <time>2013-05-03T15:25:41Z</time>
      </trkpt>
      <trkpt lat="59.8981115" lon="17.6344701">
        <ele>18.4023</ele>
        <time>2013-05-03T15:25:42Z</time>
      </trkpt>
      <trkpt lat="59.8980876" lon="17.6345003">
        <ele>18.8831</ele>
        <time>2013-05-03T15:25:43Z</time>
      </trkpt>
      <trkpt lat="59.8980659" lon="17.6345391">
        <ele>18.8831</ele>
        <time>2013-05-03T15:25:44Z</time>
      </trkpt>
      <trkpt lat="59.8980472" lon="17.6345861">
        <ele>19.3638</ele>
        <time>2013-05-03T15:25:45Z</time>
      </trkpt>
      <trkpt lat="59.8980312" lon="17.6346293">
        <ele>19.3638</ele>
        <time>2013-05-03T15:25:46Z</time>
      </trkpt>
      <trkpt lat="59.8980151" lon="17.6346671">
        <ele>18.8831</ele>
        <time>2013-05-03T15:25:47Z</time>
      </trkpt>
      <trkpt lat="59.8980023" lon="17.6347125">
        <ele>18.4023</ele>
        <time>2013-05-03T15:25:48Z</time>
      </trkpt>
      <trkpt lat="59.8979878" lon="17.6347649">
        <ele>18.4023</ele>
        <time>2013-05-03T15:25:49Z</time>
      </trkpt>
      <trkpt lat="59.8979695" lon="17.6348182">
        <ele>17.9218</ele>
        <time>2013-05-03T15:25:50Z</time>
      </trkpt>
      <trkpt lat="59.897951" lon="17.6348702">
        <ele>17.9218</ele>
        <time>2013-05-03T15:25:51Z</time>
      </trkpt>
      <trkpt lat="59.8979286" lon="17.6349204">
        <ele>17.9218</ele>
        <time>2013-05-03T15:25:52Z</time>
      </trkpt>
      <trkpt lat="59.8979044" lon="17.6349697">
        <ele>17.9218</ele>
        <time>2013-05-03T15:25:53Z</time>
      </trkpt>
      <trkpt lat="59.89788" lon="17.6350157">
        <ele>17.9218</ele>
        <time>2013-05-03T15:25:54Z</time>
      </trkpt>
      <trkpt lat="59.8978551" lon="17.6350601">
        <ele>17.9218</ele>
        <time>2013-05-03T15:25:55Z</time>
      </trkpt>
      <trkpt lat="59.89783" lon="17.6351018">
        <ele>17.4412</ele>
        <time>2013-05-03T15:25:56Z</time>
      </trkpt>
      <trkpt lat="59.8978063" lon="17.6351427">
        <ele>17.4412</ele>
        <time>2013-05-03T15:25:57Z</time>
      </trkpt>
      <trkpt lat="59.8977844" lon="17.6351787">
        <ele>16.9604</ele>
        <time>2013-05-03T15:25:58Z</time>
      </trkpt>
      <trkpt lat="59.897763" lon="17.6352173">
        <ele>17.4412</ele>
        <time>2013-05-03T15:25:59Z</time>
      </trkpt>
      <trkpt lat="59.8977458" lon="17.6352582">
        <ele>16.9604</ele>
        <time>2013-05-03T15:26:00Z</time>
      </trkpt>
      <trkpt lat="59.89773" lon="17.6353004">
        <ele>16.4797</ele>
        <time>2013-05-03T15:26:01Z</time>
      </trkpt>
      <trkpt lat="59.8977133" lon="17.6353425">
        <ele>16.9604</ele>
        <time>2013-05-03T15:26:02Z</time>
      </trkpt>
      <trkpt lat="59.8976986" lon="17.6353844">
        <ele>16.4797</ele>
        <time>2013-05-03T15:26:03Z</time>
      </trkpt>
      <trkpt lat="59.8976852" lon="17.6354265">
        <ele>16.4797</ele>
        <time>2013-05-03T15:26:04Z</time>
      </trkpt>
      <trkpt lat="59.8976705" lon="17.635469">
        <ele>16.4797</ele>
        <time>2013-05-03T15:26:05Z</time>
      </trkpt>
      <trkpt lat="59.897656" lon="17.6355123">
        <ele>16.4797</ele>
        <time>2013-05-03T15:26:06Z</time>
      </trkpt>
      <trkpt lat="59.8976427" lon="17.635556">
        <ele>16.4797</ele>
        <time>2013-05-03T15:26:07Z</time>
      </trkpt>
      <trkpt lat="59.8976303" lon="17.635601">
        <ele>16.4797</ele>
        <time>2013-05-03T15:26:08Z</time>
      </trkpt>
      <trkpt lat="59.8976182" lon="17.6356455">
        <ele>16.9604</ele>
        <time>2013-05-03T15:26:09Z</time>
      </trkpt>
      <trkpt lat="59.8976059" lon="17.6356906">
        <ele>16.9604</ele>
        <time>2013-05-03T15:26:10Z</time>
      </trkpt>
      <trkpt lat="59.8975929" lon="17.6357358">
        <ele>16.9604</ele>
        <time>2013-05-03T15:26:11Z</time>
      </trkpt>
      <trkpt lat="59.8975777" lon="17.6357798">
        <ele>16.9604</ele>
        <time>2013-05-03T15:26:12Z</time>
      </trkpt>
      <trkpt lat="59.8975619" lon="17.6358275">
        <ele>17.4412</ele>
        <time>2013-05-03T15:26:13Z</time>
      </trkpt>
      <trkpt lat="59.8975484" lon="17.6358787">
        <ele>17.4412</ele>
        <time>2013-05-03T15:26:14Z</time>
      </trkpt>
      <trkpt lat="59.8975354" lon="17.6359341">
        <ele>17.9218</ele>
        <time>2013-05-03T15:26:15Z</time>
      </trkpt>
      <trkpt lat="59.8975224" lon="17.6359932">
        <ele>18.4023</ele>
        <time>2013-05-03T15:26:16Z</time>
      </trkpt>
      <trkpt lat="59.8975084" lon="17.6360546">
        <ele>18.8831</ele>
        <time>2013-05-03T15:26:17Z</time>
      </trkpt>
      <trkpt lat="59.897493" lon="17.6361168">
        <ele>19.3638</ele>
        <time>2013-05-03T15:26:18Z</time>
      </trkpt>
      <trkpt lat="59.8974769" lon="17.6361802">
        <ele>19.3638</ele>
        <time>2013-05-03T15:26:19Z</time>
      </trkpt>
      <trkpt lat="59.8974653" lon="17.6362444">
        <ele>18.8831</ele>
        <time>2013-05-03T15:26:20Z</time>
      </trkpt>
      <trkpt lat="59.8974541" lon="17.6363148">
        <ele>19.3638</ele>
        <time>2013-05-03T15:26:21Z</time>
      </trkpt>
      <trkpt lat="59.8974438" lon="17.6363795">
        <ele>19.8444</ele>
        <time>2013-05-03T15:26:22Z</time>
      </trkpt>
      <trkpt lat="59.8974345" lon="17.6364371">
        <ele>19.3638</ele>
        <time>2013-05-03T15:26:23Z</time>
      </trkpt>
      <trkpt lat="59.8974277" lon="17.6364903">
        <ele>19.3638</ele>
        <time>2013-05-03T15:26:24Z</time>
      </trkpt>
      <trkpt lat="59.8974194" lon="17.6365444">
        <ele>20.325</ele>
        <time>2013-05-03T15:26:25Z</time>
      </trkpt>
      <trkpt lat="59.8974094" lon="17.6365967">
        <ele>20.8057</ele>
        <time>2013-05-03T15:26:26Z</time>
      </trkpt>
      <trkpt lat="59.8973997" lon="17.6366438">
        <ele>21.767</ele>
        <time>2013-05-03T15:26:27Z</time>
      </trkpt>
      <trkpt lat="59.8973949" lon="17.6366828">
        <ele>21.767</ele>
        <time>2013-05-03T15:26:28Z</time>
      </trkpt>
      <trkpt lat="59.8973923" lon="17.6367215">
        <ele>22.2476</ele>
        <time>2013-05-03T15:26:29Z</time>
      </trkpt>
      <trkpt lat="59.8973874" lon="17.6367553">
        <ele>22.2476</ele>
        <time>2013-05-03T15:26:30Z</time>
      </trkpt>
      <trkpt lat="59.8973786" lon="17.636784">
        <ele>22.2476</ele>
        <time>2013-05-03T15:26:31Z</time>
      </trkpt>
      <trkpt lat="59.8973661" lon="17.6368091">
        <ele>22.7283</ele>
        <time>2013-05-03T15:26:32Z</time>
      </trkpt>
      <trkpt lat="59.8973521" lon="17.6368318">
        <ele>23.209</ele>
        <time>2013-05-03T15:26:33Z</time>
      </trkpt>
      <trkpt lat="59.8973408" lon="17.6368572">
        <ele>23.209</ele>
        <time>2013-05-03T15:26:34Z</time>
      </trkpt>
      <trkpt lat="59.8973308" lon="17.6368889">
        <ele>23.209</ele>
        <time>2013-05-03T15:26:35Z</time>
      </trkpt>
      <trkpt lat="59.8973257" lon="17.6369303">
        <ele>23.209</ele>
        <time>2013-05-03T15:26:36Z</time>
      </trkpt>
      <trkpt lat="59.8973317" lon="17.6369817">
        <ele>24.1703</ele>
        <time>2013-05-03T15:26:37Z</time>
      </trkpt>
      <trkpt lat="59.8973512" lon="17.6370278">
        <ele>24.1703</ele>
        <time>2013-05-03T15:26:38Z</time>
      </trkpt>
      <trkpt lat="59.8973779" lon="17.6370624">
        <ele>24.651</ele>
        <time>2013-05-03T15:26:39Z</time>
      </trkpt>
      <trkpt lat="59.8974086" lon="17.6370871">
        <ele>24.651</ele>
        <time>2013-05-03T15:26:40Z</time>
      </trkpt>
      <trkpt lat="59.8974418" lon="17.6371112">
        <ele>24.651</ele>
        <time>2013-05-03T15:26:41Z</time>
      </trkpt>
      <trkpt lat="59.8974769" lon="17.6371368">
        <ele>24.651</ele>
        <time>2013-05-03T15:26:42Z</time>
      </trkpt>
      <trkpt lat="59.8975133" lon="17.6371644">
        <ele>24.651</ele>
        <time>2013-05-03T15:26:43Z</time>
      </trkpt>
      <trkpt lat="59.8975515" lon="17.6371928">
        <ele>24.651</ele>
        <time>2013-05-03T15:26:44Z</time>
      </trkpt>
      <trkpt lat="59.8975909" lon="17.637221">
        <ele>24.651</ele>
        <time>2013-05-03T15:26:45Z</time>
      </trkpt>
      <trkpt lat="59.8976314" lon="17.6372489">
        <ele>24.651</ele>
        <time>2013-05-03T15:26:46Z</time>
      </trkpt>
      <trkpt lat="59.8976712" lon="17.637282">
        <ele>24.651</ele>
        <time>2013-05-03T15:26:47Z</time>
      </trkpt>
      <trkpt lat="59.8977107" lon="17.637326">
        <ele>24.651</ele>
        <time>2013-05-03T15:26:48Z</time>
      </trkpt>
      <trkpt lat="59.8977472" lon="17.6373846">
        <ele>24.651</ele>
        <time>2013-05-03T15:26:49Z</time>
      </trkpt>
      <trkpt lat="59.897781" lon="17.6374529">
        <ele>24.651</ele>
        <time>2013-05-03T15:26:50Z</time>
      </trkpt>
      <trkpt lat="59.897816" lon="17.6375227">
        <ele>24.651</ele>
        <time>2013-05-03T15:26:51Z</time>
      </trkpt>
      <trkpt lat="59.8978504" lon="17.6375914">
        <ele>24.651</ele>
        <time>2013-05-03T15:26:52Z</time>
      </trkpt>
      <trkpt lat="59.8978867" lon="17.6376568">
        <ele>24.651</ele>
        <time>2013-05-03T15:26:53Z</time>
      </trkpt>
      <trkpt lat="59.8979249" lon="17.6377182">
        <ele>24.651</ele>
        <time>2013-05-03T15:26:54Z</time>
      </trkpt>
      <trkpt lat="59.8979649" lon="17.6377755">
        <ele>24.651</ele>
        <time>2013-05-03T15:26:55Z</time>
      </trkpt>
      <trkpt lat="59.8980074" lon="17.6378259">
        <ele>24.651</ele>
        <time>2013-05-03T15:26:56Z</time>
      </trkpt>
      <trkpt lat="59.8980514" lon="17.6378697">
        <ele>24.651</ele>
        <time>2013-05-03T15:26:57Z</time>
      </trkpt>
      <trkpt lat="59.8980976" lon="17.6379078">
        <ele>25.1317</ele>
        <time>2013-05-03T15:26:58Z</time>
      </trkpt>
      <trkpt lat="59.8981441" lon="17.6379461">
        <ele>25.1317</ele>
        <time>2013-05-03T15:26:59Z</time>
      </trkpt>
      <trkpt lat="59.89819" lon="17.6379871">
        <ele>25.1317</ele>
        <time>2013-05-03T15:27:00Z</time>
      </trkpt>
      <trkpt lat="59.8982358" lon="17.6380308">
        <ele>25.1317</ele>
        <time>2013-05-03T15:27:01Z</time>
      </trkpt>
      <trkpt lat="59.8982819" lon="17.6380751">
        <ele>25.1317</ele>
        <time>2013-05-03T15:27:02Z</time>
      </trkpt>
      <trkpt lat="59.8983291" lon="17.6381175">
        <ele>25.1317</ele>
        <time>2013-05-03T15:27:03Z</time>
      </trkpt>
      <trkpt lat="59.8983758" lon="17.6381585">
        <ele>25.1317</ele>
        <time>2013-05-03T15:27:04Z</time>
      </trkpt>
      <trkpt lat="59.8984223" lon="17.6382004">
        <ele>25.6123</ele>
        <time>2013-05-03T15:27:05Z</time>
      </trkpt>
      <trkpt lat="59.8984689" lon="17.6382418">
        <ele>25.6123</ele>
        <time>2013-05-03T15:27:06Z</time>
      </trkpt>
      <trkpt lat="59.8985164" lon="17.6382815">
        <ele>25.6123</ele>
        <time>2013-05-03T15:27:07Z</time>
      </trkpt>
      <trkpt lat="59.8985654" lon="17.6383132">
        <ele>25.6123</ele>
        <time>2013-05-03T15:27:08Z</time>
      </trkpt>
      <trkpt lat="59.8986177" lon="17.6383288">
        <ele>25.6123</ele>
        <time>2013-05-03T15:27:09Z</time>
      </trkpt>
      <trkpt lat="59.898672" lon="17.6383268">
        <ele>26.0929</ele>
        <time>2013-05-03T15:27:10Z</time>
      </trkpt>
      <trkpt lat="59.8987249" lon="17.6383143">
        <ele>26.0929</ele>
        <time>2013-05-03T15:27:11Z</time>
      </trkpt>
      <trkpt lat="59.8987743" lon="17.6382963">
        <ele>25.6123</ele>
        <time>2013-05-03T15:27:12Z</time>
      </trkpt>
      <trkpt lat="59.8988206" lon="17.6382868">
        <ele>25.6123</ele>
        <time>2013-05-03T15:27:13Z</time>
      </trkpt>
      <trkpt lat="59.8988699" lon="17.6383071">
        <ele>26.0929</ele>
        <time>2013-05-03T15:27:14Z</time>
      </trkpt>
      <trkpt lat="59.8989201" lon="17.6383476">
        <ele>26.0929</ele>
        <time>2013-05-03T15:27:15Z</time>
      </trkpt>
      <trkpt lat="59.898973" lon="17.6383951">
        <ele>26.0929</ele>
        <time>2013-05-03T15:27:16Z</time>
      </trkpt>
      <trkpt lat="59.8990253" lon="17.6384454">
        <ele>26.0929</ele>
        <time>2013-05-03T15:27:17Z</time>
      </trkpt>
      <trkpt lat="59.8990832" lon="17.6385475">
        <ele>26.0929</ele>
        <time>2013-05-03T15:27:18Z</time>
      </trkpt>
      <trkpt lat="59.8991341" lon="17.6386019">
        <ele>26.5736</ele>
        <time>2013-05-03T15:27:19Z</time>
      </trkpt>
      <trkpt lat="59.8991862" lon="17.6386488">
        <ele>27.0543</ele>
        <time>2013-05-03T15:27:20Z</time>
      </trkpt>
      <trkpt lat="59.8992361" lon="17.6386976">
        <ele>27.5349</ele>
        <time>2013-05-03T15:27:21Z</time>
      </trkpt>
      <trkpt lat="59.8992844" lon="17.6387506">
        <ele>27.0543</ele>
        <time>2013-05-03T15:27:22Z</time>
      </trkpt>
      <trkpt lat="59.8993335" lon="17.6388105">
        <ele>26.0929</ele>
        <time>2013-05-03T15:27:23Z</time>
      </trkpt>
      <trkpt lat="59.8993837" lon="17.6388587">
        <ele>25.6123</ele>
        <time>2013-05-03T15:27:24Z</time>
      </trkpt>
      <trkpt lat="59.899433" lon="17.6389039">
        <ele>25.6123</ele>
        <time>2013-05-03T15:27:25Z</time>
      </trkpt>
      <trkpt lat="59.8994811" lon="17.6389468">
        <ele>25.6123</ele>
        <time>2013-05-03T15:27:26Z</time>
      </trkpt>
      <trkpt lat="59.8995372" lon="17.6389938">
        <ele>25.6123</ele>
        <time>2013-05-03T15:27:27Z</time>
      </trkpt>
      <trkpt lat="59.8995852" lon="17.6390379">
        <ele>25.1317</ele>
        <time>2013-05-03T15:27:28Z</time>
      </trkpt>
      <trkpt lat="59.8996317" lon="17.6390835">
        <ele>25.1317</ele>
        <time>2013-05-03T15:27:29Z</time>
      </trkpt>
      <trkpt lat="59.8996769" lon="17.6391291">
        <ele>25.1317</ele>
        <time>2013-05-03T15:27:30Z</time>
      </trkpt>
      <trkpt lat="59.8997223" lon="17.6391743">
        <ele>24.651</ele>
        <time>2013-05-03T15:27:31Z</time>
      </trkpt>
      <trkpt lat="59.8997681" lon="17.6392194">
        <ele>24.651</ele>
        <time>2013-05-03T15:27:32Z</time>
      </trkpt>
      <trkpt lat="59.8998152" lon="17.6392653">
        <ele>24.651</ele>
        <time>2013-05-03T15:27:33Z</time>
      </trkpt>
      <trkpt lat="59.8998634" lon="17.6393124">
        <ele>24.651</ele>
        <time>2013-05-03T15:27:34Z</time>
      </trkpt>
      <trkpt lat="59.8999127" lon="17.6393606">
        <ele>24.1703</ele>
        <time>2013-05-03T15:27:35Z</time>
      </trkpt>
      <trkpt lat="59.8999593" lon="17.63941">
        <ele>23.6896</ele>
        <time>2013-05-03T15:27:36Z</time>
      </trkpt>
      <trkpt lat="59.9000059" lon="17.6394582">
        <ele>23.209</ele>
        <time>2013-05-03T15:27:37Z</time>
      </trkpt>
      <trkpt lat="59.9000535" lon="17.6395061">
        <ele>23.209</ele>
        <time>2013-05-03T15:27:38Z</time>
      </trkpt>
      <trkpt lat="59.9000991" lon="17.6395546">
        <ele>22.7283</ele>
        <time>2013-05-03T15:27:39Z</time>
      </trkpt>
      <trkpt lat="59.9001448" lon="17.6396051">
        <ele>21.767</ele>
        <time>2013-05-03T15:27:40Z</time>
      </trkpt>
      <trkpt lat="59.9001923" lon="17.6396567">
        <ele>21.2864</ele>
        <time>2013-05-03T15:27:41Z</time>
      </trkpt>
      <trkpt lat="59.9002421" lon="17.6397072">
        <ele>21.2864</ele>
        <time>2013-05-03T15:27:42Z</time>
      </trkpt>
      <trkpt lat="59.9002911" lon="17.6397571">
        <ele>21.2864</ele>
        <time>2013-05-03T15:27:43Z</time>
      </trkpt>
      <trkpt lat="59.90034" lon="17.6398084">
        <ele>20.8057</ele>
        <time>2013-05-03T15:27:44Z</time>
      </trkpt>
      <trkpt lat="59.9003883" lon="17.6398596">
        <ele>20.325</ele>
        <time>2013-05-03T15:27:45Z</time>
      </trkpt>
      <trkpt lat="59.9004366" lon="17.6399119">
        <ele>19.8444</ele>
        <time>2013-05-03T15:27:46Z</time>
      </trkpt>
      <trkpt lat="59.9004877" lon="17.6399657">
        <ele>19.8444</ele>
        <time>2013-05-03T15:27:47Z</time>
      </trkpt>
      <trkpt lat="59.9005368" lon="17.6400159">
        <ele>19.3638</ele>
        <time>2013-05-03T15:27:48Z</time>
      </trkpt>
      <trkpt lat="59.900585" lon="17.6400654">
        <ele>18.8831</ele>
        <time>2013-05-03T15:27:49Z</time>
      </trkpt>
      <trkpt lat="59.9006332" lon="17.640116">
        <ele>18.4023</ele>
        <time>2013-05-03T15:27:50Z</time>
      </trkpt>
      <trkpt lat="59.9006824" lon="17.6401673">
        <ele>17.9218</ele>
        <time>2013-05-03T15:27:51Z</time>
      </trkpt>
      <trkpt lat="59.9007333" lon="17.6402159">
        <ele>17.9218</ele>
        <time>2013-05-03T15:27:52Z</time>
      </trkpt>
      <trkpt lat="59.9007845" lon="17.6402657">
        <ele>17.9218</ele>
        <time>2013-05-03T15:27:53Z</time>
      </trkpt>
      <trkpt lat="59.9008336" lon="17.6403181">
        <ele>17.9218</ele>
        <time>2013-05-03T15:27:54Z</time>
      </trkpt>
      <trkpt lat="59.9008828" lon="17.6403683">
        <ele>17.4412</ele>
        <time>2013-05-03T15:27:55Z</time>
      </trkpt>
      <trkpt lat="59.9009315" lon="17.6404165">
        <ele>17.4412</ele>
        <time>2013-05-03T15:27:56Z</time>
      </trkpt>
      <trkpt lat="59.9009814" lon="17.6404644">
        <ele>16.9604</ele>
        <time>2013-05-03T15:27:57Z</time>
      </trkpt>
      <trkpt lat="59.9010323" lon="17.6405128">
        <ele>16.9604</ele>
        <time>2013-05-03T15:27:58Z</time>
      </trkpt>
      <trkpt lat="59.9010831" lon="17.6405619">
        <ele>16.9604</ele>
        <time>2013-05-03T15:27:59Z</time>
      </trkpt>
      <trkpt lat="59.9011334" lon="17.6406097">
        <ele>16.9604</ele>
        <time>2013-05-03T15:28:00Z</time>
      </trkpt>
      <trkpt lat="59.9011846" lon="17.6406579">
        <ele>17.4412</ele>
        <time>2013-05-03T15:28:01Z</time>
      </trkpt>
      <trkpt lat="59.9012351" lon="17.6407062">
        <ele>17.4412</ele>
        <time>2013-05-03T15:28:02Z</time>
      </trkpt>
      <trkpt lat="59.9012846" lon="17.6407542">
        <ele>17.9218</ele>
        <time>2013-05-03T15:28:03Z</time>
      </trkpt>
      <trkpt lat="59.9013326" lon="17.640801">
        <ele>17.9218</ele>
        <time>2013-05-03T15:28:04Z</time>
      </trkpt>
      <trkpt lat="59.9013801" lon="17.6408473">
        <ele>17.9218</ele>
        <time>2013-05-03T15:28:05Z</time>
      </trkpt>
      <trkpt lat="59.9014269" lon="17.6408915">
        <ele>17.9218</ele>
        <time>2013-05-03T15:28:06Z</time>
      </trkpt>
      <trkpt lat="59.9014749" lon="17.6409319">
        <ele>17.9218</ele>
        <time>2013-05-03T15:28:07Z</time>
      </trkpt>
      <trkpt lat="59.9015236" lon="17.6409727">
        <ele>18.4023</ele>
        <time>2013-05-03T15:28:08Z</time>
      </trkpt>
      <trkpt lat="59.9015726" lon="17.6410132">
        <ele>18.4023</ele>
        <time>2013-05-03T15:28:09Z</time>
      </trkpt>
      <trkpt lat="59.9016196" lon="17.6410541">
        <ele>18.4023</ele>
        <time>2013-05-03T15:28:10Z</time>
      </trkpt>
      <trkpt lat="59.9016667" lon="17.6410959">
        <ele>18.4023</ele>
        <time>2013-05-03T15:28:11Z</time>
      </trkpt>
      <trkpt lat="59.9017151" lon="17.6411377">
        <ele>18.4023</ele>
        <time>2013-05-03T15:28:12Z</time>
      </trkpt>
      <trkpt lat="59.9017635" lon="17.6411768">
        <ele>18.8831</ele>
        <time>2013-05-03T15:28:13Z</time>
      </trkpt>
      <trkpt lat="59.9018127" lon="17.6412122">
        <ele>19.3638</ele>
        <time>2013-05-03T15:28:14Z</time>
      </trkpt>
      <trkpt lat="59.9018622" lon="17.6412479">
        <ele>19.3638</ele>
        <time>2013-05-03T15:28:15Z</time>
      </trkpt>
      <trkpt lat="59.9019111" lon="17.6412853">
        <ele>19.8444</ele>
        <time>2013-05-03T15:28:16Z</time>
      </trkpt>
      <trkpt lat="59.9019602" lon="17.6413246">
        <ele>19.8444</ele>
        <time>2013-05-03T15:28:17Z</time>
      </trkpt>
      <trkpt lat="59.9020081" lon="17.6413618">
        <ele>20.325</ele>
        <time>2013-05-03T15:28:18Z</time>
      </trkpt>
      <trkpt lat="59.9020562" lon="17.6413972">
        <ele>20.325</ele>
        <time>2013-05-03T15:28:19Z</time>
      </trkpt>
      <trkpt lat="59.9021038" lon="17.6414318">
        <ele>20.8057</ele>
        <time>2013-05-03T15:28:20Z</time>
      </trkpt>
      <trkpt lat="59.9021507" lon="17.6414645">
        <ele>20.8057</ele>
        <time>2013-05-03T15:28:21Z</time>
      </trkpt>
      <trkpt lat="59.9021974" lon="17.6414969">
        <ele>20.8057</ele>
        <time>2013-05-03T15:28:22Z</time>
      </trkpt>
      <trkpt lat="59.9022434" lon="17.641529">
        <ele>21.2864</ele>
        <time>2013-05-03T15:28:23Z</time>
      </trkpt>
      <trkpt lat="59.9022882" lon="17.6415613">
        <ele>21.2864</ele>
        <time>2013-05-03T15:28:24Z</time>
      </trkpt>
      <trkpt lat="59.9023327" lon="17.6415918">
        <ele>21.2864</ele>
        <time>2013-05-03T15:28:25Z</time>
      </trkpt>
      <trkpt lat="59.9023772" lon="17.6416209">
        <ele>21.767</ele>
        <time>2013-05-03T15:28:26Z</time>
      </trkpt>
      <trkpt lat="59.9024211" lon="17.6416504">
        <ele>21.767</ele>
        <time>2013-05-03T15:28:27Z</time>
      </trkpt>
      <trkpt lat="59.9024643" lon="17.6416777">
        <ele>21.767</ele>
        <time>2013-05-03T15:28:28Z</time>
      </trkpt>
      <trkpt lat="59.9025073" lon="17.6417028">
        <ele>22.2476</ele>
        <time>2013-05-03T15:28:29Z</time>
      </trkpt>
      <trkpt lat="59.9025498" lon="17.6417286">
        <ele>22.2476</ele>
        <time>2013-05-03T15:28:30Z</time>
      </trkpt>
      <trkpt lat="59.9025936" lon="17.6417562">
        <ele>22.2476</ele>
        <time>2013-05-03T15:28:31Z</time>
      </trkpt>
      <trkpt lat="59.9026384" lon="17.641783">
        <ele>22.2476</ele>
        <time>2013-05-03T15:28:32Z</time>
      </trkpt>
      <trkpt lat="59.9026833" lon="17.6418087">
        <ele>22.7283</ele>
        <time>2013-05-03T15:28:33Z</time>
      </trkpt>
      <trkpt lat="59.9027274" lon="17.6418343">
        <ele>22.7283</ele>
        <time>2013-05-03T15:28:34Z</time>
      </trkpt>
      <trkpt lat="59.9027723" lon="17.6418608">
        <ele>22.7283</ele>
        <time>2013-05-03T15:28:35Z</time>
      </trkpt>
      <trkpt lat="59.9028182" lon="17.6418876">
        <ele>22.7283</ele>
        <time>2013-05-03T15:28:36Z</time>
      </trkpt>
      <trkpt lat="59.9028645" lon="17.6419123">
        <ele>23.209</ele>
        <time>2013-05-03T15:28:37Z</time>
      </trkpt>
      <trkpt lat="59.9029103" lon="17.6419356">
        <ele>23.209</ele>
        <time>2013-05-03T15:28:38Z</time>
      </trkpt>
      <trkpt lat="59.9029555" lon="17.6419594">
        <ele>23.209</ele>
        <time>2013-05-03T15:28:39Z</time>
      </trkpt>
      <trkpt lat="59.903" lon="17.6419832">
        <ele>23.209</ele>
        <time>2013-05-03T15:28:40Z</time>
      </trkpt>
      <trkpt lat="59.9030454" lon="17.6420048">
        <ele>23.209</ele>
        <time>2013-05-03T15:28:41Z</time>
      </trkpt>
      <trkpt lat="59.903091" lon="17.642027">
        <ele>23.6896</ele>
        <time>2013-05-03T15:28:42Z</time>
      </trkpt>
      <trkpt lat="59.9031361" lon="17.6420497">
        <ele>23.6896</ele>
        <time>2013-05-03T15:28:43Z</time>
      </trkpt>
      <trkpt lat="59.9031818" lon="17.6420713">
        <ele>23.6896</ele>
        <time>2013-05-03T15:28:44Z</time>
      </trkpt>
      <trkpt lat="59.9032277" lon="17.6420939">
        <ele>23.6896</ele>
        <time>2013-05-03T15:28:45Z</time>
      </trkpt>
      <trkpt lat="59.9032734" lon="17.6421148">
        <ele>23.6896</ele>
        <time>2013-05-03T15:28:46Z</time>
      </trkpt>
      <trkpt lat="59.9033184" lon="17.642135">
        <ele>24.1703</ele>
        <time>2013-05-03T15:28:47Z</time>
      </trkpt>
      <trkpt lat="59.9033634" lon="17.6421565">
        <ele>24.1703</ele>
        <time>2013-05-03T15:28:48Z</time>
      </trkpt>
      <trkpt lat="59.9034091" lon="17.642177">
        <ele>24.1703</ele>
        <time>2013-05-03T15:28:49Z</time>
      </trkpt>
      <trkpt lat="59.9034547" lon="17.6421979">
        <ele>24.1703</ele>
        <time>2013-05-03T15:28:50Z</time>
      </trkpt>
      <trkpt lat="59.9035454" lon="17.6422429">
        <ele>24.1703</ele>
        <time>2013-05-03T15:28:51Z</time>
      </trkpt>
      <trkpt lat="59.9035905" lon="17.6422641">
        <ele>24.1703</ele>
        <time>2013-05-03T15:28:52Z</time>
      </trkpt>
      <trkpt lat="59.9036353" lon="17.6422861">
        <ele>24.1703</ele>
        <time>2013-05-03T15:28:53Z</time>
      </trkpt>
      <trkpt lat="59.9036795" lon="17.6423076">
        <ele>24.1703</ele>
        <time>2013-05-03T15:28:54Z</time>
      </trkpt>
      <trkpt lat="59.903723" lon="17.6423284">
        <ele>23.6896</ele>
        <time>2013-05-03T15:28:55Z</time>
      </trkpt>
      <trkpt lat="59.9037669" lon="17.6423498">
        <ele>23.6896</ele>
        <time>2013-05-03T15:28:56Z</time>
      </trkpt>
      <trkpt lat="59.9038095" lon="17.6423719">
        <ele>23.6896</ele>
        <time>2013-05-03T15:28:57Z</time>
      </trkpt>
      <trkpt lat="59.9038516" lon="17.6423922">
        <ele>23.6896</ele>
        <time>2013-05-03T15:28:58Z</time>
      </trkpt>
      <trkpt lat="59.9038935" lon="17.6424108">
        <ele>23.6896</ele>
        <time>2013-05-03T15:28:59Z</time>
      </trkpt>
      <trkpt lat="59.9039355" lon="17.6424301">
        <ele>23.6896</ele>
        <time>2013-05-03T15:29:00Z</time>
      </trkpt>
      <trkpt lat="59.9039774" lon="17.6424491">
        <ele>23.209</ele>
        <time>2013-05-03T15:29:01Z</time>
      </trkpt>
      <trkpt lat="59.9040203" lon="17.6424694">
        <ele>23.209</ele>
        <time>2013-05-03T15:29:02Z</time>
      </trkpt>
      <trkpt lat="59.9040634" lon="17.6424911">
        <ele>22.7283</ele>
        <time>2013-05-03T15:29:03Z</time>
      </trkpt>
      <trkpt lat="59.9041069" lon="17.6425117">
        <ele>22.7283</ele>
        <time>2013-05-03T15:29:04Z</time>
      </trkpt>
      <trkpt lat="59.9041505" lon="17.642532">
        <ele>22.7283</ele>
        <time>2013-05-03T15:29:05Z</time>
      </trkpt>
      <trkpt lat="59.9041939" lon="17.6425516">
        <ele>22.7283</ele>
        <time>2013-05-03T15:29:06Z</time>
      </trkpt>
      <trkpt lat="59.904237" lon="17.6425702">
        <ele>22.7283</ele>
        <time>2013-05-03T15:29:07Z</time>
      </trkpt>
      <trkpt lat="59.9042804" lon="17.6425902">
        <ele>22.2476</ele>
        <time>2013-05-03T15:29:08Z</time>
      </trkpt>
      <trkpt lat="59.904323" lon="17.6426121">
        <ele>22.2476</ele>
        <time>2013-05-03T15:29:09Z</time>
      </trkpt>
      <trkpt lat="59.9043659" lon="17.6426337">
        <ele>22.2476</ele>
        <time>2013-05-03T15:29:10Z</time>
      </trkpt>
      <trkpt lat="59.9044084" lon="17.6426533">
        <ele>22.2476</ele>
        <time>2013-05-03T15:29:11Z</time>
      </trkpt>
      <trkpt lat="59.9044492" lon="17.6426729">
        <ele>22.2476</ele>
        <time>2013-05-03T15:29:12Z</time>
      </trkpt>
      <trkpt lat="59.9044934" lon="17.6426911">
        <ele>22.7283</ele>
        <time>2013-05-03T15:29:13Z</time>
      </trkpt>
      <trkpt lat="59.9045358" lon="17.6427082">
        <ele>23.209</ele>
        <time>2013-05-03T15:29:14Z</time>
      </trkpt>
      <trkpt lat="59.9045743" lon="17.6427267">
        <ele>22.7283</ele>
        <time>2013-05-03T15:29:15Z</time>
      </trkpt>
      <trkpt lat="59.9046146" lon="17.642745">
        <ele>22.7283</ele>
        <time>2013-05-03T15:29:16Z</time>
      </trkpt>
      <trkpt lat="59.9046576" lon="17.642762">
        <ele>23.209</ele>
        <time>2013-05-03T15:29:17Z</time>
      </trkpt>
      <trkpt lat="59.9046975" lon="17.6427808">
        <ele>23.209</ele>
        <time>2013-05-03T15:29:18Z</time>
      </trkpt>
      <trkpt lat="59.9047363" lon="17.6427998">
        <ele>23.209</ele>
        <time>2013-05-03T15:29:19Z</time>
      </trkpt>
      <trkpt lat="59.9047752" lon="17.6428195">
        <ele>22.7283</ele>
        <time>2013-05-03T15:29:20Z</time>
      </trkpt>
      <trkpt lat="59.904814" lon="17.6428366">
        <ele>22.7283</ele>
        <time>2013-05-03T15:29:21Z</time>
      </trkpt>
      <trkpt lat="59.9048563" lon="17.6428535">
        <ele>23.209</ele>
        <time>2013-05-03T15:29:22Z</time>
      </trkpt>
      <trkpt lat="59.9048991" lon="17.642872">
        <ele>23.209</ele>
        <time>2013-05-03T15:29:23Z</time>
      </trkpt>
      <trkpt lat="59.9049394" lon="17.6428941">
        <ele>22.7283</ele>
        <time>2013-05-03T15:29:24Z</time>
      </trkpt>
      <trkpt lat="59.9049808" lon="17.6429137">
        <ele>22.7283</ele>
        <time>2013-05-03T15:29:25Z</time>
      </trkpt>
      <trkpt lat="59.9050219" lon="17.6429338">
        <ele>22.2476</ele>
        <time>2013-05-03T15:29:26Z</time>
      </trkpt>
      <trkpt lat="59.9050616" lon="17.6429538">
        <ele>21.767</ele>
        <time>2013-05-03T15:29:27Z</time>
      </trkpt>
      <trkpt lat="59.9051005" lon="17.6429724">
        <ele>21.767</ele>
        <time>2013-05-03T15:29:28Z</time>
      </trkpt>
      <trkpt lat="59.9051393" lon="17.6429867">
        <ele>21.767</ele>
        <time>2013-05-03T15:29:29Z</time>
      </trkpt>
      <trkpt lat="59.9051822" lon="17.6429936">
        <ele>21.2864</ele>
        <time>2013-05-03T15:29:30Z</time>
      </trkpt>
      <trkpt lat="59.9052298" lon="17.6429921">
        <ele>21.2864</ele>
        <time>2013-05-03T15:29:31Z</time>
      </trkpt>
      <trkpt lat="59.9052777" lon="17.6429951">
        <ele>21.2864</ele>
        <time>2013-05-03T15:29:32Z</time>
      </trkpt>
      <trkpt lat="59.9053239" lon="17.6430034">
        <ele>20.8057</ele>
        <time>2013-05-03T15:29:33Z</time>
      </trkpt>
      <trkpt lat="59.9053697" lon="17.643016">
        <ele>20.325</ele>
        <time>2013-05-03T15:29:34Z</time>
      </trkpt>
      <trkpt lat="59.9054109" lon="17.6430258">
        <ele>20.325</ele>
        <time>2013-05-03T15:29:35Z</time>
      </trkpt>
      <trkpt lat="59.9054427" lon="17.6430125">
        <ele>19.8444</ele>
        <time>2013-05-03T15:29:36Z</time>
      </trkpt>
      <trkpt lat="59.9054812" lon="17.6429744">
        <ele>20.8057</ele>
        <time>2013-05-03T15:29:37Z</time>
      </trkpt>
      <trkpt lat="59.9055112" lon="17.6429397">
        <ele>20.8057</ele>
        <time>2013-05-03T15:29:38Z</time>
      </trkpt>
      <trkpt lat="59.9055479" lon="17.642933">
        <ele>20.8057</ele>
        <time>2013-05-03T15:29:39Z</time>
      </trkpt>
      <trkpt lat="59.905589" lon="17.6429449">
        <ele>21.2864</ele>
        <time>2013-05-03T15:29:40Z</time>
      </trkpt>
      <trkpt lat="59.9056271" lon="17.6429595">
        <ele>21.767</ele>
        <time>2013-05-03T15:29:41Z</time>
      </trkpt>
      <trkpt lat="59.9056639" lon="17.6429691">
        <ele>21.767</ele>
        <time>2013-05-03T15:29:42Z</time>
      </trkpt>
      <trkpt lat="59.9056982" lon="17.6429812">
        <ele>21.767</ele>
        <time>2013-05-03T15:29:43Z</time>
      </trkpt>
      <trkpt lat="59.905731" lon="17.6429956">
        <ele>21.2864</ele>
        <time>2013-05-03T15:29:44Z</time>
      </trkpt>
      <trkpt lat="59.905762" lon="17.6430089">
        <ele>21.2864</ele>
        <time>2013-05-03T15:29:45Z</time>
      </trkpt>
      <trkpt lat="59.9057947" lon="17.643021">
        <ele>21.767</ele>
        <time>2013-05-03T15:29:46Z</time>
      </trkpt>
      <trkpt lat="59.9058305" lon="17.6430376">
        <ele>21.2864</ele>
        <time>2013-05-03T15:29:47Z</time>
      </trkpt>
      <trkpt lat="59.9058687" lon="17.6430599">
        <ele>21.2864</ele>
        <time>2013-05-03T15:29:48Z</time>
      </trkpt>
      <trkpt lat="59.9059102" lon="17.6430831">
        <ele>21.2864</ele>
        <time>2013-05-03T15:29:49Z</time>
      </trkpt>
      <trkpt lat="59.905955" lon="17.6431075">
        <ele>21.2864</ele>
        <time>2013-05-03T15:29:50Z</time>
      </trkpt>
      <trkpt lat="59.9060014" lon="17.6431309">
        <ele>21.2864</ele>
        <time>2013-05-03T15:29:51Z</time>
      </trkpt>
      <trkpt lat="59.906048" lon="17.6431532">
        <ele>21.767</ele>
        <time>2013-05-03T15:29:52Z</time>
      </trkpt>
      <trkpt lat="59.9060925" lon="17.6431758">
        <ele>21.767</ele>
        <time>2013-05-03T15:29:53Z</time>
      </trkpt>
      <trkpt lat="59.9061366" lon="17.6431962">
        <ele>21.767</ele>
        <time>2013-05-03T15:29:54Z</time>
      </trkpt>
      <trkpt lat="59.9061812" lon="17.6432162">
        <ele>21.767</ele>
        <time>2013-05-03T15:29:55Z</time>
      </trkpt>
      <trkpt lat="59.9062262" lon="17.6432364">
        <ele>22.2476</ele>
        <time>2013-05-03T15:29:56Z</time>
      </trkpt>
      <trkpt lat="59.9062703" lon="17.6432541">
        <ele>22.2476</ele>
        <time>2013-05-03T15:29:57Z</time>
      </trkpt>
      <trkpt lat="59.9063138" lon="17.6432706">
        <ele>22.2476</ele>
        <time>2013-05-03T15:29:58Z</time>
      </trkpt>
      <trkpt lat="59.9063567" lon="17.6432878">
        <ele>22.2476</ele>
        <time>2013-05-03T15:29:59Z</time>
      </trkpt>
      <trkpt lat="59.9063996" lon="17.6433054">
        <ele>22.2476</ele>
        <time>2013-05-03T15:30:00Z</time>
      </trkpt>
      <trkpt lat="59.9064421" lon="17.6433224">
        <ele>22.2476</ele>
        <time>2013-05-03T15:30:01Z</time>
      </trkpt>
      <trkpt lat="59.9064862" lon="17.6433392">
        <ele>22.2476</ele>
        <time>2013-05-03T15:30:02Z</time>
      </trkpt>
      <trkpt lat="59.9065302" lon="17.6433556">
        <ele>22.7283</ele>
        <time>2013-05-03T15:30:03Z</time>
      </trkpt>
      <trkpt lat="59.9065743" lon="17.643371">
        <ele>22.7283</ele>
        <time>2013-05-03T15:30:04Z</time>
      </trkpt>
      <trkpt lat="59.9066182" lon="17.6433862">
        <ele>22.7283</ele>
        <time>2013-05-03T15:30:05Z</time>
      </trkpt>
      <trkpt lat="59.9066613" lon="17.6434005">
        <ele>22.7283</ele>
        <time>2013-05-03T15:30:06Z</time>
      </trkpt>
      <trkpt lat="59.9067047" lon="17.6434138">
        <ele>23.209</ele>
        <time>2013-05-03T15:30:07Z</time>
      </trkpt>
      <trkpt lat="59.9067483" lon="17.6434269">
        <ele>23.209</ele>
        <time>2013-05-03T15:30:08Z</time>
      </trkpt>
      <trkpt lat="59.9067922" lon="17.6434385">
        <ele>23.209</ele>
        <time>2013-05-03T15:30:09Z</time>
      </trkpt>
      <trkpt lat="59.9068366" lon="17.6434485">
        <ele>23.209</ele>
        <time>2013-05-03T15:30:10Z</time>
      </trkpt>
      <trkpt lat="59.906881" lon="17.6434581">
        <ele>23.209</ele>
        <time>2013-05-03T15:30:11Z</time>
      </trkpt>
      <trkpt lat="59.9069258" lon="17.6434673">
        <ele>23.209</ele>
        <time>2013-05-03T15:30:12Z</time>
      </trkpt>
      <trkpt lat="59.9069705" lon="17.6434777">
        <ele>23.209</ele>
        <time>2013-05-03T15:30:13Z</time>
      </trkpt>
      <trkpt lat="59.9070145" lon="17.6434883">
        <ele>23.6896</ele>
        <time>2013-05-03T15:30:14Z</time>
      </trkpt>
      <trkpt lat="59.9070587" lon="17.6434981">
        <ele>23.6896</ele>
        <time>2013-05-03T15:30:15Z</time>
      </trkpt>
      <trkpt lat="59.907104" lon="17.6435088">
        <ele>23.6896</ele>
        <time>2013-05-03T15:30:16Z</time>
      </trkpt>
      <trkpt lat="59.9071492" lon="17.6435193">
        <ele>23.6896</ele>
        <time>2013-05-03T15:30:17Z</time>
      </trkpt>
      <trkpt lat="59.9071948" lon="17.6435278">
        <ele>23.6896</ele>
        <time>2013-05-03T15:30:18Z</time>
      </trkpt>
      <trkpt lat="59.9072412" lon="17.643537">
        <ele>23.209</ele>
        <time>2013-05-03T15:30:19Z</time>
      </trkpt>
      <trkpt lat="59.9072878" lon="17.6435474">
        <ele>23.209</ele>
        <time>2013-05-03T15:30:20Z</time>
      </trkpt>
      <trkpt lat="59.9073347" lon="17.6435581">
        <ele>23.209</ele>
        <time>2013-05-03T15:30:21Z</time>
      </trkpt>
      <trkpt lat="59.9073818" lon="17.6435669">
        <ele>22.7283</ele>
        <time>2013-05-03T15:30:22Z</time>
      </trkpt>
      <trkpt lat="59.9074294" lon="17.6435747">
        <ele>22.7283</ele>
        <time>2013-05-03T15:30:23Z</time>
      </trkpt>
      <trkpt lat="59.9074769" lon="17.6435831">
        <ele>22.7283</ele>
        <time>2013-05-03T15:30:24Z</time>
      </trkpt>
      <trkpt lat="59.9075241" lon="17.6435903">
        <ele>22.7283</ele>
        <time>2013-05-03T15:30:25Z</time>
      </trkpt>
      <trkpt lat="59.9075715" lon="17.6435974">
        <ele>22.7283</ele>
        <time>2013-05-03T15:30:26Z</time>
      </trkpt>
      <trkpt lat="59.907619" lon="17.6436062">
        <ele>22.2476</ele>
        <time>2013-05-03T15:30:27Z</time>
      </trkpt>
      <trkpt lat="59.9076662" lon="17.6436153">
        <ele>22.2476</ele>
        <time>2013-05-03T15:30:28Z</time>
      </trkpt>
      <trkpt lat="59.9077124" lon="17.6436248">
        <ele>22.2476</ele>
        <time>2013-05-03T15:30:29Z</time>
      </trkpt>
      <trkpt lat="59.9077578" lon="17.6436344">
        <ele>22.2476</ele>
        <time>2013-05-03T15:30:30Z</time>
      </trkpt>
      <trkpt lat="59.9078023" lon="17.6436426">
        <ele>22.2476</ele>
        <time>2013-05-03T15:30:31Z</time>
      </trkpt>
      <trkpt lat="59.9078464" lon="17.6436507">
        <ele>22.2476</ele>
        <time>2013-05-03T15:30:32Z</time>
      </trkpt>
      <trkpt lat="59.9078901" lon="17.6436577">
        <ele>22.2476</ele>
        <time>2013-05-03T15:30:33Z</time>
      </trkpt>
      <trkpt lat="59.9079336" lon="17.6436644">
        <ele>22.2476</ele>
        <time>2013-05-03T15:30:34Z</time>
      </trkpt>
      <trkpt lat="59.9079769" lon="17.6436738">
        <ele>22.2476</ele>
        <time>2013-05-03T15:30:35Z</time>
      </trkpt>
      <trkpt lat="59.9080221" lon="17.6436825">
        <ele>22.2476</ele>
        <time>2013-05-03T15:30:36Z</time>
      </trkpt>
      <trkpt lat="59.9080671" lon="17.6436883">
        <ele>22.2476</ele>
        <time>2013-05-03T15:30:37Z</time>
      </trkpt>
      <trkpt lat="59.9081112" lon="17.6436961">
        <ele>22.2476</ele>
        <time>2013-05-03T15:30:38Z</time>
      </trkpt>
      <trkpt lat="59.9081555" lon="17.6437034">
        <ele>22.2476</ele>
        <time>2013-05-03T15:30:39Z</time>
      </trkpt>
      <trkpt lat="59.9081997" lon="17.6437075">
        <ele>22.2476</ele>
        <time>2013-05-03T15:30:40Z</time>
      </trkpt>
      <trkpt lat="59.9082443" lon="17.6437144">
        <ele>22.2476</ele>
        <time>2013-05-03T15:30:41Z</time>
      </trkpt>
      <trkpt lat="59.9082874" lon="17.6437225">
        <ele>22.7283</ele>
        <time>2013-05-03T15:30:42Z</time>
      </trkpt>
      <trkpt lat="59.9083293" lon="17.643728">
        <ele>22.7283</ele>
        <time>2013-05-03T15:30:43Z</time>
      </trkpt>
      <trkpt lat="59.9083707" lon="17.643731">
        <ele>22.7283</ele>
        <time>2013-05-03T15:30:44Z</time>
      </trkpt>
      <trkpt lat="59.9084133" lon="17.6437332">
        <ele>22.7283</ele>
        <time>2013-05-03T15:30:45Z</time>
      </trkpt>
      <trkpt lat="59.9084581" lon="17.6437359">
        <ele>22.7283</ele>
        <time>2013-05-03T15:30:46Z</time>
      </trkpt>
      <trkpt lat="59.9085043" lon="17.6437389">
        <ele>22.7283</ele>
        <time>2013-05-03T15:30:47Z</time>
      </trkpt>
      <trkpt lat="59.9085524" lon="17.64374">
        <ele>22.7283</ele>
        <time>2013-05-03T15:30:48Z</time>
      </trkpt>
      <trkpt lat="59.9086023" lon="17.6437405">
        <ele>22.7283</ele>
        <time>2013-05-03T15:30:49Z</time>
      </trkpt>
      <trkpt lat="59.9086536" lon="17.6437398">
        <ele>22.2476</ele>
        <time>2013-05-03T15:30:50Z</time>
      </trkpt>
      <trkpt lat="59.9087032" lon="17.6437358">
        <ele>22.2476</ele>
        <time>2013-05-03T15:30:51Z</time>
      </trkpt>
      <trkpt lat="59.9087515" lon="17.6437323">
        <ele>22.2476</ele>
        <time>2013-05-03T15:30:52Z</time>
      </trkpt>
      <trkpt lat="59.9088018" lon="17.6437316">
        <ele>21.767</ele>
        <time>2013-05-03T15:30:53Z</time>
      </trkpt>
      <trkpt lat="59.9088525" lon="17.643725">
        <ele>21.767</ele>
        <time>2013-05-03T15:30:54Z</time>
      </trkpt>
      <trkpt lat="59.9089041" lon="17.6437167">
        <ele>21.767</ele>
        <time>2013-05-03T15:30:55Z</time>
      </trkpt>
      <trkpt lat="59.908955" lon="17.6437111">
        <ele>21.767</ele>
        <time>2013-05-03T15:30:56Z</time>
      </trkpt>
      <trkpt lat="59.9090047" lon="17.6437089">
        <ele>21.767</ele>
        <time>2013-05-03T15:30:57Z</time>
      </trkpt>
      <trkpt lat="59.9090525" lon="17.6437053">
        <ele>21.2864</ele>
        <time>2013-05-03T15:30:58Z</time>
      </trkpt>
      <trkpt lat="59.9091005" lon="17.6436974">
        <ele>21.2864</ele>
        <time>2013-05-03T15:30:59Z</time>
      </trkpt>
      <trkpt lat="59.9091494" lon="17.6436889">
        <ele>21.2864</ele>
        <time>2013-05-03T15:31:00Z</time>
      </trkpt>
      <trkpt lat="59.9091995" lon="17.6436826">
        <ele>21.2864</ele>
        <time>2013-05-03T15:31:01Z</time>
      </trkpt>
      <trkpt lat="59.9092501" lon="17.6436746">
        <ele>21.2864</ele>
        <time>2013-05-03T15:31:02Z</time>
      </trkpt>
      <trkpt lat="59.909301" lon="17.6436624">
        <ele>20.8057</ele>
        <time>2013-05-03T15:31:03Z</time>
      </trkpt>
      <trkpt lat="59.9093518" lon="17.6436512">
        <ele>20.8057</ele>
        <time>2013-05-03T15:31:04Z</time>
      </trkpt>
      <trkpt lat="59.9094015" lon="17.6436412">
        <ele>20.8057</ele>
        <time>2013-05-03T15:31:05Z</time>
      </trkpt>
      <trkpt lat="59.9094512" lon="17.6436312">
        <ele>20.8057</ele>
        <time>2013-05-03T15:31:06Z</time>
      </trkpt>
      <trkpt lat="59.9095016" lon="17.643621">
        <ele>20.8057</ele>
        <time>2013-05-03T15:31:07Z</time>
      </trkpt>
      <trkpt lat="59.9095529" lon="17.64361">
        <ele>20.325</ele>
        <time>2013-05-03T15:31:08Z</time>
      </trkpt>
      <trkpt lat="59.9096047" lon="17.6435975">
        <ele>20.8057</ele>
        <time>2013-05-03T15:31:09Z</time>
      </trkpt>
      <trkpt lat="59.9096532" lon="17.6435852">
        <ele>20.325</ele>
        <time>2013-05-03T15:31:10Z</time>
      </trkpt>
      <trkpt lat="59.909701" lon="17.6435752">
        <ele>20.325</ele>
        <time>2013-05-03T15:31:11Z</time>
      </trkpt>
      <trkpt lat="59.909749" lon="17.6435673">
        <ele>20.325</ele>
        <time>2013-05-03T15:31:12Z</time>
      </trkpt>
      <trkpt lat="59.9097964" lon="17.6435603">
        <ele>20.325</ele>
        <time>2013-05-03T15:31:13Z</time>
      </trkpt>
      <trkpt lat="59.9098447" lon="17.6435611">
        <ele>20.8057</ele>
        <time>2013-05-03T15:31:14Z</time>
      </trkpt>
      <trkpt lat="59.9098926" lon="17.6435717">
        <ele>20.8057</ele>
        <time>2013-05-03T15:31:15Z</time>
      </trkpt>
      <trkpt lat="59.9099398" lon="17.6435933">
        <ele>20.8057</ele>
        <time>2013-05-03T15:31:16Z</time>
      </trkpt>
      <trkpt lat="59.9099872" lon="17.6436187">
        <ele>21.2864</ele>
        <time>2013-05-03T15:31:17Z</time>
      </trkpt>
      <trkpt lat="59.910035" lon="17.6436364">
        <ele>21.2864</ele>
        <time>2013-05-03T15:31:18Z</time>
      </trkpt>
      <trkpt lat="59.9100831" lon="17.6436472">
        <ele>22.2476</ele>
        <time>2013-05-03T15:31:19Z</time>
      </trkpt>
      <trkpt lat="59.9101293" lon="17.643651">
        <ele>22.2476</ele>
        <time>2013-05-03T15:31:20Z</time>
      </trkpt>
      <trkpt lat="59.910177" lon="17.6436495">
        <ele>22.7283</ele>
        <time>2013-05-03T15:31:21Z</time>
      </trkpt>
      <trkpt lat="59.9102229" lon="17.6436466">
        <ele>23.209</ele>
        <time>2013-05-03T15:31:22Z</time>
      </trkpt>
      <trkpt lat="59.9102659" lon="17.6436447">
        <ele>23.6896</ele>
        <time>2013-05-03T15:31:23Z</time>
      </trkpt>
      <trkpt lat="59.9103075" lon="17.643642">
        <ele>23.6896</ele>
        <time>2013-05-03T15:31:24Z</time>
      </trkpt>
      <trkpt lat="59.9103486" lon="17.6436378">
        <ele>23.6896</ele>
        <time>2013-05-03T15:31:25Z</time>
      </trkpt>
      <trkpt lat="59.9103888" lon="17.6436292">
        <ele>24.1703</ele>
        <time>2013-05-03T15:31:26Z</time>
      </trkpt>
      <trkpt lat="59.9104275" lon="17.6436189">
        <ele>24.1703</ele>
        <time>2013-05-03T15:31:27Z</time>
      </trkpt>
      <trkpt lat="59.9104649" lon="17.6436021">
        <ele>24.1703</ele>
        <time>2013-05-03T15:31:28Z</time>
      </trkpt>
      <trkpt lat="59.9105019" lon="17.6435742">
        <ele>23.6896</ele>
        <time>2013-05-03T15:31:29Z</time>
      </trkpt>
      <trkpt lat="59.9105409" lon="17.6435447">
        <ele>23.209</ele>
        <time>2013-05-03T15:31:30Z</time>
      </trkpt>
      <trkpt lat="59.9105819" lon="17.6435213">
        <ele>23.209</ele>
        <time>2013-05-03T15:31:31Z</time>
      </trkpt>
      <trkpt lat="59.9106226" lon="17.6435011">
        <ele>23.209</ele>
        <time>2013-05-03T15:31:32Z</time>
      </trkpt>
      <trkpt lat="59.910666" lon="17.6434855">
        <ele>23.209</ele>
        <time>2013-05-03T15:31:33Z</time>
      </trkpt>
      <trkpt lat="59.9107105" lon="17.6434743">
        <ele>23.209</ele>
        <time>2013-05-03T15:31:34Z</time>
      </trkpt>
      <trkpt lat="59.910754" lon="17.6434661">
        <ele>23.209</ele>
        <time>2013-05-03T15:31:35Z</time>
      </trkpt>
      <trkpt lat="59.9107969" lon="17.6434589">
        <ele>23.209</ele>
        <time>2013-05-03T15:31:36Z</time>
      </trkpt>
      <trkpt lat="59.9108396" lon="17.6434537">
        <ele>23.209</ele>
        <time>2013-05-03T15:31:37Z</time>
      </trkpt>
      <trkpt lat="59.9108835" lon="17.6434468">
        <ele>23.209</ele>
        <time>2013-05-03T15:31:38Z</time>
      </trkpt>
      <trkpt lat="59.9109264" lon="17.6434422">
        <ele>23.6896</ele>
        <time>2013-05-03T15:31:39Z</time>
      </trkpt>
      <trkpt lat="59.9109701" lon="17.6434376">
        <ele>23.209</ele>
        <time>2013-05-03T15:31:40Z</time>
      </trkpt>
      <trkpt lat="59.9110165" lon="17.6434355">
        <ele>22.7283</ele>
        <time>2013-05-03T15:31:41Z</time>
      </trkpt>
      <trkpt lat="59.9110622" lon="17.6434313">
        <ele>22.7283</ele>
        <time>2013-05-03T15:31:42Z</time>
      </trkpt>
      <trkpt lat="59.911108" lon="17.6434269">
        <ele>22.7283</ele>
        <time>2013-05-03T15:31:43Z</time>
      </trkpt>
      <trkpt lat="59.9111486" lon="17.64342">
        <ele>21.767</ele>
        <time>2013-05-03T15:31:44Z</time>
      </trkpt>
      <trkpt lat="59.9111903" lon="17.6434131">
        <ele>20.8057</ele>
        <time>2013-05-03T15:31:45Z</time>
      </trkpt>
      <trkpt lat="59.9112353" lon="17.6434068">
        <ele>20.8057</ele>
        <time>2013-05-03T15:31:46Z</time>
      </trkpt>
      <trkpt lat="59.911283" lon="17.6433951">
        <ele>20.325</ele>
        <time>2013-05-03T15:31:47Z</time>
      </trkpt>
      <trkpt lat="59.9113263" lon="17.64338">
        <ele>20.325</ele>
        <time>2013-05-03T15:31:48Z</time>
      </trkpt>
      <trkpt lat="59.9113694" lon="17.6433648">
        <ele>19.8444</ele>
        <time>2013-05-03T15:31:49Z</time>
      </trkpt>
      <trkpt lat="59.9114134" lon="17.6433546">
        <ele>19.8444</ele>
        <time>2013-05-03T15:31:50Z</time>
      </trkpt>
      <trkpt lat="59.9114555" lon="17.6433453">
        <ele>19.8444</ele>
        <time>2013-05-03T15:31:51Z</time>
      </trkpt>
      <trkpt lat="59.9114984" lon="17.643338">
        <ele>19.8444</ele>
        <time>2013-05-03T15:31:52Z</time>
      </trkpt>
      <trkpt lat="59.9115425" lon="17.643329">
        <ele>19.8444</ele>
        <time>2013-05-03T15:31:53Z</time>
      </trkpt>
      <trkpt lat="59.9115878" lon="17.6433199">
        <ele>19.8444</ele>
        <time>2013-05-03T15:31:54Z</time>
      </trkpt>
      <trkpt lat="59.9116324" lon="17.6433105">
        <ele>20.325</ele>
        <time>2013-05-03T15:31:55Z</time>
      </trkpt>
      <trkpt lat="59.9116766" lon="17.6433009">
        <ele>19.8444</ele>
        <time>2013-05-03T15:31:56Z</time>
      </trkpt>
      <trkpt lat="59.91172" lon="17.6432905">
        <ele>19.8444</ele>
        <time>2013-05-03T15:31:57Z</time>
      </trkpt>
      <trkpt lat="59.9117627" lon="17.6432827">
        <ele>20.325</ele>
        <time>2013-05-03T15:31:58Z</time>
      </trkpt>
      <trkpt lat="59.9118051" lon="17.6432732">
        <ele>20.325</ele>
        <time>2013-05-03T15:31:59Z</time>
      </trkpt>
      <trkpt lat="59.9118439" lon="17.6432615">
        <ele>20.325</ele>
        <time>2013-05-03T15:32:00Z</time>
      </trkpt>
      <trkpt lat="59.9118847" lon="17.6432515">
        <ele>20.325</ele>
        <time>2013-05-03T15:32:01Z</time>
      </trkpt>
      <trkpt lat="59.9119252" lon="17.6432386">
        <ele>20.325</ele>
        <time>2013-05-03T15:32:02Z</time>
      </trkpt>
      <trkpt lat="59.9119667" lon="17.6432246">
        <ele>19.8444</ele>
        <time>2013-05-03T15:32:03Z</time>
      </trkpt>
      <trkpt lat="59.9120113" lon="17.6432109">
        <ele>19.8444</ele>
        <time>2013-05-03T15:32:04Z</time>
      </trkpt>
      <trkpt lat="59.9120582" lon="17.6431991">
        <ele>19.8444</ele>
        <time>2013-05-03T15:32:05Z</time>
      </trkpt>
      <trkpt lat="59.9121081" lon="17.6431883">
        <ele>19.8444</ele>
        <time>2013-05-03T15:32:06Z</time>
      </trkpt>
      <trkpt lat="59.9121592" lon="17.6431738">
        <ele>19.8444</ele>
        <time>2013-05-03T15:32:07Z</time>
      </trkpt>
      <trkpt lat="59.9122126" lon="17.6431565">
        <ele>19.3638</ele>
        <time>2013-05-03T15:32:08Z</time>
      </trkpt>
      <trkpt lat="59.9122659" lon="17.6431417">
        <ele>19.3638</ele>
        <time>2013-05-03T15:32:09Z</time>
      </trkpt>
      <trkpt lat="59.9123174" lon="17.6431277">
        <ele>19.3638</ele>
        <time>2013-05-03T15:32:10Z</time>
      </trkpt>
      <trkpt lat="59.9123708" lon="17.6431151">
        <ele>19.3638</ele>
        <time>2013-05-03T15:32:11Z</time>
      </trkpt>
      <trkpt lat="59.9124246" lon="17.6431016">
        <ele>19.8444</ele>
        <time>2013-05-03T15:32:12Z</time>
      </trkpt>
      <trkpt lat="59.912477" lon="17.6430909">
        <ele>19.8444</ele>
        <time>2013-05-03T15:32:13Z</time>
      </trkpt>
      <trkpt lat="59.9125282" lon="17.6430866">
        <ele>19.8444</ele>
        <time>2013-05-03T15:32:14Z</time>
      </trkpt>
      <trkpt lat="59.9125783" lon="17.6430941">
        <ele>19.8444</ele>
        <time>2013-05-03T15:32:15Z</time>
      </trkpt>
      <trkpt lat="59.912627" lon="17.6431174">
        <ele>19.8444</ele>
        <time>2013-05-03T15:32:16Z</time>
      </trkpt>
      <trkpt lat="59.9126715" lon="17.6431451">
        <ele>20.325</ele>
        <time>2013-05-03T15:32:17Z</time>
      </trkpt>
      <trkpt lat="59.9127119" lon="17.6431633">
        <ele>20.8057</ele>
        <time>2013-05-03T15:32:18Z</time>
      </trkpt>
      <trkpt lat="59.9127487" lon="17.6431748">
        <ele>21.767</ele>
        <time>2013-05-03T15:32:19Z</time>
      </trkpt>
      <trkpt lat="59.9127846" lon="17.6431779">
        <ele>21.767</ele>
        <time>2013-05-03T15:32:20Z</time>
      </trkpt>
      <trkpt lat="59.9128217" lon="17.6431765">
        <ele>22.2476</ele>
        <time>2013-05-03T15:32:21Z</time>
      </trkpt>
      <trkpt lat="59.9128581" lon="17.6431713">
        <ele>22.7283</ele>
        <time>2013-05-03T15:32:22Z</time>
      </trkpt>
      <trkpt lat="59.9128949" lon="17.6431671">
        <ele>22.7283</ele>
        <time>2013-05-03T15:32:23Z</time>
      </trkpt>
      <trkpt lat="59.9129312" lon="17.6431614">
        <ele>22.7283</ele>
        <time>2013-05-03T15:32:24Z</time>
      </trkpt>
      <trkpt lat="59.9129694" lon="17.6431531">
        <ele>23.209</ele>
        <time>2013-05-03T15:32:25Z</time>
      </trkpt>
      <trkpt lat="59.9130094" lon="17.6431531">
        <ele>23.209</ele>
        <time>2013-05-03T15:32:26Z</time>
      </trkpt>
      <trkpt lat="59.9130507" lon="17.6431486">
        <ele>23.6896</ele>
        <time>2013-05-03T15:32:27Z</time>
      </trkpt>
      <trkpt lat="59.9130907" lon="17.6431438">
        <ele>23.209</ele>
        <time>2013-05-03T15:32:28Z</time>
      </trkpt>
      <trkpt lat="59.9131327" lon="17.6431333">
        <ele>23.6896</ele>
        <time>2013-05-03T15:32:29Z</time>
      </trkpt>
      <trkpt lat="59.9131748" lon="17.6431282">
        <ele>23.6896</ele>
        <time>2013-05-03T15:32:30Z</time>
      </trkpt>
      <trkpt lat="59.9132165" lon="17.64312">
        <ele>23.209</ele>
        <time>2013-05-03T15:32:31Z</time>
      </trkpt>
      <trkpt lat="59.9132575" lon="17.6431102">
        <ele>23.209</ele>
        <time>2013-05-03T15:32:32Z</time>
      </trkpt>
      <trkpt lat="59.9133027" lon="17.643098">
        <ele>23.209</ele>
        <time>2013-05-03T15:32:33Z</time>
      </trkpt>
      <trkpt lat="59.9133508" lon="17.6430858">
        <ele>23.209</ele>
        <time>2013-05-03T15:32:34Z</time>
      </trkpt>
      <trkpt lat="59.9133965" lon="17.6430755">
        <ele>23.209</ele>
        <time>2013-05-03T15:32:35Z</time>
      </trkpt>
      <trkpt lat="59.9134434" lon="17.6430623">
        <ele>22.7283</ele>
        <time>2013-05-03T15:32:36Z</time>
      </trkpt>
      <trkpt lat="59.913491" lon="17.6430464">
        <ele>23.209</ele>
        <time>2013-05-03T15:32:37Z</time>
      </trkpt>
      <trkpt lat="59.9135383" lon="17.6430344">
        <ele>23.209</ele>
        <time>2013-05-03T15:32:38Z</time>
      </trkpt>
      <trkpt lat="59.9135842" lon="17.6430244">
        <ele>22.7283</ele>
        <time>2013-05-03T15:32:39Z</time>
      </trkpt>
      <trkpt lat="59.9136306" lon="17.643016">
        <ele>22.7283</ele>
        <time>2013-05-03T15:32:40Z</time>
      </trkpt>
      <trkpt lat="59.9136782" lon="17.6430064">
        <ele>22.7283</ele>
        <time>2013-05-03T15:32:41Z</time>
      </trkpt>
      <trkpt lat="59.9137262" lon="17.6429956">
        <ele>22.7283</ele>
        <time>2013-05-03T15:32:42Z</time>
      </trkpt>
      <trkpt lat="59.913774" lon="17.6429873">
        <ele>22.7283</ele>
        <time>2013-05-03T15:32:43Z</time>
      </trkpt>
      <trkpt lat="59.9138234" lon="17.6429801">
        <ele>22.7283</ele>
        <time>2013-05-03T15:32:44Z</time>
      </trkpt>
      <trkpt lat="59.9138733" lon="17.6429708">
        <ele>22.7283</ele>
        <time>2013-05-03T15:32:45Z</time>
      </trkpt>
      <trkpt lat="59.913923" lon="17.6429625">
        <ele>22.2476</ele>
        <time>2013-05-03T15:32:46Z</time>
      </trkpt>
      <trkpt lat="59.9139741" lon="17.6429542">
        <ele>22.2476</ele>
        <time>2013-05-03T15:32:47Z</time>
      </trkpt>
      <trkpt lat="59.9140269" lon="17.6429457">
        <ele>22.2476</ele>
        <time>2013-05-03T15:32:48Z</time>
      </trkpt>
      <trkpt lat="59.9140802" lon="17.6429366">
        <ele>22.2476</ele>
        <time>2013-05-03T15:32:49Z</time>
      </trkpt>
      <trkpt lat="59.9141329" lon="17.6429253">
        <ele>22.2476</ele>
        <time>2013-05-03T15:32:50Z</time>
      </trkpt>
      <trkpt lat="59.9141848" lon="17.6429146">
        <ele>21.767</ele>
        <time>2013-05-03T15:32:51Z</time>
      </trkpt>
      <trkpt lat="59.9142371" lon="17.6429038">
        <ele>21.767</ele>
        <time>2013-05-03T15:32:52Z</time>
      </trkpt>
      <trkpt lat="59.9142898" lon="17.6428946">
        <ele>21.2864</ele>
        <time>2013-05-03T15:32:53Z</time>
      </trkpt>
      <trkpt lat="59.9143428" lon="17.6428848">
        <ele>21.2864</ele>
        <time>2013-05-03T15:32:54Z</time>
      </trkpt>
      <trkpt lat="59.9143962" lon="17.6428755">
        <ele>20.8057</ele>
        <time>2013-05-03T15:32:55Z</time>
      </trkpt>
      <trkpt lat="59.9144501" lon="17.6428698">
        <ele>20.8057</ele>
        <time>2013-05-03T15:32:56Z</time>
      </trkpt>
      <trkpt lat="59.9145053" lon="17.6428646">
        <ele>20.8057</ele>
        <time>2013-05-03T15:32:57Z</time>
      </trkpt>
      <trkpt lat="59.914561" lon="17.6428572">
        <ele>20.325</ele>
        <time>2013-05-03T15:32:58Z</time>
      </trkpt>
      <trkpt lat="59.914617" lon="17.6428468">
        <ele>20.325</ele>
        <time>2013-05-03T15:32:59Z</time>
      </trkpt>
      <trkpt lat="59.9146734" lon="17.6428319">
        <ele>20.325</ele>
        <time>2013-05-03T15:33:00Z</time>
      </trkpt>
      <trkpt lat="59.9147293" lon="17.6428195">
        <ele>20.325</ele>
        <time>2013-05-03T15:33:01Z</time>
      </trkpt>
      <trkpt lat="59.9147856" lon="17.6428061">
        <ele>20.325</ele>
        <time>2013-05-03T15:33:02Z</time>
      </trkpt>
      <trkpt lat="59.9148422" lon="17.6427926">
        <ele>20.325</ele>
        <time>2013-05-03T15:33:03Z</time>
      </trkpt>
      <trkpt lat="59.9148997" lon="17.6427816">
        <ele>19.8444</ele>
        <time>2013-05-03T15:33:04Z</time>
      </trkpt>
      <trkpt lat="59.9149571" lon="17.6427711">
        <ele>19.8444</ele>
        <time>2013-05-03T15:33:05Z</time>
      </trkpt>
      <trkpt lat="59.915014" lon="17.6427585">
        <ele>19.8444</ele>
        <time>2013-05-03T15:33:06Z</time>
      </trkpt>
      <trkpt lat="59.9150715" lon="17.6427458">
        <ele>19.8444</ele>
        <time>2013-05-03T15:33:07Z</time>
      </trkpt>
      <trkpt lat="59.9151282" lon="17.6427329">
        <ele>19.3638</ele>
        <time>2013-05-03T15:33:08Z</time>
      </trkpt>
      <trkpt lat="59.9151823" lon="17.6427123">
        <ele>19.3638</ele>
        <time>2013-05-03T15:33:09Z</time>
      </trkpt>
      <trkpt lat="59.9152355" lon="17.642672">
        <ele>18.8831</ele>
        <time>2013-05-03T15:33:10Z</time>
      </trkpt>
      <trkpt lat="59.9152995" lon="17.6426168">
        <ele>18.8831</ele>
        <time>2013-05-03T15:33:11Z</time>
      </trkpt>
      <trkpt lat="59.9153706" lon="17.6425674">
        <ele>18.4023</ele>
        <time>2013-05-03T15:33:12Z</time>
      </trkpt>
      <trkpt lat="59.9154468" lon="17.6425389">
        <ele>18.4023</ele>
        <time>2013-05-03T15:33:13Z</time>
      </trkpt>
      <trkpt lat="59.9155244" lon="17.6425227">
        <ele>18.4023</ele>
        <time>2013-05-03T15:33:14Z</time>
      </trkpt>
      <trkpt lat="59.9156021" lon="17.6425101">
        <ele>18.4023</ele>
        <time>2013-05-03T15:33:15Z</time>
      </trkpt>
      <trkpt lat="59.9156782" lon="17.6424984">
        <ele>18.8831</ele>
        <time>2013-05-03T15:33:16Z</time>
      </trkpt>
      <trkpt lat="59.9157527" lon="17.6424899">
        <ele>18.8831</ele>
        <time>2013-05-03T15:33:17Z</time>
      </trkpt>
      <trkpt lat="59.9158248" lon="17.642487">
        <ele>19.3638</ele>
        <time>2013-05-03T15:33:18Z</time>
      </trkpt>
      <trkpt lat="59.9158941" lon="17.6424885">
        <ele>19.3638</ele>
        <time>2013-05-03T15:33:19Z</time>
      </trkpt>
      <trkpt lat="59.9159604" lon="17.642491">
        <ele>19.8444</ele>
        <time>2013-05-03T15:33:20Z</time>
      </trkpt>
      <trkpt lat="59.9160248" lon="17.6424935">
        <ele>19.8444</ele>
        <time>2013-05-03T15:33:21Z</time>
      </trkpt>
      <trkpt lat="59.9160883" lon="17.6424963">
        <ele>20.325</ele>
        <time>2013-05-03T15:33:22Z</time>
      </trkpt>
      <trkpt lat="59.9161502" lon="17.6424963">
        <ele>20.325</ele>
        <time>2013-05-03T15:33:23Z</time>
      </trkpt>
      <trkpt lat="59.9162107" lon="17.6424956">
        <ele>20.325</ele>
        <time>2013-05-03T15:33:24Z</time>
      </trkpt>
      <trkpt lat="59.9162698" lon="17.6424971">
        <ele>20.8057</ele>
        <time>2013-05-03T15:33:25Z</time>
      </trkpt>
      <trkpt lat="59.9163272" lon="17.6424954">
        <ele>20.8057</ele>
        <time>2013-05-03T15:33:26Z</time>
      </trkpt>
      <trkpt lat="59.9163829" lon="17.6424895">
        <ele>20.8057</ele>
        <time>2013-05-03T15:33:27Z</time>
      </trkpt>
      <trkpt lat="59.9164387" lon="17.6424819">
        <ele>20.8057</ele>
        <time>2013-05-03T15:33:28Z</time>
      </trkpt>
      <trkpt lat="59.9164944" lon="17.6424738">
        <ele>20.8057</ele>
        <time>2013-05-03T15:33:29Z</time>
      </trkpt>
      <trkpt lat="59.9165505" lon="17.6424651">
        <ele>20.8057</ele>
        <time>2013-05-03T15:33:30Z</time>
      </trkpt>
      <trkpt lat="59.916608" lon="17.6424559">
        <ele>20.8057</ele>
        <time>2013-05-03T15:33:31Z</time>
      </trkpt>
      <trkpt lat="59.9166664" lon="17.6424477">
        <ele>20.8057</ele>
        <time>2013-05-03T15:33:32Z</time>
      </trkpt>
      <trkpt lat="59.9167252" lon="17.6424391">
        <ele>20.8057</ele>
        <time>2013-05-03T15:33:33Z</time>
      </trkpt>
      <trkpt lat="59.9167852" lon="17.6424313">
        <ele>20.8057</ele>
        <time>2013-05-03T15:33:34Z</time>
      </trkpt>
      <trkpt lat="59.916846" lon="17.6424243">
        <ele>20.8057</ele>
        <time>2013-05-03T15:33:35Z</time>
      </trkpt>
      <trkpt lat="59.9169081" lon="17.6424163">
        <ele>20.325</ele>
        <time>2013-05-03T15:33:36Z</time>
      </trkpt>
      <trkpt lat="59.9169703" lon="17.6424056">
        <ele>20.325</ele>
        <time>2013-05-03T15:33:37Z</time>
      </trkpt>
      <trkpt lat="59.9170328" lon="17.6423907">
        <ele>20.325</ele>
        <time>2013-05-03T15:33:38Z</time>
      </trkpt>
      <trkpt lat="59.9170944" lon="17.6423695">
        <ele>20.325</ele>
        <time>2013-05-03T15:33:39Z</time>
      </trkpt>
      <trkpt lat="59.9171556" lon="17.6423466">
        <ele>20.325</ele>
        <time>2013-05-03T15:33:40Z</time>
      </trkpt>
      <trkpt lat="59.9172177" lon="17.6423309">
        <ele>20.325</ele>
        <time>2013-05-03T15:33:41Z</time>
      </trkpt>
      <trkpt lat="59.9172805" lon="17.6423295">
        <ele>20.325</ele>
        <time>2013-05-03T15:33:42Z</time>
      </trkpt>
      <trkpt lat="59.9173417" lon="17.6423335">
        <ele>20.325</ele>
        <time>2013-05-03T15:33:43Z</time>
      </trkpt>
      <trkpt lat="59.9174012" lon="17.6423343">
        <ele>20.325</ele>
        <time>2013-05-03T15:33:44Z</time>
      </trkpt>
      <trkpt lat="59.9174592" lon="17.6423322">
        <ele>19.8444</ele>
        <time>2013-05-03T15:33:45Z</time>
      </trkpt>
      <trkpt lat="59.9175168" lon="17.6423279">
        <ele>19.8444</ele>
        <time>2013-05-03T15:33:46Z</time>
      </trkpt>
      <trkpt lat="59.9175737" lon="17.6423262">
        <ele>19.8444</ele>
        <time>2013-05-03T15:33:47Z</time>
      </trkpt>
      <trkpt lat="59.9176295" lon="17.6423247">
        <ele>19.8444</ele>
        <time>2013-05-03T15:33:48Z</time>
      </trkpt>
      <trkpt lat="59.9176855" lon="17.6423252">
        <ele>19.8444</ele>
        <time>2013-05-03T15:33:49Z</time>
      </trkpt>
      <trkpt lat="59.9177415" lon="17.6423262">
        <ele>19.8444</ele>
        <time>2013-05-03T15:33:50Z</time>
      </trkpt>
      <trkpt lat="59.917797" lon="17.6423264">
        <ele>20.325</ele>
        <time>2013-05-03T15:33:51Z</time>
      </trkpt>
      <trkpt lat="59.9178526" lon="17.6423228">
        <ele>20.325</ele>
        <time>2013-05-03T15:33:52Z</time>
      </trkpt>
      <trkpt lat="59.9179084" lon="17.6423172">
        <ele>20.325</ele>
        <time>2013-05-03T15:33:53Z</time>
      </trkpt>
      <trkpt lat="59.9179641" lon="17.642313">
        <ele>20.325</ele>
        <time>2013-05-03T15:33:54Z</time>
      </trkpt>
      <trkpt lat="59.9180194" lon="17.6423089">
        <ele>20.325</ele>
        <time>2013-05-03T15:33:55Z</time>
      </trkpt>
      <trkpt lat="59.9180744" lon="17.6423045">
        <ele>20.325</ele>
        <time>2013-05-03T15:33:56Z</time>
      </trkpt>
      <trkpt lat="59.918128" lon="17.6422987">
        <ele>20.325</ele>
        <time>2013-05-03T15:33:57Z</time>
      </trkpt>
      <trkpt lat="59.91818" lon="17.6422922">
        <ele>20.8057</ele>
        <time>2013-05-03T15:33:58Z</time>
      </trkpt>
      <trkpt lat="59.9182309" lon="17.6422892">
        <ele>20.8057</ele>
        <time>2013-05-03T15:33:59Z</time>
      </trkpt>
      <trkpt lat="59.9182766" lon="17.6422854">
        <ele>20.8057</ele>
        <time>2013-05-03T15:34:00Z</time>
      </trkpt>
      <trkpt lat="59.9183218" lon="17.6422804">
        <ele>20.325</ele>
        <time>2013-05-03T15:34:01Z</time>
      </trkpt>
      <trkpt lat="59.9183678" lon="17.6422716">
        <ele>20.325</ele>
        <time>2013-05-03T15:34:02Z</time>
      </trkpt>
      <trkpt lat="59.9184147" lon="17.6422641">
        <ele>20.325</ele>
        <time>2013-05-03T15:34:03Z</time>
      </trkpt>
      <trkpt lat="59.9184611" lon="17.6422594">
        <ele>20.325</ele>
        <time>2013-05-03T15:34:04Z</time>
      </trkpt>
      <trkpt lat="59.9185064" lon="17.6422492">
        <ele>20.8057</ele>
        <time>2013-05-03T15:34:05Z</time>
      </trkpt>
      <trkpt lat="59.918553" lon="17.642242">
        <ele>20.8057</ele>
        <time>2013-05-03T15:34:06Z</time>
      </trkpt>
      <trkpt lat="59.9186003" lon="17.6422369">
        <ele>20.8057</ele>
        <time>2013-05-03T15:34:07Z</time>
      </trkpt>
      <trkpt lat="59.9186494" lon="17.6422345">
        <ele>21.2864</ele>
        <time>2013-05-03T15:34:08Z</time>
      </trkpt>
      <trkpt lat="59.9186983" lon="17.642232">
        <ele>21.2864</ele>
        <time>2013-05-03T15:34:09Z</time>
      </trkpt>
      <trkpt lat="59.9187469" lon="17.6422299">
        <ele>21.2864</ele>
        <time>2013-05-03T15:34:10Z</time>
      </trkpt>
      <trkpt lat="59.918795" lon="17.6422223">
        <ele>21.2864</ele>
        <time>2013-05-03T15:34:11Z</time>
      </trkpt>
      <trkpt lat="59.9188433" lon="17.642212">
        <ele>21.2864</ele>
        <time>2013-05-03T15:34:12Z</time>
      </trkpt>
      <trkpt lat="59.9188923" lon="17.6422035">
        <ele>21.2864</ele>
        <time>2013-05-03T15:34:13Z</time>
      </trkpt>
      <trkpt lat="59.9189418" lon="17.6421975">
        <ele>21.2864</ele>
        <time>2013-05-03T15:34:14Z</time>
      </trkpt>
      <trkpt lat="59.918993" lon="17.6421943">
        <ele>21.767</ele>
        <time>2013-05-03T15:34:15Z</time>
      </trkpt>
      <trkpt lat="59.9190443" lon="17.6421887">
        <ele>21.767</ele>
        <time>2013-05-03T15:34:16Z</time>
      </trkpt>
      <trkpt lat="59.9190951" lon="17.6421827">
        <ele>21.767</ele>
        <time>2013-05-03T15:34:17Z</time>
      </trkpt>
      <trkpt lat="59.9191458" lon="17.6421776">
        <ele>21.767</ele>
        <time>2013-05-03T15:34:18Z</time>
      </trkpt>
      <trkpt lat="59.9191966" lon="17.6421744">
        <ele>21.767</ele>
        <time>2013-05-03T15:34:19Z</time>
      </trkpt>
      <trkpt lat="59.9192471" lon="17.6421689">
        <ele>21.767</ele>
        <time>2013-05-03T15:34:20Z</time>
      </trkpt>
      <trkpt lat="59.9192984" lon="17.6421623">
        <ele>21.767</ele>
        <time>2013-05-03T15:34:21Z</time>
      </trkpt>
      <trkpt lat="59.9193504" lon="17.6421564">
        <ele>21.767</ele>
        <time>2013-05-03T15:34:22Z</time>
      </trkpt>
      <trkpt lat="59.9194032" lon="17.6421496">
        <ele>21.767</ele>
        <time>2013-05-03T15:34:23Z</time>
      </trkpt>
      <trkpt lat="59.9194571" lon="17.6421435">
        <ele>21.767</ele>
        <time>2013-05-03T15:34:24Z</time>
      </trkpt>
      <trkpt lat="59.9195114" lon="17.6421407">
        <ele>21.767</ele>
        <time>2013-05-03T15:34:25Z</time>
      </trkpt>
      <trkpt lat="59.919565" lon="17.6421387">
        <ele>21.767</ele>
        <time>2013-05-03T15:34:26Z</time>
      </trkpt>
      <trkpt lat="59.9196171" lon="17.6421315">
        <ele>21.767</ele>
        <time>2013-05-03T15:34:27Z</time>
      </trkpt>
      <trkpt lat="59.9196684" lon="17.6421212">
        <ele>21.767</ele>
        <time>2013-05-03T15:34:28Z</time>
      </trkpt>
      <trkpt lat="59.9197187" lon="17.6421105">
        <ele>21.2864</ele>
        <time>2013-05-03T15:34:29Z</time>
      </trkpt>
      <trkpt lat="59.9197683" lon="17.6420985">
        <ele>21.2864</ele>
        <time>2013-05-03T15:34:30Z</time>
      </trkpt>
      <trkpt lat="59.9198176" lon="17.6420866">
        <ele>21.2864</ele>
        <time>2013-05-03T15:34:31Z</time>
      </trkpt>
      <trkpt lat="59.9198664" lon="17.6420755">
        <ele>21.2864</ele>
        <time>2013-05-03T15:34:32Z</time>
      </trkpt>
      <trkpt lat="59.9199146" lon="17.6420643">
        <ele>21.2864</ele>
        <time>2013-05-03T15:34:33Z</time>
      </trkpt>
      <trkpt lat="59.9199635" lon="17.6420538">
        <ele>20.8057</ele>
        <time>2013-05-03T15:34:34Z</time>
      </trkpt>
      <trkpt lat="59.9200125" lon="17.6420456">
        <ele>20.8057</ele>
        <time>2013-05-03T15:34:35Z</time>
      </trkpt>
      <trkpt lat="59.9200621" lon="17.64204">
        <ele>20.8057</ele>
        <time>2013-05-03T15:34:36Z</time>
      </trkpt>
      <trkpt lat="59.9201122" lon="17.6420363">
        <ele>20.8057</ele>
        <time>2013-05-03T15:34:37Z</time>
      </trkpt>
      <trkpt lat="59.9201622" lon="17.6420347">
        <ele>20.8057</ele>
        <time>2013-05-03T15:34:38Z</time>
      </trkpt>
      <trkpt lat="59.9202117" lon="17.6420333">
        <ele>20.8057</ele>
        <time>2013-05-03T15:34:39Z</time>
      </trkpt>
      <trkpt lat="59.9202598" lon="17.642027">
        <ele>20.8057</ele>
        <time>2013-05-03T15:34:40Z</time>
      </trkpt>
      <trkpt lat="59.9203093" lon="17.6420197">
        <ele>20.8057</ele>
        <time>2013-05-03T15:34:41Z</time>
      </trkpt>
      <trkpt lat="59.9203604" lon="17.6420159">
        <ele>20.8057</ele>
        <time>2013-05-03T15:34:42Z</time>
      </trkpt>
      <trkpt lat="59.9204118" lon="17.6420138">
        <ele>20.8057</ele>
        <time>2013-05-03T15:34:43Z</time>
      </trkpt>
      <trkpt lat="59.9204632" lon="17.6420124">
        <ele>20.8057</ele>
        <time>2013-05-03T15:34:44Z</time>
      </trkpt>
      <trkpt lat="59.9205154" lon="17.6420092">
        <ele>20.8057</ele>
        <time>2013-05-03T15:34:45Z</time>
      </trkpt>
      <trkpt lat="59.9205677" lon="17.6420051">
        <ele>20.8057</ele>
        <time>2013-05-03T15:34:46Z</time>
      </trkpt>
      <trkpt lat="59.9206194" lon="17.6420036">
        <ele>20.8057</ele>
        <time>2013-05-03T15:34:47Z</time>
      </trkpt>
      <trkpt lat="59.9206708" lon="17.6420031">
        <ele>20.325</ele>
        <time>2013-05-03T15:34:48Z</time>
      </trkpt>
      <trkpt lat="59.9207233" lon="17.6420006">
        <ele>20.8057</ele>
        <time>2013-05-03T15:34:49Z</time>
      </trkpt>
      <trkpt lat="59.9207764" lon="17.6419988">
        <ele>20.8057</ele>
        <time>2013-05-03T15:34:50Z</time>
      </trkpt>
      <trkpt lat="59.9208289" lon="17.6419953">
        <ele>20.8057</ele>
        <time>2013-05-03T15:34:51Z</time>
      </trkpt>
      <trkpt lat="59.9208801" lon="17.6419918">
        <ele>20.8057</ele>
        <time>2013-05-03T15:34:52Z</time>
      </trkpt>
      <trkpt lat="59.9209313" lon="17.6419929">
        <ele>20.8057</ele>
        <time>2013-05-03T15:34:53Z</time>
      </trkpt>
      <trkpt lat="59.9209842" lon="17.6419923">
        <ele>20.8057</ele>
        <time>2013-05-03T15:34:54Z</time>
      </trkpt>
      <trkpt lat="59.9210376" lon="17.6419923">
        <ele>20.8057</ele>
        <time>2013-05-03T15:34:55Z</time>
      </trkpt>
      <trkpt lat="59.9210904" lon="17.6419879">
        <ele>20.8057</ele>
        <time>2013-05-03T15:34:56Z</time>
      </trkpt>
      <trkpt lat="59.9211433" lon="17.6419841">
        <ele>20.8057</ele>
        <time>2013-05-03T15:34:57Z</time>
      </trkpt>
      <trkpt lat="59.9211964" lon="17.641984">
        <ele>20.8057</ele>
        <time>2013-05-03T15:34:58Z</time>
      </trkpt>
      <trkpt lat="59.9212483" lon="17.6419858">
        <ele>21.2864</ele>
        <time>2013-05-03T15:34:59Z</time>
      </trkpt>
      <trkpt lat="59.9212982" lon="17.6419812">
        <ele>21.2864</ele>
        <time>2013-05-03T15:35:00Z</time>
      </trkpt>
      <trkpt lat="59.9213463" lon="17.6419713">
        <ele>21.767</ele>
        <time>2013-05-03T15:35:01Z</time>
      </trkpt>
      <trkpt lat="59.921395" lon="17.6419647">
        <ele>21.767</ele>
        <time>2013-05-03T15:35:02Z</time>
      </trkpt>
      <trkpt lat="59.9214435" lon="17.6419596">
        <ele>22.2476</ele>
        <time>2013-05-03T15:35:03Z</time>
      </trkpt>
      <trkpt lat="59.9214909" lon="17.6419519">
        <ele>22.2476</ele>
        <time>2013-05-03T15:35:04Z</time>
      </trkpt>
      <trkpt lat="59.9215365" lon="17.6419389">
        <ele>22.7283</ele>
        <time>2013-05-03T15:35:05Z</time>
      </trkpt>
      <trkpt lat="59.9215803" lon="17.6419258">
        <ele>23.6896</ele>
        <time>2013-05-03T15:35:06Z</time>
      </trkpt>
      <trkpt lat="59.9216255" lon="17.6419126">
        <ele>24.1703</ele>
        <time>2013-05-03T15:35:07Z</time>
      </trkpt>
      <trkpt lat="59.9216721" lon="17.6419038">
        <ele>24.651</ele>
        <time>2013-05-03T15:35:08Z</time>
      </trkpt>
      <trkpt lat="59.9217192" lon="17.6418933">
        <ele>24.651</ele>
        <time>2013-05-03T15:35:09Z</time>
      </trkpt>
      <trkpt lat="59.9217686" lon="17.6418892">
        <ele>24.1703</ele>
        <time>2013-05-03T15:35:10Z</time>
      </trkpt>
      <trkpt lat="59.9218198" lon="17.6418885">
        <ele>24.1703</ele>
        <time>2013-05-03T15:35:11Z</time>
      </trkpt>
      <trkpt lat="59.9218711" lon="17.641883">
        <ele>24.1703</ele>
        <time>2013-05-03T15:35:12Z</time>
      </trkpt>
      <trkpt lat="59.9219232" lon="17.6418747">
        <ele>24.1703</ele>
        <time>2013-05-03T15:35:13Z</time>
      </trkpt>
      <trkpt lat="59.9219762" lon="17.6418683">
        <ele>24.1703</ele>
        <time>2013-05-03T15:35:14Z</time>
      </trkpt>
      <trkpt lat="59.9220291" lon="17.6418626">
        <ele>24.1703</ele>
        <time>2013-05-03T15:35:15Z</time>
      </trkpt>
      <trkpt lat="59.9220814" lon="17.6418585">
        <ele>24.1703</ele>
        <time>2013-05-03T15:35:16Z</time>
      </trkpt>
      <trkpt lat="59.9221337" lon="17.6418539">
        <ele>24.1703</ele>
        <time>2013-05-03T15:35:17Z</time>
      </trkpt>
      <trkpt lat="59.9221866" lon="17.6418465">
        <ele>23.6896</ele>
        <time>2013-05-03T15:35:18Z</time>
      </trkpt>
      <trkpt lat="59.92224" lon="17.6418377">
        <ele>23.6896</ele>
        <time>2013-05-03T15:35:19Z</time>
      </trkpt>
      <trkpt lat="59.9222932" lon="17.6418315">
        <ele>23.6896</ele>
        <time>2013-05-03T15:35:20Z</time>
      </trkpt>
      <trkpt lat="59.9223448" lon="17.641825">
        <ele>23.6896</ele>
        <time>2013-05-03T15:35:21Z</time>
      </trkpt>
      <trkpt lat="59.9223958" lon="17.6418182">
        <ele>23.6896</ele>
        <time>2013-05-03T15:35:22Z</time>
      </trkpt>
      <trkpt lat="59.9224482" lon="17.6418104">
        <ele>23.6896</ele>
        <time>2013-05-03T15:35:23Z</time>
      </trkpt>
      <trkpt lat="59.9225014" lon="17.6418012">
        <ele>23.209</ele>
        <time>2013-05-03T15:35:24Z</time>
      </trkpt>
      <trkpt lat="59.9225553" lon="17.6417934">
        <ele>23.209</ele>
        <time>2013-05-03T15:35:25Z</time>
      </trkpt>
      <trkpt lat="59.922609" lon="17.6417862">
        <ele>23.209</ele>
        <time>2013-05-03T15:35:26Z</time>
      </trkpt>
      <trkpt lat="59.9226622" lon="17.6417767">
        <ele>23.209</ele>
        <time>2013-05-03T15:35:27Z</time>
      </trkpt>
      <trkpt lat="59.9227149" lon="17.641768">
        <ele>23.209</ele>
        <time>2013-05-03T15:35:28Z</time>
      </trkpt>
      <trkpt lat="59.9227666" lon="17.6417628">
        <ele>23.209</ele>
        <time>2013-05-03T15:35:29Z</time>
      </trkpt>
      <trkpt lat="59.922819" lon="17.6417584">
        <ele>23.6896</ele>
        <time>2013-05-03T15:35:30Z</time>
      </trkpt>
      <trkpt lat="59.922873" lon="17.6417524">
        <ele>23.6896</ele>
        <time>2013-05-03T15:35:31Z</time>
      </trkpt>
      <trkpt lat="59.9229287" lon="17.641745">
        <ele>23.6896</ele>
        <time>2013-05-03T15:35:32Z</time>
      </trkpt>
      <trkpt lat="59.9229858" lon="17.6417395">
        <ele>23.6896</ele>
        <time>2013-05-03T15:35:33Z</time>
      </trkpt>
      <trkpt lat="59.9230438" lon="17.6417356">
        <ele>23.6896</ele>
        <time>2013-05-03T15:35:34Z</time>
      </trkpt>
      <trkpt lat="59.9231018" lon="17.6417311">
        <ele>23.6896</ele>
        <time>2013-05-03T15:35:35Z</time>
      </trkpt>
      <trkpt lat="59.9231598" lon="17.6417253">
        <ele>23.6896</ele>
        <time>2013-05-03T15:35:36Z</time>
      </trkpt>
      <trkpt lat="59.9232174" lon="17.641717">
        <ele>23.6896</ele>
        <time>2013-05-03T15:35:37Z</time>
      </trkpt>
      <trkpt lat="59.9232744" lon="17.6417093">
        <ele>23.6896</ele>
        <time>2013-05-03T15:35:38Z</time>
      </trkpt>
      <trkpt lat="59.9233317" lon="17.6417018">
        <ele>23.6896</ele>
        <time>2013-05-03T15:35:39Z</time>
      </trkpt>
      <trkpt lat="59.9233892" lon="17.6416926">
        <ele>23.6896</ele>
        <time>2013-05-03T15:35:40Z</time>
      </trkpt>
      <trkpt lat="59.9234469" lon="17.6416846">
        <ele>23.209</ele>
        <time>2013-05-03T15:35:41Z</time>
      </trkpt>
      <trkpt lat="59.9235048" lon="17.6416768">
        <ele>23.209</ele>
        <time>2013-05-03T15:35:42Z</time>
      </trkpt>
      <trkpt lat="59.9235624" lon="17.6416694">
        <ele>23.209</ele>
        <time>2013-05-03T15:35:43Z</time>
      </trkpt>
      <trkpt lat="59.9236202" lon="17.6416636">
        <ele>23.209</ele>
        <time>2013-05-03T15:35:44Z</time>
      </trkpt>
      <trkpt lat="59.9236792" lon="17.6416571">
        <ele>22.7283</ele>
        <time>2013-05-03T15:35:45Z</time>
      </trkpt>
      <trkpt lat="59.9237384" lon="17.6416479">
        <ele>22.7283</ele>
        <time>2013-05-03T15:35:46Z</time>
      </trkpt>
      <trkpt lat="59.923799" lon="17.6416369">
        <ele>22.2476</ele>
        <time>2013-05-03T15:35:47Z</time>
      </trkpt>
      <trkpt lat="59.9238602" lon="17.6416285">
        <ele>22.2476</ele>
        <time>2013-05-03T15:35:48Z</time>
      </trkpt>
      <trkpt lat="59.9239217" lon="17.6416187">
        <ele>22.2476</ele>
        <time>2013-05-03T15:35:49Z</time>
      </trkpt>
      <trkpt lat="59.9239824" lon="17.6416096">
        <ele>22.2476</ele>
        <time>2013-05-03T15:35:50Z</time>
      </trkpt>
      <trkpt lat="59.9240421" lon="17.6416026">
        <ele>22.2476</ele>
        <time>2013-05-03T15:35:51Z</time>
      </trkpt>
      <trkpt lat="59.924102" lon="17.6415938">
        <ele>21.767</ele>
        <time>2013-05-03T15:35:52Z</time>
      </trkpt>
      <trkpt lat="59.9241605" lon="17.6415844">
        <ele>21.767</ele>
        <time>2013-05-03T15:35:53Z</time>
      </trkpt>
      <trkpt lat="59.9242191" lon="17.6415779">
        <ele>21.767</ele>
        <time>2013-05-03T15:35:54Z</time>
      </trkpt>
      <trkpt lat="59.9242775" lon="17.6415763">
        <ele>21.767</ele>
        <time>2013-05-03T15:35:55Z</time>
      </trkpt>
      <trkpt lat="59.924335" lon="17.6415753">
        <ele>21.767</ele>
        <time>2013-05-03T15:35:56Z</time>
      </trkpt>
      <trkpt lat="59.9243926" lon="17.6415721">
        <ele>21.767</ele>
        <time>2013-05-03T15:35:57Z</time>
      </trkpt>
      <trkpt lat="59.9244506" lon="17.641568">
        <ele>21.767</ele>
        <time>2013-05-03T15:35:58Z</time>
      </trkpt>
      <trkpt lat="59.9245081" lon="17.6415616">
        <ele>21.767</ele>
        <time>2013-05-03T15:35:59Z</time>
      </trkpt>
      <trkpt lat="59.9245647" lon="17.641553">
        <ele>21.767</ele>
        <time>2013-05-03T15:36:00Z</time>
      </trkpt>
      <trkpt lat="59.9246205" lon="17.6415432">
        <ele>21.767</ele>
        <time>2013-05-03T15:36:01Z</time>
      </trkpt>
      <trkpt lat="59.9246759" lon="17.6415302">
        <ele>21.2864</ele>
        <time>2013-05-03T15:36:02Z</time>
      </trkpt>
      <trkpt lat="59.9247311" lon="17.6415141">
        <ele>21.2864</ele>
        <time>2013-05-03T15:36:03Z</time>
      </trkpt>
      <trkpt lat="59.9247859" lon="17.6414989">
        <ele>20.8057</ele>
        <time>2013-05-03T15:36:04Z</time>
      </trkpt>
      <trkpt lat="59.9248418" lon="17.6414863">
        <ele>20.8057</ele>
        <time>2013-05-03T15:36:05Z</time>
      </trkpt>
      <trkpt lat="59.9248981" lon="17.6414759">
        <ele>20.8057</ele>
        <time>2013-05-03T15:36:06Z</time>
      </trkpt>
      <trkpt lat="59.9249538" lon="17.6414691">
        <ele>20.325</ele>
        <time>2013-05-03T15:36:07Z</time>
      </trkpt>
      <trkpt lat="59.9250092" lon="17.6414675">
        <ele>20.325</ele>
        <time>2013-05-03T15:36:08Z</time>
      </trkpt>
      <trkpt lat="59.9250641" lon="17.6414649">
        <ele>20.325</ele>
        <time>2013-05-03T15:36:09Z</time>
      </trkpt>
      <trkpt lat="59.9251178" lon="17.6414618">
        <ele>20.325</ele>
        <time>2013-05-03T15:36:10Z</time>
      </trkpt>
      <trkpt lat="59.925169" lon="17.641459">
        <ele>19.8444</ele>
        <time>2013-05-03T15:36:11Z</time>
      </trkpt>
      <trkpt lat="59.9252148" lon="17.6414572">
        <ele>19.8444</ele>
        <time>2013-05-03T15:36:12Z</time>
      </trkpt>
      <trkpt lat="59.9252512" lon="17.6414562">
        <ele>19.8444</ele>
        <time>2013-05-03T15:36:13Z</time>
      </trkpt>
      <trkpt lat="59.9252766" lon="17.6414572">
        <ele>19.8444</ele>
        <time>2013-05-03T15:36:14Z</time>
      </trkpt>
      <trkpt lat="59.9252967" lon="17.6414637">
        <ele>19.8444</ele>
        <time>2013-05-03T15:36:15Z</time>
      </trkpt>
      <trkpt lat="59.9253127" lon="17.6414855">
        <ele>20.325</ele>
        <time>2013-05-03T15:36:16Z</time>
      </trkpt>
      <trkpt lat="59.9253151" lon="17.6415214">
        <ele>20.325</ele>
        <time>2013-05-03T15:36:17Z</time>
      </trkpt>
      <trkpt lat="59.9253049" lon="17.6415463">
        <ele>20.325</ele>
        <time>2013-05-03T15:36:18Z</time>
      </trkpt>
      <trkpt lat="59.9252926" lon="17.6415551">
        <ele>20.325</ele>
        <time>2013-05-03T15:36:19Z</time>
      </trkpt>
      <trkpt lat="59.9252847" lon="17.6415629">
        <ele>20.8057</ele>
        <time>2013-05-03T15:36:20Z</time>
      </trkpt>
      <trkpt lat="59.9252811" lon="17.6415763">
        <ele>20.325</ele>
        <time>2013-05-03T15:36:21Z</time>
      </trkpt>
      <trkpt lat="59.9252876" lon="17.6415873">
        <ele>20.325</ele>
        <time>2013-05-03T15:36:22Z</time>
      </trkpt>
      <trkpt lat="59.9253016" lon="17.6415799">
        <ele>20.325</ele>
        <time>2013-05-03T15:36:23Z</time>
      </trkpt>
      <trkpt lat="59.9253132" lon="17.6415452">
        <ele>20.325</ele>
        <time>2013-05-03T15:36:24Z</time>
      </trkpt>
      <trkpt lat="59.9253104" lon="17.6414968">
        <ele>19.8444</ele>
        <time>2013-05-03T15:36:25Z</time>
      </trkpt>
      <trkpt lat="59.9252916" lon="17.6414519">
        <ele>19.8444</ele>
        <time>2013-05-03T15:36:26Z</time>
      </trkpt>
      <trkpt lat="59.9252624" lon="17.6414293">
        <ele>19.8444</ele>
        <time>2013-05-03T15:36:27Z</time>
      </trkpt>
      <trkpt lat="59.9252298" lon="17.641424">
        <ele>19.8444</ele>
        <time>2013-05-03T15:36:28Z</time>
      </trkpt>
      <trkpt lat="59.9251991" lon="17.6414228">
        <ele>19.8444</ele>
        <time>2013-05-03T15:36:29Z</time>
      </trkpt>
      <trkpt lat="59.9251692" lon="17.6414228">
        <ele>19.8444</ele>
        <time>2013-05-03T15:36:30Z</time>
      </trkpt>
      <trkpt lat="59.92514" lon="17.6414243">
        <ele>19.8444</ele>
        <time>2013-05-03T15:36:31Z</time>
      </trkpt>
      <trkpt lat="59.9251124" lon="17.641424">
        <ele>19.8444</ele>
        <time>2013-05-03T15:36:32Z</time>
      </trkpt>
      <trkpt lat="59.9250859" lon="17.6414217">
        <ele>19.8444</ele>
        <time>2013-05-03T15:36:33Z</time>
      </trkpt>
      <trkpt lat="59.9250599" lon="17.6414236">
        <ele>19.8444</ele>
        <time>2013-05-03T15:36:34Z</time>
      </trkpt>
      <trkpt lat="59.9250352" lon="17.6414279">
        <ele>19.8444</ele>
        <time>2013-05-03T15:36:35Z</time>
      </trkpt>
      <trkpt lat="59.9250108" lon="17.6414308">
        <ele>19.8444</ele>
        <time>2013-05-03T15:36:36Z</time>
      </trkpt>
      <trkpt lat="59.924986" lon="17.6414318">
        <ele>19.8444</ele>
        <time>2013-05-03T15:36:37Z</time>
      </trkpt>
      <trkpt lat="59.9249594" lon="17.6414313">
        <ele>19.8444</ele>
        <time>2013-05-03T15:36:38Z</time>
      </trkpt>
      <trkpt lat="59.9249287" lon="17.6414308">
        <ele>19.8444</ele>
        <time>2013-05-03T15:36:39Z</time>
      </trkpt>
      <trkpt lat="59.9248958" lon="17.6414339">
        <ele>19.8444</ele>
        <time>2013-05-03T15:36:40Z</time>
      </trkpt>
      <trkpt lat="59.9248625" lon="17.6414393">
        <ele>19.8444</ele>
        <time>2013-05-03T15:36:41Z</time>
      </trkpt>
      <trkpt lat="59.9248276" lon="17.6414443">
        <ele>19.8444</ele>
        <time>2013-05-03T15:36:42Z</time>
      </trkpt>
      <trkpt lat="59.9247914" lon="17.6414503">
        <ele>19.8444</ele>
        <time>2013-05-03T15:36:43Z</time>
      </trkpt>
      <trkpt lat="59.9247546" lon="17.6414597">
        <ele>20.325</ele>
        <time>2013-05-03T15:36:44Z</time>
      </trkpt>
      <trkpt lat="59.9247171" lon="17.6414709">
        <ele>20.325</ele>
        <time>2013-05-03T15:36:45Z</time>
      </trkpt>
      <trkpt lat="59.9246785" lon="17.6414815">
        <ele>20.325</ele>
        <time>2013-05-03T15:36:46Z</time>
      </trkpt>
      <trkpt lat="59.9246388" lon="17.641493">
        <ele>20.325</ele>
        <time>2013-05-03T15:36:47Z</time>
      </trkpt>
      <trkpt lat="59.9245998" lon="17.6415032">
        <ele>20.325</ele>
        <time>2013-05-03T15:36:48Z</time>
      </trkpt>
      <trkpt lat="59.9245625" lon="17.6415105">
        <ele>20.325</ele>
        <time>2013-05-03T15:36:49Z</time>
      </trkpt>
      <trkpt lat="59.9245249" lon="17.6415166">
        <ele>20.325</ele>
        <time>2013-05-03T15:36:50Z</time>
      </trkpt>
      <trkpt lat="59.9244859" lon="17.6415243">
        <ele>20.325</ele>
        <time>2013-05-03T15:36:51Z</time>
      </trkpt>
      <trkpt lat="59.9244454" lon="17.6415338">
        <ele>20.325</ele>
        <time>2013-05-03T15:36:52Z</time>
      </trkpt>
      <trkpt lat="59.9244061" lon="17.6415402">
        <ele>20.325</ele>
        <time>2013-05-03T15:36:53Z</time>
      </trkpt>
      <trkpt lat="59.9243661" lon="17.6415453">
        <ele>20.8057</ele>
        <time>2013-05-03T15:36:54Z</time>
      </trkpt>
      <trkpt lat="59.9243248" lon="17.6415494">
        <ele>20.8057</ele>
        <time>2013-05-03T15:36:55Z</time>
      </trkpt>
      <trkpt lat="59.924282" lon="17.6415526">
        <ele>20.8057</ele>
        <time>2013-05-03T15:36:56Z</time>
      </trkpt>
      <trkpt lat="59.9242388" lon="17.641555">
        <ele>20.8057</ele>
        <time>2013-05-03T15:36:57Z</time>
      </trkpt>
      <trkpt lat="59.9241954" lon="17.641559">
        <ele>20.8057</ele>
        <time>2013-05-03T15:36:58Z</time>
      </trkpt>
      <trkpt lat="59.9241528" lon="17.6415618">
        <ele>20.8057</ele>
        <time>2013-05-03T15:36:59Z</time>
      </trkpt>
      <trkpt lat="59.9241088" lon="17.6415648">
        <ele>21.2864</ele>
        <time>2013-05-03T15:37:00Z</time>
      </trkpt>
      <trkpt lat="59.9240638" lon="17.641566">
        <ele>21.2864</ele>
        <time>2013-05-03T15:37:01Z</time>
      </trkpt>
      <trkpt lat="59.9240188" lon="17.6415675">
        <ele>21.2864</ele>
        <time>2013-05-03T15:37:02Z</time>
      </trkpt>
      <trkpt lat="59.9239731" lon="17.6415722">
        <ele>21.2864</ele>
        <time>2013-05-03T15:37:03Z</time>
      </trkpt>
      <trkpt lat="59.9239268" lon="17.6415779">
        <ele>21.2864</ele>
        <time>2013-05-03T15:37:04Z</time>
      </trkpt>
      <trkpt lat="59.9238797" lon="17.641583">
        <ele>21.767</ele>
        <time>2013-05-03T15:37:05Z</time>
      </trkpt>
      <trkpt lat="59.9238317" lon="17.6415899">
        <ele>21.767</ele>
        <time>2013-05-03T15:37:06Z</time>
      </trkpt>
      <trkpt lat="59.923783" lon="17.6415947">
        <ele>21.767</ele>
        <time>2013-05-03T15:37:07Z</time>
      </trkpt>
      <trkpt lat="59.9237347" lon="17.6415987">
        <ele>21.767</ele>
        <time>2013-05-03T15:37:08Z</time>
      </trkpt>
      <trkpt lat="59.923688" lon="17.6416063">
        <ele>22.2476</ele>
        <time>2013-05-03T15:37:09Z</time>
      </trkpt>
      <trkpt lat="59.9236417" lon="17.6416116">
        <ele>22.2476</ele>
        <time>2013-05-03T15:37:10Z</time>
      </trkpt>
      <trkpt lat="59.9235954" lon="17.6416178">
        <ele>22.2476</ele>
        <time>2013-05-03T15:37:11Z</time>
      </trkpt>
      <trkpt lat="59.9235495" lon="17.6416256">
        <ele>22.7283</ele>
        <time>2013-05-03T15:37:12Z</time>
      </trkpt>
      <trkpt lat="59.9235043" lon="17.6416334">
        <ele>22.7283</ele>
        <time>2013-05-03T15:37:13Z</time>
      </trkpt>
      <trkpt lat="59.9234593" lon="17.6416399">
        <ele>23.209</ele>
        <time>2013-05-03T15:37:14Z</time>
      </trkpt>
      <trkpt lat="59.9234147" lon="17.6416463">
        <ele>23.209</ele>
        <time>2013-05-03T15:37:15Z</time>
      </trkpt>
      <trkpt lat="59.9233707" lon="17.6416529">
        <ele>23.209</ele>
        <time>2013-05-03T15:37:16Z</time>
      </trkpt>
      <trkpt lat="59.923327" lon="17.6416597">
        <ele>23.6896</ele>
        <time>2013-05-03T15:37:17Z</time>
      </trkpt>
      <trkpt lat="59.9232832" lon="17.6416681">
        <ele>23.6896</ele>
        <time>2013-05-03T15:37:18Z</time>
      </trkpt>
      <trkpt lat="59.9232392" lon="17.6416741">
        <ele>23.6896</ele>
        <time>2013-05-03T15:37:19Z</time>
      </trkpt>
      <trkpt lat="59.9231949" lon="17.6416779">
        <ele>23.6896</ele>
        <time>2013-05-03T15:37:20Z</time>
      </trkpt>
      <trkpt lat="59.92315" lon="17.6416834">
        <ele>23.6896</ele>
        <time>2013-05-03T15:37:21Z</time>
      </trkpt>
      <trkpt lat="59.9231034" lon="17.6416877">
        <ele>23.6896</ele>
        <time>2013-05-03T15:37:22Z</time>
      </trkpt>
      <trkpt lat="59.9230562" lon="17.6416932">
        <ele>23.6896</ele>
        <time>2013-05-03T15:37:23Z</time>
      </trkpt>
      <trkpt lat="59.9230105" lon="17.6417009">
        <ele>23.6896</ele>
        <time>2013-05-03T15:37:24Z</time>
      </trkpt>
      <trkpt lat="59.9229652" lon="17.6417069">
        <ele>23.6896</ele>
        <time>2013-05-03T15:37:25Z</time>
      </trkpt>
      <trkpt lat="59.9229206" lon="17.6417092">
        <ele>23.6896</ele>
        <time>2013-05-03T15:37:26Z</time>
      </trkpt>
      <trkpt lat="59.9228771" lon="17.6417099">
        <ele>24.1703</ele>
        <time>2013-05-03T15:37:27Z</time>
      </trkpt>
      <trkpt lat="59.9228344" lon="17.6417144">
        <ele>24.1703</ele>
        <time>2013-05-03T15:37:28Z</time>
      </trkpt>
      <trkpt lat="59.9227919" lon="17.6417199">
        <ele>24.1703</ele>
        <time>2013-05-03T15:37:29Z</time>
      </trkpt>
      <trkpt lat="59.9227496" lon="17.6417255">
        <ele>24.1703</ele>
        <time>2013-05-03T15:37:30Z</time>
      </trkpt>
      <trkpt lat="59.922707" lon="17.6417274">
        <ele>24.1703</ele>
        <time>2013-05-03T15:37:31Z</time>
      </trkpt>
      <trkpt lat="59.9226635" lon="17.6417281">
        <ele>24.1703</ele>
        <time>2013-05-03T15:37:32Z</time>
      </trkpt>
      <trkpt lat="59.9226186" lon="17.6417307">
        <ele>24.1703</ele>
        <time>2013-05-03T15:37:33Z</time>
      </trkpt>
      <trkpt lat="59.9225725" lon="17.6417372">
        <ele>24.1703</ele>
        <time>2013-05-03T15:37:34Z</time>
      </trkpt>
      <trkpt lat="59.9225263" lon="17.6417467">
        <ele>24.1703</ele>
        <time>2013-05-03T15:37:35Z</time>
      </trkpt>
      <trkpt lat="59.9224813" lon="17.6417544">
        <ele>24.1703</ele>
        <time>2013-05-03T15:37:36Z</time>
      </trkpt>
      <trkpt lat="59.9224362" lon="17.6417627">
        <ele>23.6896</ele>
        <time>2013-05-03T15:37:37Z</time>
      </trkpt>
      <trkpt lat="59.9223906" lon="17.6417716">
        <ele>23.6896</ele>
        <time>2013-05-03T15:37:38Z</time>
      </trkpt>
      <trkpt lat="59.922344" lon="17.6417788">
        <ele>23.6896</ele>
        <time>2013-05-03T15:37:39Z</time>
      </trkpt>
      <trkpt lat="59.9222965" lon="17.6417835">
        <ele>23.6896</ele>
        <time>2013-05-03T15:37:40Z</time>
      </trkpt>
      <trkpt lat="59.9222487" lon="17.6417874">
        <ele>23.6896</ele>
        <time>2013-05-03T15:37:41Z</time>
      </trkpt>
      <trkpt lat="59.9222005" lon="17.6417921">
        <ele>23.6896</ele>
        <time>2013-05-03T15:37:42Z</time>
      </trkpt>
      <trkpt lat="59.9221521" lon="17.641798">
        <ele>23.6896</ele>
        <time>2013-05-03T15:37:43Z</time>
      </trkpt>
      <trkpt lat="59.9221046" lon="17.6418037">
        <ele>23.6896</ele>
        <time>2013-05-03T15:37:44Z</time>
      </trkpt>
      <trkpt lat="59.9220565" lon="17.6418073">
        <ele>23.6896</ele>
        <time>2013-05-03T15:37:45Z</time>
      </trkpt>
      <trkpt lat="59.9220077" lon="17.641811">
        <ele>24.1703</ele>
        <time>2013-05-03T15:37:46Z</time>
      </trkpt>
      <trkpt lat="59.9219591" lon="17.6418167">
        <ele>24.1703</ele>
        <time>2013-05-03T15:37:47Z</time>
      </trkpt>
      <trkpt lat="59.9219113" lon="17.6418233">
        <ele>24.1703</ele>
        <time>2013-05-03T15:37:48Z</time>
      </trkpt>
      <trkpt lat="59.9218633" lon="17.6418284">
        <ele>24.1703</ele>
        <time>2013-05-03T15:37:49Z</time>
      </trkpt>
      <trkpt lat="59.921815" lon="17.6418357">
        <ele>24.1703</ele>
        <time>2013-05-03T15:37:50Z</time>
      </trkpt>
      <trkpt lat="59.9217663" lon="17.641843">
        <ele>24.1703</ele>
        <time>2013-05-03T15:37:51Z</time>
      </trkpt>
      <trkpt lat="59.9217172" lon="17.6418508">
        <ele>24.1703</ele>
        <time>2013-05-03T15:37:52Z</time>
      </trkpt>
      <trkpt lat="59.9216685" lon="17.6418602">
        <ele>24.1703</ele>
        <time>2013-05-03T15:37:53Z</time>
      </trkpt>
      <trkpt lat="59.9216199" lon="17.6418683">
        <ele>24.1703</ele>
        <time>2013-05-03T15:37:54Z</time>
      </trkpt>
      <trkpt lat="59.9215722" lon="17.6418736">
        <ele>24.1703</ele>
        <time>2013-05-03T15:37:55Z</time>
      </trkpt>
      <trkpt lat="59.9215254" lon="17.641876">
        <ele>24.1703</ele>
        <time>2013-05-03T15:37:56Z</time>
      </trkpt>
      <trkpt lat="59.9214774" lon="17.6418819">
        <ele>23.6896</ele>
        <time>2013-05-03T15:37:57Z</time>
      </trkpt>
      <trkpt lat="59.9214282" lon="17.641889">
        <ele>23.6896</ele>
        <time>2013-05-03T15:37:58Z</time>
      </trkpt>
      <trkpt lat="59.9213768" lon="17.6418944">
        <ele>23.6896</ele>
        <time>2013-05-03T15:37:59Z</time>
      </trkpt>
      <trkpt lat="59.9213239" lon="17.6418975">
        <ele>23.209</ele>
        <time>2013-05-03T15:38:00Z</time>
      </trkpt>
      <trkpt lat="59.9212702" lon="17.6419016">
        <ele>23.209</ele>
        <time>2013-05-03T15:38:01Z</time>
      </trkpt>
      <trkpt lat="59.9212148" lon="17.6419057">
        <ele>23.209</ele>
        <time>2013-05-03T15:38:02Z</time>
      </trkpt>
      <trkpt lat="59.9211582" lon="17.6419103">
        <ele>22.7283</ele>
        <time>2013-05-03T15:38:03Z</time>
      </trkpt>
      <trkpt lat="59.9211008" lon="17.641913">
        <ele>22.7283</ele>
        <time>2013-05-03T15:38:04Z</time>
      </trkpt>
      <trkpt lat="59.9210441" lon="17.6419125">
        <ele>22.7283</ele>
        <time>2013-05-03T15:38:05Z</time>
      </trkpt>
      <trkpt lat="59.9209897" lon="17.6419124">
        <ele>22.2476</ele>
        <time>2013-05-03T15:38:06Z</time>
      </trkpt>
      <trkpt lat="59.920935" lon="17.6419124">
        <ele>22.2476</ele>
        <time>2013-05-03T15:38:07Z</time>
      </trkpt>
      <trkpt lat="59.9208787" lon="17.6419208">
        <ele>22.2476</ele>
        <time>2013-05-03T15:38:08Z</time>
      </trkpt>
      <trkpt lat="59.920824" lon="17.641929">
        <ele>22.7283</ele>
        <time>2013-05-03T15:38:09Z</time>
      </trkpt>
      <trkpt lat="59.9207697" lon="17.6419316">
        <ele>22.7283</ele>
        <time>2013-05-03T15:38:10Z</time>
      </trkpt>
      <trkpt lat="59.920715" lon="17.6419271">
        <ele>22.7283</ele>
        <time>2013-05-03T15:38:11Z</time>
      </trkpt>
      <trkpt lat="59.9206597" lon="17.6419245">
        <ele>22.7283</ele>
        <time>2013-05-03T15:38:12Z</time>
      </trkpt>
      <trkpt lat="59.9206044" lon="17.6419213">
        <ele>22.7283</ele>
        <time>2013-05-03T15:38:13Z</time>
      </trkpt>
      <trkpt lat="59.9205494" lon="17.6419145">
        <ele>22.7283</ele>
        <time>2013-05-03T15:38:14Z</time>
      </trkpt>
      <trkpt lat="59.9204947" lon="17.641914">
        <ele>22.7283</ele>
        <time>2013-05-03T15:38:15Z</time>
      </trkpt>
      <trkpt lat="59.920442" lon="17.6419172">
        <ele>22.7283</ele>
        <time>2013-05-03T15:38:16Z</time>
      </trkpt>
      <trkpt lat="59.9203902" lon="17.6419224">
        <ele>22.7283</ele>
        <time>2013-05-03T15:38:17Z</time>
      </trkpt>
      <trkpt lat="59.9203398" lon="17.6419252">
        <ele>22.7283</ele>
        <time>2013-05-03T15:38:18Z</time>
      </trkpt>
      <trkpt lat="59.9202914" lon="17.6419299">
        <ele>23.209</ele>
        <time>2013-05-03T15:38:19Z</time>
      </trkpt>
      <trkpt lat="59.920243" lon="17.6419325">
        <ele>23.209</ele>
        <time>2013-05-03T15:38:20Z</time>
      </trkpt>
      <trkpt lat="59.9201964" lon="17.6419361">
        <ele>23.209</ele>
        <time>2013-05-03T15:38:21Z</time>
      </trkpt>
      <trkpt lat="59.9201522" lon="17.64194">
        <ele>23.209</ele>
        <time>2013-05-03T15:38:22Z</time>
      </trkpt>
      <trkpt lat="59.9201088" lon="17.6419441">
        <ele>23.209</ele>
        <time>2013-05-03T15:38:23Z</time>
      </trkpt>
      <trkpt lat="59.9200645" lon="17.6419486">
        <ele>23.209</ele>
        <time>2013-05-03T15:38:24Z</time>
      </trkpt>
      <trkpt lat="59.9200171" lon="17.6419519">
        <ele>23.209</ele>
        <time>2013-05-03T15:38:25Z</time>
      </trkpt>
      <trkpt lat="59.919968" lon="17.6419568">
        <ele>23.209</ele>
        <time>2013-05-03T15:38:26Z</time>
      </trkpt>
      <trkpt lat="59.9199191" lon="17.6419643">
        <ele>23.209</ele>
        <time>2013-05-03T15:38:27Z</time>
      </trkpt>
      <trkpt lat="59.9198704" lon="17.6419747">
        <ele>23.6896</ele>
        <time>2013-05-03T15:38:28Z</time>
      </trkpt>
      <trkpt lat="59.9198223" lon="17.6419911">
        <ele>23.6896</ele>
        <time>2013-05-03T15:38:29Z</time>
      </trkpt>
      <trkpt lat="59.9197741" lon="17.6420042">
        <ele>23.6896</ele>
        <time>2013-05-03T15:38:30Z</time>
      </trkpt>
      <trkpt lat="59.919725" lon="17.6420172">
        <ele>23.6896</ele>
        <time>2013-05-03T15:38:31Z</time>
      </trkpt>
      <trkpt lat="59.9196752" lon="17.6420297">
        <ele>24.1703</ele>
        <time>2013-05-03T15:38:32Z</time>
      </trkpt>
      <trkpt lat="59.9196256" lon="17.6420397">
        <ele>24.1703</ele>
        <time>2013-05-03T15:38:33Z</time>
      </trkpt>
      <trkpt lat="59.9195764" lon="17.6420471">
        <ele>24.1703</ele>
        <time>2013-05-03T15:38:34Z</time>
      </trkpt>
      <trkpt lat="59.9195264" lon="17.6420518">
        <ele>24.1703</ele>
        <time>2013-05-03T15:38:35Z</time>
      </trkpt>
      <trkpt lat="59.9194758" lon="17.642057">
        <ele>24.1703</ele>
        <time>2013-05-03T15:38:36Z</time>
      </trkpt>
      <trkpt lat="59.9194254" lon="17.6420631">
        <ele>24.1703</ele>
        <time>2013-05-03T15:38:37Z</time>
      </trkpt>
      <trkpt lat="59.9193749" lon="17.642067">
        <ele>24.1703</ele>
        <time>2013-05-03T15:38:38Z</time>
      </trkpt>
      <trkpt lat="59.9193241" lon="17.6420705">
        <ele>24.1703</ele>
        <time>2013-05-03T15:38:39Z</time>
      </trkpt>
      <trkpt lat="59.9192727" lon="17.6420756">
        <ele>24.651</ele>
        <time>2013-05-03T15:38:40Z</time>
      </trkpt>
      <trkpt lat="59.9192212" lon="17.6420832">
        <ele>24.651</ele>
        <time>2013-05-03T15:38:41Z</time>
      </trkpt>
      <trkpt lat="59.9191702" lon="17.6420908">
        <ele>24.651</ele>
        <time>2013-05-03T15:38:42Z</time>
      </trkpt>
      <trkpt lat="59.9191194" lon="17.6420975">
        <ele>24.651</ele>
        <time>2013-05-03T15:38:43Z</time>
      </trkpt>
      <trkpt lat="59.919069" lon="17.6421045">
        <ele>24.651</ele>
        <time>2013-05-03T15:38:44Z</time>
      </trkpt>
      <trkpt lat="59.9190192" lon="17.6421112">
        <ele>24.651</ele>
        <time>2013-05-03T15:38:45Z</time>
      </trkpt>
      <trkpt lat="59.9189691" lon="17.642118">
        <ele>24.651</ele>
        <time>2013-05-03T15:38:46Z</time>
      </trkpt>
      <trkpt lat="59.9189179" lon="17.6421255">
        <ele>24.651</ele>
        <time>2013-05-03T15:38:47Z</time>
      </trkpt>
      <trkpt lat="59.9188665" lon="17.6421331">
        <ele>24.651</ele>
        <time>2013-05-03T15:38:48Z</time>
      </trkpt>
      <trkpt lat="59.9188151" lon="17.6421416">
        <ele>24.651</ele>
        <time>2013-05-03T15:38:49Z</time>
      </trkpt>
      <trkpt lat="59.9187638" lon="17.6421492">
        <ele>24.651</ele>
        <time>2013-05-03T15:38:50Z</time>
      </trkpt>
      <trkpt lat="59.9187132" lon="17.6421563">
        <ele>24.651</ele>
        <time>2013-05-03T15:38:51Z</time>
      </trkpt>
      <trkpt lat="59.9186641" lon="17.6421644">
        <ele>24.651</ele>
        <time>2013-05-03T15:38:52Z</time>
      </trkpt>
      <trkpt lat="59.9186157" lon="17.6421715">
        <ele>24.651</ele>
        <time>2013-05-03T15:38:53Z</time>
      </trkpt>
      <trkpt lat="59.9185667" lon="17.6421772">
        <ele>24.651</ele>
        <time>2013-05-03T15:38:54Z</time>
      </trkpt>
      <trkpt lat="59.918518" lon="17.6421823">
        <ele>24.651</ele>
        <time>2013-05-03T15:38:55Z</time>
      </trkpt>
      <trkpt lat="59.9184698" lon="17.6421906">
        <ele>24.651</ele>
        <time>2013-05-03T15:38:56Z</time>
      </trkpt>
      <trkpt lat="59.9184215" lon="17.6421973">
        <ele>24.651</ele>
        <time>2013-05-03T15:38:57Z</time>
      </trkpt>
      <trkpt lat="59.9183719" lon="17.642203">
        <ele>24.651</ele>
        <time>2013-05-03T15:38:58Z</time>
      </trkpt>
      <trkpt lat="59.91832" lon="17.6422114">
        <ele>24.651</ele>
        <time>2013-05-03T15:38:59Z</time>
      </trkpt>
      <trkpt lat="59.9182674" lon="17.6422193">
        <ele>24.651</ele>
        <time>2013-05-03T15:39:00Z</time>
      </trkpt>
      <trkpt lat="59.9182138" lon="17.6422267">
        <ele>24.651</ele>
        <time>2013-05-03T15:39:01Z</time>
      </trkpt>
      <trkpt lat="59.9181583" lon="17.6422345">
        <ele>24.651</ele>
        <time>2013-05-03T15:39:02Z</time>
      </trkpt>
      <trkpt lat="59.9181015" lon="17.6422394">
        <ele>24.651</ele>
        <time>2013-05-03T15:39:03Z</time>
      </trkpt>
      <trkpt lat="59.9180438" lon="17.642245">
        <ele>24.1703</ele>
        <time>2013-05-03T15:39:04Z</time>
      </trkpt>
      <trkpt lat="59.9179853" lon="17.6422513">
        <ele>24.1703</ele>
        <time>2013-05-03T15:39:05Z</time>
      </trkpt>
      <trkpt lat="59.9179267" lon="17.6422557">
        <ele>24.1703</ele>
        <time>2013-05-03T15:39:06Z</time>
      </trkpt>
      <trkpt lat="59.9178688" lon="17.6422606">
        <ele>24.1703</ele>
        <time>2013-05-03T15:39:07Z</time>
      </trkpt>
      <trkpt lat="59.9178115" lon="17.6422668">
        <ele>24.1703</ele>
        <time>2013-05-03T15:39:08Z</time>
      </trkpt>
      <trkpt lat="59.917754" lon="17.6422718">
        <ele>24.1703</ele>
        <time>2013-05-03T15:39:09Z</time>
      </trkpt>
      <trkpt lat="59.9176975" lon="17.6422749">
        <ele>24.1703</ele>
        <time>2013-05-03T15:39:10Z</time>
      </trkpt>
      <trkpt lat="59.9176414" lon="17.6422766">
        <ele>24.1703</ele>
        <time>2013-05-03T15:39:11Z</time>
      </trkpt>
      <trkpt lat="59.917586" lon="17.6422755">
        <ele>24.1703</ele>
        <time>2013-05-03T15:39:12Z</time>
      </trkpt>
      <trkpt lat="59.9175316" lon="17.6422759">
        <ele>24.1703</ele>
        <time>2013-05-03T15:39:13Z</time>
      </trkpt>
      <trkpt lat="59.9174783" lon="17.6422791">
        <ele>24.1703</ele>
        <time>2013-05-03T15:39:14Z</time>
      </trkpt>
      <trkpt lat="59.9174264" lon="17.642285">
        <ele>24.1703</ele>
        <time>2013-05-03T15:39:15Z</time>
      </trkpt>
      <trkpt lat="59.9173753" lon="17.64229">
        <ele>23.6896</ele>
        <time>2013-05-03T15:39:16Z</time>
      </trkpt>
      <trkpt lat="59.9173253" lon="17.6422892">
        <ele>23.6896</ele>
        <time>2013-05-03T15:39:17Z</time>
      </trkpt>
      <trkpt lat="59.9172745" lon="17.6422842">
        <ele>23.6896</ele>
        <time>2013-05-03T15:39:18Z</time>
      </trkpt>
      <trkpt lat="59.9172235" lon="17.6422786">
        <ele>23.6896</ele>
        <time>2013-05-03T15:39:19Z</time>
      </trkpt>
      <trkpt lat="59.9171722" lon="17.6422765">
        <ele>23.6896</ele>
        <time>2013-05-03T15:39:20Z</time>
      </trkpt>
      <trkpt lat="59.9171215" lon="17.6422855">
        <ele>24.1703</ele>
        <time>2013-05-03T15:39:21Z</time>
      </trkpt>
      <trkpt lat="59.9170731" lon="17.642304">
        <ele>24.1703</ele>
        <time>2013-05-03T15:39:22Z</time>
      </trkpt>
      <trkpt lat="59.9170256" lon="17.6423231">
        <ele>24.1703</ele>
        <time>2013-05-03T15:39:23Z</time>
      </trkpt>
      <trkpt lat="59.91698" lon="17.6423386">
        <ele>24.1703</ele>
        <time>2013-05-03T15:39:24Z</time>
      </trkpt>
      <trkpt lat="59.916935" lon="17.6423484">
        <ele>24.1703</ele>
        <time>2013-05-03T15:39:25Z</time>
      </trkpt>
      <trkpt lat="59.91689" lon="17.642355">
        <ele>24.651</ele>
        <time>2013-05-03T15:39:26Z</time>
      </trkpt>
      <trkpt lat="59.9168451" lon="17.642362">
        <ele>24.651</ele>
        <time>2013-05-03T15:39:27Z</time>
      </trkpt>
      <trkpt lat="59.9168001" lon="17.6423709">
        <ele>24.651</ele>
        <time>2013-05-03T15:39:28Z</time>
      </trkpt>
      <trkpt lat="59.9167555" lon="17.6423787">
        <ele>24.651</ele>
        <time>2013-05-03T15:39:29Z</time>
      </trkpt>
      <trkpt lat="59.9167116" lon="17.6423844">
        <ele>24.651</ele>
        <time>2013-05-03T15:39:30Z</time>
      </trkpt>
      <trkpt lat="59.9166687" lon="17.6423895">
        <ele>25.1317</ele>
        <time>2013-05-03T15:39:31Z</time>
      </trkpt>
      <trkpt lat="59.9166267" lon="17.6423942">
        <ele>25.1317</ele>
        <time>2013-05-03T15:39:32Z</time>
      </trkpt>
      <trkpt lat="59.9165849" lon="17.6423999">
        <ele>25.1317</ele>
        <time>2013-05-03T15:39:33Z</time>
      </trkpt>
      <trkpt lat="59.9165433" lon="17.6424072">
        <ele>25.1317</ele>
        <time>2013-05-03T15:39:34Z</time>
      </trkpt>
      <trkpt lat="59.9165012" lon="17.6424149">
        <ele>25.1317</ele>
        <time>2013-05-03T15:39:35Z</time>
      </trkpt>
      <trkpt lat="59.916458" lon="17.6424216">
        <ele>25.1317</ele>
        <time>2013-05-03T15:39:36Z</time>
      </trkpt>
      <trkpt lat="59.9164144" lon="17.6424298">
        <ele>25.6123</ele>
        <time>2013-05-03T15:39:37Z</time>
      </trkpt>
      <trkpt lat="59.9163703" lon="17.6424394">
        <ele>25.6123</ele>
        <time>2013-05-03T15:39:38Z</time>
      </trkpt>
      <trkpt lat="59.9163256" lon="17.6424477">
        <ele>25.6123</ele>
        <time>2013-05-03T15:39:39Z</time>
      </trkpt>
      <trkpt lat="59.9162813" lon="17.6424548">
        <ele>25.6123</ele>
        <time>2013-05-03T15:39:40Z</time>
      </trkpt>
      <trkpt lat="59.9162377" lon="17.6424626">
        <ele>25.6123</ele>
        <time>2013-05-03T15:39:41Z</time>
      </trkpt>
      <trkpt lat="59.9161927" lon="17.6424694">
        <ele>25.6123</ele>
        <time>2013-05-03T15:39:42Z</time>
      </trkpt>
      <trkpt lat="59.9161465" lon="17.6424735">
        <ele>25.6123</ele>
        <time>2013-05-03T15:39:43Z</time>
      </trkpt>
      <trkpt lat="59.9160983" lon="17.6424721">
        <ele>25.6123</ele>
        <time>2013-05-03T15:39:44Z</time>
      </trkpt>
      <trkpt lat="59.9160481" lon="17.6424689">
        <ele>25.6123</ele>
        <time>2013-05-03T15:39:45Z</time>
      </trkpt>
      <trkpt lat="59.9159977" lon="17.6424662">
        <ele>25.6123</ele>
        <time>2013-05-03T15:39:46Z</time>
      </trkpt>
      <trkpt lat="59.9159461" lon="17.6424657">
        <ele>25.6123</ele>
        <time>2013-05-03T15:39:47Z</time>
      </trkpt>
      <trkpt lat="59.9158948" lon="17.6424651">
        <ele>25.6123</ele>
        <time>2013-05-03T15:39:48Z</time>
      </trkpt>
      <trkpt lat="59.9158425" lon="17.6424655">
        <ele>25.6123</ele>
        <time>2013-05-03T15:39:49Z</time>
      </trkpt>
      <trkpt lat="59.9157902" lon="17.6424678">
        <ele>25.1317</ele>
        <time>2013-05-03T15:39:50Z</time>
      </trkpt>
      <trkpt lat="59.9157383" lon="17.6424679">
        <ele>25.1317</ele>
        <time>2013-05-03T15:39:51Z</time>
      </trkpt>
      <trkpt lat="59.915686" lon="17.6424692">
        <ele>25.1317</ele>
        <time>2013-05-03T15:39:52Z</time>
      </trkpt>
      <trkpt lat="59.9156347" lon="17.6424757">
        <ele>24.651</ele>
        <time>2013-05-03T15:39:53Z</time>
      </trkpt>
      <trkpt lat="59.9155845" lon="17.6424854">
        <ele>24.651</ele>
        <time>2013-05-03T15:39:54Z</time>
      </trkpt>
      <trkpt lat="59.9155343" lon="17.6424936">
        <ele>24.651</ele>
        <time>2013-05-03T15:39:55Z</time>
      </trkpt>
      <trkpt lat="59.9154855" lon="17.642501">
        <ele>24.651</ele>
        <time>2013-05-03T15:39:56Z</time>
      </trkpt>
      <trkpt lat="59.9154379" lon="17.6425102">
        <ele>24.651</ele>
        <time>2013-05-03T15:39:57Z</time>
      </trkpt>
      <trkpt lat="59.9153912" lon="17.6425211">
        <ele>24.651</ele>
        <time>2013-05-03T15:39:58Z</time>
      </trkpt>
      <trkpt lat="59.9153455" lon="17.6425346">
        <ele>24.1703</ele>
        <time>2013-05-03T15:39:59Z</time>
      </trkpt>
      <trkpt lat="59.9153014" lon="17.6425564">
        <ele>24.1703</ele>
        <time>2013-05-03T15:40:00Z</time>
      </trkpt>
      <trkpt lat="59.9152598" lon="17.6425857">
        <ele>24.1703</ele>
        <time>2013-05-03T15:40:01Z</time>
      </trkpt>
      <trkpt lat="59.9152234" lon="17.6426108">
        <ele>24.1703</ele>
        <time>2013-05-03T15:40:02Z</time>
      </trkpt>
      <trkpt lat="59.9151961" lon="17.6426347">
        <ele>24.1703</ele>
        <time>2013-05-03T15:40:03Z</time>
      </trkpt>
      <trkpt lat="59.9151666" lon="17.6426591">
        <ele>24.1703</ele>
        <time>2013-05-03T15:40:04Z</time>
      </trkpt>
      <trkpt lat="59.9151324" lon="17.6426764">
        <ele>24.1703</ele>
        <time>2013-05-03T15:40:05Z</time>
      </trkpt>
      <trkpt lat="59.9150964" lon="17.642685">
        <ele>24.1703</ele>
        <time>2013-05-03T15:40:06Z</time>
      </trkpt>
      <trkpt lat="59.9150573" lon="17.6426914">
        <ele>24.651</ele>
        <time>2013-05-03T15:40:07Z</time>
      </trkpt>
      <trkpt lat="59.9150156" lon="17.6426931">
        <ele>24.651</ele>
        <time>2013-05-03T15:40:08Z</time>
      </trkpt>
      <trkpt lat="59.9149746" lon="17.6426956">
        <ele>24.651</ele>
        <time>2013-05-03T15:40:09Z</time>
      </trkpt>
      <trkpt lat="59.9149348" lon="17.6427017">
        <ele>24.1703</ele>
        <time>2013-05-03T15:40:10Z</time>
      </trkpt>
      <trkpt lat="59.9148976" lon="17.6427112">
        <ele>24.1703</ele>
        <time>2013-05-03T15:40:11Z</time>
      </trkpt>
      <trkpt lat="59.9148619" lon="17.6427206">
        <ele>23.6896</ele>
        <time>2013-05-03T15:40:12Z</time>
      </trkpt>
      <trkpt lat="59.9148251" lon="17.6427324">
        <ele>23.6896</ele>
        <time>2013-05-03T15:40:13Z</time>
      </trkpt>
      <trkpt lat="59.9147871" lon="17.6427391">
        <ele>23.209</ele>
        <time>2013-05-03T15:40:14Z</time>
      </trkpt>
      <trkpt lat="59.9147474" lon="17.6427461">
        <ele>23.209</ele>
        <time>2013-05-03T15:40:15Z</time>
      </trkpt>
      <trkpt lat="59.9147061" lon="17.6427587">
        <ele>23.209</ele>
        <time>2013-05-03T15:40:16Z</time>
      </trkpt>
      <trkpt lat="59.9146634" lon="17.6427687">
        <ele>22.7283</ele>
        <time>2013-05-03T15:40:17Z</time>
      </trkpt>
      <trkpt lat="59.914622" lon="17.6427745">
        <ele>22.2476</ele>
        <time>2013-05-03T15:40:18Z</time>
      </trkpt>
      <trkpt lat="59.9145814" lon="17.6427796">
        <ele>22.2476</ele>
        <time>2013-05-03T15:40:19Z</time>
      </trkpt>
      <trkpt lat="59.9145416" lon="17.6427847">
        <ele>22.2476</ele>
        <time>2013-05-03T15:40:20Z</time>
      </trkpt>
      <trkpt lat="59.9145018" lon="17.6427905">
        <ele>22.2476</ele>
        <time>2013-05-03T15:40:21Z</time>
      </trkpt>
      <trkpt lat="59.9144625" lon="17.6427983">
        <ele>22.2476</ele>
        <time>2013-05-03T15:40:22Z</time>
      </trkpt>
      <trkpt lat="59.9144236" lon="17.6428055">
        <ele>21.767</ele>
        <time>2013-05-03T15:40:23Z</time>
      </trkpt>
      <trkpt lat="59.9143852" lon="17.6428106">
        <ele>21.767</ele>
        <time>2013-05-03T15:40:24Z</time>
      </trkpt>
      <trkpt lat="59.9143459" lon="17.6428126">
        <ele>21.2864</ele>
        <time>2013-05-03T15:40:25Z</time>
      </trkpt>
      <trkpt lat="59.914309" lon="17.642819">
        <ele>20.8057</ele>
        <time>2013-05-03T15:40:26Z</time>
      </trkpt>
      <trkpt lat="59.9142716" lon="17.6428259">
        <ele>20.8057</ele>
        <time>2013-05-03T15:40:27Z</time>
      </trkpt>
      <trkpt lat="59.9142325" lon="17.6428335">
        <ele>20.8057</ele>
        <time>2013-05-03T15:40:28Z</time>
      </trkpt>
      <trkpt lat="59.9141936" lon="17.6428428">
        <ele>20.325</ele>
        <time>2013-05-03T15:40:29Z</time>
      </trkpt>
      <trkpt lat="59.9141548" lon="17.6428515">
        <ele>19.8444</ele>
        <time>2013-05-03T15:40:30Z</time>
      </trkpt>
      <trkpt lat="59.9141159" lon="17.6428595">
        <ele>19.3638</ele>
        <time>2013-05-03T15:40:31Z</time>
      </trkpt>
      <trkpt lat="59.9140776" lon="17.6428683">
        <ele>19.3638</ele>
        <time>2013-05-03T15:40:32Z</time>
      </trkpt>
      <trkpt lat="59.9140416" lon="17.6428766">
        <ele>18.8831</ele>
        <time>2013-05-03T15:40:33Z</time>
      </trkpt>
      <trkpt lat="59.9140046" lon="17.6428806">
        <ele>18.4023</ele>
        <time>2013-05-03T15:40:34Z</time>
      </trkpt>
      <trkpt lat="59.9139653" lon="17.642883">
        <ele>18.8831</ele>
        <time>2013-05-03T15:40:35Z</time>
      </trkpt>
      <trkpt lat="59.9139242" lon="17.6428883">
        <ele>18.4023</ele>
        <time>2013-05-03T15:40:36Z</time>
      </trkpt>
      <trkpt lat="59.9138828" lon="17.6428945">
        <ele>18.4023</ele>
        <time>2013-05-03T15:40:37Z</time>
      </trkpt>
      <trkpt lat="59.9138415" lon="17.6429012">
        <ele>18.4023</ele>
        <time>2013-05-03T15:40:38Z</time>
      </trkpt>
      <trkpt lat="59.9138014" lon="17.6429066">
        <ele>17.9218</ele>
        <time>2013-05-03T15:40:39Z</time>
      </trkpt>
      <trkpt lat="59.9137616" lon="17.6429159">
        <ele>17.9218</ele>
        <time>2013-05-03T15:40:40Z</time>
      </trkpt>
      <trkpt lat="59.913721" lon="17.6429255">
        <ele>17.4412</ele>
        <time>2013-05-03T15:40:41Z</time>
      </trkpt>
      <trkpt lat="59.9136808" lon="17.6429375">
        <ele>17.4412</ele>
        <time>2013-05-03T15:40:42Z</time>
      </trkpt>
      <trkpt lat="59.9136377" lon="17.6429501">
        <ele>17.4412</ele>
        <time>2013-05-03T15:40:43Z</time>
      </trkpt>
      <trkpt lat="59.9135936" lon="17.6429582">
        <ele>17.4412</ele>
        <time>2013-05-03T15:40:44Z</time>
      </trkpt>
      <trkpt lat="59.9135487" lon="17.6429665">
        <ele>17.9218</ele>
        <time>2013-05-03T15:40:45Z</time>
      </trkpt>
      <trkpt lat="59.9135035" lon="17.6429775">
        <ele>18.4023</ele>
        <time>2013-05-03T15:40:46Z</time>
      </trkpt>
      <trkpt lat="59.91346" lon="17.6429841">
        <ele>18.4023</ele>
        <time>2013-05-03T15:40:47Z</time>
      </trkpt>
      <trkpt lat="59.9134156" lon="17.6429936">
        <ele>18.4023</ele>
        <time>2013-05-03T15:40:48Z</time>
      </trkpt>
      <trkpt lat="59.913371" lon="17.6430008">
        <ele>17.9218</ele>
        <time>2013-05-03T15:40:49Z</time>
      </trkpt>
      <trkpt lat="59.9133306" lon="17.6430138">
        <ele>17.9218</ele>
        <time>2013-05-03T15:40:50Z</time>
      </trkpt>
      <trkpt lat="59.9132914" lon="17.6430335">
        <ele>17.4412</ele>
        <time>2013-05-03T15:40:51Z</time>
      </trkpt>
      <trkpt lat="59.9132387" lon="17.6430258">
        <ele>17.4412</ele>
        <time>2013-05-03T15:40:52Z</time>
      </trkpt>
      <trkpt lat="59.9131861" lon="17.6430272">
        <ele>17.4412</ele>
        <time>2013-05-03T15:40:53Z</time>
      </trkpt>
      <trkpt lat="59.9131367" lon="17.6430329">
        <ele>17.4412</ele>
        <time>2013-05-03T15:40:54Z</time>
      </trkpt>
      <trkpt lat="59.913086" lon="17.6430447">
        <ele>17.4412</ele>
        <time>2013-05-03T15:40:55Z</time>
      </trkpt>
      <trkpt lat="59.9130404" lon="17.6430457">
        <ele>16.9604</ele>
        <time>2013-05-03T15:40:56Z</time>
      </trkpt>
      <trkpt lat="59.9129953" lon="17.6430552">
        <ele>17.4412</ele>
        <time>2013-05-03T15:40:57Z</time>
      </trkpt>
      <trkpt lat="59.9129565" lon="17.6430774">
        <ele>17.9218</ele>
        <time>2013-05-03T15:40:58Z</time>
      </trkpt>
      <trkpt lat="59.9129184" lon="17.6430973">
        <ele>17.9218</ele>
        <time>2013-05-03T15:40:59Z</time>
      </trkpt>
      <trkpt lat="59.9128759" lon="17.6431028">
        <ele>17.4412</ele>
        <time>2013-05-03T15:41:00Z</time>
      </trkpt>
      <trkpt lat="59.9128362" lon="17.6431151">
        <ele>17.9218</ele>
        <time>2013-05-03T15:41:01Z</time>
      </trkpt>
      <trkpt lat="59.912796" lon="17.6431214">
        <ele>17.4412</ele>
        <time>2013-05-03T15:41:02Z</time>
      </trkpt>
      <trkpt lat="59.912757" lon="17.6431226">
        <ele>17.4412</ele>
        <time>2013-05-03T15:41:03Z</time>
      </trkpt>
      <trkpt lat="59.9127168" lon="17.6431162">
        <ele>17.4412</ele>
        <time>2013-05-03T15:41:04Z</time>
      </trkpt>
      <trkpt lat="59.9126753" lon="17.6430941">
        <ele>16.4797</ele>
        <time>2013-05-03T15:41:05Z</time>
      </trkpt>
      <trkpt lat="59.9126303" lon="17.6430619">
        <ele>15.5184</ele>
        <time>2013-05-03T15:41:06Z</time>
      </trkpt>
      <trkpt lat="59.9125768" lon="17.6430345">
        <ele>15.999</ele>
        <time>2013-05-03T15:41:07Z</time>
      </trkpt>
      <trkpt lat="59.9125163" lon="17.6430196">
        <ele>15.999</ele>
        <time>2013-05-03T15:41:08Z</time>
      </trkpt>
      <trkpt lat="59.912454" lon="17.6430159">
        <ele>15.999</ele>
        <time>2013-05-03T15:41:09Z</time>
      </trkpt>
      <trkpt lat="59.9123911" lon="17.6430231">
        <ele>15.999</ele>
        <time>2013-05-03T15:41:10Z</time>
      </trkpt>
      <trkpt lat="59.9123283" lon="17.6430397">
        <ele>15.999</ele>
        <time>2013-05-03T15:41:11Z</time>
      </trkpt>
      <trkpt lat="59.9122597" lon="17.6430568">
        <ele>15.999</ele>
        <time>2013-05-03T15:41:12Z</time>
      </trkpt>
      <trkpt lat="59.9121879" lon="17.6430761">
        <ele>16.4797</ele>
        <time>2013-05-03T15:41:13Z</time>
      </trkpt>
      <trkpt lat="59.9121183" lon="17.643106">
        <ele>16.4797</ele>
        <time>2013-05-03T15:41:14Z</time>
      </trkpt>
      <trkpt lat="59.9120399" lon="17.6431355">
        <ele>16.9604</ele>
        <time>2013-05-03T15:41:15Z</time>
      </trkpt>
      <trkpt lat="59.9119646" lon="17.643164">
        <ele>16.9604</ele>
        <time>2013-05-03T15:41:16Z</time>
      </trkpt>
      <trkpt lat="59.911888" lon="17.6431946">
        <ele>17.4412</ele>
        <time>2013-05-03T15:41:17Z</time>
      </trkpt>
      <trkpt lat="59.9118122" lon="17.643212">
        <ele>17.9218</ele>
        <time>2013-05-03T15:41:18Z</time>
      </trkpt>
      <trkpt lat="59.9117331" lon="17.6432267">
        <ele>17.9218</ele>
        <time>2013-05-03T15:41:19Z</time>
      </trkpt>
      <trkpt lat="59.9116497" lon="17.643243">
        <ele>18.4023</ele>
        <time>2013-05-03T15:41:20Z</time>
      </trkpt>
      <trkpt lat="59.9115643" lon="17.6432534">
        <ele>18.4023</ele>
        <time>2013-05-03T15:41:21Z</time>
      </trkpt>
      <trkpt lat="59.9114671" lon="17.6432628">
        <ele>18.4023</ele>
        <time>2013-05-03T15:41:22Z</time>
      </trkpt>
      <trkpt lat="59.9113807" lon="17.6432758">
        <ele>18.8831</ele>
        <time>2013-05-03T15:41:23Z</time>
      </trkpt>
      <trkpt lat="59.9112955" lon="17.6432987">
        <ele>18.8831</ele>
        <time>2013-05-03T15:41:24Z</time>
      </trkpt>
      <trkpt lat="59.9112135" lon="17.6433246">
        <ele>19.3638</ele>
        <time>2013-05-03T15:41:25Z</time>
      </trkpt>
      <trkpt lat="59.9111344" lon="17.6433473">
        <ele>19.3638</ele>
        <time>2013-05-03T15:41:26Z</time>
      </trkpt>
      <trkpt lat="59.9110566" lon="17.643366">
        <ele>19.3638</ele>
        <time>2013-05-03T15:41:27Z</time>
      </trkpt>
      <trkpt lat="59.9109802" lon="17.643385">
        <ele>19.3638</ele>
        <time>2013-05-03T15:41:28Z</time>
      </trkpt>
      <trkpt lat="59.9109066" lon="17.6434078">
        <ele>19.3638</ele>
        <time>2013-05-03T15:41:29Z</time>
      </trkpt>
      <trkpt lat="59.9108315" lon="17.6434249">
        <ele>19.8444</ele>
        <time>2013-05-03T15:41:30Z</time>
      </trkpt>
      <trkpt lat="59.9107588" lon="17.6434456">
        <ele>19.8444</ele>
        <time>2013-05-03T15:41:31Z</time>
      </trkpt>
      <trkpt lat="59.9106865" lon="17.6434654">
        <ele>20.325</ele>
        <time>2013-05-03T15:41:32Z</time>
      </trkpt>
      <trkpt lat="59.9106145" lon="17.6434862">
        <ele>20.325</ele>
        <time>2013-05-03T15:41:33Z</time>
      </trkpt>
      <trkpt lat="59.9105432" lon="17.6435142">
        <ele>20.325</ele>
        <time>2013-05-03T15:41:34Z</time>
      </trkpt>
      <trkpt lat="59.9104773" lon="17.6435494">
        <ele>20.8057</ele>
        <time>2013-05-03T15:41:35Z</time>
      </trkpt>
      <trkpt lat="59.9104094" lon="17.6435798">
        <ele>20.8057</ele>
        <time>2013-05-03T15:41:36Z</time>
      </trkpt>
      <trkpt lat="59.9103434" lon="17.6436036">
        <ele>21.2864</ele>
        <time>2013-05-03T15:41:37Z</time>
      </trkpt>
      <trkpt lat="59.9102795" lon="17.6436197">
        <ele>21.2864</ele>
        <time>2013-05-03T15:41:38Z</time>
      </trkpt>
      <trkpt lat="59.9102168" lon="17.6436318">
        <ele>21.2864</ele>
        <time>2013-05-03T15:41:39Z</time>
      </trkpt>
      <trkpt lat="59.9101551" lon="17.6436414">
        <ele>21.2864</ele>
        <time>2013-05-03T15:41:40Z</time>
      </trkpt>
      <trkpt lat="59.9100941" lon="17.6436455">
        <ele>21.2864</ele>
        <time>2013-05-03T15:41:41Z</time>
      </trkpt>
      <trkpt lat="59.9100345" lon="17.6436375">
        <ele>21.2864</ele>
        <time>2013-05-03T15:41:42Z</time>
      </trkpt>
      <trkpt lat="59.9099724" lon="17.6436179">
        <ele>20.8057</ele>
        <time>2013-05-03T15:41:43Z</time>
      </trkpt>
      <trkpt lat="59.9099066" lon="17.6435966">
        <ele>20.325</ele>
        <time>2013-05-03T15:41:44Z</time>
      </trkpt>
      <trkpt lat="59.9098392" lon="17.6435682">
        <ele>20.325</ele>
        <time>2013-05-03T15:41:45Z</time>
      </trkpt>
      <trkpt lat="59.9097722" lon="17.6435499">
        <ele>20.325</ele>
        <time>2013-05-03T15:41:46Z</time>
      </trkpt>
      <trkpt lat="59.9097057" lon="17.6435511">
        <ele>20.325</ele>
        <time>2013-05-03T15:41:47Z</time>
      </trkpt>
      <trkpt lat="59.9096403" lon="17.6435624">
        <ele>20.325</ele>
        <time>2013-05-03T15:41:48Z</time>
      </trkpt>
      <trkpt lat="59.9095765" lon="17.6435763">
        <ele>20.325</ele>
        <time>2013-05-03T15:41:49Z</time>
      </trkpt>
      <trkpt lat="59.9095139" lon="17.6435929">
        <ele>20.325</ele>
        <time>2013-05-03T15:41:50Z</time>
      </trkpt>
      <trkpt lat="59.9094526" lon="17.6436091">
        <ele>20.325</ele>
        <time>2013-05-03T15:41:51Z</time>
      </trkpt>
      <trkpt lat="59.9093922" lon="17.6436245">
        <ele>20.325</ele>
        <time>2013-05-03T15:41:52Z</time>
      </trkpt>
      <trkpt lat="59.9093333" lon="17.6436422">
        <ele>20.325</ele>
        <time>2013-05-03T15:41:53Z</time>
      </trkpt>
      <trkpt lat="59.9092742" lon="17.6436608">
        <ele>20.8057</ele>
        <time>2013-05-03T15:41:54Z</time>
      </trkpt>
      <trkpt lat="59.9092145" lon="17.6436746">
        <ele>20.8057</ele>
        <time>2013-05-03T15:41:55Z</time>
      </trkpt>
      <trkpt lat="59.9091551" lon="17.6436872">
        <ele>20.8057</ele>
        <time>2013-05-03T15:41:56Z</time>
      </trkpt>
      <trkpt lat="59.9090959" lon="17.6436986">
        <ele>20.8057</ele>
        <time>2013-05-03T15:41:57Z</time>
      </trkpt>
      <trkpt lat="59.9090354" lon="17.6437053">
        <ele>20.8057</ele>
        <time>2013-05-03T15:41:58Z</time>
      </trkpt>
      <trkpt lat="59.9089742" lon="17.6437101">
        <ele>20.8057</ele>
        <time>2013-05-03T15:41:59Z</time>
      </trkpt>
      <trkpt lat="59.9089118" lon="17.6437153">
        <ele>20.8057</ele>
        <time>2013-05-03T15:42:00Z</time>
      </trkpt>
      <trkpt lat="59.9088474" lon="17.6437213">
        <ele>20.8057</ele>
        <time>2013-05-03T15:42:01Z</time>
      </trkpt>
      <trkpt lat="59.9087825" lon="17.6437302">
        <ele>20.8057</ele>
        <time>2013-05-03T15:42:02Z</time>
      </trkpt>
      <trkpt lat="59.9087177" lon="17.6437391">
        <ele>20.8057</ele>
        <time>2013-05-03T15:42:03Z</time>
      </trkpt>
      <trkpt lat="59.9086557" lon="17.6437447">
        <ele>21.2864</ele>
        <time>2013-05-03T15:42:04Z</time>
      </trkpt>
      <trkpt lat="59.9085955" lon="17.6437478">
        <ele>21.2864</ele>
        <time>2013-05-03T15:42:05Z</time>
      </trkpt>
      <trkpt lat="59.9085352" lon="17.6437488">
        <ele>21.2864</ele>
        <time>2013-05-03T15:42:06Z</time>
      </trkpt>
      <trkpt lat="59.9084743" lon="17.6437479">
        <ele>21.2864</ele>
        <time>2013-05-03T15:42:07Z</time>
      </trkpt>
      <trkpt lat="59.9084158" lon="17.6437446">
        <ele>21.2864</ele>
        <time>2013-05-03T15:42:08Z</time>
      </trkpt>
      <trkpt lat="59.9083623" lon="17.6437473">
        <ele>21.767</ele>
        <time>2013-05-03T15:42:09Z</time>
      </trkpt>
      <trkpt lat="59.9083121" lon="17.6437702">
        <ele>22.2476</ele>
        <time>2013-05-03T15:42:10Z</time>
      </trkpt>
      <trkpt lat="59.908264" lon="17.6438068">
        <ele>22.2476</ele>
        <time>2013-05-03T15:42:11Z</time>
      </trkpt>
      <trkpt lat="59.9082148" lon="17.6438394">
        <ele>22.2476</ele>
        <time>2013-05-03T15:42:12Z</time>
      </trkpt>
      <trkpt lat="59.9081613" lon="17.6438561">
        <ele>22.2476</ele>
        <time>2013-05-03T15:42:13Z</time>
      </trkpt>
      <trkpt lat="59.9081059" lon="17.6438613">
        <ele>22.2476</ele>
        <time>2013-05-03T15:42:14Z</time>
      </trkpt>
      <trkpt lat="59.9080521" lon="17.643865">
        <ele>22.2476</ele>
        <time>2013-05-03T15:42:15Z</time>
      </trkpt>
      <trkpt lat="59.9079992" lon="17.6438653">
        <ele>22.2476</ele>
        <time>2013-05-03T15:42:16Z</time>
      </trkpt>
      <trkpt lat="59.9079445" lon="17.6438633">
        <ele>22.2476</ele>
        <time>2013-05-03T15:42:17Z</time>
      </trkpt>
      <trkpt lat="59.9078887" lon="17.6438641">
        <ele>21.767</ele>
        <time>2013-05-03T15:42:18Z</time>
      </trkpt>
      <trkpt lat="59.9078324" lon="17.6438736">
        <ele>21.767</ele>
        <time>2013-05-03T15:42:19Z</time>
      </trkpt>
      <trkpt lat="59.907775" lon="17.6438843">
        <ele>21.767</ele>
        <time>2013-05-03T15:42:20Z</time>
      </trkpt>
      <trkpt lat="59.9077169" lon="17.6438857">
        <ele>21.767</ele>
        <time>2013-05-03T15:42:21Z</time>
      </trkpt>
      <trkpt lat="59.9076584" lon="17.6438814">
        <ele>21.2864</ele>
        <time>2013-05-03T15:42:22Z</time>
      </trkpt>
      <trkpt lat="59.9075999" lon="17.6438771">
        <ele>21.2864</ele>
        <time>2013-05-03T15:42:23Z</time>
      </trkpt>
      <trkpt lat="59.9075413" lon="17.6438756">
        <ele>21.2864</ele>
        <time>2013-05-03T15:42:24Z</time>
      </trkpt>
      <trkpt lat="59.9074838" lon="17.6438737">
        <ele>21.2864</ele>
        <time>2013-05-03T15:42:25Z</time>
      </trkpt>
      <trkpt lat="59.9074273" lon="17.6438675">
        <ele>21.2864</ele>
        <time>2013-05-03T15:42:26Z</time>
      </trkpt>
      <trkpt lat="59.9073713" lon="17.6438591">
        <ele>20.8057</ele>
        <time>2013-05-03T15:42:27Z</time>
      </trkpt>
      <trkpt lat="59.9073155" lon="17.6438463">
        <ele>20.8057</ele>
        <time>2013-05-03T15:42:28Z</time>
      </trkpt>
      <trkpt lat="59.9072595" lon="17.6438276">
        <ele>20.8057</ele>
        <time>2013-05-03T15:42:29Z</time>
      </trkpt>
      <trkpt lat="59.9072021" lon="17.6438104">
        <ele>20.8057</ele>
        <time>2013-05-03T15:42:30Z</time>
      </trkpt>
      <trkpt lat="59.9071446" lon="17.6437971">
        <ele>20.8057</ele>
        <time>2013-05-03T15:42:31Z</time>
      </trkpt>
      <trkpt lat="59.9070874" lon="17.6437841">
        <ele>20.8057</ele>
        <time>2013-05-03T15:42:32Z</time>
      </trkpt>
      <trkpt lat="59.9070306" lon="17.6437721">
        <ele>20.8057</ele>
        <time>2013-05-03T15:42:33Z</time>
      </trkpt>
      <trkpt lat="59.9069744" lon="17.643765">
        <ele>20.8057</ele>
        <time>2013-05-03T15:42:34Z</time>
      </trkpt>
      <trkpt lat="59.9069185" lon="17.6437616">
        <ele>20.8057</ele>
        <time>2013-05-03T15:42:35Z</time>
      </trkpt>
      <trkpt lat="59.9068631" lon="17.6437571">
        <ele>20.325</ele>
        <time>2013-05-03T15:42:36Z</time>
      </trkpt>
      <trkpt lat="59.906808" lon="17.6437539">
        <ele>20.325</ele>
        <time>2013-05-03T15:42:37Z</time>
      </trkpt>
      <trkpt lat="59.906753" lon="17.6437515">
        <ele>20.325</ele>
        <time>2013-05-03T15:42:38Z</time>
      </trkpt>
      <trkpt lat="59.906698" lon="17.6437481">
        <ele>20.325</ele>
        <time>2013-05-03T15:42:39Z</time>
      </trkpt>
      <trkpt lat="59.9066434" lon="17.6437396">
        <ele>20.325</ele>
        <time>2013-05-03T15:42:40Z</time>
      </trkpt>
      <trkpt lat="59.9065894" lon="17.6437219">
        <ele>20.325</ele>
        <time>2013-05-03T15:42:41Z</time>
      </trkpt>
      <trkpt lat="59.9065385" lon="17.6436944">
        <ele>20.325</ele>
        <time>2013-05-03T15:42:42Z</time>
      </trkpt>
      <trkpt lat="59.9064897" lon="17.6436628">
        <ele>20.325</ele>
        <time>2013-05-03T15:42:43Z</time>
      </trkpt>
      <trkpt lat="59.9064421" lon="17.6436265">
        <ele>20.325</ele>
        <time>2013-05-03T15:42:44Z</time>
      </trkpt>
      <trkpt lat="59.9063944" lon="17.6435893">
        <ele>19.8444</ele>
        <time>2013-05-03T15:42:45Z</time>
      </trkpt>
      <trkpt lat="59.9063472" lon="17.643555">
        <ele>19.8444</ele>
        <time>2013-05-03T15:42:46Z</time>
      </trkpt>
      <trkpt lat="59.9062993" lon="17.6435298">
        <ele>19.8444</ele>
        <time>2013-05-03T15:42:47Z</time>
      </trkpt>
      <trkpt lat="59.9062505" lon="17.6435114">
        <ele>19.8444</ele>
        <time>2013-05-03T15:42:48Z</time>
      </trkpt>
      <trkpt lat="59.906201" lon="17.643496">
        <ele>19.8444</ele>
        <time>2013-05-03T15:42:49Z</time>
      </trkpt>
      <trkpt lat="59.9061529" lon="17.6434783">
        <ele>19.8444</ele>
        <time>2013-05-03T15:42:50Z</time>
      </trkpt>
      <trkpt lat="59.906105" lon="17.6434558">
        <ele>19.8444</ele>
        <time>2013-05-03T15:42:51Z</time>
      </trkpt>
      <trkpt lat="59.9060567" lon="17.6434298">
        <ele>19.8444</ele>
        <time>2013-05-03T15:42:52Z</time>
      </trkpt>
      <trkpt lat="59.9060073" lon="17.6434109">
        <ele>19.8444</ele>
        <time>2013-05-03T15:42:53Z</time>
      </trkpt>
      <trkpt lat="59.9059591" lon="17.6433972">
        <ele>19.8444</ele>
        <time>2013-05-03T15:42:54Z</time>
      </trkpt>
      <trkpt lat="59.9059138" lon="17.643385">
        <ele>19.8444</ele>
        <time>2013-05-03T15:42:55Z</time>
      </trkpt>
      <trkpt lat="59.9058729" lon="17.6433846">
        <ele>19.8444</ele>
        <time>2013-05-03T15:42:56Z</time>
      </trkpt>
      <trkpt lat="59.9058381" lon="17.6434053">
        <ele>19.8444</ele>
        <time>2013-05-03T15:42:57Z</time>
      </trkpt>
      <trkpt lat="59.9058103" lon="17.6434488">
        <ele>19.8444</ele>
        <time>2013-05-03T15:42:58Z</time>
      </trkpt>
      <trkpt lat="59.9057952" lon="17.6435178">
        <ele>19.8444</ele>
        <time>2013-05-03T15:42:59Z</time>
      </trkpt>
      <trkpt lat="59.9057967" lon="17.6436008">
        <ele>19.8444</ele>
        <time>2013-05-03T15:43:00Z</time>
      </trkpt>
      <trkpt lat="59.90581" lon="17.6436882">
        <ele>19.8444</ele>
        <time>2013-05-03T15:43:01Z</time>
      </trkpt>
      <trkpt lat="59.9058289" lon="17.6437811">
        <ele>20.325</ele>
        <time>2013-05-03T15:43:02Z</time>
      </trkpt>
      <trkpt lat="59.9058506" lon="17.6438691">
        <ele>20.325</ele>
        <time>2013-05-03T15:43:03Z</time>
      </trkpt>
      <trkpt lat="59.9058739" lon="17.6439487">
        <ele>20.8057</ele>
        <time>2013-05-03T15:43:04Z</time>
      </trkpt>
      <trkpt lat="59.9058983" lon="17.6440208">
        <ele>20.8057</ele>
        <time>2013-05-03T15:43:05Z</time>
      </trkpt>
      <trkpt lat="59.905924" lon="17.6440924">
        <ele>20.8057</ele>
        <time>2013-05-03T15:43:06Z</time>
      </trkpt>
      <trkpt lat="59.9059509" lon="17.6441647">
        <ele>20.8057</ele>
        <time>2013-05-03T15:43:07Z</time>
      </trkpt>
      <trkpt lat="59.9059754" lon="17.6442373">
        <ele>20.8057</ele>
        <time>2013-05-03T15:43:08Z</time>
      </trkpt>
      <trkpt lat="59.9059992" lon="17.6443146">
        <ele>20.8057</ele>
        <time>2013-05-03T15:43:09Z</time>
      </trkpt>
      <trkpt lat="59.9060229" lon="17.6443897">
        <ele>20.8057</ele>
        <time>2013-05-03T15:43:10Z</time>
      </trkpt>
      <trkpt lat="59.906046" lon="17.6444642">
        <ele>20.325</ele>
        <time>2013-05-03T15:43:11Z</time>
      </trkpt>
      <trkpt lat="59.9060665" lon="17.6445424">
        <ele>20.325</ele>
        <time>2013-05-03T15:43:12Z</time>
      </trkpt>
      <trkpt lat="59.9060845" lon="17.6446231">
        <ele>20.325</ele>
        <time>2013-05-03T15:43:13Z</time>
      </trkpt>
      <trkpt lat="59.9061028" lon="17.6447051">
        <ele>20.325</ele>
        <time>2013-05-03T15:43:14Z</time>
      </trkpt>
      <trkpt lat="59.9061167" lon="17.6447895">
        <ele>20.8057</ele>
        <time>2013-05-03T15:43:15Z</time>
      </trkpt>
      <trkpt lat="59.9061256" lon="17.6448771">
        <ele>20.8057</ele>
        <time>2013-05-03T15:43:16Z</time>
      </trkpt>
      <trkpt lat="59.9061293" lon="17.6449667">
        <ele>20.8057</ele>
        <time>2013-05-03T15:43:17Z</time>
      </trkpt>
      <trkpt lat="59.9061301" lon="17.6450563">
        <ele>21.2864</ele>
        <time>2013-05-03T15:43:18Z</time>
      </trkpt>
      <trkpt lat="59.9061296" lon="17.6451442">
        <ele>21.2864</ele>
        <time>2013-05-03T15:43:19Z</time>
      </trkpt>
      <trkpt lat="59.906127" lon="17.6452294">
        <ele>21.2864</ele>
        <time>2013-05-03T15:43:20Z</time>
      </trkpt>
      <trkpt lat="59.9061224" lon="17.6453127">
        <ele>21.2864</ele>
        <time>2013-05-03T15:43:21Z</time>
      </trkpt>
      <trkpt lat="59.9061164" lon="17.6453938">
        <ele>21.2864</ele>
        <time>2013-05-03T15:43:22Z</time>
      </trkpt>
      <trkpt lat="59.9061092" lon="17.6454734">
        <ele>21.2864</ele>
        <time>2013-05-03T15:43:23Z</time>
      </trkpt>
      <trkpt lat="59.9061019" lon="17.645552">
        <ele>21.2864</ele>
        <time>2013-05-03T15:43:24Z</time>
      </trkpt>
      <trkpt lat="59.9060945" lon="17.6456302">
        <ele>21.2864</ele>
        <time>2013-05-03T15:43:25Z</time>
      </trkpt>
      <trkpt lat="59.9060866" lon="17.6457094">
        <ele>21.2864</ele>
        <time>2013-05-03T15:43:26Z</time>
      </trkpt>
      <trkpt lat="59.9060769" lon="17.6457863">
        <ele>21.2864</ele>
        <time>2013-05-03T15:43:27Z</time>
      </trkpt>
      <trkpt lat="59.906065" lon="17.6458618">
        <ele>21.2864</ele>
        <time>2013-05-03T15:43:28Z</time>
      </trkpt>
      <trkpt lat="59.9060521" lon="17.6459381">
        <ele>21.2864</ele>
        <time>2013-05-03T15:43:29Z</time>
      </trkpt>
      <trkpt lat="59.9060402" lon="17.6460172">
        <ele>21.2864</ele>
        <time>2013-05-03T15:43:30Z</time>
      </trkpt>
      <trkpt lat="59.9060298" lon="17.6460994">
        <ele>21.2864</ele>
        <time>2013-05-03T15:43:31Z</time>
      </trkpt>
      <trkpt lat="59.906021" lon="17.6461805">
        <ele>21.767</ele>
        <time>2013-05-03T15:43:32Z</time>
      </trkpt>
      <trkpt lat="59.9060115" lon="17.6462576">
        <ele>21.767</ele>
        <time>2013-05-03T15:43:33Z</time>
      </trkpt>
      <trkpt lat="59.906003" lon="17.6463389">
        <ele>21.767</ele>
        <time>2013-05-03T15:43:34Z</time>
      </trkpt>
      <trkpt lat="59.9059957" lon="17.6464218">
        <ele>21.767</ele>
        <time>2013-05-03T15:43:35Z</time>
      </trkpt>
      <trkpt lat="59.9059885" lon="17.6464984">
        <ele>22.2476</ele>
        <time>2013-05-03T15:43:36Z</time>
      </trkpt>
      <trkpt lat="59.9059837" lon="17.6465707">
        <ele>22.2476</ele>
        <time>2013-05-03T15:43:37Z</time>
      </trkpt>
      <trkpt lat="59.9059806" lon="17.6466388">
        <ele>22.2476</ele>
        <time>2013-05-03T15:43:38Z</time>
      </trkpt>
      <trkpt lat="59.905977" lon="17.6467047">
        <ele>22.7283</ele>
        <time>2013-05-03T15:43:39Z</time>
      </trkpt>
      <trkpt lat="59.9059707" lon="17.6467678">
        <ele>22.7283</ele>
        <time>2013-05-03T15:43:40Z</time>
      </trkpt>
      <trkpt lat="59.9059618" lon="17.6468273">
        <ele>22.7283</ele>
        <time>2013-05-03T15:43:41Z</time>
      </trkpt>
      <trkpt lat="59.9059536" lon="17.6468899">
        <ele>22.7283</ele>
        <time>2013-05-03T15:43:42Z</time>
      </trkpt>
      <trkpt lat="59.9059479" lon="17.6469579">
        <ele>22.7283</ele>
        <time>2013-05-03T15:43:43Z</time>
      </trkpt>
      <trkpt lat="59.9059426" lon="17.6470253">
        <ele>22.2476</ele>
        <time>2013-05-03T15:43:44Z</time>
      </trkpt>
      <trkpt lat="59.9059363" lon="17.6470909">
        <ele>22.2476</ele>
        <time>2013-05-03T15:43:45Z</time>
      </trkpt>
      <trkpt lat="59.9059288" lon="17.6471574">
        <ele>22.2476</ele>
        <time>2013-05-03T15:43:46Z</time>
      </trkpt>
      <trkpt lat="59.90592" lon="17.6472257">
        <ele>21.767</ele>
        <time>2013-05-03T15:43:47Z</time>
      </trkpt>
      <trkpt lat="59.9059138" lon="17.6472921">
        <ele>21.767</ele>
        <time>2013-05-03T15:43:48Z</time>
      </trkpt>
      <trkpt lat="59.9059133" lon="17.6473587">
        <ele>21.2864</ele>
        <time>2013-05-03T15:43:49Z</time>
      </trkpt>
      <trkpt lat="59.9059165" lon="17.6474296">
        <ele>21.2864</ele>
        <time>2013-05-03T15:43:50Z</time>
      </trkpt>
      <trkpt lat="59.9059206" lon="17.6475059">
        <ele>21.2864</ele>
        <time>2013-05-03T15:43:51Z</time>
      </trkpt>
      <trkpt lat="59.9059262" lon="17.6475852">
        <ele>20.8057</ele>
        <time>2013-05-03T15:43:52Z</time>
      </trkpt>
      <trkpt lat="59.9059333" lon="17.6476682">
        <ele>20.8057</ele>
        <time>2013-05-03T15:43:53Z</time>
      </trkpt>
      <trkpt lat="59.9059423" lon="17.6477528">
        <ele>20.8057</ele>
        <time>2013-05-03T15:43:54Z</time>
      </trkpt>
      <trkpt lat="59.905955" lon="17.6478345">
        <ele>20.8057</ele>
        <time>2013-05-03T15:43:55Z</time>
      </trkpt>
      <trkpt lat="59.9059705" lon="17.6479145">
        <ele>20.8057</ele>
        <time>2013-05-03T15:43:56Z</time>
      </trkpt>
      <trkpt lat="59.9059869" lon="17.6479935">
        <ele>20.8057</ele>
        <time>2013-05-03T15:43:57Z</time>
      </trkpt>
      <trkpt lat="59.9060049" lon="17.6480709">
        <ele>20.325</ele>
        <time>2013-05-03T15:43:58Z</time>
      </trkpt>
      <trkpt lat="59.9060246" lon="17.6481467">
        <ele>20.325</ele>
        <time>2013-05-03T15:43:59Z</time>
      </trkpt>
      <trkpt lat="59.9060441" lon="17.6482229">
        <ele>19.8444</ele>
        <time>2013-05-03T15:44:00Z</time>
      </trkpt>
      <trkpt lat="59.906063" lon="17.648299">
        <ele>19.8444</ele>
        <time>2013-05-03T15:44:01Z</time>
      </trkpt>
      <trkpt lat="59.9060829" lon="17.6483767">
        <ele>19.8444</ele>
        <time>2013-05-03T15:44:02Z</time>
      </trkpt>
      <trkpt lat="59.9061063" lon="17.6484533">
        <ele>19.8444</ele>
        <time>2013-05-03T15:44:03Z</time>
      </trkpt>
      <trkpt lat="59.9061339" lon="17.648526">
        <ele>19.8444</ele>
        <time>2013-05-03T15:44:04Z</time>
      </trkpt>
      <trkpt lat="59.9061634" lon="17.6485978">
        <ele>20.325</ele>
        <time>2013-05-03T15:44:05Z</time>
      </trkpt>
      <trkpt lat="59.9061944" lon="17.6486703">
        <ele>20.325</ele>
        <time>2013-05-03T15:44:06Z</time>
      </trkpt>
      <trkpt lat="59.9062262" lon="17.6487426">
        <ele>20.325</ele>
        <time>2013-05-03T15:44:07Z</time>
      </trkpt>
      <trkpt lat="59.9062571" lon="17.648816">
        <ele>20.325</ele>
        <time>2013-05-03T15:44:08Z</time>
      </trkpt>
      <trkpt lat="59.9062862" lon="17.6488906">
        <ele>20.325</ele>
        <time>2013-05-03T15:44:09Z</time>
      </trkpt>
      <trkpt lat="59.9063147" lon="17.6489636">
        <ele>20.325</ele>
        <time>2013-05-03T15:44:10Z</time>
      </trkpt>
      <trkpt lat="59.9063411" lon="17.6490372">
        <ele>20.325</ele>
        <time>2013-05-03T15:44:11Z</time>
      </trkpt>
      <trkpt lat="59.9063658" lon="17.6491139">
        <ele>20.325</ele>
        <time>2013-05-03T15:44:12Z</time>
      </trkpt>
      <trkpt lat="59.9063899" lon="17.649193">
        <ele>20.325</ele>
        <time>2013-05-03T15:44:13Z</time>
      </trkpt>
      <trkpt lat="59.9064147" lon="17.6492742">
        <ele>20.8057</ele>
        <time>2013-05-03T15:44:14Z</time>
      </trkpt>
      <trkpt lat="59.9064385" lon="17.6493577">
        <ele>20.8057</ele>
        <time>2013-05-03T15:44:15Z</time>
      </trkpt>
      <trkpt lat="59.9064613" lon="17.6494413">
        <ele>20.8057</ele>
        <time>2013-05-03T15:44:16Z</time>
      </trkpt>
      <trkpt lat="59.9064837" lon="17.6495231">
        <ele>20.8057</ele>
        <time>2013-05-03T15:44:17Z</time>
      </trkpt>
      <trkpt lat="59.9065057" lon="17.6496029">
        <ele>21.2864</ele>
        <time>2013-05-03T15:44:18Z</time>
      </trkpt>
      <trkpt lat="59.906526" lon="17.6496801">
        <ele>21.2864</ele>
        <time>2013-05-03T15:44:19Z</time>
      </trkpt>
      <trkpt lat="59.9065443" lon="17.6497568">
        <ele>21.2864</ele>
        <time>2013-05-03T15:44:20Z</time>
      </trkpt>
      <trkpt lat="59.9065607" lon="17.6498339">
        <ele>21.2864</ele>
        <time>2013-05-03T15:44:21Z</time>
      </trkpt>
      <trkpt lat="59.9065773" lon="17.64991">
        <ele>21.2864</ele>
        <time>2013-05-03T15:44:22Z</time>
      </trkpt>
      <trkpt lat="59.9065954" lon="17.6499868">
        <ele>21.767</ele>
        <time>2013-05-03T15:44:23Z</time>
      </trkpt>
      <trkpt lat="59.9066139" lon="17.6500652">
        <ele>21.767</ele>
        <time>2013-05-03T15:44:24Z</time>
      </trkpt>
      <trkpt lat="59.9066315" lon="17.6501447">
        <ele>21.767</ele>
        <time>2013-05-03T15:44:25Z</time>
      </trkpt>
      <trkpt lat="59.9066497" lon="17.6502225">
        <ele>21.767</ele>
        <time>2013-05-03T15:44:26Z</time>
      </trkpt>
      <trkpt lat="59.9066688" lon="17.6503012">
        <ele>22.2476</ele>
        <time>2013-05-03T15:44:27Z</time>
      </trkpt>
      <trkpt lat="59.9066886" lon="17.650383">
        <ele>22.2476</ele>
        <time>2013-05-03T15:44:28Z</time>
      </trkpt>
      <trkpt lat="59.9067088" lon="17.6504668">
        <ele>22.2476</ele>
        <time>2013-05-03T15:44:29Z</time>
      </trkpt>
      <trkpt lat="59.9067286" lon="17.6505519">
        <ele>22.2476</ele>
        <time>2013-05-03T15:44:30Z</time>
      </trkpt>
      <trkpt lat="59.9067477" lon="17.6506389">
        <ele>22.7283</ele>
        <time>2013-05-03T15:44:31Z</time>
      </trkpt>
      <trkpt lat="59.9067669" lon="17.6507263">
        <ele>22.7283</ele>
        <time>2013-05-03T15:44:32Z</time>
      </trkpt>
      <trkpt lat="59.906787" lon="17.6508145">
        <ele>22.7283</ele>
        <time>2013-05-03T15:44:33Z</time>
      </trkpt>
      <trkpt lat="59.9068077" lon="17.6509042">
        <ele>22.7283</ele>
        <time>2013-05-03T15:44:34Z</time>
      </trkpt>
      <trkpt lat="59.9068297" lon="17.6509958">
        <ele>22.7283</ele>
        <time>2013-05-03T15:44:35Z</time>
      </trkpt>
      <trkpt lat="59.9068525" lon="17.6510891">
        <ele>22.7283</ele>
        <time>2013-05-03T15:44:36Z</time>
      </trkpt>
      <trkpt lat="59.9068746" lon="17.6511823">
        <ele>22.7283</ele>
        <time>2013-05-03T15:44:37Z</time>
      </trkpt>
      <trkpt lat="59.9068962" lon="17.6512732">
        <ele>23.209</ele>
        <time>2013-05-03T15:44:38Z</time>
      </trkpt>
      <trkpt lat="59.9069172" lon="17.6513627">
        <ele>23.209</ele>
        <time>2013-05-03T15:44:39Z</time>
      </trkpt>
      <trkpt lat="59.9069363" lon="17.6514522">
        <ele>23.209</ele>
        <time>2013-05-03T15:44:40Z</time>
      </trkpt>
      <trkpt lat="59.9069539" lon="17.6515434">
        <ele>23.6896</ele>
        <time>2013-05-03T15:44:41Z</time>
      </trkpt>
      <trkpt lat="59.9069708" lon="17.651637">
        <ele>23.6896</ele>
        <time>2013-05-03T15:44:42Z</time>
      </trkpt>
      <trkpt lat="59.9069867" lon="17.6517314">
        <ele>23.6896</ele>
        <time>2013-05-03T15:44:43Z</time>
      </trkpt>
      <trkpt lat="59.9070024" lon="17.6518268">
        <ele>23.6896</ele>
        <time>2013-05-03T15:44:44Z</time>
      </trkpt>
      <trkpt lat="59.907017" lon="17.6519226">
        <ele>24.1703</ele>
        <time>2013-05-03T15:44:45Z</time>
      </trkpt>
      <trkpt lat="59.9070305" lon="17.6520183">
        <ele>24.1703</ele>
        <time>2013-05-03T15:44:46Z</time>
      </trkpt>
      <trkpt lat="59.9070407" lon="17.6521138">
        <ele>23.6896</ele>
        <time>2013-05-03T15:44:47Z</time>
      </trkpt>
      <trkpt lat="59.9070482" lon="17.6522089">
        <ele>23.6896</ele>
        <time>2013-05-03T15:44:48Z</time>
      </trkpt>
      <trkpt lat="59.9070542" lon="17.6523051">
        <ele>23.6896</ele>
        <time>2013-05-03T15:44:49Z</time>
      </trkpt>
      <trkpt lat="59.9070584" lon="17.6524026">
        <ele>23.6896</ele>
        <time>2013-05-03T15:44:50Z</time>
      </trkpt>
      <trkpt lat="59.9070615" lon="17.6525022">
        <ele>23.209</ele>
        <time>2013-05-03T15:44:51Z</time>
      </trkpt>
      <trkpt lat="59.9070644" lon="17.652602">
        <ele>23.209</ele>
        <time>2013-05-03T15:44:52Z</time>
      </trkpt>
      <trkpt lat="59.9070659" lon="17.6527001">
        <ele>23.209</ele>
        <time>2013-05-03T15:44:53Z</time>
      </trkpt>
      <trkpt lat="59.9070663" lon="17.6527962">
        <ele>22.7283</ele>
        <time>2013-05-03T15:44:54Z</time>
      </trkpt>
      <trkpt lat="59.9070663" lon="17.6528899">
        <ele>22.7283</ele>
        <time>2013-05-03T15:44:55Z</time>
      </trkpt>
      <trkpt lat="59.9070659" lon="17.6529813">
        <ele>22.7283</ele>
        <time>2013-05-03T15:44:56Z</time>
      </trkpt>
      <trkpt lat="59.9070659" lon="17.6530705">
        <ele>22.2476</ele>
        <time>2013-05-03T15:44:57Z</time>
      </trkpt>
      <trkpt lat="59.9070643" lon="17.6531601">
        <ele>22.2476</ele>
        <time>2013-05-03T15:44:58Z</time>
      </trkpt>
      <trkpt lat="59.9070605" lon="17.6532512">
        <ele>21.767</ele>
        <time>2013-05-03T15:44:59Z</time>
      </trkpt>
      <trkpt lat="59.907056" lon="17.6533423">
        <ele>21.767</ele>
        <time>2013-05-03T15:45:00Z</time>
      </trkpt>
      <trkpt lat="59.9070508" lon="17.653431">
        <ele>21.2864</ele>
        <time>2013-05-03T15:45:01Z</time>
      </trkpt>
      <trkpt lat="59.9070456" lon="17.6535209">
        <ele>21.2864</ele>
        <time>2013-05-03T15:45:02Z</time>
      </trkpt>
      <trkpt lat="59.9070399" lon="17.6536142">
        <ele>20.8057</ele>
        <time>2013-05-03T15:45:03Z</time>
      </trkpt>
      <trkpt lat="59.9070337" lon="17.65371">
        <ele>20.8057</ele>
        <time>2013-05-03T15:45:04Z</time>
      </trkpt>
      <trkpt lat="59.9070286" lon="17.6538074">
        <ele>20.8057</ele>
        <time>2013-05-03T15:45:05Z</time>
      </trkpt>
      <trkpt lat="59.9070255" lon="17.6539055">
        <ele>20.325</ele>
        <time>2013-05-03T15:45:06Z</time>
      </trkpt>
      <trkpt lat="59.9070232" lon="17.6540021">
        <ele>20.325</ele>
        <time>2013-05-03T15:45:07Z</time>
      </trkpt>
      <trkpt lat="59.9070216" lon="17.6540971">
        <ele>19.8444</ele>
        <time>2013-05-03T15:45:08Z</time>
      </trkpt>
      <trkpt lat="59.9070218" lon="17.6541899">
        <ele>19.3638</ele>
        <time>2013-05-03T15:45:09Z</time>
      </trkpt>
      <trkpt lat="59.9070203" lon="17.6542803">
        <ele>19.3638</ele>
        <time>2013-05-03T15:45:10Z</time>
      </trkpt>
      <trkpt lat="59.9070156" lon="17.6543674">
        <ele>18.8831</ele>
        <time>2013-05-03T15:45:11Z</time>
      </trkpt>
      <trkpt lat="59.9070117" lon="17.654453">
        <ele>18.8831</ele>
        <time>2013-05-03T15:45:12Z</time>
      </trkpt>
      <trkpt lat="59.9070094" lon="17.65454">
        <ele>18.8831</ele>
        <time>2013-05-03T15:45:13Z</time>
      </trkpt>
      <trkpt lat="59.9070057" lon="17.6546281">
        <ele>18.4023</ele>
        <time>2013-05-03T15:45:14Z</time>
      </trkpt>
      <trkpt lat="59.9070011" lon="17.6547194">
        <ele>18.4023</ele>
        <time>2013-05-03T15:45:15Z</time>
      </trkpt>
      <trkpt lat="59.9069964" lon="17.6548134">
        <ele>18.4023</ele>
        <time>2013-05-03T15:45:16Z</time>
      </trkpt>
      <trkpt lat="59.9069927" lon="17.6549082">
        <ele>17.9218</ele>
        <time>2013-05-03T15:45:17Z</time>
      </trkpt>
      <trkpt lat="59.9069905" lon="17.6550041">
        <ele>17.4412</ele>
        <time>2013-05-03T15:45:18Z</time>
      </trkpt>
      <trkpt lat="59.9069895" lon="17.6551003">
        <ele>17.4412</ele>
        <time>2013-05-03T15:45:19Z</time>
      </trkpt>
      <trkpt lat="59.9069892" lon="17.6551953">
        <ele>16.9604</ele>
        <time>2013-05-03T15:45:20Z</time>
      </trkpt>
      <trkpt lat="59.90699" lon="17.6552907">
        <ele>16.9604</ele>
        <time>2013-05-03T15:45:21Z</time>
      </trkpt>
      <trkpt lat="59.906991" lon="17.6553859">
        <ele>16.9604</ele>
        <time>2013-05-03T15:45:22Z</time>
      </trkpt>
      <trkpt lat="59.9069917" lon="17.6554807">
        <ele>16.9604</ele>
        <time>2013-05-03T15:45:23Z</time>
      </trkpt>
      <trkpt lat="59.9069921" lon="17.655575">
        <ele>16.4797</ele>
        <time>2013-05-03T15:45:24Z</time>
      </trkpt>
      <trkpt lat="59.9069924" lon="17.6556682">
        <ele>16.9604</ele>
        <time>2013-05-03T15:45:25Z</time>
      </trkpt>
      <trkpt lat="59.9069934" lon="17.6557603">
        <ele>16.9604</ele>
        <time>2013-05-03T15:45:26Z</time>
      </trkpt>
      <trkpt lat="59.9069949" lon="17.6558496">
        <ele>17.4412</ele>
        <time>2013-05-03T15:45:27Z</time>
      </trkpt>
      <trkpt lat="59.9069964" lon="17.65594">
        <ele>17.9218</ele>
        <time>2013-05-03T15:45:28Z</time>
      </trkpt>
      <trkpt lat="59.906998" lon="17.6560301">
        <ele>18.8831</ele>
        <time>2013-05-03T15:45:29Z</time>
      </trkpt>
      <trkpt lat="59.9070001" lon="17.6561182">
        <ele>19.3638</ele>
        <time>2013-05-03T15:45:30Z</time>
      </trkpt>
      <trkpt lat="59.9070026" lon="17.656208">
        <ele>19.8444</ele>
        <time>2013-05-03T15:45:31Z</time>
      </trkpt>
      <trkpt lat="59.9070062" lon="17.6562971">
        <ele>20.325</ele>
        <time>2013-05-03T15:45:32Z</time>
      </trkpt>
      <trkpt lat="59.9070125" lon="17.6563844">
        <ele>21.2864</ele>
        <time>2013-05-03T15:45:33Z</time>
      </trkpt>
      <trkpt lat="59.9070195" lon="17.6564717">
        <ele>21.767</ele>
        <time>2013-05-03T15:45:34Z</time>
      </trkpt>
      <trkpt lat="59.9070259" lon="17.6565598">
        <ele>21.767</ele>
        <time>2013-05-03T15:45:35Z</time>
      </trkpt>
      <trkpt lat="59.9070345" lon="17.6566468">
        <ele>21.767</ele>
        <time>2013-05-03T15:45:36Z</time>
      </trkpt>
      <trkpt lat="59.9070428" lon="17.6567315">
        <ele>21.767</ele>
        <time>2013-05-03T15:45:37Z</time>
      </trkpt>
      <trkpt lat="59.9070518" lon="17.6568166">
        <ele>21.767</ele>
        <time>2013-05-03T15:45:38Z</time>
      </trkpt>
      <trkpt lat="59.9070609" lon="17.6569047">
        <ele>21.767</ele>
        <time>2013-05-03T15:45:39Z</time>
      </trkpt>
      <trkpt lat="59.9070698" lon="17.6569955">
        <ele>21.767</ele>
        <time>2013-05-03T15:45:40Z</time>
      </trkpt>
      <trkpt lat="59.907082" lon="17.6570867">
        <ele>21.767</ele>
        <time>2013-05-03T15:45:41Z</time>
      </trkpt>
      <trkpt lat="59.9070954" lon="17.6571803">
        <ele>21.767</ele>
        <time>2013-05-03T15:45:42Z</time>
      </trkpt>
      <trkpt lat="59.9071099" lon="17.6572715">
        <ele>21.767</ele>
        <time>2013-05-03T15:45:43Z</time>
      </trkpt>
      <trkpt lat="59.907125" lon="17.657359">
        <ele>22.2476</ele>
        <time>2013-05-03T15:45:44Z</time>
      </trkpt>
      <trkpt lat="59.9071414" lon="17.6574439">
        <ele>22.7283</ele>
        <time>2013-05-03T15:45:45Z</time>
      </trkpt>
      <trkpt lat="59.9071586" lon="17.6575321">
        <ele>22.7283</ele>
        <time>2013-05-03T15:45:46Z</time>
      </trkpt>
      <trkpt lat="59.907175" lon="17.6576206">
        <ele>23.209</ele>
        <time>2013-05-03T15:45:47Z</time>
      </trkpt>
      <trkpt lat="59.9071908" lon="17.6577157">
        <ele>23.209</ele>
        <time>2013-05-03T15:45:48Z</time>
      </trkpt>
      <trkpt lat="59.907207" lon="17.6578108">
        <ele>23.6896</ele>
        <time>2013-05-03T15:45:49Z</time>
      </trkpt>
      <trkpt lat="59.9072232" lon="17.6579082">
        <ele>23.6896</ele>
        <time>2013-05-03T15:45:50Z</time>
      </trkpt>
      <trkpt lat="59.9072395" lon="17.658004">
        <ele>23.6896</ele>
        <time>2013-05-03T15:45:51Z</time>
      </trkpt>
      <trkpt lat="59.9072537" lon="17.6581035">
        <ele>22.7283</ele>
        <time>2013-05-03T15:45:52Z</time>
      </trkpt>
      <trkpt lat="59.9072663" lon="17.6581946">
        <ele>23.209</ele>
        <time>2013-05-03T15:45:53Z</time>
      </trkpt>
      <trkpt lat="59.9072783" lon="17.6582801">
        <ele>23.209</ele>
        <time>2013-05-03T15:45:54Z</time>
      </trkpt>
      <trkpt lat="59.9072901" lon="17.6583618">
        <ele>23.6896</ele>
        <time>2013-05-03T15:45:55Z</time>
      </trkpt>
      <trkpt lat="59.9072984" lon="17.6584439">
        <ele>23.209</ele>
        <time>2013-05-03T15:45:56Z</time>
      </trkpt>
      <trkpt lat="59.9073067" lon="17.658525">
        <ele>23.6896</ele>
        <time>2013-05-03T15:45:57Z</time>
      </trkpt>
      <trkpt lat="59.9073155" lon="17.6586142">
        <ele>22.7283</ele>
        <time>2013-05-03T15:45:58Z</time>
      </trkpt>
      <trkpt lat="59.9073248" lon="17.6586959">
        <ele>23.209</ele>
        <time>2013-05-03T15:45:59Z</time>
      </trkpt>
      <trkpt lat="59.9073348" lon="17.6587737">
        <ele>23.209</ele>
        <time>2013-05-03T15:46:00Z</time>
      </trkpt>
      <trkpt lat="59.9073435" lon="17.6588495">
        <ele>23.209</ele>
        <time>2013-05-03T15:46:01Z</time>
      </trkpt>
      <trkpt lat="59.9073508" lon="17.6589187">
        <ele>23.209</ele>
        <time>2013-05-03T15:46:02Z</time>
      </trkpt>
      <trkpt lat="59.9073573" lon="17.6589844">
        <ele>23.6896</ele>
        <time>2013-05-03T15:46:03Z</time>
      </trkpt>
      <trkpt lat="59.9073624" lon="17.6590565">
        <ele>23.209</ele>
        <time>2013-05-03T15:46:04Z</time>
      </trkpt>
      <trkpt lat="59.9073681" lon="17.6591332">
        <ele>23.6896</ele>
        <time>2013-05-03T15:46:05Z</time>
      </trkpt>
      <trkpt lat="59.9073756" lon="17.659213">
        <ele>24.1703</ele>
        <time>2013-05-03T15:46:06Z</time>
      </trkpt>
      <trkpt lat="59.9073828" lon="17.6592995">
        <ele>24.1703</ele>
        <time>2013-05-03T15:46:07Z</time>
      </trkpt>
      <trkpt lat="59.9073906" lon="17.659387">
        <ele>24.1703</ele>
        <time>2013-05-03T15:46:08Z</time>
      </trkpt>
      <trkpt lat="59.9073989" lon="17.6594685">
        <ele>25.1317</ele>
        <time>2013-05-03T15:46:09Z</time>
      </trkpt>
      <trkpt lat="59.907408" lon="17.6595518">
        <ele>25.1317</ele>
        <time>2013-05-03T15:46:10Z</time>
      </trkpt>
      <trkpt lat="59.9074181" lon="17.6596342">
        <ele>25.1317</ele>
        <time>2013-05-03T15:46:11Z</time>
      </trkpt>
      <trkpt lat="59.907427" lon="17.6597145">
        <ele>25.6123</ele>
        <time>2013-05-03T15:46:12Z</time>
      </trkpt>
      <trkpt lat="59.9074372" lon="17.6597977">
        <ele>25.6123</ele>
        <time>2013-05-03T15:46:13Z</time>
      </trkpt>
      <trkpt lat="59.9074498" lon="17.6598775">
        <ele>26.0929</ele>
        <time>2013-05-03T15:46:14Z</time>
      </trkpt>
      <trkpt lat="59.9074631" lon="17.6599636">
        <ele>26.5736</ele>
        <time>2013-05-03T15:46:15Z</time>
      </trkpt>
      <trkpt lat="59.907477" lon="17.6600489">
        <ele>27.0543</ele>
        <time>2013-05-03T15:46:16Z</time>
      </trkpt>
      <trkpt lat="59.9074943" lon="17.660134">
        <ele>28.4962</ele>
        <time>2013-05-03T15:46:17Z</time>
      </trkpt>
      <trkpt lat="59.9075081" lon="17.6602227">
        <ele>28.9769</ele>
        <time>2013-05-03T15:46:18Z</time>
      </trkpt>
      <trkpt lat="59.9075222" lon="17.6603117">
        <ele>29.4575</ele>
        <time>2013-05-03T15:46:19Z</time>
      </trkpt>
      <trkpt lat="59.9075401" lon="17.660394">
        <ele>30.8995</ele>
        <time>2013-05-03T15:46:20Z</time>
      </trkpt>
      <trkpt lat="59.9075578" lon="17.6604667">
        <ele>32.3416</ele>
        <time>2013-05-03T15:46:21Z</time>
      </trkpt>
      <trkpt lat="59.9075738" lon="17.6605464">
        <ele>32.3416</ele>
        <time>2013-05-03T15:46:22Z</time>
      </trkpt>
      <trkpt lat="59.9075901" lon="17.660622">
        <ele>32.8223</ele>
        <time>2013-05-03T15:46:23Z</time>
      </trkpt>
      <trkpt lat="59.9076045" lon="17.6606955">
        <ele>33.7834</ele>
        <time>2013-05-03T15:46:24Z</time>
      </trkpt>
      <trkpt lat="59.907615" lon="17.6607775">
        <ele>34.2642</ele>
        <time>2013-05-03T15:46:25Z</time>
      </trkpt>
      <trkpt lat="59.9076211" lon="17.6608609">
        <ele>34.7449</ele>
        <time>2013-05-03T15:46:26Z</time>
      </trkpt>
      <trkpt lat="59.9076285" lon="17.6609442">
        <ele>35.7061</ele>
        <time>2013-05-03T15:46:27Z</time>
      </trkpt>
      <trkpt lat="59.9076382" lon="17.6610279">
        <ele>36.1868</ele>
        <time>2013-05-03T15:46:28Z</time>
      </trkpt>
      <trkpt lat="59.9076497" lon="17.6611094">
        <ele>36.6675</ele>
        <time>2013-05-03T15:46:29Z</time>
      </trkpt>
      <trkpt lat="59.9076615" lon="17.6612004">
        <ele>37.1481</ele>
        <time>2013-05-03T15:46:30Z</time>
      </trkpt>
      <trkpt lat="59.9076714" lon="17.6612964">
        <ele>37.6287</ele>
        <time>2013-05-03T15:46:31Z</time>
      </trkpt>
      <trkpt lat="59.9076779" lon="17.6613977">
        <ele>37.1481</ele>
        <time>2013-05-03T15:46:32Z</time>
      </trkpt>
      <trkpt lat="59.9076865" lon="17.661501">
        <ele>37.1481</ele>
        <time>2013-05-03T15:46:33Z</time>
      </trkpt>
      <trkpt lat="59.9076943" lon="17.6616067">
        <ele>37.1481</ele>
        <time>2013-05-03T15:46:34Z</time>
      </trkpt>
      <trkpt lat="59.9077035" lon="17.6617133">
        <ele>37.1481</ele>
        <time>2013-05-03T15:46:35Z</time>
      </trkpt>
      <trkpt lat="59.9077159" lon="17.6618199">
        <ele>36.6675</ele>
        <time>2013-05-03T15:46:36Z</time>
      </trkpt>
      <trkpt lat="59.9077276" lon="17.6619262">
        <ele>36.6675</ele>
        <time>2013-05-03T15:46:37Z</time>
      </trkpt>
      <trkpt lat="59.9077364" lon="17.6620325">
        <ele>36.1868</ele>
        <time>2013-05-03T15:46:38Z</time>
      </trkpt>
      <trkpt lat="59.9077444" lon="17.6621375">
        <ele>36.1868</ele>
        <time>2013-05-03T15:46:39Z</time>
      </trkpt>
      <trkpt lat="59.9077549" lon="17.6622406">
        <ele>35.7061</ele>
        <time>2013-05-03T15:46:40Z</time>
      </trkpt>
      <trkpt lat="59.907767" lon="17.6623405">
        <ele>35.7061</ele>
        <time>2013-05-03T15:46:41Z</time>
      </trkpt>
      <trkpt lat="59.9077801" lon="17.6624381">
        <ele>35.7061</ele>
        <time>2013-05-03T15:46:42Z</time>
      </trkpt>
      <trkpt lat="59.9077937" lon="17.6625358">
        <ele>35.2255</ele>
        <time>2013-05-03T15:46:43Z</time>
      </trkpt>
      <trkpt lat="59.9078062" lon="17.6626327">
        <ele>35.2255</ele>
        <time>2013-05-03T15:46:44Z</time>
      </trkpt>
      <trkpt lat="59.9078176" lon="17.6627311">
        <ele>35.2255</ele>
        <time>2013-05-03T15:46:45Z</time>
      </trkpt>
      <trkpt lat="59.9078287" lon="17.662829">
        <ele>35.7061</ele>
        <time>2013-05-03T15:46:46Z</time>
      </trkpt>
      <trkpt lat="59.9078406" lon="17.6629276">
        <ele>35.7061</ele>
        <time>2013-05-03T15:46:47Z</time>
      </trkpt>
      <trkpt lat="59.9078533" lon="17.6630269">
        <ele>35.7061</ele>
        <time>2013-05-03T15:46:48Z</time>
      </trkpt>
      <trkpt lat="59.9078665" lon="17.6631244">
        <ele>36.1868</ele>
        <time>2013-05-03T15:46:49Z</time>
      </trkpt>
      <trkpt lat="59.9078792" lon="17.6632233">
        <ele>36.1868</ele>
        <time>2013-05-03T15:46:50Z</time>
      </trkpt>
      <trkpt lat="59.9078919" lon="17.6633229">
        <ele>36.6675</ele>
        <time>2013-05-03T15:46:51Z</time>
      </trkpt>
      <trkpt lat="59.907903" lon="17.6634239">
        <ele>36.1868</ele>
        <time>2013-05-03T15:46:52Z</time>
      </trkpt>
      <trkpt lat="59.9079147" lon="17.6635255">
        <ele>36.1868</ele>
        <time>2013-05-03T15:46:53Z</time>
      </trkpt>
      <trkpt lat="59.9079243" lon="17.6636252">
        <ele>36.1868</ele>
        <time>2013-05-03T15:46:54Z</time>
      </trkpt>
      <trkpt lat="59.9079346" lon="17.6637259">
        <ele>36.1868</ele>
        <time>2013-05-03T15:46:55Z</time>
      </trkpt>
      <trkpt lat="59.9079449" lon="17.6638309">
        <ele>36.1868</ele>
        <time>2013-05-03T15:46:56Z</time>
      </trkpt>
      <trkpt lat="59.9079546" lon="17.6639356">
        <ele>35.7061</ele>
        <time>2013-05-03T15:46:57Z</time>
      </trkpt>
      <trkpt lat="59.9079616" lon="17.6640408">
        <ele>35.7061</ele>
        <time>2013-05-03T15:46:58Z</time>
      </trkpt>
      <trkpt lat="59.9079644" lon="17.6641434">
        <ele>35.2255</ele>
        <time>2013-05-03T15:46:59Z</time>
      </trkpt>
      <trkpt lat="59.9079659" lon="17.6642418">
        <ele>35.2255</ele>
        <time>2013-05-03T15:47:00Z</time>
      </trkpt>
      <trkpt lat="59.9079682" lon="17.6643386">
        <ele>35.2255</ele>
        <time>2013-05-03T15:47:01Z</time>
      </trkpt>
      <trkpt lat="59.9079699" lon="17.6644333">
        <ele>35.7061</ele>
        <time>2013-05-03T15:47:02Z</time>
      </trkpt>
      <trkpt lat="59.9079677" lon="17.6645248">
        <ele>35.7061</ele>
        <time>2013-05-03T15:47:03Z</time>
      </trkpt>
      <trkpt lat="59.907961" lon="17.6646184">
        <ele>35.7061</ele>
        <time>2013-05-03T15:47:04Z</time>
      </trkpt>
      <trkpt lat="59.9079553" lon="17.6647144">
        <ele>35.2255</ele>
        <time>2013-05-03T15:47:05Z</time>
      </trkpt>
      <trkpt lat="59.9079471" lon="17.664811">
        <ele>34.7449</ele>
        <time>2013-05-03T15:47:06Z</time>
      </trkpt>
      <trkpt lat="59.9079385" lon="17.6648982">
        <ele>34.7449</ele>
        <time>2013-05-03T15:47:07Z</time>
      </trkpt>
      <trkpt lat="59.9079293" lon="17.6649767">
        <ele>34.2642</ele>
        <time>2013-05-03T15:47:08Z</time>
      </trkpt>
      <trkpt lat="59.9079208" lon="17.6650544">
        <ele>33.3029</ele>
        <time>2013-05-03T15:47:09Z</time>
      </trkpt>
      <trkpt lat="59.9079133" lon="17.6651402">
        <ele>33.3029</ele>
        <time>2013-05-03T15:47:10Z</time>
      </trkpt>
      <trkpt lat="59.9079051" lon="17.6652421">
        <ele>30.4188</ele>
        <time>2013-05-03T15:47:11Z</time>
      </trkpt>
      <trkpt lat="59.9078946" lon="17.6653337">
        <ele>28.9769</ele>
        <time>2013-05-03T15:47:12Z</time>
      </trkpt>
      <trkpt lat="59.9078826" lon="17.6654208">
        <ele>27.5349</ele>
        <time>2013-05-03T15:47:13Z</time>
      </trkpt>
      <trkpt lat="59.9078708" lon="17.6655177">
        <ele>26.0929</ele>
        <time>2013-05-03T15:47:14Z</time>
      </trkpt>
      <trkpt lat="59.9078615" lon="17.6656108">
        <ele>26.5736</ele>
        <time>2013-05-03T15:47:15Z</time>
      </trkpt>
      <trkpt lat="59.9078519" lon="17.6656999">
        <ele>27.5349</ele>
        <time>2013-05-03T15:47:16Z</time>
      </trkpt>
      <trkpt lat="59.9078398" lon="17.6657865">
        <ele>28.4962</ele>
        <time>2013-05-03T15:47:17Z</time>
      </trkpt>
      <trkpt lat="59.9078283" lon="17.6658855">
        <ele>26.0929</ele>
        <time>2013-05-03T15:47:18Z</time>
      </trkpt>
      <trkpt lat="59.9078149" lon="17.665961">
        <ele>26.5736</ele>
        <time>2013-05-03T15:47:19Z</time>
      </trkpt>
      <trkpt lat="59.9078053" lon="17.6660362">
        <ele>27.5349</ele>
        <time>2013-05-03T15:47:20Z</time>
      </trkpt>
      <trkpt lat="59.9077953" lon="17.6661124">
        <ele>28.0155</ele>
        <time>2013-05-03T15:47:21Z</time>
      </trkpt>
      <trkpt lat="59.9077848" lon="17.6661945">
        <ele>28.4962</ele>
        <time>2013-05-03T15:47:22Z</time>
      </trkpt>
      <trkpt lat="59.9077765" lon="17.6662854">
        <ele>28.9769</ele>
        <time>2013-05-03T15:47:23Z</time>
      </trkpt>
      <trkpt lat="59.9077712" lon="17.6663744">
        <ele>29.9381</ele>
        <time>2013-05-03T15:47:24Z</time>
      </trkpt>
      <trkpt lat="59.9077621" lon="17.6664625">
        <ele>30.4188</ele>
        <time>2013-05-03T15:47:25Z</time>
      </trkpt>
      <trkpt lat="59.9077532" lon="17.6665396">
        <ele>30.8995</ele>
        <time>2013-05-03T15:47:26Z</time>
      </trkpt>
      <trkpt lat="59.9077527" lon="17.6666151">
        <ele>32.8223</ele>
        <time>2013-05-03T15:47:27Z</time>
      </trkpt>
      <trkpt lat="59.9077491" lon="17.6666887">
        <ele>33.7834</ele>
        <time>2013-05-03T15:47:28Z</time>
      </trkpt>
      <trkpt lat="59.9077454" lon="17.6667608">
        <ele>34.2642</ele>
        <time>2013-05-03T15:47:29Z</time>
      </trkpt>
      <trkpt lat="59.9077402" lon="17.6668242">
        <ele>34.7449</ele>
        <time>2013-05-03T15:47:30Z</time>
      </trkpt>
      <trkpt lat="59.9077359" lon="17.6669045">
        <ele>34.7449</ele>
        <time>2013-05-03T15:47:31Z</time>
      </trkpt>
      <trkpt lat="59.9077336" lon="17.6669931">
        <ele>34.7449</ele>
        <time>2013-05-03T15:47:32Z</time>
      </trkpt>
      <trkpt lat="59.9077289" lon="17.6670981">
        <ele>34.7449</ele>
        <time>2013-05-03T15:47:33Z</time>
      </trkpt>
      <trkpt lat="59.9077253" lon="17.6672093">
        <ele>34.7449</ele>
        <time>2013-05-03T15:47:34Z</time>
      </trkpt>
      <trkpt lat="59.9077209" lon="17.6673196">
        <ele>35.2255</ele>
        <time>2013-05-03T15:47:35Z</time>
      </trkpt>
      <trkpt lat="59.9077155" lon="17.6674251">
        <ele>35.7061</ele>
        <time>2013-05-03T15:47:36Z</time>
      </trkpt>
      <trkpt lat="59.9077074" lon="17.6675285">
        <ele>35.7061</ele>
        <time>2013-05-03T15:47:37Z</time>
      </trkpt>
      <trkpt lat="59.9076982" lon="17.6676297">
        <ele>35.7061</ele>
        <time>2013-05-03T15:47:38Z</time>
      </trkpt>
      <trkpt lat="59.9076822" lon="17.667727">
        <ele>35.2255</ele>
        <time>2013-05-03T15:47:39Z</time>
      </trkpt>
      <trkpt lat="59.907665" lon="17.667828">
        <ele>32.8223</ele>
        <time>2013-05-03T15:47:40Z</time>
      </trkpt>
      <trkpt lat="59.9076411" lon="17.6679239">
        <ele>29.4575</ele>
        <time>2013-05-03T15:47:41Z</time>
      </trkpt>
      <trkpt lat="59.9076116" lon="17.668007">
        <ele>28.0155</ele>
        <time>2013-05-03T15:47:42Z</time>
      </trkpt>
      <trkpt lat="59.9075753" lon="17.668071">
        <ele>27.5349</ele>
        <time>2013-05-03T15:47:43Z</time>
      </trkpt>
      <trkpt lat="59.9075331" lon="17.6681172">
        <ele>27.5349</ele>
        <time>2013-05-03T15:47:44Z</time>
      </trkpt>
      <trkpt lat="59.9074858" lon="17.6681539">
        <ele>27.0543</ele>
        <time>2013-05-03T15:47:45Z</time>
      </trkpt>
      <trkpt lat="59.9074381" lon="17.6681824">
        <ele>26.5736</ele>
        <time>2013-05-03T15:47:46Z</time>
      </trkpt>
      <trkpt lat="59.9073902" lon="17.6682025">
        <ele>26.0929</ele>
        <time>2013-05-03T15:47:47Z</time>
      </trkpt>
      <trkpt lat="59.9073423" lon="17.6682156">
        <ele>26.0929</ele>
        <time>2013-05-03T15:47:48Z</time>
      </trkpt>
      <trkpt lat="59.9072935" lon="17.6682341">
        <ele>25.6123</ele>
        <time>2013-05-03T15:47:49Z</time>
      </trkpt>
      <trkpt lat="59.9072469" lon="17.668257">
        <ele>25.1317</ele>
        <time>2013-05-03T15:47:50Z</time>
      </trkpt>
      <trkpt lat="59.9072032" lon="17.668275">
        <ele>25.1317</ele>
        <time>2013-05-03T15:47:51Z</time>
      </trkpt>
      <trkpt lat="59.9071601" lon="17.6682926">
        <ele>25.6123</ele>
        <time>2013-05-03T15:47:52Z</time>
      </trkpt>
      <trkpt lat="59.907118" lon="17.6683108">
        <ele>25.6123</ele>
        <time>2013-05-03T15:47:53Z</time>
      </trkpt>
      <trkpt lat="59.9070763" lon="17.6683267">
        <ele>25.6123</ele>
        <time>2013-05-03T15:47:54Z</time>
      </trkpt>
      <trkpt lat="59.9070377" lon="17.6683413">
        <ele>26.0929</ele>
        <time>2013-05-03T15:47:55Z</time>
      </trkpt>
      <trkpt lat="59.9069986" lon="17.6683533">
        <ele>26.5736</ele>
        <time>2013-05-03T15:47:56Z</time>
      </trkpt>
      <trkpt lat="59.9069606" lon="17.66836">
        <ele>26.5736</ele>
        <time>2013-05-03T15:47:57Z</time>
      </trkpt>
      <trkpt lat="59.9069252" lon="17.6683645">
        <ele>27.0543</ele>
        <time>2013-05-03T15:47:58Z</time>
      </trkpt>
      <trkpt lat="59.9068875" lon="17.6683723">
        <ele>27.0543</ele>
        <time>2013-05-03T15:47:59Z</time>
      </trkpt>
      <trkpt lat="59.9068498" lon="17.6683828">
        <ele>27.5349</ele>
        <time>2013-05-03T15:48:00Z</time>
      </trkpt>
      <trkpt lat="59.9068082" lon="17.668404">
        <ele>27.5349</ele>
        <time>2013-05-03T15:48:01Z</time>
      </trkpt>
      <trkpt lat="59.9067681" lon="17.6684305">
        <ele>27.5349</ele>
        <time>2013-05-03T15:48:02Z</time>
      </trkpt>
      <trkpt lat="59.9067291" lon="17.6684577">
        <ele>27.5349</ele>
        <time>2013-05-03T15:48:03Z</time>
      </trkpt>
      <trkpt lat="59.9066912" lon="17.6684766">
        <ele>28.0155</ele>
        <time>2013-05-03T15:48:04Z</time>
      </trkpt>
      <trkpt lat="59.9066551" lon="17.6684843">
        <ele>28.0155</ele>
        <time>2013-05-03T15:48:05Z</time>
      </trkpt>
      <trkpt lat="59.9066199" lon="17.6684952">
        <ele>28.4962</ele>
        <time>2013-05-03T15:48:06Z</time>
      </trkpt>
      <trkpt lat="59.9065834" lon="17.6685082">
        <ele>28.4962</ele>
        <time>2013-05-03T15:48:07Z</time>
      </trkpt>
      <trkpt lat="59.9065432" lon="17.6685202">
        <ele>28.4962</ele>
        <time>2013-05-03T15:48:08Z</time>
      </trkpt>
      <trkpt lat="59.9065028" lon="17.6685279">
        <ele>28.4962</ele>
        <time>2013-05-03T15:48:09Z</time>
      </trkpt>
      <trkpt lat="59.9064607" lon="17.6685397">
        <ele>28.9769</ele>
        <time>2013-05-03T15:48:10Z</time>
      </trkpt>
      <trkpt lat="59.9064173" lon="17.6685444">
        <ele>28.0155</ele>
        <time>2013-05-03T15:48:11Z</time>
      </trkpt>
      <trkpt lat="59.9063748" lon="17.6685452">
        <ele>28.0155</ele>
        <time>2013-05-03T15:48:12Z</time>
      </trkpt>
      <trkpt lat="59.9063297" lon="17.6685442">
        <ele>27.5349</ele>
        <time>2013-05-03T15:48:13Z</time>
      </trkpt>
      <trkpt lat="59.9062862" lon="17.6685404">
        <ele>27.5349</ele>
        <time>2013-05-03T15:48:14Z</time>
      </trkpt>
      <trkpt lat="59.9062411" lon="17.668533">
        <ele>27.5349</ele>
        <time>2013-05-03T15:48:15Z</time>
      </trkpt>
      <trkpt lat="59.9061976" lon="17.6685206">
        <ele>27.5349</ele>
        <time>2013-05-03T15:48:16Z</time>
      </trkpt>
      <trkpt lat="59.9061511" lon="17.6685092">
        <ele>27.0543</ele>
        <time>2013-05-03T15:48:17Z</time>
      </trkpt>
      <trkpt lat="59.9061029" lon="17.6684952">
        <ele>26.5736</ele>
        <time>2013-05-03T15:48:18Z</time>
      </trkpt>
      <trkpt lat="59.9060536" lon="17.6684764">
        <ele>26.0929</ele>
        <time>2013-05-03T15:48:19Z</time>
      </trkpt>
      <trkpt lat="59.9060023" lon="17.668461">
        <ele>25.6123</ele>
        <time>2013-05-03T15:48:20Z</time>
      </trkpt>
      <trkpt lat="59.90595" lon="17.6684393">
        <ele>25.6123</ele>
        <time>2013-05-03T15:48:21Z</time>
      </trkpt>
      <trkpt lat="59.9058986" lon="17.6684123">
        <ele>25.1317</ele>
        <time>2013-05-03T15:48:22Z</time>
      </trkpt>
      <trkpt lat="59.9058475" lon="17.6683857">
        <ele>25.1317</ele>
        <time>2013-05-03T15:48:23Z</time>
      </trkpt>
      <trkpt lat="59.9057967" lon="17.6683604">
        <ele>25.1317</ele>
        <time>2013-05-03T15:48:24Z</time>
      </trkpt>
      <trkpt lat="59.90575" lon="17.6683352">
        <ele>25.1317</ele>
        <time>2013-05-03T15:48:25Z</time>
      </trkpt>
      <trkpt lat="59.905706" lon="17.6683144">
        <ele>25.1317</ele>
        <time>2013-05-03T15:48:26Z</time>
      </trkpt>
      <trkpt lat="59.9056636" lon="17.6682962">
        <ele>25.1317</ele>
        <time>2013-05-03T15:48:27Z</time>
      </trkpt>
      <trkpt lat="59.9056221" lon="17.6682775">
        <ele>25.6123</ele>
        <time>2013-05-03T15:48:28Z</time>
      </trkpt>
      <trkpt lat="59.905578" lon="17.6682564">
        <ele>25.6123</ele>
        <time>2013-05-03T15:48:29Z</time>
      </trkpt>
      <trkpt lat="59.905534" lon="17.6682314">
        <ele>26.0929</ele>
        <time>2013-05-03T15:48:30Z</time>
      </trkpt>
      <trkpt lat="59.9054869" lon="17.6682054">
        <ele>25.6123</ele>
        <time>2013-05-03T15:48:31Z</time>
      </trkpt>
      <trkpt lat="59.9054393" lon="17.6681849">
        <ele>25.6123</ele>
        <time>2013-05-03T15:48:32Z</time>
      </trkpt>
      <trkpt lat="59.9053915" lon="17.6681626">
        <ele>25.1317</ele>
        <time>2013-05-03T15:48:33Z</time>
      </trkpt>
      <trkpt lat="59.9053444" lon="17.6681422">
        <ele>24.651</ele>
        <time>2013-05-03T15:48:34Z</time>
      </trkpt>
      <trkpt lat="59.9053016" lon="17.668122">
        <ele>24.651</ele>
        <time>2013-05-03T15:48:35Z</time>
      </trkpt>
      <trkpt lat="59.9052549" lon="17.668089">
        <ele>23.6896</ele>
        <time>2013-05-03T15:48:36Z</time>
      </trkpt>
      <trkpt lat="59.9052087" lon="17.6680586">
        <ele>22.7283</ele>
        <time>2013-05-03T15:48:37Z</time>
      </trkpt>
      <trkpt lat="59.9051637" lon="17.668036">
        <ele>22.2476</ele>
        <time>2013-05-03T15:48:38Z</time>
      </trkpt>
      <trkpt lat="59.9051212" lon="17.6680207">
        <ele>22.7283</ele>
        <time>2013-05-03T15:48:39Z</time>
      </trkpt>
      <trkpt lat="59.905078" lon="17.667992">
        <ele>23.209</ele>
        <time>2013-05-03T15:48:40Z</time>
      </trkpt>
      <trkpt lat="59.9050309" lon="17.6679576">
        <ele>23.6896</ele>
        <time>2013-05-03T15:48:41Z</time>
      </trkpt>
      <trkpt lat="59.9049793" lon="17.6679188">
        <ele>22.7283</ele>
        <time>2013-05-03T15:48:42Z</time>
      </trkpt>
      <trkpt lat="59.9049284" lon="17.667889">
        <ele>22.7283</ele>
        <time>2013-05-03T15:48:43Z</time>
      </trkpt>
      <trkpt lat="59.9048757" lon="17.6678606">
        <ele>23.209</ele>
        <time>2013-05-03T15:48:44Z</time>
      </trkpt>
      <trkpt lat="59.9048211" lon="17.6678343">
        <ele>22.2476</ele>
        <time>2013-05-03T15:48:45Z</time>
      </trkpt>
      <trkpt lat="59.9047677" lon="17.6678151">
        <ele>21.767</ele>
        <time>2013-05-03T15:48:46Z</time>
      </trkpt>
      <trkpt lat="59.904715" lon="17.6678087">
        <ele>21.2864</ele>
        <time>2013-05-03T15:48:47Z</time>
      </trkpt>
      <trkpt lat="59.9046597" lon="17.6678171">
        <ele>21.767</ele>
        <time>2013-05-03T15:48:48Z</time>
      </trkpt>
      <trkpt lat="59.9046016" lon="17.6678192">
        <ele>21.767</ele>
        <time>2013-05-03T15:48:49Z</time>
      </trkpt>
      <trkpt lat="59.9045441" lon="17.667828">
        <ele>22.2476</ele>
        <time>2013-05-03T15:48:50Z</time>
      </trkpt>
      <trkpt lat="59.9044885" lon="17.667842">
        <ele>22.7283</ele>
        <time>2013-05-03T15:48:51Z</time>
      </trkpt>
      <trkpt lat="59.9044347" lon="17.6678618">
        <ele>23.6896</ele>
        <time>2013-05-03T15:48:52Z</time>
      </trkpt>
      <trkpt lat="59.9043865" lon="17.6678761">
        <ele>24.1703</ele>
        <time>2013-05-03T15:48:53Z</time>
      </trkpt>
      <trkpt lat="59.9043406" lon="17.6678871">
        <ele>24.1703</ele>
        <time>2013-05-03T15:48:54Z</time>
      </trkpt>
      <trkpt lat="59.9042964" lon="17.6678986">
        <ele>25.1317</ele>
        <time>2013-05-03T15:48:55Z</time>
      </trkpt>
      <trkpt lat="59.904255" lon="17.6679114">
        <ele>25.6123</ele>
        <time>2013-05-03T15:48:56Z</time>
      </trkpt>
      <trkpt lat="59.9042174" lon="17.6679413">
        <ele>26.0929</ele>
        <time>2013-05-03T15:48:57Z</time>
      </trkpt>
      <trkpt lat="59.9041852" lon="17.667974">
        <ele>26.0929</ele>
        <time>2013-05-03T15:48:58Z</time>
      </trkpt>
      <trkpt lat="59.9041541" lon="17.6680052">
        <ele>26.5736</ele>
        <time>2013-05-03T15:48:59Z</time>
      </trkpt>
      <trkpt lat="59.9041197" lon="17.6680288">
        <ele>27.0543</ele>
        <time>2013-05-03T15:49:00Z</time>
      </trkpt>
      <trkpt lat="59.9040862" lon="17.66805">
        <ele>27.5349</ele>
        <time>2013-05-03T15:49:01Z</time>
      </trkpt>
      <trkpt lat="59.9040583" lon="17.6680747">
        <ele>28.4962</ele>
        <time>2013-05-03T15:49:02Z</time>
      </trkpt>
      <trkpt lat="59.9040348" lon="17.6681044">
        <ele>28.9769</ele>
        <time>2013-05-03T15:49:03Z</time>
      </trkpt>
      <trkpt lat="59.9040128" lon="17.6681404">
        <ele>29.4575</ele>
        <time>2013-05-03T15:49:04Z</time>
      </trkpt>
      <trkpt lat="59.9039869" lon="17.6681839">
        <ele>29.4575</ele>
        <time>2013-05-03T15:49:05Z</time>
      </trkpt>
      <trkpt lat="59.9039545" lon="17.6682331">
        <ele>29.4575</ele>
        <time>2013-05-03T15:49:06Z</time>
      </trkpt>
      <trkpt lat="59.9039184" lon="17.6682885">
        <ele>29.4575</ele>
        <time>2013-05-03T15:49:07Z</time>
      </trkpt>
      <trkpt lat="59.9038809" lon="17.6683534">
        <ele>29.4575</ele>
        <time>2013-05-03T15:49:08Z</time>
      </trkpt>
      <trkpt lat="59.9038413" lon="17.668424">
        <ele>28.9769</ele>
        <time>2013-05-03T15:49:09Z</time>
      </trkpt>
      <trkpt lat="59.9038016" lon="17.6685075">
        <ele>28.9769</ele>
        <time>2013-05-03T15:49:10Z</time>
      </trkpt>
      <trkpt lat="59.9037648" lon="17.6686038">
        <ele>28.9769</ele>
        <time>2013-05-03T15:49:11Z</time>
      </trkpt>
      <trkpt lat="59.9037248" lon="17.6687023">
        <ele>28.4962</ele>
        <time>2013-05-03T15:49:12Z</time>
      </trkpt>
      <trkpt lat="59.9036894" lon="17.6687988">
        <ele>28.9769</ele>
        <time>2013-05-03T15:49:13Z</time>
      </trkpt>
      <trkpt lat="59.9036536" lon="17.668888">
        <ele>28.0155</ele>
        <time>2013-05-03T15:49:14Z</time>
      </trkpt>
      <trkpt lat="59.903621" lon="17.6689784">
        <ele>28.0155</ele>
        <time>2013-05-03T15:49:15Z</time>
      </trkpt>
      <trkpt lat="59.9035905" lon="17.6690727">
        <ele>27.0543</ele>
        <time>2013-05-03T15:49:16Z</time>
      </trkpt>
      <trkpt lat="59.903567" lon="17.6691478">
        <ele>27.5349</ele>
        <time>2013-05-03T15:49:17Z</time>
      </trkpt>
      <trkpt lat="59.9035449" lon="17.6692504">
        <ele>25.6123</ele>
        <time>2013-05-03T15:49:18Z</time>
      </trkpt>
      <trkpt lat="59.9035243" lon="17.6693503">
        <ele>24.1703</ele>
        <time>2013-05-03T15:49:19Z</time>
      </trkpt>
      <trkpt lat="59.9035039" lon="17.66945">
        <ele>23.6896</ele>
        <time>2013-05-03T15:49:20Z</time>
      </trkpt>
      <trkpt lat="59.9034789" lon="17.6695301">
        <ele>23.209</ele>
        <time>2013-05-03T15:49:21Z</time>
      </trkpt>
      <trkpt lat="59.9034452" lon="17.6696002">
        <ele>23.209</ele>
        <time>2013-05-03T15:49:22Z</time>
      </trkpt>
      <trkpt lat="59.9034043" lon="17.6696649">
        <ele>22.7283</ele>
        <time>2013-05-03T15:49:23Z</time>
      </trkpt>
      <trkpt lat="59.9033589" lon="17.6697131">
        <ele>22.2476</ele>
        <time>2013-05-03T15:49:24Z</time>
      </trkpt>
      <trkpt lat="59.9033133" lon="17.6697353">
        <ele>21.767</ele>
        <time>2013-05-03T15:49:25Z</time>
      </trkpt>
      <trkpt lat="59.9032627" lon="17.6697629">
        <ele>21.2864</ele>
        <time>2013-05-03T15:49:26Z</time>
      </trkpt>
      <trkpt lat="59.9032118" lon="17.6697685">
        <ele>20.8057</ele>
        <time>2013-05-03T15:49:27Z</time>
      </trkpt>
      <trkpt lat="59.9031614" lon="17.6697595">
        <ele>20.325</ele>
        <time>2013-05-03T15:49:28Z</time>
      </trkpt>
      <trkpt lat="59.9031159" lon="17.6697452">
        <ele>19.8444</ele>
        <time>2013-05-03T15:49:29Z</time>
      </trkpt>
      <trkpt lat="59.9030751" lon="17.669726">
        <ele>20.8057</ele>
        <time>2013-05-03T15:49:30Z</time>
      </trkpt>
      <trkpt lat="59.9030317" lon="17.6697134">
        <ele>21.2864</ele>
        <time>2013-05-03T15:49:31Z</time>
      </trkpt>
      <trkpt lat="59.9029856" lon="17.669701">
        <ele>21.767</ele>
        <time>2013-05-03T15:49:32Z</time>
      </trkpt>
      <trkpt lat="59.9029419" lon="17.6696924">
        <ele>21.767</ele>
        <time>2013-05-03T15:49:33Z</time>
      </trkpt>
      <trkpt lat="59.902902" lon="17.6696794">
        <ele>22.2476</ele>
        <time>2013-05-03T15:49:34Z</time>
      </trkpt>
      <trkpt lat="59.9028643" lon="17.6696857">
        <ele>23.6896</ele>
        <time>2013-05-03T15:49:35Z</time>
      </trkpt>
      <trkpt lat="59.9028223" lon="17.6696966">
        <ele>23.6896</ele>
        <time>2013-05-03T15:49:36Z</time>
      </trkpt>
      <trkpt lat="59.9027835" lon="17.6697037">
        <ele>23.209</ele>
        <time>2013-05-03T15:49:37Z</time>
      </trkpt>
      <trkpt lat="59.9027389" lon="17.6697155">
        <ele>22.7283</ele>
        <time>2013-05-03T15:49:38Z</time>
      </trkpt>
      <trkpt lat="59.9026928" lon="17.6697313">
        <ele>21.767</ele>
        <time>2013-05-03T15:49:39Z</time>
      </trkpt>
      <trkpt lat="59.9026462" lon="17.6697602">
        <ele>21.767</ele>
        <time>2013-05-03T15:49:40Z</time>
      </trkpt>
      <trkpt lat="59.9026037" lon="17.6697854">
        <ele>21.767</ele>
        <time>2013-05-03T15:49:41Z</time>
      </trkpt>
      <trkpt lat="59.9025643" lon="17.669826">
        <ele>22.2476</ele>
        <time>2013-05-03T15:49:42Z</time>
      </trkpt>
      <trkpt lat="59.90254" lon="17.6698694">
        <ele>22.2476</ele>
        <time>2013-05-03T15:49:43Z</time>
      </trkpt>
      <trkpt lat="59.9025265" lon="17.6699318">
        <ele>22.7283</ele>
        <time>2013-05-03T15:49:44Z</time>
      </trkpt>
      <trkpt lat="59.9025182" lon="17.6700166">
        <ele>23.209</ele>
        <time>2013-05-03T15:49:45Z</time>
      </trkpt>
      <trkpt lat="59.9025167" lon="17.6701073">
        <ele>24.651</ele>
        <time>2013-05-03T15:49:46Z</time>
      </trkpt>
      <trkpt lat="59.9025187" lon="17.6701973">
        <ele>26.0929</ele>
        <time>2013-05-03T15:49:47Z</time>
      </trkpt>
      <trkpt lat="59.9025229" lon="17.6702808">
        <ele>26.0929</ele>
        <time>2013-05-03T15:49:48Z</time>
      </trkpt>
      <trkpt lat="59.9025247" lon="17.670359">
        <ele>27.0543</ele>
        <time>2013-05-03T15:49:49Z</time>
      </trkpt>
      <trkpt lat="59.9025223" lon="17.6704398">
        <ele>28.0155</ele>
        <time>2013-05-03T15:49:50Z</time>
      </trkpt>
      <trkpt lat="59.9025201" lon="17.6705264">
        <ele>28.0155</ele>
        <time>2013-05-03T15:49:51Z</time>
      </trkpt>
      <trkpt lat="59.9025175" lon="17.6706093">
        <ele>28.0155</ele>
        <time>2013-05-03T15:49:52Z</time>
      </trkpt>
      <trkpt lat="59.9025149" lon="17.6706958">
        <ele>27.0543</ele>
        <time>2013-05-03T15:49:53Z</time>
      </trkpt>
      <trkpt lat="59.9025031" lon="17.6707735">
        <ele>27.5349</ele>
        <time>2013-05-03T15:49:54Z</time>
      </trkpt>
      <trkpt lat="59.9024871" lon="17.6708338">
        <ele>27.5349</ele>
        <time>2013-05-03T15:49:55Z</time>
      </trkpt>
      <trkpt lat="59.9024745" lon="17.670892">
        <ele>27.0543</ele>
        <time>2013-05-03T15:49:56Z</time>
      </trkpt>
      <trkpt lat="59.9008077" lon="17.6696255">
        <ele>26.0929</ele>
        <time>2013-05-03T16:01:45Z</time>
      </trkpt>
      <trkpt lat="59.9007553" lon="17.6696505">
        <ele>26.5736</ele>
        <time>2013-05-03T16:01:46Z</time>
      </trkpt>
      <trkpt lat="59.9006958" lon="17.6696762">
        <ele>26.0929</ele>
        <time>2013-05-03T16:01:47Z</time>
      </trkpt>
      <trkpt lat="59.9006299" lon="17.6697066">
        <ele>26.5736</ele>
        <time>2013-05-03T16:01:48Z</time>
      </trkpt>
      <trkpt lat="59.9005601" lon="17.6697404">
        <ele>26.0929</ele>
        <time>2013-05-03T16:01:49Z</time>
      </trkpt>
      <trkpt lat="59.9004247" lon="17.6697887">
        <ele>27.5349</ele>
        <time>2013-05-03T16:01:50Z</time>
      </trkpt>
      <trkpt lat="59.9003571" lon="17.6698078">
        <ele>28.0155</ele>
        <time>2013-05-03T16:01:51Z</time>
      </trkpt>
      <trkpt lat="59.9002928" lon="17.6698296">
        <ele>28.4962</ele>
        <time>2013-05-03T16:01:52Z</time>
      </trkpt>
      <trkpt lat="59.9002341" lon="17.669847">
        <ele>28.4962</ele>
        <time>2013-05-03T16:01:53Z</time>
      </trkpt>
      <trkpt lat="59.900179" lon="17.6698629">
        <ele>28.9769</ele>
        <time>2013-05-03T16:01:54Z</time>
      </trkpt>
      <trkpt lat="59.9001318" lon="17.669886">
        <ele>28.0155</ele>
        <time>2013-05-03T16:01:55Z</time>
      </trkpt>
      <trkpt lat="59.9000887" lon="17.669899">
        <ele>27.0543</ele>
        <time>2013-05-03T16:01:56Z</time>
      </trkpt>
      <trkpt lat="59.9000493" lon="17.6699116">
        <ele>26.5736</ele>
        <time>2013-05-03T16:01:57Z</time>
      </trkpt>
      <trkpt lat="59.9000126" lon="17.6699234">
        <ele>26.0929</ele>
        <time>2013-05-03T16:01:58Z</time>
      </trkpt>
      <trkpt lat="59.8999761" lon="17.6699362">
        <ele>25.1317</ele>
        <time>2013-05-03T16:01:59Z</time>
      </trkpt>
      <trkpt lat="59.8999379" lon="17.6699554">
        <ele>23.6896</ele>
        <time>2013-05-03T16:02:00Z</time>
      </trkpt>
      <trkpt lat="59.8998976" lon="17.6699731">
        <ele>22.7283</ele>
        <time>2013-05-03T16:02:01Z</time>
      </trkpt>
      <trkpt lat="59.8998597" lon="17.6699924">
        <ele>23.209</ele>
        <time>2013-05-03T16:02:02Z</time>
      </trkpt>
      <trkpt lat="59.8998214" lon="17.6700209">
        <ele>22.7283</ele>
        <time>2013-05-03T16:02:03Z</time>
      </trkpt>
      <trkpt lat="59.8997826" lon="17.670042">
        <ele>22.2476</ele>
        <time>2013-05-03T16:02:04Z</time>
      </trkpt>
      <trkpt lat="59.8997435" lon="17.6700596">
        <ele>22.2476</ele>
        <time>2013-05-03T16:02:05Z</time>
      </trkpt>
      <trkpt lat="59.8997026" lon="17.6700814">
        <ele>22.7283</ele>
        <time>2013-05-03T16:02:06Z</time>
      </trkpt>
      <trkpt lat="59.8996598" lon="17.6701109">
        <ele>23.209</ele>
        <time>2013-05-03T16:02:07Z</time>
      </trkpt>
      <trkpt lat="59.8996158" lon="17.6701405">
        <ele>24.1703</ele>
        <time>2013-05-03T16:02:08Z</time>
      </trkpt>
      <trkpt lat="59.8995723" lon="17.6701658">
        <ele>25.1317</ele>
        <time>2013-05-03T16:02:09Z</time>
      </trkpt>
      <trkpt lat="59.8995288" lon="17.6701985">
        <ele>25.6123</ele>
        <time>2013-05-03T16:02:10Z</time>
      </trkpt>
      <trkpt lat="59.8994857" lon="17.6702398">
        <ele>25.1317</ele>
        <time>2013-05-03T16:02:11Z</time>
      </trkpt>
      <trkpt lat="59.8994448" lon="17.6702936">
        <ele>24.1703</ele>
        <time>2013-05-03T16:02:12Z</time>
      </trkpt>
      <trkpt lat="59.8994125" lon="17.6703543">
        <ele>23.209</ele>
        <time>2013-05-03T16:02:13Z</time>
      </trkpt>
      <trkpt lat="59.8993851" lon="17.6704231">
        <ele>23.209</ele>
        <time>2013-05-03T16:02:14Z</time>
      </trkpt>
      <trkpt lat="59.8993608" lon="17.6705015">
        <ele>23.6896</ele>
        <time>2013-05-03T16:02:15Z</time>
      </trkpt>
      <trkpt lat="59.8993377" lon="17.6705874">
        <ele>22.7283</ele>
        <time>2013-05-03T16:02:16Z</time>
      </trkpt>
      <trkpt lat="59.8993174" lon="17.6706655">
        <ele>21.767</ele>
        <time>2013-05-03T16:02:17Z</time>
      </trkpt>
      <trkpt lat="59.8992999" lon="17.6707383">
        <ele>22.2476</ele>
        <time>2013-05-03T16:02:18Z</time>
      </trkpt>
      <trkpt lat="59.899287" lon="17.6708262">
        <ele>21.767</ele>
        <time>2013-05-03T16:02:19Z</time>
      </trkpt>
      <trkpt lat="59.8992863" lon="17.6709216">
        <ele>21.2864</ele>
        <time>2013-05-03T16:02:20Z</time>
      </trkpt>
      <trkpt lat="59.8992903" lon="17.6710152">
        <ele>21.767</ele>
        <time>2013-05-03T16:02:21Z</time>
      </trkpt>
      <trkpt lat="59.8992903" lon="17.6711095">
        <ele>22.2476</ele>
        <time>2013-05-03T16:02:22Z</time>
      </trkpt>
      <trkpt lat="59.899291" lon="17.6712069">
        <ele>22.2476</ele>
        <time>2013-05-03T16:02:23Z</time>
      </trkpt>
      <trkpt lat="59.8992936" lon="17.6713034">
        <ele>22.7283</ele>
        <time>2013-05-03T16:02:24Z</time>
      </trkpt>
      <trkpt lat="59.8992951" lon="17.6714">
        <ele>22.7283</ele>
        <time>2013-05-03T16:02:25Z</time>
      </trkpt>
      <trkpt lat="59.8992986" lon="17.6715017">
        <ele>22.7283</ele>
        <time>2013-05-03T16:02:26Z</time>
      </trkpt>
      <trkpt lat="59.8993027" lon="17.6715903">
        <ele>23.209</ele>
        <time>2013-05-03T16:02:27Z</time>
      </trkpt>
      <trkpt lat="59.8993106" lon="17.6716792">
        <ele>23.6896</ele>
        <time>2013-05-03T16:02:28Z</time>
      </trkpt>
      <trkpt lat="59.8993091" lon="17.671757">
        <ele>24.651</ele>
        <time>2013-05-03T16:02:29Z</time>
      </trkpt>
      <trkpt lat="59.8993097" lon="17.6718297">
        <ele>25.6123</ele>
        <time>2013-05-03T16:02:30Z</time>
      </trkpt>
      <trkpt lat="59.8993111" lon="17.6719012">
        <ele>26.5736</ele>
        <time>2013-05-03T16:02:31Z</time>
      </trkpt>
      <trkpt lat="59.8993067" lon="17.6719709">
        <ele>27.5349</ele>
        <time>2013-05-03T16:02:32Z</time>
      </trkpt>
      <trkpt lat="59.8992993" lon="17.6720456">
        <ele>28.0155</ele>
        <time>2013-05-03T16:02:33Z</time>
      </trkpt>
      <trkpt lat="59.8992908" lon="17.6721093">
        <ele>28.9769</ele>
        <time>2013-05-03T16:02:34Z</time>
      </trkpt>
      <trkpt lat="59.8992801" lon="17.6721799">
        <ele>29.4575</ele>
        <time>2013-05-03T16:02:35Z</time>
      </trkpt>
      <trkpt lat="59.8992682" lon="17.6722521">
        <ele>29.4575</ele>
        <time>2013-05-03T16:02:36Z</time>
      </trkpt>
      <trkpt lat="59.8992537" lon="17.6723212">
        <ele>29.9381</ele>
        <time>2013-05-03T16:02:37Z</time>
      </trkpt>
      <trkpt lat="59.8992449" lon="17.672387">
        <ele>30.4188</ele>
        <time>2013-05-03T16:02:38Z</time>
      </trkpt>
      <trkpt lat="59.8992336" lon="17.6724537">
        <ele>30.4188</ele>
        <time>2013-05-03T16:02:39Z</time>
      </trkpt>
      <trkpt lat="59.8992217" lon="17.6725339">
        <ele>28.4962</ele>
        <time>2013-05-03T16:02:40Z</time>
      </trkpt>
      <trkpt lat="59.8992058" lon="17.6726252">
        <ele>27.5349</ele>
        <time>2013-05-03T16:02:41Z</time>
      </trkpt>
      <trkpt lat="59.8991858" lon="17.6727341">
        <ele>26.0929</ele>
        <time>2013-05-03T16:02:42Z</time>
      </trkpt>
      <trkpt lat="59.8991646" lon="17.6728272">
        <ele>26.0929</ele>
        <time>2013-05-03T16:02:43Z</time>
      </trkpt>
      <trkpt lat="59.8991473" lon="17.6729195">
        <ele>25.6123</ele>
        <time>2013-05-03T16:02:44Z</time>
      </trkpt>
      <trkpt lat="59.8991293" lon="17.6729905">
        <ele>25.1317</ele>
        <time>2013-05-03T16:02:45Z</time>
      </trkpt>
      <trkpt lat="59.8991175" lon="17.6730486">
        <ele>23.209</ele>
        <time>2013-05-03T16:02:46Z</time>
      </trkpt>
      <trkpt lat="59.8991139" lon="17.6730908">
        <ele>24.1703</ele>
        <time>2013-05-03T16:02:47Z</time>
      </trkpt>
      <trkpt lat="59.8991145" lon="17.6731134">
        <ele>24.651</ele>
        <time>2013-05-03T16:02:48Z</time>
      </trkpt>
      <trkpt lat="59.8991076" lon="17.6731489">
        <ele>25.1317</ele>
        <time>2013-05-03T16:02:49Z</time>
      </trkpt>
      <trkpt lat="59.8991049" lon="17.6731681">
        <ele>25.6123</ele>
        <time>2013-05-03T16:02:50Z</time>
      </trkpt>
      <trkpt lat="59.8990989" lon="17.6731877">
        <ele>26.5736</ele>
        <time>2013-05-03T16:02:51Z</time>
      </trkpt>
      <trkpt lat="59.8990942" lon="17.6731884">
        <ele>25.6123</ele>
        <time>2013-05-03T16:02:52Z</time>
      </trkpt>
      <trkpt lat="59.899087" lon="17.673199">
        <ele>25.1317</ele>
        <time>2013-05-03T16:02:53Z</time>
      </trkpt>
      <trkpt lat="59.8990828" lon="17.6732236">
        <ele>24.651</ele>
        <time>2013-05-03T16:02:54Z</time>
      </trkpt>
      <trkpt lat="59.8990764" lon="17.6732572">
        <ele>24.651</ele>
        <time>2013-05-03T16:02:55Z</time>
      </trkpt>
      <trkpt lat="59.8990727" lon="17.6732885">
        <ele>25.1317</ele>
        <time>2013-05-03T16:02:56Z</time>
      </trkpt>
      <trkpt lat="59.8990718" lon="17.6733324">
        <ele>25.6123</ele>
        <time>2013-05-03T16:02:57Z</time>
      </trkpt>
      <trkpt lat="59.8990689" lon="17.6733956">
        <ele>25.6123</ele>
        <time>2013-05-03T16:02:58Z</time>
      </trkpt>
      <trkpt lat="59.8990714" lon="17.6734737">
        <ele>25.1317</ele>
        <time>2013-05-03T16:02:59Z</time>
      </trkpt>
      <trkpt lat="59.8990727" lon="17.6735737">
        <ele>23.209</ele>
        <time>2013-05-03T16:03:00Z</time>
      </trkpt>
      <trkpt lat="59.8990751" lon="17.6736722">
        <ele>23.209</ele>
        <time>2013-05-03T16:03:01Z</time>
      </trkpt>
      <trkpt lat="59.8990661" lon="17.673768">
        <ele>24.1703</ele>
        <time>2013-05-03T16:03:02Z</time>
      </trkpt>
      <trkpt lat="59.8990489" lon="17.6738763">
        <ele>24.651</ele>
        <time>2013-05-03T16:03:03Z</time>
      </trkpt>
      <trkpt lat="59.8990292" lon="17.6739881">
        <ele>25.6123</ele>
        <time>2013-05-03T16:03:04Z</time>
      </trkpt>
      <trkpt lat="59.8990075" lon="17.6740984">
        <ele>25.1317</ele>
        <time>2013-05-03T16:03:05Z</time>
      </trkpt>
      <trkpt lat="59.8989821" lon="17.67419">
        <ele>25.1317</ele>
        <time>2013-05-03T16:03:06Z</time>
      </trkpt>
      <trkpt lat="59.8989551" lon="17.6742549">
        <ele>23.6896</ele>
        <time>2013-05-03T16:03:07Z</time>
      </trkpt>
      <trkpt lat="59.898927" lon="17.6743048">
        <ele>22.7283</ele>
        <time>2013-05-03T16:03:08Z</time>
      </trkpt>
      <trkpt lat="59.8988976" lon="17.6743434">
        <ele>22.2476</ele>
        <time>2013-05-03T16:03:09Z</time>
      </trkpt>
      <trkpt lat="59.8988719" lon="17.6743761">
        <ele>21.767</ele>
        <time>2013-05-03T16:03:10Z</time>
      </trkpt>
      <trkpt lat="59.8988471" lon="17.6744098">
        <ele>21.2864</ele>
        <time>2013-05-03T16:03:11Z</time>
      </trkpt>
      <trkpt lat="59.8988252" lon="17.6744518">
        <ele>21.767</ele>
        <time>2013-05-03T16:03:12Z</time>
      </trkpt>
      <trkpt lat="59.8987933" lon="17.6744885">
        <ele>21.2864</ele>
        <time>2013-05-03T16:03:13Z</time>
      </trkpt>
      <trkpt lat="59.8987533" lon="17.6745342">
        <ele>21.2864</ele>
        <time>2013-05-03T16:03:14Z</time>
      </trkpt>
      <trkpt lat="59.8987087" lon="17.6745892">
        <ele>20.8057</ele>
        <time>2013-05-03T16:03:15Z</time>
      </trkpt>
      <trkpt lat="59.8986641" lon="17.6746547">
        <ele>20.325</ele>
        <time>2013-05-03T16:03:16Z</time>
      </trkpt>
      <trkpt lat="59.8986175" lon="17.67473">
        <ele>19.8444</ele>
        <time>2013-05-03T16:03:17Z</time>
      </trkpt>
      <trkpt lat="59.8985724" lon="17.6748077">
        <ele>19.3638</ele>
        <time>2013-05-03T16:03:18Z</time>
      </trkpt>
      <trkpt lat="59.89853" lon="17.6749153">
        <ele>19.3638</ele>
        <time>2013-05-03T16:03:19Z</time>
      </trkpt>
      <trkpt lat="59.8984937" lon="17.6750123">
        <ele>19.3638</ele>
        <time>2013-05-03T16:03:20Z</time>
      </trkpt>
      <trkpt lat="59.8984612" lon="17.6751155">
        <ele>19.3638</ele>
        <time>2013-05-03T16:03:21Z</time>
      </trkpt>
      <trkpt lat="59.8984171" lon="17.6752666">
        <ele>20.8057</ele>
        <time>2013-05-03T16:03:22Z</time>
      </trkpt>
      <trkpt lat="59.8983915" lon="17.6754003">
        <ele>21.767</ele>
        <time>2013-05-03T16:03:23Z</time>
      </trkpt>
      <trkpt lat="59.8983751" lon="17.6755231">
        <ele>22.7283</ele>
        <time>2013-05-03T16:03:24Z</time>
      </trkpt>
      <trkpt lat="59.8983683" lon="17.675654">
        <ele>23.209</ele>
        <time>2013-05-03T16:03:25Z</time>
      </trkpt>
      <trkpt lat="59.8983643" lon="17.6757875">
        <ele>23.209</ele>
        <time>2013-05-03T16:03:26Z</time>
      </trkpt>
      <trkpt lat="59.8983525" lon="17.67592">
        <ele>23.6896</ele>
        <time>2013-05-03T16:03:27Z</time>
      </trkpt>
      <trkpt lat="59.8983369" lon="17.6760533">
        <ele>23.6896</ele>
        <time>2013-05-03T16:03:28Z</time>
      </trkpt>
      <trkpt lat="59.8983233" lon="17.6761883">
        <ele>24.651</ele>
        <time>2013-05-03T16:03:29Z</time>
      </trkpt>
      <trkpt lat="59.8983114" lon="17.6763258">
        <ele>25.1317</ele>
        <time>2013-05-03T16:03:30Z</time>
      </trkpt>
      <trkpt lat="59.8983" lon="17.6764644">
        <ele>25.1317</ele>
        <time>2013-05-03T16:03:31Z</time>
      </trkpt>
      <trkpt lat="59.8982872" lon="17.6766047">
        <ele>25.1317</ele>
        <time>2013-05-03T16:03:32Z</time>
      </trkpt>
      <trkpt lat="59.8982746" lon="17.6767476">
        <ele>25.1317</ele>
        <time>2013-05-03T16:03:33Z</time>
      </trkpt>
      <trkpt lat="59.8982607" lon="17.6768896">
        <ele>25.1317</ele>
        <time>2013-05-03T16:03:34Z</time>
      </trkpt>
      <trkpt lat="59.8982445" lon="17.6770316">
        <ele>24.651</ele>
        <time>2013-05-03T16:03:35Z</time>
      </trkpt>
      <trkpt lat="59.8982265" lon="17.6771766">
        <ele>24.651</ele>
        <time>2013-05-03T16:03:36Z</time>
      </trkpt>
      <trkpt lat="59.8982058" lon="17.6773195">
        <ele>24.651</ele>
        <time>2013-05-03T16:03:37Z</time>
      </trkpt>
      <trkpt lat="59.8981829" lon="17.6774612">
        <ele>24.1703</ele>
        <time>2013-05-03T16:03:38Z</time>
      </trkpt>
      <trkpt lat="59.8981575" lon="17.6776017">
        <ele>24.1703</ele>
        <time>2013-05-03T16:03:39Z</time>
      </trkpt>
      <trkpt lat="59.8981299" lon="17.677737">
        <ele>24.1703</ele>
        <time>2013-05-03T16:03:40Z</time>
      </trkpt>
      <trkpt lat="59.898102" lon="17.6778666">
        <ele>24.1703</ele>
        <time>2013-05-03T16:03:41Z</time>
      </trkpt>
      <trkpt lat="59.8980725" lon="17.6779891">
        <ele>23.6896</ele>
        <time>2013-05-03T16:03:42Z</time>
      </trkpt>
      <trkpt lat="59.8980411" lon="17.6781048">
        <ele>23.6896</ele>
        <time>2013-05-03T16:03:43Z</time>
      </trkpt>
      <trkpt lat="59.8980098" lon="17.678216">
        <ele>23.6896</ele>
        <time>2013-05-03T16:03:44Z</time>
      </trkpt>
      <trkpt lat="59.8979783" lon="17.6783219">
        <ele>23.6896</ele>
        <time>2013-05-03T16:03:45Z</time>
      </trkpt>
      <trkpt lat="59.8979473" lon="17.6784227">
        <ele>24.1703</ele>
        <time>2013-05-03T16:03:46Z</time>
      </trkpt>
      <trkpt lat="59.8979156" lon="17.678519">
        <ele>24.1703</ele>
        <time>2013-05-03T16:03:47Z</time>
      </trkpt>
      <trkpt lat="59.8978823" lon="17.6786123">
        <ele>24.1703</ele>
        <time>2013-05-03T16:03:48Z</time>
      </trkpt>
      <trkpt lat="59.8978493" lon="17.678702">
        <ele>24.651</ele>
        <time>2013-05-03T16:03:49Z</time>
      </trkpt>
      <trkpt lat="59.8978148" lon="17.6787933">
        <ele>24.651</ele>
        <time>2013-05-03T16:03:50Z</time>
      </trkpt>
      <trkpt lat="59.8977805" lon="17.6788849">
        <ele>24.651</ele>
        <time>2013-05-03T16:03:51Z</time>
      </trkpt>
      <trkpt lat="59.8977467" lon="17.6789746">
        <ele>24.651</ele>
        <time>2013-05-03T16:03:52Z</time>
      </trkpt>
      <trkpt lat="59.897712" lon="17.6790631">
        <ele>24.651</ele>
        <time>2013-05-03T16:03:53Z</time>
      </trkpt>
      <trkpt lat="59.8976753" lon="17.6791531">
        <ele>24.651</ele>
        <time>2013-05-03T16:03:54Z</time>
      </trkpt>
      <trkpt lat="59.8976394" lon="17.6792444">
        <ele>24.651</ele>
        <time>2013-05-03T16:03:55Z</time>
      </trkpt>
      <trkpt lat="59.8976043" lon="17.6793354">
        <ele>24.651</ele>
        <time>2013-05-03T16:03:56Z</time>
      </trkpt>
      <trkpt lat="59.8975684" lon="17.6794257">
        <ele>24.651</ele>
        <time>2013-05-03T16:03:57Z</time>
      </trkpt>
      <trkpt lat="59.8975349" lon="17.679517">
        <ele>24.651</ele>
        <time>2013-05-03T16:03:58Z</time>
      </trkpt>
      <trkpt lat="59.8975022" lon="17.6796065">
        <ele>24.651</ele>
        <time>2013-05-03T16:03:59Z</time>
      </trkpt>
      <trkpt lat="59.8974686" lon="17.6796946">
        <ele>24.651</ele>
        <time>2013-05-03T16:04:00Z</time>
      </trkpt>
      <trkpt lat="59.897436" lon="17.6797831">
        <ele>24.1703</ele>
        <time>2013-05-03T16:04:01Z</time>
      </trkpt>
      <trkpt lat="59.8974054" lon="17.6798713">
        <ele>24.1703</ele>
        <time>2013-05-03T16:04:02Z</time>
      </trkpt>
      <trkpt lat="59.8973749" lon="17.6799582">
        <ele>23.6896</ele>
        <time>2013-05-03T16:04:03Z</time>
      </trkpt>
      <trkpt lat="59.8973433" lon="17.6800448">
        <ele>23.6896</ele>
        <time>2013-05-03T16:04:04Z</time>
      </trkpt>
      <trkpt lat="59.8973115" lon="17.6801319">
        <ele>23.209</ele>
        <time>2013-05-03T16:04:05Z</time>
      </trkpt>
      <trkpt lat="59.8972796" lon="17.6802189">
        <ele>23.209</ele>
        <time>2013-05-03T16:04:06Z</time>
      </trkpt>
      <trkpt lat="59.8972484" lon="17.6803062">
        <ele>23.209</ele>
        <time>2013-05-03T16:04:07Z</time>
      </trkpt>
      <trkpt lat="59.8972169" lon="17.6803923">
        <ele>22.7283</ele>
        <time>2013-05-03T16:04:08Z</time>
      </trkpt>
      <trkpt lat="59.8971859" lon="17.6804781">
        <ele>22.7283</ele>
        <time>2013-05-03T16:04:09Z</time>
      </trkpt>
      <trkpt lat="59.8971551" lon="17.6805624">
        <ele>22.7283</ele>
        <time>2013-05-03T16:04:10Z</time>
      </trkpt>
      <trkpt lat="59.8971234" lon="17.680644">
        <ele>22.2476</ele>
        <time>2013-05-03T16:04:11Z</time>
      </trkpt>
      <trkpt lat="59.8970913" lon="17.6807228">
        <ele>22.2476</ele>
        <time>2013-05-03T16:04:12Z</time>
      </trkpt>
      <trkpt lat="59.8970579" lon="17.6808021">
        <ele>22.2476</ele>
        <time>2013-05-03T16:04:13Z</time>
      </trkpt>
      <trkpt lat="59.8970229" lon="17.6808819">
        <ele>21.767</ele>
        <time>2013-05-03T16:04:14Z</time>
      </trkpt>
      <trkpt lat="59.896987" lon="17.6809636">
        <ele>21.767</ele>
        <time>2013-05-03T16:04:15Z</time>
      </trkpt>
      <trkpt lat="59.8969517" lon="17.6810454">
        <ele>21.767</ele>
        <time>2013-05-03T16:04:16Z</time>
      </trkpt>
      <trkpt lat="59.8969144" lon="17.6811274">
        <ele>21.767</ele>
        <time>2013-05-03T16:04:17Z</time>
      </trkpt>
      <trkpt lat="59.8968766" lon="17.6812081">
        <ele>21.767</ele>
        <time>2013-05-03T16:04:18Z</time>
      </trkpt>
      <trkpt lat="59.8968387" lon="17.6812885">
        <ele>21.767</ele>
        <time>2013-05-03T16:04:19Z</time>
      </trkpt>
      <trkpt lat="59.8968008" lon="17.6813637">
        <ele>21.767</ele>
        <time>2013-05-03T16:04:20Z</time>
      </trkpt>
      <trkpt lat="59.8967634" lon="17.6814346">
        <ele>21.767</ele>
        <time>2013-05-03T16:04:21Z</time>
      </trkpt>
      <trkpt lat="59.8967251" lon="17.6814983">
        <ele>22.2476</ele>
        <time>2013-05-03T16:04:22Z</time>
      </trkpt>
      <trkpt lat="59.8966862" lon="17.6815597">
        <ele>22.2476</ele>
        <time>2013-05-03T16:04:23Z</time>
      </trkpt>
      <trkpt lat="59.8966476" lon="17.6816179">
        <ele>22.2476</ele>
        <time>2013-05-03T16:04:24Z</time>
      </trkpt>
      <trkpt lat="59.8966089" lon="17.6816704">
        <ele>22.2476</ele>
        <time>2013-05-03T16:04:25Z</time>
      </trkpt>
      <trkpt lat="59.8965697" lon="17.6817281">
        <ele>22.2476</ele>
        <time>2013-05-03T16:04:26Z</time>
      </trkpt>
      <trkpt lat="59.8965309" lon="17.6817838">
        <ele>22.2476</ele>
        <time>2013-05-03T16:04:27Z</time>
      </trkpt>
      <trkpt lat="59.8964926" lon="17.6818405">
        <ele>22.2476</ele>
        <time>2013-05-03T16:04:28Z</time>
      </trkpt>
      <trkpt lat="59.8964535" lon="17.6818931">
        <ele>22.2476</ele>
        <time>2013-05-03T16:04:29Z</time>
      </trkpt>
      <trkpt lat="59.8964133" lon="17.6819491">
        <ele>22.2476</ele>
        <time>2013-05-03T16:04:30Z</time>
      </trkpt>
      <trkpt lat="59.8963749" lon="17.6820059">
        <ele>22.7283</ele>
        <time>2013-05-03T16:04:31Z</time>
      </trkpt>
      <trkpt lat="59.8963397" lon="17.6820591">
        <ele>22.7283</ele>
        <time>2013-05-03T16:04:32Z</time>
      </trkpt>
      <trkpt lat="59.8963016" lon="17.6821074">
        <ele>22.7283</ele>
        <time>2013-05-03T16:04:33Z</time>
      </trkpt>
      <trkpt lat="59.8962617" lon="17.6821536">
        <ele>23.209</ele>
        <time>2013-05-03T16:04:34Z</time>
      </trkpt>
      <trkpt lat="59.8962185" lon="17.6821972">
        <ele>23.6896</ele>
        <time>2013-05-03T16:04:35Z</time>
      </trkpt>
      <trkpt lat="59.8961783" lon="17.682242">
        <ele>23.6896</ele>
        <time>2013-05-03T16:04:36Z</time>
      </trkpt>
      <trkpt lat="59.8961399" lon="17.6822841">
        <ele>23.6896</ele>
        <time>2013-05-03T16:04:37Z</time>
      </trkpt>
      <trkpt lat="59.8961036" lon="17.6823234">
        <ele>23.209</ele>
        <time>2013-05-03T16:04:38Z</time>
      </trkpt>
      <trkpt lat="59.8960705" lon="17.682366">
        <ele>23.209</ele>
        <time>2013-05-03T16:04:39Z</time>
      </trkpt>
      <trkpt lat="59.8960377" lon="17.6824072">
        <ele>23.209</ele>
        <time>2013-05-03T16:04:40Z</time>
      </trkpt>
      <trkpt lat="59.8960042" lon="17.6824395">
        <ele>23.6896</ele>
        <time>2013-05-03T16:04:41Z</time>
      </trkpt>
      <trkpt lat="59.8959711" lon="17.682464">
        <ele>23.209</ele>
        <time>2013-05-03T16:04:42Z</time>
      </trkpt>
      <trkpt lat="59.8959444" lon="17.6824861">
        <ele>23.209</ele>
        <time>2013-05-03T16:04:43Z</time>
      </trkpt>
      <trkpt lat="59.8959145" lon="17.6825166">
        <ele>23.209</ele>
        <time>2013-05-03T16:04:44Z</time>
      </trkpt>
      <trkpt lat="59.8958804" lon="17.6825426">
        <ele>23.209</ele>
        <time>2013-05-03T16:04:45Z</time>
      </trkpt>
      <trkpt lat="59.8958416" lon="17.6825683">
        <ele>23.209</ele>
        <time>2013-05-03T16:04:46Z</time>
      </trkpt>
      <trkpt lat="59.8958031" lon="17.6825966">
        <ele>23.209</ele>
        <time>2013-05-03T16:04:47Z</time>
      </trkpt>
      <trkpt lat="59.8957629" lon="17.6826276">
        <ele>23.6896</ele>
        <time>2013-05-03T16:04:48Z</time>
      </trkpt>
      <trkpt lat="59.895721" lon="17.6826613">
        <ele>23.6896</ele>
        <time>2013-05-03T16:04:49Z</time>
      </trkpt>
      <trkpt lat="59.8956768" lon="17.6826975">
        <ele>23.209</ele>
        <time>2013-05-03T16:04:50Z</time>
      </trkpt>
      <trkpt lat="59.8956307" lon="17.6827369">
        <ele>24.1703</ele>
        <time>2013-05-03T16:04:51Z</time>
      </trkpt>
      <trkpt lat="59.8955831" lon="17.6827822">
        <ele>24.1703</ele>
        <time>2013-05-03T16:04:52Z</time>
      </trkpt>
      <trkpt lat="59.8955357" lon="17.6828322">
        <ele>23.6896</ele>
        <time>2013-05-03T16:04:53Z</time>
      </trkpt>
      <trkpt lat="59.8954865" lon="17.6828834">
        <ele>23.6896</ele>
        <time>2013-05-03T16:04:54Z</time>
      </trkpt>
      <trkpt lat="59.8954412" lon="17.6829376">
        <ele>22.7283</ele>
        <time>2013-05-03T16:04:55Z</time>
      </trkpt>
      <trkpt lat="59.8953981" lon="17.6829937">
        <ele>21.767</ele>
        <time>2013-05-03T16:04:56Z</time>
      </trkpt>
      <trkpt lat="59.8953525" lon="17.6830502">
        <ele>20.325</ele>
        <time>2013-05-03T16:04:57Z</time>
      </trkpt>
      <trkpt lat="59.8953075" lon="17.6831048">
        <ele>19.3638</ele>
        <time>2013-05-03T16:04:58Z</time>
      </trkpt>
      <trkpt lat="59.8952627" lon="17.6831623">
        <ele>18.4023</ele>
        <time>2013-05-03T16:04:59Z</time>
      </trkpt>
      <trkpt lat="59.8952163" lon="17.6832165">
        <ele>18.4023</ele>
        <time>2013-05-03T16:05:00Z</time>
      </trkpt>
      <trkpt lat="59.895168" lon="17.6832801">
        <ele>18.4023</ele>
        <time>2013-05-03T16:05:01Z</time>
      </trkpt>
      <trkpt lat="59.8951214" lon="17.6833475">
        <ele>18.8831</ele>
        <time>2013-05-03T16:05:02Z</time>
      </trkpt>
      <trkpt lat="59.8950794" lon="17.6834176">
        <ele>19.3638</ele>
        <time>2013-05-03T16:05:03Z</time>
      </trkpt>
      <trkpt lat="59.8950426" lon="17.6834879">
        <ele>18.8831</ele>
        <time>2013-05-03T16:05:04Z</time>
      </trkpt>
      <trkpt lat="59.895006" lon="17.6835537">
        <ele>19.3638</ele>
        <time>2013-05-03T16:05:05Z</time>
      </trkpt>
      <trkpt lat="59.8949755" lon="17.6836269">
        <ele>19.8444</ele>
        <time>2013-05-03T16:05:06Z</time>
      </trkpt>
      <trkpt lat="59.894951" lon="17.6837035">
        <ele>21.2864</ele>
        <time>2013-05-03T16:05:07Z</time>
      </trkpt>
      <trkpt lat="59.8949284" lon="17.6837853">
        <ele>22.2476</ele>
        <time>2013-05-03T16:05:08Z</time>
      </trkpt>
      <trkpt lat="59.8949105" lon="17.6838688">
        <ele>23.209</ele>
        <time>2013-05-03T16:05:09Z</time>
      </trkpt>
      <trkpt lat="59.8948979" lon="17.6839587">
        <ele>21.767</ele>
        <time>2013-05-03T16:05:10Z</time>
      </trkpt>
      <trkpt lat="59.8948838" lon="17.6840579">
        <ele>21.2864</ele>
        <time>2013-05-03T16:05:11Z</time>
      </trkpt>
      <trkpt lat="59.894867" lon="17.684157">
        <ele>21.767</ele>
        <time>2013-05-03T16:05:12Z</time>
      </trkpt>
      <trkpt lat="59.8948548" lon="17.6842566">
        <ele>21.767</ele>
        <time>2013-05-03T16:05:13Z</time>
      </trkpt>
      <trkpt lat="59.8948442" lon="17.6843593">
        <ele>21.767</ele>
        <time>2013-05-03T16:05:14Z</time>
      </trkpt>
      <trkpt lat="59.8948315" lon="17.684468">
        <ele>22.2476</ele>
        <time>2013-05-03T16:05:15Z</time>
      </trkpt>
      <trkpt lat="59.8948191" lon="17.6845859">
        <ele>22.7283</ele>
        <time>2013-05-03T16:05:16Z</time>
      </trkpt>
      <trkpt lat="59.8948043" lon="17.684711">
        <ele>23.6896</ele>
        <time>2013-05-03T16:05:17Z</time>
      </trkpt>
      <trkpt lat="59.8947912" lon="17.6848352">
        <ele>23.6896</ele>
        <time>2013-05-03T16:05:18Z</time>
      </trkpt>
      <trkpt lat="59.894782" lon="17.6849556">
        <ele>24.1703</ele>
        <time>2013-05-03T16:05:19Z</time>
      </trkpt>
      <trkpt lat="59.8947765" lon="17.6850763">
        <ele>23.209</ele>
        <time>2013-05-03T16:05:20Z</time>
      </trkpt>
      <trkpt lat="59.8947724" lon="17.6851952">
        <ele>21.767</ele>
        <time>2013-05-03T16:05:21Z</time>
      </trkpt>
      <trkpt lat="59.8947698" lon="17.6853052">
        <ele>20.8057</ele>
        <time>2013-05-03T16:05:22Z</time>
      </trkpt>
      <trkpt lat="59.8947652" lon="17.6854195">
        <ele>20.325</ele>
        <time>2013-05-03T16:05:23Z</time>
      </trkpt>
      <trkpt lat="59.8947547" lon="17.6855334">
        <ele>20.8057</ele>
        <time>2013-05-03T16:05:24Z</time>
      </trkpt>
      <trkpt lat="59.894746" lon="17.6856458">
        <ele>20.325</ele>
        <time>2013-05-03T16:05:25Z</time>
      </trkpt>
      <trkpt lat="59.894737" lon="17.6857639">
        <ele>19.8444</ele>
        <time>2013-05-03T16:05:26Z</time>
      </trkpt>
      <trkpt lat="59.8947278" lon="17.6858818">
        <ele>19.8444</ele>
        <time>2013-05-03T16:05:27Z</time>
      </trkpt>
      <trkpt lat="59.8947189" lon="17.6860007">
        <ele>19.8444</ele>
        <time>2013-05-03T16:05:28Z</time>
      </trkpt>
      <trkpt lat="59.8947087" lon="17.6861185">
        <ele>19.8444</ele>
        <time>2013-05-03T16:05:29Z</time>
      </trkpt>
      <trkpt lat="59.8946957" lon="17.6862355">
        <ele>19.8444</ele>
        <time>2013-05-03T16:05:30Z</time>
      </trkpt>
      <trkpt lat="59.8946806" lon="17.6863511">
        <ele>19.8444</ele>
        <time>2013-05-03T16:05:31Z</time>
      </trkpt>
      <trkpt lat="59.8946646" lon="17.6864681">
        <ele>20.325</ele>
        <time>2013-05-03T16:05:32Z</time>
      </trkpt>
      <trkpt lat="59.8946479" lon="17.6865861">
        <ele>20.325</ele>
        <time>2013-05-03T16:05:33Z</time>
      </trkpt>
      <trkpt lat="59.8946297" lon="17.6867039">
        <ele>20.325</ele>
        <time>2013-05-03T16:05:34Z</time>
      </trkpt>
      <trkpt lat="59.8946101" lon="17.6868214">
        <ele>20.8057</ele>
        <time>2013-05-03T16:05:35Z</time>
      </trkpt>
      <trkpt lat="59.89459" lon="17.6869372">
        <ele>20.8057</ele>
        <time>2013-05-03T16:05:36Z</time>
      </trkpt>
      <trkpt lat="59.8945697" lon="17.6870498">
        <ele>21.2864</ele>
        <time>2013-05-03T16:05:37Z</time>
      </trkpt>
      <trkpt lat="59.894549" lon="17.6871613">
        <ele>21.2864</ele>
        <time>2013-05-03T16:05:38Z</time>
      </trkpt>
      <trkpt lat="59.894528" lon="17.6872716">
        <ele>21.2864</ele>
        <time>2013-05-03T16:05:39Z</time>
      </trkpt>
      <trkpt lat="59.8945068" lon="17.6873803">
        <ele>21.767</ele>
        <time>2013-05-03T16:05:40Z</time>
      </trkpt>
      <trkpt lat="59.894484" lon="17.6874865">
        <ele>21.767</ele>
        <time>2013-05-03T16:05:41Z</time>
      </trkpt>
      <trkpt lat="59.8944599" lon="17.6875922">
        <ele>22.2476</ele>
        <time>2013-05-03T16:05:42Z</time>
      </trkpt>
      <trkpt lat="59.8944352" lon="17.6876973">
        <ele>22.2476</ele>
        <time>2013-05-03T16:05:43Z</time>
      </trkpt>
      <trkpt lat="59.8944113" lon="17.6878033">
        <ele>22.7283</ele>
        <time>2013-05-03T16:05:44Z</time>
      </trkpt>
      <trkpt lat="59.8943874" lon="17.6879091">
        <ele>22.7283</ele>
        <time>2013-05-03T16:05:45Z</time>
      </trkpt>
      <trkpt lat="59.8943621" lon="17.6880136">
        <ele>22.7283</ele>
        <time>2013-05-03T16:05:46Z</time>
      </trkpt>
      <trkpt lat="59.8943368" lon="17.6881165">
        <ele>22.7283</ele>
        <time>2013-05-03T16:05:47Z</time>
      </trkpt>
      <trkpt lat="59.8943153" lon="17.6882193">
        <ele>22.7283</ele>
        <time>2013-05-03T16:05:48Z</time>
      </trkpt>
      <trkpt lat="59.8942938" lon="17.6883209">
        <ele>23.209</ele>
        <time>2013-05-03T16:05:49Z</time>
      </trkpt>
      <trkpt lat="59.8942723" lon="17.6884209">
        <ele>23.6896</ele>
        <time>2013-05-03T16:05:50Z</time>
      </trkpt>
      <trkpt lat="59.8942527" lon="17.6885179">
        <ele>24.1703</ele>
        <time>2013-05-03T16:05:51Z</time>
      </trkpt>
      <trkpt lat="59.8942368" lon="17.6886073">
        <ele>24.651</ele>
        <time>2013-05-03T16:05:52Z</time>
      </trkpt>
      <trkpt lat="59.8942247" lon="17.688697">
        <ele>25.1317</ele>
        <time>2013-05-03T16:05:53Z</time>
      </trkpt>
      <trkpt lat="59.8942139" lon="17.688796">
        <ele>24.651</ele>
        <time>2013-05-03T16:05:54Z</time>
      </trkpt>
      <trkpt lat="59.8942001" lon="17.6888982">
        <ele>25.1317</ele>
        <time>2013-05-03T16:05:55Z</time>
      </trkpt>
      <trkpt lat="59.894186" lon="17.6890017">
        <ele>25.6123</ele>
        <time>2013-05-03T16:05:56Z</time>
      </trkpt>
      <trkpt lat="59.8941751" lon="17.6891097">
        <ele>24.651</ele>
        <time>2013-05-03T16:05:57Z</time>
      </trkpt>
      <trkpt lat="59.8941627" lon="17.6892115">
        <ele>24.651</ele>
        <time>2013-05-03T16:05:58Z</time>
      </trkpt>
      <trkpt lat="59.8941508" lon="17.6893119">
        <ele>24.651</ele>
        <time>2013-05-03T16:05:59Z</time>
      </trkpt>
      <trkpt lat="59.8941398" lon="17.689414">
        <ele>24.651</ele>
        <time>2013-05-03T16:06:00Z</time>
      </trkpt>
      <trkpt lat="59.8941285" lon="17.6895139">
        <ele>24.651</ele>
        <time>2013-05-03T16:06:01Z</time>
      </trkpt>
      <trkpt lat="59.894117" lon="17.6896141">
        <ele>24.651</ele>
        <time>2013-05-03T16:06:02Z</time>
      </trkpt>
      <trkpt lat="59.8941052" lon="17.6897124">
        <ele>24.651</ele>
        <time>2013-05-03T16:06:03Z</time>
      </trkpt>
      <trkpt lat="59.8940934" lon="17.6898094">
        <ele>24.651</ele>
        <time>2013-05-03T16:06:04Z</time>
      </trkpt>
      <trkpt lat="59.8940807" lon="17.6899065">
        <ele>24.1703</ele>
        <time>2013-05-03T16:06:05Z</time>
      </trkpt>
      <trkpt lat="59.8940685" lon="17.690003">
        <ele>24.1703</ele>
        <time>2013-05-03T16:06:06Z</time>
      </trkpt>
      <trkpt lat="59.8940586" lon="17.6900988">
        <ele>24.1703</ele>
        <time>2013-05-03T16:06:07Z</time>
      </trkpt>
      <trkpt lat="59.8940463" lon="17.6901867">
        <ele>24.651</ele>
        <time>2013-05-03T16:06:08Z</time>
      </trkpt>
      <trkpt lat="59.894034" lon="17.6902781">
        <ele>24.651</ele>
        <time>2013-05-03T16:06:09Z</time>
      </trkpt>
      <trkpt lat="59.8940202" lon="17.69037">
        <ele>25.1317</ele>
        <time>2013-05-03T16:06:10Z</time>
      </trkpt>
      <trkpt lat="59.8940068" lon="17.6904656">
        <ele>24.651</ele>
        <time>2013-05-03T16:06:11Z</time>
      </trkpt>
      <trkpt lat="59.8939902" lon="17.6905644">
        <ele>24.1703</ele>
        <time>2013-05-03T16:06:12Z</time>
      </trkpt>
      <trkpt lat="59.8939768" lon="17.6906663">
        <ele>23.6896</ele>
        <time>2013-05-03T16:06:13Z</time>
      </trkpt>
      <trkpt lat="59.8939608" lon="17.6907696">
        <ele>23.209</ele>
        <time>2013-05-03T16:06:14Z</time>
      </trkpt>
      <trkpt lat="59.8939435" lon="17.6908793">
        <ele>23.6896</ele>
        <time>2013-05-03T16:06:15Z</time>
      </trkpt>
      <trkpt lat="59.893925" lon="17.6909981">
        <ele>23.6896</ele>
        <time>2013-05-03T16:06:16Z</time>
      </trkpt>
      <trkpt lat="59.8939084" lon="17.6911214">
        <ele>24.1703</ele>
        <time>2013-05-03T16:06:17Z</time>
      </trkpt>
      <trkpt lat="59.8938964" lon="17.6912492">
        <ele>24.1703</ele>
        <time>2013-05-03T16:06:18Z</time>
      </trkpt>
      <trkpt lat="59.8938852" lon="17.6913755">
        <ele>24.651</ele>
        <time>2013-05-03T16:06:19Z</time>
      </trkpt>
      <trkpt lat="59.8938741" lon="17.6915073">
        <ele>24.651</ele>
        <time>2013-05-03T16:06:20Z</time>
      </trkpt>
      <trkpt lat="59.8938665" lon="17.6916368">
        <ele>23.6896</ele>
        <time>2013-05-03T16:06:21Z</time>
      </trkpt>
      <trkpt lat="59.8938607" lon="17.6917705">
        <ele>23.209</ele>
        <time>2013-05-03T16:06:22Z</time>
      </trkpt>
      <trkpt lat="59.893855" lon="17.691904">
        <ele>22.7283</ele>
        <time>2013-05-03T16:06:23Z</time>
      </trkpt>
      <trkpt lat="59.8938524" lon="17.692038">
        <ele>21.767</ele>
        <time>2013-05-03T16:06:24Z</time>
      </trkpt>
      <trkpt lat="59.8938513" lon="17.6921787">
        <ele>20.8057</ele>
        <time>2013-05-03T16:06:25Z</time>
      </trkpt>
      <trkpt lat="59.8938523" lon="17.69232">
        <ele>20.8057</ele>
        <time>2013-05-03T16:06:26Z</time>
      </trkpt>
      <trkpt lat="59.8938498" lon="17.6924626">
        <ele>20.325</ele>
        <time>2013-05-03T16:06:27Z</time>
      </trkpt>
      <trkpt lat="59.8938477" lon="17.6926065">
        <ele>19.3638</ele>
        <time>2013-05-03T16:06:28Z</time>
      </trkpt>
      <trkpt lat="59.8938432" lon="17.6927515">
        <ele>18.4023</ele>
        <time>2013-05-03T16:06:29Z</time>
      </trkpt>
      <trkpt lat="59.8938388" lon="17.6928941">
        <ele>18.4023</ele>
        <time>2013-05-03T16:06:30Z</time>
      </trkpt>
      <trkpt lat="59.8938339" lon="17.6930364">
        <ele>17.9218</ele>
        <time>2013-05-03T16:06:31Z</time>
      </trkpt>
      <trkpt lat="59.8938295" lon="17.6931747">
        <ele>17.4412</ele>
        <time>2013-05-03T16:06:32Z</time>
      </trkpt>
      <trkpt lat="59.8938255" lon="17.6933096">
        <ele>17.4412</ele>
        <time>2013-05-03T16:06:33Z</time>
      </trkpt>
      <trkpt lat="59.8938219" lon="17.6934413">
        <ele>16.9604</ele>
        <time>2013-05-03T16:06:34Z</time>
      </trkpt>
      <trkpt lat="59.8938177" lon="17.6935691">
        <ele>16.4797</ele>
        <time>2013-05-03T16:06:35Z</time>
      </trkpt>
      <trkpt lat="59.8938136" lon="17.6936948">
        <ele>15.999</ele>
        <time>2013-05-03T16:06:36Z</time>
      </trkpt>
      <trkpt lat="59.8938105" lon="17.6938185">
        <ele>15.5184</ele>
        <time>2013-05-03T16:06:37Z</time>
      </trkpt>
      <trkpt lat="59.8938073" lon="17.6939389">
        <ele>15.0377</ele>
        <time>2013-05-03T16:06:38Z</time>
      </trkpt>
      <trkpt lat="59.893804" lon="17.6940578">
        <ele>14.557</ele>
        <time>2013-05-03T16:06:39Z</time>
      </trkpt>
      <trkpt lat="59.8938017" lon="17.6941774">
        <ele>14.0764</ele>
        <time>2013-05-03T16:06:40Z</time>
      </trkpt>
      <trkpt lat="59.8937995" lon="17.6942977">
        <ele>13.5958</ele>
        <time>2013-05-03T16:06:41Z</time>
      </trkpt>
      <trkpt lat="59.893797" lon="17.6944155">
        <ele>14.557</ele>
        <time>2013-05-03T16:06:42Z</time>
      </trkpt>
      <trkpt lat="59.8937939" lon="17.6945372">
        <ele>15.0377</ele>
        <time>2013-05-03T16:06:43Z</time>
      </trkpt>
      <trkpt lat="59.8937914" lon="17.6946604">
        <ele>15.0377</ele>
        <time>2013-05-03T16:06:44Z</time>
      </trkpt>
      <trkpt lat="59.8937881" lon="17.6947847">
        <ele>15.0377</ele>
        <time>2013-05-03T16:06:45Z</time>
      </trkpt>
      <trkpt lat="59.8937847" lon="17.6949053">
        <ele>14.557</ele>
        <time>2013-05-03T16:06:46Z</time>
      </trkpt>
      <trkpt lat="59.8937813" lon="17.6950242">
        <ele>14.557</ele>
        <time>2013-05-03T16:06:47Z</time>
      </trkpt>
      <trkpt lat="59.8937788" lon="17.6951391">
        <ele>15.0377</ele>
        <time>2013-05-03T16:06:48Z</time>
      </trkpt>
      <trkpt lat="59.8937757" lon="17.6952505">
        <ele>15.5184</ele>
        <time>2013-05-03T16:06:49Z</time>
      </trkpt>
      <trkpt lat="59.8937711" lon="17.695355">
        <ele>15.999</ele>
        <time>2013-05-03T16:06:50Z</time>
      </trkpt>
      <trkpt lat="59.8937665" lon="17.6954567">
        <ele>15.999</ele>
        <time>2013-05-03T16:06:51Z</time>
      </trkpt>
      <trkpt lat="59.8937631" lon="17.6955616">
        <ele>16.4797</ele>
        <time>2013-05-03T16:06:52Z</time>
      </trkpt>
      <trkpt lat="59.8937588" lon="17.6956674">
        <ele>16.4797</ele>
        <time>2013-05-03T16:06:53Z</time>
      </trkpt>
      <trkpt lat="59.8937566" lon="17.6957716">
        <ele>15.999</ele>
        <time>2013-05-03T16:06:54Z</time>
      </trkpt>
      <trkpt lat="59.8937572" lon="17.6958778">
        <ele>15.999</ele>
        <time>2013-05-03T16:06:55Z</time>
      </trkpt>
      <trkpt lat="59.8937595" lon="17.6959813">
        <ele>16.9604</ele>
        <time>2013-05-03T16:06:56Z</time>
      </trkpt>
      <trkpt lat="59.8937627" lon="17.6960798">
        <ele>17.4412</ele>
        <time>2013-05-03T16:06:57Z</time>
      </trkpt>
      <trkpt lat="59.89376" lon="17.6961762">
        <ele>17.4412</ele>
        <time>2013-05-03T16:06:58Z</time>
      </trkpt>
      <trkpt lat="59.8937611" lon="17.69627">
        <ele>17.4412</ele>
        <time>2013-05-03T16:06:59Z</time>
      </trkpt>
      <trkpt lat="59.8937631" lon="17.6963627">
        <ele>16.9604</ele>
        <time>2013-05-03T16:07:00Z</time>
      </trkpt>
      <trkpt lat="59.8937633" lon="17.6964598">
        <ele>16.9604</ele>
        <time>2013-05-03T16:07:01Z</time>
      </trkpt>
      <trkpt lat="59.8937621" lon="17.6965496">
        <ele>16.9604</ele>
        <time>2013-05-03T16:07:02Z</time>
      </trkpt>
      <trkpt lat="59.8937612" lon="17.6966371">
        <ele>16.9604</ele>
        <time>2013-05-03T16:07:03Z</time>
      </trkpt>
      <trkpt lat="59.8937628" lon="17.6967348">
        <ele>17.9218</ele>
        <time>2013-05-03T16:07:04Z</time>
      </trkpt>
      <trkpt lat="59.893759" lon="17.6968511">
        <ele>17.9218</ele>
        <time>2013-05-03T16:07:05Z</time>
      </trkpt>
      <trkpt lat="59.8937531" lon="17.6969681">
        <ele>17.4412</ele>
        <time>2013-05-03T16:07:06Z</time>
      </trkpt>
      <trkpt lat="59.8937462" lon="17.6970895">
        <ele>17.4412</ele>
        <time>2013-05-03T16:07:07Z</time>
      </trkpt>
      <trkpt lat="59.8937328" lon="17.6972126">
        <ele>16.9604</ele>
        <time>2013-05-03T16:07:08Z</time>
      </trkpt>
      <trkpt lat="59.8937171" lon="17.6973384">
        <ele>16.4797</ele>
        <time>2013-05-03T16:07:09Z</time>
      </trkpt>
      <trkpt lat="59.8936976" lon="17.6974638">
        <ele>15.999</ele>
        <time>2013-05-03T16:07:10Z</time>
      </trkpt>
      <trkpt lat="59.8936747" lon="17.6975906">
        <ele>16.4797</ele>
        <time>2013-05-03T16:07:11Z</time>
      </trkpt>
      <trkpt lat="59.8936497" lon="17.6977131">
        <ele>16.4797</ele>
        <time>2013-05-03T16:07:12Z</time>
      </trkpt>
      <trkpt lat="59.8936224" lon="17.6978313">
        <ele>16.9604</ele>
        <time>2013-05-03T16:07:13Z</time>
      </trkpt>
      <trkpt lat="59.8935959" lon="17.697946">
        <ele>17.4412</ele>
        <time>2013-05-03T16:07:14Z</time>
      </trkpt>
      <trkpt lat="59.8935687" lon="17.6980569">
        <ele>17.9218</ele>
        <time>2013-05-03T16:07:15Z</time>
      </trkpt>
      <trkpt lat="59.8935369" lon="17.6981596">
        <ele>17.9218</ele>
        <time>2013-05-03T16:07:16Z</time>
      </trkpt>
      <trkpt lat="59.8935038" lon="17.6982554">
        <ele>17.9218</ele>
        <time>2013-05-03T16:07:17Z</time>
      </trkpt>
      <trkpt lat="59.893467" lon="17.6983425">
        <ele>17.9218</ele>
        <time>2013-05-03T16:07:18Z</time>
      </trkpt>
      <trkpt lat="59.8934278" lon="17.6984215">
        <ele>17.9218</ele>
        <time>2013-05-03T16:07:19Z</time>
      </trkpt>
      <trkpt lat="59.8933872" lon="17.6984941">
        <ele>17.9218</ele>
        <time>2013-05-03T16:07:20Z</time>
      </trkpt>
      <trkpt lat="59.8933441" lon="17.698559">
        <ele>18.4023</ele>
        <time>2013-05-03T16:07:21Z</time>
      </trkpt>
      <trkpt lat="59.8933007" lon="17.6986222">
        <ele>18.4023</ele>
        <time>2013-05-03T16:07:22Z</time>
      </trkpt>
      <trkpt lat="59.8932655" lon="17.6986973">
        <ele>18.4023</ele>
        <time>2013-05-03T16:07:23Z</time>
      </trkpt>
      <trkpt lat="59.8932397" lon="17.6987838">
        <ele>18.4023</ele>
        <time>2013-05-03T16:07:24Z</time>
      </trkpt>
      <trkpt lat="59.8932241" lon="17.6988813">
        <ele>18.4023</ele>
        <time>2013-05-03T16:07:25Z</time>
      </trkpt>
      <trkpt lat="59.8932157" lon="17.6989852">
        <ele>18.4023</ele>
        <time>2013-05-03T16:07:26Z</time>
      </trkpt>
      <trkpt lat="59.893205" lon="17.6990904">
        <ele>18.4023</ele>
        <time>2013-05-03T16:07:27Z</time>
      </trkpt>
      <trkpt lat="59.8931887" lon="17.6991918">
        <ele>18.4023</ele>
        <time>2013-05-03T16:07:28Z</time>
      </trkpt>
      <trkpt lat="59.8931684" lon="17.6992847">
        <ele>18.4023</ele>
        <time>2013-05-03T16:07:29Z</time>
      </trkpt>
      <trkpt lat="59.8931423" lon="17.699368">
        <ele>18.4023</ele>
        <time>2013-05-03T16:07:30Z</time>
      </trkpt>
      <trkpt lat="59.8931113" lon="17.6994425">
        <ele>18.4023</ele>
        <time>2013-05-03T16:07:31Z</time>
      </trkpt>
      <trkpt lat="59.893079" lon="17.6995126">
        <ele>18.4023</ele>
        <time>2013-05-03T16:07:32Z</time>
      </trkpt>
      <trkpt lat="59.8930473" lon="17.6995825">
        <ele>17.9218</ele>
        <time>2013-05-03T16:07:33Z</time>
      </trkpt>
      <trkpt lat="59.8930169" lon="17.6996518">
        <ele>17.9218</ele>
        <time>2013-05-03T16:07:34Z</time>
      </trkpt>
      <trkpt lat="59.8929878" lon="17.6997204">
        <ele>17.4412</ele>
        <time>2013-05-03T16:07:35Z</time>
      </trkpt>
      <trkpt lat="59.8929589" lon="17.6997867">
        <ele>17.4412</ele>
        <time>2013-05-03T16:07:36Z</time>
      </trkpt>
      <trkpt lat="59.8929299" lon="17.6998522">
        <ele>16.9604</ele>
        <time>2013-05-03T16:07:37Z</time>
      </trkpt>
      <trkpt lat="59.8929011" lon="17.6999193">
        <ele>16.9604</ele>
        <time>2013-05-03T16:07:38Z</time>
      </trkpt>
      <trkpt lat="59.8928728" lon="17.6999831">
        <ele>16.9604</ele>
        <time>2013-05-03T16:07:39Z</time>
      </trkpt>
      <trkpt lat="59.892845" lon="17.7000411">
        <ele>16.9604</ele>
        <time>2013-05-03T16:07:40Z</time>
      </trkpt>
      <trkpt lat="59.8928175" lon="17.7001016">
        <ele>16.9604</ele>
        <time>2013-05-03T16:07:41Z</time>
      </trkpt>
      <trkpt lat="59.8927887" lon="17.7001699">
        <ele>16.4797</ele>
        <time>2013-05-03T16:07:42Z</time>
      </trkpt>
      <trkpt lat="59.8927602" lon="17.7002394">
        <ele>16.4797</ele>
        <time>2013-05-03T16:07:43Z</time>
      </trkpt>
      <trkpt lat="59.8927341" lon="17.7003086">
        <ele>15.999</ele>
        <time>2013-05-03T16:07:44Z</time>
      </trkpt>
      <trkpt lat="59.8927076" lon="17.7003746">
        <ele>15.999</ele>
        <time>2013-05-03T16:07:45Z</time>
      </trkpt>
      <trkpt lat="59.8926811" lon="17.7004378">
        <ele>15.5184</ele>
        <time>2013-05-03T16:07:46Z</time>
      </trkpt>
      <trkpt lat="59.8926551" lon="17.7005011">
        <ele>15.999</ele>
        <time>2013-05-03T16:07:47Z</time>
      </trkpt>
      <trkpt lat="59.8926284" lon="17.7005593">
        <ele>15.999</ele>
        <time>2013-05-03T16:07:48Z</time>
      </trkpt>
      <trkpt lat="59.8926014" lon="17.7006207">
        <ele>15.999</ele>
        <time>2013-05-03T16:07:49Z</time>
      </trkpt>
      <trkpt lat="59.8925759" lon="17.7006834">
        <ele>15.999</ele>
        <time>2013-05-03T16:07:50Z</time>
      </trkpt>
      <trkpt lat="59.8925527" lon="17.7007473">
        <ele>15.999</ele>
        <time>2013-05-03T16:07:51Z</time>
      </trkpt>
      <trkpt lat="59.8925318" lon="17.7008045">
        <ele>15.999</ele>
        <time>2013-05-03T16:07:52Z</time>
      </trkpt>
      <trkpt lat="59.8925123" lon="17.7008509">
        <ele>15.999</ele>
        <time>2013-05-03T16:07:53Z</time>
      </trkpt>
      <trkpt lat="59.8924972" lon="17.7008874">
        <ele>15.999</ele>
        <time>2013-05-03T16:07:54Z</time>
      </trkpt>
      <trkpt lat="59.8924876" lon="17.7009118">
        <ele>16.4797</ele>
        <time>2013-05-03T16:07:55Z</time>
      </trkpt>
      <trkpt lat="59.8924801" lon="17.7009224">
        <ele>15.999</ele>
        <time>2013-05-03T16:07:56Z</time>
      </trkpt>
      <trkpt lat="59.8924731" lon="17.7009233">
        <ele>15.999</ele>
        <time>2013-05-03T16:07:57Z</time>
      </trkpt>
      <trkpt lat="59.8924655" lon="17.7009226">
        <ele>15.999</ele>
        <time>2013-05-03T16:07:58Z</time>
      </trkpt>
      <trkpt lat="59.8924551" lon="17.7009289">
        <ele>16.4797</ele>
        <time>2013-05-03T16:07:59Z</time>
      </trkpt>
      <trkpt lat="59.8924475" lon="17.7009449">
        <ele>17.4412</ele>
        <time>2013-05-03T16:08:00Z</time>
      </trkpt>
      <trkpt lat="59.8924419" lon="17.7009637">
        <ele>17.4412</ele>
        <time>2013-05-03T16:08:01Z</time>
      </trkpt>
      <trkpt lat="59.892434" lon="17.7009828">
        <ele>17.4412</ele>
        <time>2013-05-03T16:08:02Z</time>
      </trkpt>
      <trkpt lat="59.8924258" lon="17.7010038">
        <ele>17.4412</ele>
        <time>2013-05-03T16:08:03Z</time>
      </trkpt>
      <trkpt lat="59.8924184" lon="17.701026">
        <ele>17.4412</ele>
        <time>2013-05-03T16:08:04Z</time>
      </trkpt>
      <trkpt lat="59.8924156" lon="17.7010486">
        <ele>16.9604</ele>
        <time>2013-05-03T16:08:05Z</time>
      </trkpt>
      <trkpt lat="59.8924196" lon="17.7010739">
        <ele>16.9604</ele>
        <time>2013-05-03T16:08:06Z</time>
      </trkpt>
      <trkpt lat="59.8924308" lon="17.7010925">
        <ele>17.4412</ele>
        <time>2013-05-03T16:08:07Z</time>
      </trkpt>
      <trkpt lat="59.8924453" lon="17.7011094">
        <ele>17.9218</ele>
        <time>2013-05-03T16:08:08Z</time>
      </trkpt>
      <trkpt lat="59.8924595" lon="17.7011298">
        <ele>17.9218</ele>
        <time>2013-05-03T16:08:09Z</time>
      </trkpt>
      <trkpt lat="59.8924728" lon="17.7011491">
        <ele>17.9218</ele>
        <time>2013-05-03T16:08:10Z</time>
      </trkpt>
      <trkpt lat="59.8924849" lon="17.7011687">
        <ele>18.4023</ele>
        <time>2013-05-03T16:08:11Z</time>
      </trkpt>
      <trkpt lat="59.8924977" lon="17.7011863">
        <ele>18.4023</ele>
        <time>2013-05-03T16:08:12Z</time>
      </trkpt>
      <trkpt lat="59.8925091" lon="17.7012037">
        <ele>18.8831</ele>
        <time>2013-05-03T16:08:13Z</time>
      </trkpt>
      <trkpt lat="59.8925197" lon="17.7012231">
        <ele>18.8831</ele>
        <time>2013-05-03T16:08:14Z</time>
      </trkpt>
      <trkpt lat="59.8925334" lon="17.7012449">
        <ele>18.8831</ele>
        <time>2013-05-03T16:08:15Z</time>
      </trkpt>
      <trkpt lat="59.8925496" lon="17.7012666">
        <ele>19.3638</ele>
        <time>2013-05-03T16:08:16Z</time>
      </trkpt>
      <trkpt lat="59.8925666" lon="17.7012882">
        <ele>19.3638</ele>
        <time>2013-05-03T16:08:17Z</time>
      </trkpt>
      <trkpt lat="59.8925833" lon="17.7013133">
        <ele>19.3638</ele>
        <time>2013-05-03T16:08:18Z</time>
      </trkpt>
      <trkpt lat="59.8925981" lon="17.7013381">
        <ele>19.3638</ele>
        <time>2013-05-03T16:08:19Z</time>
      </trkpt>
      <trkpt lat="59.8926118" lon="17.7013607">
        <ele>19.8444</ele>
        <time>2013-05-03T16:08:20Z</time>
      </trkpt>
      <trkpt lat="59.8926252" lon="17.7013825">
        <ele>19.8444</ele>
        <time>2013-05-03T16:08:21Z</time>
      </trkpt>
      <trkpt lat="59.8926387" lon="17.7014017">
        <ele>19.8444</ele>
        <time>2013-05-03T16:08:22Z</time>
      </trkpt>
      <trkpt lat="59.8926535" lon="17.7014256">
        <ele>19.3638</ele>
        <time>2013-05-03T16:08:23Z</time>
      </trkpt>
      <trkpt lat="59.8926698" lon="17.7014494">
        <ele>19.3638</ele>
        <time>2013-05-03T16:08:24Z</time>
      </trkpt>
      <trkpt lat="59.8926893" lon="17.7014759">
        <ele>19.8444</ele>
        <time>2013-05-03T16:08:25Z</time>
      </trkpt>
      <trkpt lat="59.8927121" lon="17.7015065">
        <ele>19.8444</ele>
        <time>2013-05-03T16:08:26Z</time>
      </trkpt>
      <trkpt lat="59.892739" lon="17.7015427">
        <ele>20.325</ele>
        <time>2013-05-03T16:08:27Z</time>
      </trkpt>
      <trkpt lat="59.8927673" lon="17.7015835">
        <ele>20.325</ele>
        <time>2013-05-03T16:08:28Z</time>
      </trkpt>
      <trkpt lat="59.8927967" lon="17.7016214">
        <ele>20.325</ele>
        <time>2013-05-03T16:08:29Z</time>
      </trkpt>
      <trkpt lat="59.8928252" lon="17.7016624">
        <ele>19.8444</ele>
        <time>2013-05-03T16:08:30Z</time>
      </trkpt>
      <trkpt lat="59.8928547" lon="17.7017053">
        <ele>18.8831</ele>
        <time>2013-05-03T16:08:31Z</time>
      </trkpt>
      <trkpt lat="59.8928856" lon="17.7017515">
        <ele>18.8831</ele>
        <time>2013-05-03T16:08:32Z</time>
      </trkpt>
      <trkpt lat="59.8929173" lon="17.7017996">
        <ele>18.8831</ele>
        <time>2013-05-03T16:08:33Z</time>
      </trkpt>
      <trkpt lat="59.8929481" lon="17.7018446">
        <ele>18.4023</ele>
        <time>2013-05-03T16:08:34Z</time>
      </trkpt>
      <trkpt lat="59.8929776" lon="17.7018877">
        <ele>18.4023</ele>
        <time>2013-05-03T16:08:35Z</time>
      </trkpt>
      <trkpt lat="59.8930049" lon="17.7019323">
        <ele>18.8831</ele>
        <time>2013-05-03T16:08:36Z</time>
      </trkpt>
      <trkpt lat="59.8930319" lon="17.7019719">
        <ele>18.4023</ele>
        <time>2013-05-03T16:08:37Z</time>
      </trkpt>
      <trkpt lat="59.89306" lon="17.7020062">
        <ele>18.4023</ele>
        <time>2013-05-03T16:08:38Z</time>
      </trkpt>
      <trkpt lat="59.8930871" lon="17.702043">
        <ele>18.4023</ele>
        <time>2013-05-03T16:08:39Z</time>
      </trkpt>
      <trkpt lat="59.8931138" lon="17.7020805">
        <ele>17.9218</ele>
        <time>2013-05-03T16:08:40Z</time>
      </trkpt>
      <trkpt lat="59.8931396" lon="17.7021199">
        <ele>17.9218</ele>
        <time>2013-05-03T16:08:41Z</time>
      </trkpt>
      <trkpt lat="59.8931656" lon="17.7021566">
        <ele>17.9218</ele>
        <time>2013-05-03T16:08:42Z</time>
      </trkpt>
      <trkpt lat="59.8931914" lon="17.7021897">
        <ele>17.4412</ele>
        <time>2013-05-03T16:08:43Z</time>
      </trkpt>
      <trkpt lat="59.8932167" lon="17.7022247">
        <ele>17.4412</ele>
        <time>2013-05-03T16:08:44Z</time>
      </trkpt>
      <trkpt lat="59.8932417" lon="17.7022606">
        <ele>17.4412</ele>
        <time>2013-05-03T16:08:45Z</time>
      </trkpt>
      <trkpt lat="59.8932677" lon="17.7022985">
        <ele>17.4412</ele>
        <time>2013-05-03T16:08:46Z</time>
      </trkpt>
      <trkpt lat="59.8932956" lon="17.7023433">
        <ele>17.4412</ele>
        <time>2013-05-03T16:08:47Z</time>
      </trkpt>
      <trkpt lat="59.8933215" lon="17.7024052">
        <ele>17.4412</ele>
        <time>2013-05-03T16:08:48Z</time>
      </trkpt>
      <trkpt lat="59.8933427" lon="17.7024828">
        <ele>16.9604</ele>
        <time>2013-05-03T16:08:49Z</time>
      </trkpt>
      <trkpt lat="59.8933653" lon="17.7025645">
        <ele>16.9604</ele>
        <time>2013-05-03T16:08:50Z</time>
      </trkpt>
      <trkpt lat="59.8933919" lon="17.7026405">
        <ele>16.9604</ele>
        <time>2013-05-03T16:08:51Z</time>
      </trkpt>
      <trkpt lat="59.8934243" lon="17.702715">
        <ele>16.9604</ele>
        <time>2013-05-03T16:08:52Z</time>
      </trkpt>
      <trkpt lat="59.8934637" lon="17.7027837">
        <ele>16.9604</ele>
        <time>2013-05-03T16:08:53Z</time>
      </trkpt>
      <trkpt lat="59.8935067" lon="17.702849">
        <ele>16.9604</ele>
        <time>2013-05-03T16:08:54Z</time>
      </trkpt>
      <trkpt lat="59.8935512" lon="17.7029106">
        <ele>17.4412</ele>
        <time>2013-05-03T16:08:55Z</time>
      </trkpt>
      <trkpt lat="59.8935956" lon="17.7029699">
        <ele>17.4412</ele>
        <time>2013-05-03T16:08:56Z</time>
      </trkpt>
      <trkpt lat="59.8936403" lon="17.7030289">
        <ele>17.4412</ele>
        <time>2013-05-03T16:08:57Z</time>
      </trkpt>
      <trkpt lat="59.8936841" lon="17.7030894">
        <ele>17.4412</ele>
        <time>2013-05-03T16:08:58Z</time>
      </trkpt>
      <trkpt lat="59.8937272" lon="17.7031521">
        <ele>17.4412</ele>
        <time>2013-05-03T16:08:59Z</time>
      </trkpt>
      <trkpt lat="59.8937644" lon="17.7032282">
        <ele>17.9218</ele>
        <time>2013-05-03T16:09:00Z</time>
      </trkpt>
      <trkpt lat="59.8937921" lon="17.7033183">
        <ele>17.9218</ele>
        <time>2013-05-03T16:09:01Z</time>
      </trkpt>
      <trkpt lat="59.8938214" lon="17.7034045">
        <ele>17.9218</ele>
        <time>2013-05-03T16:09:02Z</time>
      </trkpt>
      <trkpt lat="59.893859" lon="17.7034748">
        <ele>17.4412</ele>
        <time>2013-05-03T16:09:03Z</time>
      </trkpt>
      <trkpt lat="59.8939017" lon="17.7035334">
        <ele>17.4412</ele>
        <time>2013-05-03T16:09:04Z</time>
      </trkpt>
      <trkpt lat="59.8939456" lon="17.7035904">
        <ele>17.4412</ele>
        <time>2013-05-03T16:09:05Z</time>
      </trkpt>
      <trkpt lat="59.8939898" lon="17.7036483">
        <ele>17.4412</ele>
        <time>2013-05-03T16:09:06Z</time>
      </trkpt>
      <trkpt lat="59.8940342" lon="17.7037078">
        <ele>17.4412</ele>
        <time>2013-05-03T16:09:07Z</time>
      </trkpt>
      <trkpt lat="59.8940788" lon="17.7037687">
        <ele>17.9218</ele>
        <time>2013-05-03T16:09:08Z</time>
      </trkpt>
      <trkpt lat="59.8941232" lon="17.7038306">
        <ele>17.9218</ele>
        <time>2013-05-03T16:09:09Z</time>
      </trkpt>
      <trkpt lat="59.8941672" lon="17.7038932">
        <ele>17.9218</ele>
        <time>2013-05-03T16:09:10Z</time>
      </trkpt>
      <trkpt lat="59.894211" lon="17.7039574">
        <ele>17.9218</ele>
        <time>2013-05-03T16:09:11Z</time>
      </trkpt>
      <trkpt lat="59.8942553" lon="17.7040209">
        <ele>17.9218</ele>
        <time>2013-05-03T16:09:12Z</time>
      </trkpt>
      <trkpt lat="59.8943004" lon="17.7040831">
        <ele>17.9218</ele>
        <time>2013-05-03T16:09:13Z</time>
      </trkpt>
      <trkpt lat="59.8943461" lon="17.7041451">
        <ele>17.9218</ele>
        <time>2013-05-03T16:09:14Z</time>
      </trkpt>
      <trkpt lat="59.8943923" lon="17.7042063">
        <ele>17.9218</ele>
        <time>2013-05-03T16:09:15Z</time>
      </trkpt>
      <trkpt lat="59.8944393" lon="17.7042669">
        <ele>17.9218</ele>
        <time>2013-05-03T16:09:16Z</time>
      </trkpt>
      <trkpt lat="59.8944861" lon="17.7043289">
        <ele>17.9218</ele>
        <time>2013-05-03T16:09:17Z</time>
      </trkpt>
      <trkpt lat="59.8945335" lon="17.7043917">
        <ele>17.9218</ele>
        <time>2013-05-03T16:09:18Z</time>
      </trkpt>
      <trkpt lat="59.8945813" lon="17.7044547">
        <ele>18.4023</ele>
        <time>2013-05-03T16:09:19Z</time>
      </trkpt>
      <trkpt lat="59.8946287" lon="17.7045157">
        <ele>18.4023</ele>
        <time>2013-05-03T16:09:20Z</time>
      </trkpt>
      <trkpt lat="59.8946749" lon="17.7045778">
        <ele>18.4023</ele>
        <time>2013-05-03T16:09:21Z</time>
      </trkpt>
      <trkpt lat="59.8947219" lon="17.7046425">
        <ele>18.4023</ele>
        <time>2013-05-03T16:09:22Z</time>
      </trkpt>
      <trkpt lat="59.8947703" lon="17.7047104">
        <ele>18.4023</ele>
        <time>2013-05-03T16:09:23Z</time>
      </trkpt>
      <trkpt lat="59.8948205" lon="17.7047834">
        <ele>18.4023</ele>
        <time>2013-05-03T16:09:24Z</time>
      </trkpt>
      <trkpt lat="59.8948739" lon="17.7048605">
        <ele>17.9218</ele>
        <time>2013-05-03T16:09:25Z</time>
      </trkpt>
      <trkpt lat="59.8949314" lon="17.7049418">
        <ele>17.9218</ele>
        <time>2013-05-03T16:09:26Z</time>
      </trkpt>
      <trkpt lat="59.894992" lon="17.7050274">
        <ele>17.9218</ele>
        <time>2013-05-03T16:09:27Z</time>
      </trkpt>
      <trkpt lat="59.8950532" lon="17.7051194">
        <ele>17.9218</ele>
        <time>2013-05-03T16:09:28Z</time>
      </trkpt>
      <trkpt lat="59.8951127" lon="17.7052149">
        <ele>17.9218</ele>
        <time>2013-05-03T16:09:29Z</time>
      </trkpt>
      <trkpt lat="59.8951731" lon="17.7053071">
        <ele>17.9218</ele>
        <time>2013-05-03T16:09:30Z</time>
      </trkpt>
      <trkpt lat="59.8952361" lon="17.7053887">
        <ele>17.9218</ele>
        <time>2013-05-03T16:09:31Z</time>
      </trkpt>
      <trkpt lat="59.8953002" lon="17.7054587">
        <ele>17.9218</ele>
        <time>2013-05-03T16:09:32Z</time>
      </trkpt>
      <trkpt lat="59.8953635" lon="17.7055226">
        <ele>17.9218</ele>
        <time>2013-05-03T16:09:33Z</time>
      </trkpt>
      <trkpt lat="59.8954249" lon="17.7055892">
        <ele>17.9218</ele>
        <time>2013-05-03T16:09:34Z</time>
      </trkpt>
      <trkpt lat="59.8954837" lon="17.7056604">
        <ele>17.9218</ele>
        <time>2013-05-03T16:09:35Z</time>
      </trkpt>
      <trkpt lat="59.8955406" lon="17.7057329">
        <ele>17.9218</ele>
        <time>2013-05-03T16:09:36Z</time>
      </trkpt>
      <trkpt lat="59.8955954" lon="17.7058038">
        <ele>17.9218</ele>
        <time>2013-05-03T16:09:37Z</time>
      </trkpt>
      <trkpt lat="59.8956488" lon="17.7058747">
        <ele>17.9218</ele>
        <time>2013-05-03T16:09:38Z</time>
      </trkpt>
      <trkpt lat="59.8957016" lon="17.7059461">
        <ele>17.9218</ele>
        <time>2013-05-03T16:09:39Z</time>
      </trkpt>
      <trkpt lat="59.8957543" lon="17.7060151">
        <ele>18.4023</ele>
        <time>2013-05-03T16:09:40Z</time>
      </trkpt>
      <trkpt lat="59.8958069" lon="17.7060851">
        <ele>18.4023</ele>
        <time>2013-05-03T16:09:41Z</time>
      </trkpt>
      <trkpt lat="59.8958597" lon="17.7061569">
        <ele>18.4023</ele>
        <time>2013-05-03T16:09:42Z</time>
      </trkpt>
      <trkpt lat="59.8959129" lon="17.7062281">
        <ele>17.9218</ele>
        <time>2013-05-03T16:09:43Z</time>
      </trkpt>
      <trkpt lat="59.8959667" lon="17.7062973">
        <ele>18.4023</ele>
        <time>2013-05-03T16:09:44Z</time>
      </trkpt>
      <trkpt lat="59.8960194" lon="17.7063674">
        <ele>18.4023</ele>
        <time>2013-05-03T16:09:45Z</time>
      </trkpt>
      <trkpt lat="59.896072" lon="17.7064392">
        <ele>18.4023</ele>
        <time>2013-05-03T16:09:46Z</time>
      </trkpt>
      <trkpt lat="59.896124" lon="17.7065112">
        <ele>18.4023</ele>
        <time>2013-05-03T16:09:47Z</time>
      </trkpt>
      <trkpt lat="59.8961768" lon="17.7065824">
        <ele>18.4023</ele>
        <time>2013-05-03T16:09:48Z</time>
      </trkpt>
      <trkpt lat="59.8962306" lon="17.7066529">
        <ele>18.4023</ele>
        <time>2013-05-03T16:09:49Z</time>
      </trkpt>
      <trkpt lat="59.8962838" lon="17.7067243">
        <ele>18.4023</ele>
        <time>2013-05-03T16:09:50Z</time>
      </trkpt>
      <trkpt lat="59.8963368" lon="17.7067954">
        <ele>18.4023</ele>
        <time>2013-05-03T16:09:51Z</time>
      </trkpt>
      <trkpt lat="59.8963892" lon="17.7068659">
        <ele>18.4023</ele>
        <time>2013-05-03T16:09:52Z</time>
      </trkpt>
      <trkpt lat="59.8964417" lon="17.7069376">
        <ele>18.4023</ele>
        <time>2013-05-03T16:09:53Z</time>
      </trkpt>
      <trkpt lat="59.8964942" lon="17.7070098">
        <ele>18.4023</ele>
        <time>2013-05-03T16:09:54Z</time>
      </trkpt>
      <trkpt lat="59.8965474" lon="17.7070812">
        <ele>18.4023</ele>
        <time>2013-05-03T16:09:55Z</time>
      </trkpt>
      <trkpt lat="59.8966" lon="17.707152">
        <ele>18.4023</ele>
        <time>2013-05-03T16:09:56Z</time>
      </trkpt>
      <trkpt lat="59.8966523" lon="17.7072237">
        <ele>18.8831</ele>
        <time>2013-05-03T16:09:57Z</time>
      </trkpt>
      <trkpt lat="59.8967045" lon="17.7072931">
        <ele>18.8831</ele>
        <time>2013-05-03T16:09:58Z</time>
      </trkpt>
      <trkpt lat="59.896756" lon="17.7073599">
        <ele>18.8831</ele>
        <time>2013-05-03T16:09:59Z</time>
      </trkpt>
      <trkpt lat="59.8968067" lon="17.7074264">
        <ele>18.8831</ele>
        <time>2013-05-03T16:10:00Z</time>
      </trkpt>
      <trkpt lat="59.8968565" lon="17.7074915">
        <ele>18.8831</ele>
        <time>2013-05-03T16:10:01Z</time>
      </trkpt>
      <trkpt lat="59.8969051" lon="17.7075564">
        <ele>18.8831</ele>
        <time>2013-05-03T16:10:02Z</time>
      </trkpt>
      <trkpt lat="59.8969531" lon="17.7076229">
        <ele>18.8831</ele>
        <time>2013-05-03T16:10:03Z</time>
      </trkpt>
      <trkpt lat="59.8970014" lon="17.7076867">
        <ele>18.8831</ele>
        <time>2013-05-03T16:10:04Z</time>
      </trkpt>
      <trkpt lat="59.89705" lon="17.7077496">
        <ele>18.8831</ele>
        <time>2013-05-03T16:10:05Z</time>
      </trkpt>
      <trkpt lat="59.8970982" lon="17.7078127">
        <ele>18.8831</ele>
        <time>2013-05-03T16:10:06Z</time>
      </trkpt>
      <trkpt lat="59.897146" lon="17.7078755">
        <ele>19.3638</ele>
        <time>2013-05-03T16:10:07Z</time>
      </trkpt>
      <trkpt lat="59.8971937" lon="17.7079396">
        <ele>19.3638</ele>
        <time>2013-05-03T16:10:08Z</time>
      </trkpt>
      <trkpt lat="59.8972418" lon="17.7080038">
        <ele>19.3638</ele>
        <time>2013-05-03T16:10:09Z</time>
      </trkpt>
      <trkpt lat="59.8972895" lon="17.7080687">
        <ele>19.3638</ele>
        <time>2013-05-03T16:10:10Z</time>
      </trkpt>
      <trkpt lat="59.8973356" lon="17.7081369">
        <ele>19.3638</ele>
        <time>2013-05-03T16:10:11Z</time>
      </trkpt>
      <trkpt lat="59.8973805" lon="17.7082079">
        <ele>19.3638</ele>
        <time>2013-05-03T16:10:12Z</time>
      </trkpt>
      <trkpt lat="59.897425" lon="17.7082826">
        <ele>19.3638</ele>
        <time>2013-05-03T16:10:13Z</time>
      </trkpt>
      <trkpt lat="59.8974697" lon="17.7083588">
        <ele>19.3638</ele>
        <time>2013-05-03T16:10:14Z</time>
      </trkpt>
      <trkpt lat="59.8975158" lon="17.7084311">
        <ele>19.3638</ele>
        <time>2013-05-03T16:10:15Z</time>
      </trkpt>
      <trkpt lat="59.897565" lon="17.7084965">
        <ele>19.3638</ele>
        <time>2013-05-03T16:10:16Z</time>
      </trkpt>
      <trkpt lat="59.8976166" lon="17.7085525">
        <ele>18.8831</ele>
        <time>2013-05-03T16:10:17Z</time>
      </trkpt>
      <trkpt lat="59.8976696" lon="17.7086052">
        <ele>19.3638</ele>
        <time>2013-05-03T16:10:18Z</time>
      </trkpt>
      <trkpt lat="59.8977225" lon="17.7086602">
        <ele>19.3638</ele>
        <time>2013-05-03T16:10:19Z</time>
      </trkpt>
      <trkpt lat="59.8977746" lon="17.7087187">
        <ele>19.3638</ele>
        <time>2013-05-03T16:10:20Z</time>
      </trkpt>
      <trkpt lat="59.8978251" lon="17.7087817">
        <ele>19.3638</ele>
        <time>2013-05-03T16:10:21Z</time>
      </trkpt>
      <trkpt lat="59.8978758" lon="17.708848">
        <ele>19.3638</ele>
        <time>2013-05-03T16:10:22Z</time>
      </trkpt>
      <trkpt lat="59.8979266" lon="17.7089161">
        <ele>19.3638</ele>
        <time>2013-05-03T16:10:23Z</time>
      </trkpt>
      <trkpt lat="59.8979784" lon="17.7089856">
        <ele>19.3638</ele>
        <time>2013-05-03T16:10:24Z</time>
      </trkpt>
      <trkpt lat="59.8980307" lon="17.7090533">
        <ele>19.3638</ele>
        <time>2013-05-03T16:10:25Z</time>
      </trkpt>
      <trkpt lat="59.8980825" lon="17.7091233">
        <ele>19.3638</ele>
        <time>2013-05-03T16:10:26Z</time>
      </trkpt>
      <trkpt lat="59.8981337" lon="17.709194">
        <ele>19.3638</ele>
        <time>2013-05-03T16:10:27Z</time>
      </trkpt>
      <trkpt lat="59.8981852" lon="17.7092641">
        <ele>19.3638</ele>
        <time>2013-05-03T16:10:28Z</time>
      </trkpt>
      <trkpt lat="59.898237" lon="17.7093355">
        <ele>19.8444</ele>
        <time>2013-05-03T16:10:29Z</time>
      </trkpt>
      <trkpt lat="59.8982891" lon="17.709407">
        <ele>19.8444</ele>
        <time>2013-05-03T16:10:30Z</time>
      </trkpt>
      <trkpt lat="59.898341" lon="17.709477">
        <ele>19.8444</ele>
        <time>2013-05-03T16:10:31Z</time>
      </trkpt>
      <trkpt lat="59.8983927" lon="17.7095429">
        <ele>20.325</ele>
        <time>2013-05-03T16:10:32Z</time>
      </trkpt>
      <trkpt lat="59.8984439" lon="17.7096077">
        <ele>20.325</ele>
        <time>2013-05-03T16:10:33Z</time>
      </trkpt>
      <trkpt lat="59.8984946" lon="17.7096716">
        <ele>20.8057</ele>
        <time>2013-05-03T16:10:34Z</time>
      </trkpt>
      <trkpt lat="59.8985456" lon="17.7097348">
        <ele>20.8057</ele>
        <time>2013-05-03T16:10:35Z</time>
      </trkpt>
      <trkpt lat="59.8985957" lon="17.709799">
        <ele>20.8057</ele>
        <time>2013-05-03T16:10:36Z</time>
      </trkpt>
      <trkpt lat="59.8986451" lon="17.7098614">
        <ele>20.8057</ele>
        <time>2013-05-03T16:10:37Z</time>
      </trkpt>
      <trkpt lat="59.8986947" lon="17.7099201">
        <ele>20.8057</ele>
        <time>2013-05-03T16:10:38Z</time>
      </trkpt>
      <trkpt lat="59.898743" lon="17.7099768">
        <ele>20.8057</ele>
        <time>2013-05-03T16:10:39Z</time>
      </trkpt>
      <trkpt lat="59.8987891" lon="17.7100363">
        <ele>20.8057</ele>
        <time>2013-05-03T16:10:40Z</time>
      </trkpt>
      <trkpt lat="59.898835" lon="17.7100945">
        <ele>20.8057</ele>
        <time>2013-05-03T16:10:41Z</time>
      </trkpt>
      <trkpt lat="59.8988807" lon="17.7101536">
        <ele>20.8057</ele>
        <time>2013-05-03T16:10:42Z</time>
      </trkpt>
      <trkpt lat="59.8989269" lon="17.7102146">
        <ele>20.8057</ele>
        <time>2013-05-03T16:10:43Z</time>
      </trkpt>
      <trkpt lat="59.8989735" lon="17.7102743">
        <ele>20.8057</ele>
        <time>2013-05-03T16:10:44Z</time>
      </trkpt>
      <trkpt lat="59.89902" lon="17.7103339">
        <ele>21.2864</ele>
        <time>2013-05-03T16:10:45Z</time>
      </trkpt>
      <trkpt lat="59.8990672" lon="17.710395">
        <ele>21.2864</ele>
        <time>2013-05-03T16:10:46Z</time>
      </trkpt>
      <trkpt lat="59.8991145" lon="17.7104577">
        <ele>21.2864</ele>
        <time>2013-05-03T16:10:47Z</time>
      </trkpt>
      <trkpt lat="59.8991634" lon="17.7105208">
        <ele>21.767</ele>
        <time>2013-05-03T16:10:48Z</time>
      </trkpt>
      <trkpt lat="59.8992132" lon="17.7105835">
        <ele>21.767</ele>
        <time>2013-05-03T16:10:49Z</time>
      </trkpt>
      <trkpt lat="59.8992639" lon="17.7106441">
        <ele>21.767</ele>
        <time>2013-05-03T16:10:50Z</time>
      </trkpt>
      <trkpt lat="59.8993143" lon="17.7107048">
        <ele>21.767</ele>
        <time>2013-05-03T16:10:51Z</time>
      </trkpt>
      <trkpt lat="59.8993642" lon="17.7107664">
        <ele>21.767</ele>
        <time>2013-05-03T16:10:52Z</time>
      </trkpt>
      <trkpt lat="59.8994148" lon="17.7108291">
        <ele>21.767</ele>
        <time>2013-05-03T16:10:53Z</time>
      </trkpt>
      <trkpt lat="59.8994656" lon="17.7108932">
        <ele>21.767</ele>
        <time>2013-05-03T16:10:54Z</time>
      </trkpt>
      <trkpt lat="59.8995161" lon="17.7109554">
        <ele>21.767</ele>
        <time>2013-05-03T16:10:55Z</time>
      </trkpt>
      <trkpt lat="59.8995669" lon="17.7110146">
        <ele>21.767</ele>
        <time>2013-05-03T16:10:56Z</time>
      </trkpt>
      <trkpt lat="59.8996178" lon="17.7110725">
        <ele>21.767</ele>
        <time>2013-05-03T16:10:57Z</time>
      </trkpt>
      <trkpt lat="59.8996691" lon="17.7111303">
        <ele>22.2476</ele>
        <time>2013-05-03T16:10:58Z</time>
      </trkpt>
      <trkpt lat="59.8997195" lon="17.7111889">
        <ele>22.2476</ele>
        <time>2013-05-03T16:10:59Z</time>
      </trkpt>
      <trkpt lat="59.8997687" lon="17.7112481">
        <ele>22.2476</ele>
        <time>2013-05-03T16:11:00Z</time>
      </trkpt>
      <trkpt lat="59.8998167" lon="17.7113049">
        <ele>22.2476</ele>
        <time>2013-05-03T16:11:01Z</time>
      </trkpt>
      <trkpt lat="59.8998638" lon="17.7113585">
        <ele>22.2476</ele>
        <time>2013-05-03T16:11:02Z</time>
      </trkpt>
      <trkpt lat="59.8999104" lon="17.7114135">
        <ele>22.2476</ele>
        <time>2013-05-03T16:11:03Z</time>
      </trkpt>
      <trkpt lat="59.8999582" lon="17.7114665">
        <ele>22.7283</ele>
        <time>2013-05-03T16:11:04Z</time>
      </trkpt>
      <trkpt lat="59.9000059" lon="17.711518">
        <ele>22.7283</ele>
        <time>2013-05-03T16:11:05Z</time>
      </trkpt>
      <trkpt lat="59.900053" lon="17.7115681">
        <ele>23.209</ele>
        <time>2013-05-03T16:11:06Z</time>
      </trkpt>
      <trkpt lat="59.9001001" lon="17.7116169">
        <ele>23.209</ele>
        <time>2013-05-03T16:11:07Z</time>
      </trkpt>
      <trkpt lat="59.9001478" lon="17.7116691">
        <ele>23.209</ele>
        <time>2013-05-03T16:11:08Z</time>
      </trkpt>
      <trkpt lat="59.9001949" lon="17.7117262">
        <ele>23.209</ele>
        <time>2013-05-03T16:11:09Z</time>
      </trkpt>
      <trkpt lat="59.900243" lon="17.7117816">
        <ele>23.209</ele>
        <time>2013-05-03T16:11:10Z</time>
      </trkpt>
      <trkpt lat="59.9002918" lon="17.7118349">
        <ele>23.209</ele>
        <time>2013-05-03T16:11:11Z</time>
      </trkpt>
      <trkpt lat="59.9003409" lon="17.7118904">
        <ele>22.7283</ele>
        <time>2013-05-03T16:11:12Z</time>
      </trkpt>
      <trkpt lat="59.9003905" lon="17.7119469">
        <ele>22.7283</ele>
        <time>2013-05-03T16:11:13Z</time>
      </trkpt>
      <trkpt lat="59.9004405" lon="17.7120022">
        <ele>22.7283</ele>
        <time>2013-05-03T16:11:14Z</time>
      </trkpt>
      <trkpt lat="59.9004906" lon="17.7120592">
        <ele>22.7283</ele>
        <time>2013-05-03T16:11:15Z</time>
      </trkpt>
      <trkpt lat="59.9005408" lon="17.7121172">
        <ele>22.7283</ele>
        <time>2013-05-03T16:11:16Z</time>
      </trkpt>
      <trkpt lat="59.9005916" lon="17.7121744">
        <ele>22.2476</ele>
        <time>2013-05-03T16:11:17Z</time>
      </trkpt>
      <trkpt lat="59.900643" lon="17.7122327">
        <ele>22.2476</ele>
        <time>2013-05-03T16:11:18Z</time>
      </trkpt>
      <trkpt lat="59.9006953" lon="17.7122933">
        <ele>22.2476</ele>
        <time>2013-05-03T16:11:19Z</time>
      </trkpt>
      <trkpt lat="59.9007478" lon="17.712353">
        <ele>22.2476</ele>
        <time>2013-05-03T16:11:20Z</time>
      </trkpt>
      <trkpt lat="59.9008011" lon="17.7124107">
        <ele>22.7283</ele>
        <time>2013-05-03T16:11:21Z</time>
      </trkpt>
      <trkpt lat="59.9008538" lon="17.712467">
        <ele>22.7283</ele>
        <time>2013-05-03T16:11:22Z</time>
      </trkpt>
      <trkpt lat="59.900906" lon="17.712525">
        <ele>22.2476</ele>
        <time>2013-05-03T16:11:23Z</time>
      </trkpt>
      <trkpt lat="59.900958" lon="17.7125836">
        <ele>22.2476</ele>
        <time>2013-05-03T16:11:24Z</time>
      </trkpt>
      <trkpt lat="59.9010111" lon="17.7126421">
        <ele>22.2476</ele>
        <time>2013-05-03T16:11:25Z</time>
      </trkpt>
      <trkpt lat="59.9010635" lon="17.712703">
        <ele>22.2476</ele>
        <time>2013-05-03T16:11:26Z</time>
      </trkpt>
      <trkpt lat="59.9011164" lon="17.7127634">
        <ele>22.2476</ele>
        <time>2013-05-03T16:11:27Z</time>
      </trkpt>
      <trkpt lat="59.9011714" lon="17.7128254">
        <ele>22.2476</ele>
        <time>2013-05-03T16:11:28Z</time>
      </trkpt>
      <trkpt lat="59.9012278" lon="17.7128913">
        <ele>21.767</ele>
        <time>2013-05-03T16:11:29Z</time>
      </trkpt>
      <trkpt lat="59.9012859" lon="17.7129597">
        <ele>21.2864</ele>
        <time>2013-05-03T16:11:30Z</time>
      </trkpt>
      <trkpt lat="59.9013457" lon="17.7130273">
        <ele>21.2864</ele>
        <time>2013-05-03T16:11:31Z</time>
      </trkpt>
      <trkpt lat="59.9014055" lon="17.7130942">
        <ele>21.2864</ele>
        <time>2013-05-03T16:11:32Z</time>
      </trkpt>
      <trkpt lat="59.901464" lon="17.7131615">
        <ele>21.2864</ele>
        <time>2013-05-03T16:11:33Z</time>
      </trkpt>
      <trkpt lat="59.9015216" lon="17.713229">
        <ele>21.2864</ele>
        <time>2013-05-03T16:11:34Z</time>
      </trkpt>
      <trkpt lat="59.9015786" lon="17.7132953">
        <ele>21.2864</ele>
        <time>2013-05-03T16:11:35Z</time>
      </trkpt>
      <trkpt lat="59.901636" lon="17.7133595">
        <ele>21.2864</ele>
        <time>2013-05-03T16:11:36Z</time>
      </trkpt>
      <trkpt lat="59.9016934" lon="17.7134221">
        <ele>21.2864</ele>
        <time>2013-05-03T16:11:37Z</time>
      </trkpt>
      <trkpt lat="59.901751" lon="17.7134842">
        <ele>21.2864</ele>
        <time>2013-05-03T16:11:38Z</time>
      </trkpt>
      <trkpt lat="59.9018083" lon="17.7135477">
        <ele>21.2864</ele>
        <time>2013-05-03T16:11:39Z</time>
      </trkpt>
      <trkpt lat="59.9018654" lon="17.7136111">
        <ele>21.2864</ele>
        <time>2013-05-03T16:11:40Z</time>
      </trkpt>
      <trkpt lat="59.9019224" lon="17.7136722">
        <ele>21.2864</ele>
        <time>2013-05-03T16:11:41Z</time>
      </trkpt>
      <trkpt lat="59.9019769" lon="17.7137385">
        <ele>20.8057</ele>
        <time>2013-05-03T16:11:42Z</time>
      </trkpt>
      <trkpt lat="59.9020328" lon="17.7137997">
        <ele>20.8057</ele>
        <time>2013-05-03T16:11:43Z</time>
      </trkpt>
      <trkpt lat="59.9020888" lon="17.7138621">
        <ele>21.2864</ele>
        <time>2013-05-03T16:11:44Z</time>
      </trkpt>
      <trkpt lat="59.902145" lon="17.7139248">
        <ele>21.2864</ele>
        <time>2013-05-03T16:11:45Z</time>
      </trkpt>
      <trkpt lat="59.9022005" lon="17.7139868">
        <ele>21.2864</ele>
        <time>2013-05-03T16:11:46Z</time>
      </trkpt>
      <trkpt lat="59.9022545" lon="17.7140541">
        <ele>20.8057</ele>
        <time>2013-05-03T16:11:47Z</time>
      </trkpt>
      <trkpt lat="59.9023094" lon="17.7141198">
        <ele>20.8057</ele>
        <time>2013-05-03T16:11:48Z</time>
      </trkpt>
      <trkpt lat="59.9023654" lon="17.7141852">
        <ele>20.8057</ele>
        <time>2013-05-03T16:11:49Z</time>
      </trkpt>
      <trkpt lat="59.9024212" lon="17.7142514">
        <ele>20.8057</ele>
        <time>2013-05-03T16:11:50Z</time>
      </trkpt>
      <trkpt lat="59.9024758" lon="17.7143179">
        <ele>20.325</ele>
        <time>2013-05-03T16:11:51Z</time>
      </trkpt>
      <trkpt lat="59.9025316" lon="17.714379">
        <ele>20.325</ele>
        <time>2013-05-03T16:11:52Z</time>
      </trkpt>
      <trkpt lat="59.9025876" lon="17.7144432">
        <ele>20.8057</ele>
        <time>2013-05-03T16:11:53Z</time>
      </trkpt>
      <trkpt lat="59.9026441" lon="17.714511">
        <ele>20.8057</ele>
        <time>2013-05-03T16:11:54Z</time>
      </trkpt>
      <trkpt lat="59.9027007" lon="17.7145784">
        <ele>20.8057</ele>
        <time>2013-05-03T16:11:55Z</time>
      </trkpt>
      <trkpt lat="59.9027565" lon="17.7146478">
        <ele>21.2864</ele>
        <time>2013-05-03T16:11:56Z</time>
      </trkpt>
      <trkpt lat="59.9028112" lon="17.7147198">
        <ele>21.2864</ele>
        <time>2013-05-03T16:11:57Z</time>
      </trkpt>
      <trkpt lat="59.9028658" lon="17.7147903">
        <ele>21.767</ele>
        <time>2013-05-03T16:11:58Z</time>
      </trkpt>
      <trkpt lat="59.9029202" lon="17.7148579">
        <ele>21.767</ele>
        <time>2013-05-03T16:11:59Z</time>
      </trkpt>
      <trkpt lat="59.9029734" lon="17.7149255">
        <ele>21.2864</ele>
        <time>2013-05-03T16:12:00Z</time>
      </trkpt>
      <trkpt lat="59.9030263" lon="17.7149887">
        <ele>21.2864</ele>
        <time>2013-05-03T16:12:01Z</time>
      </trkpt>
      <trkpt lat="59.903077" lon="17.7150512">
        <ele>20.8057</ele>
        <time>2013-05-03T16:12:02Z</time>
      </trkpt>
      <trkpt lat="59.9031263" lon="17.715113">
        <ele>20.8057</ele>
        <time>2013-05-03T16:12:03Z</time>
      </trkpt>
      <trkpt lat="59.9031745" lon="17.7151756">
        <ele>20.325</ele>
        <time>2013-05-03T16:12:04Z</time>
      </trkpt>
      <trkpt lat="59.903222" lon="17.7152441">
        <ele>19.8444</ele>
        <time>2013-05-03T16:12:05Z</time>
      </trkpt>
      <trkpt lat="59.9032688" lon="17.7153197">
        <ele>19.8444</ele>
        <time>2013-05-03T16:12:06Z</time>
      </trkpt>
      <trkpt lat="59.9033181" lon="17.7154154">
        <ele>20.325</ele>
        <time>2013-05-03T16:12:07Z</time>
      </trkpt>
      <trkpt lat="59.9033585" lon="17.715515">
        <ele>20.325</ele>
        <time>2013-05-03T16:12:08Z</time>
      </trkpt>
      <trkpt lat="59.9034028" lon="17.7156044">
        <ele>20.8057</ele>
        <time>2013-05-03T16:12:09Z</time>
      </trkpt>
      <trkpt lat="59.9034458" lon="17.7156869">
        <ele>20.8057</ele>
        <time>2013-05-03T16:12:10Z</time>
      </trkpt>
      <trkpt lat="59.9034895" lon="17.7157574">
        <ele>21.2864</ele>
        <time>2013-05-03T16:12:11Z</time>
      </trkpt>
      <trkpt lat="59.9035364" lon="17.7158282">
        <ele>20.8057</ele>
        <time>2013-05-03T16:12:12Z</time>
      </trkpt>
      <trkpt lat="59.9035828" lon="17.7159029">
        <ele>20.8057</ele>
        <time>2013-05-03T16:12:13Z</time>
      </trkpt>
      <trkpt lat="59.9036205" lon="17.7159986">
        <ele>20.8057</ele>
        <time>2013-05-03T16:12:14Z</time>
      </trkpt>
      <trkpt lat="59.9036457" lon="17.7161154">
        <ele>20.325</ele>
        <time>2013-05-03T16:12:15Z</time>
      </trkpt>
      <trkpt lat="59.903668" lon="17.7162489">
        <ele>20.325</ele>
        <time>2013-05-03T16:12:16Z</time>
      </trkpt>
      <trkpt lat="59.9037077" lon="17.7163779">
        <ele>20.325</ele>
        <time>2013-05-03T16:12:17Z</time>
      </trkpt>
      <trkpt lat="59.9037657" lon="17.7164869">
        <ele>20.325</ele>
        <time>2013-05-03T16:12:18Z</time>
      </trkpt>
      <trkpt lat="59.9038339" lon="17.7165629">
        <ele>19.8444</ele>
        <time>2013-05-03T16:12:19Z</time>
      </trkpt>
      <trkpt lat="59.9039029" lon="17.7166148">
        <ele>19.3638</ele>
        <time>2013-05-03T16:12:20Z</time>
      </trkpt>
      <trkpt lat="59.9039692" lon="17.7166813">
        <ele>18.8831</ele>
        <time>2013-05-03T16:12:21Z</time>
      </trkpt>
      <trkpt lat="59.9040295" lon="17.7167663">
        <ele>18.8831</ele>
        <time>2013-05-03T16:12:22Z</time>
      </trkpt>
      <trkpt lat="59.9040831" lon="17.7168528">
        <ele>17.9218</ele>
        <time>2013-05-03T16:12:23Z</time>
      </trkpt>
      <trkpt lat="59.9041406" lon="17.7169196">
        <ele>18.4023</ele>
        <time>2013-05-03T16:12:24Z</time>
      </trkpt>
      <trkpt lat="59.9041946" lon="17.7169706">
        <ele>18.4023</ele>
        <time>2013-05-03T16:12:25Z</time>
      </trkpt>
      <trkpt lat="59.9042504" lon="17.7170137">
        <ele>17.9218</ele>
        <time>2013-05-03T16:12:26Z</time>
      </trkpt>
      <trkpt lat="59.9043078" lon="17.7170561">
        <ele>18.4023</ele>
        <time>2013-05-03T16:12:27Z</time>
      </trkpt>
      <trkpt lat="59.9043645" lon="17.7171016">
        <ele>18.8831</ele>
        <time>2013-05-03T16:12:28Z</time>
      </trkpt>
      <trkpt lat="59.9044175" lon="17.7171571">
        <ele>18.8831</ele>
        <time>2013-05-03T16:12:29Z</time>
      </trkpt>
      <trkpt lat="59.9044683" lon="17.7172191">
        <ele>19.3638</ele>
        <time>2013-05-03T16:12:30Z</time>
      </trkpt>
      <trkpt lat="59.9045171" lon="17.7172838">
        <ele>20.325</ele>
        <time>2013-05-03T16:12:31Z</time>
      </trkpt>
      <trkpt lat="59.9045556" lon="17.7173415">
        <ele>20.325</ele>
        <time>2013-05-03T16:12:32Z</time>
      </trkpt>
      <trkpt lat="59.9045932" lon="17.7173949">
        <ele>20.325</ele>
        <time>2013-05-03T16:12:33Z</time>
      </trkpt>
      <trkpt lat="59.9046326" lon="17.7174556">
        <ele>20.8057</ele>
        <time>2013-05-03T16:12:34Z</time>
      </trkpt>
      <trkpt lat="59.9046725" lon="17.7175145">
        <ele>20.325</ele>
        <time>2013-05-03T16:12:35Z</time>
      </trkpt>
      <trkpt lat="59.9047104" lon="17.7175715">
        <ele>20.325</ele>
        <time>2013-05-03T16:12:36Z</time>
      </trkpt>
      <trkpt lat="59.9047467" lon="17.7176319">
        <ele>20.325</ele>
        <time>2013-05-03T16:12:37Z</time>
      </trkpt>
      <trkpt lat="59.9047799" lon="17.7176967">
        <ele>18.8831</ele>
        <time>2013-05-03T16:12:38Z</time>
      </trkpt>
      <trkpt lat="59.9048138" lon="17.7177544">
        <ele>18.4023</ele>
        <time>2013-05-03T16:12:39Z</time>
      </trkpt>
      <trkpt lat="59.9048544" lon="17.7178197">
        <ele>18.4023</ele>
        <time>2013-05-03T16:12:40Z</time>
      </trkpt>
      <trkpt lat="59.904892" lon="17.7178986">
        <ele>17.9218</ele>
        <time>2013-05-03T16:12:41Z</time>
      </trkpt>
      <trkpt lat="59.9049362" lon="17.7179632">
        <ele>17.9218</ele>
        <time>2013-05-03T16:12:42Z</time>
      </trkpt>
      <trkpt lat="59.904987" lon="17.7180449">
        <ele>18.8831</ele>
        <time>2013-05-03T16:12:43Z</time>
      </trkpt>
      <trkpt lat="59.9050353" lon="17.7181148">
        <ele>19.3638</ele>
        <time>2013-05-03T16:12:44Z</time>
      </trkpt>
      <trkpt lat="59.9050804" lon="17.718181">
        <ele>19.8444</ele>
        <time>2013-05-03T16:12:45Z</time>
      </trkpt>
      <trkpt lat="59.9051234" lon="17.7182452">
        <ele>19.8444</ele>
        <time>2013-05-03T16:12:46Z</time>
      </trkpt>
      <trkpt lat="59.9051637" lon="17.7183108">
        <ele>19.3638</ele>
        <time>2013-05-03T16:12:47Z</time>
      </trkpt>
      <trkpt lat="59.9052036" lon="17.7183783">
        <ele>19.3638</ele>
        <time>2013-05-03T16:12:48Z</time>
      </trkpt>
      <trkpt lat="59.9052439" lon="17.7184334">
        <ele>19.8444</ele>
        <time>2013-05-03T16:12:49Z</time>
      </trkpt>
      <trkpt lat="59.9052814" lon="17.7184908">
        <ele>19.8444</ele>
        <time>2013-05-03T16:12:50Z</time>
      </trkpt>
      <trkpt lat="59.9053186" lon="17.7185532">
        <ele>19.3638</ele>
        <time>2013-05-03T16:12:51Z</time>
      </trkpt>
      <trkpt lat="59.905359" lon="17.7186142">
        <ele>19.3638</ele>
        <time>2013-05-03T16:12:52Z</time>
      </trkpt>
      <trkpt lat="59.9053994" lon="17.71868">
        <ele>18.8831</ele>
        <time>2013-05-03T16:12:53Z</time>
      </trkpt>
      <trkpt lat="59.9054409" lon="17.7187459">
        <ele>19.3638</ele>
        <time>2013-05-03T16:12:54Z</time>
      </trkpt>
      <trkpt lat="59.9054813" lon="17.7188103">
        <ele>19.3638</ele>
        <time>2013-05-03T16:12:55Z</time>
      </trkpt>
      <trkpt lat="59.90552" lon="17.7188762">
        <ele>19.3638</ele>
        <time>2013-05-03T16:12:56Z</time>
      </trkpt>
      <trkpt lat="59.9055579" lon="17.7189438">
        <ele>19.3638</ele>
        <time>2013-05-03T16:12:57Z</time>
      </trkpt>
      <trkpt lat="59.905596" lon="17.7190114">
        <ele>19.3638</ele>
        <time>2013-05-03T16:12:58Z</time>
      </trkpt>
      <trkpt lat="59.9056354" lon="17.7190761">
        <ele>19.3638</ele>
        <time>2013-05-03T16:12:59Z</time>
      </trkpt>
      <trkpt lat="59.9056756" lon="17.7191374">
        <ele>19.3638</ele>
        <time>2013-05-03T16:13:00Z</time>
      </trkpt>
      <trkpt lat="59.9057158" lon="17.7191975">
        <ele>19.3638</ele>
        <time>2013-05-03T16:13:01Z</time>
      </trkpt>
      <trkpt lat="59.9057558" lon="17.7192603">
        <ele>18.8831</ele>
        <time>2013-05-03T16:13:02Z</time>
      </trkpt>
      <trkpt lat="59.9057947" lon="17.7193248">
        <ele>18.8831</ele>
        <time>2013-05-03T16:13:03Z</time>
      </trkpt>
      <trkpt lat="59.9058323" lon="17.7193882">
        <ele>18.8831</ele>
        <time>2013-05-03T16:13:04Z</time>
      </trkpt>
      <trkpt lat="59.9058693" lon="17.7194497">
        <ele>18.8831</ele>
        <time>2013-05-03T16:13:05Z</time>
      </trkpt>
      <trkpt lat="59.9059066" lon="17.7195083">
        <ele>18.8831</ele>
        <time>2013-05-03T16:13:06Z</time>
      </trkpt>
      <trkpt lat="59.9059438" lon="17.7195679">
        <ele>19.3638</ele>
        <time>2013-05-03T16:13:07Z</time>
      </trkpt>
      <trkpt lat="59.9059755" lon="17.7196373">
        <ele>19.3638</ele>
        <time>2013-05-03T16:13:08Z</time>
      </trkpt>
      <trkpt lat="59.9059966" lon="17.7197176">
        <ele>19.3638</ele>
        <time>2013-05-03T16:13:09Z</time>
      </trkpt>
      <trkpt lat="59.9060073" lon="17.7198037">
        <ele>19.3638</ele>
        <time>2013-05-03T16:13:10Z</time>
      </trkpt>
      <trkpt lat="59.9060175" lon="17.7198896">
        <ele>19.3638</ele>
        <time>2013-05-03T16:13:11Z</time>
      </trkpt>
      <trkpt lat="59.9060313" lon="17.7199729">
        <ele>19.8444</ele>
        <time>2013-05-03T16:13:12Z</time>
      </trkpt>
      <trkpt lat="59.9060496" lon="17.7200506">
        <ele>19.8444</ele>
        <time>2013-05-03T16:13:13Z</time>
      </trkpt>
      <trkpt lat="59.9060698" lon="17.7201201">
        <ele>19.8444</ele>
        <time>2013-05-03T16:13:14Z</time>
      </trkpt>
      <trkpt lat="59.9060884" lon="17.7201872">
        <ele>19.3638</ele>
        <time>2013-05-03T16:13:15Z</time>
      </trkpt>
      <trkpt lat="59.9061008" lon="17.7202542">
        <ele>19.3638</ele>
        <time>2013-05-03T16:13:16Z</time>
      </trkpt>
      <trkpt lat="59.9061013" lon="17.720319">
        <ele>19.3638</ele>
        <time>2013-05-03T16:13:17Z</time>
      </trkpt>
      <trkpt lat="59.9060904" lon="17.7203751">
        <ele>18.8831</ele>
        <time>2013-05-03T16:13:18Z</time>
      </trkpt>
      <trkpt lat="59.9060713" lon="17.7204217">
        <ele>18.8831</ele>
        <time>2013-05-03T16:13:19Z</time>
      </trkpt>
      <trkpt lat="59.9060514" lon="17.720467">
        <ele>19.3638</ele>
        <time>2013-05-03T16:13:20Z</time>
      </trkpt>
      <trkpt lat="59.9060334" lon="17.7205182">
        <ele>19.3638</ele>
        <time>2013-05-03T16:13:21Z</time>
      </trkpt>
      <trkpt lat="59.9060154" lon="17.7205706">
        <ele>19.3638</ele>
        <time>2013-05-03T16:13:22Z</time>
      </trkpt>
      <trkpt lat="59.9059923" lon="17.7206209">
        <ele>19.3638</ele>
        <time>2013-05-03T16:13:23Z</time>
      </trkpt>
      <trkpt lat="59.905965" lon="17.7206758">
        <ele>19.3638</ele>
        <time>2013-05-03T16:13:24Z</time>
      </trkpt>
      <trkpt lat="59.9059346" lon="17.7207349">
        <ele>19.8444</ele>
        <time>2013-05-03T16:13:25Z</time>
      </trkpt>
      <trkpt lat="59.9059034" lon="17.7207991">
        <ele>19.8444</ele>
        <time>2013-05-03T16:13:26Z</time>
      </trkpt>
      <trkpt lat="59.9058734" lon="17.7208663">
        <ele>20.325</ele>
        <time>2013-05-03T16:13:27Z</time>
      </trkpt>
      <trkpt lat="59.9058438" lon="17.7209323">
        <ele>20.325</ele>
        <time>2013-05-03T16:13:28Z</time>
      </trkpt>
      <trkpt lat="59.9058138" lon="17.7209938">
        <ele>20.325</ele>
        <time>2013-05-03T16:13:29Z</time>
      </trkpt>
      <trkpt lat="59.9057843" lon="17.7210504">
        <ele>20.8057</ele>
        <time>2013-05-03T16:13:30Z</time>
      </trkpt>
      <trkpt lat="59.9057573" lon="17.7211075">
        <ele>20.8057</ele>
        <time>2013-05-03T16:13:31Z</time>
      </trkpt>
      <trkpt lat="59.9057317" lon="17.7211644">
        <ele>21.2864</ele>
        <time>2013-05-03T16:13:32Z</time>
      </trkpt>
      <trkpt lat="59.9057076" lon="17.7212181">
        <ele>21.2864</ele>
        <time>2013-05-03T16:13:33Z</time>
      </trkpt>
      <trkpt lat="59.9056843" lon="17.721269">
        <ele>21.2864</ele>
        <time>2013-05-03T16:13:34Z</time>
      </trkpt>
      <trkpt lat="59.9056606" lon="17.721318">
        <ele>21.2864</ele>
        <time>2013-05-03T16:13:35Z</time>
      </trkpt>
      <trkpt lat="59.9056377" lon="17.7213658">
        <ele>21.2864</ele>
        <time>2013-05-03T16:13:36Z</time>
      </trkpt>
      <trkpt lat="59.905616" lon="17.7214134">
        <ele>21.2864</ele>
        <time>2013-05-03T16:13:37Z</time>
      </trkpt>
      <trkpt lat="59.9055955" lon="17.7214591">
        <ele>21.2864</ele>
        <time>2013-05-03T16:13:38Z</time>
      </trkpt>
      <trkpt lat="59.9055745" lon="17.7214985">
        <ele>21.2864</ele>
        <time>2013-05-03T16:13:39Z</time>
      </trkpt>
      <trkpt lat="59.9055548" lon="17.7215327">
        <ele>21.2864</ele>
        <time>2013-05-03T16:13:40Z</time>
      </trkpt>
      <trkpt lat="59.9055377" lon="17.7215667">
        <ele>21.2864</ele>
        <time>2013-05-03T16:13:41Z</time>
      </trkpt>
      <trkpt lat="59.9055216" lon="17.7216004">
        <ele>21.2864</ele>
        <time>2013-05-03T16:13:42Z</time>
      </trkpt>
      <trkpt lat="59.9055034" lon="17.7216257">
        <ele>21.767</ele>
        <time>2013-05-03T16:13:43Z</time>
      </trkpt>
      <trkpt lat="59.9054807" lon="17.7216416">
        <ele>21.767</ele>
        <time>2013-05-03T16:13:44Z</time>
      </trkpt>
      <trkpt lat="59.9054572" lon="17.7216409">
        <ele>21.767</ele>
        <time>2013-05-03T16:13:45Z</time>
      </trkpt>
      <trkpt lat="59.905433" lon="17.7216227">
        <ele>22.2476</ele>
        <time>2013-05-03T16:13:46Z</time>
      </trkpt>
      <trkpt lat="59.9054117" lon="17.7215896">
        <ele>22.7283</ele>
        <time>2013-05-03T16:13:47Z</time>
      </trkpt>
      <trkpt lat="59.9053921" lon="17.7215561">
        <ele>22.7283</ele>
        <time>2013-05-03T16:13:48Z</time>
      </trkpt>
      <trkpt lat="59.9053696" lon="17.7215327">
        <ele>23.209</ele>
        <time>2013-05-03T16:13:49Z</time>
      </trkpt>
      <trkpt lat="59.9053472" lon="17.7215046">
        <ele>23.6896</ele>
        <time>2013-05-03T16:13:50Z</time>
      </trkpt>
      <trkpt lat="59.9053298" lon="17.7214669">
        <ele>24.1703</ele>
        <time>2013-05-03T16:13:51Z</time>
      </trkpt>
      <trkpt lat="59.9053217" lon="17.7214243">
        <ele>24.1703</ele>
        <time>2013-05-03T16:13:52Z</time>
      </trkpt>
      <trkpt lat="59.9053216" lon="17.7213909">
        <ele>24.651</ele>
        <time>2013-05-03T16:13:53Z</time>
      </trkpt>
      <trkpt lat="59.9053228" lon="17.7213737">
        <ele>24.651</ele>
        <time>2013-05-03T16:13:54Z</time>
      </trkpt>
      <trkpt lat="59.9053239" lon="17.7213674">
        <ele>25.1317</ele>
        <time>2013-05-03T16:13:55Z</time>
      </trkpt>
      <trkpt lat="59.9053274" lon="17.7213561">
        <ele>25.1317</ele>
        <time>2013-05-03T16:13:56Z</time>
      </trkpt>
      <trkpt lat="59.9053324" lon="17.7213436">
        <ele>25.1317</ele>
        <time>2013-05-03T16:13:57Z</time>
      </trkpt>
      <trkpt lat="59.9053381" lon="17.7213336">
        <ele>25.1317</ele>
        <time>2013-05-03T16:13:58Z</time>
      </trkpt>
      <trkpt lat="59.9053435" lon="17.7213219">
        <ele>25.1317</ele>
        <time>2013-05-03T16:13:59Z</time>
      </trkpt>
      <trkpt lat="59.9053484" lon="17.7213033">
        <ele>25.6123</ele>
        <time>2013-05-03T16:14:00Z</time>
      </trkpt>
      <trkpt lat="59.9053491" lon="17.7212839">
        <ele>26.0929</ele>
        <time>2013-05-03T16:14:01Z</time>
      </trkpt>
      <trkpt lat="59.9053479" lon="17.7212721">
        <ele>26.0929</ele>
        <time>2013-05-03T16:14:02Z</time>
      </trkpt>
      <trkpt lat="59.9053528" lon="17.7212706">
        <ele>27.5349</ele>
        <time>2013-05-03T16:14:03Z</time>
      </trkpt>
      <trkpt lat="59.9053577" lon="17.7212761">
        <ele>28.4962</ele>
        <time>2013-05-03T16:14:04Z</time>
      </trkpt>
      <trkpt lat="59.9053594" lon="17.7212818">
        <ele>28.9769</ele>
        <time>2013-05-03T16:14:05Z</time>
      </trkpt>
      <trkpt lat="59.9054869" lon="17.721642">
        <ele>27.0543</ele>
        <time>2013-05-03T16:18:53Z</time>
      </trkpt>
      <trkpt lat="59.9055009" lon="17.7216378">
        <ele>27.0543</ele>
        <time>2013-05-03T16:18:54Z</time>
      </trkpt>
      <trkpt lat="59.9055144" lon="17.7216279">
        <ele>27.0543</ele>
        <time>2013-05-03T16:18:55Z</time>
      </trkpt>
      <trkpt lat="59.9055304" lon="17.7216138">
        <ele>27.5349</ele>
        <time>2013-05-03T16:18:56Z</time>
      </trkpt>
      <trkpt lat="59.9055475" lon="17.7215948">
        <ele>27.5349</ele>
        <time>2013-05-03T16:18:57Z</time>
      </trkpt>
      <trkpt lat="59.905564" lon="17.7215691">
        <ele>27.5349</ele>
        <time>2013-05-03T16:18:58Z</time>
      </trkpt>
      <trkpt lat="59.9055796" lon="17.7215466">
        <ele>28.0155</ele>
        <time>2013-05-03T16:18:59Z</time>
      </trkpt>
      <trkpt lat="59.9055931" lon="17.7215209">
        <ele>28.4962</ele>
        <time>2013-05-03T16:19:00Z</time>
      </trkpt>
      <trkpt lat="59.9056072" lon="17.721494">
        <ele>28.9769</ele>
        <time>2013-05-03T16:19:01Z</time>
      </trkpt>
      <trkpt lat="59.9056225" lon="17.7214642">
        <ele>29.4575</ele>
        <time>2013-05-03T16:19:02Z</time>
      </trkpt>
      <trkpt lat="59.905638" lon="17.7214357">
        <ele>29.9381</ele>
        <time>2013-05-03T16:19:03Z</time>
      </trkpt>
      <trkpt lat="59.9056532" lon="17.7214084">
        <ele>30.4188</ele>
        <time>2013-05-03T16:19:04Z</time>
      </trkpt>
      <trkpt lat="59.9056693" lon="17.7213804">
        <ele>31.3801</ele>
        <time>2013-05-03T16:19:05Z</time>
      </trkpt>
      <trkpt lat="59.9056864" lon="17.7213489">
        <ele>31.3801</ele>
        <time>2013-05-03T16:19:06Z</time>
      </trkpt>
      <trkpt lat="59.9057028" lon="17.7213186">
        <ele>31.3801</ele>
        <time>2013-05-03T16:19:07Z</time>
      </trkpt>
      <trkpt lat="59.9057186" lon="17.7212872">
        <ele>31.3801</ele>
        <time>2013-05-03T16:19:08Z</time>
      </trkpt>
      <trkpt lat="59.9057351" lon="17.721253">
        <ele>31.3801</ele>
        <time>2013-05-03T16:19:09Z</time>
      </trkpt>
      <trkpt lat="59.9057514" lon="17.7212188">
        <ele>31.8607</ele>
        <time>2013-05-03T16:19:10Z</time>
      </trkpt>
      <trkpt lat="59.9057665" lon="17.7211829">
        <ele>31.8607</ele>
        <time>2013-05-03T16:19:11Z</time>
      </trkpt>
      <trkpt lat="59.9057813" lon="17.7211462">
        <ele>31.8607</ele>
        <time>2013-05-03T16:19:12Z</time>
      </trkpt>
      <trkpt lat="59.9057982" lon="17.7211134">
        <ele>31.8607</ele>
        <time>2013-05-03T16:19:13Z</time>
      </trkpt>
      <trkpt lat="59.9058159" lon="17.7210811">
        <ele>31.8607</ele>
        <time>2013-05-03T16:19:14Z</time>
      </trkpt>
      <trkpt lat="59.9058325" lon="17.7210468">
        <ele>31.8607</ele>
        <time>2013-05-03T16:19:15Z</time>
      </trkpt>
      <trkpt lat="59.9058493" lon="17.7210116">
        <ele>31.8607</ele>
        <time>2013-05-03T16:19:16Z</time>
      </trkpt>
      <trkpt lat="59.9058645" lon="17.7209754">
        <ele>31.8607</ele>
        <time>2013-05-03T16:19:17Z</time>
      </trkpt>
      <trkpt lat="59.9058791" lon="17.7209412">
        <ele>31.8607</ele>
        <time>2013-05-03T16:19:18Z</time>
      </trkpt>
      <trkpt lat="59.9058918" lon="17.7209054">
        <ele>31.8607</ele>
        <time>2013-05-03T16:19:19Z</time>
      </trkpt>
      <trkpt lat="59.9059034" lon="17.7208695">
        <ele>32.3416</ele>
        <time>2013-05-03T16:19:20Z</time>
      </trkpt>
      <trkpt lat="59.9059174" lon="17.720836">
        <ele>32.3416</ele>
        <time>2013-05-03T16:19:21Z</time>
      </trkpt>
      <trkpt lat="59.9059336" lon="17.720808">
        <ele>32.3416</ele>
        <time>2013-05-03T16:19:22Z</time>
      </trkpt>
      <trkpt lat="59.9059503" lon="17.7207805">
        <ele>32.3416</ele>
        <time>2013-05-03T16:19:23Z</time>
      </trkpt>
      <trkpt lat="59.9059649" lon="17.7207515">
        <ele>32.3416</ele>
        <time>2013-05-03T16:19:24Z</time>
      </trkpt>
      <trkpt lat="59.9059801" lon="17.7207208">
        <ele>32.8223</ele>
        <time>2013-05-03T16:19:25Z</time>
      </trkpt>
      <trkpt lat="59.9059971" lon="17.7206871">
        <ele>32.8223</ele>
        <time>2013-05-03T16:19:26Z</time>
      </trkpt>
      <trkpt lat="59.9060153" lon="17.7206509">
        <ele>33.3029</ele>
        <time>2013-05-03T16:19:27Z</time>
      </trkpt>
      <trkpt lat="59.9060332" lon="17.720613">
        <ele>33.3029</ele>
        <time>2013-05-03T16:19:28Z</time>
      </trkpt>
      <trkpt lat="59.9060513" lon="17.7205758">
        <ele>33.7834</ele>
        <time>2013-05-03T16:19:29Z</time>
      </trkpt>
      <trkpt lat="59.9060684" lon="17.7205412">
        <ele>33.7834</ele>
        <time>2013-05-03T16:19:30Z</time>
      </trkpt>
      <trkpt lat="59.9060842" lon="17.720512">
        <ele>34.2642</ele>
        <time>2013-05-03T16:19:31Z</time>
      </trkpt>
      <trkpt lat="59.9061013" lon="17.720484">
        <ele>34.7449</ele>
        <time>2013-05-03T16:19:32Z</time>
      </trkpt>
      <trkpt lat="59.9061185" lon="17.7204536">
        <ele>34.7449</ele>
        <time>2013-05-03T16:19:33Z</time>
      </trkpt>
      <trkpt lat="59.9061355" lon="17.7204178">
        <ele>34.7449</ele>
        <time>2013-05-03T16:19:34Z</time>
      </trkpt>
      <trkpt lat="59.9061529" lon="17.720379">
        <ele>34.7449</ele>
        <time>2013-05-03T16:19:35Z</time>
      </trkpt>
      <trkpt lat="59.9061695" lon="17.7203352">
        <ele>34.7449</ele>
        <time>2013-05-03T16:19:36Z</time>
      </trkpt>
      <trkpt lat="59.9061857" lon="17.720291">
        <ele>34.7449</ele>
        <time>2013-05-03T16:19:37Z</time>
      </trkpt>
      <trkpt lat="59.9062032" lon="17.7202476">
        <ele>34.7449</ele>
        <time>2013-05-03T16:19:38Z</time>
      </trkpt>
      <trkpt lat="59.9062218" lon="17.7202065">
        <ele>34.7449</ele>
        <time>2013-05-03T16:19:39Z</time>
      </trkpt>
      <trkpt lat="59.9062406" lon="17.7201686">
        <ele>34.2642</ele>
        <time>2013-05-03T16:19:40Z</time>
      </trkpt>
      <trkpt lat="59.9062572" lon="17.7201306">
        <ele>34.2642</ele>
        <time>2013-05-03T16:19:41Z</time>
      </trkpt>
      <trkpt lat="59.9062713" lon="17.7200943">
        <ele>33.7834</ele>
        <time>2013-05-03T16:19:42Z</time>
      </trkpt>
      <trkpt lat="59.9062876" lon="17.7200684">
        <ele>33.3029</ele>
        <time>2013-05-03T16:19:43Z</time>
      </trkpt>
      <trkpt lat="59.9063074" lon="17.7200529">
        <ele>32.8223</ele>
        <time>2013-05-03T16:19:44Z</time>
      </trkpt>
      <trkpt lat="59.9063321" lon="17.7200442">
        <ele>32.3416</ele>
        <time>2013-05-03T16:19:45Z</time>
      </trkpt>
      <trkpt lat="59.9063618" lon="17.7200455">
        <ele>31.8607</ele>
        <time>2013-05-03T16:19:46Z</time>
      </trkpt>
      <trkpt lat="59.9063955" lon="17.7200605">
        <ele>31.3801</ele>
        <time>2013-05-03T16:19:47Z</time>
      </trkpt>
      <trkpt lat="59.90643" lon="17.720092">
        <ele>31.3801</ele>
        <time>2013-05-03T16:19:48Z</time>
      </trkpt>
      <trkpt lat="59.9064643" lon="17.7201346">
        <ele>30.8995</ele>
        <time>2013-05-03T16:19:49Z</time>
      </trkpt>
      <trkpt lat="59.9064999" lon="17.7201851">
        <ele>30.8995</ele>
        <time>2013-05-03T16:19:50Z</time>
      </trkpt>
      <trkpt lat="59.9065363" lon="17.7202449">
        <ele>30.8995</ele>
        <time>2013-05-03T16:19:51Z</time>
      </trkpt>
      <trkpt lat="59.9065742" lon="17.7203076">
        <ele>30.4188</ele>
        <time>2013-05-03T16:19:52Z</time>
      </trkpt>
      <trkpt lat="59.9066151" lon="17.720367">
        <ele>30.4188</ele>
        <time>2013-05-03T16:19:53Z</time>
      </trkpt>
      <trkpt lat="59.9066581" lon="17.7204268">
        <ele>30.4188</ele>
        <time>2013-05-03T16:19:54Z</time>
      </trkpt>
      <trkpt lat="59.9067022" lon="17.7204925">
        <ele>30.4188</ele>
        <time>2013-05-03T16:19:55Z</time>
      </trkpt>
      <trkpt lat="59.906747" lon="17.720563">
        <ele>29.9381</ele>
        <time>2013-05-03T16:19:56Z</time>
      </trkpt>
      <trkpt lat="59.9067911" lon="17.7206387">
        <ele>29.9381</ele>
        <time>2013-05-03T16:19:57Z</time>
      </trkpt>
      <trkpt lat="59.9068351" lon="17.7207189">
        <ele>29.4575</ele>
        <time>2013-05-03T16:19:58Z</time>
      </trkpt>
      <trkpt lat="59.9068802" lon="17.7208021">
        <ele>29.4575</ele>
        <time>2013-05-03T16:19:59Z</time>
      </trkpt>
      <trkpt lat="59.9069259" lon="17.7208896">
        <ele>29.4575</ele>
        <time>2013-05-03T16:20:00Z</time>
      </trkpt>
      <trkpt lat="59.9069731" lon="17.7209801">
        <ele>29.4575</ele>
        <time>2013-05-03T16:20:01Z</time>
      </trkpt>
      <trkpt lat="59.9070202" lon="17.7210727">
        <ele>29.4575</ele>
        <time>2013-05-03T16:20:02Z</time>
      </trkpt>
      <trkpt lat="59.9070668" lon="17.7211663">
        <ele>29.4575</ele>
        <time>2013-05-03T16:20:03Z</time>
      </trkpt>
      <trkpt lat="59.9071131" lon="17.7212623">
        <ele>29.4575</ele>
        <time>2013-05-03T16:20:04Z</time>
      </trkpt>
      <trkpt lat="59.9071583" lon="17.7213611">
        <ele>29.4575</ele>
        <time>2013-05-03T16:20:05Z</time>
      </trkpt>
      <trkpt lat="59.9072031" lon="17.7214606">
        <ele>29.4575</ele>
        <time>2013-05-03T16:20:06Z</time>
      </trkpt>
      <trkpt lat="59.9072476" lon="17.7215612">
        <ele>29.4575</ele>
        <time>2013-05-03T16:20:07Z</time>
      </trkpt>
      <trkpt lat="59.9072901" lon="17.7216653">
        <ele>29.4575</ele>
        <time>2013-05-03T16:20:08Z</time>
      </trkpt>
      <trkpt lat="59.9073317" lon="17.7217719">
        <ele>29.4575</ele>
        <time>2013-05-03T16:20:09Z</time>
      </trkpt>
      <trkpt lat="59.9073733" lon="17.7218797">
        <ele>29.4575</ele>
        <time>2013-05-03T16:20:10Z</time>
      </trkpt>
      <trkpt lat="59.9074148" lon="17.721989">
        <ele>29.4575</ele>
        <time>2013-05-03T16:20:11Z</time>
      </trkpt>
      <trkpt lat="59.9074553" lon="17.7221">
        <ele>29.4575</ele>
        <time>2013-05-03T16:20:12Z</time>
      </trkpt>
      <trkpt lat="59.9074963" lon="17.7222133">
        <ele>29.4575</ele>
        <time>2013-05-03T16:20:13Z</time>
      </trkpt>
      <trkpt lat="59.9075361" lon="17.7223278">
        <ele>29.4575</ele>
        <time>2013-05-03T16:20:14Z</time>
      </trkpt>
      <trkpt lat="59.9075751" lon="17.7224432">
        <ele>29.4575</ele>
        <time>2013-05-03T16:20:15Z</time>
      </trkpt>
      <trkpt lat="59.9076135" lon="17.7225589">
        <ele>29.4575</ele>
        <time>2013-05-03T16:20:16Z</time>
      </trkpt>
      <trkpt lat="59.9076506" lon="17.7226742">
        <ele>29.9381</ele>
        <time>2013-05-03T16:20:17Z</time>
      </trkpt>
      <trkpt lat="59.9076858" lon="17.7227905">
        <ele>29.9381</ele>
        <time>2013-05-03T16:20:18Z</time>
      </trkpt>
      <trkpt lat="59.9077201" lon="17.7229088">
        <ele>29.9381</ele>
        <time>2013-05-03T16:20:19Z</time>
      </trkpt>
      <trkpt lat="59.9077548" lon="17.7230277">
        <ele>29.9381</ele>
        <time>2013-05-03T16:20:20Z</time>
      </trkpt>
      <trkpt lat="59.9077882" lon="17.7231478">
        <ele>29.9381</ele>
        <time>2013-05-03T16:20:21Z</time>
      </trkpt>
      <trkpt lat="59.9078207" lon="17.7232685">
        <ele>30.4188</ele>
        <time>2013-05-03T16:20:22Z</time>
      </trkpt>
      <trkpt lat="59.9078523" lon="17.7233897">
        <ele>30.4188</ele>
        <time>2013-05-03T16:20:23Z</time>
      </trkpt>
      <trkpt lat="59.9078844" lon="17.7235115">
        <ele>30.4188</ele>
        <time>2013-05-03T16:20:24Z</time>
      </trkpt>
      <trkpt lat="59.9079164" lon="17.7236337">
        <ele>30.4188</ele>
        <time>2013-05-03T16:20:25Z</time>
      </trkpt>
      <trkpt lat="59.9079491" lon="17.723756">
        <ele>30.4188</ele>
        <time>2013-05-03T16:20:26Z</time>
      </trkpt>
      <trkpt lat="59.9079822" lon="17.7238801">
        <ele>30.8995</ele>
        <time>2013-05-03T16:20:27Z</time>
      </trkpt>
      <trkpt lat="59.9080144" lon="17.7240053">
        <ele>30.8995</ele>
        <time>2013-05-03T16:20:28Z</time>
      </trkpt>
      <trkpt lat="59.908046" lon="17.7241316">
        <ele>30.8995</ele>
        <time>2013-05-03T16:20:29Z</time>
      </trkpt>
      <trkpt lat="59.9080776" lon="17.7242579">
        <ele>30.8995</ele>
        <time>2013-05-03T16:20:30Z</time>
      </trkpt>
      <trkpt lat="59.9081097" lon="17.7243841">
        <ele>30.8995</ele>
        <time>2013-05-03T16:20:31Z</time>
      </trkpt>
      <trkpt lat="59.9081413" lon="17.7245096">
        <ele>30.8995</ele>
        <time>2013-05-03T16:20:32Z</time>
      </trkpt>
      <trkpt lat="59.9081724" lon="17.7246345">
        <ele>30.8995</ele>
        <time>2013-05-03T16:20:33Z</time>
      </trkpt>
      <trkpt lat="59.9082034" lon="17.7247599">
        <ele>30.8995</ele>
        <time>2013-05-03T16:20:34Z</time>
      </trkpt>
      <trkpt lat="59.9082355" lon="17.7248859">
        <ele>30.8995</ele>
        <time>2013-05-03T16:20:35Z</time>
      </trkpt>
      <trkpt lat="59.9082674" lon="17.7250137">
        <ele>30.8995</ele>
        <time>2013-05-03T16:20:36Z</time>
      </trkpt>
      <trkpt lat="59.9082983" lon="17.7251437">
        <ele>30.8995</ele>
        <time>2013-05-03T16:20:37Z</time>
      </trkpt>
      <trkpt lat="59.908329" lon="17.7252758">
        <ele>30.8995</ele>
        <time>2013-05-03T16:20:38Z</time>
      </trkpt>
      <trkpt lat="59.9083602" lon="17.725409">
        <ele>30.8995</ele>
        <time>2013-05-03T16:20:39Z</time>
      </trkpt>
      <trkpt lat="59.9083928" lon="17.725542">
        <ele>30.8995</ele>
        <time>2013-05-03T16:20:40Z</time>
      </trkpt>
      <trkpt lat="59.9084265" lon="17.7256746">
        <ele>30.8995</ele>
        <time>2013-05-03T16:20:41Z</time>
      </trkpt>
      <trkpt lat="59.9084604" lon="17.7258077">
        <ele>30.8995</ele>
        <time>2013-05-03T16:20:42Z</time>
      </trkpt>
      <trkpt lat="59.9084943" lon="17.7259416">
        <ele>30.8995</ele>
        <time>2013-05-03T16:20:43Z</time>
      </trkpt>
      <trkpt lat="59.908528" lon="17.7260756">
        <ele>30.8995</ele>
        <time>2013-05-03T16:20:44Z</time>
      </trkpt>
      <trkpt lat="59.9085613" lon="17.7262093">
        <ele>30.8995</ele>
        <time>2013-05-03T16:20:45Z</time>
      </trkpt>
      <trkpt lat="59.9085939" lon="17.7263433">
        <ele>30.8995</ele>
        <time>2013-05-03T16:20:46Z</time>
      </trkpt>
      <trkpt lat="59.9086261" lon="17.726478">
        <ele>30.8995</ele>
        <time>2013-05-03T16:20:47Z</time>
      </trkpt>
      <trkpt lat="59.9086577" lon="17.726614">
        <ele>30.8995</ele>
        <time>2013-05-03T16:20:48Z</time>
      </trkpt>
      <trkpt lat="59.9086885" lon="17.7267511">
        <ele>30.8995</ele>
        <time>2013-05-03T16:20:49Z</time>
      </trkpt>
      <trkpt lat="59.9087188" lon="17.7268882">
        <ele>30.8995</ele>
        <time>2013-05-03T16:20:50Z</time>
      </trkpt>
      <trkpt lat="59.9087477" lon="17.7270251">
        <ele>30.8995</ele>
        <time>2013-05-03T16:20:51Z</time>
      </trkpt>
      <trkpt lat="59.9087758" lon="17.7271617">
        <ele>30.4188</ele>
        <time>2013-05-03T16:20:52Z</time>
      </trkpt>
      <trkpt lat="59.9088037" lon="17.7272981">
        <ele>30.4188</ele>
        <time>2013-05-03T16:20:53Z</time>
      </trkpt>
      <trkpt lat="59.9088318" lon="17.7274345">
        <ele>30.4188</ele>
        <time>2013-05-03T16:20:54Z</time>
      </trkpt>
      <trkpt lat="59.90886" lon="17.7275706">
        <ele>30.4188</ele>
        <time>2013-05-03T16:20:55Z</time>
      </trkpt>
      <trkpt lat="59.908888" lon="17.7277073">
        <ele>30.4188</ele>
        <time>2013-05-03T16:20:56Z</time>
      </trkpt>
      <trkpt lat="59.9089155" lon="17.7278447">
        <ele>30.4188</ele>
        <time>2013-05-03T16:20:57Z</time>
      </trkpt>
      <trkpt lat="59.9089429" lon="17.7279818">
        <ele>29.9381</ele>
        <time>2013-05-03T16:20:58Z</time>
      </trkpt>
      <trkpt lat="59.9089714" lon="17.7281179">
        <ele>29.9381</ele>
        <time>2013-05-03T16:20:59Z</time>
      </trkpt>
      <trkpt lat="59.9090002" lon="17.7282539">
        <ele>29.9381</ele>
        <time>2013-05-03T16:21:00Z</time>
      </trkpt>
      <trkpt lat="59.9090297" lon="17.7283899">
        <ele>29.9381</ele>
        <time>2013-05-03T16:21:01Z</time>
      </trkpt>
      <trkpt lat="59.9090607" lon="17.7285258">
        <ele>29.9381</ele>
        <time>2013-05-03T16:21:02Z</time>
      </trkpt>
      <trkpt lat="59.9090915" lon="17.728661">
        <ele>29.9381</ele>
        <time>2013-05-03T16:21:03Z</time>
      </trkpt>
      <trkpt lat="59.9091224" lon="17.7287932">
        <ele>29.9381</ele>
        <time>2013-05-03T16:21:04Z</time>
      </trkpt>
      <trkpt lat="59.9091519" lon="17.7289232">
        <ele>29.9381</ele>
        <time>2013-05-03T16:21:05Z</time>
      </trkpt>
      <trkpt lat="59.9091812" lon="17.7290505">
        <ele>29.4575</ele>
        <time>2013-05-03T16:21:06Z</time>
      </trkpt>
      <trkpt lat="59.9092117" lon="17.7291744">
        <ele>29.4575</ele>
        <time>2013-05-03T16:21:07Z</time>
      </trkpt>
      <trkpt lat="59.909241" lon="17.7292969">
        <ele>29.4575</ele>
        <time>2013-05-03T16:21:08Z</time>
      </trkpt>
      <trkpt lat="59.9092685" lon="17.729418">
        <ele>28.9769</ele>
        <time>2013-05-03T16:21:09Z</time>
      </trkpt>
      <trkpt lat="59.909296" lon="17.7295369">
        <ele>28.4962</ele>
        <time>2013-05-03T16:21:10Z</time>
      </trkpt>
      <trkpt lat="59.9093238" lon="17.7296531">
        <ele>28.4962</ele>
        <time>2013-05-03T16:21:11Z</time>
      </trkpt>
      <trkpt lat="59.9093502" lon="17.7297675">
        <ele>28.0155</ele>
        <time>2013-05-03T16:21:12Z</time>
      </trkpt>
      <trkpt lat="59.9093766" lon="17.7298795">
        <ele>28.0155</ele>
        <time>2013-05-03T16:21:13Z</time>
      </trkpt>
      <trkpt lat="59.9094026" lon="17.7299896">
        <ele>27.5349</ele>
        <time>2013-05-03T16:21:14Z</time>
      </trkpt>
      <trkpt lat="59.909429" lon="17.7300986">
        <ele>27.5349</ele>
        <time>2013-05-03T16:21:15Z</time>
      </trkpt>
      <trkpt lat="59.9094568" lon="17.7302078">
        <ele>28.0155</ele>
        <time>2013-05-03T16:21:16Z</time>
      </trkpt>
      <trkpt lat="59.9094849" lon="17.7303176">
        <ele>28.0155</ele>
        <time>2013-05-03T16:21:17Z</time>
      </trkpt>
      <trkpt lat="59.9095125" lon="17.730428">
        <ele>28.0155</ele>
        <time>2013-05-03T16:21:18Z</time>
      </trkpt>
      <trkpt lat="59.9095394" lon="17.7305383">
        <ele>28.0155</ele>
        <time>2013-05-03T16:21:19Z</time>
      </trkpt>
      <trkpt lat="59.9095664" lon="17.730647">
        <ele>28.0155</ele>
        <time>2013-05-03T16:21:20Z</time>
      </trkpt>
      <trkpt lat="59.9095927" lon="17.7307497">
        <ele>27.5349</ele>
        <time>2013-05-03T16:21:21Z</time>
      </trkpt>
      <trkpt lat="59.9096194" lon="17.7308551">
        <ele>27.5349</ele>
        <time>2013-05-03T16:21:22Z</time>
      </trkpt>
      <trkpt lat="59.909645" lon="17.7309647">
        <ele>27.5349</ele>
        <time>2013-05-03T16:21:23Z</time>
      </trkpt>
      <trkpt lat="59.9096715" lon="17.7310738">
        <ele>27.0543</ele>
        <time>2013-05-03T16:21:24Z</time>
      </trkpt>
      <trkpt lat="59.9096978" lon="17.7311843">
        <ele>27.0543</ele>
        <time>2013-05-03T16:21:25Z</time>
      </trkpt>
      <trkpt lat="59.9097247" lon="17.731297">
        <ele>27.0543</ele>
        <time>2013-05-03T16:21:26Z</time>
      </trkpt>
      <trkpt lat="59.9097527" lon="17.7314105">
        <ele>27.0543</ele>
        <time>2013-05-03T16:21:27Z</time>
      </trkpt>
      <trkpt lat="59.9097827" lon="17.7315241">
        <ele>27.0543</ele>
        <time>2013-05-03T16:21:28Z</time>
      </trkpt>
      <trkpt lat="59.9098123" lon="17.7316386">
        <ele>27.5349</ele>
        <time>2013-05-03T16:21:29Z</time>
      </trkpt>
      <trkpt lat="59.9098412" lon="17.7317556">
        <ele>27.5349</ele>
        <time>2013-05-03T16:21:30Z</time>
      </trkpt>
      <trkpt lat="59.9098698" lon="17.7318736">
        <ele>27.5349</ele>
        <time>2013-05-03T16:21:31Z</time>
      </trkpt>
      <trkpt lat="59.9098971" lon="17.7319935">
        <ele>27.0543</ele>
        <time>2013-05-03T16:21:32Z</time>
      </trkpt>
      <trkpt lat="59.9099266" lon="17.732113">
        <ele>27.0543</ele>
        <time>2013-05-03T16:21:33Z</time>
      </trkpt>
      <trkpt lat="59.9099554" lon="17.7322312">
        <ele>27.0543</ele>
        <time>2013-05-03T16:21:34Z</time>
      </trkpt>
      <trkpt lat="59.9099838" lon="17.7323504">
        <ele>26.5736</ele>
        <time>2013-05-03T16:21:35Z</time>
      </trkpt>
      <trkpt lat="59.9100128" lon="17.7324715">
        <ele>26.5736</ele>
        <time>2013-05-03T16:21:36Z</time>
      </trkpt>
      <trkpt lat="59.9100433" lon="17.732593">
        <ele>26.5736</ele>
        <time>2013-05-03T16:21:37Z</time>
      </trkpt>
      <trkpt lat="59.9100733" lon="17.732716">
        <ele>26.5736</ele>
        <time>2013-05-03T16:21:38Z</time>
      </trkpt>
      <trkpt lat="59.9101034" lon="17.7328401">
        <ele>26.5736</ele>
        <time>2013-05-03T16:21:39Z</time>
      </trkpt>
      <trkpt lat="59.9101338" lon="17.732964">
        <ele>26.0929</ele>
        <time>2013-05-03T16:21:40Z</time>
      </trkpt>
      <trkpt lat="59.9101643" lon="17.7330874">
        <ele>26.0929</ele>
        <time>2013-05-03T16:21:41Z</time>
      </trkpt>
      <trkpt lat="59.9101945" lon="17.7332098">
        <ele>26.0929</ele>
        <time>2013-05-03T16:21:42Z</time>
      </trkpt>
      <trkpt lat="59.9102247" lon="17.7333314">
        <ele>26.0929</ele>
        <time>2013-05-03T16:21:43Z</time>
      </trkpt>
      <trkpt lat="59.9102543" lon="17.7334531">
        <ele>26.0929</ele>
        <time>2013-05-03T16:21:44Z</time>
      </trkpt>
      <trkpt lat="59.9102842" lon="17.7335767">
        <ele>26.0929</ele>
        <time>2013-05-03T16:21:45Z</time>
      </trkpt>
      <trkpt lat="59.9103153" lon="17.7337019">
        <ele>25.6123</ele>
        <time>2013-05-03T16:21:46Z</time>
      </trkpt>
      <trkpt lat="59.9103469" lon="17.7338291">
        <ele>25.6123</ele>
        <time>2013-05-03T16:21:47Z</time>
      </trkpt>
      <trkpt lat="59.9103791" lon="17.7339573">
        <ele>25.6123</ele>
        <time>2013-05-03T16:21:48Z</time>
      </trkpt>
      <trkpt lat="59.9104114" lon="17.7340862">
        <ele>25.6123</ele>
        <time>2013-05-03T16:21:49Z</time>
      </trkpt>
      <trkpt lat="59.9104438" lon="17.7342151">
        <ele>26.0929</ele>
        <time>2013-05-03T16:21:50Z</time>
      </trkpt>
      <trkpt lat="59.9104765" lon="17.7343431">
        <ele>26.0929</ele>
        <time>2013-05-03T16:21:51Z</time>
      </trkpt>
      <trkpt lat="59.9105097" lon="17.7344704">
        <ele>26.5736</ele>
        <time>2013-05-03T16:21:52Z</time>
      </trkpt>
      <trkpt lat="59.9105416" lon="17.7345964">
        <ele>26.5736</ele>
        <time>2013-05-03T16:21:53Z</time>
      </trkpt>
      <trkpt lat="59.9105733" lon="17.7347218">
        <ele>26.5736</ele>
        <time>2013-05-03T16:21:54Z</time>
      </trkpt>
      <trkpt lat="59.9106054" lon="17.7348479">
        <ele>26.5736</ele>
        <time>2013-05-03T16:21:55Z</time>
      </trkpt>
      <trkpt lat="59.910638" lon="17.7349745">
        <ele>26.5736</ele>
        <time>2013-05-03T16:21:56Z</time>
      </trkpt>
      <trkpt lat="59.9106707" lon="17.7351021">
        <ele>26.0929</ele>
        <time>2013-05-03T16:21:57Z</time>
      </trkpt>
      <trkpt lat="59.9107046" lon="17.7352299">
        <ele>26.0929</ele>
        <time>2013-05-03T16:21:58Z</time>
      </trkpt>
      <trkpt lat="59.910739" lon="17.7353568">
        <ele>26.0929</ele>
        <time>2013-05-03T16:21:59Z</time>
      </trkpt>
      <trkpt lat="59.9107738" lon="17.7354815">
        <ele>26.0929</ele>
        <time>2013-05-03T16:22:00Z</time>
      </trkpt>
      <trkpt lat="59.9108093" lon="17.7356058">
        <ele>26.0929</ele>
        <time>2013-05-03T16:22:01Z</time>
      </trkpt>
      <trkpt lat="59.9108447" lon="17.7357308">
        <ele>26.0929</ele>
        <time>2013-05-03T16:22:02Z</time>
      </trkpt>
      <trkpt lat="59.9108805" lon="17.7358557">
        <ele>26.0929</ele>
        <time>2013-05-03T16:22:03Z</time>
      </trkpt>
      <trkpt lat="59.9109175" lon="17.7359795">
        <ele>26.0929</ele>
        <time>2013-05-03T16:22:04Z</time>
      </trkpt>
      <trkpt lat="59.9109553" lon="17.7361013">
        <ele>26.0929</ele>
        <time>2013-05-03T16:22:05Z</time>
      </trkpt>
      <trkpt lat="59.9109928" lon="17.7362212">
        <ele>26.0929</ele>
        <time>2013-05-03T16:22:06Z</time>
      </trkpt>
      <trkpt lat="59.9110307" lon="17.7363403">
        <ele>25.6123</ele>
        <time>2013-05-03T16:22:07Z</time>
      </trkpt>
      <trkpt lat="59.9110698" lon="17.736458">
        <ele>25.6123</ele>
        <time>2013-05-03T16:22:08Z</time>
      </trkpt>
      <trkpt lat="59.9111103" lon="17.7365736">
        <ele>25.6123</ele>
        <time>2013-05-03T16:22:09Z</time>
      </trkpt>
      <trkpt lat="59.9111517" lon="17.7366881">
        <ele>25.6123</ele>
        <time>2013-05-03T16:22:10Z</time>
      </trkpt>
      <trkpt lat="59.9111936" lon="17.7368026">
        <ele>26.0929</ele>
        <time>2013-05-03T16:22:11Z</time>
      </trkpt>
      <trkpt lat="59.9112359" lon="17.7369163">
        <ele>26.0929</ele>
        <time>2013-05-03T16:22:12Z</time>
      </trkpt>
      <trkpt lat="59.9112782" lon="17.7370301">
        <ele>26.0929</ele>
        <time>2013-05-03T16:22:13Z</time>
      </trkpt>
      <trkpt lat="59.9113202" lon="17.737145">
        <ele>26.0929</ele>
        <time>2013-05-03T16:22:14Z</time>
      </trkpt>
      <trkpt lat="59.9113622" lon="17.7372601">
        <ele>26.5736</ele>
        <time>2013-05-03T16:22:15Z</time>
      </trkpt>
      <trkpt lat="59.9114041" lon="17.7373754">
        <ele>26.5736</ele>
        <time>2013-05-03T16:22:16Z</time>
      </trkpt>
      <trkpt lat="59.9114451" lon="17.7374905">
        <ele>26.5736</ele>
        <time>2013-05-03T16:22:17Z</time>
      </trkpt>
      <trkpt lat="59.9114865" lon="17.7376053">
        <ele>26.5736</ele>
        <time>2013-05-03T16:22:18Z</time>
      </trkpt>
      <trkpt lat="59.911528" lon="17.73772">
        <ele>26.5736</ele>
        <time>2013-05-03T16:22:19Z</time>
      </trkpt>
      <trkpt lat="59.9115698" lon="17.7378348">
        <ele>27.0543</ele>
        <time>2013-05-03T16:22:20Z</time>
      </trkpt>
      <trkpt lat="59.9116112" lon="17.7379494">
        <ele>27.0543</ele>
        <time>2013-05-03T16:22:21Z</time>
      </trkpt>
      <trkpt lat="59.9116523" lon="17.7380644">
        <ele>27.0543</ele>
        <time>2013-05-03T16:22:22Z</time>
      </trkpt>
      <trkpt lat="59.9116937" lon="17.7381793">
        <ele>27.0543</ele>
        <time>2013-05-03T16:22:23Z</time>
      </trkpt>
      <trkpt lat="59.9117356" lon="17.7382932">
        <ele>27.0543</ele>
        <time>2013-05-03T16:22:24Z</time>
      </trkpt>
      <trkpt lat="59.9117776" lon="17.7384074">
        <ele>27.0543</ele>
        <time>2013-05-03T16:22:25Z</time>
      </trkpt>
      <trkpt lat="59.9118192" lon="17.7385233">
        <ele>27.5349</ele>
        <time>2013-05-03T16:22:26Z</time>
      </trkpt>
      <trkpt lat="59.9118611" lon="17.7386401">
        <ele>27.5349</ele>
        <time>2013-05-03T16:22:27Z</time>
      </trkpt>
      <trkpt lat="59.9119036" lon="17.7387569">
        <ele>27.5349</ele>
        <time>2013-05-03T16:22:28Z</time>
      </trkpt>
      <trkpt lat="59.9119466" lon="17.7388735">
        <ele>27.5349</ele>
        <time>2013-05-03T16:22:29Z</time>
      </trkpt>
      <trkpt lat="59.9119891" lon="17.7389902">
        <ele>27.5349</ele>
        <time>2013-05-03T16:22:30Z</time>
      </trkpt>
      <trkpt lat="59.9120314" lon="17.7391071">
        <ele>28.0155</ele>
        <time>2013-05-03T16:22:31Z</time>
      </trkpt>
      <trkpt lat="59.9120733" lon="17.7392243">
        <ele>28.0155</ele>
        <time>2013-05-03T16:22:32Z</time>
      </trkpt>
      <trkpt lat="59.9121155" lon="17.7393418">
        <ele>28.0155</ele>
        <time>2013-05-03T16:22:33Z</time>
      </trkpt>
      <trkpt lat="59.9121582" lon="17.7394589">
        <ele>28.0155</ele>
        <time>2013-05-03T16:22:34Z</time>
      </trkpt>
      <trkpt lat="59.9122008" lon="17.7395765">
        <ele>28.0155</ele>
        <time>2013-05-03T16:22:35Z</time>
      </trkpt>
      <trkpt lat="59.9122433" lon="17.7396942">
        <ele>28.0155</ele>
        <time>2013-05-03T16:22:36Z</time>
      </trkpt>
      <trkpt lat="59.9122866" lon="17.7398128">
        <ele>28.0155</ele>
        <time>2013-05-03T16:22:37Z</time>
      </trkpt>
      <trkpt lat="59.9123286" lon="17.7399329">
        <ele>27.5349</ele>
        <time>2013-05-03T16:22:38Z</time>
      </trkpt>
      <trkpt lat="59.9123708" lon="17.7400511">
        <ele>27.5349</ele>
        <time>2013-05-03T16:22:39Z</time>
      </trkpt>
      <trkpt lat="59.9124131" lon="17.7401695">
        <ele>27.5349</ele>
        <time>2013-05-03T16:22:40Z</time>
      </trkpt>
      <trkpt lat="59.9124557" lon="17.7402877">
        <ele>27.5349</ele>
        <time>2013-05-03T16:22:41Z</time>
      </trkpt>
      <trkpt lat="59.912499" lon="17.7404067">
        <ele>27.5349</ele>
        <time>2013-05-03T16:22:42Z</time>
      </trkpt>
      <trkpt lat="59.9125426" lon="17.7405251">
        <ele>27.5349</ele>
        <time>2013-05-03T16:22:43Z</time>
      </trkpt>
      <trkpt lat="59.912586" lon="17.7406442">
        <ele>27.5349</ele>
        <time>2013-05-03T16:22:44Z</time>
      </trkpt>
      <trkpt lat="59.912629" lon="17.7407646">
        <ele>27.5349</ele>
        <time>2013-05-03T16:22:45Z</time>
      </trkpt>
      <trkpt lat="59.9126718" lon="17.7408848">
        <ele>27.5349</ele>
        <time>2013-05-03T16:22:46Z</time>
      </trkpt>
      <trkpt lat="59.9127145" lon="17.7410051">
        <ele>27.5349</ele>
        <time>2013-05-03T16:22:47Z</time>
      </trkpt>
      <trkpt lat="59.9127572" lon="17.7411254">
        <ele>27.5349</ele>
        <time>2013-05-03T16:22:48Z</time>
      </trkpt>
      <trkpt lat="59.9128002" lon="17.7412459">
        <ele>27.5349</ele>
        <time>2013-05-03T16:22:49Z</time>
      </trkpt>
      <trkpt lat="59.9128432" lon="17.7413661">
        <ele>27.5349</ele>
        <time>2013-05-03T16:22:50Z</time>
      </trkpt>
      <trkpt lat="59.9128856" lon="17.741486">
        <ele>27.5349</ele>
        <time>2013-05-03T16:22:51Z</time>
      </trkpt>
      <trkpt lat="59.9129272" lon="17.7416052">
        <ele>27.5349</ele>
        <time>2013-05-03T16:22:52Z</time>
      </trkpt>
      <trkpt lat="59.912967" lon="17.7417247">
        <ele>27.5349</ele>
        <time>2013-05-03T16:22:53Z</time>
      </trkpt>
      <trkpt lat="59.9130058" lon="17.7418437">
        <ele>27.5349</ele>
        <time>2013-05-03T16:22:54Z</time>
      </trkpt>
      <trkpt lat="59.9130445" lon="17.7419604">
        <ele>27.5349</ele>
        <time>2013-05-03T16:22:55Z</time>
      </trkpt>
      <trkpt lat="59.9130821" lon="17.742077">
        <ele>27.5349</ele>
        <time>2013-05-03T16:22:56Z</time>
      </trkpt>
      <trkpt lat="59.9131197" lon="17.7421947">
        <ele>27.5349</ele>
        <time>2013-05-03T16:22:57Z</time>
      </trkpt>
      <trkpt lat="59.9131571" lon="17.7423125">
        <ele>27.5349</ele>
        <time>2013-05-03T16:22:58Z</time>
      </trkpt>
      <trkpt lat="59.9131945" lon="17.7424316">
        <ele>27.5349</ele>
        <time>2013-05-03T16:22:59Z</time>
      </trkpt>
      <trkpt lat="59.9132321" lon="17.7425525">
        <ele>27.5349</ele>
        <time>2013-05-03T16:23:00Z</time>
      </trkpt>
      <trkpt lat="59.9132701" lon="17.7426741">
        <ele>27.5349</ele>
        <time>2013-05-03T16:23:01Z</time>
      </trkpt>
      <trkpt lat="59.9133087" lon="17.742798">
        <ele>27.5349</ele>
        <time>2013-05-03T16:23:02Z</time>
      </trkpt>
      <trkpt lat="59.9133454" lon="17.7429255">
        <ele>28.0155</ele>
        <time>2013-05-03T16:23:03Z</time>
      </trkpt>
      <trkpt lat="59.9133802" lon="17.7430545">
        <ele>28.0155</ele>
        <time>2013-05-03T16:23:04Z</time>
      </trkpt>
      <trkpt lat="59.9134159" lon="17.7431814">
        <ele>27.5349</ele>
        <time>2013-05-03T16:23:05Z</time>
      </trkpt>
      <trkpt lat="59.9134518" lon="17.7433056">
        <ele>27.5349</ele>
        <time>2013-05-03T16:23:06Z</time>
      </trkpt>
      <trkpt lat="59.9134881" lon="17.7434274">
        <ele>27.5349</ele>
        <time>2013-05-03T16:23:07Z</time>
      </trkpt>
      <trkpt lat="59.9135239" lon="17.743547">
        <ele>27.5349</ele>
        <time>2013-05-03T16:23:08Z</time>
      </trkpt>
      <trkpt lat="59.9135592" lon="17.7436657">
        <ele>27.5349</ele>
        <time>2013-05-03T16:23:09Z</time>
      </trkpt>
      <trkpt lat="59.9135951" lon="17.7437844">
        <ele>27.5349</ele>
        <time>2013-05-03T16:23:10Z</time>
      </trkpt>
      <trkpt lat="59.9136312" lon="17.7439031">
        <ele>27.5349</ele>
        <time>2013-05-03T16:23:11Z</time>
      </trkpt>
      <trkpt lat="59.9136684" lon="17.744021">
        <ele>27.5349</ele>
        <time>2013-05-03T16:23:12Z</time>
      </trkpt>
      <trkpt lat="59.9137063" lon="17.7441386">
        <ele>27.5349</ele>
        <time>2013-05-03T16:23:13Z</time>
      </trkpt>
      <trkpt lat="59.9137436" lon="17.7442582">
        <ele>27.5349</ele>
        <time>2013-05-03T16:23:14Z</time>
      </trkpt>
      <trkpt lat="59.9137804" lon="17.7443796">
        <ele>27.5349</ele>
        <time>2013-05-03T16:23:15Z</time>
      </trkpt>
      <trkpt lat="59.9138192" lon="17.7445001">
        <ele>28.0155</ele>
        <time>2013-05-03T16:23:16Z</time>
      </trkpt>
      <trkpt lat="59.9138574" lon="17.7446204">
        <ele>28.0155</ele>
        <time>2013-05-03T16:23:17Z</time>
      </trkpt>
      <trkpt lat="59.9138961" lon="17.7447424">
        <ele>28.0155</ele>
        <time>2013-05-03T16:23:18Z</time>
      </trkpt>
      <trkpt lat="59.9139349" lon="17.744865">
        <ele>28.0155</ele>
        <time>2013-05-03T16:23:19Z</time>
      </trkpt>
      <trkpt lat="59.9139738" lon="17.7449867">
        <ele>27.5349</ele>
        <time>2013-05-03T16:23:20Z</time>
      </trkpt>
      <trkpt lat="59.9140123" lon="17.7451082">
        <ele>27.5349</ele>
        <time>2013-05-03T16:23:21Z</time>
      </trkpt>
      <trkpt lat="59.9140507" lon="17.74523">
        <ele>27.5349</ele>
        <time>2013-05-03T16:23:22Z</time>
      </trkpt>
      <trkpt lat="59.9140898" lon="17.7453512">
        <ele>27.5349</ele>
        <time>2013-05-03T16:23:23Z</time>
      </trkpt>
      <trkpt lat="59.9141289" lon="17.7454725">
        <ele>28.0155</ele>
        <time>2013-05-03T16:23:24Z</time>
      </trkpt>
      <trkpt lat="59.914168" lon="17.7455953">
        <ele>27.5349</ele>
        <time>2013-05-03T16:23:25Z</time>
      </trkpt>
      <trkpt lat="59.9142066" lon="17.7457192">
        <ele>27.5349</ele>
        <time>2013-05-03T16:23:26Z</time>
      </trkpt>
      <trkpt lat="59.9142452" lon="17.7458444">
        <ele>27.5349</ele>
        <time>2013-05-03T16:23:27Z</time>
      </trkpt>
      <trkpt lat="59.9142846" lon="17.7459698">
        <ele>27.5349</ele>
        <time>2013-05-03T16:23:28Z</time>
      </trkpt>
      <trkpt lat="59.914325" lon="17.7460953">
        <ele>27.5349</ele>
        <time>2013-05-03T16:23:29Z</time>
      </trkpt>
      <trkpt lat="59.9143659" lon="17.7462217">
        <ele>27.5349</ele>
        <time>2013-05-03T16:23:30Z</time>
      </trkpt>
      <trkpt lat="59.9144068" lon="17.74635">
        <ele>27.0543</ele>
        <time>2013-05-03T16:23:31Z</time>
      </trkpt>
      <trkpt lat="59.9144484" lon="17.7464801">
        <ele>27.0543</ele>
        <time>2013-05-03T16:23:32Z</time>
      </trkpt>
      <trkpt lat="59.914491" lon="17.74661">
        <ele>27.0543</ele>
        <time>2013-05-03T16:23:33Z</time>
      </trkpt>
      <trkpt lat="59.9145344" lon="17.7467375">
        <ele>27.0543</ele>
        <time>2013-05-03T16:23:34Z</time>
      </trkpt>
      <trkpt lat="59.914577" lon="17.7468638">
        <ele>27.0543</ele>
        <time>2013-05-03T16:23:35Z</time>
      </trkpt>
      <trkpt lat="59.9146184" lon="17.7469898">
        <ele>27.0543</ele>
        <time>2013-05-03T16:23:36Z</time>
      </trkpt>
      <trkpt lat="59.9146603" lon="17.7471145">
        <ele>27.0543</ele>
        <time>2013-05-03T16:23:37Z</time>
      </trkpt>
      <trkpt lat="59.9147016" lon="17.7472382">
        <ele>27.0543</ele>
        <time>2013-05-03T16:23:38Z</time>
      </trkpt>
      <trkpt lat="59.9147425" lon="17.7473617">
        <ele>27.0543</ele>
        <time>2013-05-03T16:23:39Z</time>
      </trkpt>
      <trkpt lat="59.9147825" lon="17.7474855">
        <ele>27.5349</ele>
        <time>2013-05-03T16:23:40Z</time>
      </trkpt>
      <trkpt lat="59.914821" lon="17.7476098">
        <ele>27.5349</ele>
        <time>2013-05-03T16:23:41Z</time>
      </trkpt>
      <trkpt lat="59.9148601" lon="17.7477324">
        <ele>27.5349</ele>
        <time>2013-05-03T16:23:42Z</time>
      </trkpt>
      <trkpt lat="59.9148992" lon="17.7478528">
        <ele>27.5349</ele>
        <time>2013-05-03T16:23:43Z</time>
      </trkpt>
      <trkpt lat="59.914938" lon="17.7479719">
        <ele>27.5349</ele>
        <time>2013-05-03T16:23:44Z</time>
      </trkpt>
      <trkpt lat="59.9149762" lon="17.7480906">
        <ele>27.5349</ele>
        <time>2013-05-03T16:23:45Z</time>
      </trkpt>
      <trkpt lat="59.9150127" lon="17.7482087">
        <ele>27.5349</ele>
        <time>2013-05-03T16:23:46Z</time>
      </trkpt>
      <trkpt lat="59.9150494" lon="17.7483262">
        <ele>27.5349</ele>
        <time>2013-05-03T16:23:47Z</time>
      </trkpt>
      <trkpt lat="59.9150861" lon="17.7484427">
        <ele>28.0155</ele>
        <time>2013-05-03T16:23:48Z</time>
      </trkpt>
      <trkpt lat="59.9151228" lon="17.7485599">
        <ele>28.0155</ele>
        <time>2013-05-03T16:23:49Z</time>
      </trkpt>
      <trkpt lat="59.9151601" lon="17.7486784">
        <ele>28.0155</ele>
        <time>2013-05-03T16:23:50Z</time>
      </trkpt>
      <trkpt lat="59.9151964" lon="17.7487955">
        <ele>28.0155</ele>
        <time>2013-05-03T16:23:51Z</time>
      </trkpt>
      <trkpt lat="59.9152328" lon="17.7489115">
        <ele>28.0155</ele>
        <time>2013-05-03T16:23:52Z</time>
      </trkpt>
      <trkpt lat="59.9152689" lon="17.7490269">
        <ele>28.0155</ele>
        <time>2013-05-03T16:23:53Z</time>
      </trkpt>
      <trkpt lat="59.9153049" lon="17.7491419">
        <ele>28.0155</ele>
        <time>2013-05-03T16:23:54Z</time>
      </trkpt>
      <trkpt lat="59.9153413" lon="17.7492571">
        <ele>28.0155</ele>
        <time>2013-05-03T16:23:55Z</time>
      </trkpt>
      <trkpt lat="59.9153766" lon="17.7493741">
        <ele>28.0155</ele>
        <time>2013-05-03T16:23:56Z</time>
      </trkpt>
      <trkpt lat="59.9154123" lon="17.7494902">
        <ele>27.5349</ele>
        <time>2013-05-03T16:23:57Z</time>
      </trkpt>
      <trkpt lat="59.9154481" lon="17.7496046">
        <ele>27.5349</ele>
        <time>2013-05-03T16:23:58Z</time>
      </trkpt>
      <trkpt lat="59.9154834" lon="17.7497197">
        <ele>27.5349</ele>
        <time>2013-05-03T16:23:59Z</time>
      </trkpt>
      <trkpt lat="59.9155188" lon="17.7498357">
        <ele>27.5349</ele>
        <time>2013-05-03T16:24:00Z</time>
      </trkpt>
      <trkpt lat="59.9155549" lon="17.7499518">
        <ele>27.5349</ele>
        <time>2013-05-03T16:24:01Z</time>
      </trkpt>
      <trkpt lat="59.9155916" lon="17.7500683">
        <ele>27.5349</ele>
        <time>2013-05-03T16:24:02Z</time>
      </trkpt>
      <trkpt lat="59.915629" lon="17.750185">
        <ele>27.5349</ele>
        <time>2013-05-03T16:24:03Z</time>
      </trkpt>
      <trkpt lat="59.9156669" lon="17.7503031">
        <ele>27.5349</ele>
        <time>2013-05-03T16:24:04Z</time>
      </trkpt>
      <trkpt lat="59.9157041" lon="17.7504217">
        <ele>27.5349</ele>
        <time>2013-05-03T16:24:05Z</time>
      </trkpt>
      <trkpt lat="59.9157409" lon="17.7505393">
        <ele>27.5349</ele>
        <time>2013-05-03T16:24:06Z</time>
      </trkpt>
      <trkpt lat="59.9157776" lon="17.7506574">
        <ele>27.5349</ele>
        <time>2013-05-03T16:24:07Z</time>
      </trkpt>
      <trkpt lat="59.915815" lon="17.7507773">
        <ele>27.0543</ele>
        <time>2013-05-03T16:24:08Z</time>
      </trkpt>
      <trkpt lat="59.9158539" lon="17.7508976">
        <ele>27.0543</ele>
        <time>2013-05-03T16:24:09Z</time>
      </trkpt>
      <trkpt lat="59.9158932" lon="17.751019">
        <ele>27.0543</ele>
        <time>2013-05-03T16:24:10Z</time>
      </trkpt>
      <trkpt lat="59.9159324" lon="17.7511426">
        <ele>27.0543</ele>
        <time>2013-05-03T16:24:11Z</time>
      </trkpt>
      <trkpt lat="59.9159719" lon="17.7512687">
        <ele>26.5736</ele>
        <time>2013-05-03T16:24:12Z</time>
      </trkpt>
      <trkpt lat="59.916013" lon="17.7513969">
        <ele>26.5736</ele>
        <time>2013-05-03T16:24:13Z</time>
      </trkpt>
      <trkpt lat="59.9160541" lon="17.7515266">
        <ele>26.5736</ele>
        <time>2013-05-03T16:24:14Z</time>
      </trkpt>
      <trkpt lat="59.9160945" lon="17.751657">
        <ele>26.5736</ele>
        <time>2013-05-03T16:24:15Z</time>
      </trkpt>
      <trkpt lat="59.916135" lon="17.751786">
        <ele>26.5736</ele>
        <time>2013-05-03T16:24:16Z</time>
      </trkpt>
      <trkpt lat="59.9161758" lon="17.7519129">
        <ele>26.5736</ele>
        <time>2013-05-03T16:24:17Z</time>
      </trkpt>
      <trkpt lat="59.9162155" lon="17.7520399">
        <ele>26.5736</ele>
        <time>2013-05-03T16:24:18Z</time>
      </trkpt>
      <trkpt lat="59.9162551" lon="17.7521683">
        <ele>26.5736</ele>
        <time>2013-05-03T16:24:19Z</time>
      </trkpt>
      <trkpt lat="59.916295" lon="17.7522963">
        <ele>26.5736</ele>
        <time>2013-05-03T16:24:20Z</time>
      </trkpt>
      <trkpt lat="59.9163349" lon="17.7524237">
        <ele>26.5736</ele>
        <time>2013-05-03T16:24:21Z</time>
      </trkpt>
      <trkpt lat="59.9163751" lon="17.7525515">
        <ele>26.5736</ele>
        <time>2013-05-03T16:24:22Z</time>
      </trkpt>
      <trkpt lat="59.9164159" lon="17.7526787">
        <ele>26.5736</ele>
        <time>2013-05-03T16:24:23Z</time>
      </trkpt>
      <trkpt lat="59.9164558" lon="17.752805">
        <ele>26.5736</ele>
        <time>2013-05-03T16:24:24Z</time>
      </trkpt>
      <trkpt lat="59.9164952" lon="17.7529304">
        <ele>27.0543</ele>
        <time>2013-05-03T16:24:25Z</time>
      </trkpt>
      <trkpt lat="59.9165345" lon="17.753055">
        <ele>27.0543</ele>
        <time>2013-05-03T16:24:26Z</time>
      </trkpt>
      <trkpt lat="59.9165738" lon="17.7531794">
        <ele>27.0543</ele>
        <time>2013-05-03T16:24:27Z</time>
      </trkpt>
      <trkpt lat="59.9166134" lon="17.7533041">
        <ele>27.0543</ele>
        <time>2013-05-03T16:24:28Z</time>
      </trkpt>
      <trkpt lat="59.9166531" lon="17.7534293">
        <ele>27.0543</ele>
        <time>2013-05-03T16:24:29Z</time>
      </trkpt>
      <trkpt lat="59.9166897" lon="17.7535525">
        <ele>27.0543</ele>
        <time>2013-05-03T16:24:30Z</time>
      </trkpt>
      <trkpt lat="59.9167303" lon="17.7536773">
        <ele>27.5349</ele>
        <time>2013-05-03T16:24:31Z</time>
      </trkpt>
      <trkpt lat="59.9167731" lon="17.7538112">
        <ele>27.5349</ele>
        <time>2013-05-03T16:24:32Z</time>
      </trkpt>
      <trkpt lat="59.9168153" lon="17.7539343">
        <ele>27.5349</ele>
        <time>2013-05-03T16:24:33Z</time>
      </trkpt>
      <trkpt lat="59.9168578" lon="17.7540591">
        <ele>27.5349</ele>
        <time>2013-05-03T16:24:34Z</time>
      </trkpt>
      <trkpt lat="59.9169009" lon="17.7541824">
        <ele>28.0155</ele>
        <time>2013-05-03T16:24:35Z</time>
      </trkpt>
      <trkpt lat="59.9169439" lon="17.7543041">
        <ele>28.0155</ele>
        <time>2013-05-03T16:24:36Z</time>
      </trkpt>
      <trkpt lat="59.9169883" lon="17.7544319">
        <ele>28.0155</ele>
        <time>2013-05-03T16:24:37Z</time>
      </trkpt>
      <trkpt lat="59.9170328" lon="17.7545583">
        <ele>28.0155</ele>
        <time>2013-05-03T16:24:38Z</time>
      </trkpt>
      <trkpt lat="59.9170778" lon="17.7546843">
        <ele>28.4962</ele>
        <time>2013-05-03T16:24:39Z</time>
      </trkpt>
      <trkpt lat="59.9171223" lon="17.7548091">
        <ele>28.4962</ele>
        <time>2013-05-03T16:24:40Z</time>
      </trkpt>
      <trkpt lat="59.9171689" lon="17.7549354">
        <ele>28.4962</ele>
        <time>2013-05-03T16:24:41Z</time>
      </trkpt>
      <trkpt lat="59.9172167" lon="17.7550578">
        <ele>28.9769</ele>
        <time>2013-05-03T16:24:42Z</time>
      </trkpt>
      <trkpt lat="59.9172644" lon="17.7551763">
        <ele>28.9769</ele>
        <time>2013-05-03T16:24:43Z</time>
      </trkpt>
      <trkpt lat="59.9173116" lon="17.7552946">
        <ele>28.9769</ele>
        <time>2013-05-03T16:24:44Z</time>
      </trkpt>
      <trkpt lat="59.9173581" lon="17.7554135">
        <ele>29.4575</ele>
        <time>2013-05-03T16:24:45Z</time>
      </trkpt>
      <trkpt lat="59.9174048" lon="17.7555312">
        <ele>29.4575</ele>
        <time>2013-05-03T16:24:46Z</time>
      </trkpt>
      <trkpt lat="59.9174524" lon="17.7556483">
        <ele>29.4575</ele>
        <time>2013-05-03T16:24:47Z</time>
      </trkpt>
      <trkpt lat="59.9175006" lon="17.7557658">
        <ele>29.4575</ele>
        <time>2013-05-03T16:24:48Z</time>
      </trkpt>
      <trkpt lat="59.9175488" lon="17.7558825">
        <ele>29.9381</ele>
        <time>2013-05-03T16:24:49Z</time>
      </trkpt>
      <trkpt lat="59.9175976" lon="17.7559983">
        <ele>29.9381</ele>
        <time>2013-05-03T16:24:50Z</time>
      </trkpt>
      <trkpt lat="59.917647" lon="17.7561131">
        <ele>29.9381</ele>
        <time>2013-05-03T16:24:51Z</time>
      </trkpt>
      <trkpt lat="59.9176968" lon="17.7562276">
        <ele>29.9381</ele>
        <time>2013-05-03T16:24:52Z</time>
      </trkpt>
      <trkpt lat="59.9177471" lon="17.7563418">
        <ele>29.9381</ele>
        <time>2013-05-03T16:24:53Z</time>
      </trkpt>
      <trkpt lat="59.917798" lon="17.756455">
        <ele>29.9381</ele>
        <time>2013-05-03T16:24:54Z</time>
      </trkpt>
      <trkpt lat="59.9178496" lon="17.7565674">
        <ele>29.9381</ele>
        <time>2013-05-03T16:24:55Z</time>
      </trkpt>
      <trkpt lat="59.9179014" lon="17.7566777">
        <ele>29.9381</ele>
        <time>2013-05-03T16:24:56Z</time>
      </trkpt>
      <trkpt lat="59.9179533" lon="17.7567868">
        <ele>29.9381</ele>
        <time>2013-05-03T16:24:57Z</time>
      </trkpt>
      <trkpt lat="59.9180061" lon="17.7568976">
        <ele>30.4188</ele>
        <time>2013-05-03T16:24:58Z</time>
      </trkpt>
      <trkpt lat="59.9180589" lon="17.7570081">
        <ele>30.4188</ele>
        <time>2013-05-03T16:24:59Z</time>
      </trkpt>
      <trkpt lat="59.9181125" lon="17.7571173">
        <ele>30.4188</ele>
        <time>2013-05-03T16:25:00Z</time>
      </trkpt>
      <trkpt lat="59.9181671" lon="17.7572261">
        <ele>30.4188</ele>
        <time>2013-05-03T16:25:01Z</time>
      </trkpt>
      <trkpt lat="59.9182173" lon="17.757337">
        <ele>29.9381</ele>
        <time>2013-05-03T16:25:02Z</time>
      </trkpt>
      <trkpt lat="59.9182696" lon="17.7574452">
        <ele>29.9381</ele>
        <time>2013-05-03T16:25:03Z</time>
      </trkpt>
      <trkpt lat="59.9183247" lon="17.7575502">
        <ele>29.9381</ele>
        <time>2013-05-03T16:25:04Z</time>
      </trkpt>
      <trkpt lat="59.9183797" lon="17.7576533">
        <ele>29.4575</ele>
        <time>2013-05-03T16:25:05Z</time>
      </trkpt>
      <trkpt lat="59.9184351" lon="17.7577561">
        <ele>29.4575</ele>
        <time>2013-05-03T16:25:06Z</time>
      </trkpt>
      <trkpt lat="59.9184911" lon="17.7578587">
        <ele>29.4575</ele>
        <time>2013-05-03T16:25:07Z</time>
      </trkpt>
      <trkpt lat="59.918548" lon="17.7579602">
        <ele>29.4575</ele>
        <time>2013-05-03T16:25:08Z</time>
      </trkpt>
      <trkpt lat="59.9186055" lon="17.7580615">
        <ele>29.4575</ele>
        <time>2013-05-03T16:25:09Z</time>
      </trkpt>
      <trkpt lat="59.9186641" lon="17.7581616">
        <ele>29.9381</ele>
        <time>2013-05-03T16:25:10Z</time>
      </trkpt>
      <trkpt lat="59.9187234" lon="17.758261">
        <ele>29.9381</ele>
        <time>2013-05-03T16:25:11Z</time>
      </trkpt>
      <trkpt lat="59.9187828" lon="17.7583612">
        <ele>29.9381</ele>
        <time>2013-05-03T16:25:12Z</time>
      </trkpt>
      <trkpt lat="59.9188429" lon="17.7584612">
        <ele>29.9381</ele>
        <time>2013-05-03T16:25:13Z</time>
      </trkpt>
      <trkpt lat="59.9189039" lon="17.7585588">
        <ele>29.9381</ele>
        <time>2013-05-03T16:25:14Z</time>
      </trkpt>
      <trkpt lat="59.918965" lon="17.7586564">
        <ele>30.4188</ele>
        <time>2013-05-03T16:25:15Z</time>
      </trkpt>
      <trkpt lat="59.9190261" lon="17.7587551">
        <ele>30.4188</ele>
        <time>2013-05-03T16:25:16Z</time>
      </trkpt>
      <trkpt lat="59.9190866" lon="17.7588522">
        <ele>30.8995</ele>
        <time>2013-05-03T16:25:17Z</time>
      </trkpt>
      <trkpt lat="59.9191456" lon="17.7589486">
        <ele>30.8995</ele>
        <time>2013-05-03T16:25:18Z</time>
      </trkpt>
      <trkpt lat="59.9192085" lon="17.7590268">
        <ele>30.8995</ele>
        <time>2013-05-03T16:25:19Z</time>
      </trkpt>
      <trkpt lat="59.9192676" lon="17.7591155">
        <ele>31.3801</ele>
        <time>2013-05-03T16:25:20Z</time>
      </trkpt>
      <trkpt lat="59.9193266" lon="17.7592045">
        <ele>31.3801</ele>
        <time>2013-05-03T16:25:21Z</time>
      </trkpt>
      <trkpt lat="59.9193865" lon="17.7592936">
        <ele>31.8607</ele>
        <time>2013-05-03T16:25:22Z</time>
      </trkpt>
      <trkpt lat="59.9194448" lon="17.7593835">
        <ele>31.8607</ele>
        <time>2013-05-03T16:25:23Z</time>
      </trkpt>
      <trkpt lat="59.9195037" lon="17.7594752">
        <ele>31.8607</ele>
        <time>2013-05-03T16:25:24Z</time>
      </trkpt>
      <trkpt lat="59.9195649" lon="17.7595656">
        <ele>31.8607</ele>
        <time>2013-05-03T16:25:25Z</time>
      </trkpt>
      <trkpt lat="59.9196197" lon="17.7596604">
        <ele>31.8607</ele>
        <time>2013-05-03T16:25:26Z</time>
      </trkpt>
      <trkpt lat="59.919671" lon="17.7597577">
        <ele>31.8607</ele>
        <time>2013-05-03T16:25:27Z</time>
      </trkpt>
      <trkpt lat="59.9197186" lon="17.7598577">
        <ele>31.8607</ele>
        <time>2013-05-03T16:25:28Z</time>
      </trkpt>
      <trkpt lat="59.9197696" lon="17.7599482">
        <ele>31.8607</ele>
        <time>2013-05-03T16:25:29Z</time>
      </trkpt>
      <trkpt lat="59.9198244" lon="17.7600353">
        <ele>31.3801</ele>
        <time>2013-05-03T16:25:30Z</time>
      </trkpt>
      <trkpt lat="59.9198788" lon="17.7601234">
        <ele>31.8607</ele>
        <time>2013-05-03T16:25:31Z</time>
      </trkpt>
      <trkpt lat="59.9199326" lon="17.7602113">
        <ele>31.8607</ele>
        <time>2013-05-03T16:25:32Z</time>
      </trkpt>
      <trkpt lat="59.9199863" lon="17.760299">
        <ele>31.8607</ele>
        <time>2013-05-03T16:25:33Z</time>
      </trkpt>
      <trkpt lat="59.92004" lon="17.7603819">
        <ele>32.3416</ele>
        <time>2013-05-03T16:25:34Z</time>
      </trkpt>
      <trkpt lat="59.920093" lon="17.760468">
        <ele>32.8223</ele>
        <time>2013-05-03T16:25:35Z</time>
      </trkpt>
      <trkpt lat="59.9201454" lon="17.7605539">
        <ele>33.3029</ele>
        <time>2013-05-03T16:25:36Z</time>
      </trkpt>
      <trkpt lat="59.9201968" lon="17.7606394">
        <ele>33.3029</ele>
        <time>2013-05-03T16:25:37Z</time>
      </trkpt>
      <trkpt lat="59.9202464" lon="17.7607272">
        <ele>33.7834</ele>
        <time>2013-05-03T16:25:38Z</time>
      </trkpt>
      <trkpt lat="59.9202954" lon="17.7608158">
        <ele>33.7834</ele>
        <time>2013-05-03T16:25:39Z</time>
      </trkpt>
      <trkpt lat="59.9203446" lon="17.7609047">
        <ele>33.7834</ele>
        <time>2013-05-03T16:25:40Z</time>
      </trkpt>
      <trkpt lat="59.9203937" lon="17.7609958">
        <ele>34.2642</ele>
        <time>2013-05-03T16:25:41Z</time>
      </trkpt>
      <trkpt lat="59.9204433" lon="17.761089">
        <ele>34.2642</ele>
        <time>2013-05-03T16:25:42Z</time>
      </trkpt>
      <trkpt lat="59.9204936" lon="17.7611833">
        <ele>34.2642</ele>
        <time>2013-05-03T16:25:43Z</time>
      </trkpt>
      <trkpt lat="59.9205444" lon="17.7612791">
        <ele>34.2642</ele>
        <time>2013-05-03T16:25:44Z</time>
      </trkpt>
      <trkpt lat="59.9205952" lon="17.7613754">
        <ele>34.2642</ele>
        <time>2013-05-03T16:25:45Z</time>
      </trkpt>
      <trkpt lat="59.9206466" lon="17.7614722">
        <ele>34.2642</ele>
        <time>2013-05-03T16:25:46Z</time>
      </trkpt>
      <trkpt lat="59.9206966" lon="17.7615705">
        <ele>34.7449</ele>
        <time>2013-05-03T16:25:47Z</time>
      </trkpt>
      <trkpt lat="59.9207465" lon="17.7616718">
        <ele>34.2642</ele>
        <time>2013-05-03T16:25:48Z</time>
      </trkpt>
      <trkpt lat="59.9207953" lon="17.7617762">
        <ele>34.2642</ele>
        <time>2013-05-03T16:25:49Z</time>
      </trkpt>
      <trkpt lat="59.9208444" lon="17.7618821">
        <ele>34.2642</ele>
        <time>2013-05-03T16:25:50Z</time>
      </trkpt>
      <trkpt lat="59.9208921" lon="17.7619873">
        <ele>34.2642</ele>
        <time>2013-05-03T16:25:51Z</time>
      </trkpt>
      <trkpt lat="59.9209413" lon="17.7620939">
        <ele>33.7834</ele>
        <time>2013-05-03T16:25:52Z</time>
      </trkpt>
      <trkpt lat="59.9209894" lon="17.7622017">
        <ele>33.7834</ele>
        <time>2013-05-03T16:25:53Z</time>
      </trkpt>
      <trkpt lat="59.9210407" lon="17.7623108">
        <ele>33.7834</ele>
        <time>2013-05-03T16:25:54Z</time>
      </trkpt>
      <trkpt lat="59.9210925" lon="17.7624213">
        <ele>33.7834</ele>
        <time>2013-05-03T16:25:55Z</time>
      </trkpt>
      <trkpt lat="59.9211443" lon="17.7625342">
        <ele>33.3029</ele>
        <time>2013-05-03T16:25:56Z</time>
      </trkpt>
      <trkpt lat="59.9211969" lon="17.7626492">
        <ele>33.3029</ele>
        <time>2013-05-03T16:25:57Z</time>
      </trkpt>
      <trkpt lat="59.9212494" lon="17.762765">
        <ele>33.3029</ele>
        <time>2013-05-03T16:25:58Z</time>
      </trkpt>
      <trkpt lat="59.9213026" lon="17.7628813">
        <ele>32.8223</ele>
        <time>2013-05-03T16:25:59Z</time>
      </trkpt>
      <trkpt lat="59.9213536" lon="17.7629968">
        <ele>32.8223</ele>
        <time>2013-05-03T16:26:00Z</time>
      </trkpt>
      <trkpt lat="59.9214057" lon="17.7631138">
        <ele>32.3416</ele>
        <time>2013-05-03T16:26:01Z</time>
      </trkpt>
      <trkpt lat="59.9214607" lon="17.7632328">
        <ele>32.3416</ele>
        <time>2013-05-03T16:26:02Z</time>
      </trkpt>
      <trkpt lat="59.9215152" lon="17.7633526">
        <ele>31.8607</ele>
        <time>2013-05-03T16:26:03Z</time>
      </trkpt>
      <trkpt lat="59.9215705" lon="17.7634763">
        <ele>31.8607</ele>
        <time>2013-05-03T16:26:04Z</time>
      </trkpt>
      <trkpt lat="59.9216258" lon="17.7636025">
        <ele>31.3801</ele>
        <time>2013-05-03T16:26:05Z</time>
      </trkpt>
      <trkpt lat="59.9216876" lon="17.7637403">
        <ele>31.8607</ele>
        <time>2013-05-03T16:26:06Z</time>
      </trkpt>
      <trkpt lat="59.9217441" lon="17.7638852">
        <ele>31.8607</ele>
        <time>2013-05-03T16:26:07Z</time>
      </trkpt>
      <trkpt lat="59.9218016" lon="17.7640251">
        <ele>31.3801</ele>
        <time>2013-05-03T16:26:08Z</time>
      </trkpt>
      <trkpt lat="59.9218586" lon="17.7641648">
        <ele>31.3801</ele>
        <time>2013-05-03T16:26:09Z</time>
      </trkpt>
      <trkpt lat="59.921916" lon="17.7643027">
        <ele>30.8995</ele>
        <time>2013-05-03T16:26:10Z</time>
      </trkpt>
      <trkpt lat="59.9219717" lon="17.7644429">
        <ele>30.4188</ele>
        <time>2013-05-03T16:26:11Z</time>
      </trkpt>
      <trkpt lat="59.9220258" lon="17.764584">
        <ele>30.4188</ele>
        <time>2013-05-03T16:26:12Z</time>
      </trkpt>
      <trkpt lat="59.9220788" lon="17.7647239">
        <ele>29.9381</ele>
        <time>2013-05-03T16:26:13Z</time>
      </trkpt>
      <trkpt lat="59.9221321" lon="17.7648646">
        <ele>29.9381</ele>
        <time>2013-05-03T16:26:14Z</time>
      </trkpt>
      <trkpt lat="59.9221842" lon="17.7650063">
        <ele>29.9381</ele>
        <time>2013-05-03T16:26:15Z</time>
      </trkpt>
      <trkpt lat="59.9222347" lon="17.7651508">
        <ele>29.4575</ele>
        <time>2013-05-03T16:26:16Z</time>
      </trkpt>
      <trkpt lat="59.922287" lon="17.7652973">
        <ele>29.4575</ele>
        <time>2013-05-03T16:26:17Z</time>
      </trkpt>
      <trkpt lat="59.9223379" lon="17.7654426">
        <ele>28.9769</ele>
        <time>2013-05-03T16:26:18Z</time>
      </trkpt>
      <trkpt lat="59.9223886" lon="17.7655832">
        <ele>28.9769</ele>
        <time>2013-05-03T16:26:19Z</time>
      </trkpt>
      <trkpt lat="59.9224396" lon="17.765724">
        <ele>28.9769</ele>
        <time>2013-05-03T16:26:20Z</time>
      </trkpt>
      <trkpt lat="59.9224897" lon="17.7658643">
        <ele>28.9769</ele>
        <time>2013-05-03T16:26:21Z</time>
      </trkpt>
      <trkpt lat="59.9225384" lon="17.7660028">
        <ele>28.4962</ele>
        <time>2013-05-03T16:26:22Z</time>
      </trkpt>
      <trkpt lat="59.9225858" lon="17.7661438">
        <ele>28.4962</ele>
        <time>2013-05-03T16:26:23Z</time>
      </trkpt>
      <trkpt lat="59.9226316" lon="17.7662862">
        <ele>28.0155</ele>
        <time>2013-05-03T16:26:24Z</time>
      </trkpt>
      <trkpt lat="59.9226785" lon="17.7664276">
        <ele>28.4962</ele>
        <time>2013-05-03T16:26:25Z</time>
      </trkpt>
      <trkpt lat="59.9227222" lon="17.7665659">
        <ele>28.4962</ele>
        <time>2013-05-03T16:26:26Z</time>
      </trkpt>
      <trkpt lat="59.9227658" lon="17.7667012">
        <ele>28.0155</ele>
        <time>2013-05-03T16:26:27Z</time>
      </trkpt>
      <trkpt lat="59.9228087" lon="17.7668354">
        <ele>28.0155</ele>
        <time>2013-05-03T16:26:28Z</time>
      </trkpt>
      <trkpt lat="59.9228502" lon="17.7669713">
        <ele>28.0155</ele>
        <time>2013-05-03T16:26:29Z</time>
      </trkpt>
      <trkpt lat="59.9228918" lon="17.7671084">
        <ele>28.0155</ele>
        <time>2013-05-03T16:26:30Z</time>
      </trkpt>
      <trkpt lat="59.9229335" lon="17.767244">
        <ele>28.0155</ele>
        <time>2013-05-03T16:26:31Z</time>
      </trkpt>
      <trkpt lat="59.9229748" lon="17.7673779">
        <ele>28.0155</ele>
        <time>2013-05-03T16:26:32Z</time>
      </trkpt>
      <trkpt lat="59.9230148" lon="17.7675093">
        <ele>28.0155</ele>
        <time>2013-05-03T16:26:33Z</time>
      </trkpt>
      <trkpt lat="59.9230533" lon="17.7676387">
        <ele>27.5349</ele>
        <time>2013-05-03T16:26:34Z</time>
      </trkpt>
      <trkpt lat="59.9230902" lon="17.7677677">
        <ele>27.5349</ele>
        <time>2013-05-03T16:26:35Z</time>
      </trkpt>
      <trkpt lat="59.9231262" lon="17.7678967">
        <ele>27.5349</ele>
        <time>2013-05-03T16:26:36Z</time>
      </trkpt>
      <trkpt lat="59.923163" lon="17.7680256">
        <ele>27.5349</ele>
        <time>2013-05-03T16:26:37Z</time>
      </trkpt>
      <trkpt lat="59.9231997" lon="17.7681557">
        <ele>27.5349</ele>
        <time>2013-05-03T16:26:38Z</time>
      </trkpt>
      <trkpt lat="59.9232358" lon="17.768286">
        <ele>27.5349</ele>
        <time>2013-05-03T16:26:39Z</time>
      </trkpt>
      <trkpt lat="59.9232705" lon="17.7684161">
        <ele>27.5349</ele>
        <time>2013-05-03T16:26:40Z</time>
      </trkpt>
      <trkpt lat="59.9233034" lon="17.7685456">
        <ele>27.5349</ele>
        <time>2013-05-03T16:26:41Z</time>
      </trkpt>
      <trkpt lat="59.9233389" lon="17.7686757">
        <ele>27.5349</ele>
        <time>2013-05-03T16:26:42Z</time>
      </trkpt>
      <trkpt lat="59.9233742" lon="17.7688053">
        <ele>27.5349</ele>
        <time>2013-05-03T16:26:43Z</time>
      </trkpt>
      <trkpt lat="59.9234081" lon="17.7689354">
        <ele>27.0543</ele>
        <time>2013-05-03T16:26:44Z</time>
      </trkpt>
      <trkpt lat="59.9234411" lon="17.7690684">
        <ele>27.0543</ele>
        <time>2013-05-03T16:26:45Z</time>
      </trkpt>
      <trkpt lat="59.9234756" lon="17.7692019">
        <ele>27.0543</ele>
        <time>2013-05-03T16:26:46Z</time>
      </trkpt>
      <trkpt lat="59.9235095" lon="17.7693393">
        <ele>27.0543</ele>
        <time>2013-05-03T16:26:47Z</time>
      </trkpt>
      <trkpt lat="59.9235421" lon="17.7694813">
        <ele>26.5736</ele>
        <time>2013-05-03T16:26:48Z</time>
      </trkpt>
      <trkpt lat="59.9235758" lon="17.7696241">
        <ele>26.5736</ele>
        <time>2013-05-03T16:26:49Z</time>
      </trkpt>
      <trkpt lat="59.9236108" lon="17.7697688">
        <ele>26.5736</ele>
        <time>2013-05-03T16:26:50Z</time>
      </trkpt>
      <trkpt lat="59.9236462" lon="17.7699158">
        <ele>26.0929</ele>
        <time>2013-05-03T16:26:51Z</time>
      </trkpt>
      <trkpt lat="59.9236806" lon="17.7700643">
        <ele>26.0929</ele>
        <time>2013-05-03T16:26:52Z</time>
      </trkpt>
      <trkpt lat="59.9237137" lon="17.7702152">
        <ele>26.0929</ele>
        <time>2013-05-03T16:26:53Z</time>
      </trkpt>
      <trkpt lat="59.9237478" lon="17.7703698">
        <ele>25.6123</ele>
        <time>2013-05-03T16:26:54Z</time>
      </trkpt>
      <trkpt lat="59.9237821" lon="17.7705271">
        <ele>25.6123</ele>
        <time>2013-05-03T16:26:55Z</time>
      </trkpt>
      <trkpt lat="59.9238171" lon="17.7706893">
        <ele>25.1317</ele>
        <time>2013-05-03T16:26:56Z</time>
      </trkpt>
      <trkpt lat="59.9238524" lon="17.7708577">
        <ele>24.651</ele>
        <time>2013-05-03T16:26:57Z</time>
      </trkpt>
      <trkpt lat="59.9238885" lon="17.7710322">
        <ele>24.651</ele>
        <time>2013-05-03T16:26:58Z</time>
      </trkpt>
      <trkpt lat="59.9239246" lon="17.7712133">
        <ele>24.1703</ele>
        <time>2013-05-03T16:26:59Z</time>
      </trkpt>
      <trkpt lat="59.9239611" lon="17.7713993">
        <ele>23.6896</ele>
        <time>2013-05-03T16:27:00Z</time>
      </trkpt>
      <trkpt lat="59.9239984" lon="17.771588">
        <ele>23.209</ele>
        <time>2013-05-03T16:27:01Z</time>
      </trkpt>
      <trkpt lat="59.9240363" lon="17.7717828">
        <ele>22.7283</ele>
        <time>2013-05-03T16:27:02Z</time>
      </trkpt>
      <trkpt lat="59.9240736" lon="17.7719851">
        <ele>22.2476</ele>
        <time>2013-05-03T16:27:03Z</time>
      </trkpt>
      <trkpt lat="59.9241103" lon="17.7721934">
        <ele>21.767</ele>
        <time>2013-05-03T16:27:04Z</time>
      </trkpt>
      <trkpt lat="59.9241471" lon="17.7724069">
        <ele>21.2864</ele>
        <time>2013-05-03T16:27:05Z</time>
      </trkpt>
      <trkpt lat="59.9241843" lon="17.7726245">
        <ele>20.8057</ele>
        <time>2013-05-03T16:27:06Z</time>
      </trkpt>
      <trkpt lat="59.9242213" lon="17.7728472">
        <ele>20.8057</ele>
        <time>2013-05-03T16:27:07Z</time>
      </trkpt>
      <trkpt lat="59.9242576" lon="17.7730715">
        <ele>20.325</ele>
        <time>2013-05-03T16:27:08Z</time>
      </trkpt>
      <trkpt lat="59.9242929" lon="17.7732957">
        <ele>19.8444</ele>
        <time>2013-05-03T16:27:09Z</time>
      </trkpt>
      <trkpt lat="59.9243255" lon="17.773516">
        <ele>19.3638</ele>
        <time>2013-05-03T16:27:10Z</time>
      </trkpt>
      <trkpt lat="59.924357" lon="17.7737344">
        <ele>19.3638</ele>
        <time>2013-05-03T16:27:11Z</time>
      </trkpt>
      <trkpt lat="59.9243871" lon="17.7739508">
        <ele>18.8831</ele>
        <time>2013-05-03T16:27:12Z</time>
      </trkpt>
      <trkpt lat="59.9244171" lon="17.7741677">
        <ele>18.8831</ele>
        <time>2013-05-03T16:27:13Z</time>
      </trkpt>
      <trkpt lat="59.924445" lon="17.7743832">
        <ele>18.8831</ele>
        <time>2013-05-03T16:27:14Z</time>
      </trkpt>
      <trkpt lat="59.9244711" lon="17.7745956">
        <ele>18.4023</ele>
        <time>2013-05-03T16:27:15Z</time>
      </trkpt>
      <trkpt lat="59.9244958" lon="17.7748047">
        <ele>18.4023</ele>
        <time>2013-05-03T16:27:16Z</time>
      </trkpt>
      <trkpt lat="59.9245189" lon="17.7750114">
        <ele>18.4023</ele>
        <time>2013-05-03T16:27:17Z</time>
      </trkpt>
      <trkpt lat="59.9245412" lon="17.7752147">
        <ele>18.4023</ele>
        <time>2013-05-03T16:27:18Z</time>
      </trkpt>
      <trkpt lat="59.9245627" lon="17.7754144">
        <ele>18.8831</ele>
        <time>2013-05-03T16:27:19Z</time>
      </trkpt>
      <trkpt lat="59.9245832" lon="17.7756104">
        <ele>18.8831</ele>
        <time>2013-05-03T16:27:20Z</time>
      </trkpt>
      <trkpt lat="59.9246028" lon="17.7758031">
        <ele>18.8831</ele>
        <time>2013-05-03T16:27:21Z</time>
      </trkpt>
      <trkpt lat="59.9246217" lon="17.775993">
        <ele>18.8831</ele>
        <time>2013-05-03T16:27:22Z</time>
      </trkpt>
      <trkpt lat="59.9246399" lon="17.7761802">
        <ele>18.8831</ele>
        <time>2013-05-03T16:27:23Z</time>
      </trkpt>
      <trkpt lat="59.9246574" lon="17.776365">
        <ele>18.8831</ele>
        <time>2013-05-03T16:27:24Z</time>
      </trkpt>
      <trkpt lat="59.9246751" lon="17.7765469">
        <ele>19.3638</ele>
        <time>2013-05-03T16:27:25Z</time>
      </trkpt>
      <trkpt lat="59.9246916" lon="17.7767266">
        <ele>19.3638</ele>
        <time>2013-05-03T16:27:26Z</time>
      </trkpt>
      <trkpt lat="59.9247088" lon="17.776905">
        <ele>19.3638</ele>
        <time>2013-05-03T16:27:27Z</time>
      </trkpt>
      <trkpt lat="59.9247261" lon="17.777081">
        <ele>19.3638</ele>
        <time>2013-05-03T16:27:28Z</time>
      </trkpt>
      <trkpt lat="59.9247428" lon="17.7772548">
        <ele>19.3638</ele>
        <time>2013-05-03T16:27:29Z</time>
      </trkpt>
      <trkpt lat="59.9247595" lon="17.7774278">
        <ele>19.3638</ele>
        <time>2013-05-03T16:27:30Z</time>
      </trkpt>
      <trkpt lat="59.924776" lon="17.7775999">
        <ele>19.3638</ele>
        <time>2013-05-03T16:27:31Z</time>
      </trkpt>
      <trkpt lat="59.9247922" lon="17.7777703">
        <ele>19.3638</ele>
        <time>2013-05-03T16:27:32Z</time>
      </trkpt>
      <trkpt lat="59.9248082" lon="17.7779389">
        <ele>19.3638</ele>
        <time>2013-05-03T16:27:33Z</time>
      </trkpt>
      <trkpt lat="59.9248226" lon="17.7781059">
        <ele>19.3638</ele>
        <time>2013-05-03T16:27:34Z</time>
      </trkpt>
      <trkpt lat="59.9248347" lon="17.7782715">
        <ele>19.3638</ele>
        <time>2013-05-03T16:27:35Z</time>
      </trkpt>
      <trkpt lat="59.9248455" lon="17.7784356">
        <ele>19.3638</ele>
        <time>2013-05-03T16:27:36Z</time>
      </trkpt>
      <trkpt lat="59.9248563" lon="17.7785977">
        <ele>18.8831</ele>
        <time>2013-05-03T16:27:37Z</time>
      </trkpt>
      <trkpt lat="59.924867" lon="17.7787579">
        <ele>18.8831</ele>
        <time>2013-05-03T16:27:38Z</time>
      </trkpt>
      <trkpt lat="59.9248771" lon="17.7789167">
        <ele>18.8831</ele>
        <time>2013-05-03T16:27:39Z</time>
      </trkpt>
      <trkpt lat="59.9248859" lon="17.7790736">
        <ele>18.8831</ele>
        <time>2013-05-03T16:27:40Z</time>
      </trkpt>
      <trkpt lat="59.9248932" lon="17.7792281">
        <ele>18.8831</ele>
        <time>2013-05-03T16:27:41Z</time>
      </trkpt>
      <trkpt lat="59.9249007" lon="17.7793808">
        <ele>18.8831</ele>
        <time>2013-05-03T16:27:42Z</time>
      </trkpt>
      <trkpt lat="59.9249087" lon="17.7795317">
        <ele>18.8831</ele>
        <time>2013-05-03T16:27:43Z</time>
      </trkpt>
      <trkpt lat="59.924918" lon="17.7796812">
        <ele>18.8831</ele>
        <time>2013-05-03T16:27:44Z</time>
      </trkpt>
      <trkpt lat="59.9249273" lon="17.779829">
        <ele>18.8831</ele>
        <time>2013-05-03T16:27:45Z</time>
      </trkpt>
      <trkpt lat="59.9249377" lon="17.7799756">
        <ele>18.8831</ele>
        <time>2013-05-03T16:27:46Z</time>
      </trkpt>
      <trkpt lat="59.9249486" lon="17.7801208">
        <ele>18.8831</ele>
        <time>2013-05-03T16:27:47Z</time>
      </trkpt>
      <trkpt lat="59.924959" lon="17.7802647">
        <ele>18.8831</ele>
        <time>2013-05-03T16:27:48Z</time>
      </trkpt>
      <trkpt lat="59.9249707" lon="17.780407">
        <ele>18.8831</ele>
        <time>2013-05-03T16:27:49Z</time>
      </trkpt>
      <trkpt lat="59.9249827" lon="17.7805486">
        <ele>18.8831</ele>
        <time>2013-05-03T16:27:50Z</time>
      </trkpt>
      <trkpt lat="59.9249951" lon="17.7806901">
        <ele>18.8831</ele>
        <time>2013-05-03T16:27:51Z</time>
      </trkpt>
      <trkpt lat="59.9250079" lon="17.7808323">
        <ele>18.8831</ele>
        <time>2013-05-03T16:27:52Z</time>
      </trkpt>
      <trkpt lat="59.9250214" lon="17.7809744">
        <ele>18.8831</ele>
        <time>2013-05-03T16:27:53Z</time>
      </trkpt>
      <trkpt lat="59.9250356" lon="17.7811169">
        <ele>18.8831</ele>
        <time>2013-05-03T16:27:54Z</time>
      </trkpt>
      <trkpt lat="59.9250502" lon="17.7812594">
        <ele>18.8831</ele>
        <time>2013-05-03T16:27:55Z</time>
      </trkpt>
      <trkpt lat="59.9250651" lon="17.781401">
        <ele>18.8831</ele>
        <time>2013-05-03T16:27:56Z</time>
      </trkpt>
      <trkpt lat="59.9250811" lon="17.7815416">
        <ele>18.8831</ele>
        <time>2013-05-03T16:27:57Z</time>
      </trkpt>
      <trkpt lat="59.9250983" lon="17.7816825">
        <ele>18.8831</ele>
        <time>2013-05-03T16:27:58Z</time>
      </trkpt>
      <trkpt lat="59.9251159" lon="17.7818239">
        <ele>18.8831</ele>
        <time>2013-05-03T16:27:59Z</time>
      </trkpt>
      <trkpt lat="59.925133" lon="17.7819662">
        <ele>19.3638</ele>
        <time>2013-05-03T16:28:00Z</time>
      </trkpt>
      <trkpt lat="59.9251506" lon="17.7821091">
        <ele>19.3638</ele>
        <time>2013-05-03T16:28:01Z</time>
      </trkpt>
      <trkpt lat="59.9251696" lon="17.7822523">
        <ele>19.3638</ele>
        <time>2013-05-03T16:28:02Z</time>
      </trkpt>
      <trkpt lat="59.9251895" lon="17.7823964">
        <ele>19.3638</ele>
        <time>2013-05-03T16:28:03Z</time>
      </trkpt>
      <trkpt lat="59.9252103" lon="17.7825407">
        <ele>19.3638</ele>
        <time>2013-05-03T16:28:04Z</time>
      </trkpt>
      <trkpt lat="59.9252307" lon="17.7826838">
        <ele>19.3638</ele>
        <time>2013-05-03T16:28:05Z</time>
      </trkpt>
      <trkpt lat="59.9252506" lon="17.7828251">
        <ele>19.3638</ele>
        <time>2013-05-03T16:28:06Z</time>
      </trkpt>
      <trkpt lat="59.9252718" lon="17.782964">
        <ele>19.3638</ele>
        <time>2013-05-03T16:28:07Z</time>
      </trkpt>
      <trkpt lat="59.925293" lon="17.7831006">
        <ele>19.3638</ele>
        <time>2013-05-03T16:28:08Z</time>
      </trkpt>
      <trkpt lat="59.9253141" lon="17.7832352">
        <ele>19.3638</ele>
        <time>2013-05-03T16:28:09Z</time>
      </trkpt>
      <trkpt lat="59.9253346" lon="17.7833695">
        <ele>19.3638</ele>
        <time>2013-05-03T16:28:10Z</time>
      </trkpt>
      <trkpt lat="59.9253562" lon="17.7835048">
        <ele>19.3638</ele>
        <time>2013-05-03T16:28:11Z</time>
      </trkpt>
      <trkpt lat="59.925379" lon="17.7836403">
        <ele>19.3638</ele>
        <time>2013-05-03T16:28:12Z</time>
      </trkpt>
      <trkpt lat="59.925403" lon="17.7837747">
        <ele>19.3638</ele>
        <time>2013-05-03T16:28:13Z</time>
      </trkpt>
      <trkpt lat="59.9254273" lon="17.7839087">
        <ele>19.8444</ele>
        <time>2013-05-03T16:28:14Z</time>
      </trkpt>
      <trkpt lat="59.9254517" lon="17.7840437">
        <ele>19.8444</ele>
        <time>2013-05-03T16:28:15Z</time>
      </trkpt>
      <trkpt lat="59.9254767" lon="17.7841797">
        <ele>19.8444</ele>
        <time>2013-05-03T16:28:16Z</time>
      </trkpt>
      <trkpt lat="59.9255018" lon="17.7843163">
        <ele>19.8444</ele>
        <time>2013-05-03T16:28:17Z</time>
      </trkpt>
      <trkpt lat="59.925528" lon="17.7844537">
        <ele>19.8444</ele>
        <time>2013-05-03T16:28:18Z</time>
      </trkpt>
      <trkpt lat="59.9255552" lon="17.7845925">
        <ele>19.8444</ele>
        <time>2013-05-03T16:28:19Z</time>
      </trkpt>
      <trkpt lat="59.9255839" lon="17.7847319">
        <ele>19.8444</ele>
        <time>2013-05-03T16:28:20Z</time>
      </trkpt>
      <trkpt lat="59.9256122" lon="17.7848694">
        <ele>19.8444</ele>
        <time>2013-05-03T16:28:21Z</time>
      </trkpt>
      <trkpt lat="59.9256401" lon="17.7850081">
        <ele>19.8444</ele>
        <time>2013-05-03T16:28:22Z</time>
      </trkpt>
      <trkpt lat="59.9256681" lon="17.7851459">
        <ele>19.8444</ele>
        <time>2013-05-03T16:28:23Z</time>
      </trkpt>
      <trkpt lat="59.9256964" lon="17.7852826">
        <ele>19.8444</ele>
        <time>2013-05-03T16:28:24Z</time>
      </trkpt>
      <trkpt lat="59.9257248" lon="17.7854207">
        <ele>19.8444</ele>
        <time>2013-05-03T16:28:25Z</time>
      </trkpt>
      <trkpt lat="59.9257535" lon="17.7855593">
        <ele>19.8444</ele>
        <time>2013-05-03T16:28:26Z</time>
      </trkpt>
      <trkpt lat="59.9257824" lon="17.7856986">
        <ele>19.8444</ele>
        <time>2013-05-03T16:28:27Z</time>
      </trkpt>
      <trkpt lat="59.9258109" lon="17.7858394">
        <ele>19.8444</ele>
        <time>2013-05-03T16:28:28Z</time>
      </trkpt>
      <trkpt lat="59.9258394" lon="17.7859819">
        <ele>19.8444</ele>
        <time>2013-05-03T16:28:29Z</time>
      </trkpt>
      <trkpt lat="59.925868" lon="17.7861265">
        <ele>19.8444</ele>
        <time>2013-05-03T16:28:30Z</time>
      </trkpt>
      <trkpt lat="59.9258971" lon="17.7862736">
        <ele>19.8444</ele>
        <time>2013-05-03T16:28:31Z</time>
      </trkpt>
      <trkpt lat="59.9259263" lon="17.7864228">
        <ele>19.8444</ele>
        <time>2013-05-03T16:28:32Z</time>
      </trkpt>
      <trkpt lat="59.9259552" lon="17.7865739">
        <ele>19.8444</ele>
        <time>2013-05-03T16:28:33Z</time>
      </trkpt>
      <trkpt lat="59.9259849" lon="17.7867262">
        <ele>19.8444</ele>
        <time>2013-05-03T16:28:34Z</time>
      </trkpt>
      <trkpt lat="59.9260155" lon="17.7868802">
        <ele>19.8444</ele>
        <time>2013-05-03T16:28:35Z</time>
      </trkpt>
      <trkpt lat="59.9260467" lon="17.7870364">
        <ele>19.8444</ele>
        <time>2013-05-03T16:28:36Z</time>
      </trkpt>
      <trkpt lat="59.9260783" lon="17.787194">
        <ele>19.8444</ele>
        <time>2013-05-03T16:28:37Z</time>
      </trkpt>
      <trkpt lat="59.9261094" lon="17.7873512">
        <ele>19.8444</ele>
        <time>2013-05-03T16:28:38Z</time>
      </trkpt>
      <trkpt lat="59.9261398" lon="17.7875074">
        <ele>19.3638</ele>
        <time>2013-05-03T16:28:39Z</time>
      </trkpt>
      <trkpt lat="59.9261703" lon="17.7876628">
        <ele>19.3638</ele>
        <time>2013-05-03T16:28:40Z</time>
      </trkpt>
      <trkpt lat="59.9262014" lon="17.7878191">
        <ele>19.3638</ele>
        <time>2013-05-03T16:28:41Z</time>
      </trkpt>
      <trkpt lat="59.926233" lon="17.7879778">
        <ele>19.3638</ele>
        <time>2013-05-03T16:28:42Z</time>
      </trkpt>
      <trkpt lat="59.9262649" lon="17.788138">
        <ele>19.3638</ele>
        <time>2013-05-03T16:28:43Z</time>
      </trkpt>
      <trkpt lat="59.9262967" lon="17.7882983">
        <ele>18.8831</ele>
        <time>2013-05-03T16:28:44Z</time>
      </trkpt>
      <trkpt lat="59.9263279" lon="17.788458">
        <ele>18.8831</ele>
        <time>2013-05-03T16:28:45Z</time>
      </trkpt>
      <trkpt lat="59.9263591" lon="17.788617">
        <ele>18.8831</ele>
        <time>2013-05-03T16:28:46Z</time>
      </trkpt>
      <trkpt lat="59.9263913" lon="17.7887755">
        <ele>18.8831</ele>
        <time>2013-05-03T16:28:47Z</time>
      </trkpt>
      <trkpt lat="59.9264232" lon="17.7889337">
        <ele>18.8831</ele>
        <time>2013-05-03T16:28:48Z</time>
      </trkpt>
      <trkpt lat="59.9264539" lon="17.7890912">
        <ele>18.4023</ele>
        <time>2013-05-03T16:28:49Z</time>
      </trkpt>
      <trkpt lat="59.9264844" lon="17.7892473">
        <ele>18.4023</ele>
        <time>2013-05-03T16:28:50Z</time>
      </trkpt>
      <trkpt lat="59.9265148" lon="17.789402">
        <ele>18.4023</ele>
        <time>2013-05-03T16:28:51Z</time>
      </trkpt>
      <trkpt lat="59.926545" lon="17.7895562">
        <ele>18.4023</ele>
        <time>2013-05-03T16:28:52Z</time>
      </trkpt>
      <trkpt lat="59.9265746" lon="17.7897096">
        <ele>18.4023</ele>
        <time>2013-05-03T16:28:53Z</time>
      </trkpt>
      <trkpt lat="59.9266039" lon="17.7898618">
        <ele>17.9218</ele>
        <time>2013-05-03T16:28:54Z</time>
      </trkpt>
      <trkpt lat="59.9266335" lon="17.7900119">
        <ele>17.9218</ele>
        <time>2013-05-03T16:28:55Z</time>
      </trkpt>
      <trkpt lat="59.9266626" lon="17.7901602">
        <ele>17.9218</ele>
        <time>2013-05-03T16:28:56Z</time>
      </trkpt>
      <trkpt lat="59.9266918" lon="17.7903082">
        <ele>17.9218</ele>
        <time>2013-05-03T16:28:57Z</time>
      </trkpt>
      <trkpt lat="59.9267207" lon="17.790456">
        <ele>17.9218</ele>
        <time>2013-05-03T16:28:58Z</time>
      </trkpt>
      <trkpt lat="59.9267497" lon="17.7906031">
        <ele>17.9218</ele>
        <time>2013-05-03T16:28:59Z</time>
      </trkpt>
      <trkpt lat="59.926779" lon="17.7907497">
        <ele>18.4023</ele>
        <time>2013-05-03T16:29:00Z</time>
      </trkpt>
      <trkpt lat="59.9268066" lon="17.7908961">
        <ele>18.4023</ele>
        <time>2013-05-03T16:29:01Z</time>
      </trkpt>
      <trkpt lat="59.926834" lon="17.7910417">
        <ele>18.4023</ele>
        <time>2013-05-03T16:29:02Z</time>
      </trkpt>
      <trkpt lat="59.9268621" lon="17.7911854">
        <ele>18.4023</ele>
        <time>2013-05-03T16:29:03Z</time>
      </trkpt>
      <trkpt lat="59.9268906" lon="17.7913278">
        <ele>18.4023</ele>
        <time>2013-05-03T16:29:04Z</time>
      </trkpt>
      <trkpt lat="59.926918" lon="17.7914686">
        <ele>18.4023</ele>
        <time>2013-05-03T16:29:05Z</time>
      </trkpt>
      <trkpt lat="59.9269444" lon="17.791606">
        <ele>18.8831</ele>
        <time>2013-05-03T16:29:06Z</time>
      </trkpt>
      <trkpt lat="59.926971" lon="17.7917427">
        <ele>18.8831</ele>
        <time>2013-05-03T16:29:07Z</time>
      </trkpt>
      <trkpt lat="59.9269984" lon="17.791881">
        <ele>18.8831</ele>
        <time>2013-05-03T16:29:08Z</time>
      </trkpt>
      <trkpt lat="59.9270261" lon="17.7920204">
        <ele>19.3638</ele>
        <time>2013-05-03T16:29:09Z</time>
      </trkpt>
      <trkpt lat="59.927053" lon="17.7921597">
        <ele>19.3638</ele>
        <time>2013-05-03T16:29:10Z</time>
      </trkpt>
      <trkpt lat="59.9270808" lon="17.792298">
        <ele>19.8444</ele>
        <time>2013-05-03T16:29:11Z</time>
      </trkpt>
      <trkpt lat="59.9271097" lon="17.7924364">
        <ele>19.8444</ele>
        <time>2013-05-03T16:29:12Z</time>
      </trkpt>
      <trkpt lat="59.9271387" lon="17.7925735">
        <ele>20.325</ele>
        <time>2013-05-03T16:29:13Z</time>
      </trkpt>
      <trkpt lat="59.9271682" lon="17.7927098">
        <ele>20.325</ele>
        <time>2013-05-03T16:29:14Z</time>
      </trkpt>
      <trkpt lat="59.9271983" lon="17.7928465">
        <ele>20.8057</ele>
        <time>2013-05-03T16:29:15Z</time>
      </trkpt>
      <trkpt lat="59.9272294" lon="17.7929828">
        <ele>21.2864</ele>
        <time>2013-05-03T16:29:16Z</time>
      </trkpt>
      <trkpt lat="59.9272604" lon="17.7931187">
        <ele>21.2864</ele>
        <time>2013-05-03T16:29:17Z</time>
      </trkpt>
      <trkpt lat="59.9272915" lon="17.7932536">
        <ele>21.767</ele>
        <time>2013-05-03T16:29:18Z</time>
      </trkpt>
      <trkpt lat="59.9273235" lon="17.7933858">
        <ele>22.2476</ele>
        <time>2013-05-03T16:29:19Z</time>
      </trkpt>
      <trkpt lat="59.9273553" lon="17.7935153">
        <ele>22.7283</ele>
        <time>2013-05-03T16:29:20Z</time>
      </trkpt>
      <trkpt lat="59.9273875" lon="17.7936423">
        <ele>23.209</ele>
        <time>2013-05-03T16:29:21Z</time>
      </trkpt>
      <trkpt lat="59.9274191" lon="17.793767">
        <ele>23.6896</ele>
        <time>2013-05-03T16:29:22Z</time>
      </trkpt>
      <trkpt lat="59.92745" lon="17.7938908">
        <ele>23.6896</ele>
        <time>2013-05-03T16:29:23Z</time>
      </trkpt>
      <trkpt lat="59.9274831" lon="17.7940143">
        <ele>24.1703</ele>
        <time>2013-05-03T16:29:24Z</time>
      </trkpt>
      <trkpt lat="59.9275161" lon="17.7941388">
        <ele>24.651</ele>
        <time>2013-05-03T16:29:25Z</time>
      </trkpt>
      <trkpt lat="59.9275486" lon="17.7942614">
        <ele>25.1317</ele>
        <time>2013-05-03T16:29:26Z</time>
      </trkpt>
      <trkpt lat="59.9275832" lon="17.794381">
        <ele>25.6123</ele>
        <time>2013-05-03T16:29:27Z</time>
      </trkpt>
      <trkpt lat="59.9276187" lon="17.7945006">
        <ele>25.6123</ele>
        <time>2013-05-03T16:29:28Z</time>
      </trkpt>
      <trkpt lat="59.927654" lon="17.7946218">
        <ele>26.0929</ele>
        <time>2013-05-03T16:29:29Z</time>
      </trkpt>
      <trkpt lat="59.9276899" lon="17.794743">
        <ele>26.0929</ele>
        <time>2013-05-03T16:29:30Z</time>
      </trkpt>
      <trkpt lat="59.9277264" lon="17.7948638">
        <ele>26.5736</ele>
        <time>2013-05-03T16:29:31Z</time>
      </trkpt>
      <trkpt lat="59.9277635" lon="17.794985">
        <ele>26.5736</ele>
        <time>2013-05-03T16:29:32Z</time>
      </trkpt>
      <trkpt lat="59.9278019" lon="17.7951051">
        <ele>27.0543</ele>
        <time>2013-05-03T16:29:33Z</time>
      </trkpt>
      <trkpt lat="59.9278412" lon="17.7952249">
        <ele>27.0543</ele>
        <time>2013-05-03T16:29:34Z</time>
      </trkpt>
      <trkpt lat="59.9278809" lon="17.7953465">
        <ele>27.5349</ele>
        <time>2013-05-03T16:29:35Z</time>
      </trkpt>
      <trkpt lat="59.9279222" lon="17.7954689">
        <ele>27.5349</ele>
        <time>2013-05-03T16:29:36Z</time>
      </trkpt>
      <trkpt lat="59.9279628" lon="17.795588">
        <ele>28.0155</ele>
        <time>2013-05-03T16:29:37Z</time>
      </trkpt>
      <trkpt lat="59.9280016" lon="17.7957023">
        <ele>28.0155</ele>
        <time>2013-05-03T16:29:38Z</time>
      </trkpt>
      <trkpt lat="59.9280394" lon="17.7958137">
        <ele>28.4962</ele>
        <time>2013-05-03T16:29:39Z</time>
      </trkpt>
      <trkpt lat="59.9280771" lon="17.7959219">
        <ele>28.4962</ele>
        <time>2013-05-03T16:29:40Z</time>
      </trkpt>
      <trkpt lat="59.9281152" lon="17.7960272">
        <ele>28.4962</ele>
        <time>2013-05-03T16:29:41Z</time>
      </trkpt>
      <trkpt lat="59.9281531" lon="17.7961312">
        <ele>28.9769</ele>
        <time>2013-05-03T16:29:42Z</time>
      </trkpt>
      <trkpt lat="59.9281913" lon="17.7962339">
        <ele>28.9769</ele>
        <time>2013-05-03T16:29:43Z</time>
      </trkpt>
      <trkpt lat="59.9282301" lon="17.796335">
        <ele>28.9769</ele>
        <time>2013-05-03T16:29:44Z</time>
      </trkpt>
      <trkpt lat="59.9282685" lon="17.7964362">
        <ele>29.4575</ele>
        <time>2013-05-03T16:29:45Z</time>
      </trkpt>
      <trkpt lat="59.9283063" lon="17.7965364">
        <ele>29.4575</ele>
        <time>2013-05-03T16:29:46Z</time>
      </trkpt>
      <trkpt lat="59.9283452" lon="17.7966343">
        <ele>29.4575</ele>
        <time>2013-05-03T16:29:47Z</time>
      </trkpt>
      <trkpt lat="59.928385" lon="17.7967308">
        <ele>29.4575</ele>
        <time>2013-05-03T16:29:48Z</time>
      </trkpt>
      <trkpt lat="59.9284244" lon="17.7968279">
        <ele>29.4575</ele>
        <time>2013-05-03T16:29:49Z</time>
      </trkpt>
      <trkpt lat="59.9284639" lon="17.7969243">
        <ele>29.4575</ele>
        <time>2013-05-03T16:29:50Z</time>
      </trkpt>
      <trkpt lat="59.9285042" lon="17.7970193">
        <ele>29.9381</ele>
        <time>2013-05-03T16:29:51Z</time>
      </trkpt>
      <trkpt lat="59.9285449" lon="17.7971149">
        <ele>29.9381</ele>
        <time>2013-05-03T16:29:52Z</time>
      </trkpt>
      <trkpt lat="59.928586" lon="17.797211">
        <ele>29.9381</ele>
        <time>2013-05-03T16:29:53Z</time>
      </trkpt>
      <trkpt lat="59.9286275" lon="17.7973076">
        <ele>29.9381</ele>
        <time>2013-05-03T16:29:54Z</time>
      </trkpt>
      <trkpt lat="59.9286698" lon="17.797403">
        <ele>29.9381</ele>
        <time>2013-05-03T16:29:55Z</time>
      </trkpt>
      <trkpt lat="59.9287129" lon="17.7974978">
        <ele>30.4188</ele>
        <time>2013-05-03T16:29:56Z</time>
      </trkpt>
      <trkpt lat="59.9287559" lon="17.7975932">
        <ele>30.4188</ele>
        <time>2013-05-03T16:29:57Z</time>
      </trkpt>
      <trkpt lat="59.9287995" lon="17.797688">
        <ele>30.4188</ele>
        <time>2013-05-03T16:29:58Z</time>
      </trkpt>
      <trkpt lat="59.9288433" lon="17.7977838">
        <ele>29.9381</ele>
        <time>2013-05-03T16:29:59Z</time>
      </trkpt>
      <trkpt lat="59.9288883" lon="17.79788">
        <ele>29.9381</ele>
        <time>2013-05-03T16:30:00Z</time>
      </trkpt>
      <trkpt lat="59.928935" lon="17.7979765">
        <ele>29.9381</ele>
        <time>2013-05-03T16:30:01Z</time>
      </trkpt>
      <trkpt lat="59.9289827" lon="17.7980742">
        <ele>29.9381</ele>
        <time>2013-05-03T16:30:02Z</time>
      </trkpt>
      <trkpt lat="59.9290315" lon="17.7981727">
        <ele>29.9381</ele>
        <time>2013-05-03T16:30:03Z</time>
      </trkpt>
      <trkpt lat="59.9290811" lon="17.7982701">
        <ele>29.9381</ele>
        <time>2013-05-03T16:30:04Z</time>
      </trkpt>
      <trkpt lat="59.9291299" lon="17.7983676">
        <ele>29.9381</ele>
        <time>2013-05-03T16:30:05Z</time>
      </trkpt>
      <trkpt lat="59.9291789" lon="17.7984653">
        <ele>29.9381</ele>
        <time>2013-05-03T16:30:06Z</time>
      </trkpt>
      <trkpt lat="59.9292304" lon="17.7985608">
        <ele>29.9381</ele>
        <time>2013-05-03T16:30:07Z</time>
      </trkpt>
      <trkpt lat="59.9292817" lon="17.7986551">
        <ele>29.4575</ele>
        <time>2013-05-03T16:30:08Z</time>
      </trkpt>
      <trkpt lat="59.9293325" lon="17.7987496">
        <ele>29.4575</ele>
        <time>2013-05-03T16:30:09Z</time>
      </trkpt>
      <trkpt lat="59.9293858" lon="17.7988403">
        <ele>29.4575</ele>
        <time>2013-05-03T16:30:10Z</time>
      </trkpt>
      <trkpt lat="59.9294396" lon="17.7989297">
        <ele>29.9381</ele>
        <time>2013-05-03T16:30:11Z</time>
      </trkpt>
      <trkpt lat="59.9294905" lon="17.7990208">
        <ele>29.9381</ele>
        <time>2013-05-03T16:30:12Z</time>
      </trkpt>
      <trkpt lat="59.9295417" lon="17.79911">
        <ele>29.9381</ele>
        <time>2013-05-03T16:30:13Z</time>
      </trkpt>
      <trkpt lat="59.9295925" lon="17.7991967">
        <ele>29.4575</ele>
        <time>2013-05-03T16:30:14Z</time>
      </trkpt>
      <trkpt lat="59.9296432" lon="17.7992818">
        <ele>29.4575</ele>
        <time>2013-05-03T16:30:15Z</time>
      </trkpt>
      <trkpt lat="59.9296908" lon="17.7993647">
        <ele>28.9769</ele>
        <time>2013-05-03T16:30:16Z</time>
      </trkpt>
      <trkpt lat="59.9297406" lon="17.7994466">
        <ele>28.9769</ele>
        <time>2013-05-03T16:30:17Z</time>
      </trkpt>
      <trkpt lat="59.9297925" lon="17.7995283">
        <ele>28.9769</ele>
        <time>2013-05-03T16:30:18Z</time>
      </trkpt>
      <trkpt lat="59.9298439" lon="17.7996062">
        <ele>29.4575</ele>
        <time>2013-05-03T16:30:19Z</time>
      </trkpt>
      <trkpt lat="59.9298939" lon="17.7996838">
        <ele>29.4575</ele>
        <time>2013-05-03T16:30:20Z</time>
      </trkpt>
      <trkpt lat="59.9299433" lon="17.7997593">
        <ele>28.9769</ele>
        <time>2013-05-03T16:30:21Z</time>
      </trkpt>
      <trkpt lat="59.9299946" lon="17.7998362">
        <ele>28.9769</ele>
        <time>2013-05-03T16:30:22Z</time>
      </trkpt>
      <trkpt lat="59.9300485" lon="17.7999149">
        <ele>28.4962</ele>
        <time>2013-05-03T16:30:23Z</time>
      </trkpt>
      <trkpt lat="59.9301042" lon="17.7999963">
        <ele>28.4962</ele>
        <time>2013-05-03T16:30:24Z</time>
      </trkpt>
      <trkpt lat="59.9301612" lon="17.8000815">
        <ele>28.4962</ele>
        <time>2013-05-03T16:30:25Z</time>
      </trkpt>
      <trkpt lat="59.9302197" lon="17.8001677">
        <ele>28.4962</ele>
        <time>2013-05-03T16:30:26Z</time>
      </trkpt>
      <trkpt lat="59.9302795" lon="17.8002543">
        <ele>28.4962</ele>
        <time>2013-05-03T16:30:27Z</time>
      </trkpt>
      <trkpt lat="59.930341" lon="17.800341">
        <ele>28.4962</ele>
        <time>2013-05-03T16:30:28Z</time>
      </trkpt>
      <trkpt lat="59.9304017" lon="17.8004298">
        <ele>28.4962</ele>
        <time>2013-05-03T16:30:29Z</time>
      </trkpt>
      <trkpt lat="59.9304639" lon="17.8005183">
        <ele>28.4962</ele>
        <time>2013-05-03T16:30:30Z</time>
      </trkpt>
      <trkpt lat="59.9305268" lon="17.8006065">
        <ele>28.4962</ele>
        <time>2013-05-03T16:30:31Z</time>
      </trkpt>
      <trkpt lat="59.9305897" lon="17.8006958">
        <ele>28.4962</ele>
        <time>2013-05-03T16:30:32Z</time>
      </trkpt>
      <trkpt lat="59.9306528" lon="17.8007865">
        <ele>28.4962</ele>
        <time>2013-05-03T16:30:33Z</time>
      </trkpt>
      <trkpt lat="59.9307152" lon="17.8008779">
        <ele>28.4962</ele>
        <time>2013-05-03T16:30:34Z</time>
      </trkpt>
      <trkpt lat="59.9307765" lon="17.8009706">
        <ele>28.4962</ele>
        <time>2013-05-03T16:30:35Z</time>
      </trkpt>
      <trkpt lat="59.9308369" lon="17.8010624">
        <ele>28.4962</ele>
        <time>2013-05-03T16:30:36Z</time>
      </trkpt>
      <trkpt lat="59.9308979" lon="17.8011506">
        <ele>28.4962</ele>
        <time>2013-05-03T16:30:37Z</time>
      </trkpt>
      <trkpt lat="59.9309574" lon="17.8012384">
        <ele>28.4962</ele>
        <time>2013-05-03T16:30:38Z</time>
      </trkpt>
      <trkpt lat="59.9310175" lon="17.8013275">
        <ele>28.4962</ele>
        <time>2013-05-03T16:30:39Z</time>
      </trkpt>
      <trkpt lat="59.9310776" lon="17.8014154">
        <ele>28.4962</ele>
        <time>2013-05-03T16:30:40Z</time>
      </trkpt>
      <trkpt lat="59.9311357" lon="17.8015008">
        <ele>28.4962</ele>
        <time>2013-05-03T16:30:41Z</time>
      </trkpt>
      <trkpt lat="59.9311947" lon="17.8015875">
        <ele>28.0155</ele>
        <time>2013-05-03T16:30:42Z</time>
      </trkpt>
      <trkpt lat="59.9312537" lon="17.8016752">
        <ele>28.0155</ele>
        <time>2013-05-03T16:30:43Z</time>
      </trkpt>
      <trkpt lat="59.9313132" lon="17.8017629">
        <ele>28.0155</ele>
        <time>2013-05-03T16:30:44Z</time>
      </trkpt>
      <trkpt lat="59.9313733" lon="17.8018523">
        <ele>28.0155</ele>
        <time>2013-05-03T16:30:45Z</time>
      </trkpt>
      <trkpt lat="59.9314403" lon="17.8019347">
        <ele>28.0155</ele>
        <time>2013-05-03T16:30:46Z</time>
      </trkpt>
      <trkpt lat="59.9315055" lon="17.8020242">
        <ele>28.0155</ele>
        <time>2013-05-03T16:30:47Z</time>
      </trkpt>
      <trkpt lat="59.9315687" lon="17.8021165">
        <ele>28.0155</ele>
        <time>2013-05-03T16:30:48Z</time>
      </trkpt>
      <trkpt lat="59.9316304" lon="17.8022112">
        <ele>27.5349</ele>
        <time>2013-05-03T16:30:49Z</time>
      </trkpt>
      <trkpt lat="59.9316924" lon="17.8023069">
        <ele>27.5349</ele>
        <time>2013-05-03T16:30:50Z</time>
      </trkpt>
      <trkpt lat="59.9317546" lon="17.8024013">
        <ele>27.5349</ele>
        <time>2013-05-03T16:30:51Z</time>
      </trkpt>
      <trkpt lat="59.9318182" lon="17.8024931">
        <ele>27.5349</ele>
        <time>2013-05-03T16:30:52Z</time>
      </trkpt>
      <trkpt lat="59.9318826" lon="17.8025866">
        <ele>27.5349</ele>
        <time>2013-05-03T16:30:53Z</time>
      </trkpt>
      <trkpt lat="59.9319489" lon="17.8026805">
        <ele>27.0543</ele>
        <time>2013-05-03T16:30:54Z</time>
      </trkpt>
      <trkpt lat="59.9320169" lon="17.8027701">
        <ele>27.0543</ele>
        <time>2013-05-03T16:30:55Z</time>
      </trkpt>
      <trkpt lat="59.932086" lon="17.8028602">
        <ele>27.0543</ele>
        <time>2013-05-03T16:30:56Z</time>
      </trkpt>
      <trkpt lat="59.9321556" lon="17.8029525">
        <ele>26.5736</ele>
        <time>2013-05-03T16:30:57Z</time>
      </trkpt>
      <trkpt lat="59.9322231" lon="17.80305">
        <ele>26.5736</ele>
        <time>2013-05-03T16:30:58Z</time>
      </trkpt>
      <trkpt lat="59.9322891" lon="17.8031534">
        <ele>26.0929</ele>
        <time>2013-05-03T16:30:59Z</time>
      </trkpt>
      <trkpt lat="59.9323565" lon="17.8032569">
        <ele>25.6123</ele>
        <time>2013-05-03T16:31:00Z</time>
      </trkpt>
      <trkpt lat="59.9324263" lon="17.8033582">
        <ele>25.6123</ele>
        <time>2013-05-03T16:31:01Z</time>
      </trkpt>
      <trkpt lat="59.9324973" lon="17.8034617">
        <ele>25.1317</ele>
        <time>2013-05-03T16:31:02Z</time>
      </trkpt>
      <trkpt lat="59.932569" lon="17.8035679">
        <ele>25.1317</ele>
        <time>2013-05-03T16:31:03Z</time>
      </trkpt>
      <trkpt lat="59.9326405" lon="17.8036783">
        <ele>24.651</ele>
        <time>2013-05-03T16:31:04Z</time>
      </trkpt>
      <trkpt lat="59.9327135" lon="17.8037902">
        <ele>24.1703</ele>
        <time>2013-05-03T16:31:05Z</time>
      </trkpt>
      <trkpt lat="59.9327896" lon="17.8038995">
        <ele>23.6896</ele>
        <time>2013-05-03T16:31:06Z</time>
      </trkpt>
      <trkpt lat="59.9328627" lon="17.804006">
        <ele>23.209</ele>
        <time>2013-05-03T16:31:07Z</time>
      </trkpt>
      <trkpt lat="59.9329299" lon="17.8041076">
        <ele>22.7283</ele>
        <time>2013-05-03T16:31:08Z</time>
      </trkpt>
      <trkpt lat="59.9329922" lon="17.8042058">
        <ele>22.2476</ele>
        <time>2013-05-03T16:31:09Z</time>
      </trkpt>
      <trkpt lat="59.9330509" lon="17.8043045">
        <ele>21.767</ele>
        <time>2013-05-03T16:31:10Z</time>
      </trkpt>
      <trkpt lat="59.9331067" lon="17.8044024">
        <ele>21.2864</ele>
        <time>2013-05-03T16:31:11Z</time>
      </trkpt>
      <trkpt lat="59.9331588" lon="17.8044962">
        <ele>21.2864</ele>
        <time>2013-05-03T16:31:12Z</time>
      </trkpt>
      <trkpt lat="59.9332081" lon="17.8045845">
        <ele>20.8057</ele>
        <time>2013-05-03T16:31:13Z</time>
      </trkpt>
      <trkpt lat="59.9332548" lon="17.8046667">
        <ele>20.8057</ele>
        <time>2013-05-03T16:31:14Z</time>
      </trkpt>
      <trkpt lat="59.9332954" lon="17.8047423">
        <ele>20.325</ele>
        <time>2013-05-03T16:31:15Z</time>
      </trkpt>
      <trkpt lat="59.9333288" lon="17.8048081">
        <ele>20.325</ele>
        <time>2013-05-03T16:31:16Z</time>
      </trkpt>
      <trkpt lat="59.9333542" lon="17.8048616">
        <ele>20.325</ele>
        <time>2013-05-03T16:31:17Z</time>
      </trkpt>
      <trkpt lat="59.9333699" lon="17.8049079">
        <ele>20.325</ele>
        <time>2013-05-03T16:31:18Z</time>
      </trkpt>
      <trkpt lat="59.9333838" lon="17.8049619">
        <ele>19.8444</ele>
        <time>2013-05-03T16:31:19Z</time>
      </trkpt>
      <trkpt lat="59.9334004" lon="17.8050261">
        <ele>19.8444</ele>
        <time>2013-05-03T16:31:20Z</time>
      </trkpt>
      <trkpt lat="59.9334214" lon="17.8050944">
        <ele>19.8444</ele>
        <time>2013-05-03T16:31:21Z</time>
      </trkpt>
      <trkpt lat="59.9334489" lon="17.8051632">
        <ele>19.3638</ele>
        <time>2013-05-03T16:31:22Z</time>
      </trkpt>
      <trkpt lat="59.9334812" lon="17.8052291">
        <ele>19.8444</ele>
        <time>2013-05-03T16:31:23Z</time>
      </trkpt>
      <trkpt lat="59.9335105" lon="17.8052974">
        <ele>19.8444</ele>
        <time>2013-05-03T16:31:24Z</time>
      </trkpt>
      <trkpt lat="59.933546" lon="17.805374">
        <ele>19.8444</ele>
        <time>2013-05-03T16:31:25Z</time>
      </trkpt>
      <trkpt lat="59.9335853" lon="17.8054549">
        <ele>19.8444</ele>
        <time>2013-05-03T16:31:26Z</time>
      </trkpt>
      <trkpt lat="59.933626" lon="17.8055437">
        <ele>19.8444</ele>
        <time>2013-05-03T16:31:27Z</time>
      </trkpt>
      <trkpt lat="59.9336678" lon="17.8056398">
        <ele>19.8444</ele>
        <time>2013-05-03T16:31:28Z</time>
      </trkpt>
      <trkpt lat="59.9337118" lon="17.8057379">
        <ele>19.8444</ele>
        <time>2013-05-03T16:31:29Z</time>
      </trkpt>
      <trkpt lat="59.9337568" lon="17.8058409">
        <ele>19.8444</ele>
        <time>2013-05-03T16:31:30Z</time>
      </trkpt>
      <trkpt lat="59.9338018" lon="17.805948">
        <ele>19.8444</ele>
        <time>2013-05-03T16:31:31Z</time>
      </trkpt>
      <trkpt lat="59.9338467" lon="17.8060591">
        <ele>19.8444</ele>
        <time>2013-05-03T16:31:32Z</time>
      </trkpt>
      <trkpt lat="59.9338916" lon="17.8061738">
        <ele>19.3638</ele>
        <time>2013-05-03T16:31:33Z</time>
      </trkpt>
      <trkpt lat="59.9339369" lon="17.806291">
        <ele>19.3638</ele>
        <time>2013-05-03T16:31:34Z</time>
      </trkpt>
      <trkpt lat="59.9339815" lon="17.8064127">
        <ele>19.3638</ele>
        <time>2013-05-03T16:31:35Z</time>
      </trkpt>
      <trkpt lat="59.9340258" lon="17.8065361">
        <ele>19.3638</ele>
        <time>2013-05-03T16:31:36Z</time>
      </trkpt>
      <trkpt lat="59.9340711" lon="17.8066599">
        <ele>19.3638</ele>
        <time>2013-05-03T16:31:37Z</time>
      </trkpt>
      <trkpt lat="59.9341164" lon="17.8067851">
        <ele>18.8831</ele>
        <time>2013-05-03T16:31:38Z</time>
      </trkpt>
      <trkpt lat="59.9341613" lon="17.8069125">
        <ele>18.8831</ele>
        <time>2013-05-03T16:31:39Z</time>
      </trkpt>
      <trkpt lat="59.9342049" lon="17.8070427">
        <ele>18.8831</ele>
        <time>2013-05-03T16:31:40Z</time>
      </trkpt>
      <trkpt lat="59.9342489" lon="17.8071759">
        <ele>18.8831</ele>
        <time>2013-05-03T16:31:41Z</time>
      </trkpt>
      <trkpt lat="59.9342924" lon="17.807311">
        <ele>18.8831</ele>
        <time>2013-05-03T16:31:42Z</time>
      </trkpt>
      <trkpt lat="59.9343355" lon="17.8074473">
        <ele>18.8831</ele>
        <time>2013-05-03T16:31:43Z</time>
      </trkpt>
      <trkpt lat="59.9343779" lon="17.8075844">
        <ele>18.4023</ele>
        <time>2013-05-03T16:31:44Z</time>
      </trkpt>
      <trkpt lat="59.9344194" lon="17.8077239">
        <ele>18.4023</ele>
        <time>2013-05-03T16:31:45Z</time>
      </trkpt>
      <trkpt lat="59.9344596" lon="17.8078663">
        <ele>18.4023</ele>
        <time>2013-05-03T16:31:46Z</time>
      </trkpt>
      <trkpt lat="59.9344987" lon="17.8080119">
        <ele>18.4023</ele>
        <time>2013-05-03T16:31:47Z</time>
      </trkpt>
      <trkpt lat="59.9345385" lon="17.8081583">
        <ele>17.9218</ele>
        <time>2013-05-03T16:31:48Z</time>
      </trkpt>
      <trkpt lat="59.9345773" lon="17.8083038">
        <ele>17.9218</ele>
        <time>2013-05-03T16:31:49Z</time>
      </trkpt>
      <trkpt lat="59.9346142" lon="17.8084502">
        <ele>17.9218</ele>
        <time>2013-05-03T16:31:50Z</time>
      </trkpt>
      <trkpt lat="59.9346498" lon="17.8085981">
        <ele>17.9218</ele>
        <time>2013-05-03T16:31:51Z</time>
      </trkpt>
      <trkpt lat="59.9346844" lon="17.8087429">
        <ele>17.9218</ele>
        <time>2013-05-03T16:31:52Z</time>
      </trkpt>
      <trkpt lat="59.9347198" lon="17.8088878">
        <ele>17.4412</ele>
        <time>2013-05-03T16:31:53Z</time>
      </trkpt>
      <trkpt lat="59.9347541" lon="17.8090309">
        <ele>17.4412</ele>
        <time>2013-05-03T16:31:54Z</time>
      </trkpt>
      <trkpt lat="59.9347877" lon="17.8091747">
        <ele>17.4412</ele>
        <time>2013-05-03T16:31:55Z</time>
      </trkpt>
      <trkpt lat="59.9348191" lon="17.8093181">
        <ele>17.4412</ele>
        <time>2013-05-03T16:31:56Z</time>
      </trkpt>
      <trkpt lat="59.9348511" lon="17.8094649">
        <ele>17.4412</ele>
        <time>2013-05-03T16:31:57Z</time>
      </trkpt>
      <trkpt lat="59.9348824" lon="17.8096132">
        <ele>17.4412</ele>
        <time>2013-05-03T16:31:58Z</time>
      </trkpt>
      <trkpt lat="59.9349147" lon="17.8097656">
        <ele>17.4412</ele>
        <time>2013-05-03T16:31:59Z</time>
      </trkpt>
      <trkpt lat="59.934944" lon="17.8099171">
        <ele>16.9604</ele>
        <time>2013-05-03T16:32:00Z</time>
      </trkpt>
      <trkpt lat="59.9349716" lon="17.8100664">
        <ele>16.9604</ele>
        <time>2013-05-03T16:32:01Z</time>
      </trkpt>
      <trkpt lat="59.9350015" lon="17.8102181">
        <ele>16.9604</ele>
        <time>2013-05-03T16:32:02Z</time>
      </trkpt>
      <trkpt lat="59.9350285" lon="17.8103705">
        <ele>16.9604</ele>
        <time>2013-05-03T16:32:03Z</time>
      </trkpt>
      <trkpt lat="59.9350545" lon="17.8105242">
        <ele>16.9604</ele>
        <time>2013-05-03T16:32:04Z</time>
      </trkpt>
      <trkpt lat="59.9350799" lon="17.810679">
        <ele>16.9604</ele>
        <time>2013-05-03T16:32:05Z</time>
      </trkpt>
      <trkpt lat="59.935105" lon="17.8108333">
        <ele>16.9604</ele>
        <time>2013-05-03T16:32:06Z</time>
      </trkpt>
      <trkpt lat="59.9351295" lon="17.8109866">
        <ele>16.9604</ele>
        <time>2013-05-03T16:32:07Z</time>
      </trkpt>
      <trkpt lat="59.9351522" lon="17.8111407">
        <ele>16.9604</ele>
        <time>2013-05-03T16:32:08Z</time>
      </trkpt>
      <trkpt lat="59.9351734" lon="17.8112955">
        <ele>16.9604</ele>
        <time>2013-05-03T16:32:09Z</time>
      </trkpt>
      <trkpt lat="59.9351941" lon="17.811451">
        <ele>16.4797</ele>
        <time>2013-05-03T16:32:10Z</time>
      </trkpt>
      <trkpt lat="59.9352146" lon="17.8116079">
        <ele>16.4797</ele>
        <time>2013-05-03T16:32:11Z</time>
      </trkpt>
      <trkpt lat="59.9352342" lon="17.8117639">
        <ele>16.4797</ele>
        <time>2013-05-03T16:32:12Z</time>
      </trkpt>
      <trkpt lat="59.9352512" lon="17.8119197">
        <ele>16.4797</ele>
        <time>2013-05-03T16:32:13Z</time>
      </trkpt>
      <trkpt lat="59.9352671" lon="17.8120753">
        <ele>16.4797</ele>
        <time>2013-05-03T16:32:14Z</time>
      </trkpt>
      <trkpt lat="59.9352835" lon="17.8122295">
        <ele>16.4797</ele>
        <time>2013-05-03T16:32:15Z</time>
      </trkpt>
      <trkpt lat="59.9352999" lon="17.8123826">
        <ele>16.9604</ele>
        <time>2013-05-03T16:32:16Z</time>
      </trkpt>
      <trkpt lat="59.9353145" lon="17.8125355">
        <ele>16.9604</ele>
        <time>2013-05-03T16:32:17Z</time>
      </trkpt>
      <trkpt lat="59.9353279" lon="17.8126878">
        <ele>16.9604</ele>
        <time>2013-05-03T16:32:18Z</time>
      </trkpt>
      <trkpt lat="59.9353417" lon="17.8128402">
        <ele>16.4797</ele>
        <time>2013-05-03T16:32:19Z</time>
      </trkpt>
      <trkpt lat="59.9353554" lon="17.8129889">
        <ele>16.9604</ele>
        <time>2013-05-03T16:32:20Z</time>
      </trkpt>
      <trkpt lat="59.9353689" lon="17.813136">
        <ele>16.9604</ele>
        <time>2013-05-03T16:32:21Z</time>
      </trkpt>
      <trkpt lat="59.9353824" lon="17.813283">
        <ele>16.9604</ele>
        <time>2013-05-03T16:32:22Z</time>
      </trkpt>
      <trkpt lat="59.9353962" lon="17.8134285">
        <ele>17.4412</ele>
        <time>2013-05-03T16:32:23Z</time>
      </trkpt>
      <trkpt lat="59.9354097" lon="17.8135717">
        <ele>17.4412</ele>
        <time>2013-05-03T16:32:24Z</time>
      </trkpt>
      <trkpt lat="59.935422" lon="17.8137114">
        <ele>17.4412</ele>
        <time>2013-05-03T16:32:25Z</time>
      </trkpt>
      <trkpt lat="59.9354334" lon="17.8138465">
        <ele>17.4412</ele>
        <time>2013-05-03T16:32:26Z</time>
      </trkpt>
      <trkpt lat="59.9354446" lon="17.8139789">
        <ele>17.9218</ele>
        <time>2013-05-03T16:32:27Z</time>
      </trkpt>
      <trkpt lat="59.9354555" lon="17.8141094">
        <ele>17.9218</ele>
        <time>2013-05-03T16:32:28Z</time>
      </trkpt>
      <trkpt lat="59.9354673" lon="17.8142367">
        <ele>17.9218</ele>
        <time>2013-05-03T16:32:29Z</time>
      </trkpt>
      <trkpt lat="59.9354807" lon="17.8143601">
        <ele>17.9218</ele>
        <time>2013-05-03T16:32:30Z</time>
      </trkpt>
      <trkpt lat="59.935495" lon="17.8144819">
        <ele>17.9218</ele>
        <time>2013-05-03T16:32:31Z</time>
      </trkpt>
      <trkpt lat="59.9355087" lon="17.8146044">
        <ele>17.9218</ele>
        <time>2013-05-03T16:32:32Z</time>
      </trkpt>
      <trkpt lat="59.9355226" lon="17.8147263">
        <ele>17.9218</ele>
        <time>2013-05-03T16:32:33Z</time>
      </trkpt>
      <trkpt lat="59.9355387" lon="17.8148482">
        <ele>17.9218</ele>
        <time>2013-05-03T16:32:34Z</time>
      </trkpt>
      <trkpt lat="59.9355554" lon="17.8149714">
        <ele>17.9218</ele>
        <time>2013-05-03T16:32:35Z</time>
      </trkpt>
      <trkpt lat="59.935572" lon="17.8150951">
        <ele>17.9218</ele>
        <time>2013-05-03T16:32:36Z</time>
      </trkpt>
      <trkpt lat="59.935589" lon="17.8152187">
        <ele>17.9218</ele>
        <time>2013-05-03T16:32:37Z</time>
      </trkpt>
      <trkpt lat="59.9356074" lon="17.8153418">
        <ele>17.9218</ele>
        <time>2013-05-03T16:32:38Z</time>
      </trkpt>
      <trkpt lat="59.9356262" lon="17.8154649">
        <ele>17.9218</ele>
        <time>2013-05-03T16:32:39Z</time>
      </trkpt>
      <trkpt lat="59.9356456" lon="17.8155883">
        <ele>18.4023</ele>
        <time>2013-05-03T16:32:40Z</time>
      </trkpt>
      <trkpt lat="59.9356667" lon="17.8157121">
        <ele>18.4023</ele>
        <time>2013-05-03T16:32:41Z</time>
      </trkpt>
      <trkpt lat="59.9356885" lon="17.8158364">
        <ele>18.4023</ele>
        <time>2013-05-03T16:32:42Z</time>
      </trkpt>
      <trkpt lat="59.93571" lon="17.8159628">
        <ele>18.4023</ele>
        <time>2013-05-03T16:32:43Z</time>
      </trkpt>
      <trkpt lat="59.9357304" lon="17.8160908">
        <ele>18.4023</ele>
        <time>2013-05-03T16:32:44Z</time>
      </trkpt>
      <trkpt lat="59.9357511" lon="17.816216">
        <ele>18.4023</ele>
        <time>2013-05-03T16:32:45Z</time>
      </trkpt>
      <trkpt lat="59.9357729" lon="17.8163373">
        <ele>18.4023</ele>
        <time>2013-05-03T16:32:46Z</time>
      </trkpt>
      <trkpt lat="59.9357958" lon="17.8164579">
        <ele>18.4023</ele>
        <time>2013-05-03T16:32:47Z</time>
      </trkpt>
      <trkpt lat="59.9358191" lon="17.8165785">
        <ele>18.4023</ele>
        <time>2013-05-03T16:32:48Z</time>
      </trkpt>
      <trkpt lat="59.9358424" lon="17.8166993">
        <ele>18.4023</ele>
        <time>2013-05-03T16:32:49Z</time>
      </trkpt>
      <trkpt lat="59.9358667" lon="17.816819">
        <ele>18.8831</ele>
        <time>2013-05-03T16:32:50Z</time>
      </trkpt>
      <trkpt lat="59.9358908" lon="17.8169377">
        <ele>18.8831</ele>
        <time>2013-05-03T16:32:51Z</time>
      </trkpt>
      <trkpt lat="59.9359153" lon="17.8170549">
        <ele>18.8831</ele>
        <time>2013-05-03T16:32:52Z</time>
      </trkpt>
      <trkpt lat="59.9359418" lon="17.8171701">
        <ele>18.8831</ele>
        <time>2013-05-03T16:32:53Z</time>
      </trkpt>
      <trkpt lat="59.9359687" lon="17.8172853">
        <ele>18.8831</ele>
        <time>2013-05-03T16:32:54Z</time>
      </trkpt>
      <trkpt lat="59.9359952" lon="17.8174018">
        <ele>18.8831</ele>
        <time>2013-05-03T16:32:55Z</time>
      </trkpt>
      <trkpt lat="59.9360216" lon="17.8175192">
        <ele>18.8831</ele>
        <time>2013-05-03T16:32:56Z</time>
      </trkpt>
      <trkpt lat="59.9360475" lon="17.817636">
        <ele>18.8831</ele>
        <time>2013-05-03T16:32:57Z</time>
      </trkpt>
      <trkpt lat="59.9360745" lon="17.8177514">
        <ele>18.8831</ele>
        <time>2013-05-03T16:32:58Z</time>
      </trkpt>
      <trkpt lat="59.936103" lon="17.8178648">
        <ele>18.4023</ele>
        <time>2013-05-03T16:32:59Z</time>
      </trkpt>
      <trkpt lat="59.9361313" lon="17.8179761">
        <ele>18.4023</ele>
        <time>2013-05-03T16:33:00Z</time>
      </trkpt>
      <trkpt lat="59.9361602" lon="17.8180866">
        <ele>18.4023</ele>
        <time>2013-05-03T16:33:01Z</time>
      </trkpt>
      <trkpt lat="59.9361902" lon="17.8181954">
        <ele>18.8831</ele>
        <time>2013-05-03T16:33:02Z</time>
      </trkpt>
      <trkpt lat="59.9362206" lon="17.8183042">
        <ele>18.8831</ele>
        <time>2013-05-03T16:33:03Z</time>
      </trkpt>
      <trkpt lat="59.9362515" lon="17.8184144">
        <ele>18.8831</ele>
        <time>2013-05-03T16:33:04Z</time>
      </trkpt>
      <trkpt lat="59.9362829" lon="17.8185237">
        <ele>18.8831</ele>
        <time>2013-05-03T16:33:05Z</time>
      </trkpt>
      <trkpt lat="59.9363152" lon="17.818632">
        <ele>18.8831</ele>
        <time>2013-05-03T16:33:06Z</time>
      </trkpt>
      <trkpt lat="59.9363489" lon="17.8187404">
        <ele>18.8831</ele>
        <time>2013-05-03T16:33:07Z</time>
      </trkpt>
      <trkpt lat="59.9363834" lon="17.8188497">
        <ele>18.8831</ele>
        <time>2013-05-03T16:33:08Z</time>
      </trkpt>
      <trkpt lat="59.9364173" lon="17.8189589">
        <ele>18.8831</ele>
        <time>2013-05-03T16:33:09Z</time>
      </trkpt>
      <trkpt lat="59.9364515" lon="17.8190691">
        <ele>18.4023</ele>
        <time>2013-05-03T16:33:10Z</time>
      </trkpt>
      <trkpt lat="59.9364853" lon="17.8191812">
        <ele>18.4023</ele>
        <time>2013-05-03T16:33:11Z</time>
      </trkpt>
      <trkpt lat="59.936521" lon="17.8192896">
        <ele>18.4023</ele>
        <time>2013-05-03T16:33:12Z</time>
      </trkpt>
      <trkpt lat="59.9365598" lon="17.8193957">
        <ele>18.4023</ele>
        <time>2013-05-03T16:33:13Z</time>
      </trkpt>
      <trkpt lat="59.936598" lon="17.8195048">
        <ele>18.4023</ele>
        <time>2013-05-03T16:33:14Z</time>
      </trkpt>
      <trkpt lat="59.9366355" lon="17.8196144">
        <ele>17.9218</ele>
        <time>2013-05-03T16:33:15Z</time>
      </trkpt>
      <trkpt lat="59.9366741" lon="17.8197235">
        <ele>17.9218</ele>
        <time>2013-05-03T16:33:16Z</time>
      </trkpt>
      <trkpt lat="59.9367131" lon="17.8198321">
        <ele>17.9218</ele>
        <time>2013-05-03T16:33:17Z</time>
      </trkpt>
      <trkpt lat="59.9367526" lon="17.8199394">
        <ele>17.9218</ele>
        <time>2013-05-03T16:33:18Z</time>
      </trkpt>
      <trkpt lat="59.9367928" lon="17.820045">
        <ele>17.4412</ele>
        <time>2013-05-03T16:33:19Z</time>
      </trkpt>
      <trkpt lat="59.9368333" lon="17.8201499">
        <ele>17.4412</ele>
        <time>2013-05-03T16:33:20Z</time>
      </trkpt>
      <trkpt lat="59.9368742" lon="17.8202544">
        <ele>17.4412</ele>
        <time>2013-05-03T16:33:21Z</time>
      </trkpt>
      <trkpt lat="59.9369157" lon="17.8203571">
        <ele>17.4412</ele>
        <time>2013-05-03T16:33:22Z</time>
      </trkpt>
      <trkpt lat="59.9369589" lon="17.8204572">
        <ele>17.4412</ele>
        <time>2013-05-03T16:33:23Z</time>
      </trkpt>
      <trkpt lat="59.9370035" lon="17.8205556">
        <ele>16.9604</ele>
        <time>2013-05-03T16:33:24Z</time>
      </trkpt>
      <trkpt lat="59.9370489" lon="17.820653">
        <ele>16.9604</ele>
        <time>2013-05-03T16:33:25Z</time>
      </trkpt>
      <trkpt lat="59.9370941" lon="17.8207516">
        <ele>16.9604</ele>
        <time>2013-05-03T16:33:26Z</time>
      </trkpt>
      <trkpt lat="59.9371388" lon="17.8208516">
        <ele>16.9604</ele>
        <time>2013-05-03T16:33:27Z</time>
      </trkpt>
      <trkpt lat="59.9371855" lon="17.8209477">
        <ele>16.4797</ele>
        <time>2013-05-03T16:33:28Z</time>
      </trkpt>
      <trkpt lat="59.9372366" lon="17.8210381">
        <ele>16.4797</ele>
        <time>2013-05-03T16:33:29Z</time>
      </trkpt>
      <trkpt lat="59.9372891" lon="17.8211278">
        <ele>16.4797</ele>
        <time>2013-05-03T16:33:30Z</time>
      </trkpt>
      <trkpt lat="59.9373386" lon="17.8212242">
        <ele>15.999</ele>
        <time>2013-05-03T16:33:31Z</time>
      </trkpt>
      <trkpt lat="59.937386" lon="17.8213237">
        <ele>15.999</ele>
        <time>2013-05-03T16:33:32Z</time>
      </trkpt>
      <trkpt lat="59.937434" lon="17.8214217">
        <ele>15.5184</ele>
        <time>2013-05-03T16:33:33Z</time>
      </trkpt>
      <trkpt lat="59.9374802" lon="17.8215179">
        <ele>15.5184</ele>
        <time>2013-05-03T16:33:34Z</time>
      </trkpt>
      <trkpt lat="59.9375241" lon="17.8216081">
        <ele>15.5184</ele>
        <time>2013-05-03T16:33:35Z</time>
      </trkpt>
      <trkpt lat="59.9375664" lon="17.8216905">
        <ele>15.5184</ele>
        <time>2013-05-03T16:33:36Z</time>
      </trkpt>
      <trkpt lat="59.937606" lon="17.8217619">
        <ele>15.5184</ele>
        <time>2013-05-03T16:33:37Z</time>
      </trkpt>
      <trkpt lat="59.9376429" lon="17.821819">
        <ele>15.5184</ele>
        <time>2013-05-03T16:33:38Z</time>
      </trkpt>
      <trkpt lat="59.9376812" lon="17.8218594">
        <ele>15.5184</ele>
        <time>2013-05-03T16:33:39Z</time>
      </trkpt>
      <trkpt lat="59.9377236" lon="17.821884">
        <ele>15.0377</ele>
        <time>2013-05-03T16:33:40Z</time>
      </trkpt>
      <trkpt lat="59.9377703" lon="17.8218918">
        <ele>15.0377</ele>
        <time>2013-05-03T16:33:41Z</time>
      </trkpt>
      <trkpt lat="59.9378164" lon="17.8218711">
        <ele>14.557</ele>
        <time>2013-05-03T16:33:42Z</time>
      </trkpt>
      <trkpt lat="59.9378535" lon="17.8218153">
        <ele>14.557</ele>
        <time>2013-05-03T16:33:43Z</time>
      </trkpt>
      <trkpt lat="59.9378838" lon="17.821741">
        <ele>14.0764</ele>
        <time>2013-05-03T16:33:44Z</time>
      </trkpt>
      <trkpt lat="59.9379112" lon="17.8216624">
        <ele>14.0764</ele>
        <time>2013-05-03T16:33:45Z</time>
      </trkpt>
      <trkpt lat="59.9379382" lon="17.8215832">
        <ele>14.0764</ele>
        <time>2013-05-03T16:33:46Z</time>
      </trkpt>
      <trkpt lat="59.9379676" lon="17.8215075">
        <ele>14.557</ele>
        <time>2013-05-03T16:33:47Z</time>
      </trkpt>
      <trkpt lat="59.9379997" lon="17.8214364">
        <ele>14.557</ele>
        <time>2013-05-03T16:33:48Z</time>
      </trkpt>
      <trkpt lat="59.9380315" lon="17.821365">
        <ele>15.0377</ele>
        <time>2013-05-03T16:33:49Z</time>
      </trkpt>
      <trkpt lat="59.9380634" lon="17.8212905">
        <ele>15.0377</ele>
        <time>2013-05-03T16:33:50Z</time>
      </trkpt>
      <trkpt lat="59.9380954" lon="17.8212155">
        <ele>15.5184</ele>
        <time>2013-05-03T16:33:51Z</time>
      </trkpt>
      <trkpt lat="59.9381271" lon="17.8211419">
        <ele>15.5184</ele>
        <time>2013-05-03T16:33:52Z</time>
      </trkpt>
      <trkpt lat="59.9381577" lon="17.8210702">
        <ele>15.5184</ele>
        <time>2013-05-03T16:33:53Z</time>
      </trkpt>
      <trkpt lat="59.9381828" lon="17.8209949">
        <ele>15.999</ele>
        <time>2013-05-03T16:33:54Z</time>
      </trkpt>
      <trkpt lat="59.9382033" lon="17.8209195">
        <ele>16.4797</ele>
        <time>2013-05-03T16:33:55Z</time>
      </trkpt>
      <trkpt lat="59.9382273" lon="17.8208523">
        <ele>16.4797</ele>
        <time>2013-05-03T16:33:56Z</time>
      </trkpt>
      <trkpt lat="59.9382562" lon="17.8207964">
        <ele>16.4797</ele>
        <time>2013-05-03T16:33:57Z</time>
      </trkpt>
      <trkpt lat="59.9382864" lon="17.8207481">
        <ele>16.9604</ele>
        <time>2013-05-03T16:33:58Z</time>
      </trkpt>
      <trkpt lat="59.9383172" lon="17.8206967">
        <ele>16.9604</ele>
        <time>2013-05-03T16:33:59Z</time>
      </trkpt>
      <trkpt lat="59.93835" lon="17.8206387">
        <ele>16.9604</ele>
        <time>2013-05-03T16:34:00Z</time>
      </trkpt>
      <trkpt lat="59.9383841" lon="17.8205765">
        <ele>17.4412</ele>
        <time>2013-05-03T16:34:01Z</time>
      </trkpt>
      <trkpt lat="59.9384172" lon="17.8205063">
        <ele>17.4412</ele>
        <time>2013-05-03T16:34:02Z</time>
      </trkpt>
      <trkpt lat="59.93845" lon="17.82043">
        <ele>17.4412</ele>
        <time>2013-05-03T16:34:03Z</time>
      </trkpt>
      <trkpt lat="59.9384842" lon="17.8203524">
        <ele>17.4412</ele>
        <time>2013-05-03T16:34:04Z</time>
      </trkpt>
      <trkpt lat="59.938521" lon="17.8202763">
        <ele>17.9218</ele>
        <time>2013-05-03T16:34:05Z</time>
      </trkpt>
      <trkpt lat="59.9385586" lon="17.8201974">
        <ele>17.9218</ele>
        <time>2013-05-03T16:34:06Z</time>
      </trkpt>
      <trkpt lat="59.9385977" lon="17.8201173">
        <ele>18.4023</ele>
        <time>2013-05-03T16:34:07Z</time>
      </trkpt>
      <trkpt lat="59.938637" lon="17.8200349">
        <ele>18.8831</ele>
        <time>2013-05-03T16:34:08Z</time>
      </trkpt>
      <trkpt lat="59.9386754" lon="17.8199542">
        <ele>19.3638</ele>
        <time>2013-05-03T16:34:09Z</time>
      </trkpt>
      <trkpt lat="59.9387116" lon="17.8198758">
        <ele>19.3638</ele>
        <time>2013-05-03T16:34:10Z</time>
      </trkpt>
      <trkpt lat="59.9387468" lon="17.8197996">
        <ele>19.8444</ele>
        <time>2013-05-03T16:34:11Z</time>
      </trkpt>
      <trkpt lat="59.93878" lon="17.8197239">
        <ele>19.8444</ele>
        <time>2013-05-03T16:34:12Z</time>
      </trkpt>
      <trkpt lat="59.9388118" lon="17.8196482">
        <ele>19.8444</ele>
        <time>2013-05-03T16:34:13Z</time>
      </trkpt>
      <trkpt lat="59.9388399" lon="17.8195729">
        <ele>17.9218</ele>
        <time>2013-05-03T16:34:14Z</time>
      </trkpt>
      <trkpt lat="59.9388726" lon="17.8194967">
        <ele>17.9218</ele>
        <time>2013-05-03T16:34:15Z</time>
      </trkpt>
      <trkpt lat="59.9389078" lon="17.8194155">
        <ele>17.4412</ele>
        <time>2013-05-03T16:34:16Z</time>
      </trkpt>
      <trkpt lat="59.9389447" lon="17.819332">
        <ele>17.4412</ele>
        <time>2013-05-03T16:34:17Z</time>
      </trkpt>
      <trkpt lat="59.9389826" lon="17.8192475">
        <ele>17.4412</ele>
        <time>2013-05-03T16:34:18Z</time>
      </trkpt>
      <trkpt lat="59.9390225" lon="17.8191646">
        <ele>17.9218</ele>
        <time>2013-05-03T16:34:19Z</time>
      </trkpt>
      <trkpt lat="59.9390644" lon="17.819088">
        <ele>17.9218</ele>
        <time>2013-05-03T16:34:20Z</time>
      </trkpt>
      <trkpt lat="59.9391085" lon="17.8190152">
        <ele>17.9218</ele>
        <time>2013-05-03T16:34:21Z</time>
      </trkpt>
      <trkpt lat="59.9391532" lon="17.8189441">
        <ele>17.9218</ele>
        <time>2013-05-03T16:34:22Z</time>
      </trkpt>
      <trkpt lat="59.939199" lon="17.8188777">
        <ele>17.9218</ele>
        <time>2013-05-03T16:34:23Z</time>
      </trkpt>
      <trkpt lat="59.9392462" lon="17.8188169">
        <ele>17.4412</ele>
        <time>2013-05-03T16:34:24Z</time>
      </trkpt>
      <trkpt lat="59.9392943" lon="17.8187628">
        <ele>17.4412</ele>
        <time>2013-05-03T16:34:25Z</time>
      </trkpt>
      <trkpt lat="59.9393426" lon="17.8187143">
        <ele>17.4412</ele>
        <time>2013-05-03T16:34:26Z</time>
      </trkpt>
      <trkpt lat="59.9393896" lon="17.818671">
        <ele>16.9604</ele>
        <time>2013-05-03T16:34:27Z</time>
      </trkpt>
      <trkpt lat="59.9394357" lon="17.8186343">
        <ele>16.9604</ele>
        <time>2013-05-03T16:34:28Z</time>
      </trkpt>
      <trkpt lat="59.9394804" lon="17.8186021">
        <ele>15.5184</ele>
        <time>2013-05-03T16:34:29Z</time>
      </trkpt>
      <trkpt lat="59.9395244" lon="17.8185746">
        <ele>14.557</ele>
        <time>2013-05-03T16:34:30Z</time>
      </trkpt>
      <trkpt lat="59.9395682" lon="17.8185513">
        <ele>14.0764</ele>
        <time>2013-05-03T16:34:31Z</time>
      </trkpt>
      <trkpt lat="59.9396119" lon="17.8185361">
        <ele>13.5958</ele>
        <time>2013-05-03T16:34:32Z</time>
      </trkpt>
      <trkpt lat="59.9396544" lon="17.8185295">
        <ele>13.1151</ele>
        <time>2013-05-03T16:34:33Z</time>
      </trkpt>
      <trkpt lat="59.9396954" lon="17.8185302">
        <ele>12.6344</ele>
        <time>2013-05-03T16:34:34Z</time>
      </trkpt>
      <trkpt lat="59.9397346" lon="17.8185354">
        <ele>12.1538</ele>
        <time>2013-05-03T16:34:35Z</time>
      </trkpt>
      <trkpt lat="59.9397705" lon="17.8185456">
        <ele>11.6732</ele>
        <time>2013-05-03T16:34:36Z</time>
      </trkpt>
      <trkpt lat="59.9398044" lon="17.818558">
        <ele>11.6732</ele>
        <time>2013-05-03T16:34:37Z</time>
      </trkpt>
      <trkpt lat="59.9398381" lon="17.818572">
        <ele>11.1925</ele>
        <time>2013-05-03T16:34:38Z</time>
      </trkpt>
      <trkpt lat="59.9398729" lon="17.8185897">
        <ele>11.1925</ele>
        <time>2013-05-03T16:34:39Z</time>
      </trkpt>
      <trkpt lat="59.9399091" lon="17.8186073">
        <ele>11.1925</ele>
        <time>2013-05-03T16:34:40Z</time>
      </trkpt>
      <trkpt lat="59.9399468" lon="17.818625">
        <ele>11.1925</ele>
        <time>2013-05-03T16:34:41Z</time>
      </trkpt>
      <trkpt lat="59.9399836" lon="17.8186508">
        <ele>11.6732</ele>
        <time>2013-05-03T16:34:42Z</time>
      </trkpt>
      <trkpt lat="59.9400171" lon="17.8186842">
        <ele>11.6732</ele>
        <time>2013-05-03T16:34:43Z</time>
      </trkpt>
      <trkpt lat="59.9400499" lon="17.8187179">
        <ele>11.6732</ele>
        <time>2013-05-03T16:34:44Z</time>
      </trkpt>
      <trkpt lat="59.9400849" lon="17.8187491">
        <ele>11.6732</ele>
        <time>2013-05-03T16:34:45Z</time>
      </trkpt>
      <trkpt lat="59.9401237" lon="17.8187809">
        <ele>11.6732</ele>
        <time>2013-05-03T16:34:46Z</time>
      </trkpt>
      <trkpt lat="59.9401646" lon="17.8188196">
        <ele>11.6732</ele>
        <time>2013-05-03T16:34:47Z</time>
      </trkpt>
      <trkpt lat="59.940207" lon="17.8188638">
        <ele>11.1925</ele>
        <time>2013-05-03T16:34:48Z</time>
      </trkpt>
      <trkpt lat="59.9402504" lon="17.8189129">
        <ele>11.1925</ele>
        <time>2013-05-03T16:34:49Z</time>
      </trkpt>
      <trkpt lat="59.9402932" lon="17.8189658">
        <ele>11.1925</ele>
        <time>2013-05-03T16:34:50Z</time>
      </trkpt>
      <trkpt lat="59.940337" lon="17.8190204">
        <ele>11.1925</ele>
        <time>2013-05-03T16:34:51Z</time>
      </trkpt>
      <trkpt lat="59.9403821" lon="17.819077">
        <ele>10.7118</ele>
        <time>2013-05-03T16:34:52Z</time>
      </trkpt>
      <trkpt lat="59.9404282" lon="17.8191355">
        <ele>10.7118</ele>
        <time>2013-05-03T16:34:53Z</time>
      </trkpt>
      <trkpt lat="59.9404763" lon="17.8191977">
        <ele>10.7118</ele>
        <time>2013-05-03T16:34:54Z</time>
      </trkpt>
      <trkpt lat="59.9405268" lon="17.8192642">
        <ele>10.2312</ele>
        <time>2013-05-03T16:34:55Z</time>
      </trkpt>
      <trkpt lat="59.9405815" lon="17.8193333">
        <ele>10.2312</ele>
        <time>2013-05-03T16:34:56Z</time>
      </trkpt>
      <trkpt lat="59.9406397" lon="17.819405">
        <ele>10.2312</ele>
        <time>2013-05-03T16:34:57Z</time>
      </trkpt>
      <trkpt lat="59.940701" lon="17.8194815">
        <ele>9.75061</ele>
        <time>2013-05-03T16:34:58Z</time>
      </trkpt>
      <trkpt lat="59.9407658" lon="17.8195626">
        <ele>9.75061</ele>
        <time>2013-05-03T16:34:59Z</time>
      </trkpt>
      <trkpt lat="59.9408344" lon="17.8196474">
        <ele>9.75061</ele>
        <time>2013-05-03T16:35:00Z</time>
      </trkpt>
      <trkpt lat="59.9409065" lon="17.8197369">
        <ele>9.2699</ele>
        <time>2013-05-03T16:35:01Z</time>
      </trkpt>
      <trkpt lat="59.9409823" lon="17.8198306">
        <ele>9.2699</ele>
        <time>2013-05-03T16:35:02Z</time>
      </trkpt>
      <trkpt lat="59.9410617" lon="17.819929">
        <ele>9.2699</ele>
        <time>2013-05-03T16:35:03Z</time>
      </trkpt>
      <trkpt lat="59.9411446" lon="17.8200327">
        <ele>8.78918</ele>
        <time>2013-05-03T16:35:04Z</time>
      </trkpt>
      <trkpt lat="59.9412311" lon="17.8201401">
        <ele>8.78918</ele>
        <time>2013-05-03T16:35:05Z</time>
      </trkpt>
      <trkpt lat="59.9413209" lon="17.8202509">
        <ele>8.78918</ele>
        <time>2013-05-03T16:35:06Z</time>
      </trkpt>
      <trkpt lat="59.9414134" lon="17.8203654">
        <ele>8.78918</ele>
        <time>2013-05-03T16:35:07Z</time>
      </trkpt>
      <trkpt lat="59.9415077" lon="17.8204828">
        <ele>8.30859</ele>
        <time>2013-05-03T16:35:08Z</time>
      </trkpt>
      <trkpt lat="59.9416041" lon="17.8206009">
        <ele>8.30859</ele>
        <time>2013-05-03T16:35:09Z</time>
      </trkpt>
      <trkpt lat="59.9417008" lon="17.8207202">
        <ele>8.30859</ele>
        <time>2013-05-03T16:35:10Z</time>
      </trkpt>
      <trkpt lat="59.9417964" lon="17.8208409">
        <ele>8.78918</ele>
        <time>2013-05-03T16:35:11Z</time>
      </trkpt>
      <trkpt lat="59.9418919" lon="17.8209606">
        <ele>8.78918</ele>
        <time>2013-05-03T16:35:12Z</time>
      </trkpt>
      <trkpt lat="59.9419865" lon="17.8210786">
        <ele>8.78918</ele>
        <time>2013-05-03T16:35:13Z</time>
      </trkpt>
      <trkpt lat="59.9420807" lon="17.8211947">
        <ele>9.2699</ele>
        <time>2013-05-03T16:35:14Z</time>
      </trkpt>
      <trkpt lat="59.9421737" lon="17.8213093">
        <ele>9.75061</ele>
        <time>2013-05-03T16:35:15Z</time>
      </trkpt>
      <trkpt lat="59.9422661" lon="17.8214226">
        <ele>9.75061</ele>
        <time>2013-05-03T16:35:16Z</time>
      </trkpt>
      <trkpt lat="59.9423573" lon="17.821535">
        <ele>10.2312</ele>
        <time>2013-05-03T16:35:17Z</time>
      </trkpt>
      <trkpt lat="59.9424469" lon="17.8216468">
        <ele>10.2312</ele>
        <time>2013-05-03T16:35:18Z</time>
      </trkpt>
      <trkpt lat="59.9425355" lon="17.8217578">
        <ele>10.7118</ele>
        <time>2013-05-03T16:35:19Z</time>
      </trkpt>
      <trkpt lat="59.9426234" lon="17.8218679">
        <ele>11.1925</ele>
        <time>2013-05-03T16:35:20Z</time>
      </trkpt>
      <trkpt lat="59.9427106" lon="17.8219764">
        <ele>11.1925</ele>
        <time>2013-05-03T16:35:21Z</time>
      </trkpt>
      <trkpt lat="59.9427977" lon="17.8220826">
        <ele>11.6732</ele>
        <time>2013-05-03T16:35:22Z</time>
      </trkpt>
      <trkpt lat="59.9428836" lon="17.8221875">
        <ele>12.1538</ele>
        <time>2013-05-03T16:35:23Z</time>
      </trkpt>
      <trkpt lat="59.9429679" lon="17.8222908">
        <ele>12.6344</ele>
        <time>2013-05-03T16:35:24Z</time>
      </trkpt>
      <trkpt lat="59.9430505" lon="17.8223932">
        <ele>13.1151</ele>
        <time>2013-05-03T16:35:25Z</time>
      </trkpt>
      <trkpt lat="59.9431323" lon="17.8224944">
        <ele>13.1151</ele>
        <time>2013-05-03T16:35:26Z</time>
      </trkpt>
      <trkpt lat="59.943213" lon="17.8225939">
        <ele>13.5958</ele>
        <time>2013-05-03T16:35:27Z</time>
      </trkpt>
      <trkpt lat="59.9432922" lon="17.8226922">
        <ele>13.5958</ele>
        <time>2013-05-03T16:35:28Z</time>
      </trkpt>
      <trkpt lat="59.9433698" lon="17.8227892">
        <ele>14.0764</ele>
        <time>2013-05-03T16:35:29Z</time>
      </trkpt>
      <trkpt lat="59.9434457" lon="17.8228858">
        <ele>14.557</ele>
        <time>2013-05-03T16:35:30Z</time>
      </trkpt>
      <trkpt lat="59.9435203" lon="17.8229794">
        <ele>14.557</ele>
        <time>2013-05-03T16:35:31Z</time>
      </trkpt>
      <trkpt lat="59.9435941" lon="17.8230708">
        <ele>15.0377</ele>
        <time>2013-05-03T16:35:32Z</time>
      </trkpt>
      <trkpt lat="59.9436663" lon="17.8231614">
        <ele>15.0377</ele>
        <time>2013-05-03T16:35:33Z</time>
      </trkpt>
      <trkpt lat="59.9437373" lon="17.8232497">
        <ele>15.5184</ele>
        <time>2013-05-03T16:35:34Z</time>
      </trkpt>
      <trkpt lat="59.9438068" lon="17.8233356">
        <ele>15.999</ele>
        <time>2013-05-03T16:35:35Z</time>
      </trkpt>
      <trkpt lat="59.9438751" lon="17.8234201">
        <ele>15.999</ele>
        <time>2013-05-03T16:35:36Z</time>
      </trkpt>
      <trkpt lat="59.9439417" lon="17.8235036">
        <ele>15.999</ele>
        <time>2013-05-03T16:35:37Z</time>
      </trkpt>
      <trkpt lat="59.9440068" lon="17.8235858">
        <ele>16.4797</ele>
        <time>2013-05-03T16:35:38Z</time>
      </trkpt>
      <trkpt lat="59.9440713" lon="17.823665">
        <ele>16.4797</ele>
        <time>2013-05-03T16:35:39Z</time>
      </trkpt>
      <trkpt lat="59.9441346" lon="17.8237418">
        <ele>16.9604</ele>
        <time>2013-05-03T16:35:40Z</time>
      </trkpt>
      <trkpt lat="59.9441966" lon="17.8238191">
        <ele>16.9604</ele>
        <time>2013-05-03T16:35:41Z</time>
      </trkpt>
      <trkpt lat="59.9442578" lon="17.8238936">
        <ele>16.4797</ele>
        <time>2013-05-03T16:35:42Z</time>
      </trkpt>
      <trkpt lat="59.9443191" lon="17.8239671">
        <ele>16.4797</ele>
        <time>2013-05-03T16:35:43Z</time>
      </trkpt>
      <trkpt lat="59.9443817" lon="17.8240411">
        <ele>16.4797</ele>
        <time>2013-05-03T16:35:44Z</time>
      </trkpt>
      <trkpt lat="59.9444449" lon="17.8241125">
        <ele>15.999</ele>
        <time>2013-05-03T16:35:45Z</time>
      </trkpt>
      <trkpt lat="59.9445102" lon="17.8241811">
        <ele>15.999</ele>
        <time>2013-05-03T16:35:46Z</time>
      </trkpt>
      <trkpt lat="59.9445774" lon="17.8242477">
        <ele>16.4797</ele>
        <time>2013-05-03T16:35:47Z</time>
      </trkpt>
      <trkpt lat="59.9446448" lon="17.824316">
        <ele>16.4797</ele>
        <time>2013-05-03T16:35:48Z</time>
      </trkpt>
      <trkpt lat="59.9447123" lon="17.8243854">
        <ele>16.4797</ele>
        <time>2013-05-03T16:35:49Z</time>
      </trkpt>
      <trkpt lat="59.9447811" lon="17.8244551">
        <ele>16.4797</ele>
        <time>2013-05-03T16:35:50Z</time>
      </trkpt>
      <trkpt lat="59.9448501" lon="17.8245249">
        <ele>16.9604</ele>
        <time>2013-05-03T16:35:51Z</time>
      </trkpt>
      <trkpt lat="59.94492" lon="17.8245959">
        <ele>16.9604</ele>
        <time>2013-05-03T16:35:52Z</time>
      </trkpt>
      <trkpt lat="59.9449913" lon="17.8246686">
        <ele>16.9604</ele>
        <time>2013-05-03T16:35:53Z</time>
      </trkpt>
      <trkpt lat="59.9450634" lon="17.824742">
        <ele>16.9604</ele>
        <time>2013-05-03T16:35:54Z</time>
      </trkpt>
      <trkpt lat="59.9451354" lon="17.8248166">
        <ele>16.9604</ele>
        <time>2013-05-03T16:35:55Z</time>
      </trkpt>
      <trkpt lat="59.9452091" lon="17.8248902">
        <ele>16.9604</ele>
        <time>2013-05-03T16:35:56Z</time>
      </trkpt>
      <trkpt lat="59.9452818" lon="17.8249653">
        <ele>16.9604</ele>
        <time>2013-05-03T16:35:57Z</time>
      </trkpt>
      <trkpt lat="59.9453539" lon="17.8250416">
        <ele>16.9604</ele>
        <time>2013-05-03T16:35:58Z</time>
      </trkpt>
      <trkpt lat="59.9454265" lon="17.8251167">
        <ele>16.9604</ele>
        <time>2013-05-03T16:35:59Z</time>
      </trkpt>
      <trkpt lat="59.945499" lon="17.8251917">
        <ele>16.9604</ele>
        <time>2013-05-03T16:36:00Z</time>
      </trkpt>
      <trkpt lat="59.9455711" lon="17.8252668">
        <ele>16.4797</ele>
        <time>2013-05-03T16:36:01Z</time>
      </trkpt>
      <trkpt lat="59.9456431" lon="17.8253422">
        <ele>16.4797</ele>
        <time>2013-05-03T16:36:02Z</time>
      </trkpt>
      <trkpt lat="59.9457149" lon="17.8254174">
        <ele>15.999</ele>
        <time>2013-05-03T16:36:03Z</time>
      </trkpt>
      <trkpt lat="59.9457871" lon="17.8254921">
        <ele>15.999</ele>
        <time>2013-05-03T16:36:04Z</time>
      </trkpt>
      <trkpt lat="59.9458594" lon="17.8255678">
        <ele>15.999</ele>
        <time>2013-05-03T16:36:05Z</time>
      </trkpt>
      <trkpt lat="59.9459316" lon="17.8256429">
        <ele>15.999</ele>
        <time>2013-05-03T16:36:06Z</time>
      </trkpt>
      <trkpt lat="59.9460039" lon="17.8257169">
        <ele>15.5184</ele>
        <time>2013-05-03T16:36:07Z</time>
      </trkpt>
      <trkpt lat="59.9460756" lon="17.8257915">
        <ele>15.5184</ele>
        <time>2013-05-03T16:36:08Z</time>
      </trkpt>
      <trkpt lat="59.9461469" lon="17.825867">
        <ele>15.5184</ele>
        <time>2013-05-03T16:36:09Z</time>
      </trkpt>
      <trkpt lat="59.9462182" lon="17.8259418">
        <ele>15.5184</ele>
        <time>2013-05-03T16:36:10Z</time>
      </trkpt>
      <trkpt lat="59.9462894" lon="17.8260164">
        <ele>15.5184</ele>
        <time>2013-05-03T16:36:11Z</time>
      </trkpt>
      <trkpt lat="59.9463603" lon="17.8260908">
        <ele>15.0377</ele>
        <time>2013-05-03T16:36:12Z</time>
      </trkpt>
      <trkpt lat="59.9464314" lon="17.8261646">
        <ele>15.0377</ele>
        <time>2013-05-03T16:36:13Z</time>
      </trkpt>
      <trkpt lat="59.9465023" lon="17.826239">
        <ele>15.0377</ele>
        <time>2013-05-03T16:36:14Z</time>
      </trkpt>
      <trkpt lat="59.9465734" lon="17.8263122">
        <ele>15.0377</ele>
        <time>2013-05-03T16:36:15Z</time>
      </trkpt>
      <trkpt lat="59.9466447" lon="17.8263845">
        <ele>15.0377</ele>
        <time>2013-05-03T16:36:16Z</time>
      </trkpt>
      <trkpt lat="59.9467156" lon="17.8264575">
        <ele>14.557</ele>
        <time>2013-05-03T16:36:17Z</time>
      </trkpt>
      <trkpt lat="59.9467861" lon="17.8265307">
        <ele>14.557</ele>
        <time>2013-05-03T16:36:18Z</time>
      </trkpt>
      <trkpt lat="59.9468563" lon="17.8266041">
        <ele>14.557</ele>
        <time>2013-05-03T16:36:19Z</time>
      </trkpt>
      <trkpt lat="59.9469267" lon="17.826678">
        <ele>14.557</ele>
        <time>2013-05-03T16:36:20Z</time>
      </trkpt>
      <trkpt lat="59.9469978" lon="17.8267517">
        <ele>14.557</ele>
        <time>2013-05-03T16:36:21Z</time>
      </trkpt>
      <trkpt lat="59.9470695" lon="17.826825">
        <ele>14.557</ele>
        <time>2013-05-03T16:36:22Z</time>
      </trkpt>
      <trkpt lat="59.9471415" lon="17.8268995">
        <ele>14.557</ele>
        <time>2013-05-03T16:36:23Z</time>
      </trkpt>
      <trkpt lat="59.9472136" lon="17.826974">
        <ele>14.557</ele>
        <time>2013-05-03T16:36:24Z</time>
      </trkpt>
      <trkpt lat="59.9472851" lon="17.827048">
        <ele>14.557</ele>
        <time>2013-05-03T16:36:25Z</time>
      </trkpt>
      <trkpt lat="59.9473564" lon="17.8271212">
        <ele>14.557</ele>
        <time>2013-05-03T16:36:26Z</time>
      </trkpt>
      <trkpt lat="59.9474271" lon="17.8271937">
        <ele>14.557</ele>
        <time>2013-05-03T16:36:27Z</time>
      </trkpt>
      <trkpt lat="59.947497" lon="17.8272647">
        <ele>14.557</ele>
        <time>2013-05-03T16:36:28Z</time>
      </trkpt>
      <trkpt lat="59.9475664" lon="17.8273335">
        <ele>15.0377</ele>
        <time>2013-05-03T16:36:29Z</time>
      </trkpt>
      <trkpt lat="59.9476343" lon="17.827402">
        <ele>15.0377</ele>
        <time>2013-05-03T16:36:30Z</time>
      </trkpt>
      <trkpt lat="59.947701" lon="17.8274715">
        <ele>15.0377</ele>
        <time>2013-05-03T16:36:31Z</time>
      </trkpt>
      <trkpt lat="59.947767" lon="17.8275409">
        <ele>15.0377</ele>
        <time>2013-05-03T16:36:32Z</time>
      </trkpt>
      <trkpt lat="59.9478332" lon="17.8276081">
        <ele>15.5184</ele>
        <time>2013-05-03T16:36:33Z</time>
      </trkpt>
      <trkpt lat="59.9478983" lon="17.8276743">
        <ele>15.5184</ele>
        <time>2013-05-03T16:36:34Z</time>
      </trkpt>
      <trkpt lat="59.9479611" lon="17.8277407">
        <ele>15.5184</ele>
        <time>2013-05-03T16:36:35Z</time>
      </trkpt>
      <trkpt lat="59.9480231" lon="17.8278045">
        <ele>15.5184</ele>
        <time>2013-05-03T16:36:36Z</time>
      </trkpt>
      <trkpt lat="59.9480837" lon="17.8278686">
        <ele>15.5184</ele>
        <time>2013-05-03T16:36:37Z</time>
      </trkpt>
      <trkpt lat="59.948143" lon="17.8279328">
        <ele>15.5184</ele>
        <time>2013-05-03T16:36:38Z</time>
      </trkpt>
      <trkpt lat="59.9482025" lon="17.8279936">
        <ele>15.5184</ele>
        <time>2013-05-03T16:36:39Z</time>
      </trkpt>
      <trkpt lat="59.9482615" lon="17.8280516">
        <ele>15.5184</ele>
        <time>2013-05-03T16:36:40Z</time>
      </trkpt>
      <trkpt lat="59.9483186" lon="17.8281101">
        <ele>15.5184</ele>
        <time>2013-05-03T16:36:41Z</time>
      </trkpt>
      <trkpt lat="59.9483751" lon="17.8281681">
        <ele>15.5184</ele>
        <time>2013-05-03T16:36:42Z</time>
      </trkpt>
      <trkpt lat="59.9484344" lon="17.8282272">
        <ele>15.999</ele>
        <time>2013-05-03T16:36:43Z</time>
      </trkpt>
      <trkpt lat="59.9484904" lon="17.8282842">
        <ele>15.999</ele>
        <time>2013-05-03T16:36:44Z</time>
      </trkpt>
      <trkpt lat="59.9485455" lon="17.8283412">
        <ele>15.5184</ele>
        <time>2013-05-03T16:36:45Z</time>
      </trkpt>
      <trkpt lat="59.9486009" lon="17.828398">
        <ele>15.5184</ele>
        <time>2013-05-03T16:36:46Z</time>
      </trkpt>
      <trkpt lat="59.9486557" lon="17.828456">
        <ele>15.5184</ele>
        <time>2013-05-03T16:36:47Z</time>
      </trkpt>
      <trkpt lat="59.9487128" lon="17.8285167">
        <ele>15.5184</ele>
        <time>2013-05-03T16:36:48Z</time>
      </trkpt>
      <trkpt lat="59.9487693" lon="17.8285779">
        <ele>15.5184</ele>
        <time>2013-05-03T16:36:49Z</time>
      </trkpt>
      <trkpt lat="59.9488261" lon="17.8286388">
        <ele>15.5184</ele>
        <time>2013-05-03T16:36:50Z</time>
      </trkpt>
      <trkpt lat="59.9488831" lon="17.8286996">
        <ele>15.5184</ele>
        <time>2013-05-03T16:36:51Z</time>
      </trkpt>
      <trkpt lat="59.9489397" lon="17.8287614">
        <ele>15.5184</ele>
        <time>2013-05-03T16:36:52Z</time>
      </trkpt>
      <trkpt lat="59.9489959" lon="17.8288235">
        <ele>15.5184</ele>
        <time>2013-05-03T16:36:53Z</time>
      </trkpt>
      <trkpt lat="59.9490512" lon="17.8288851">
        <ele>15.5184</ele>
        <time>2013-05-03T16:36:54Z</time>
      </trkpt>
      <trkpt lat="59.9491053" lon="17.8289466">
        <ele>15.5184</ele>
        <time>2013-05-03T16:36:55Z</time>
      </trkpt>
      <trkpt lat="59.9491578" lon="17.8290084">
        <ele>15.5184</ele>
        <time>2013-05-03T16:36:56Z</time>
      </trkpt>
      <trkpt lat="59.9492085" lon="17.8290695">
        <ele>15.0377</ele>
        <time>2013-05-03T16:36:57Z</time>
      </trkpt>
      <trkpt lat="59.9492572" lon="17.8291309">
        <ele>15.0377</ele>
        <time>2013-05-03T16:36:58Z</time>
      </trkpt>
      <trkpt lat="59.9493045" lon="17.8291917">
        <ele>15.0377</ele>
        <time>2013-05-03T16:36:59Z</time>
      </trkpt>
      <trkpt lat="59.9493503" lon="17.829253">
        <ele>15.0377</ele>
        <time>2013-05-03T16:37:00Z</time>
      </trkpt>
      <trkpt lat="59.949395" lon="17.8293138">
        <ele>15.0377</ele>
        <time>2013-05-03T16:37:01Z</time>
      </trkpt>
      <trkpt lat="59.9494379" lon="17.8293751">
        <ele>14.557</ele>
        <time>2013-05-03T16:37:02Z</time>
      </trkpt>
      <trkpt lat="59.9494792" lon="17.8294351">
        <ele>14.557</ele>
        <time>2013-05-03T16:37:03Z</time>
      </trkpt>
      <trkpt lat="59.9495183" lon="17.829493">
        <ele>15.0377</ele>
        <time>2013-05-03T16:37:04Z</time>
      </trkpt>
      <trkpt lat="59.9495561" lon="17.829549">
        <ele>15.0377</ele>
        <time>2013-05-03T16:37:05Z</time>
      </trkpt>
      <trkpt lat="59.9495933" lon="17.8296001">
        <ele>15.0377</ele>
        <time>2013-05-03T16:37:06Z</time>
      </trkpt>
      <trkpt lat="59.9496286" lon="17.8296505">
        <ele>15.0377</ele>
        <time>2013-05-03T16:37:07Z</time>
      </trkpt>
      <trkpt lat="59.9496622" lon="17.829702">
        <ele>15.0377</ele>
        <time>2013-05-03T16:37:08Z</time>
      </trkpt>
      <trkpt lat="59.9496932" lon="17.8297521">
        <ele>15.0377</ele>
        <time>2013-05-03T16:37:09Z</time>
      </trkpt>
      <trkpt lat="59.9497237" lon="17.8298041">
        <ele>15.0377</ele>
        <time>2013-05-03T16:37:10Z</time>
      </trkpt>
      <trkpt lat="59.9497527" lon="17.829852">
        <ele>15.5184</ele>
        <time>2013-05-03T16:37:11Z</time>
      </trkpt>
      <trkpt lat="59.949781" lon="17.8298984">
        <ele>15.5184</ele>
        <time>2013-05-03T16:37:12Z</time>
      </trkpt>
      <trkpt lat="59.9498067" lon="17.8299416">
        <ele>15.5184</ele>
        <time>2013-05-03T16:37:13Z</time>
      </trkpt>
      <trkpt lat="59.9498318" lon="17.8299774">
        <ele>15.5184</ele>
        <time>2013-05-03T16:37:14Z</time>
      </trkpt>
      <trkpt lat="59.9498579" lon="17.8300053">
        <ele>15.5184</ele>
        <time>2013-05-03T16:37:15Z</time>
      </trkpt>
      <trkpt lat="59.9498803" lon="17.8300283">
        <ele>15.999</ele>
        <time>2013-05-03T16:37:16Z</time>
      </trkpt>
      <trkpt lat="59.9498974" lon="17.8300466">
        <ele>15.999</ele>
        <time>2013-05-03T16:37:17Z</time>
      </trkpt>
      <trkpt lat="59.9499056" lon="17.8300552">
        <ele>16.4797</ele>
        <time>2013-05-03T16:37:18Z</time>
      </trkpt>
      <trkpt lat="59.9499068" lon="17.8300573">
        <ele>16.4797</ele>
        <time>2013-05-03T16:37:19Z</time>
      </trkpt>
      <trkpt lat="59.9499058" lon="17.8300573">
        <ele>15.999</ele>
        <time>2013-05-03T16:37:20Z</time>
      </trkpt>
      <trkpt lat="59.9499051" lon="17.8300575">
        <ele>15.999</ele>
        <time>2013-05-03T16:37:21Z</time>
      </trkpt>
      <trkpt lat="59.9499042" lon="17.8300574">
        <ele>15.999</ele>
        <time>2013-05-03T16:37:22Z</time>
      </trkpt>
      <trkpt lat="59.9499042" lon="17.8300579">
        <ele>15.999</ele>
        <time>2013-05-03T16:37:23Z</time>
      </trkpt>
      <trkpt lat="59.9499095" lon="17.8300625">
        <ele>15.999</ele>
        <time>2013-05-03T16:37:24Z</time>
      </trkpt>
      <trkpt lat="59.9499216" lon="17.830061">
        <ele>15.999</ele>
        <time>2013-05-03T16:37:25Z</time>
      </trkpt>
      <trkpt lat="59.9499385" lon="17.8300486">
        <ele>15.999</ele>
        <time>2013-05-03T16:37:26Z</time>
      </trkpt>
      <trkpt lat="59.9499527" lon="17.8300256">
        <ele>15.999</ele>
        <time>2013-05-03T16:37:27Z</time>
      </trkpt>
      <trkpt lat="59.949967" lon="17.8299921">
        <ele>15.999</ele>
        <time>2013-05-03T16:37:28Z</time>
      </trkpt>
      <trkpt lat="59.9499814" lon="17.8299465">
        <ele>16.4797</ele>
        <time>2013-05-03T16:37:29Z</time>
      </trkpt>
      <trkpt lat="59.9499943" lon="17.8298929">
        <ele>16.4797</ele>
        <time>2013-05-03T16:37:30Z</time>
      </trkpt>
      <trkpt lat="59.9500083" lon="17.8298334">
        <ele>16.4797</ele>
        <time>2013-05-03T16:37:31Z</time>
      </trkpt>
      <trkpt lat="59.9500245" lon="17.8297698">
        <ele>16.4797</ele>
        <time>2013-05-03T16:37:32Z</time>
      </trkpt>
      <trkpt lat="59.9500425" lon="17.8297018">
        <ele>16.9604</ele>
        <time>2013-05-03T16:37:33Z</time>
      </trkpt>
      <trkpt lat="59.9500622" lon="17.8296288">
        <ele>16.9604</ele>
        <time>2013-05-03T16:37:34Z</time>
      </trkpt>
      <trkpt lat="59.9500782" lon="17.8295467">
        <ele>16.9604</ele>
        <time>2013-05-03T16:37:35Z</time>
      </trkpt>
      <trkpt lat="59.950087" lon="17.8294537">
        <ele>16.4797</ele>
        <time>2013-05-03T16:37:36Z</time>
      </trkpt>
      <trkpt lat="59.9500892" lon="17.8293561">
        <ele>15.999</ele>
        <time>2013-05-03T16:37:37Z</time>
      </trkpt>
      <trkpt lat="59.950088" lon="17.8292549">
        <ele>15.999</ele>
        <time>2013-05-03T16:37:38Z</time>
      </trkpt>
      <trkpt lat="59.950084" lon="17.8291549">
        <ele>16.4797</ele>
        <time>2013-05-03T16:37:39Z</time>
      </trkpt>
      <trkpt lat="59.9500794" lon="17.8290558">
        <ele>16.4797</ele>
        <time>2013-05-03T16:37:40Z</time>
      </trkpt>
      <trkpt lat="59.950077" lon="17.828955">
        <ele>16.4797</ele>
        <time>2013-05-03T16:37:41Z</time>
      </trkpt>
      <trkpt lat="59.950076" lon="17.8288536">
        <ele>16.4797</ele>
        <time>2013-05-03T16:37:42Z</time>
      </trkpt>
      <trkpt lat="59.9500742" lon="17.8287523">
        <ele>15.999</ele>
        <time>2013-05-03T16:37:43Z</time>
      </trkpt>
      <trkpt lat="59.9500714" lon="17.8286508">
        <ele>15.999</ele>
        <time>2013-05-03T16:37:44Z</time>
      </trkpt>
      <trkpt lat="59.9500678" lon="17.8285488">
        <ele>15.999</ele>
        <time>2013-05-03T16:37:45Z</time>
      </trkpt>
      <trkpt lat="59.9500648" lon="17.8284454">
        <ele>15.999</ele>
        <time>2013-05-03T16:37:46Z</time>
      </trkpt>
      <trkpt lat="59.9500625" lon="17.82834">
        <ele>15.5184</ele>
        <time>2013-05-03T16:37:47Z</time>
      </trkpt>
      <trkpt lat="59.9500595" lon="17.8282315">
        <ele>15.5184</ele>
        <time>2013-05-03T16:37:48Z</time>
      </trkpt>
      <trkpt lat="59.9500569" lon="17.8281208">
        <ele>15.5184</ele>
        <time>2013-05-03T16:37:49Z</time>
      </trkpt>
      <trkpt lat="59.9500545" lon="17.8280094">
        <ele>15.5184</ele>
        <time>2013-05-03T16:37:50Z</time>
      </trkpt>
      <trkpt lat="59.9500519" lon="17.8278991">
        <ele>15.5184</ele>
        <time>2013-05-03T16:37:51Z</time>
      </trkpt>
      <trkpt lat="59.9500498" lon="17.8277878">
        <ele>15.5184</ele>
        <time>2013-05-03T16:37:52Z</time>
      </trkpt>
      <trkpt lat="59.9500482" lon="17.8276728">
        <ele>15.5184</ele>
        <time>2013-05-03T16:37:53Z</time>
      </trkpt>
      <trkpt lat="59.9500467" lon="17.827557">
        <ele>15.999</ele>
        <time>2013-05-03T16:37:54Z</time>
      </trkpt>
      <trkpt lat="59.9500455" lon="17.8274433">
        <ele>15.5184</ele>
        <time>2013-05-03T16:37:55Z</time>
      </trkpt>
      <trkpt lat="59.9500454" lon="17.8273319">
        <ele>15.5184</ele>
        <time>2013-05-03T16:37:56Z</time>
      </trkpt>
      <trkpt lat="59.9500462" lon="17.8272233">
        <ele>15.0377</ele>
        <time>2013-05-03T16:37:57Z</time>
      </trkpt>
      <trkpt lat="59.9500487" lon="17.8271148">
        <ele>15.0377</ele>
        <time>2013-05-03T16:37:58Z</time>
      </trkpt>
      <trkpt lat="59.9500514" lon="17.827005">
        <ele>15.0377</ele>
        <time>2013-05-03T16:37:59Z</time>
      </trkpt>
      <trkpt lat="59.9500551" lon="17.8268966">
        <ele>15.5184</ele>
        <time>2013-05-03T16:38:00Z</time>
      </trkpt>
      <trkpt lat="59.9500608" lon="17.8267901">
        <ele>15.5184</ele>
        <time>2013-05-03T16:38:01Z</time>
      </trkpt>
      <trkpt lat="59.9500685" lon="17.8266833">
        <ele>15.5184</ele>
        <time>2013-05-03T16:38:02Z</time>
      </trkpt>
      <trkpt lat="59.9500776" lon="17.8265768">
        <ele>15.5184</ele>
        <time>2013-05-03T16:38:03Z</time>
      </trkpt>
      <trkpt lat="59.9500871" lon="17.8264702">
        <ele>15.5184</ele>
        <time>2013-05-03T16:38:04Z</time>
      </trkpt>
      <trkpt lat="59.9500974" lon="17.8263655">
        <ele>15.5184</ele>
        <time>2013-05-03T16:38:05Z</time>
      </trkpt>
      <trkpt lat="59.9501117" lon="17.8262582">
        <ele>15.5184</ele>
        <time>2013-05-03T16:38:06Z</time>
      </trkpt>
      <trkpt lat="59.950128" lon="17.8261521">
        <ele>15.999</ele>
        <time>2013-05-03T16:38:07Z</time>
      </trkpt>
      <trkpt lat="59.9501465" lon="17.8260491">
        <ele>15.999</ele>
        <time>2013-05-03T16:38:08Z</time>
      </trkpt>
      <trkpt lat="59.9501673" lon="17.8259521">
        <ele>15.999</ele>
        <time>2013-05-03T16:38:09Z</time>
      </trkpt>
      <trkpt lat="59.950189" lon="17.8258572">
        <ele>15.999</ele>
        <time>2013-05-03T16:38:10Z</time>
      </trkpt>
      <trkpt lat="59.9502112" lon="17.8257634">
        <ele>16.4797</ele>
        <time>2013-05-03T16:38:11Z</time>
      </trkpt>
      <trkpt lat="59.9502329" lon="17.8256698">
        <ele>16.4797</ele>
        <time>2013-05-03T16:38:12Z</time>
      </trkpt>
      <trkpt lat="59.9502539" lon="17.825577">
        <ele>16.4797</ele>
        <time>2013-05-03T16:38:13Z</time>
      </trkpt>
      <trkpt lat="59.9502751" lon="17.8254854">
        <ele>16.9604</ele>
        <time>2013-05-03T16:38:14Z</time>
      </trkpt>
      <trkpt lat="59.9502931" lon="17.8253963">
        <ele>15.0377</ele>
        <time>2013-05-03T16:38:15Z</time>
      </trkpt>
      <trkpt lat="59.9503108" lon="17.825307">
        <ele>13.5958</ele>
        <time>2013-05-03T16:38:16Z</time>
      </trkpt>
      <trkpt lat="59.9503295" lon="17.8252181">
        <ele>12.1538</ele>
        <time>2013-05-03T16:38:17Z</time>
      </trkpt>
      <trkpt lat="59.9503498" lon="17.8251283">
        <ele>12.1538</ele>
        <time>2013-05-03T16:38:18Z</time>
      </trkpt>
      <trkpt lat="59.95037" lon="17.8250376">
        <ele>12.1538</ele>
        <time>2013-05-03T16:38:19Z</time>
      </trkpt>
      <trkpt lat="59.9503902" lon="17.8249478">
        <ele>12.1538</ele>
        <time>2013-05-03T16:38:20Z</time>
      </trkpt>
      <trkpt lat="59.9504102" lon="17.8248581">
        <ele>12.6344</ele>
        <time>2013-05-03T16:38:21Z</time>
      </trkpt>
      <trkpt lat="59.950429" lon="17.8247703">
        <ele>12.6344</ele>
        <time>2013-05-03T16:38:22Z</time>
      </trkpt>
      <trkpt lat="59.9504477" lon="17.824683">
        <ele>12.6344</ele>
        <time>2013-05-03T16:38:23Z</time>
      </trkpt>
      <trkpt lat="59.9504669" lon="17.8245943">
        <ele>12.6344</ele>
        <time>2013-05-03T16:38:24Z</time>
      </trkpt>
      <trkpt lat="59.9504868" lon="17.8245064">
        <ele>13.1151</ele>
        <time>2013-05-03T16:38:25Z</time>
      </trkpt>
      <trkpt lat="59.9505059" lon="17.8244153">
        <ele>13.1151</ele>
        <time>2013-05-03T16:38:26Z</time>
      </trkpt>
      <trkpt lat="59.9505263" lon="17.8243255">
        <ele>13.5958</ele>
        <time>2013-05-03T16:38:27Z</time>
      </trkpt>
      <trkpt lat="59.9505474" lon="17.8242365">
        <ele>14.0764</ele>
        <time>2013-05-03T16:38:28Z</time>
      </trkpt>
      <trkpt lat="59.9505629" lon="17.8241463">
        <ele>12.1538</ele>
        <time>2013-05-03T16:38:29Z</time>
      </trkpt>
      <trkpt lat="59.9505801" lon="17.8240548">
        <ele>11.6732</ele>
        <time>2013-05-03T16:38:30Z</time>
      </trkpt>
      <trkpt lat="59.950593" lon="17.8239656">
        <ele>9.75061</ele>
        <time>2013-05-03T16:38:31Z</time>
      </trkpt>
      <trkpt lat="59.9506081" lon="17.8238742">
        <ele>8.30859</ele>
        <time>2013-05-03T16:38:32Z</time>
      </trkpt>
      <trkpt lat="59.9506258" lon="17.8237831">
        <ele>8.78918</ele>
        <time>2013-05-03T16:38:33Z</time>
      </trkpt>
      <trkpt lat="59.9506403" lon="17.8236878">
        <ele>8.78918</ele>
        <time>2013-05-03T16:38:34Z</time>
      </trkpt>
      <trkpt lat="59.9506546" lon="17.8235895">
        <ele>8.78918</ele>
        <time>2013-05-03T16:38:35Z</time>
      </trkpt>
      <trkpt lat="59.9506662" lon="17.8234895">
        <ele>8.78918</ele>
        <time>2013-05-03T16:38:36Z</time>
      </trkpt>
      <trkpt lat="59.950676" lon="17.8233846">
        <ele>9.2699</ele>
        <time>2013-05-03T16:38:37Z</time>
      </trkpt>
      <trkpt lat="59.9506859" lon="17.8232793">
        <ele>9.75061</ele>
        <time>2013-05-03T16:38:38Z</time>
      </trkpt>
      <trkpt lat="59.9506969" lon="17.8231766">
        <ele>9.75061</ele>
        <time>2013-05-03T16:38:39Z</time>
      </trkpt>
      <trkpt lat="59.950708" lon="17.8230734">
        <ele>10.7118</ele>
        <time>2013-05-03T16:38:40Z</time>
      </trkpt>
      <trkpt lat="59.9507164" lon="17.8229689">
        <ele>10.2312</ele>
        <time>2013-05-03T16:38:41Z</time>
      </trkpt>
      <trkpt lat="59.9507251" lon="17.8228685">
        <ele>10.2312</ele>
        <time>2013-05-03T16:38:42Z</time>
      </trkpt>
      <trkpt lat="59.9507356" lon="17.8227687">
        <ele>10.7118</ele>
        <time>2013-05-03T16:38:43Z</time>
      </trkpt>
      <trkpt lat="59.9507464" lon="17.822674">
        <ele>11.1925</ele>
        <time>2013-05-03T16:38:44Z</time>
      </trkpt>
      <trkpt lat="59.9507582" lon="17.8225808">
        <ele>11.1925</ele>
        <time>2013-05-03T16:38:45Z</time>
      </trkpt>
      <trkpt lat="59.9507699" lon="17.8224872">
        <ele>11.1925</ele>
        <time>2013-05-03T16:38:46Z</time>
      </trkpt>
      <trkpt lat="59.9507815" lon="17.8223954">
        <ele>11.6732</ele>
        <time>2013-05-03T16:38:47Z</time>
      </trkpt>
      <trkpt lat="59.9507921" lon="17.8223031">
        <ele>11.6732</ele>
        <time>2013-05-03T16:38:48Z</time>
      </trkpt>
      <trkpt lat="59.9508022" lon="17.8222094">
        <ele>12.1538</ele>
        <time>2013-05-03T16:38:49Z</time>
      </trkpt>
      <trkpt lat="59.9508113" lon="17.8221145">
        <ele>12.1538</ele>
        <time>2013-05-03T16:38:50Z</time>
      </trkpt>
      <trkpt lat="59.9508179" lon="17.8220182">
        <ele>12.6344</ele>
        <time>2013-05-03T16:38:51Z</time>
      </trkpt>
      <trkpt lat="59.9508268" lon="17.8219214">
        <ele>13.1151</ele>
        <time>2013-05-03T16:38:52Z</time>
      </trkpt>
      <trkpt lat="59.9508381" lon="17.8218272">
        <ele>13.1151</ele>
        <time>2013-05-03T16:38:53Z</time>
      </trkpt>
      <trkpt lat="59.9508485" lon="17.8217308">
        <ele>13.5958</ele>
        <time>2013-05-03T16:38:54Z</time>
      </trkpt>
      <trkpt lat="59.9508582" lon="17.8216319">
        <ele>13.5958</ele>
        <time>2013-05-03T16:38:55Z</time>
      </trkpt>
      <trkpt lat="59.950868" lon="17.8215323">
        <ele>14.0764</ele>
        <time>2013-05-03T16:38:56Z</time>
      </trkpt>
      <trkpt lat="59.9508785" lon="17.8214315">
        <ele>14.557</ele>
        <time>2013-05-03T16:38:57Z</time>
      </trkpt>
      <trkpt lat="59.9508895" lon="17.8213311">
        <ele>14.557</ele>
        <time>2013-05-03T16:38:58Z</time>
      </trkpt>
      <trkpt lat="59.9508989" lon="17.8212299">
        <ele>15.0377</ele>
        <time>2013-05-03T16:38:59Z</time>
      </trkpt>
      <trkpt lat="59.9509082" lon="17.8211269">
        <ele>15.5184</ele>
        <time>2013-05-03T16:39:00Z</time>
      </trkpt>
      <trkpt lat="59.9509195" lon="17.8210243">
        <ele>15.999</ele>
        <time>2013-05-03T16:39:01Z</time>
      </trkpt>
      <trkpt lat="59.9509292" lon="17.8209218">
        <ele>16.4797</ele>
        <time>2013-05-03T16:39:02Z</time>
      </trkpt>
      <trkpt lat="59.950936" lon="17.8208222">
        <ele>16.4797</ele>
        <time>2013-05-03T16:39:03Z</time>
      </trkpt>
      <trkpt lat="59.9509423" lon="17.820725">
        <ele>16.4797</ele>
        <time>2013-05-03T16:39:04Z</time>
      </trkpt>
      <trkpt lat="59.950949" lon="17.8206285">
        <ele>16.9604</ele>
        <time>2013-05-03T16:39:05Z</time>
      </trkpt>
      <trkpt lat="59.9509553" lon="17.8205305">
        <ele>16.9604</ele>
        <time>2013-05-03T16:39:06Z</time>
      </trkpt>
      <trkpt lat="59.9509609" lon="17.820432">
        <ele>17.4412</ele>
        <time>2013-05-03T16:39:07Z</time>
      </trkpt>
      <trkpt lat="59.9509661" lon="17.8203341">
        <ele>17.4412</ele>
        <time>2013-05-03T16:39:08Z</time>
      </trkpt>
      <trkpt lat="59.9509718" lon="17.8202385">
        <ele>17.9218</ele>
        <time>2013-05-03T16:39:09Z</time>
      </trkpt>
      <trkpt lat="59.9509768" lon="17.8201446">
        <ele>17.9218</ele>
        <time>2013-05-03T16:39:10Z</time>
      </trkpt>
      <trkpt lat="59.9509797" lon="17.8200516">
        <ele>18.4023</ele>
        <time>2013-05-03T16:39:11Z</time>
      </trkpt>
      <trkpt lat="59.950983" lon="17.8199594">
        <ele>18.4023</ele>
        <time>2013-05-03T16:39:12Z</time>
      </trkpt>
      <trkpt lat="59.9509874" lon="17.8198663">
        <ele>18.8831</ele>
        <time>2013-05-03T16:39:13Z</time>
      </trkpt>
      <trkpt lat="59.9509911" lon="17.8197702">
        <ele>18.8831</ele>
        <time>2013-05-03T16:39:14Z</time>
      </trkpt>
      <trkpt lat="59.9509931" lon="17.8196718">
        <ele>18.8831</ele>
        <time>2013-05-03T16:39:15Z</time>
      </trkpt>
      <trkpt lat="59.9509947" lon="17.8195739">
        <ele>19.3638</ele>
        <time>2013-05-03T16:39:16Z</time>
      </trkpt>
      <trkpt lat="59.9509952" lon="17.8194755">
        <ele>19.3638</ele>
        <time>2013-05-03T16:39:17Z</time>
      </trkpt>
      <trkpt lat="59.9509942" lon="17.8193759">
        <ele>19.8444</ele>
        <time>2013-05-03T16:39:18Z</time>
      </trkpt>
      <trkpt lat="59.9509949" lon="17.819276">
        <ele>19.8444</ele>
        <time>2013-05-03T16:39:19Z</time>
      </trkpt>
      <trkpt lat="59.9509978" lon="17.8191774">
        <ele>20.325</ele>
        <time>2013-05-03T16:39:20Z</time>
      </trkpt>
      <trkpt lat="59.9510011" lon="17.8190787">
        <ele>20.325</ele>
        <time>2013-05-03T16:39:21Z</time>
      </trkpt>
      <trkpt lat="59.9510039" lon="17.8189803">
        <ele>20.325</ele>
        <time>2013-05-03T16:39:22Z</time>
      </trkpt>
      <trkpt lat="59.9510085" lon="17.8188834">
        <ele>20.325</ele>
        <time>2013-05-03T16:39:23Z</time>
      </trkpt>
      <trkpt lat="59.951016" lon="17.8187886">
        <ele>20.8057</ele>
        <time>2013-05-03T16:39:24Z</time>
      </trkpt>
      <trkpt lat="59.9510253" lon="17.8186946">
        <ele>20.8057</ele>
        <time>2013-05-03T16:39:25Z</time>
      </trkpt>
      <trkpt lat="59.9510359" lon="17.8186026">
        <ele>20.8057</ele>
        <time>2013-05-03T16:39:26Z</time>
      </trkpt>
      <trkpt lat="59.9510462" lon="17.8185118">
        <ele>20.8057</ele>
        <time>2013-05-03T16:39:27Z</time>
      </trkpt>
      <trkpt lat="59.9510563" lon="17.8184212">
        <ele>20.8057</ele>
        <time>2013-05-03T16:39:28Z</time>
      </trkpt>
      <trkpt lat="59.9510656" lon="17.818329">
        <ele>21.2864</ele>
        <time>2013-05-03T16:39:29Z</time>
      </trkpt>
      <trkpt lat="59.9510745" lon="17.8182346">
        <ele>21.2864</ele>
        <time>2013-05-03T16:39:30Z</time>
      </trkpt>
      <trkpt lat="59.9510851" lon="17.8181395">
        <ele>21.2864</ele>
        <time>2013-05-03T16:39:31Z</time>
      </trkpt>
      <trkpt lat="59.9510956" lon="17.8180411">
        <ele>20.8057</ele>
        <time>2013-05-03T16:39:32Z</time>
      </trkpt>
      <trkpt lat="59.9511056" lon="17.8179374">
        <ele>21.2864</ele>
        <time>2013-05-03T16:39:33Z</time>
      </trkpt>
      <trkpt lat="59.9511065" lon="17.8178332">
        <ele>16.9604</ele>
        <time>2013-05-03T16:39:34Z</time>
      </trkpt>
      <trkpt lat="59.9511121" lon="17.8177316">
        <ele>15.0377</ele>
        <time>2013-05-03T16:39:35Z</time>
      </trkpt>
      <trkpt lat="59.9511184" lon="17.817633">
        <ele>13.5958</ele>
        <time>2013-05-03T16:39:36Z</time>
      </trkpt>
      <trkpt lat="59.9511253" lon="17.8175353">
        <ele>12.1538</ele>
        <time>2013-05-03T16:39:37Z</time>
      </trkpt>
      <trkpt lat="59.9511322" lon="17.8174353">
        <ele>11.1925</ele>
        <time>2013-05-03T16:39:38Z</time>
      </trkpt>
      <trkpt lat="59.9511405" lon="17.8173329">
        <ele>10.7118</ele>
        <time>2013-05-03T16:39:39Z</time>
      </trkpt>
      <trkpt lat="59.9511501" lon="17.8172292">
        <ele>10.2312</ele>
        <time>2013-05-03T16:39:40Z</time>
      </trkpt>
      <trkpt lat="59.9511594" lon="17.8171248">
        <ele>9.75061</ele>
        <time>2013-05-03T16:39:41Z</time>
      </trkpt>
      <trkpt lat="59.9511683" lon="17.8170205">
        <ele>9.2699</ele>
        <time>2013-05-03T16:39:42Z</time>
      </trkpt>
      <trkpt lat="59.9511771" lon="17.8169158">
        <ele>9.2699</ele>
        <time>2013-05-03T16:39:43Z</time>
      </trkpt>
      <trkpt lat="59.9511863" lon="17.8168113">
        <ele>9.2699</ele>
        <time>2013-05-03T16:39:44Z</time>
      </trkpt>
      <trkpt lat="59.9511961" lon="17.8167068">
        <ele>8.78918</ele>
        <time>2013-05-03T16:39:45Z</time>
      </trkpt>
      <trkpt lat="59.951206" lon="17.8166008">
        <ele>8.78918</ele>
        <time>2013-05-03T16:39:46Z</time>
      </trkpt>
      <trkpt lat="59.9512153" lon="17.8164933">
        <ele>8.78918</ele>
        <time>2013-05-03T16:39:47Z</time>
      </trkpt>
      <trkpt lat="59.9512237" lon="17.8163859">
        <ele>8.30859</ele>
        <time>2013-05-03T16:39:48Z</time>
      </trkpt>
      <trkpt lat="59.9512322" lon="17.8162783">
        <ele>8.30859</ele>
        <time>2013-05-03T16:39:49Z</time>
      </trkpt>
      <trkpt lat="59.9512407" lon="17.8161706">
        <ele>8.30859</ele>
        <time>2013-05-03T16:39:50Z</time>
      </trkpt>
      <trkpt lat="59.9512491" lon="17.8160633">
        <ele>8.78918</ele>
        <time>2013-05-03T16:39:51Z</time>
      </trkpt>
      <trkpt lat="59.9512574" lon="17.8159565">
        <ele>8.78918</ele>
        <time>2013-05-03T16:39:52Z</time>
      </trkpt>
      <trkpt lat="59.9512648" lon="17.8158499">
        <ele>8.78918</ele>
        <time>2013-05-03T16:39:53Z</time>
      </trkpt>
      <trkpt lat="59.9512705" lon="17.8157428">
        <ele>8.78918</ele>
        <time>2013-05-03T16:39:54Z</time>
      </trkpt>
      <trkpt lat="59.9512754" lon="17.8156353">
        <ele>8.78918</ele>
        <time>2013-05-03T16:39:55Z</time>
      </trkpt>
      <trkpt lat="59.9512803" lon="17.8155283">
        <ele>9.2699</ele>
        <time>2013-05-03T16:39:56Z</time>
      </trkpt>
      <trkpt lat="59.951285" lon="17.815422">
        <ele>9.2699</ele>
        <time>2013-05-03T16:39:57Z</time>
      </trkpt>
      <trkpt lat="59.9512894" lon="17.8153161">
        <ele>9.2699</ele>
        <time>2013-05-03T16:39:58Z</time>
      </trkpt>
      <trkpt lat="59.9512925" lon="17.81521">
        <ele>8.78918</ele>
        <time>2013-05-03T16:39:59Z</time>
      </trkpt>
      <trkpt lat="59.9512951" lon="17.8151033">
        <ele>8.78918</ele>
        <time>2013-05-03T16:40:00Z</time>
      </trkpt>
      <trkpt lat="59.9512977" lon="17.8149962">
        <ele>8.78918</ele>
        <time>2013-05-03T16:40:01Z</time>
      </trkpt>
      <trkpt lat="59.9513002" lon="17.8148885">
        <ele>8.78918</ele>
        <time>2013-05-03T16:40:02Z</time>
      </trkpt>
      <trkpt lat="59.9513021" lon="17.8147803">
        <ele>8.78918</ele>
        <time>2013-05-03T16:40:03Z</time>
      </trkpt>
      <trkpt lat="59.9513042" lon="17.8146705">
        <ele>8.78918</ele>
        <time>2013-05-03T16:40:04Z</time>
      </trkpt>
      <trkpt lat="59.9513062" lon="17.8145585">
        <ele>8.78918</ele>
        <time>2013-05-03T16:40:05Z</time>
      </trkpt>
      <trkpt lat="59.9513068" lon="17.8144454">
        <ele>8.78918</ele>
        <time>2013-05-03T16:40:06Z</time>
      </trkpt>
      <trkpt lat="59.9513075" lon="17.8143329">
        <ele>8.78918</ele>
        <time>2013-05-03T16:40:07Z</time>
      </trkpt>
      <trkpt lat="59.9513088" lon="17.8142223">
        <ele>8.78918</ele>
        <time>2013-05-03T16:40:08Z</time>
      </trkpt>
      <trkpt lat="59.95131" lon="17.814113">
        <ele>8.78918</ele>
        <time>2013-05-03T16:40:09Z</time>
      </trkpt>
      <trkpt lat="59.9513104" lon="17.8140045">
        <ele>8.78918</ele>
        <time>2013-05-03T16:40:10Z</time>
      </trkpt>
      <trkpt lat="59.9513096" lon="17.8138965">
        <ele>8.78918</ele>
        <time>2013-05-03T16:40:11Z</time>
      </trkpt>
      <trkpt lat="59.9513091" lon="17.8137892">
        <ele>9.2699</ele>
        <time>2013-05-03T16:40:12Z</time>
      </trkpt>
      <trkpt lat="59.9513099" lon="17.813681">
        <ele>9.2699</ele>
        <time>2013-05-03T16:40:13Z</time>
      </trkpt>
      <trkpt lat="59.9513105" lon="17.8135705">
        <ele>9.2699</ele>
        <time>2013-05-03T16:40:14Z</time>
      </trkpt>
      <trkpt lat="59.9513111" lon="17.8134581">
        <ele>9.2699</ele>
        <time>2013-05-03T16:40:15Z</time>
      </trkpt>
      <trkpt lat="59.9513119" lon="17.8133448">
        <ele>9.2699</ele>
        <time>2013-05-03T16:40:16Z</time>
      </trkpt>
      <trkpt lat="59.9513128" lon="17.8132309">
        <ele>9.75061</ele>
        <time>2013-05-03T16:40:17Z</time>
      </trkpt>
      <trkpt lat="59.9513131" lon="17.8131163">
        <ele>9.75061</ele>
        <time>2013-05-03T16:40:18Z</time>
      </trkpt>
      <trkpt lat="59.9513128" lon="17.8130004">
        <ele>10.2312</ele>
        <time>2013-05-03T16:40:19Z</time>
      </trkpt>
      <trkpt lat="59.9513131" lon="17.812883">
        <ele>10.2312</ele>
        <time>2013-05-03T16:40:20Z</time>
      </trkpt>
      <trkpt lat="59.9513147" lon="17.8127675">
        <ele>10.2312</ele>
        <time>2013-05-03T16:40:21Z</time>
      </trkpt>
      <trkpt lat="59.9513167" lon="17.8126547">
        <ele>10.7118</ele>
        <time>2013-05-03T16:40:22Z</time>
      </trkpt>
      <trkpt lat="59.9513177" lon="17.8125434">
        <ele>10.7118</ele>
        <time>2013-05-03T16:40:23Z</time>
      </trkpt>
      <trkpt lat="59.951318" lon="17.8124331">
        <ele>10.7118</ele>
        <time>2013-05-03T16:40:24Z</time>
      </trkpt>
      <trkpt lat="59.9513189" lon="17.8123197">
        <ele>10.7118</ele>
        <time>2013-05-03T16:40:25Z</time>
      </trkpt>
      <trkpt lat="59.951321" lon="17.812206">
        <ele>11.1925</ele>
        <time>2013-05-03T16:40:26Z</time>
      </trkpt>
      <trkpt lat="59.9513241" lon="17.812092">
        <ele>11.1925</ele>
        <time>2013-05-03T16:40:27Z</time>
      </trkpt>
      <trkpt lat="59.9513282" lon="17.8119772">
        <ele>11.6732</ele>
        <time>2013-05-03T16:40:28Z</time>
      </trkpt>
      <trkpt lat="59.9513329" lon="17.8118623">
        <ele>11.6732</ele>
        <time>2013-05-03T16:40:29Z</time>
      </trkpt>
      <trkpt lat="59.9513407" lon="17.8117497">
        <ele>11.6732</ele>
        <time>2013-05-03T16:40:30Z</time>
      </trkpt>
      <trkpt lat="59.9513516" lon="17.811641">
        <ele>11.6732</ele>
        <time>2013-05-03T16:40:31Z</time>
      </trkpt>
      <trkpt lat="59.9513634" lon="17.8115317">
        <ele>12.1538</ele>
        <time>2013-05-03T16:40:32Z</time>
      </trkpt>
      <trkpt lat="59.9513755" lon="17.811423">
        <ele>11.6732</ele>
        <time>2013-05-03T16:40:33Z</time>
      </trkpt>
      <trkpt lat="59.9513894" lon="17.8113137">
        <ele>12.1538</ele>
        <time>2013-05-03T16:40:34Z</time>
      </trkpt>
      <trkpt lat="59.951404" lon="17.811205">
        <ele>12.1538</ele>
        <time>2013-05-03T16:40:35Z</time>
      </trkpt>
      <trkpt lat="59.9514193" lon="17.8110957">
        <ele>12.1538</ele>
        <time>2013-05-03T16:40:36Z</time>
      </trkpt>
      <trkpt lat="59.9514356" lon="17.8109877">
        <ele>11.6732</ele>
        <time>2013-05-03T16:40:37Z</time>
      </trkpt>
      <trkpt lat="59.9514546" lon="17.8108799">
        <ele>12.6344</ele>
        <time>2013-05-03T16:40:38Z</time>
      </trkpt>
      <trkpt lat="59.9514727" lon="17.810778">
        <ele>13.1151</ele>
        <time>2013-05-03T16:40:39Z</time>
      </trkpt>
      <trkpt lat="59.9514917" lon="17.8106817">
        <ele>13.1151</ele>
        <time>2013-05-03T16:40:40Z</time>
      </trkpt>
      <trkpt lat="59.9515111" lon="17.8105898">
        <ele>13.5958</ele>
        <time>2013-05-03T16:40:41Z</time>
      </trkpt>
      <trkpt lat="59.951529" lon="17.810502">
        <ele>13.1151</ele>
        <time>2013-05-03T16:40:42Z</time>
      </trkpt>
      <trkpt lat="59.9515468" lon="17.810416">
        <ele>13.1151</ele>
        <time>2013-05-03T16:40:43Z</time>
      </trkpt>
      <trkpt lat="59.9515635" lon="17.8103344">
        <ele>13.1151</ele>
        <time>2013-05-03T16:40:44Z</time>
      </trkpt>
      <trkpt lat="59.9515779" lon="17.8102578">
        <ele>11.6732</ele>
        <time>2013-05-03T16:40:45Z</time>
      </trkpt>
      <trkpt lat="59.951591" lon="17.8101864">
        <ele>9.75061</ele>
        <time>2013-05-03T16:40:46Z</time>
      </trkpt>
      <trkpt lat="59.9516095" lon="17.8101181">
        <ele>10.2312</ele>
        <time>2013-05-03T16:40:47Z</time>
      </trkpt>
      <trkpt lat="59.9516272" lon="17.8100513">
        <ele>10.7118</ele>
        <time>2013-05-03T16:40:48Z</time>
      </trkpt>
      <trkpt lat="59.9516441" lon="17.8099913">
        <ele>10.7118</ele>
        <time>2013-05-03T16:40:49Z</time>
      </trkpt>
      <trkpt lat="59.951659" lon="17.8099332">
        <ele>10.7118</ele>
        <time>2013-05-03T16:40:50Z</time>
      </trkpt>
      <trkpt lat="59.9516692" lon="17.8098762">
        <ele>10.7118</ele>
        <time>2013-05-03T16:40:51Z</time>
      </trkpt>
      <trkpt lat="59.9516768" lon="17.8098213">
        <ele>10.2312</ele>
        <time>2013-05-03T16:40:52Z</time>
      </trkpt>
      <trkpt lat="59.9516851" lon="17.8097699">
        <ele>10.2312</ele>
        <time>2013-05-03T16:40:53Z</time>
      </trkpt>
      <trkpt lat="59.9516981" lon="17.8097253">
        <ele>9.75061</ele>
        <time>2013-05-03T16:40:54Z</time>
      </trkpt>
      <trkpt lat="59.9517144" lon="17.8096882">
        <ele>9.75061</ele>
        <time>2013-05-03T16:40:55Z</time>
      </trkpt>
      <trkpt lat="59.9517307" lon="17.809655">
        <ele>9.2699</ele>
        <time>2013-05-03T16:40:56Z</time>
      </trkpt>
      <trkpt lat="59.9517471" lon="17.8096235">
        <ele>9.2699</ele>
        <time>2013-05-03T16:40:57Z</time>
      </trkpt>
      <trkpt lat="59.9517601" lon="17.8095893">
        <ele>9.2699</ele>
        <time>2013-05-03T16:40:58Z</time>
      </trkpt>
      <trkpt lat="59.9517712" lon="17.8095534">
        <ele>9.75061</ele>
        <time>2013-05-03T16:40:59Z</time>
      </trkpt>
      <trkpt lat="59.9517831" lon="17.8095208">
        <ele>9.75061</ele>
        <time>2013-05-03T16:41:00Z</time>
      </trkpt>
      <trkpt lat="59.9517943" lon="17.8094898">
        <ele>9.75061</ele>
        <time>2013-05-03T16:41:01Z</time>
      </trkpt>
      <trkpt lat="59.9518037" lon="17.8094538">
        <ele>9.2699</ele>
        <time>2013-05-03T16:41:02Z</time>
      </trkpt>
      <trkpt lat="59.9518137" lon="17.8094094">
        <ele>9.2699</ele>
        <time>2013-05-03T16:41:03Z</time>
      </trkpt>
      <trkpt lat="59.9518268" lon="17.8093582">
        <ele>8.78918</ele>
        <time>2013-05-03T16:41:04Z</time>
      </trkpt>
      <trkpt lat="59.9518426" lon="17.8092977">
        <ele>8.78918</ele>
        <time>2013-05-03T16:41:05Z</time>
      </trkpt>
      <trkpt lat="59.9518596" lon="17.8092344">
        <ele>8.30859</ele>
        <time>2013-05-03T16:41:06Z</time>
      </trkpt>
      <trkpt lat="59.9518782" lon="17.8091682">
        <ele>8.30859</ele>
        <time>2013-05-03T16:41:07Z</time>
      </trkpt>
      <trkpt lat="59.9518979" lon="17.8090979">
        <ele>8.78918</ele>
        <time>2013-05-03T16:41:08Z</time>
      </trkpt>
      <trkpt lat="59.9519177" lon="17.8090339">
        <ele>9.2699</ele>
        <time>2013-05-03T16:41:09Z</time>
      </trkpt>
      <trkpt lat="59.9519362" lon="17.8089664">
        <ele>9.2699</ele>
        <time>2013-05-03T16:41:10Z</time>
      </trkpt>
      <trkpt lat="59.9519548" lon="17.8088972">
        <ele>9.2699</ele>
        <time>2013-05-03T16:41:11Z</time>
      </trkpt>
      <trkpt lat="59.9519742" lon="17.8088262">
        <ele>9.75061</ele>
        <time>2013-05-03T16:41:12Z</time>
      </trkpt>
      <trkpt lat="59.9519936" lon="17.8087498">
        <ele>9.75061</ele>
        <time>2013-05-03T16:41:13Z</time>
      </trkpt>
      <trkpt lat="59.9520119" lon="17.8086712">
        <ele>9.2699</ele>
        <time>2013-05-03T16:41:14Z</time>
      </trkpt>
      <trkpt lat="59.9520335" lon="17.8085863">
        <ele>9.2699</ele>
        <time>2013-05-03T16:41:15Z</time>
      </trkpt>
      <trkpt lat="59.9520568" lon="17.8084984">
        <ele>8.78918</ele>
        <time>2013-05-03T16:41:16Z</time>
      </trkpt>
      <trkpt lat="59.9520814" lon="17.8084036">
        <ele>9.2699</ele>
        <time>2013-05-03T16:41:17Z</time>
      </trkpt>
      <trkpt lat="59.9521043" lon="17.8083092">
        <ele>9.75061</ele>
        <time>2013-05-03T16:41:18Z</time>
      </trkpt>
      <trkpt lat="59.952127" lon="17.8082248">
        <ele>9.75061</ele>
        <time>2013-05-03T16:41:19Z</time>
      </trkpt>
      <trkpt lat="59.9521492" lon="17.8081466">
        <ele>9.75061</ele>
        <time>2013-05-03T16:41:20Z</time>
      </trkpt>
      <trkpt lat="59.9521695" lon="17.8080745">
        <ele>9.75061</ele>
        <time>2013-05-03T16:41:21Z</time>
      </trkpt>
      <trkpt lat="59.9521891" lon="17.8080112">
        <ele>9.2699</ele>
        <time>2013-05-03T16:41:22Z</time>
      </trkpt>
      <trkpt lat="59.9522086" lon="17.8079497">
        <ele>8.78918</ele>
        <time>2013-05-03T16:41:23Z</time>
      </trkpt>
      <trkpt lat="59.9522294" lon="17.8078956">
        <ele>9.2699</ele>
        <time>2013-05-03T16:41:24Z</time>
      </trkpt>
      <trkpt lat="59.9522509" lon="17.8078497">
        <ele>9.2699</ele>
        <time>2013-05-03T16:41:25Z</time>
      </trkpt>
      <trkpt lat="59.9522704" lon="17.8078086">
        <ele>9.2699</ele>
        <time>2013-05-03T16:41:26Z</time>
      </trkpt>
      <trkpt lat="59.9522833" lon="17.8077747">
        <ele>9.2699</ele>
        <time>2013-05-03T16:41:27Z</time>
      </trkpt>
      <trkpt lat="59.952289" lon="17.8077548">
        <ele>9.2699</ele>
        <time>2013-05-03T16:41:28Z</time>
      </trkpt>
      <trkpt lat="59.9522948" lon="17.807745">
        <ele>12.1538</ele>
        <time>2013-05-03T16:41:29Z</time>
      </trkpt>
      <trkpt lat="59.9522968" lon="17.8077444">
        <ele>12.6344</ele>
        <time>2013-05-03T16:41:30Z</time>
      </trkpt>
      <trkpt lat="59.9523014" lon="17.8077403">
        <ele>14.557</ele>
        <time>2013-05-03T16:41:31Z</time>
      </trkpt>
      <trkpt lat="59.9523035" lon="17.807743">
        <ele>15.5184</ele>
        <time>2013-05-03T16:41:32Z</time>
      </trkpt>
      <trkpt lat="59.9523053" lon="17.8077454">
        <ele>16.4797</ele>
        <time>2013-05-03T16:41:33Z</time>
      </trkpt>
      <trkpt lat="59.9523065" lon="17.8077472">
        <ele>16.9604</ele>
        <time>2013-05-03T16:41:34Z</time>
      </trkpt>
      <trkpt lat="59.9523072" lon="17.8077492">
        <ele>16.9604</ele>
        <time>2013-05-03T16:41:35Z</time>
      </trkpt>
      <trkpt lat="59.9523078" lon="17.8077513">
        <ele>17.4412</ele>
        <time>2013-05-03T16:41:36Z</time>
      </trkpt>
      <trkpt lat="59.9523086" lon="17.8077518">
        <ele>17.4412</ele>
        <time>2013-05-03T16:41:37Z</time>
      </trkpt>
      <trkpt lat="59.9523093" lon="17.8077512">
        <ele>17.9218</ele>
        <time>2013-05-03T16:41:38Z</time>
      </trkpt>
      <trkpt lat="59.9523102" lon="17.8077512">
        <ele>17.9218</ele>
        <time>2013-05-03T16:41:39Z</time>
      </trkpt>
      <trkpt lat="59.9523103" lon="17.8077498">
        <ele>18.4023</ele>
        <time>2013-05-03T16:41:40Z</time>
      </trkpt>
      <trkpt lat="59.9523098" lon="17.8077492">
        <ele>18.4023</ele>
        <time>2013-05-03T16:41:41Z</time>
      </trkpt>
      <trkpt lat="59.9523124" lon="17.8077467">
        <ele>19.8444</ele>
        <time>2013-05-03T16:41:42Z</time>
      </trkpt>
      <trkpt lat="59.9523141" lon="17.8077454">
        <ele>20.8057</ele>
        <time>2013-05-03T16:41:43Z</time>
      </trkpt>
      <trkpt lat="59.9523151" lon="17.807744">
        <ele>21.767</ele>
        <time>2013-05-03T16:41:44Z</time>
      </trkpt>
      <trkpt lat="59.9523161" lon="17.8077434">
        <ele>22.7283</ele>
        <time>2013-05-03T16:41:45Z</time>
      </trkpt>
      <trkpt lat="59.9523174" lon="17.807743">
        <ele>23.209</ele>
        <time>2013-05-03T16:41:46Z</time>
      </trkpt>
      <trkpt lat="59.9523184" lon="17.8077419">
        <ele>23.6896</ele>
        <time>2013-05-03T16:41:47Z</time>
      </trkpt>
      <trkpt lat="59.9523197" lon="17.8077409">
        <ele>24.1703</ele>
        <time>2013-05-03T16:41:48Z</time>
      </trkpt>
      <trkpt lat="59.9523242" lon="17.8077387">
        <ele>24.651</ele>
        <time>2013-05-03T16:41:49Z</time>
      </trkpt>
      <trkpt lat="59.952328" lon="17.8077332">
        <ele>25.6123</ele>
        <time>2013-05-03T16:41:50Z</time>
      </trkpt>
      <trkpt lat="59.9523305" lon="17.807728">
        <ele>26.0929</ele>
        <time>2013-05-03T16:41:51Z</time>
      </trkpt>
      <trkpt lat="59.952332" lon="17.8077243">
        <ele>26.5736</ele>
        <time>2013-05-03T16:41:52Z</time>
      </trkpt>
      <trkpt lat="59.9523341" lon="17.8077219">
        <ele>27.0543</ele>
        <time>2013-05-03T16:41:53Z</time>
      </trkpt>
      <trkpt lat="59.9523355" lon="17.8077197">
        <ele>27.0543</ele>
        <time>2013-05-03T16:41:54Z</time>
      </trkpt>
      <trkpt lat="59.9523363" lon="17.8077174">
        <ele>27.5349</ele>
        <time>2013-05-03T16:41:55Z</time>
      </trkpt>
      <trkpt lat="59.9523374" lon="17.8077159">
        <ele>28.0155</ele>
        <time>2013-05-03T16:41:56Z</time>
      </trkpt>
      <trkpt lat="59.9523364" lon="17.8077182">
        <ele>28.0155</ele>
        <time>2013-05-03T16:41:57Z</time>
      </trkpt>
      <trkpt lat="59.9523357" lon="17.8077198">
        <ele>27.5349</ele>
        <time>2013-05-03T16:41:58Z</time>
      </trkpt>
      <trkpt lat="59.9523357" lon="17.8077201">
        <ele>28.0155</ele>
        <time>2013-05-03T16:41:59Z</time>
      </trkpt>
      <trkpt lat="59.9523384" lon="17.8077118">
        <ele>28.0155</ele>
        <time>2013-05-03T16:42:00Z</time>
      </trkpt>
      <trkpt lat="59.9523435" lon="17.8076943">
        <ele>28.0155</ele>
        <time>2013-05-03T16:42:01Z</time>
      </trkpt>
      <trkpt lat="59.952347" lon="17.8076722">
        <ele>28.0155</ele>
        <time>2013-05-03T16:42:02Z</time>
      </trkpt>
      <trkpt lat="59.95235" lon="17.8076447">
        <ele>28.0155</ele>
        <time>2013-05-03T16:42:03Z</time>
      </trkpt>
      <trkpt lat="59.9523528" lon="17.8076099">
        <ele>28.0155</ele>
        <time>2013-05-03T16:42:04Z</time>
      </trkpt>
      <trkpt lat="59.9523563" lon="17.8075688">
        <ele>28.0155</ele>
        <time>2013-05-03T16:42:05Z</time>
      </trkpt>
      <trkpt lat="59.9523618" lon="17.807527">
        <ele>28.0155</ele>
        <time>2013-05-03T16:42:06Z</time>
      </trkpt>
      <trkpt lat="59.9523695" lon="17.8074835">
        <ele>28.0155</ele>
        <time>2013-05-03T16:42:07Z</time>
      </trkpt>
      <trkpt lat="59.9523794" lon="17.807437">
        <ele>28.0155</ele>
        <time>2013-05-03T16:42:08Z</time>
      </trkpt>
      <trkpt lat="59.9523915" lon="17.807396">
        <ele>28.0155</ele>
        <time>2013-05-03T16:42:09Z</time>
      </trkpt>
      <trkpt lat="59.9524042" lon="17.8073571">
        <ele>28.0155</ele>
        <time>2013-05-03T16:42:10Z</time>
      </trkpt>
      <trkpt lat="59.9524166" lon="17.8073181">
        <ele>27.5349</ele>
        <time>2013-05-03T16:42:11Z</time>
      </trkpt>
      <trkpt lat="59.9524295" lon="17.8072778">
        <ele>27.5349</ele>
        <time>2013-05-03T16:42:12Z</time>
      </trkpt>
      <trkpt lat="59.9524408" lon="17.8072411">
        <ele>27.5349</ele>
        <time>2013-05-03T16:42:13Z</time>
      </trkpt>
      <trkpt lat="59.9524497" lon="17.807202">
        <ele>27.5349</ele>
        <time>2013-05-03T16:42:14Z</time>
      </trkpt>
      <trkpt lat="59.9524597" lon="17.8071624">
        <ele>27.5349</ele>
        <time>2013-05-03T16:42:15Z</time>
      </trkpt>
      <trkpt lat="59.9524708" lon="17.8071251">
        <ele>27.0543</ele>
        <time>2013-05-03T16:42:16Z</time>
      </trkpt>
      <trkpt lat="59.9524812" lon="17.8070837">
        <ele>26.5736</ele>
        <time>2013-05-03T16:42:17Z</time>
      </trkpt>
      <trkpt lat="59.952494" lon="17.8070349">
        <ele>26.5736</ele>
        <time>2013-05-03T16:42:18Z</time>
      </trkpt>
      <trkpt lat="59.9525014" lon="17.8069905">
        <ele>24.651</ele>
        <time>2013-05-03T16:42:19Z</time>
      </trkpt>
      <trkpt lat="59.9525096" lon="17.8069441">
        <ele>22.7283</ele>
        <time>2013-05-03T16:42:20Z</time>
      </trkpt>
      <trkpt lat="59.9525195" lon="17.8068952">
        <ele>21.2864</ele>
        <time>2013-05-03T16:42:21Z</time>
      </trkpt>
      <trkpt lat="59.952533" lon="17.806842">
        <ele>20.8057</ele>
        <time>2013-05-03T16:42:22Z</time>
      </trkpt>
      <trkpt lat="59.9525455" lon="17.8067811">
        <ele>20.8057</ele>
        <time>2013-05-03T16:42:23Z</time>
      </trkpt>
      <trkpt lat="59.9525575" lon="17.8067153">
        <ele>20.8057</ele>
        <time>2013-05-03T16:42:24Z</time>
      </trkpt>
      <trkpt lat="59.9525704" lon="17.8066472">
        <ele>20.8057</ele>
        <time>2013-05-03T16:42:25Z</time>
      </trkpt>
      <trkpt lat="59.9525855" lon="17.8065774">
        <ele>20.8057</ele>
        <time>2013-05-03T16:42:26Z</time>
      </trkpt>
      <trkpt lat="59.9526024" lon="17.806505">
        <ele>21.2864</ele>
        <time>2013-05-03T16:42:27Z</time>
      </trkpt>
      <trkpt lat="59.952615" lon="17.8064298">
        <ele>19.3638</ele>
        <time>2013-05-03T16:42:28Z</time>
      </trkpt>
      <trkpt lat="59.9526278" lon="17.8063512">
        <ele>17.9218</ele>
        <time>2013-05-03T16:42:29Z</time>
      </trkpt>
      <trkpt lat="59.9526433" lon="17.8062688">
        <ele>17.9218</ele>
        <time>2013-05-03T16:42:30Z</time>
      </trkpt>
      <trkpt lat="59.952658" lon="17.8061837">
        <ele>17.9218</ele>
        <time>2013-05-03T16:42:31Z</time>
      </trkpt>
      <trkpt lat="59.9526722" lon="17.8060947">
        <ele>18.4023</ele>
        <time>2013-05-03T16:42:32Z</time>
      </trkpt>
      <trkpt lat="59.9526823" lon="17.8060056">
        <ele>16.4797</ele>
        <time>2013-05-03T16:42:33Z</time>
      </trkpt>
      <trkpt lat="59.9526933" lon="17.8059129">
        <ele>15.5184</ele>
        <time>2013-05-03T16:42:34Z</time>
      </trkpt>
      <trkpt lat="59.9527051" lon="17.8058184">
        <ele>14.557</ele>
        <time>2013-05-03T16:42:35Z</time>
      </trkpt>
      <trkpt lat="59.952718" lon="17.8057236">
        <ele>14.0764</ele>
        <time>2013-05-03T16:42:36Z</time>
      </trkpt>
      <trkpt lat="59.9527316" lon="17.8056264">
        <ele>13.5958</ele>
        <time>2013-05-03T16:42:37Z</time>
      </trkpt>
      <trkpt lat="59.9527434" lon="17.8055307">
        <ele>12.6344</ele>
        <time>2013-05-03T16:42:38Z</time>
      </trkpt>
      <trkpt lat="59.9527534" lon="17.805438">
        <ele>12.1538</ele>
        <time>2013-05-03T16:42:39Z</time>
      </trkpt>
      <trkpt lat="59.9527632" lon="17.805345">
        <ele>12.1538</ele>
        <time>2013-05-03T16:42:40Z</time>
      </trkpt>
      <trkpt lat="59.9527714" lon="17.8052549">
        <ele>11.1925</ele>
        <time>2013-05-03T16:42:41Z</time>
      </trkpt>
      <trkpt lat="59.9527821" lon="17.8051647">
        <ele>10.7118</ele>
        <time>2013-05-03T16:42:42Z</time>
      </trkpt>
      <trkpt lat="59.9527969" lon="17.8050647">
        <ele>11.6732</ele>
        <time>2013-05-03T16:42:43Z</time>
      </trkpt>
      <trkpt lat="59.9528114" lon="17.8049624">
        <ele>11.6732</ele>
        <time>2013-05-03T16:42:44Z</time>
      </trkpt>
      <trkpt lat="59.9528248" lon="17.8048633">
        <ele>11.1925</ele>
        <time>2013-05-03T16:42:45Z</time>
      </trkpt>
      <trkpt lat="59.9528407" lon="17.804769">
        <ele>11.6732</ele>
        <time>2013-05-03T16:42:46Z</time>
      </trkpt>
      <trkpt lat="59.9528558" lon="17.8046734">
        <ele>12.1538</ele>
        <time>2013-05-03T16:42:47Z</time>
      </trkpt>
      <trkpt lat="59.9528734" lon="17.8045873">
        <ele>11.6732</ele>
        <time>2013-05-03T16:42:48Z</time>
      </trkpt>
      <trkpt lat="59.9528948" lon="17.8045019">
        <ele>11.6732</ele>
        <time>2013-05-03T16:42:49Z</time>
      </trkpt>
      <trkpt lat="59.9529211" lon="17.8044174">
        <ele>11.1925</ele>
        <time>2013-05-03T16:42:50Z</time>
      </trkpt>
      <trkpt lat="59.9529491" lon="17.8043412">
        <ele>10.7118</ele>
        <time>2013-05-03T16:42:51Z</time>
      </trkpt>
      <trkpt lat="59.9529801" lon="17.8042667">
        <ele>10.2312</ele>
        <time>2013-05-03T16:42:52Z</time>
      </trkpt>
      <trkpt lat="59.9530134" lon="17.8041916">
        <ele>10.7118</ele>
        <time>2013-05-03T16:42:53Z</time>
      </trkpt>
      <trkpt lat="59.953048" lon="17.8041247">
        <ele>10.7118</ele>
        <time>2013-05-03T16:42:54Z</time>
      </trkpt>
      <trkpt lat="59.9530812" lon="17.8040636">
        <ele>10.7118</ele>
        <time>2013-05-03T16:42:55Z</time>
      </trkpt>
      <trkpt lat="59.9531138" lon="17.8039932">
        <ele>11.1925</ele>
        <time>2013-05-03T16:42:56Z</time>
      </trkpt>
      <trkpt lat="59.9531474" lon="17.8039331">
        <ele>11.1925</ele>
        <time>2013-05-03T16:42:57Z</time>
      </trkpt>
      <trkpt lat="59.9531809" lon="17.8038719">
        <ele>11.6732</ele>
        <time>2013-05-03T16:42:58Z</time>
      </trkpt>
      <trkpt lat="59.9532138" lon="17.8038082">
        <ele>11.6732</ele>
        <time>2013-05-03T16:42:59Z</time>
      </trkpt>
      <trkpt lat="59.953245" lon="17.8037419">
        <ele>12.1538</ele>
        <time>2013-05-03T16:43:00Z</time>
      </trkpt>
      <trkpt lat="59.9532759" lon="17.8036741">
        <ele>12.1538</ele>
        <time>2013-05-03T16:43:01Z</time>
      </trkpt>
      <trkpt lat="59.9533049" lon="17.8036041">
        <ele>12.1538</ele>
        <time>2013-05-03T16:43:02Z</time>
      </trkpt>
      <trkpt lat="59.9533309" lon="17.8035278">
        <ele>12.6344</ele>
        <time>2013-05-03T16:43:03Z</time>
      </trkpt>
      <trkpt lat="59.9533583" lon="17.8034507">
        <ele>12.6344</ele>
        <time>2013-05-03T16:43:04Z</time>
      </trkpt>
      <trkpt lat="59.9533882" lon="17.8033793">
        <ele>12.6344</ele>
        <time>2013-05-03T16:43:05Z</time>
      </trkpt>
      <trkpt lat="59.9534168" lon="17.8033069">
        <ele>13.1151</ele>
        <time>2013-05-03T16:43:06Z</time>
      </trkpt>
      <trkpt lat="59.9534407" lon="17.8032186">
        <ele>13.1151</ele>
        <time>2013-05-03T16:43:07Z</time>
      </trkpt>
      <trkpt lat="59.9534629" lon="17.803133">
        <ele>13.1151</ele>
        <time>2013-05-03T16:43:08Z</time>
      </trkpt>
      <trkpt lat="59.9534857" lon="17.8030498">
        <ele>13.1151</ele>
        <time>2013-05-03T16:43:09Z</time>
      </trkpt>
      <trkpt lat="59.9535095" lon="17.8029663">
        <ele>13.5958</ele>
        <time>2013-05-03T16:43:10Z</time>
      </trkpt>
      <trkpt lat="59.9535291" lon="17.8028819">
        <ele>13.5958</ele>
        <time>2013-05-03T16:43:11Z</time>
      </trkpt>
      <trkpt lat="59.9535495" lon="17.8027907">
        <ele>13.5958</ele>
        <time>2013-05-03T16:43:12Z</time>
      </trkpt>
      <trkpt lat="59.9535686" lon="17.8027">
        <ele>13.5958</ele>
        <time>2013-05-03T16:43:13Z</time>
      </trkpt>
      <trkpt lat="59.9535891" lon="17.8026102">
        <ele>13.5958</ele>
        <time>2013-05-03T16:43:14Z</time>
      </trkpt>
      <trkpt lat="59.9536099" lon="17.8025132">
        <ele>13.5958</ele>
        <time>2013-05-03T16:43:15Z</time>
      </trkpt>
      <trkpt lat="59.9536282" lon="17.8024107">
        <ele>13.5958</ele>
        <time>2013-05-03T16:43:16Z</time>
      </trkpt>
      <trkpt lat="59.9536467" lon="17.802306">
        <ele>13.5958</ele>
        <time>2013-05-03T16:43:17Z</time>
      </trkpt>
      <trkpt lat="59.9536695" lon="17.8022023">
        <ele>13.1151</ele>
        <time>2013-05-03T16:43:18Z</time>
      </trkpt>
      <trkpt lat="59.9536955" lon="17.8020919">
        <ele>13.5958</ele>
        <time>2013-05-03T16:43:19Z</time>
      </trkpt>
      <trkpt lat="59.953726" lon="17.8019826">
        <ele>13.5958</ele>
        <time>2013-05-03T16:43:20Z</time>
      </trkpt>
      <trkpt lat="59.9537617" lon="17.8018684">
        <ele>13.1151</ele>
        <time>2013-05-03T16:43:21Z</time>
      </trkpt>
      <trkpt lat="59.953799" lon="17.8017542">
        <ele>13.1151</ele>
        <time>2013-05-03T16:43:22Z</time>
      </trkpt>
      <trkpt lat="59.9538375" lon="17.8016424">
        <ele>13.1151</ele>
        <time>2013-05-03T16:43:23Z</time>
      </trkpt>
      <trkpt lat="59.9538779" lon="17.8015319">
        <ele>12.6344</ele>
        <time>2013-05-03T16:43:24Z</time>
      </trkpt>
      <trkpt lat="59.9539198" lon="17.8014207">
        <ele>12.6344</ele>
        <time>2013-05-03T16:43:25Z</time>
      </trkpt>
      <trkpt lat="59.9539643" lon="17.8013114">
        <ele>12.1538</ele>
        <time>2013-05-03T16:43:26Z</time>
      </trkpt>
      <trkpt lat="59.9540199" lon="17.801167">
        <ele>12.1538</ele>
        <time>2013-05-03T16:43:27Z</time>
      </trkpt>
      <trkpt lat="59.9540675" lon="17.8010447">
        <ele>12.1538</ele>
        <time>2013-05-03T16:43:28Z</time>
      </trkpt>
      <trkpt lat="59.9541142" lon="17.8009292">
        <ele>12.1538</ele>
        <time>2013-05-03T16:43:29Z</time>
      </trkpt>
      <trkpt lat="59.9541575" lon="17.8008136">
        <ele>12.1538</ele>
        <time>2013-05-03T16:43:30Z</time>
      </trkpt>
      <trkpt lat="59.9542051" lon="17.8006998">
        <ele>12.1538</ele>
        <time>2013-05-03T16:43:31Z</time>
      </trkpt>
      <trkpt lat="59.9542487" lon="17.8005883">
        <ele>12.1538</ele>
        <time>2013-05-03T16:43:32Z</time>
      </trkpt>
      <trkpt lat="59.9542907" lon="17.8004741">
        <ele>11.6732</ele>
        <time>2013-05-03T16:43:33Z</time>
      </trkpt>
      <trkpt lat="59.9543331" lon="17.8003329">
        <ele>11.6732</ele>
        <time>2013-05-03T16:43:34Z</time>
      </trkpt>
      <trkpt lat="59.9543793" lon="17.8002121">
        <ele>11.6732</ele>
        <time>2013-05-03T16:43:35Z</time>
      </trkpt>
      <trkpt lat="59.9544274" lon="17.8000963">
        <ele>12.1538</ele>
        <time>2013-05-03T16:43:36Z</time>
      </trkpt>
      <trkpt lat="59.9544766" lon="17.7999739">
        <ele>12.1538</ele>
        <time>2013-05-03T16:43:37Z</time>
      </trkpt>
      <trkpt lat="59.9545259" lon="17.7998511">
        <ele>12.1538</ele>
        <time>2013-05-03T16:43:38Z</time>
      </trkpt>
      <trkpt lat="59.9545767" lon="17.7997339">
        <ele>11.6732</ele>
        <time>2013-05-03T16:43:39Z</time>
      </trkpt>
      <trkpt lat="59.9546295" lon="17.7996201">
        <ele>11.6732</ele>
        <time>2013-05-03T16:43:40Z</time>
      </trkpt>
      <trkpt lat="59.9546844" lon="17.7995135">
        <ele>12.1538</ele>
        <time>2013-05-03T16:43:41Z</time>
      </trkpt>
      <trkpt lat="59.9547367" lon="17.7994037">
        <ele>13.1151</ele>
        <time>2013-05-03T16:43:42Z</time>
      </trkpt>
      <trkpt lat="59.9547883" lon="17.7992987">
        <ele>14.0764</ele>
        <time>2013-05-03T16:43:43Z</time>
      </trkpt>
      <trkpt lat="59.9548382" lon="17.7991947">
        <ele>15.0377</ele>
        <time>2013-05-03T16:43:44Z</time>
      </trkpt>
      <trkpt lat="59.9548864" lon="17.7990959">
        <ele>15.5184</ele>
        <time>2013-05-03T16:43:45Z</time>
      </trkpt>
      <trkpt lat="59.9549344" lon="17.7990001">
        <ele>15.999</ele>
        <time>2013-05-03T16:43:46Z</time>
      </trkpt>
      <trkpt lat="59.9549834" lon="17.7989113">
        <ele>16.4797</ele>
        <time>2013-05-03T16:43:47Z</time>
      </trkpt>
      <trkpt lat="59.9550331" lon="17.798823">
        <ele>16.9604</ele>
        <time>2013-05-03T16:43:48Z</time>
      </trkpt>
      <trkpt lat="59.9550807" lon="17.7987301">
        <ele>16.9604</ele>
        <time>2013-05-03T16:43:49Z</time>
      </trkpt>
      <trkpt lat="59.9551259" lon="17.7986319">
        <ele>16.9604</ele>
        <time>2013-05-03T16:43:50Z</time>
      </trkpt>
      <trkpt lat="59.9551696" lon="17.7985305">
        <ele>16.9604</ele>
        <time>2013-05-03T16:43:51Z</time>
      </trkpt>
      <trkpt lat="59.9552121" lon="17.798423">
        <ele>16.9604</ele>
        <time>2013-05-03T16:43:52Z</time>
      </trkpt>
      <trkpt lat="59.9552551" lon="17.7983142">
        <ele>16.9604</ele>
        <time>2013-05-03T16:43:53Z</time>
      </trkpt>
      <trkpt lat="59.9552972" lon="17.7982079">
        <ele>16.9604</ele>
        <time>2013-05-03T16:43:54Z</time>
      </trkpt>
      <trkpt lat="59.9553365" lon="17.7980972">
        <ele>16.9604</ele>
        <time>2013-05-03T16:43:55Z</time>
      </trkpt>
      <trkpt lat="59.9553718" lon="17.7979791">
        <ele>16.9604</ele>
        <time>2013-05-03T16:43:56Z</time>
      </trkpt>
      <trkpt lat="59.9554061" lon="17.7978594">
        <ele>16.9604</ele>
        <time>2013-05-03T16:43:57Z</time>
      </trkpt>
      <trkpt lat="59.9554412" lon="17.7977388">
        <ele>16.4797</ele>
        <time>2013-05-03T16:43:58Z</time>
      </trkpt>
      <trkpt lat="59.955477" lon="17.7976185">
        <ele>16.4797</ele>
        <time>2013-05-03T16:43:59Z</time>
      </trkpt>
      <trkpt lat="59.9555123" lon="17.7974977">
        <ele>16.4797</ele>
        <time>2013-05-03T16:44:00Z</time>
      </trkpt>
      <trkpt lat="59.9555469" lon="17.7973765">
        <ele>16.4797</ele>
        <time>2013-05-03T16:44:01Z</time>
      </trkpt>
      <trkpt lat="59.9555804" lon="17.7972554">
        <ele>16.4797</ele>
        <time>2013-05-03T16:44:02Z</time>
      </trkpt>
      <trkpt lat="59.9556122" lon="17.7971388">
        <ele>16.4797</ele>
        <time>2013-05-03T16:44:03Z</time>
      </trkpt>
      <trkpt lat="59.9556407" lon="17.7970222">
        <ele>16.4797</ele>
        <time>2013-05-03T16:44:04Z</time>
      </trkpt>
      <trkpt lat="59.9556686" lon="17.7969052">
        <ele>16.4797</ele>
        <time>2013-05-03T16:44:05Z</time>
      </trkpt>
      <trkpt lat="59.9556957" lon="17.7967866">
        <ele>16.4797</ele>
        <time>2013-05-03T16:44:06Z</time>
      </trkpt>
      <trkpt lat="59.9557209" lon="17.7966659">
        <ele>16.4797</ele>
        <time>2013-05-03T16:44:07Z</time>
      </trkpt>
      <trkpt lat="59.9557448" lon="17.7965442">
        <ele>16.4797</ele>
        <time>2013-05-03T16:44:08Z</time>
      </trkpt>
      <trkpt lat="59.9557673" lon="17.7964227">
        <ele>16.4797</ele>
        <time>2013-05-03T16:44:09Z</time>
      </trkpt>
      <trkpt lat="59.9557886" lon="17.7963044">
        <ele>16.4797</ele>
        <time>2013-05-03T16:44:10Z</time>
      </trkpt>
      <trkpt lat="59.9558103" lon="17.7961852">
        <ele>15.999</ele>
        <time>2013-05-03T16:44:11Z</time>
      </trkpt>
      <trkpt lat="59.9558302" lon="17.796065">
        <ele>15.999</ele>
        <time>2013-05-03T16:44:12Z</time>
      </trkpt>
      <trkpt lat="59.9558488" lon="17.7959436">
        <ele>15.999</ele>
        <time>2013-05-03T16:44:13Z</time>
      </trkpt>
      <trkpt lat="59.9558691" lon="17.7958217">
        <ele>16.4797</ele>
        <time>2013-05-03T16:44:14Z</time>
      </trkpt>
      <trkpt lat="59.9558909" lon="17.795702">
        <ele>16.4797</ele>
        <time>2013-05-03T16:44:15Z</time>
      </trkpt>
      <trkpt lat="59.9559132" lon="17.7955856">
        <ele>16.4797</ele>
        <time>2013-05-03T16:44:16Z</time>
      </trkpt>
      <trkpt lat="59.9559362" lon="17.7954703">
        <ele>16.4797</ele>
        <time>2013-05-03T16:44:17Z</time>
      </trkpt>
      <trkpt lat="59.9559595" lon="17.7953549">
        <ele>16.4797</ele>
        <time>2013-05-03T16:44:18Z</time>
      </trkpt>
      <trkpt lat="59.9559839" lon="17.7952372">
        <ele>16.4797</ele>
        <time>2013-05-03T16:44:19Z</time>
      </trkpt>
      <trkpt lat="59.9560104" lon="17.7951207">
        <ele>16.4797</ele>
        <time>2013-05-03T16:44:20Z</time>
      </trkpt>
      <trkpt lat="59.9560378" lon="17.7950046">
        <ele>16.4797</ele>
        <time>2013-05-03T16:44:21Z</time>
      </trkpt>
      <trkpt lat="59.9560657" lon="17.7948898">
        <ele>16.4797</ele>
        <time>2013-05-03T16:44:22Z</time>
      </trkpt>
      <trkpt lat="59.9560939" lon="17.7947745">
        <ele>16.4797</ele>
        <time>2013-05-03T16:44:23Z</time>
      </trkpt>
      <trkpt lat="59.9561218" lon="17.7946586">
        <ele>16.4797</ele>
        <time>2013-05-03T16:44:24Z</time>
      </trkpt>
      <trkpt lat="59.9561488" lon="17.7945436">
        <ele>16.9604</ele>
        <time>2013-05-03T16:44:25Z</time>
      </trkpt>
      <trkpt lat="59.956175" lon="17.7944316">
        <ele>16.9604</ele>
        <time>2013-05-03T16:44:26Z</time>
      </trkpt>
      <trkpt lat="59.9562009" lon="17.7943229">
        <ele>16.9604</ele>
        <time>2013-05-03T16:44:27Z</time>
      </trkpt>
      <trkpt lat="59.9562253" lon="17.7942187">
        <ele>16.9604</ele>
        <time>2013-05-03T16:44:28Z</time>
      </trkpt>
      <trkpt lat="59.9562467" lon="17.7941183">
        <ele>16.9604</ele>
        <time>2013-05-03T16:44:29Z</time>
      </trkpt>
      <trkpt lat="59.9562677" lon="17.7940193">
        <ele>16.9604</ele>
        <time>2013-05-03T16:44:30Z</time>
      </trkpt>
      <trkpt lat="59.9562891" lon="17.793922">
        <ele>16.9604</ele>
        <time>2013-05-03T16:44:31Z</time>
      </trkpt>
      <trkpt lat="59.9563099" lon="17.7938266">
        <ele>16.9604</ele>
        <time>2013-05-03T16:44:32Z</time>
      </trkpt>
      <trkpt lat="59.9563297" lon="17.7937308">
        <ele>16.9604</ele>
        <time>2013-05-03T16:44:33Z</time>
      </trkpt>
      <trkpt lat="59.9563502" lon="17.7936374">
        <ele>16.9604</ele>
        <time>2013-05-03T16:44:34Z</time>
      </trkpt>
      <trkpt lat="59.9563701" lon="17.7935454">
        <ele>16.9604</ele>
        <time>2013-05-03T16:44:35Z</time>
      </trkpt>
      <trkpt lat="59.9563892" lon="17.7934549">
        <ele>16.9604</ele>
        <time>2013-05-03T16:44:36Z</time>
      </trkpt>
      <trkpt lat="59.9564082" lon="17.7933616">
        <ele>17.4412</ele>
        <time>2013-05-03T16:44:37Z</time>
      </trkpt>
      <trkpt lat="59.9564266" lon="17.7932678">
        <ele>17.4412</ele>
        <time>2013-05-03T16:44:38Z</time>
      </trkpt>
      <trkpt lat="59.9564441" lon="17.7931739">
        <ele>17.9218</ele>
        <time>2013-05-03T16:44:39Z</time>
      </trkpt>
      <trkpt lat="59.9564604" lon="17.7930802">
        <ele>17.9218</ele>
        <time>2013-05-03T16:44:40Z</time>
      </trkpt>
      <trkpt lat="59.9564779" lon="17.7929861">
        <ele>17.9218</ele>
        <time>2013-05-03T16:44:41Z</time>
      </trkpt>
      <trkpt lat="59.9564974" lon="17.792889">
        <ele>17.9218</ele>
        <time>2013-05-03T16:44:42Z</time>
      </trkpt>
      <trkpt lat="59.9565155" lon="17.7927917">
        <ele>17.9218</ele>
        <time>2013-05-03T16:44:43Z</time>
      </trkpt>
      <trkpt lat="59.9565315" lon="17.7926958">
        <ele>17.9218</ele>
        <time>2013-05-03T16:44:44Z</time>
      </trkpt>
      <trkpt lat="59.9565472" lon="17.7926006">
        <ele>17.9218</ele>
        <time>2013-05-03T16:44:45Z</time>
      </trkpt>
      <trkpt lat="59.956563" lon="17.7925035">
        <ele>17.9218</ele>
        <time>2013-05-03T16:44:46Z</time>
      </trkpt>
      <trkpt lat="59.9565789" lon="17.7924053">
        <ele>17.9218</ele>
        <time>2013-05-03T16:44:47Z</time>
      </trkpt>
      <trkpt lat="59.9565948" lon="17.7923078">
        <ele>17.9218</ele>
        <time>2013-05-03T16:44:48Z</time>
      </trkpt>
      <trkpt lat="59.9566098" lon="17.792212">
        <ele>17.9218</ele>
        <time>2013-05-03T16:44:49Z</time>
      </trkpt>
      <trkpt lat="59.9566234" lon="17.7921157">
        <ele>17.9218</ele>
        <time>2013-05-03T16:44:50Z</time>
      </trkpt>
      <trkpt lat="59.9566378" lon="17.7920204">
        <ele>17.9218</ele>
        <time>2013-05-03T16:44:51Z</time>
      </trkpt>
      <trkpt lat="59.9566542" lon="17.7919241">
        <ele>17.9218</ele>
        <time>2013-05-03T16:44:52Z</time>
      </trkpt>
      <trkpt lat="59.9566713" lon="17.7918255">
        <ele>17.9218</ele>
        <time>2013-05-03T16:44:53Z</time>
      </trkpt>
      <trkpt lat="59.9566881" lon="17.791724">
        <ele>17.9218</ele>
        <time>2013-05-03T16:44:54Z</time>
      </trkpt>
      <trkpt lat="59.956705" lon="17.7916208">
        <ele>17.9218</ele>
        <time>2013-05-03T16:44:55Z</time>
      </trkpt>
      <trkpt lat="59.9567213" lon="17.7915159">
        <ele>17.9218</ele>
        <time>2013-05-03T16:44:56Z</time>
      </trkpt>
      <trkpt lat="59.95673" lon="17.7913656">
        <ele>18.4023</ele>
        <time>2013-05-03T16:44:57Z</time>
      </trkpt>
      <trkpt lat="59.9567454" lon="17.7912548">
        <ele>18.4023</ele>
        <time>2013-05-03T16:44:58Z</time>
      </trkpt>
      <trkpt lat="59.9567584" lon="17.791157">
        <ele>17.9218</ele>
        <time>2013-05-03T16:44:59Z</time>
      </trkpt>
      <trkpt lat="59.9567485" lon="17.7910227">
        <ele>17.4412</ele>
        <time>2013-05-03T16:45:00Z</time>
      </trkpt>
      <trkpt lat="59.9567455" lon="17.7909361">
        <ele>18.8831</ele>
        <time>2013-05-03T16:45:01Z</time>
      </trkpt>
      <trkpt lat="59.9567311" lon="17.7908542">
        <ele>18.8831</ele>
        <time>2013-05-03T16:45:02Z</time>
      </trkpt>
      <trkpt lat="59.9567145" lon="17.7907733">
        <ele>19.3638</ele>
        <time>2013-05-03T16:45:03Z</time>
      </trkpt>
      <trkpt lat="59.9566973" lon="17.7906891">
        <ele>19.3638</ele>
        <time>2013-05-03T16:45:04Z</time>
      </trkpt>
      <trkpt lat="59.9566793" lon="17.7906009">
        <ele>19.3638</ele>
        <time>2013-05-03T16:45:05Z</time>
      </trkpt>
      <trkpt lat="59.9566609" lon="17.7905064">
        <ele>19.3638</ele>
        <time>2013-05-03T16:45:06Z</time>
      </trkpt>
      <trkpt lat="59.9566383" lon="17.7904063">
        <ele>19.3638</ele>
        <time>2013-05-03T16:45:07Z</time>
      </trkpt>
      <trkpt lat="59.9566159" lon="17.7903012">
        <ele>19.3638</ele>
        <time>2013-05-03T16:45:08Z</time>
      </trkpt>
      <trkpt lat="59.9565927" lon="17.7901902">
        <ele>18.4023</ele>
        <time>2013-05-03T16:45:09Z</time>
      </trkpt>
      <trkpt lat="59.9565724" lon="17.7900747">
        <ele>17.9218</ele>
        <time>2013-05-03T16:45:10Z</time>
      </trkpt>
      <trkpt lat="59.9565612" lon="17.7899544">
        <ele>17.4412</ele>
        <time>2013-05-03T16:45:11Z</time>
      </trkpt>
      <trkpt lat="59.9565633" lon="17.7898331">
        <ele>16.4797</ele>
        <time>2013-05-03T16:45:12Z</time>
      </trkpt>
      <trkpt lat="59.9565787" lon="17.7897215">
        <ele>16.4797</ele>
        <time>2013-05-03T16:45:13Z</time>
      </trkpt>
      <trkpt lat="59.9566058" lon="17.7896177">
        <ele>16.4797</ele>
        <time>2013-05-03T16:45:14Z</time>
      </trkpt>
      <trkpt lat="59.9566415" lon="17.7895241">
        <ele>15.999</ele>
        <time>2013-05-03T16:45:15Z</time>
      </trkpt>
      <trkpt lat="59.9566873" lon="17.7894427">
        <ele>15.5184</ele>
        <time>2013-05-03T16:45:16Z</time>
      </trkpt>
      <trkpt lat="59.9567378" lon="17.7893661">
        <ele>15.5184</ele>
        <time>2013-05-03T16:45:17Z</time>
      </trkpt>
      <trkpt lat="59.9567984" lon="17.7892972">
        <ele>15.5184</ele>
        <time>2013-05-03T16:45:18Z</time>
      </trkpt>
      <trkpt lat="59.9568555" lon="17.7892299">
        <ele>15.5184</ele>
        <time>2013-05-03T16:45:19Z</time>
      </trkpt>
      <trkpt lat="59.956916" lon="17.7891706">
        <ele>15.5184</ele>
        <time>2013-05-03T16:45:20Z</time>
      </trkpt>
      <trkpt lat="59.9569735" lon="17.7891159">
        <ele>15.0377</ele>
        <time>2013-05-03T16:45:21Z</time>
      </trkpt>
      <trkpt lat="59.9570282" lon="17.7890504">
        <ele>15.5184</ele>
        <time>2013-05-03T16:45:22Z</time>
      </trkpt>
      <trkpt lat="59.9570811" lon="17.7889829">
        <ele>15.5184</ele>
        <time>2013-05-03T16:45:23Z</time>
      </trkpt>
      <trkpt lat="59.9571282" lon="17.788904">
        <ele>15.999</ele>
        <time>2013-05-03T16:45:24Z</time>
      </trkpt>
      <trkpt lat="59.9571704" lon="17.7888191">
        <ele>15.999</ele>
        <time>2013-05-03T16:45:25Z</time>
      </trkpt>
      <trkpt lat="59.9572101" lon="17.7887407">
        <ele>15.999</ele>
        <time>2013-05-03T16:45:26Z</time>
      </trkpt>
      <trkpt lat="59.9572455" lon="17.7886548">
        <ele>15.999</ele>
        <time>2013-05-03T16:45:27Z</time>
      </trkpt>
      <trkpt lat="59.9572789" lon="17.788568">
        <ele>15.5184</ele>
        <time>2013-05-03T16:45:28Z</time>
      </trkpt>
      <trkpt lat="59.9573102" lon="17.7884767">
        <ele>15.999</ele>
        <time>2013-05-03T16:45:29Z</time>
      </trkpt>
      <trkpt lat="59.9573397" lon="17.7883853">
        <ele>15.999</ele>
        <time>2013-05-03T16:45:30Z</time>
      </trkpt>
      <trkpt lat="59.9573678" lon="17.7882948">
        <ele>15.5184</ele>
        <time>2013-05-03T16:45:31Z</time>
      </trkpt>
      <trkpt lat="59.9573932" lon="17.7882011">
        <ele>15.5184</ele>
        <time>2013-05-03T16:45:32Z</time>
      </trkpt>
      <trkpt lat="59.9574174" lon="17.7881053">
        <ele>15.5184</ele>
        <time>2013-05-03T16:45:33Z</time>
      </trkpt>
      <trkpt lat="59.9574406" lon="17.7880059">
        <ele>15.0377</ele>
        <time>2013-05-03T16:45:34Z</time>
      </trkpt>
      <trkpt lat="59.9574654" lon="17.7879007">
        <ele>15.0377</ele>
        <time>2013-05-03T16:45:35Z</time>
      </trkpt>
      <trkpt lat="59.9574935" lon="17.7877997">
        <ele>15.0377</ele>
        <time>2013-05-03T16:45:36Z</time>
      </trkpt>
      <trkpt lat="59.957524" lon="17.7876955">
        <ele>15.0377</ele>
        <time>2013-05-03T16:45:37Z</time>
      </trkpt>
      <trkpt lat="59.9575526" lon="17.7875893">
        <ele>15.0377</ele>
        <time>2013-05-03T16:45:38Z</time>
      </trkpt>
      <trkpt lat="59.9575786" lon="17.7874815">
        <ele>15.0377</ele>
        <time>2013-05-03T16:45:39Z</time>
      </trkpt>
      <trkpt lat="59.9576012" lon="17.7873726">
        <ele>15.0377</ele>
        <time>2013-05-03T16:45:40Z</time>
      </trkpt>
      <trkpt lat="59.957622" lon="17.7872666">
        <ele>15.0377</ele>
        <time>2013-05-03T16:45:41Z</time>
      </trkpt>
      <trkpt lat="59.9576431" lon="17.7871607">
        <ele>15.0377</ele>
        <time>2013-05-03T16:45:42Z</time>
      </trkpt>
      <trkpt lat="59.9576635" lon="17.7870522">
        <ele>15.0377</ele>
        <time>2013-05-03T16:45:43Z</time>
      </trkpt>
      <trkpt lat="59.9576857" lon="17.786944">
        <ele>14.557</ele>
        <time>2013-05-03T16:45:44Z</time>
      </trkpt>
      <trkpt lat="59.9577127" lon="17.7868417">
        <ele>14.557</ele>
        <time>2013-05-03T16:45:45Z</time>
      </trkpt>
      <trkpt lat="59.9577436" lon="17.7867386">
        <ele>14.0764</ele>
        <time>2013-05-03T16:45:46Z</time>
      </trkpt>
      <trkpt lat="59.9577806" lon="17.7866424">
        <ele>13.5958</ele>
        <time>2013-05-03T16:45:47Z</time>
      </trkpt>
      <trkpt lat="59.9578257" lon="17.786555">
        <ele>13.5958</ele>
        <time>2013-05-03T16:45:48Z</time>
      </trkpt>
      <trkpt lat="59.9578759" lon="17.7864725">
        <ele>13.1151</ele>
        <time>2013-05-03T16:45:49Z</time>
      </trkpt>
      <trkpt lat="59.957929" lon="17.7863946">
        <ele>13.1151</ele>
        <time>2013-05-03T16:45:50Z</time>
      </trkpt>
      <trkpt lat="59.9579855" lon="17.7863254">
        <ele>12.6344</ele>
        <time>2013-05-03T16:45:51Z</time>
      </trkpt>
      <trkpt lat="59.9580432" lon="17.7862609">
        <ele>12.6344</ele>
        <time>2013-05-03T16:45:52Z</time>
      </trkpt>
      <trkpt lat="59.9580996" lon="17.7861962">
        <ele>12.6344</ele>
        <time>2013-05-03T16:45:53Z</time>
      </trkpt>
      <trkpt lat="59.9581544" lon="17.7861291">
        <ele>12.6344</ele>
        <time>2013-05-03T16:45:54Z</time>
      </trkpt>
      <trkpt lat="59.9582083" lon="17.7860612">
        <ele>12.6344</ele>
        <time>2013-05-03T16:45:55Z</time>
      </trkpt>
      <trkpt lat="59.9582627" lon="17.7859966">
        <ele>12.6344</ele>
        <time>2013-05-03T16:45:56Z</time>
      </trkpt>
      <trkpt lat="59.9583177" lon="17.7859383">
        <ele>12.6344</ele>
        <time>2013-05-03T16:45:57Z</time>
      </trkpt>
      <trkpt lat="59.9583727" lon="17.7858825">
        <ele>12.6344</ele>
        <time>2013-05-03T16:45:58Z</time>
      </trkpt>
      <trkpt lat="59.9584271" lon="17.785826">
        <ele>12.6344</ele>
        <time>2013-05-03T16:45:59Z</time>
      </trkpt>
      <trkpt lat="59.95848" lon="17.7857692">
        <ele>12.6344</ele>
        <time>2013-05-03T16:46:00Z</time>
      </trkpt>
      <trkpt lat="59.9585306" lon="17.7857121">
        <ele>12.1538</ele>
        <time>2013-05-03T16:46:01Z</time>
      </trkpt>
      <trkpt lat="59.9585798" lon="17.7856566">
        <ele>12.6344</ele>
        <time>2013-05-03T16:46:02Z</time>
      </trkpt>
      <trkpt lat="59.9586279" lon="17.7856114">
        <ele>12.1538</ele>
        <time>2013-05-03T16:46:03Z</time>
      </trkpt>
      <trkpt lat="59.9586741" lon="17.785572">
        <ele>11.6732</ele>
        <time>2013-05-03T16:46:04Z</time>
      </trkpt>
      <trkpt lat="59.9587186" lon="17.7855333">
        <ele>11.6732</ele>
        <time>2013-05-03T16:46:05Z</time>
      </trkpt>
      <trkpt lat="59.958764" lon="17.7854987">
        <ele>11.6732</ele>
        <time>2013-05-03T16:46:06Z</time>
      </trkpt>
      <trkpt lat="59.958811" lon="17.7854622">
        <ele>11.6732</ele>
        <time>2013-05-03T16:46:07Z</time>
      </trkpt>
      <trkpt lat="59.9588596" lon="17.7854235">
        <ele>11.6732</ele>
        <time>2013-05-03T16:46:08Z</time>
      </trkpt>
      <trkpt lat="59.9589097" lon="17.785385">
        <ele>11.6732</ele>
        <time>2013-05-03T16:46:09Z</time>
      </trkpt>
      <trkpt lat="59.958961" lon="17.7853475">
        <ele>11.6732</ele>
        <time>2013-05-03T16:46:10Z</time>
      </trkpt>
      <trkpt lat="59.9590125" lon="17.7853102">
        <ele>11.6732</ele>
        <time>2013-05-03T16:46:11Z</time>
      </trkpt>
      <trkpt lat="59.9590629" lon="17.7852718">
        <ele>11.6732</ele>
        <time>2013-05-03T16:46:12Z</time>
      </trkpt>
      <trkpt lat="59.9591113" lon="17.7852333">
        <ele>11.6732</ele>
        <time>2013-05-03T16:46:13Z</time>
      </trkpt>
      <trkpt lat="59.9591569" lon="17.7851951">
        <ele>11.6732</ele>
        <time>2013-05-03T16:46:14Z</time>
      </trkpt>
      <trkpt lat="59.9591999" lon="17.7851562">
        <ele>11.6732</ele>
        <time>2013-05-03T16:46:15Z</time>
      </trkpt>
      <trkpt lat="59.9592414" lon="17.7851178">
        <ele>11.6732</ele>
        <time>2013-05-03T16:46:16Z</time>
      </trkpt>
      <trkpt lat="59.9592815" lon="17.7850766">
        <ele>11.6732</ele>
        <time>2013-05-03T16:46:17Z</time>
      </trkpt>
      <trkpt lat="59.9593193" lon="17.7850256">
        <ele>11.6732</ele>
        <time>2013-05-03T16:46:18Z</time>
      </trkpt>
      <trkpt lat="59.9593569" lon="17.7849703">
        <ele>12.1538</ele>
        <time>2013-05-03T16:46:19Z</time>
      </trkpt>
      <trkpt lat="59.9593946" lon="17.7849142">
        <ele>12.1538</ele>
        <time>2013-05-03T16:46:20Z</time>
      </trkpt>
      <trkpt lat="59.9594314" lon="17.7848588">
        <ele>11.6732</ele>
        <time>2013-05-03T16:46:21Z</time>
      </trkpt>
      <trkpt lat="59.9594677" lon="17.7848019">
        <ele>11.6732</ele>
        <time>2013-05-03T16:46:22Z</time>
      </trkpt>
      <trkpt lat="59.959505" lon="17.7847423">
        <ele>11.6732</ele>
        <time>2013-05-03T16:46:23Z</time>
      </trkpt>
      <trkpt lat="59.9595421" lon="17.7846812">
        <ele>11.6732</ele>
        <time>2013-05-03T16:46:24Z</time>
      </trkpt>
      <trkpt lat="59.9595787" lon="17.7846175">
        <ele>11.6732</ele>
        <time>2013-05-03T16:46:25Z</time>
      </trkpt>
      <trkpt lat="59.9596156" lon="17.7845567">
        <ele>11.6732</ele>
        <time>2013-05-03T16:46:26Z</time>
      </trkpt>
      <trkpt lat="59.9596524" lon="17.7844972">
        <ele>11.6732</ele>
        <time>2013-05-03T16:46:27Z</time>
      </trkpt>
      <trkpt lat="59.9596877" lon="17.7844362">
        <ele>11.6732</ele>
        <time>2013-05-03T16:46:28Z</time>
      </trkpt>
      <trkpt lat="59.959721" lon="17.784378">
        <ele>11.6732</ele>
        <time>2013-05-03T16:46:29Z</time>
      </trkpt>
      <trkpt lat="59.9597553" lon="17.7843226">
        <ele>11.6732</ele>
        <time>2013-05-03T16:46:30Z</time>
      </trkpt>
      <trkpt lat="59.9597898" lon="17.7842649">
        <ele>11.6732</ele>
        <time>2013-05-03T16:46:31Z</time>
      </trkpt>
      <trkpt lat="59.9598229" lon="17.7842024">
        <ele>12.1538</ele>
        <time>2013-05-03T16:46:32Z</time>
      </trkpt>
      <trkpt lat="59.9598552" lon="17.7841394">
        <ele>12.1538</ele>
        <time>2013-05-03T16:46:33Z</time>
      </trkpt>
      <trkpt lat="59.9598856" lon="17.7840763">
        <ele>12.1538</ele>
        <time>2013-05-03T16:46:34Z</time>
      </trkpt>
      <trkpt lat="59.9599137" lon="17.7840133">
        <ele>11.6732</ele>
        <time>2013-05-03T16:46:35Z</time>
      </trkpt>
      <trkpt lat="59.9599412" lon="17.7839462">
        <ele>11.6732</ele>
        <time>2013-05-03T16:46:36Z</time>
      </trkpt>
      <trkpt lat="59.9599682" lon="17.7838786">
        <ele>11.1925</ele>
        <time>2013-05-03T16:46:37Z</time>
      </trkpt>
      <trkpt lat="59.9599956" lon="17.7838131">
        <ele>11.1925</ele>
        <time>2013-05-03T16:46:38Z</time>
      </trkpt>
      <trkpt lat="59.9600215" lon="17.7837441">
        <ele>11.1925</ele>
        <time>2013-05-03T16:46:39Z</time>
      </trkpt>
      <trkpt lat="59.9600449" lon="17.7836659">
        <ele>11.1925</ele>
        <time>2013-05-03T16:46:40Z</time>
      </trkpt>
      <trkpt lat="59.9600682" lon="17.7835866">
        <ele>11.6732</ele>
        <time>2013-05-03T16:46:41Z</time>
      </trkpt>
      <trkpt lat="59.9600914" lon="17.7835095">
        <ele>12.1538</ele>
        <time>2013-05-03T16:46:42Z</time>
      </trkpt>
      <trkpt lat="59.9601148" lon="17.7834359">
        <ele>12.1538</ele>
        <time>2013-05-03T16:46:43Z</time>
      </trkpt>
      <trkpt lat="59.9601385" lon="17.783365">
        <ele>12.6344</ele>
        <time>2013-05-03T16:46:44Z</time>
      </trkpt>
      <trkpt lat="59.9601618" lon="17.7832945">
        <ele>13.1151</ele>
        <time>2013-05-03T16:46:45Z</time>
      </trkpt>
      <trkpt lat="59.9601856" lon="17.783226">
        <ele>13.5958</ele>
        <time>2013-05-03T16:46:46Z</time>
      </trkpt>
      <trkpt lat="59.9602095" lon="17.7831597">
        <ele>13.5958</ele>
        <time>2013-05-03T16:46:47Z</time>
      </trkpt>
      <trkpt lat="59.9602323" lon="17.7830947">
        <ele>14.0764</ele>
        <time>2013-05-03T16:46:48Z</time>
      </trkpt>
      <trkpt lat="59.9602552" lon="17.7830278">
        <ele>14.557</ele>
        <time>2013-05-03T16:46:49Z</time>
      </trkpt>
      <trkpt lat="59.9602789" lon="17.7829599">
        <ele>14.557</ele>
        <time>2013-05-03T16:46:50Z</time>
      </trkpt>
      <trkpt lat="59.9603033" lon="17.7828926">
        <ele>15.0377</ele>
        <time>2013-05-03T16:46:51Z</time>
      </trkpt>
      <trkpt lat="59.960328" lon="17.7828232">
        <ele>15.5184</ele>
        <time>2013-05-03T16:46:52Z</time>
      </trkpt>
      <trkpt lat="59.9603525" lon="17.7827523">
        <ele>15.999</ele>
        <time>2013-05-03T16:46:53Z</time>
      </trkpt>
      <trkpt lat="59.9603778" lon="17.782679">
        <ele>16.4797</ele>
        <time>2013-05-03T16:46:54Z</time>
      </trkpt>
      <trkpt lat="59.9604036" lon="17.7826039">
        <ele>16.4797</ele>
        <time>2013-05-03T16:46:55Z</time>
      </trkpt>
      <trkpt lat="59.9604285" lon="17.7825263">
        <ele>16.9604</ele>
        <time>2013-05-03T16:46:56Z</time>
      </trkpt>
      <trkpt lat="59.960452" lon="17.7824475">
        <ele>17.4412</ele>
        <time>2013-05-03T16:46:57Z</time>
      </trkpt>
      <trkpt lat="59.9604758" lon="17.7823673">
        <ele>17.4412</ele>
        <time>2013-05-03T16:46:58Z</time>
      </trkpt>
      <trkpt lat="59.9604999" lon="17.7822865">
        <ele>17.9218</ele>
        <time>2013-05-03T16:46:59Z</time>
      </trkpt>
      <trkpt lat="59.960526" lon="17.7822068">
        <ele>18.4023</ele>
        <time>2013-05-03T16:47:00Z</time>
      </trkpt>
      <trkpt lat="59.9605546" lon="17.7821286">
        <ele>18.4023</ele>
        <time>2013-05-03T16:47:01Z</time>
      </trkpt>
      <trkpt lat="59.9605861" lon="17.7820529">
        <ele>18.8831</ele>
        <time>2013-05-03T16:47:02Z</time>
      </trkpt>
      <trkpt lat="59.9606201" lon="17.7819788">
        <ele>19.3638</ele>
        <time>2013-05-03T16:47:03Z</time>
      </trkpt>
      <trkpt lat="59.9606561" lon="17.7819057">
        <ele>19.3638</ele>
        <time>2013-05-03T16:47:04Z</time>
      </trkpt>
      <trkpt lat="59.9606936" lon="17.781833">
        <ele>19.3638</ele>
        <time>2013-05-03T16:47:05Z</time>
      </trkpt>
      <trkpt lat="59.9607314" lon="17.7817597">
        <ele>19.8444</ele>
        <time>2013-05-03T16:47:06Z</time>
      </trkpt>
      <trkpt lat="59.9607693" lon="17.7816866">
        <ele>19.8444</ele>
        <time>2013-05-03T16:47:07Z</time>
      </trkpt>
      <trkpt lat="59.9608074" lon="17.781616">
        <ele>19.8444</ele>
        <time>2013-05-03T16:47:08Z</time>
      </trkpt>
      <trkpt lat="59.9608445" lon="17.7815477">
        <ele>20.325</ele>
        <time>2013-05-03T16:47:09Z</time>
      </trkpt>
      <trkpt lat="59.9608803" lon="17.7814811">
        <ele>20.8057</ele>
        <time>2013-05-03T16:47:10Z</time>
      </trkpt>
      <trkpt lat="59.9609175" lon="17.7814183">
        <ele>20.8057</ele>
        <time>2013-05-03T16:47:11Z</time>
      </trkpt>
      <trkpt lat="59.9609544" lon="17.7813534">
        <ele>21.2864</ele>
        <time>2013-05-03T16:47:12Z</time>
      </trkpt>
      <trkpt lat="59.9609917" lon="17.7812863">
        <ele>21.2864</ele>
        <time>2013-05-03T16:47:13Z</time>
      </trkpt>
      <trkpt lat="59.9610285" lon="17.7812187">
        <ele>21.767</ele>
        <time>2013-05-03T16:47:14Z</time>
      </trkpt>
      <trkpt lat="59.9610652" lon="17.7811514">
        <ele>21.767</ele>
        <time>2013-05-03T16:47:15Z</time>
      </trkpt>
      <trkpt lat="59.9611015" lon="17.7810862">
        <ele>21.767</ele>
        <time>2013-05-03T16:47:16Z</time>
      </trkpt>
      <trkpt lat="59.9611371" lon="17.781022">
        <ele>22.2476</ele>
        <time>2013-05-03T16:47:17Z</time>
      </trkpt>
      <trkpt lat="59.9611721" lon="17.7809591">
        <ele>22.2476</ele>
        <time>2013-05-03T16:47:18Z</time>
      </trkpt>
      <trkpt lat="59.961207" lon="17.7808978">
        <ele>22.2476</ele>
        <time>2013-05-03T16:47:19Z</time>
      </trkpt>
      <trkpt lat="59.9612401" lon="17.7808355">
        <ele>22.7283</ele>
        <time>2013-05-03T16:47:20Z</time>
      </trkpt>
      <trkpt lat="59.9612719" lon="17.7807738">
        <ele>22.7283</ele>
        <time>2013-05-03T16:47:21Z</time>
      </trkpt>
      <trkpt lat="59.9613042" lon="17.7807175">
        <ele>22.7283</ele>
        <time>2013-05-03T16:47:22Z</time>
      </trkpt>
      <trkpt lat="59.9613368" lon="17.780662">
        <ele>22.7283</ele>
        <time>2013-05-03T16:47:23Z</time>
      </trkpt>
      <trkpt lat="59.9613704" lon="17.7806039">
        <ele>22.7283</ele>
        <time>2013-05-03T16:47:24Z</time>
      </trkpt>
      <trkpt lat="59.961405" lon="17.7805423">
        <ele>22.7283</ele>
        <time>2013-05-03T16:47:25Z</time>
      </trkpt>
      <trkpt lat="59.9614408" lon="17.7804796">
        <ele>22.7283</ele>
        <time>2013-05-03T16:47:26Z</time>
      </trkpt>
      <trkpt lat="59.9614775" lon="17.7804147">
        <ele>22.7283</ele>
        <time>2013-05-03T16:47:27Z</time>
      </trkpt>
      <trkpt lat="59.9615139" lon="17.7803466">
        <ele>22.7283</ele>
        <time>2013-05-03T16:47:28Z</time>
      </trkpt>
      <trkpt lat="59.96155" lon="17.7802771">
        <ele>22.7283</ele>
        <time>2013-05-03T16:47:29Z</time>
      </trkpt>
      <trkpt lat="59.9615842" lon="17.7802071">
        <ele>22.7283</ele>
        <time>2013-05-03T16:47:30Z</time>
      </trkpt>
      <trkpt lat="59.9616173" lon="17.7801373">
        <ele>22.7283</ele>
        <time>2013-05-03T16:47:31Z</time>
      </trkpt>
      <trkpt lat="59.961649" lon="17.7800666">
        <ele>22.7283</ele>
        <time>2013-05-03T16:47:32Z</time>
      </trkpt>
      <trkpt lat="59.9616796" lon="17.7799932">
        <ele>23.209</ele>
        <time>2013-05-03T16:47:33Z</time>
      </trkpt>
      <trkpt lat="59.9617107" lon="17.7799223">
        <ele>23.209</ele>
        <time>2013-05-03T16:47:34Z</time>
      </trkpt>
      <trkpt lat="59.9617414" lon="17.7798512">
        <ele>23.209</ele>
        <time>2013-05-03T16:47:35Z</time>
      </trkpt>
      <trkpt lat="59.9617717" lon="17.7797827">
        <ele>23.209</ele>
        <time>2013-05-03T16:47:36Z</time>
      </trkpt>
      <trkpt lat="59.9618016" lon="17.7797139">
        <ele>23.209</ele>
        <time>2013-05-03T16:47:37Z</time>
      </trkpt>
      <trkpt lat="59.9618314" lon="17.7796432">
        <ele>23.209</ele>
        <time>2013-05-03T16:47:38Z</time>
      </trkpt>
      <trkpt lat="59.9618624" lon="17.7795711">
        <ele>23.6896</ele>
        <time>2013-05-03T16:47:39Z</time>
      </trkpt>
      <trkpt lat="59.9618939" lon="17.7794989">
        <ele>23.6896</ele>
        <time>2013-05-03T16:47:40Z</time>
      </trkpt>
      <trkpt lat="59.9619253" lon="17.7794264">
        <ele>23.6896</ele>
        <time>2013-05-03T16:47:41Z</time>
      </trkpt>
      <trkpt lat="59.9619569" lon="17.7793533">
        <ele>23.209</ele>
        <time>2013-05-03T16:47:42Z</time>
      </trkpt>
      <trkpt lat="59.9619889" lon="17.7792811">
        <ele>23.209</ele>
        <time>2013-05-03T16:47:43Z</time>
      </trkpt>
      <trkpt lat="59.9620205" lon="17.7792095">
        <ele>23.209</ele>
        <time>2013-05-03T16:47:44Z</time>
      </trkpt>
      <trkpt lat="59.9620527" lon="17.7791371">
        <ele>23.209</ele>
        <time>2013-05-03T16:47:45Z</time>
      </trkpt>
      <trkpt lat="59.9620862" lon="17.779065">
        <ele>22.7283</ele>
        <time>2013-05-03T16:47:46Z</time>
      </trkpt>
      <trkpt lat="59.9621194" lon="17.7789904">
        <ele>22.7283</ele>
        <time>2013-05-03T16:47:47Z</time>
      </trkpt>
      <trkpt lat="59.9621525" lon="17.7789125">
        <ele>22.7283</ele>
        <time>2013-05-03T16:47:48Z</time>
      </trkpt>
      <trkpt lat="59.9621858" lon="17.7788316">
        <ele>22.7283</ele>
        <time>2013-05-03T16:47:49Z</time>
      </trkpt>
      <trkpt lat="59.96222" lon="17.7787511">
        <ele>22.2476</ele>
        <time>2013-05-03T16:47:50Z</time>
      </trkpt>
      <trkpt lat="59.9622547" lon="17.7786708">
        <ele>22.2476</ele>
        <time>2013-05-03T16:47:51Z</time>
      </trkpt>
      <trkpt lat="59.9622889" lon="17.7785901">
        <ele>22.2476</ele>
        <time>2013-05-03T16:47:52Z</time>
      </trkpt>
      <trkpt lat="59.962323" lon="17.7785094">
        <ele>22.2476</ele>
        <time>2013-05-03T16:47:53Z</time>
      </trkpt>
      <trkpt lat="59.9623562" lon="17.7784302">
        <ele>22.2476</ele>
        <time>2013-05-03T16:47:54Z</time>
      </trkpt>
      <trkpt lat="59.9623894" lon="17.7783533">
        <ele>22.2476</ele>
        <time>2013-05-03T16:47:55Z</time>
      </trkpt>
      <trkpt lat="59.9624236" lon="17.7782781">
        <ele>22.2476</ele>
        <time>2013-05-03T16:47:56Z</time>
      </trkpt>
      <trkpt lat="59.9624582" lon="17.778202">
        <ele>22.2476</ele>
        <time>2013-05-03T16:47:57Z</time>
      </trkpt>
      <trkpt lat="59.9624928" lon="17.7781251">
        <ele>22.2476</ele>
        <time>2013-05-03T16:47:58Z</time>
      </trkpt>
      <trkpt lat="59.9625274" lon="17.7780484">
        <ele>22.2476</ele>
        <time>2013-05-03T16:47:59Z</time>
      </trkpt>
      <trkpt lat="59.9625613" lon="17.7779741">
        <ele>22.2476</ele>
        <time>2013-05-03T16:48:00Z</time>
      </trkpt>
      <trkpt lat="59.9625943" lon="17.7779029">
        <ele>22.2476</ele>
        <time>2013-05-03T16:48:01Z</time>
      </trkpt>
      <trkpt lat="59.9626261" lon="17.7778345">
        <ele>22.2476</ele>
        <time>2013-05-03T16:48:02Z</time>
      </trkpt>
      <trkpt lat="59.9626581" lon="17.7777673">
        <ele>22.2476</ele>
        <time>2013-05-03T16:48:03Z</time>
      </trkpt>
      <trkpt lat="59.9626902" lon="17.7777013">
        <ele>21.767</ele>
        <time>2013-05-03T16:48:04Z</time>
      </trkpt>
      <trkpt lat="59.9627227" lon="17.7776358">
        <ele>21.767</ele>
        <time>2013-05-03T16:48:05Z</time>
      </trkpt>
      <trkpt lat="59.9627556" lon="17.7775689">
        <ele>21.2864</ele>
        <time>2013-05-03T16:48:06Z</time>
      </trkpt>
      <trkpt lat="59.9627872" lon="17.7774991">
        <ele>20.8057</ele>
        <time>2013-05-03T16:48:07Z</time>
      </trkpt>
      <trkpt lat="59.9628186" lon="17.7774295">
        <ele>20.8057</ele>
        <time>2013-05-03T16:48:08Z</time>
      </trkpt>
      <trkpt lat="59.9628501" lon="17.7773617">
        <ele>20.325</ele>
        <time>2013-05-03T16:48:09Z</time>
      </trkpt>
      <trkpt lat="59.9628814" lon="17.7772965">
        <ele>20.325</ele>
        <time>2013-05-03T16:48:10Z</time>
      </trkpt>
      <trkpt lat="59.9629121" lon="17.7772343">
        <ele>20.325</ele>
        <time>2013-05-03T16:48:11Z</time>
      </trkpt>
      <trkpt lat="59.9629403" lon="17.7771716">
        <ele>19.8444</ele>
        <time>2013-05-03T16:48:12Z</time>
      </trkpt>
      <trkpt lat="59.9629674" lon="17.7771089">
        <ele>19.8444</ele>
        <time>2013-05-03T16:48:13Z</time>
      </trkpt>
      <trkpt lat="59.9629942" lon="17.7770419">
        <ele>19.8444</ele>
        <time>2013-05-03T16:48:14Z</time>
      </trkpt>
      <trkpt lat="59.9630181" lon="17.7769722">
        <ele>19.3638</ele>
        <time>2013-05-03T16:48:15Z</time>
      </trkpt>
      <trkpt lat="59.9630399" lon="17.7768997">
        <ele>19.3638</ele>
        <time>2013-05-03T16:48:16Z</time>
      </trkpt>
      <trkpt lat="59.9630611" lon="17.7768301">
        <ele>19.3638</ele>
        <time>2013-05-03T16:48:17Z</time>
      </trkpt>
      <trkpt lat="59.9630814" lon="17.776764">
        <ele>19.3638</ele>
        <time>2013-05-03T16:48:18Z</time>
      </trkpt>
      <trkpt lat="59.9631005" lon="17.7766997">
        <ele>19.3638</ele>
        <time>2013-05-03T16:48:19Z</time>
      </trkpt>
      <trkpt lat="59.9631197" lon="17.7766355">
        <ele>19.8444</ele>
        <time>2013-05-03T16:48:20Z</time>
      </trkpt>
      <trkpt lat="59.9631382" lon="17.7765738">
        <ele>19.8444</ele>
        <time>2013-05-03T16:48:21Z</time>
      </trkpt>
      <trkpt lat="59.9631553" lon="17.7765138">
        <ele>19.3638</ele>
        <time>2013-05-03T16:48:22Z</time>
      </trkpt>
      <trkpt lat="59.9631734" lon="17.7764527">
        <ele>19.3638</ele>
        <time>2013-05-03T16:48:23Z</time>
      </trkpt>
      <trkpt lat="59.9631927" lon="17.7763904">
        <ele>19.8444</ele>
        <time>2013-05-03T16:48:24Z</time>
      </trkpt>
      <trkpt lat="59.9632124" lon="17.7763262">
        <ele>19.8444</ele>
        <time>2013-05-03T16:48:25Z</time>
      </trkpt>
      <trkpt lat="59.9632319" lon="17.7762597">
        <ele>19.8444</ele>
        <time>2013-05-03T16:48:26Z</time>
      </trkpt>
      <trkpt lat="59.9632526" lon="17.7761917">
        <ele>19.8444</ele>
        <time>2013-05-03T16:48:27Z</time>
      </trkpt>
      <trkpt lat="59.9632746" lon="17.7761252">
        <ele>20.325</ele>
        <time>2013-05-03T16:48:28Z</time>
      </trkpt>
      <trkpt lat="59.9632968" lon="17.7760606">
        <ele>20.325</ele>
        <time>2013-05-03T16:48:29Z</time>
      </trkpt>
      <trkpt lat="59.963318" lon="17.7759931">
        <ele>20.8057</ele>
        <time>2013-05-03T16:48:30Z</time>
      </trkpt>
      <trkpt lat="59.9633393" lon="17.7759261">
        <ele>20.8057</ele>
        <time>2013-05-03T16:48:31Z</time>
      </trkpt>
      <trkpt lat="59.9633611" lon="17.7758605">
        <ele>21.2864</ele>
        <time>2013-05-03T16:48:32Z</time>
      </trkpt>
      <trkpt lat="59.9633819" lon="17.7757931">
        <ele>21.2864</ele>
        <time>2013-05-03T16:48:33Z</time>
      </trkpt>
      <trkpt lat="59.9634044" lon="17.7757248">
        <ele>21.2864</ele>
        <time>2013-05-03T16:48:34Z</time>
      </trkpt>
      <trkpt lat="59.9634289" lon="17.7756534">
        <ele>21.2864</ele>
        <time>2013-05-03T16:48:35Z</time>
      </trkpt>
      <trkpt lat="59.9634538" lon="17.775576">
        <ele>21.2864</ele>
        <time>2013-05-03T16:48:36Z</time>
      </trkpt>
      <trkpt lat="59.9634793" lon="17.7754974">
        <ele>21.2864</ele>
        <time>2013-05-03T16:48:37Z</time>
      </trkpt>
      <trkpt lat="59.9635041" lon="17.7754176">
        <ele>21.767</ele>
        <time>2013-05-03T16:48:38Z</time>
      </trkpt>
      <trkpt lat="59.9635275" lon="17.775337">
        <ele>21.767</ele>
        <time>2013-05-03T16:48:39Z</time>
      </trkpt>
      <trkpt lat="59.963549" lon="17.7752574">
        <ele>21.767</ele>
        <time>2013-05-03T16:48:40Z</time>
      </trkpt>
      <trkpt lat="59.9635686" lon="17.7751778">
        <ele>21.767</ele>
        <time>2013-05-03T16:48:41Z</time>
      </trkpt>
      <trkpt lat="59.9635872" lon="17.7750996">
        <ele>21.767</ele>
        <time>2013-05-03T16:48:42Z</time>
      </trkpt>
      <trkpt lat="59.9636041" lon="17.7750239">
        <ele>21.767</ele>
        <time>2013-05-03T16:48:43Z</time>
      </trkpt>
      <trkpt lat="59.963619" lon="17.7749489">
        <ele>21.767</ele>
        <time>2013-05-03T16:48:44Z</time>
      </trkpt>
      <trkpt lat="59.9636338" lon="17.774873">
        <ele>21.767</ele>
        <time>2013-05-03T16:48:45Z</time>
      </trkpt>
      <trkpt lat="59.9636495" lon="17.7747974">
        <ele>21.767</ele>
        <time>2013-05-03T16:48:46Z</time>
      </trkpt>
      <trkpt lat="59.9636646" lon="17.7747235">
        <ele>21.767</ele>
        <time>2013-05-03T16:48:47Z</time>
      </trkpt>
      <trkpt lat="59.9636763" lon="17.7746469">
        <ele>22.2476</ele>
        <time>2013-05-03T16:48:48Z</time>
      </trkpt>
      <trkpt lat="59.9636864" lon="17.7745744">
        <ele>22.2476</ele>
        <time>2013-05-03T16:48:49Z</time>
      </trkpt>
      <trkpt lat="59.9636961" lon="17.7745076">
        <ele>22.2476</ele>
        <time>2013-05-03T16:48:50Z</time>
      </trkpt>
      <trkpt lat="59.9637057" lon="17.7744428">
        <ele>22.2476</ele>
        <time>2013-05-03T16:48:51Z</time>
      </trkpt>
      <trkpt lat="59.9637149" lon="17.774375">
        <ele>22.2476</ele>
        <time>2013-05-03T16:48:52Z</time>
      </trkpt>
      <trkpt lat="59.9637256" lon="17.7743042">
        <ele>22.7283</ele>
        <time>2013-05-03T16:48:53Z</time>
      </trkpt>
      <trkpt lat="59.9637382" lon="17.7742304">
        <ele>22.7283</ele>
        <time>2013-05-03T16:48:54Z</time>
      </trkpt>
      <trkpt lat="59.9637502" lon="17.7741542">
        <ele>22.7283</ele>
        <time>2013-05-03T16:48:55Z</time>
      </trkpt>
      <trkpt lat="59.9637625" lon="17.7740749">
        <ele>22.2476</ele>
        <time>2013-05-03T16:48:56Z</time>
      </trkpt>
      <trkpt lat="59.9637768" lon="17.7739912">
        <ele>22.2476</ele>
        <time>2013-05-03T16:48:57Z</time>
      </trkpt>
      <trkpt lat="59.9637922" lon="17.7739066">
        <ele>22.2476</ele>
        <time>2013-05-03T16:48:58Z</time>
      </trkpt>
      <trkpt lat="59.9638077" lon="17.7738215">
        <ele>22.2476</ele>
        <time>2013-05-03T16:48:59Z</time>
      </trkpt>
      <trkpt lat="59.9638219" lon="17.7737362">
        <ele>22.2476</ele>
        <time>2013-05-03T16:49:00Z</time>
      </trkpt>
      <trkpt lat="59.9638344" lon="17.7736512">
        <ele>22.2476</ele>
        <time>2013-05-03T16:49:01Z</time>
      </trkpt>
      <trkpt lat="59.9638471" lon="17.7735651">
        <ele>22.2476</ele>
        <time>2013-05-03T16:49:02Z</time>
      </trkpt>
      <trkpt lat="59.963861" lon="17.7734798">
        <ele>22.2476</ele>
        <time>2013-05-03T16:49:03Z</time>
      </trkpt>
      <trkpt lat="59.9638744" lon="17.7733922">
        <ele>22.2476</ele>
        <time>2013-05-03T16:49:04Z</time>
      </trkpt>
      <trkpt lat="59.9638849" lon="17.7733011">
        <ele>22.7283</ele>
        <time>2013-05-03T16:49:05Z</time>
      </trkpt>
      <trkpt lat="59.9638937" lon="17.7732093">
        <ele>22.7283</ele>
        <time>2013-05-03T16:49:06Z</time>
      </trkpt>
      <trkpt lat="59.9638998" lon="17.7731181">
        <ele>22.2476</ele>
        <time>2013-05-03T16:49:07Z</time>
      </trkpt>
      <trkpt lat="59.9639025" lon="17.7730266">
        <ele>22.2476</ele>
        <time>2013-05-03T16:49:08Z</time>
      </trkpt>
      <trkpt lat="59.9639034" lon="17.7729328">
        <ele>22.2476</ele>
        <time>2013-05-03T16:49:09Z</time>
      </trkpt>
      <trkpt lat="59.9639008" lon="17.7728344">
        <ele>22.2476</ele>
        <time>2013-05-03T16:49:10Z</time>
      </trkpt>
      <trkpt lat="59.9638951" lon="17.7727316">
        <ele>22.2476</ele>
        <time>2013-05-03T16:49:11Z</time>
      </trkpt>
      <trkpt lat="59.9638862" lon="17.7726271">
        <ele>21.767</ele>
        <time>2013-05-03T16:49:12Z</time>
      </trkpt>
      <trkpt lat="59.9638728" lon="17.772524">
        <ele>22.2476</ele>
        <time>2013-05-03T16:49:13Z</time>
      </trkpt>
      <trkpt lat="59.9638584" lon="17.7724246">
        <ele>22.2476</ele>
        <time>2013-05-03T16:49:14Z</time>
      </trkpt>
      <trkpt lat="59.9638442" lon="17.7723296">
        <ele>22.2476</ele>
        <time>2013-05-03T16:49:15Z</time>
      </trkpt>
      <trkpt lat="59.9638284" lon="17.772237">
        <ele>22.2476</ele>
        <time>2013-05-03T16:49:16Z</time>
      </trkpt>
      <trkpt lat="59.963811" lon="17.7721484">
        <ele>22.7283</ele>
        <time>2013-05-03T16:49:17Z</time>
      </trkpt>
      <trkpt lat="59.9637927" lon="17.7720639">
        <ele>22.7283</ele>
        <time>2013-05-03T16:49:18Z</time>
      </trkpt>
      <trkpt lat="59.963775" lon="17.7719822">
        <ele>22.7283</ele>
        <time>2013-05-03T16:49:19Z</time>
      </trkpt>
      <trkpt lat="59.9637561" lon="17.7719019">
        <ele>22.2476</ele>
        <time>2013-05-03T16:49:20Z</time>
      </trkpt>
      <trkpt lat="59.9637366" lon="17.7718223">
        <ele>22.2476</ele>
        <time>2013-05-03T16:49:21Z</time>
      </trkpt>
      <trkpt lat="59.9637175" lon="17.7717429">
        <ele>22.2476</ele>
        <time>2013-05-03T16:49:22Z</time>
      </trkpt>
      <trkpt lat="59.9636982" lon="17.7716631">
        <ele>22.2476</ele>
        <time>2013-05-03T16:49:23Z</time>
      </trkpt>
      <trkpt lat="59.9636796" lon="17.7715852">
        <ele>22.2476</ele>
        <time>2013-05-03T16:49:24Z</time>
      </trkpt>
      <trkpt lat="59.9636609" lon="17.771505">
        <ele>22.2476</ele>
        <time>2013-05-03T16:49:25Z</time>
      </trkpt>
      <trkpt lat="59.9636427" lon="17.7714251">
        <ele>22.2476</ele>
        <time>2013-05-03T16:49:26Z</time>
      </trkpt>
      <trkpt lat="59.9636242" lon="17.7713435">
        <ele>22.2476</ele>
        <time>2013-05-03T16:49:27Z</time>
      </trkpt>
      <trkpt lat="59.9636044" lon="17.7712614">
        <ele>22.2476</ele>
        <time>2013-05-03T16:49:28Z</time>
      </trkpt>
      <trkpt lat="59.9635848" lon="17.7711778">
        <ele>22.2476</ele>
        <time>2013-05-03T16:49:29Z</time>
      </trkpt>
      <trkpt lat="59.9635676" lon="17.7710941">
        <ele>22.2476</ele>
        <time>2013-05-03T16:49:30Z</time>
      </trkpt>
      <trkpt lat="59.9635517" lon="17.7710104">
        <ele>22.2476</ele>
        <time>2013-05-03T16:49:31Z</time>
      </trkpt>
      <trkpt lat="59.9635356" lon="17.7709244">
        <ele>22.2476</ele>
        <time>2013-05-03T16:49:32Z</time>
      </trkpt>
      <trkpt lat="59.9635201" lon="17.7708386">
        <ele>22.7283</ele>
        <time>2013-05-03T16:49:33Z</time>
      </trkpt>
      <trkpt lat="59.9635061" lon="17.7707529">
        <ele>22.7283</ele>
        <time>2013-05-03T16:49:34Z</time>
      </trkpt>
      <trkpt lat="59.9634948" lon="17.7706665">
        <ele>23.209</ele>
        <time>2013-05-03T16:49:35Z</time>
      </trkpt>
      <trkpt lat="59.9634895" lon="17.7705789">
        <ele>23.209</ele>
        <time>2013-05-03T16:49:36Z</time>
      </trkpt>
      <trkpt lat="59.9634834" lon="17.7704917">
        <ele>23.209</ele>
        <time>2013-05-03T16:49:37Z</time>
      </trkpt>
      <trkpt lat="59.9634801" lon="17.7704075">
        <ele>23.209</ele>
        <time>2013-05-03T16:49:38Z</time>
      </trkpt>
      <trkpt lat="59.9634785" lon="17.770324">
        <ele>23.6896</ele>
        <time>2013-05-03T16:49:39Z</time>
      </trkpt>
      <trkpt lat="59.9634735" lon="17.7702427">
        <ele>23.6896</ele>
        <time>2013-05-03T16:49:40Z</time>
      </trkpt>
      <trkpt lat="59.9634686" lon="17.7701638">
        <ele>23.6896</ele>
        <time>2013-05-03T16:49:41Z</time>
      </trkpt>
      <trkpt lat="59.963466" lon="17.7700852">
        <ele>23.6896</ele>
        <time>2013-05-03T16:49:42Z</time>
      </trkpt>
      <trkpt lat="59.9634636" lon="17.7700053">
        <ele>23.6896</ele>
        <time>2013-05-03T16:49:43Z</time>
      </trkpt>
      <trkpt lat="59.9634621" lon="17.7699232">
        <ele>23.6896</ele>
        <time>2013-05-03T16:49:44Z</time>
      </trkpt>
      <trkpt lat="59.9634632" lon="17.7698413">
        <ele>23.6896</ele>
        <time>2013-05-03T16:49:45Z</time>
      </trkpt>
      <trkpt lat="59.9634674" lon="17.7697601">
        <ele>23.209</ele>
        <time>2013-05-03T16:49:46Z</time>
      </trkpt>
      <trkpt lat="59.9634738" lon="17.76968">
        <ele>23.209</ele>
        <time>2013-05-03T16:49:47Z</time>
      </trkpt>
      <trkpt lat="59.9634829" lon="17.7696002">
        <ele>23.209</ele>
        <time>2013-05-03T16:49:48Z</time>
      </trkpt>
      <trkpt lat="59.9634957" lon="17.769522">
        <ele>22.7283</ele>
        <time>2013-05-03T16:49:49Z</time>
      </trkpt>
      <trkpt lat="59.9635126" lon="17.7694455">
        <ele>22.2476</ele>
        <time>2013-05-03T16:49:50Z</time>
      </trkpt>
      <trkpt lat="59.9635325" lon="17.7693714">
        <ele>22.2476</ele>
        <time>2013-05-03T16:49:51Z</time>
      </trkpt>
      <trkpt lat="59.9635551" lon="17.7692997">
        <ele>21.767</ele>
        <time>2013-05-03T16:49:52Z</time>
      </trkpt>
      <trkpt lat="59.9635789" lon="17.7692248">
        <ele>21.2864</ele>
        <time>2013-05-03T16:49:53Z</time>
      </trkpt>
      <trkpt lat="59.9636034" lon="17.7691457">
        <ele>20.8057</ele>
        <time>2013-05-03T16:49:54Z</time>
      </trkpt>
      <trkpt lat="59.9636272" lon="17.7690637">
        <ele>20.8057</ele>
        <time>2013-05-03T16:49:55Z</time>
      </trkpt>
      <trkpt lat="59.9636501" lon="17.7689773">
        <ele>20.325</ele>
        <time>2013-05-03T16:49:56Z</time>
      </trkpt>
      <trkpt lat="59.9636734" lon="17.7688918">
        <ele>20.325</ele>
        <time>2013-05-03T16:49:57Z</time>
      </trkpt>
      <trkpt lat="59.9636978" lon="17.7688095">
        <ele>20.325</ele>
        <time>2013-05-03T16:49:58Z</time>
      </trkpt>
      <trkpt lat="59.9637222" lon="17.7687291">
        <ele>20.325</ele>
        <time>2013-05-03T16:49:59Z</time>
      </trkpt>
      <trkpt lat="59.9637449" lon="17.7686499">
        <ele>20.325</ele>
        <time>2013-05-03T16:50:00Z</time>
      </trkpt>
      <trkpt lat="59.9637675" lon="17.7685728">
        <ele>20.325</ele>
        <time>2013-05-03T16:50:01Z</time>
      </trkpt>
      <trkpt lat="59.9637887" lon="17.7684956">
        <ele>20.325</ele>
        <time>2013-05-03T16:50:02Z</time>
      </trkpt>
      <trkpt lat="59.9638091" lon="17.7684207">
        <ele>20.325</ele>
        <time>2013-05-03T16:50:03Z</time>
      </trkpt>
      <trkpt lat="59.9638289" lon="17.7683479">
        <ele>20.8057</ele>
        <time>2013-05-03T16:50:04Z</time>
      </trkpt>
      <trkpt lat="59.9638454" lon="17.7682738">
        <ele>20.8057</ele>
        <time>2013-05-03T16:50:05Z</time>
      </trkpt>
      <trkpt lat="59.9638623" lon="17.7682013">
        <ele>20.8057</ele>
        <time>2013-05-03T16:50:06Z</time>
      </trkpt>
      <trkpt lat="59.9638797" lon="17.7681329">
        <ele>21.2864</ele>
        <time>2013-05-03T16:50:07Z</time>
      </trkpt>
      <trkpt lat="59.9638963" lon="17.7680643">
        <ele>21.2864</ele>
        <time>2013-05-03T16:50:08Z</time>
      </trkpt>
      <trkpt lat="59.963912" lon="17.7679933">
        <ele>21.2864</ele>
        <time>2013-05-03T16:50:09Z</time>
      </trkpt>
      <trkpt lat="59.9639283" lon="17.767922">
        <ele>21.767</ele>
        <time>2013-05-03T16:50:10Z</time>
      </trkpt>
      <trkpt lat="59.9639445" lon="17.7678499">
        <ele>21.767</ele>
        <time>2013-05-03T16:50:11Z</time>
      </trkpt>
      <trkpt lat="59.96396" lon="17.7677765">
        <ele>21.767</ele>
        <time>2013-05-03T16:50:12Z</time>
      </trkpt>
      <trkpt lat="59.9639743" lon="17.7677009">
        <ele>21.767</ele>
        <time>2013-05-03T16:50:13Z</time>
      </trkpt>
      <trkpt lat="59.9639875" lon="17.7676247">
        <ele>21.767</ele>
        <time>2013-05-03T16:50:14Z</time>
      </trkpt>
      <trkpt lat="59.9640006" lon="17.7675466">
        <ele>21.767</ele>
        <time>2013-05-03T16:50:15Z</time>
      </trkpt>
      <trkpt lat="59.9640138" lon="17.7674691">
        <ele>21.767</ele>
        <time>2013-05-03T16:50:16Z</time>
      </trkpt>
      <trkpt lat="59.9640261" lon="17.7673906">
        <ele>21.767</ele>
        <time>2013-05-03T16:50:17Z</time>
      </trkpt>
      <trkpt lat="59.9640385" lon="17.7673102">
        <ele>22.2476</ele>
        <time>2013-05-03T16:50:18Z</time>
      </trkpt>
      <trkpt lat="59.9640479" lon="17.7672248">
        <ele>22.2476</ele>
        <time>2013-05-03T16:50:19Z</time>
      </trkpt>
      <trkpt lat="59.9640562" lon="17.7671378">
        <ele>22.2476</ele>
        <time>2013-05-03T16:50:20Z</time>
      </trkpt>
      <trkpt lat="59.9640625" lon="17.7670513">
        <ele>22.2476</ele>
        <time>2013-05-03T16:50:21Z</time>
      </trkpt>
      <trkpt lat="59.9640665" lon="17.7669631">
        <ele>22.2476</ele>
        <time>2013-05-03T16:50:22Z</time>
      </trkpt>
      <trkpt lat="59.964069" lon="17.7668752">
        <ele>22.7283</ele>
        <time>2013-05-03T16:50:23Z</time>
      </trkpt>
      <trkpt lat="59.9640688" lon="17.7667861">
        <ele>22.7283</ele>
        <time>2013-05-03T16:50:24Z</time>
      </trkpt>
      <trkpt lat="59.9640675" lon="17.7666994">
        <ele>23.209</ele>
        <time>2013-05-03T16:50:25Z</time>
      </trkpt>
      <trkpt lat="59.9640655" lon="17.7666151">
        <ele>23.209</ele>
        <time>2013-05-03T16:50:26Z</time>
      </trkpt>
      <trkpt lat="59.9640623" lon="17.7665356">
        <ele>23.6896</ele>
        <time>2013-05-03T16:50:27Z</time>
      </trkpt>
      <trkpt lat="59.9640582" lon="17.7664571">
        <ele>23.6896</ele>
        <time>2013-05-03T16:50:28Z</time>
      </trkpt>
      <trkpt lat="59.9640562" lon="17.7663766">
        <ele>24.1703</ele>
        <time>2013-05-03T16:50:29Z</time>
      </trkpt>
      <trkpt lat="59.9640566" lon="17.7662961">
        <ele>24.651</ele>
        <time>2013-05-03T16:50:30Z</time>
      </trkpt>
      <trkpt lat="59.9640591" lon="17.7662207">
        <ele>24.1703</ele>
        <time>2013-05-03T16:50:31Z</time>
      </trkpt>
      <trkpt lat="59.9640619" lon="17.766141">
        <ele>23.6896</ele>
        <time>2013-05-03T16:50:32Z</time>
      </trkpt>
      <trkpt lat="59.9640657" lon="17.766051">
        <ele>22.7283</ele>
        <time>2013-05-03T16:50:33Z</time>
      </trkpt>
      <trkpt lat="59.9640693" lon="17.7659573">
        <ele>22.2476</ele>
        <time>2013-05-03T16:50:34Z</time>
      </trkpt>
      <trkpt lat="59.9640744" lon="17.7658666">
        <ele>22.2476</ele>
        <time>2013-05-03T16:50:35Z</time>
      </trkpt>
      <trkpt lat="59.9640799" lon="17.7657747">
        <ele>21.767</ele>
        <time>2013-05-03T16:50:36Z</time>
      </trkpt>
      <trkpt lat="59.9640894" lon="17.7656836">
        <ele>21.2864</ele>
        <time>2013-05-03T16:50:37Z</time>
      </trkpt>
      <trkpt lat="59.9640998" lon="17.7655665">
        <ele>20.8057</ele>
        <time>2013-05-03T16:50:38Z</time>
      </trkpt>
      <trkpt lat="59.9641118" lon="17.76543">
        <ele>20.8057</ele>
        <time>2013-05-03T16:50:39Z</time>
      </trkpt>
      <trkpt lat="59.9641309" lon="17.7653039">
        <ele>19.8444</ele>
        <time>2013-05-03T16:50:40Z</time>
      </trkpt>
      <trkpt lat="59.9641547" lon="17.7651785">
        <ele>19.3638</ele>
        <time>2013-05-03T16:50:41Z</time>
      </trkpt>
      <trkpt lat="59.9641804" lon="17.7650501">
        <ele>18.4023</ele>
        <time>2013-05-03T16:50:42Z</time>
      </trkpt>
      <trkpt lat="59.9642097" lon="17.7649197">
        <ele>17.9218</ele>
        <time>2013-05-03T16:50:43Z</time>
      </trkpt>
      <trkpt lat="59.964242" lon="17.7647922">
        <ele>17.4412</ele>
        <time>2013-05-03T16:50:44Z</time>
      </trkpt>
      <trkpt lat="59.9642753" lon="17.7646675">
        <ele>16.9604</ele>
        <time>2013-05-03T16:50:45Z</time>
      </trkpt>
      <trkpt lat="59.9643074" lon="17.764546">
        <ele>16.9604</ele>
        <time>2013-05-03T16:50:46Z</time>
      </trkpt>
      <trkpt lat="59.9643386" lon="17.7644276">
        <ele>16.4797</ele>
        <time>2013-05-03T16:50:47Z</time>
      </trkpt>
      <trkpt lat="59.9643619" lon="17.7642774">
        <ele>17.4412</ele>
        <time>2013-05-03T16:50:48Z</time>
      </trkpt>
      <trkpt lat="59.9643845" lon="17.7641312">
        <ele>18.4023</ele>
        <time>2013-05-03T16:50:49Z</time>
      </trkpt>
      <trkpt lat="59.9644132" lon="17.7640172">
        <ele>18.4023</ele>
        <time>2013-05-03T16:50:50Z</time>
      </trkpt>
      <trkpt lat="59.9644411" lon="17.7639053">
        <ele>18.8831</ele>
        <time>2013-05-03T16:50:51Z</time>
      </trkpt>
      <trkpt lat="59.9644678" lon="17.7637972">
        <ele>18.8831</ele>
        <time>2013-05-03T16:50:52Z</time>
      </trkpt>
      <trkpt lat="59.9644937" lon="17.7636889">
        <ele>18.8831</ele>
        <time>2013-05-03T16:50:53Z</time>
      </trkpt>
      <trkpt lat="59.9645193" lon="17.7635816">
        <ele>19.3638</ele>
        <time>2013-05-03T16:50:54Z</time>
      </trkpt>
      <trkpt lat="59.9645438" lon="17.7634738">
        <ele>19.3638</ele>
        <time>2013-05-03T16:50:55Z</time>
      </trkpt>
      <trkpt lat="59.9645683" lon="17.7633656">
        <ele>19.3638</ele>
        <time>2013-05-03T16:50:56Z</time>
      </trkpt>
      <trkpt lat="59.9645929" lon="17.7632599">
        <ele>19.3638</ele>
        <time>2013-05-03T16:50:57Z</time>
      </trkpt>
      <trkpt lat="59.9646178" lon="17.7631567">
        <ele>19.3638</ele>
        <time>2013-05-03T16:50:58Z</time>
      </trkpt>
      <trkpt lat="59.9646445" lon="17.7630621">
        <ele>19.3638</ele>
        <time>2013-05-03T16:50:59Z</time>
      </trkpt>
      <trkpt lat="59.964672" lon="17.7629688">
        <ele>18.8831</ele>
        <time>2013-05-03T16:51:00Z</time>
      </trkpt>
      <trkpt lat="59.9647004" lon="17.7628767">
        <ele>18.4023</ele>
        <time>2013-05-03T16:51:01Z</time>
      </trkpt>
      <trkpt lat="59.9647307" lon="17.762789">
        <ele>18.4023</ele>
        <time>2013-05-03T16:51:02Z</time>
      </trkpt>
      <trkpt lat="59.9647612" lon="17.7627017">
        <ele>17.9218</ele>
        <time>2013-05-03T16:51:03Z</time>
      </trkpt>
      <trkpt lat="59.9647904" lon="17.7626143">
        <ele>17.9218</ele>
        <time>2013-05-03T16:51:04Z</time>
      </trkpt>
      <trkpt lat="59.9648197" lon="17.7625327">
        <ele>16.9604</ele>
        <time>2013-05-03T16:51:05Z</time>
      </trkpt>
      <trkpt lat="59.9648514" lon="17.7624553">
        <ele>16.9604</ele>
        <time>2013-05-03T16:51:06Z</time>
      </trkpt>
      <trkpt lat="59.9648849" lon="17.7623803">
        <ele>16.4797</ele>
        <time>2013-05-03T16:51:07Z</time>
      </trkpt>
      <trkpt lat="59.9649177" lon="17.762303">
        <ele>16.4797</ele>
        <time>2013-05-03T16:51:08Z</time>
      </trkpt>
      <trkpt lat="59.9649499" lon="17.7622246">
        <ele>16.4797</ele>
        <time>2013-05-03T16:51:09Z</time>
      </trkpt>
      <trkpt lat="59.9649814" lon="17.7621467">
        <ele>16.4797</ele>
        <time>2013-05-03T16:51:10Z</time>
      </trkpt>
      <trkpt lat="59.965012" lon="17.7620709">
        <ele>15.999</ele>
        <time>2013-05-03T16:51:11Z</time>
      </trkpt>
      <trkpt lat="59.9650425" lon="17.761996">
        <ele>15.999</ele>
        <time>2013-05-03T16:51:12Z</time>
      </trkpt>
      <trkpt lat="59.9650726" lon="17.761923">
        <ele>15.999</ele>
        <time>2013-05-03T16:51:13Z</time>
      </trkpt>
      <trkpt lat="59.9651024" lon="17.7618488">
        <ele>15.999</ele>
        <time>2013-05-03T16:51:14Z</time>
      </trkpt>
      <trkpt lat="59.965133" lon="17.7617784">
        <ele>15.5184</ele>
        <time>2013-05-03T16:51:15Z</time>
      </trkpt>
      <trkpt lat="59.9651632" lon="17.7617054">
        <ele>15.5184</ele>
        <time>2013-05-03T16:51:16Z</time>
      </trkpt>
      <trkpt lat="59.9651938" lon="17.7616313">
        <ele>15.5184</ele>
        <time>2013-05-03T16:51:17Z</time>
      </trkpt>
      <trkpt lat="59.9652237" lon="17.7615579">
        <ele>15.0377</ele>
        <time>2013-05-03T16:51:18Z</time>
      </trkpt>
      <trkpt lat="59.9652507" lon="17.7614722">
        <ele>15.0377</ele>
        <time>2013-05-03T16:51:19Z</time>
      </trkpt>
      <trkpt lat="59.965279" lon="17.7613925">
        <ele>15.0377</ele>
        <time>2013-05-03T16:51:20Z</time>
      </trkpt>
      <trkpt lat="59.9653084" lon="17.7613113">
        <ele>15.0377</ele>
        <time>2013-05-03T16:51:21Z</time>
      </trkpt>
      <trkpt lat="59.9653389" lon="17.761233">
        <ele>15.0377</ele>
        <time>2013-05-03T16:51:22Z</time>
      </trkpt>
      <trkpt lat="59.9653714" lon="17.7611553">
        <ele>14.557</ele>
        <time>2013-05-03T16:51:23Z</time>
      </trkpt>
      <trkpt lat="59.9654057" lon="17.7610811">
        <ele>14.557</ele>
        <time>2013-05-03T16:51:24Z</time>
      </trkpt>
      <trkpt lat="59.9654409" lon="17.7610074">
        <ele>14.557</ele>
        <time>2013-05-03T16:51:25Z</time>
      </trkpt>
      <trkpt lat="59.965477" lon="17.7609313">
        <ele>14.557</ele>
        <time>2013-05-03T16:51:26Z</time>
      </trkpt>
      <trkpt lat="59.9655135" lon="17.7608575">
        <ele>14.557</ele>
        <time>2013-05-03T16:51:27Z</time>
      </trkpt>
      <trkpt lat="59.9655527" lon="17.7607927">
        <ele>14.557</ele>
        <time>2013-05-03T16:51:28Z</time>
      </trkpt>
      <trkpt lat="59.9655937" lon="17.7607322">
        <ele>14.557</ele>
        <time>2013-05-03T16:51:29Z</time>
      </trkpt>
      <trkpt lat="59.9656347" lon="17.7606715">
        <ele>14.557</ele>
        <time>2013-05-03T16:51:30Z</time>
      </trkpt>
      <trkpt lat="59.9656756" lon="17.7606134">
        <ele>14.0764</ele>
        <time>2013-05-03T16:51:31Z</time>
      </trkpt>
      <trkpt lat="59.9657149" lon="17.7605452">
        <ele>14.0764</ele>
        <time>2013-05-03T16:51:32Z</time>
      </trkpt>
      <trkpt lat="59.9657543" lon="17.7604757">
        <ele>14.0764</ele>
        <time>2013-05-03T16:51:33Z</time>
      </trkpt>
      <trkpt lat="59.9657955" lon="17.7604087">
        <ele>13.5958</ele>
        <time>2013-05-03T16:51:34Z</time>
      </trkpt>
      <trkpt lat="59.9658377" lon="17.7603406">
        <ele>13.1151</ele>
        <time>2013-05-03T16:51:35Z</time>
      </trkpt>
      <trkpt lat="59.9658803" lon="17.760273">
        <ele>13.1151</ele>
        <time>2013-05-03T16:51:36Z</time>
      </trkpt>
      <trkpt lat="59.9659226" lon="17.7602042">
        <ele>12.6344</ele>
        <time>2013-05-03T16:51:37Z</time>
      </trkpt>
      <trkpt lat="59.9659633" lon="17.7601348">
        <ele>12.6344</ele>
        <time>2013-05-03T16:51:38Z</time>
      </trkpt>
      <trkpt lat="59.9660028" lon="17.7600691">
        <ele>12.1538</ele>
        <time>2013-05-03T16:51:39Z</time>
      </trkpt>
      <trkpt lat="59.9660417" lon="17.7600036">
        <ele>11.6732</ele>
        <time>2013-05-03T16:51:40Z</time>
      </trkpt>
      <trkpt lat="59.9660799" lon="17.7599369">
        <ele>11.6732</ele>
        <time>2013-05-03T16:51:41Z</time>
      </trkpt>
      <trkpt lat="59.9661184" lon="17.7598784">
        <ele>11.1925</ele>
        <time>2013-05-03T16:51:42Z</time>
      </trkpt>
      <trkpt lat="59.9661562" lon="17.7598188">
        <ele>11.1925</ele>
        <time>2013-05-03T16:51:43Z</time>
      </trkpt>
      <trkpt lat="59.9661947" lon="17.7597622">
        <ele>10.7118</ele>
        <time>2013-05-03T16:51:44Z</time>
      </trkpt>
      <trkpt lat="59.9662349" lon="17.7597069">
        <ele>10.2312</ele>
        <time>2013-05-03T16:51:45Z</time>
      </trkpt>
      <trkpt lat="59.9662742" lon="17.7596422">
        <ele>10.2312</ele>
        <time>2013-05-03T16:51:46Z</time>
      </trkpt>
      <trkpt lat="59.9663142" lon="17.759577">
        <ele>10.2312</ele>
        <time>2013-05-03T16:51:47Z</time>
      </trkpt>
      <trkpt lat="59.9663565" lon="17.7595167">
        <ele>10.2312</ele>
        <time>2013-05-03T16:51:48Z</time>
      </trkpt>
      <trkpt lat="59.9664001" lon="17.7594557">
        <ele>9.75061</ele>
        <time>2013-05-03T16:51:49Z</time>
      </trkpt>
      <trkpt lat="59.9664448" lon="17.7593934">
        <ele>9.75061</ele>
        <time>2013-05-03T16:51:50Z</time>
      </trkpt>
      <trkpt lat="59.9664909" lon="17.7593275">
        <ele>9.75061</ele>
        <time>2013-05-03T16:51:51Z</time>
      </trkpt>
      <trkpt lat="59.9665391" lon="17.7592631">
        <ele>9.75061</ele>
        <time>2013-05-03T16:51:52Z</time>
      </trkpt>
      <trkpt lat="59.9665889" lon="17.7591992">
        <ele>9.75061</ele>
        <time>2013-05-03T16:51:53Z</time>
      </trkpt>
      <trkpt lat="59.9666396" lon="17.7591371">
        <ele>10.2312</ele>
        <time>2013-05-03T16:51:54Z</time>
      </trkpt>
      <trkpt lat="59.9666915" lon="17.759077">
        <ele>10.2312</ele>
        <time>2013-05-03T16:51:55Z</time>
      </trkpt>
      <trkpt lat="59.9667457" lon="17.7590185">
        <ele>10.2312</ele>
        <time>2013-05-03T16:51:56Z</time>
      </trkpt>
      <trkpt lat="59.9668017" lon="17.7589641">
        <ele>10.2312</ele>
        <time>2013-05-03T16:51:57Z</time>
      </trkpt>
      <trkpt lat="59.9668587" lon="17.7589139">
        <ele>10.2312</ele>
        <time>2013-05-03T16:51:58Z</time>
      </trkpt>
      <trkpt lat="59.966917" lon="17.7588614">
        <ele>10.7118</ele>
        <time>2013-05-03T16:51:59Z</time>
      </trkpt>
      <trkpt lat="59.9669751" lon="17.7588061">
        <ele>10.7118</ele>
        <time>2013-05-03T16:52:00Z</time>
      </trkpt>
      <trkpt lat="59.9670338" lon="17.7587546">
        <ele>11.1925</ele>
        <time>2013-05-03T16:52:01Z</time>
      </trkpt>
      <trkpt lat="59.9670927" lon="17.7587">
        <ele>11.6732</ele>
        <time>2013-05-03T16:52:02Z</time>
      </trkpt>
      <trkpt lat="59.9671508" lon="17.7586402">
        <ele>12.1538</ele>
        <time>2013-05-03T16:52:03Z</time>
      </trkpt>
      <trkpt lat="59.967209" lon="17.7585821">
        <ele>12.6344</ele>
        <time>2013-05-03T16:52:04Z</time>
      </trkpt>
      <trkpt lat="59.9672669" lon="17.7585228">
        <ele>13.1151</ele>
        <time>2013-05-03T16:52:05Z</time>
      </trkpt>
      <trkpt lat="59.9673245" lon="17.7584617">
        <ele>13.5958</ele>
        <time>2013-05-03T16:52:06Z</time>
      </trkpt>
      <trkpt lat="59.9673828" lon="17.7584005">
        <ele>14.0764</ele>
        <time>2013-05-03T16:52:07Z</time>
      </trkpt>
      <trkpt lat="59.9674415" lon="17.7583408">
        <ele>14.557</ele>
        <time>2013-05-03T16:52:08Z</time>
      </trkpt>
      <trkpt lat="59.9675011" lon="17.7582867">
        <ele>14.557</ele>
        <time>2013-05-03T16:52:09Z</time>
      </trkpt>
      <trkpt lat="59.9675601" lon="17.7582269">
        <ele>14.557</ele>
        <time>2013-05-03T16:52:10Z</time>
      </trkpt>
      <trkpt lat="59.9676181" lon="17.7581646">
        <ele>14.557</ele>
        <time>2013-05-03T16:52:11Z</time>
      </trkpt>
      <trkpt lat="59.9676746" lon="17.7580954">
        <ele>15.0377</ele>
        <time>2013-05-03T16:52:12Z</time>
      </trkpt>
      <trkpt lat="59.9677315" lon="17.7580294">
        <ele>15.0377</ele>
        <time>2013-05-03T16:52:13Z</time>
      </trkpt>
      <trkpt lat="59.9677883" lon="17.757969">
        <ele>15.5184</ele>
        <time>2013-05-03T16:52:14Z</time>
      </trkpt>
      <trkpt lat="59.9678403" lon="17.7578841">
        <ele>16.4797</ele>
        <time>2013-05-03T16:52:15Z</time>
      </trkpt>
      <trkpt lat="59.967888" lon="17.7577903">
        <ele>18.4023</ele>
        <time>2013-05-03T16:52:16Z</time>
      </trkpt>
      <trkpt lat="59.9679349" lon="17.7577152">
        <ele>19.3638</ele>
        <time>2013-05-03T16:52:17Z</time>
      </trkpt>
      <trkpt lat="59.9679801" lon="17.7576478">
        <ele>19.8444</ele>
        <time>2013-05-03T16:52:18Z</time>
      </trkpt>
      <trkpt lat="59.9680232" lon="17.7575805">
        <ele>20.8057</ele>
        <time>2013-05-03T16:52:19Z</time>
      </trkpt>
      <trkpt lat="59.9680661" lon="17.7575162">
        <ele>21.2864</ele>
        <time>2013-05-03T16:52:20Z</time>
      </trkpt>
      <trkpt lat="59.9681081" lon="17.7574484">
        <ele>22.2476</ele>
        <time>2013-05-03T16:52:21Z</time>
      </trkpt>
      <trkpt lat="59.9681499" lon="17.7573775">
        <ele>22.7283</ele>
        <time>2013-05-03T16:52:22Z</time>
      </trkpt>
      <trkpt lat="59.9681925" lon="17.7573172">
        <ele>23.209</ele>
        <time>2013-05-03T16:52:23Z</time>
      </trkpt>
      <trkpt lat="59.968234" lon="17.7572526">
        <ele>24.1703</ele>
        <time>2013-05-03T16:52:24Z</time>
      </trkpt>
      <trkpt lat="59.9682748" lon="17.7571947">
        <ele>24.1703</ele>
        <time>2013-05-03T16:52:25Z</time>
      </trkpt>
      <trkpt lat="59.9683139" lon="17.7571366">
        <ele>24.1703</ele>
        <time>2013-05-03T16:52:26Z</time>
      </trkpt>
      <trkpt lat="59.9683524" lon="17.7570791">
        <ele>24.651</ele>
        <time>2013-05-03T16:52:27Z</time>
      </trkpt>
      <trkpt lat="59.9683908" lon="17.7570217">
        <ele>24.1703</ele>
        <time>2013-05-03T16:52:28Z</time>
      </trkpt>
      <trkpt lat="59.9684292" lon="17.7569637">
        <ele>24.1703</ele>
        <time>2013-05-03T16:52:29Z</time>
      </trkpt>
      <trkpt lat="59.9684688" lon="17.7569071">
        <ele>24.1703</ele>
        <time>2013-05-03T16:52:30Z</time>
      </trkpt>
      <trkpt lat="59.9685092" lon="17.75685">
        <ele>24.1703</ele>
        <time>2013-05-03T16:52:31Z</time>
      </trkpt>
      <trkpt lat="59.9685485" lon="17.7567904">
        <ele>24.1703</ele>
        <time>2013-05-03T16:52:32Z</time>
      </trkpt>
      <trkpt lat="59.9685866" lon="17.7567276">
        <ele>24.1703</ele>
        <time>2013-05-03T16:52:33Z</time>
      </trkpt>
      <trkpt lat="59.9686238" lon="17.7566637">
        <ele>23.6896</ele>
        <time>2013-05-03T16:52:34Z</time>
      </trkpt>
      <trkpt lat="59.9686612" lon="17.7566024">
        <ele>23.6896</ele>
        <time>2013-05-03T16:52:35Z</time>
      </trkpt>
      <trkpt lat="59.9686988" lon="17.756541">
        <ele>23.6896</ele>
        <time>2013-05-03T16:52:36Z</time>
      </trkpt>
      <trkpt lat="59.968737" lon="17.7564796">
        <ele>23.6896</ele>
        <time>2013-05-03T16:52:37Z</time>
      </trkpt>
      <trkpt lat="59.9687758" lon="17.7564154">
        <ele>23.6896</ele>
        <time>2013-05-03T16:52:38Z</time>
      </trkpt>
      <trkpt lat="59.9688147" lon="17.7563462">
        <ele>23.209</ele>
        <time>2013-05-03T16:52:39Z</time>
      </trkpt>
      <trkpt lat="59.9688529" lon="17.756272">
        <ele>23.209</ele>
        <time>2013-05-03T16:52:40Z</time>
      </trkpt>
      <trkpt lat="59.9688911" lon="17.7561959">
        <ele>22.7283</ele>
        <time>2013-05-03T16:52:41Z</time>
      </trkpt>
      <trkpt lat="59.9689291" lon="17.7561099">
        <ele>22.7283</ele>
        <time>2013-05-03T16:52:42Z</time>
      </trkpt>
      <trkpt lat="59.968968" lon="17.7560332">
        <ele>22.7283</ele>
        <time>2013-05-03T16:52:43Z</time>
      </trkpt>
      <trkpt lat="59.9690051" lon="17.7559564">
        <ele>22.7283</ele>
        <time>2013-05-03T16:52:44Z</time>
      </trkpt>
      <trkpt lat="59.9690421" lon="17.7558876">
        <ele>22.2476</ele>
        <time>2013-05-03T16:52:45Z</time>
      </trkpt>
      <trkpt lat="59.9690793" lon="17.7558137">
        <ele>21.767</ele>
        <time>2013-05-03T16:52:46Z</time>
      </trkpt>
      <trkpt lat="59.9691125" lon="17.7557353">
        <ele>21.767</ele>
        <time>2013-05-03T16:52:47Z</time>
      </trkpt>
      <trkpt lat="59.9691465" lon="17.7556581">
        <ele>21.767</ele>
        <time>2013-05-03T16:52:48Z</time>
      </trkpt>
      <trkpt lat="59.9691821" lon="17.7555815">
        <ele>21.767</ele>
        <time>2013-05-03T16:52:49Z</time>
      </trkpt>
      <trkpt lat="59.9692182" lon="17.7555054">
        <ele>21.2864</ele>
        <time>2013-05-03T16:52:50Z</time>
      </trkpt>
      <trkpt lat="59.9692555" lon="17.7554259">
        <ele>21.2864</ele>
        <time>2013-05-03T16:52:51Z</time>
      </trkpt>
      <trkpt lat="59.9692931" lon="17.7553443">
        <ele>21.2864</ele>
        <time>2013-05-03T16:52:52Z</time>
      </trkpt>
      <trkpt lat="59.9693311" lon="17.755262">
        <ele>21.767</ele>
        <time>2013-05-03T16:52:53Z</time>
      </trkpt>
      <trkpt lat="59.9693705" lon="17.7551825">
        <ele>21.767</ele>
        <time>2013-05-03T16:52:54Z</time>
      </trkpt>
      <trkpt lat="59.96941" lon="17.7551012">
        <ele>21.767</ele>
        <time>2013-05-03T16:52:55Z</time>
      </trkpt>
      <trkpt lat="59.9694485" lon="17.7550195">
        <ele>21.767</ele>
        <time>2013-05-03T16:52:56Z</time>
      </trkpt>
      <trkpt lat="59.9694864" lon="17.7549407">
        <ele>21.767</ele>
        <time>2013-05-03T16:52:57Z</time>
      </trkpt>
      <trkpt lat="59.9695239" lon="17.7548603">
        <ele>22.2476</ele>
        <time>2013-05-03T16:52:58Z</time>
      </trkpt>
      <trkpt lat="59.9695606" lon="17.7547804">
        <ele>22.2476</ele>
        <time>2013-05-03T16:52:59Z</time>
      </trkpt>
      <trkpt lat="59.9695979" lon="17.7547003">
        <ele>22.2476</ele>
        <time>2013-05-03T16:53:00Z</time>
      </trkpt>
      <trkpt lat="59.9696368" lon="17.7546251">
        <ele>22.7283</ele>
        <time>2013-05-03T16:53:01Z</time>
      </trkpt>
      <trkpt lat="59.9696765" lon="17.7545508">
        <ele>22.7283</ele>
        <time>2013-05-03T16:53:02Z</time>
      </trkpt>
      <trkpt lat="59.9697163" lon="17.7544785">
        <ele>22.7283</ele>
        <time>2013-05-03T16:53:03Z</time>
      </trkpt>
      <trkpt lat="59.9697554" lon="17.7544024">
        <ele>22.7283</ele>
        <time>2013-05-03T16:53:04Z</time>
      </trkpt>
      <trkpt lat="59.9697937" lon="17.7543231">
        <ele>22.7283</ele>
        <time>2013-05-03T16:53:05Z</time>
      </trkpt>
      <trkpt lat="59.9698329" lon="17.7542427">
        <ele>22.7283</ele>
        <time>2013-05-03T16:53:06Z</time>
      </trkpt>
      <trkpt lat="59.969872" lon="17.7541609">
        <ele>22.7283</ele>
        <time>2013-05-03T16:53:07Z</time>
      </trkpt>
      <trkpt lat="59.9699102" lon="17.7540787">
        <ele>22.7283</ele>
        <time>2013-05-03T16:53:08Z</time>
      </trkpt>
      <trkpt lat="59.9699476" lon="17.7539952">
        <ele>22.7283</ele>
        <time>2013-05-03T16:53:09Z</time>
      </trkpt>
      <trkpt lat="59.9699847" lon="17.7539149">
        <ele>22.7283</ele>
        <time>2013-05-03T16:53:10Z</time>
      </trkpt>
      <trkpt lat="59.9700196" lon="17.7538335">
        <ele>22.7283</ele>
        <time>2013-05-03T16:53:11Z</time>
      </trkpt>
      <trkpt lat="59.9700528" lon="17.7537489">
        <ele>22.2476</ele>
        <time>2013-05-03T16:53:12Z</time>
      </trkpt>
      <trkpt lat="59.9700857" lon="17.7536633">
        <ele>22.2476</ele>
        <time>2013-05-03T16:53:13Z</time>
      </trkpt>
      <trkpt lat="59.9701184" lon="17.7535778">
        <ele>21.767</ele>
        <time>2013-05-03T16:53:14Z</time>
      </trkpt>
      <trkpt lat="59.9701504" lon="17.7534919">
        <ele>21.767</ele>
        <time>2013-05-03T16:53:15Z</time>
      </trkpt>
      <trkpt lat="59.9701818" lon="17.7534091">
        <ele>21.767</ele>
        <time>2013-05-03T16:53:16Z</time>
      </trkpt>
      <trkpt lat="59.9702146" lon="17.7533262">
        <ele>21.767</ele>
        <time>2013-05-03T16:53:17Z</time>
      </trkpt>
      <trkpt lat="59.9702444" lon="17.7532462">
        <ele>21.767</ele>
        <time>2013-05-03T16:53:18Z</time>
      </trkpt>
      <trkpt lat="59.9702729" lon="17.7531686">
        <ele>21.2864</ele>
        <time>2013-05-03T16:53:19Z</time>
      </trkpt>
      <trkpt lat="59.9703024" lon="17.7530914">
        <ele>20.8057</ele>
        <time>2013-05-03T16:53:20Z</time>
      </trkpt>
      <trkpt lat="59.970333" lon="17.7530169">
        <ele>20.325</ele>
        <time>2013-05-03T16:53:21Z</time>
      </trkpt>
      <trkpt lat="59.9703654" lon="17.7529386">
        <ele>20.325</ele>
        <time>2013-05-03T16:53:22Z</time>
      </trkpt>
      <trkpt lat="59.970398" lon="17.7528567">
        <ele>19.8444</ele>
        <time>2013-05-03T16:53:23Z</time>
      </trkpt>
      <trkpt lat="59.9704392" lon="17.7527535">
        <ele>19.8444</ele>
        <time>2013-05-03T16:53:24Z</time>
      </trkpt>
      <trkpt lat="59.970478" lon="17.7526589">
        <ele>19.8444</ele>
        <time>2013-05-03T16:53:25Z</time>
      </trkpt>
      <trkpt lat="59.9705094" lon="17.7525713">
        <ele>19.3638</ele>
        <time>2013-05-03T16:53:26Z</time>
      </trkpt>
      <trkpt lat="59.9705455" lon="17.7524693">
        <ele>19.3638</ele>
        <time>2013-05-03T16:53:27Z</time>
      </trkpt>
      <trkpt lat="59.9705744" lon="17.7523859">
        <ele>19.3638</ele>
        <time>2013-05-03T16:53:28Z</time>
      </trkpt>
      <trkpt lat="59.9706101" lon="17.7523072">
        <ele>18.8831</ele>
        <time>2013-05-03T16:53:29Z</time>
      </trkpt>
      <trkpt lat="59.9706581" lon="17.752223">
        <ele>19.3638</ele>
        <time>2013-05-03T16:53:30Z</time>
      </trkpt>
      <trkpt lat="59.9706959" lon="17.7521532">
        <ele>19.3638</ele>
        <time>2013-05-03T16:53:31Z</time>
      </trkpt>
      <trkpt lat="59.9707323" lon="17.752086">
        <ele>18.8831</ele>
        <time>2013-05-03T16:53:32Z</time>
      </trkpt>
      <trkpt lat="59.9707691" lon="17.7520229">
        <ele>18.8831</ele>
        <time>2013-05-03T16:53:33Z</time>
      </trkpt>
      <trkpt lat="59.970806" lon="17.7519604">
        <ele>18.4023</ele>
        <time>2013-05-03T16:53:34Z</time>
      </trkpt>
      <trkpt lat="59.9708433" lon="17.7519001">
        <ele>18.4023</ele>
        <time>2013-05-03T16:53:35Z</time>
      </trkpt>
      <trkpt lat="59.9708896" lon="17.7518227">
        <ele>18.8831</ele>
        <time>2013-05-03T16:53:36Z</time>
      </trkpt>
      <trkpt lat="59.9709297" lon="17.7517657">
        <ele>18.8831</ele>
        <time>2013-05-03T16:53:37Z</time>
      </trkpt>
      <trkpt lat="59.9709722" lon="17.7517133">
        <ele>18.8831</ele>
        <time>2013-05-03T16:53:38Z</time>
      </trkpt>
      <trkpt lat="59.9710161" lon="17.7516563">
        <ele>18.8831</ele>
        <time>2013-05-03T16:53:39Z</time>
      </trkpt>
      <trkpt lat="59.9710604" lon="17.7516084">
        <ele>18.4023</ele>
        <time>2013-05-03T16:53:40Z</time>
      </trkpt>
      <trkpt lat="59.9711046" lon="17.7515591">
        <ele>18.4023</ele>
        <time>2013-05-03T16:53:41Z</time>
      </trkpt>
      <trkpt lat="59.9711494" lon="17.7515157">
        <ele>18.4023</ele>
        <time>2013-05-03T16:53:42Z</time>
      </trkpt>
      <trkpt lat="59.9711959" lon="17.75147">
        <ele>18.4023</ele>
        <time>2013-05-03T16:53:43Z</time>
      </trkpt>
      <trkpt lat="59.9712426" lon="17.7514228">
        <ele>18.4023</ele>
        <time>2013-05-03T16:53:44Z</time>
      </trkpt>
      <trkpt lat="59.9712888" lon="17.7513723">
        <ele>18.4023</ele>
        <time>2013-05-03T16:53:45Z</time>
      </trkpt>
      <trkpt lat="59.9713353" lon="17.751326">
        <ele>18.4023</ele>
        <time>2013-05-03T16:53:46Z</time>
      </trkpt>
      <trkpt lat="59.9713814" lon="17.7512752">
        <ele>18.8831</ele>
        <time>2013-05-03T16:53:47Z</time>
      </trkpt>
      <trkpt lat="59.9714273" lon="17.7512218">
        <ele>18.8831</ele>
        <time>2013-05-03T16:53:48Z</time>
      </trkpt>
      <trkpt lat="59.9714731" lon="17.7511682">
        <ele>19.3638</ele>
        <time>2013-05-03T16:53:49Z</time>
      </trkpt>
      <trkpt lat="59.9715182" lon="17.7511138">
        <ele>19.8444</ele>
        <time>2013-05-03T16:53:50Z</time>
      </trkpt>
      <trkpt lat="59.9715611" lon="17.7510488">
        <ele>20.325</ele>
        <time>2013-05-03T16:53:51Z</time>
      </trkpt>
      <trkpt lat="59.9716025" lon="17.7509822">
        <ele>20.8057</ele>
        <time>2013-05-03T16:53:52Z</time>
      </trkpt>
      <trkpt lat="59.9716429" lon="17.7509127">
        <ele>21.2864</ele>
        <time>2013-05-03T16:53:53Z</time>
      </trkpt>
      <trkpt lat="59.9716822" lon="17.7508443">
        <ele>21.767</ele>
        <time>2013-05-03T16:53:54Z</time>
      </trkpt>
      <trkpt lat="59.9717213" lon="17.7507797">
        <ele>22.2476</ele>
        <time>2013-05-03T16:53:55Z</time>
      </trkpt>
      <trkpt lat="59.9717592" lon="17.7507151">
        <ele>22.7283</ele>
        <time>2013-05-03T16:53:56Z</time>
      </trkpt>
      <trkpt lat="59.9717958" lon="17.75065">
        <ele>23.209</ele>
        <time>2013-05-03T16:53:57Z</time>
      </trkpt>
      <trkpt lat="59.971831" lon="17.7505835">
        <ele>23.209</ele>
        <time>2013-05-03T16:53:58Z</time>
      </trkpt>
      <trkpt lat="59.9718658" lon="17.7505205">
        <ele>23.6896</ele>
        <time>2013-05-03T16:53:59Z</time>
      </trkpt>
      <trkpt lat="59.9718999" lon="17.7504568">
        <ele>23.6896</ele>
        <time>2013-05-03T16:54:00Z</time>
      </trkpt>
      <trkpt lat="59.9719321" lon="17.7503862">
        <ele>24.651</ele>
        <time>2013-05-03T16:54:01Z</time>
      </trkpt>
      <trkpt lat="59.971963" lon="17.7503206">
        <ele>25.1317</ele>
        <time>2013-05-03T16:54:02Z</time>
      </trkpt>
      <trkpt lat="59.9719902" lon="17.7502639">
        <ele>24.651</ele>
        <time>2013-05-03T16:54:03Z</time>
      </trkpt>
      <trkpt lat="59.9720175" lon="17.7502071">
        <ele>24.651</ele>
        <time>2013-05-03T16:54:04Z</time>
      </trkpt>
      <trkpt lat="59.972046" lon="17.7501503">
        <ele>25.1317</ele>
        <time>2013-05-03T16:54:05Z</time>
      </trkpt>
      <trkpt lat="59.972073" lon="17.750088">
        <ele>25.6123</ele>
        <time>2013-05-03T16:54:06Z</time>
      </trkpt>
      <trkpt lat="59.9721014" lon="17.7500394">
        <ele>25.6123</ele>
        <time>2013-05-03T16:54:07Z</time>
      </trkpt>
      <trkpt lat="59.9721293" lon="17.7499834">
        <ele>26.0929</ele>
        <time>2013-05-03T16:54:08Z</time>
      </trkpt>
      <trkpt lat="59.9721587" lon="17.7499145">
        <ele>26.5736</ele>
        <time>2013-05-03T16:54:09Z</time>
      </trkpt>
      <trkpt lat="59.9721842" lon="17.7498609">
        <ele>26.0929</ele>
        <time>2013-05-03T16:54:10Z</time>
      </trkpt>
      <trkpt lat="59.9722081" lon="17.7498109">
        <ele>25.6123</ele>
        <time>2013-05-03T16:54:11Z</time>
      </trkpt>
      <trkpt lat="59.9722273" lon="17.7497418">
        <ele>25.6123</ele>
        <time>2013-05-03T16:54:12Z</time>
      </trkpt>
      <trkpt lat="59.9722473" lon="17.7496763">
        <ele>25.1317</ele>
        <time>2013-05-03T16:54:13Z</time>
      </trkpt>
      <trkpt lat="59.972274" lon="17.7496191">
        <ele>24.1703</ele>
        <time>2013-05-03T16:54:14Z</time>
      </trkpt>
      <trkpt lat="59.9723043" lon="17.7495574">
        <ele>23.6896</ele>
        <time>2013-05-03T16:54:15Z</time>
      </trkpt>
      <trkpt lat="59.972335" lon="17.7494918">
        <ele>23.209</ele>
        <time>2013-05-03T16:54:16Z</time>
      </trkpt>
      <trkpt lat="59.972364" lon="17.7494379">
        <ele>21.767</ele>
        <time>2013-05-03T16:54:17Z</time>
      </trkpt>
      <trkpt lat="59.972394" lon="17.7493802">
        <ele>20.8057</ele>
        <time>2013-05-03T16:54:18Z</time>
      </trkpt>
      <trkpt lat="59.9724241" lon="17.7493187">
        <ele>19.8444</ele>
        <time>2013-05-03T16:54:19Z</time>
      </trkpt>
      <trkpt lat="59.9724535" lon="17.7492612">
        <ele>18.8831</ele>
        <time>2013-05-03T16:54:20Z</time>
      </trkpt>
      <trkpt lat="59.9724838" lon="17.7492023">
        <ele>18.4023</ele>
        <time>2013-05-03T16:54:21Z</time>
      </trkpt>
      <trkpt lat="59.9725203" lon="17.7491188">
        <ele>18.8831</ele>
        <time>2013-05-03T16:54:22Z</time>
      </trkpt>
      <trkpt lat="59.9725568" lon="17.7489967">
        <ele>20.8057</ele>
        <time>2013-05-03T16:54:23Z</time>
      </trkpt>
      <trkpt lat="59.9725924" lon="17.748894">
        <ele>22.2476</ele>
        <time>2013-05-03T16:54:24Z</time>
      </trkpt>
      <trkpt lat="59.9726276" lon="17.7488256">
        <ele>22.2476</ele>
        <time>2013-05-03T16:54:25Z</time>
      </trkpt>
      <trkpt lat="59.9726588" lon="17.7487319">
        <ele>22.7283</ele>
        <time>2013-05-03T16:54:26Z</time>
      </trkpt>
      <trkpt lat="59.9726888" lon="17.7486483">
        <ele>22.2476</ele>
        <time>2013-05-03T16:54:27Z</time>
      </trkpt>
      <trkpt lat="59.9727209" lon="17.748565">
        <ele>21.767</ele>
        <time>2013-05-03T16:54:28Z</time>
      </trkpt>
      <trkpt lat="59.9727556" lon="17.7484921">
        <ele>21.2864</ele>
        <time>2013-05-03T16:54:29Z</time>
      </trkpt>
      <trkpt lat="59.9727935" lon="17.7484174">
        <ele>21.2864</ele>
        <time>2013-05-03T16:54:30Z</time>
      </trkpt>
      <trkpt lat="59.9728328" lon="17.7483217">
        <ele>21.767</ele>
        <time>2013-05-03T16:54:31Z</time>
      </trkpt>
      <trkpt lat="59.9728804" lon="17.7482408">
        <ele>22.2476</ele>
        <time>2013-05-03T16:54:32Z</time>
      </trkpt>
      <trkpt lat="59.972929" lon="17.7481634">
        <ele>22.7283</ele>
        <time>2013-05-03T16:54:33Z</time>
      </trkpt>
      <trkpt lat="59.9729779" lon="17.7480895">
        <ele>23.209</ele>
        <time>2013-05-03T16:54:34Z</time>
      </trkpt>
      <trkpt lat="59.9730274" lon="17.7480183">
        <ele>23.6896</ele>
        <time>2013-05-03T16:54:35Z</time>
      </trkpt>
      <trkpt lat="59.9730779" lon="17.7479455">
        <ele>24.1703</ele>
        <time>2013-05-03T16:54:36Z</time>
      </trkpt>
      <trkpt lat="59.9731285" lon="17.7478797">
        <ele>24.651</ele>
        <time>2013-05-03T16:54:37Z</time>
      </trkpt>
      <trkpt lat="59.9731738" lon="17.7478205">
        <ele>24.1703</ele>
        <time>2013-05-03T16:54:38Z</time>
      </trkpt>
      <trkpt lat="59.9732219" lon="17.7477636">
        <ele>24.1703</ele>
        <time>2013-05-03T16:54:39Z</time>
      </trkpt>
      <trkpt lat="59.9732719" lon="17.7477092">
        <ele>25.1317</ele>
        <time>2013-05-03T16:54:40Z</time>
      </trkpt>
      <trkpt lat="59.9733191" lon="17.7476606">
        <ele>25.6123</ele>
        <time>2013-05-03T16:54:41Z</time>
      </trkpt>
      <trkpt lat="59.9733639" lon="17.7476159">
        <ele>25.6123</ele>
        <time>2013-05-03T16:54:42Z</time>
      </trkpt>
      <trkpt lat="59.9734046" lon="17.7475737">
        <ele>25.6123</ele>
        <time>2013-05-03T16:54:43Z</time>
      </trkpt>
      <trkpt lat="59.973445" lon="17.7475301">
        <ele>25.6123</ele>
        <time>2013-05-03T16:54:44Z</time>
      </trkpt>
      <trkpt lat="59.9734849" lon="17.7474889">
        <ele>26.0929</ele>
        <time>2013-05-03T16:54:45Z</time>
      </trkpt>
      <trkpt lat="59.9735254" lon="17.7474532">
        <ele>26.0929</ele>
        <time>2013-05-03T16:54:46Z</time>
      </trkpt>
      <trkpt lat="59.9735648" lon="17.7474162">
        <ele>26.0929</ele>
        <time>2013-05-03T16:54:47Z</time>
      </trkpt>
      <trkpt lat="59.9736031" lon="17.7473777">
        <ele>26.5736</ele>
        <time>2013-05-03T16:54:48Z</time>
      </trkpt>
      <trkpt lat="59.9736404" lon="17.7473379">
        <ele>26.5736</ele>
        <time>2013-05-03T16:54:49Z</time>
      </trkpt>
      <trkpt lat="59.9736772" lon="17.747303">
        <ele>26.5736</ele>
        <time>2013-05-03T16:54:50Z</time>
      </trkpt>
      <trkpt lat="59.973712" lon="17.7472597">
        <ele>27.0543</ele>
        <time>2013-05-03T16:54:51Z</time>
      </trkpt>
      <trkpt lat="59.9737472" lon="17.7472144">
        <ele>27.0543</ele>
        <time>2013-05-03T16:54:52Z</time>
      </trkpt>
      <trkpt lat="59.9737823" lon="17.7471777">
        <ele>26.5736</ele>
        <time>2013-05-03T16:54:53Z</time>
      </trkpt>
      <trkpt lat="59.973816" lon="17.747138">
        <ele>26.5736</ele>
        <time>2013-05-03T16:54:54Z</time>
      </trkpt>
      <trkpt lat="59.9738529" lon="17.7470929">
        <ele>26.5736</ele>
        <time>2013-05-03T16:54:55Z</time>
      </trkpt>
      <trkpt lat="59.9738912" lon="17.7470468">
        <ele>27.0543</ele>
        <time>2013-05-03T16:54:56Z</time>
      </trkpt>
      <trkpt lat="59.9739315" lon="17.747">
        <ele>27.0543</ele>
        <time>2013-05-03T16:54:57Z</time>
      </trkpt>
      <trkpt lat="59.9739715" lon="17.7469514">
        <ele>27.5349</ele>
        <time>2013-05-03T16:54:58Z</time>
      </trkpt>
      <trkpt lat="59.9740113" lon="17.7469005">
        <ele>27.5349</ele>
        <time>2013-05-03T16:54:59Z</time>
      </trkpt>
      <trkpt lat="59.9740502" lon="17.7468484">
        <ele>27.5349</ele>
        <time>2013-05-03T16:55:00Z</time>
      </trkpt>
      <trkpt lat="59.9740884" lon="17.746797">
        <ele>27.5349</ele>
        <time>2013-05-03T16:55:01Z</time>
      </trkpt>
      <trkpt lat="59.9741264" lon="17.7467453">
        <ele>27.5349</ele>
        <time>2013-05-03T16:55:02Z</time>
      </trkpt>
      <trkpt lat="59.9741653" lon="17.746694">
        <ele>27.5349</ele>
        <time>2013-05-03T16:55:03Z</time>
      </trkpt>
      <trkpt lat="59.9742051" lon="17.7466454">
        <ele>28.0155</ele>
        <time>2013-05-03T16:55:04Z</time>
      </trkpt>
      <trkpt lat="59.974245" lon="17.7465966">
        <ele>28.0155</ele>
        <time>2013-05-03T16:55:05Z</time>
      </trkpt>
      <trkpt lat="59.9742839" lon="17.7465457">
        <ele>28.0155</ele>
        <time>2013-05-03T16:55:06Z</time>
      </trkpt>
      <trkpt lat="59.9743232" lon="17.7464961">
        <ele>28.4962</ele>
        <time>2013-05-03T16:55:07Z</time>
      </trkpt>
      <trkpt lat="59.9743626" lon="17.7464475">
        <ele>28.4962</ele>
        <time>2013-05-03T16:55:08Z</time>
      </trkpt>
      <trkpt lat="59.9744012" lon="17.7463972">
        <ele>28.4962</ele>
        <time>2013-05-03T16:55:09Z</time>
      </trkpt>
      <trkpt lat="59.9744378" lon="17.7463458">
        <ele>28.9769</ele>
        <time>2013-05-03T16:55:10Z</time>
      </trkpt>
      <trkpt lat="59.974473" lon="17.7462946">
        <ele>28.9769</ele>
        <time>2013-05-03T16:55:11Z</time>
      </trkpt>
      <trkpt lat="59.9745076" lon="17.7462453">
        <ele>28.9769</ele>
        <time>2013-05-03T16:55:12Z</time>
      </trkpt>
      <trkpt lat="59.9745418" lon="17.746196">
        <ele>28.9769</ele>
        <time>2013-05-03T16:55:13Z</time>
      </trkpt>
      <trkpt lat="59.9745744" lon="17.7461428">
        <ele>29.4575</ele>
        <time>2013-05-03T16:55:14Z</time>
      </trkpt>
      <trkpt lat="59.9746065" lon="17.7460911">
        <ele>29.4575</ele>
        <time>2013-05-03T16:55:15Z</time>
      </trkpt>
      <trkpt lat="59.9746377" lon="17.7460344">
        <ele>29.4575</ele>
        <time>2013-05-03T16:55:16Z</time>
      </trkpt>
      <trkpt lat="59.9746692" lon="17.7459739">
        <ele>29.4575</ele>
        <time>2013-05-03T16:55:17Z</time>
      </trkpt>
      <trkpt lat="59.9747015" lon="17.7459134">
        <ele>29.4575</ele>
        <time>2013-05-03T16:55:18Z</time>
      </trkpt>
      <trkpt lat="59.9747349" lon="17.7458506">
        <ele>29.4575</ele>
        <time>2013-05-03T16:55:19Z</time>
      </trkpt>
      <trkpt lat="59.974768" lon="17.7457817">
        <ele>29.4575</ele>
        <time>2013-05-03T16:55:20Z</time>
      </trkpt>
      <trkpt lat="59.9748003" lon="17.7457055">
        <ele>29.4575</ele>
        <time>2013-05-03T16:55:21Z</time>
      </trkpt>
      <trkpt lat="59.9748324" lon="17.7456305">
        <ele>29.4575</ele>
        <time>2013-05-03T16:55:22Z</time>
      </trkpt>
      <trkpt lat="59.9748641" lon="17.7455583">
        <ele>29.4575</ele>
        <time>2013-05-03T16:55:23Z</time>
      </trkpt>
      <trkpt lat="59.9748941" lon="17.7454813">
        <ele>28.9769</ele>
        <time>2013-05-03T16:55:24Z</time>
      </trkpt>
      <trkpt lat="59.9749218" lon="17.7453985">
        <ele>29.4575</ele>
        <time>2013-05-03T16:55:25Z</time>
      </trkpt>
      <trkpt lat="59.9749483" lon="17.7453156">
        <ele>29.4575</ele>
        <time>2013-05-03T16:55:26Z</time>
      </trkpt>
      <trkpt lat="59.974975" lon="17.7452361">
        <ele>28.9769</ele>
        <time>2013-05-03T16:55:27Z</time>
      </trkpt>
      <trkpt lat="59.9750028" lon="17.7451584">
        <ele>28.9769</ele>
        <time>2013-05-03T16:55:28Z</time>
      </trkpt>
      <trkpt lat="59.9750297" lon="17.7450795">
        <ele>28.9769</ele>
        <time>2013-05-03T16:55:29Z</time>
      </trkpt>
      <trkpt lat="59.9750546" lon="17.7449973">
        <ele>28.9769</ele>
        <time>2013-05-03T16:55:30Z</time>
      </trkpt>
      <trkpt lat="59.9750806" lon="17.7449166">
        <ele>28.4962</ele>
        <time>2013-05-03T16:55:31Z</time>
      </trkpt>
      <trkpt lat="59.9751058" lon="17.7448315">
        <ele>28.4962</ele>
        <time>2013-05-03T16:55:32Z</time>
      </trkpt>
      <trkpt lat="59.9751287" lon="17.7447451">
        <ele>28.4962</ele>
        <time>2013-05-03T16:55:33Z</time>
      </trkpt>
      <trkpt lat="59.9751497" lon="17.7446593">
        <ele>28.4962</ele>
        <time>2013-05-03T16:55:34Z</time>
      </trkpt>
      <trkpt lat="59.9751701" lon="17.7445775">
        <ele>28.4962</ele>
        <time>2013-05-03T16:55:35Z</time>
      </trkpt>
      <trkpt lat="59.9751897" lon="17.7444985">
        <ele>28.4962</ele>
        <time>2013-05-03T16:55:36Z</time>
      </trkpt>
      <trkpt lat="59.9752064" lon="17.7444202">
        <ele>28.4962</ele>
        <time>2013-05-03T16:55:37Z</time>
      </trkpt>
      <trkpt lat="59.9752233" lon="17.7443425">
        <ele>28.4962</ele>
        <time>2013-05-03T16:55:38Z</time>
      </trkpt>
      <trkpt lat="59.9752404" lon="17.7442677">
        <ele>28.4962</ele>
        <time>2013-05-03T16:55:39Z</time>
      </trkpt>
      <trkpt lat="59.975256" lon="17.744191">
        <ele>28.4962</ele>
        <time>2013-05-03T16:55:40Z</time>
      </trkpt>
      <trkpt lat="59.9752722" lon="17.7441108">
        <ele>28.0155</ele>
        <time>2013-05-03T16:55:41Z</time>
      </trkpt>
      <trkpt lat="59.9752878" lon="17.7440294">
        <ele>28.0155</ele>
        <time>2013-05-03T16:55:42Z</time>
      </trkpt>
      <trkpt lat="59.9753016" lon="17.7439502">
        <ele>28.0155</ele>
        <time>2013-05-03T16:55:43Z</time>
      </trkpt>
      <trkpt lat="59.9753152" lon="17.7438677">
        <ele>27.5349</ele>
        <time>2013-05-03T16:55:44Z</time>
      </trkpt>
      <trkpt lat="59.9753303" lon="17.7437854">
        <ele>27.5349</ele>
        <time>2013-05-03T16:55:45Z</time>
      </trkpt>
      <trkpt lat="59.9753468" lon="17.7437009">
        <ele>28.0155</ele>
        <time>2013-05-03T16:55:46Z</time>
      </trkpt>
      <trkpt lat="59.9753623" lon="17.7436145">
        <ele>28.0155</ele>
        <time>2013-05-03T16:55:47Z</time>
      </trkpt>
      <trkpt lat="59.9753767" lon="17.7435305">
        <ele>28.0155</ele>
        <time>2013-05-03T16:55:48Z</time>
      </trkpt>
      <trkpt lat="59.9753928" lon="17.7434462">
        <ele>28.0155</ele>
        <time>2013-05-03T16:55:49Z</time>
      </trkpt>
      <trkpt lat="59.9754104" lon="17.7433615">
        <ele>28.0155</ele>
        <time>2013-05-03T16:55:50Z</time>
      </trkpt>
      <trkpt lat="59.9754291" lon="17.7432762">
        <ele>28.0155</ele>
        <time>2013-05-03T16:55:51Z</time>
      </trkpt>
      <trkpt lat="59.9754493" lon="17.74319">
        <ele>28.0155</ele>
        <time>2013-05-03T16:55:52Z</time>
      </trkpt>
      <trkpt lat="59.975471" lon="17.7431037">
        <ele>28.0155</ele>
        <time>2013-05-03T16:55:53Z</time>
      </trkpt>
      <trkpt lat="59.975493" lon="17.7430187">
        <ele>28.0155</ele>
        <time>2013-05-03T16:55:54Z</time>
      </trkpt>
      <trkpt lat="59.9755161" lon="17.7429353">
        <ele>28.0155</ele>
        <time>2013-05-03T16:55:55Z</time>
      </trkpt>
      <trkpt lat="59.9755403" lon="17.7428513">
        <ele>28.0155</ele>
        <time>2013-05-03T16:55:56Z</time>
      </trkpt>
      <trkpt lat="59.9755649" lon="17.7427648">
        <ele>28.0155</ele>
        <time>2013-05-03T16:55:57Z</time>
      </trkpt>
      <trkpt lat="59.9755902" lon="17.7426778">
        <ele>28.0155</ele>
        <time>2013-05-03T16:55:58Z</time>
      </trkpt>
      <trkpt lat="59.9756144" lon="17.7425883">
        <ele>28.0155</ele>
        <time>2013-05-03T16:55:59Z</time>
      </trkpt>
      <trkpt lat="59.9756365" lon="17.7424966">
        <ele>28.0155</ele>
        <time>2013-05-03T16:56:00Z</time>
      </trkpt>
      <trkpt lat="59.9756576" lon="17.7424054">
        <ele>28.0155</ele>
        <time>2013-05-03T16:56:01Z</time>
      </trkpt>
      <trkpt lat="59.9756783" lon="17.7423156">
        <ele>28.4962</ele>
        <time>2013-05-03T16:56:02Z</time>
      </trkpt>
      <trkpt lat="59.9757" lon="17.7422256">
        <ele>28.4962</ele>
        <time>2013-05-03T16:56:03Z</time>
      </trkpt>
      <trkpt lat="59.9757213" lon="17.7421345">
        <ele>28.0155</ele>
        <time>2013-05-03T16:56:04Z</time>
      </trkpt>
      <trkpt lat="59.975744" lon="17.7420416">
        <ele>28.0155</ele>
        <time>2013-05-03T16:56:05Z</time>
      </trkpt>
      <trkpt lat="59.9757669" lon="17.7419454">
        <ele>28.4962</ele>
        <time>2013-05-03T16:56:06Z</time>
      </trkpt>
      <trkpt lat="59.9757882" lon="17.7418506">
        <ele>28.0155</ele>
        <time>2013-05-03T16:56:07Z</time>
      </trkpt>
      <trkpt lat="59.9758099" lon="17.7417588">
        <ele>28.0155</ele>
        <time>2013-05-03T16:56:08Z</time>
      </trkpt>
      <trkpt lat="59.9758314" lon="17.7416657">
        <ele>28.0155</ele>
        <time>2013-05-03T16:56:09Z</time>
      </trkpt>
      <trkpt lat="59.9758518" lon="17.7415704">
        <ele>28.0155</ele>
        <time>2013-05-03T16:56:10Z</time>
      </trkpt>
      <trkpt lat="59.9758729" lon="17.741475">
        <ele>28.0155</ele>
        <time>2013-05-03T16:56:11Z</time>
      </trkpt>
      <trkpt lat="59.9758972" lon="17.7413795">
        <ele>28.0155</ele>
        <time>2013-05-03T16:56:12Z</time>
      </trkpt>
      <trkpt lat="59.9759219" lon="17.7412825">
        <ele>28.0155</ele>
        <time>2013-05-03T16:56:13Z</time>
      </trkpt>
      <trkpt lat="59.9759471" lon="17.7411849">
        <ele>28.0155</ele>
        <time>2013-05-03T16:56:14Z</time>
      </trkpt>
      <trkpt lat="59.9759721" lon="17.7410889">
        <ele>28.0155</ele>
        <time>2013-05-03T16:56:15Z</time>
      </trkpt>
      <trkpt lat="59.9759958" lon="17.7409948">
        <ele>27.5349</ele>
        <time>2013-05-03T16:56:16Z</time>
      </trkpt>
      <trkpt lat="59.9760201" lon="17.7409066">
        <ele>27.5349</ele>
        <time>2013-05-03T16:56:17Z</time>
      </trkpt>
      <trkpt lat="59.9760455" lon="17.7408204">
        <ele>27.5349</ele>
        <time>2013-05-03T16:56:18Z</time>
      </trkpt>
      <trkpt lat="59.9760714" lon="17.740736">
        <ele>27.5349</ele>
        <time>2013-05-03T16:56:19Z</time>
      </trkpt>
      <trkpt lat="59.9760969" lon="17.7406499">
        <ele>27.5349</ele>
        <time>2013-05-03T16:56:20Z</time>
      </trkpt>
      <trkpt lat="59.9761229" lon="17.7405644">
        <ele>27.5349</ele>
        <time>2013-05-03T16:56:21Z</time>
      </trkpt>
      <trkpt lat="59.9761497" lon="17.7404799">
        <ele>27.5349</ele>
        <time>2013-05-03T16:56:22Z</time>
      </trkpt>
      <trkpt lat="59.9761777" lon="17.7403972">
        <ele>27.5349</ele>
        <time>2013-05-03T16:56:23Z</time>
      </trkpt>
      <trkpt lat="59.9762057" lon="17.7403119">
        <ele>27.5349</ele>
        <time>2013-05-03T16:56:24Z</time>
      </trkpt>
      <trkpt lat="59.9762336" lon="17.7402313">
        <ele>27.0543</ele>
        <time>2013-05-03T16:56:25Z</time>
      </trkpt>
      <trkpt lat="59.9762598" lon="17.7401469">
        <ele>27.0543</ele>
        <time>2013-05-03T16:56:26Z</time>
      </trkpt>
      <trkpt lat="59.9762859" lon="17.7400638">
        <ele>26.5736</ele>
        <time>2013-05-03T16:56:27Z</time>
      </trkpt>
      <trkpt lat="59.9763139" lon="17.7399816">
        <ele>26.5736</ele>
        <time>2013-05-03T16:56:28Z</time>
      </trkpt>
      <trkpt lat="59.976345" lon="17.7398994">
        <ele>26.5736</ele>
        <time>2013-05-03T16:56:29Z</time>
      </trkpt>
      <trkpt lat="59.9763802" lon="17.7398173">
        <ele>26.0929</ele>
        <time>2013-05-03T16:56:30Z</time>
      </trkpt>
      <trkpt lat="59.9764207" lon="17.7397398">
        <ele>26.0929</ele>
        <time>2013-05-03T16:56:31Z</time>
      </trkpt>
      <trkpt lat="59.9764676" lon="17.739667">
        <ele>26.0929</ele>
        <time>2013-05-03T16:56:32Z</time>
      </trkpt>
      <trkpt lat="59.976521" lon="17.7395958">
        <ele>26.0929</ele>
        <time>2013-05-03T16:56:33Z</time>
      </trkpt>
      <trkpt lat="59.9765807" lon="17.7395269">
        <ele>25.6123</ele>
        <time>2013-05-03T16:56:34Z</time>
      </trkpt>
      <trkpt lat="59.9766466" lon="17.7394663">
        <ele>25.6123</ele>
        <time>2013-05-03T16:56:35Z</time>
      </trkpt>
      <trkpt lat="59.9767168" lon="17.7394191">
        <ele>25.6123</ele>
        <time>2013-05-03T16:56:36Z</time>
      </trkpt>
      <trkpt lat="59.9767879" lon="17.7393865">
        <ele>25.6123</ele>
        <time>2013-05-03T16:56:37Z</time>
      </trkpt>
      <trkpt lat="59.9768578" lon="17.7393549">
        <ele>25.6123</ele>
        <time>2013-05-03T16:56:38Z</time>
      </trkpt>
      <trkpt lat="59.9769277" lon="17.7393212">
        <ele>25.6123</ele>
        <time>2013-05-03T16:56:39Z</time>
      </trkpt>
      <trkpt lat="59.976996" lon="17.7392883">
        <ele>25.1317</ele>
        <time>2013-05-03T16:56:40Z</time>
      </trkpt>
      <trkpt lat="59.9770635" lon="17.7392567">
        <ele>24.651</ele>
        <time>2013-05-03T16:56:41Z</time>
      </trkpt>
      <trkpt lat="59.9771319" lon="17.7392192">
        <ele>24.651</ele>
        <time>2013-05-03T16:56:42Z</time>
      </trkpt>
      <trkpt lat="59.9772039" lon="17.7391814">
        <ele>24.1703</ele>
        <time>2013-05-03T16:56:43Z</time>
      </trkpt>
      <trkpt lat="59.9772784" lon="17.7391429">
        <ele>24.651</ele>
        <time>2013-05-03T16:56:44Z</time>
      </trkpt>
      <trkpt lat="59.9773557" lon="17.7391041">
        <ele>24.651</ele>
        <time>2013-05-03T16:56:45Z</time>
      </trkpt>
      <trkpt lat="59.9774328" lon="17.7390688">
        <ele>25.1317</ele>
        <time>2013-05-03T16:56:46Z</time>
      </trkpt>
      <trkpt lat="59.9775121" lon="17.739044">
        <ele>25.6123</ele>
        <time>2013-05-03T16:56:47Z</time>
      </trkpt>
      <trkpt lat="59.9775892" lon="17.7390335">
        <ele>26.5736</ele>
        <time>2013-05-03T16:56:48Z</time>
      </trkpt>
      <trkpt lat="59.9776649" lon="17.7390352">
        <ele>27.0543</ele>
        <time>2013-05-03T16:56:49Z</time>
      </trkpt>
      <trkpt lat="59.9777362" lon="17.7390517">
        <ele>27.5349</ele>
        <time>2013-05-03T16:56:50Z</time>
      </trkpt>
      <trkpt lat="59.9778007" lon="17.7390783">
        <ele>28.0155</ele>
        <time>2013-05-03T16:56:51Z</time>
      </trkpt>
      <trkpt lat="59.9778603" lon="17.7391096">
        <ele>28.4962</ele>
        <time>2013-05-03T16:56:52Z</time>
      </trkpt>
      <trkpt lat="59.9779165" lon="17.7391426">
        <ele>28.9769</ele>
        <time>2013-05-03T16:56:53Z</time>
      </trkpt>
      <trkpt lat="59.9779695" lon="17.7391772">
        <ele>28.9769</ele>
        <time>2013-05-03T16:56:54Z</time>
      </trkpt>
      <trkpt lat="59.9780197" lon="17.7392071">
        <ele>29.4575</ele>
        <time>2013-05-03T16:56:55Z</time>
      </trkpt>
      <trkpt lat="59.978068" lon="17.7392319">
        <ele>29.4575</ele>
        <time>2013-05-03T16:56:56Z</time>
      </trkpt>
      <trkpt lat="59.9781159" lon="17.7392507">
        <ele>29.4575</ele>
        <time>2013-05-03T16:56:57Z</time>
      </trkpt>
      <trkpt lat="59.9781627" lon="17.7392678">
        <ele>29.4575</ele>
        <time>2013-05-03T16:56:58Z</time>
      </trkpt>
      <trkpt lat="59.9782104" lon="17.739284">
        <ele>28.9769</ele>
        <time>2013-05-03T16:56:59Z</time>
      </trkpt>
      <trkpt lat="59.9782578" lon="17.7393014">
        <ele>28.9769</ele>
        <time>2013-05-03T16:57:00Z</time>
      </trkpt>
      <trkpt lat="59.9783062" lon="17.7393173">
        <ele>28.9769</ele>
        <time>2013-05-03T16:57:01Z</time>
      </trkpt>
      <trkpt lat="59.9783534" lon="17.7393344">
        <ele>28.0155</ele>
        <time>2013-05-03T16:57:02Z</time>
      </trkpt>
      <trkpt lat="59.9784041" lon="17.7393415">
        <ele>28.4962</ele>
        <time>2013-05-03T16:57:03Z</time>
      </trkpt>
      <trkpt lat="59.9784511" lon="17.7393503">
        <ele>28.4962</ele>
        <time>2013-05-03T16:57:04Z</time>
      </trkpt>
      <trkpt lat="59.978499" lon="17.7393591">
        <ele>28.4962</ele>
        <time>2013-05-03T16:57:05Z</time>
      </trkpt>
      <trkpt lat="59.978546" lon="17.7393646">
        <ele>28.4962</ele>
        <time>2013-05-03T16:57:06Z</time>
      </trkpt>
      <trkpt lat="59.9785919" lon="17.7393642">
        <ele>28.4962</ele>
        <time>2013-05-03T16:57:07Z</time>
      </trkpt>
      <trkpt lat="59.9786356" lon="17.7393657">
        <ele>28.4962</ele>
        <time>2013-05-03T16:57:08Z</time>
      </trkpt>
      <trkpt lat="59.978677" lon="17.7393733">
        <ele>28.0155</ele>
        <time>2013-05-03T16:57:09Z</time>
      </trkpt>
      <trkpt lat="59.9787183" lon="17.7393771">
        <ele>28.0155</ele>
        <time>2013-05-03T16:57:10Z</time>
      </trkpt>
      <trkpt lat="59.9787561" lon="17.7393797">
        <ele>28.0155</ele>
        <time>2013-05-03T16:57:11Z</time>
      </trkpt>
      <trkpt lat="59.9787931" lon="17.7393818">
        <ele>28.0155</ele>
        <time>2013-05-03T16:57:12Z</time>
      </trkpt>
      <trkpt lat="59.9788264" lon="17.7393807">
        <ele>28.0155</ele>
        <time>2013-05-03T16:57:13Z</time>
      </trkpt>
      <trkpt lat="59.9788543" lon="17.7393832">
        <ele>27.5349</ele>
        <time>2013-05-03T16:57:14Z</time>
      </trkpt>
      <trkpt lat="59.9788756" lon="17.7393963">
        <ele>27.0543</ele>
        <time>2013-05-03T16:57:15Z</time>
      </trkpt>
      <trkpt lat="59.9788935" lon="17.7394154">
        <ele>27.0543</ele>
        <time>2013-05-03T16:57:16Z</time>
      </trkpt>
      <trkpt lat="59.9789063" lon="17.7394387">
        <ele>27.0543</ele>
        <time>2013-05-03T16:57:17Z</time>
      </trkpt>
      <trkpt lat="59.9789141" lon="17.7394574">
        <ele>26.5736</ele>
        <time>2013-05-03T16:57:18Z</time>
      </trkpt>
      <trkpt lat="59.9789168" lon="17.7394668">
        <ele>26.5736</ele>
        <time>2013-05-03T16:57:19Z</time>
      </trkpt>
      <trkpt lat="59.9789169" lon="17.7394689">
        <ele>26.5736</ele>
        <time>2013-05-03T16:57:20Z</time>
      </trkpt>
      <trkpt lat="59.9789178" lon="17.7394683">
        <ele>26.5736</ele>
        <time>2013-05-03T16:57:21Z</time>
      </trkpt>
      <trkpt lat="59.978919" lon="17.7394672">
        <ele>27.0543</ele>
        <time>2013-05-03T16:57:22Z</time>
      </trkpt>
      <trkpt lat="59.9789199" lon="17.7394702">
        <ele>27.0543</ele>
        <time>2013-05-03T16:57:23Z</time>
      </trkpt>
      <trkpt lat="59.9789201" lon="17.7394734">
        <ele>27.0543</ele>
        <time>2013-05-03T16:57:24Z</time>
      </trkpt>
      <trkpt lat="59.9789204" lon="17.739477">
        <ele>27.0543</ele>
        <time>2013-05-03T16:57:25Z</time>
      </trkpt>
      <trkpt lat="59.9789201" lon="17.7394779">
        <ele>27.0543</ele>
        <time>2013-05-03T16:57:26Z</time>
      </trkpt>
      <trkpt lat="59.97892" lon="17.7394777">
        <ele>27.0543</ele>
        <time>2013-05-03T16:57:27Z</time>
      </trkpt>
      <trkpt lat="59.9789199" lon="17.7394782">
        <ele>27.0543</ele>
        <time>2013-05-03T16:57:28Z</time>
      </trkpt>
      <trkpt lat="59.9789191" lon="17.7394795">
        <ele>27.0543</ele>
        <time>2013-05-03T16:57:29Z</time>
      </trkpt>
      <trkpt lat="59.9789198" lon="17.7394838">
        <ele>27.0543</ele>
        <time>2013-05-03T16:57:30Z</time>
      </trkpt>
      <trkpt lat="59.9789203" lon="17.7394828">
        <ele>27.0543</ele>
        <time>2013-05-03T16:57:31Z</time>
      </trkpt>
      <trkpt lat="59.9789229" lon="17.7394842">
        <ele>27.0543</ele>
        <time>2013-05-03T16:57:32Z</time>
      </trkpt>
      <trkpt lat="59.9789271" lon="17.7394869">
        <ele>27.5349</ele>
        <time>2013-05-03T16:57:33Z</time>
      </trkpt>
      <trkpt lat="59.9789317" lon="17.7394911">
        <ele>28.0155</ele>
        <time>2013-05-03T16:57:34Z</time>
      </trkpt>
      <trkpt lat="59.9789335" lon="17.7394934">
        <ele>28.4962</ele>
        <time>2013-05-03T16:57:35Z</time>
      </trkpt>
      <trkpt lat="59.978933" lon="17.7394958">
        <ele>28.4962</ele>
        <time>2013-05-03T16:57:36Z</time>
      </trkpt>
      <trkpt lat="59.978933" lon="17.7394977">
        <ele>28.9769</ele>
        <time>2013-05-03T16:57:37Z</time>
      </trkpt>
      <trkpt lat="59.9789334" lon="17.7394993">
        <ele>28.9769</ele>
        <time>2013-05-03T16:57:38Z</time>
      </trkpt>
    </trkseg>
  </trk>
</gpx>